<?xml version="1.0" encoding="UTF-8"?>
<gpx version="1.1" creator="https://www.www-youtrack-es.amenigma.com" xsi:schemaLocation="http://www.topografix.com/GPX/1/1 http://www.topografix.com/GPX/1/1/gpx.xsd http://www.garmin.com/xmlschemas/GpxExtensions/v3 http://www.garmin.com/xmlschemas/GpxExtensionsv3.xsd http://www.garmin.com/xmlschemas/TrackPointExtension/v1 http://www.garmin.com/xmlschemas/TrackPointExtensionv1.xsd" xmlns:gpxtpx="http://www.garmin.com/xmlschemas/TrackPointExtension/v1" xmlns:gpxx="http://www.garmin.com/xmlschemas/GpxExtensions/v3" xmlns:xsi="http://www.w3.org/2001/XMLSchema-instance">
  <metadata>
    <link href="https://www.www-youtrack-es.amenigma.com">
      <text>YouTrack.es</text>
    </link>
    <time>2026-08-31T02:43:18Z</time>
  </metadata>
  <trk>
    <src>https://www.www-youtrack-es.amenigma.com</src>
    <link href="https://www.www-youtrack-es.amenigma.com/ruta/19975-bicicleta-por-la-ma-ana--9-">
      <text>YouTrack.es</text>
    </link>
    <trkseg>
      <trkpt lat="36.8803890" lon="-3.0041720">
        <ele>563.8</ele>
        <time>2021-03-02T09:55:56Z</time>
      </trkpt>
      <trkpt lat="36.8803450" lon="-3.0042250">
        <ele>563.8</ele>
        <time>2021-03-02T09:55:57Z</time>
      </trkpt>
      <trkpt lat="36.8802940" lon="-3.0042850">
        <ele>563.0</ele>
        <time>2021-03-02T09:55:58Z</time>
      </trkpt>
      <trkpt lat="36.8802380" lon="-3.0043540">
        <ele>562.4</ele>
        <time>2021-03-02T09:55:59Z</time>
      </trkpt>
      <trkpt lat="36.8801810" lon="-3.0044250">
        <ele>562.4</ele>
        <time>2021-03-02T09:56:00Z</time>
      </trkpt>
      <trkpt lat="36.8801270" lon="-3.0044950">
        <ele>562.4</ele>
        <time>2021-03-02T09:56:01Z</time>
      </trkpt>
      <trkpt lat="36.8800720" lon="-3.0045610">
        <ele>562.2</ele>
        <time>2021-03-02T09:56:02Z</time>
      </trkpt>
      <trkpt lat="36.8800180" lon="-3.0046250">
        <ele>562.4</ele>
        <time>2021-03-02T09:56:03Z</time>
      </trkpt>
      <trkpt lat="36.8799640" lon="-3.0046800">
        <ele>562.4</ele>
        <time>2021-03-02T09:56:04Z</time>
      </trkpt>
      <trkpt lat="36.8799130" lon="-3.0047220">
        <ele>562.6</ele>
        <time>2021-03-02T09:56:05Z</time>
      </trkpt>
      <trkpt lat="36.8798630" lon="-3.0047500">
        <ele>563.2</ele>
        <time>2021-03-02T09:56:06Z</time>
      </trkpt>
      <trkpt lat="36.8798110" lon="-3.0047690">
        <ele>563.4</ele>
        <time>2021-03-02T09:56:07Z</time>
      </trkpt>
      <trkpt lat="36.8797560" lon="-3.0047820">
        <ele>563.8</ele>
        <time>2021-03-02T09:56:08Z</time>
      </trkpt>
      <trkpt lat="36.8796940" lon="-3.0047950">
        <ele>563.8</ele>
        <time>2021-03-02T09:56:09Z</time>
      </trkpt>
      <trkpt lat="36.8796240" lon="-3.0048120">
        <ele>563.4</ele>
        <time>2021-03-02T09:56:10Z</time>
      </trkpt>
      <trkpt lat="36.8795460" lon="-3.0048330">
        <ele>562.8</ele>
        <time>2021-03-02T09:56:11Z</time>
      </trkpt>
      <trkpt lat="36.8794630" lon="-3.0048450">
        <ele>562.2</ele>
        <time>2021-03-02T09:56:12Z</time>
      </trkpt>
      <trkpt lat="36.8793760" lon="-3.0048390">
        <ele>561.0</ele>
        <time>2021-03-02T09:56:13Z</time>
      </trkpt>
      <trkpt lat="36.8792910" lon="-3.0048160">
        <ele>560.6</ele>
        <time>2021-03-02T09:56:14Z</time>
      </trkpt>
      <trkpt lat="36.8792070" lon="-3.0047820">
        <ele>559.6</ele>
        <time>2021-03-02T09:56:15Z</time>
      </trkpt>
      <trkpt lat="36.8791220" lon="-3.0047520">
        <ele>559.4</ele>
        <time>2021-03-02T09:56:16Z</time>
      </trkpt>
      <trkpt lat="36.8790360" lon="-3.0047350">
        <ele>559.0</ele>
        <time>2021-03-02T09:56:17Z</time>
      </trkpt>
      <trkpt lat="36.8789550" lon="-3.0047300">
        <ele>559.0</ele>
        <time>2021-03-02T09:56:18Z</time>
      </trkpt>
      <trkpt lat="36.8788820" lon="-3.0047340">
        <ele>559.0</ele>
        <time>2021-03-02T09:56:19Z</time>
      </trkpt>
      <trkpt lat="36.8788190" lon="-3.0047430">
        <ele>559.6</ele>
        <time>2021-03-02T09:56:20Z</time>
      </trkpt>
      <trkpt lat="36.8787640" lon="-3.0047580">
        <ele>560.0</ele>
        <time>2021-03-02T09:56:21Z</time>
      </trkpt>
      <trkpt lat="36.8787130" lon="-3.0047820">
        <ele>560.8</ele>
        <time>2021-03-02T09:56:22Z</time>
      </trkpt>
      <trkpt lat="36.8786630" lon="-3.0048060">
        <ele>560.8</ele>
        <time>2021-03-02T09:56:23Z</time>
      </trkpt>
      <trkpt lat="36.8786110" lon="-3.0048270">
        <ele>561.0</ele>
        <time>2021-03-02T09:56:24Z</time>
      </trkpt>
      <trkpt lat="36.8785560" lon="-3.0048420">
        <ele>561.0</ele>
        <time>2021-03-02T09:56:25Z</time>
      </trkpt>
      <trkpt lat="36.8784990" lon="-3.0048470">
        <ele>561.0</ele>
        <time>2021-03-02T09:56:26Z</time>
      </trkpt>
      <trkpt lat="36.8784410" lon="-3.0048480">
        <ele>560.8</ele>
        <time>2021-03-02T09:56:27Z</time>
      </trkpt>
      <trkpt lat="36.8783820" lon="-3.0048460">
        <ele>560.6</ele>
        <time>2021-03-02T09:56:28Z</time>
      </trkpt>
      <trkpt lat="36.8783210" lon="-3.0048420">
        <ele>560.4</ele>
        <time>2021-03-02T09:56:29Z</time>
      </trkpt>
      <trkpt lat="36.8782630" lon="-3.0048360">
        <ele>560.4</ele>
        <time>2021-03-02T09:56:30Z</time>
      </trkpt>
      <trkpt lat="36.8782070" lon="-3.0048290">
        <ele>560.4</ele>
        <time>2021-03-02T09:56:31Z</time>
      </trkpt>
      <trkpt lat="36.8781570" lon="-3.0048250">
        <ele>560.4</ele>
        <time>2021-03-02T09:56:32Z</time>
      </trkpt>
      <trkpt lat="36.8781140" lon="-3.0048230">
        <ele>560.6</ele>
        <time>2021-03-02T09:56:33Z</time>
      </trkpt>
      <trkpt lat="36.8780760" lon="-3.0048210">
        <ele>560.8</ele>
        <time>2021-03-02T09:56:34Z</time>
      </trkpt>
      <trkpt lat="36.8780380" lon="-3.0048150">
        <ele>561.0</ele>
        <time>2021-03-02T09:56:35Z</time>
      </trkpt>
      <trkpt lat="36.8779950" lon="-3.0048090">
        <ele>561.0</ele>
        <time>2021-03-02T09:56:36Z</time>
      </trkpt>
      <trkpt lat="36.8779480" lon="-3.0048010">
        <ele>560.8</ele>
        <time>2021-03-02T09:56:37Z</time>
      </trkpt>
      <trkpt lat="36.8778980" lon="-3.0047850">
        <ele>560.6</ele>
        <time>2021-03-02T09:56:38Z</time>
      </trkpt>
      <trkpt lat="36.8778520" lon="-3.0047580">
        <ele>560.4</ele>
        <time>2021-03-02T09:56:39Z</time>
      </trkpt>
      <trkpt lat="36.8778120" lon="-3.0047230">
        <ele>560.2</ele>
        <time>2021-03-02T09:56:40Z</time>
      </trkpt>
      <trkpt lat="36.8777770" lon="-3.0046810">
        <ele>559.8</ele>
        <time>2021-03-02T09:56:41Z</time>
      </trkpt>
      <trkpt lat="36.8777530" lon="-3.0046340">
        <ele>559.6</ele>
        <time>2021-03-02T09:56:42Z</time>
      </trkpt>
      <trkpt lat="36.8777320" lon="-3.0045890">
        <ele>558.8</ele>
        <time>2021-03-02T09:56:43Z</time>
      </trkpt>
      <trkpt lat="36.8777150" lon="-3.0045420">
        <ele>557.4</ele>
        <time>2021-03-02T09:56:44Z</time>
      </trkpt>
      <trkpt lat="36.8777010" lon="-3.0044900">
        <ele>556.6</ele>
        <time>2021-03-02T09:56:45Z</time>
      </trkpt>
      <trkpt lat="36.8776920" lon="-3.0044300">
        <ele>555.0</ele>
        <time>2021-03-02T09:56:46Z</time>
      </trkpt>
      <trkpt lat="36.8776860" lon="-3.0043670">
        <ele>554.2</ele>
        <time>2021-03-02T09:56:47Z</time>
      </trkpt>
      <trkpt lat="36.8776840" lon="-3.0043080">
        <ele>552.4</ele>
        <time>2021-03-02T09:56:48Z</time>
      </trkpt>
      <trkpt lat="36.8776850" lon="-3.0042590">
        <ele>551.4</ele>
        <time>2021-03-02T09:56:49Z</time>
      </trkpt>
      <trkpt lat="36.8776860" lon="-3.0042170">
        <ele>550.2</ele>
        <time>2021-03-02T09:56:50Z</time>
      </trkpt>
      <trkpt lat="36.8776870" lon="-3.0041800">
        <ele>549.0</ele>
        <time>2021-03-02T09:56:51Z</time>
      </trkpt>
      <trkpt lat="36.8776900" lon="-3.0041470">
        <ele>548.6</ele>
        <time>2021-03-02T09:56:52Z</time>
      </trkpt>
      <trkpt lat="36.8776950" lon="-3.0041190">
        <ele>547.4</ele>
        <time>2021-03-02T09:56:53Z</time>
      </trkpt>
      <trkpt lat="36.8777000" lon="-3.0040930">
        <ele>546.8</ele>
        <time>2021-03-02T09:56:54Z</time>
      </trkpt>
      <trkpt lat="36.8777070" lon="-3.0040680">
        <ele>545.8</ele>
        <time>2021-03-02T09:56:55Z</time>
      </trkpt>
      <trkpt lat="36.8777140" lon="-3.0040410">
        <ele>544.8</ele>
        <time>2021-03-02T09:56:56Z</time>
      </trkpt>
      <trkpt lat="36.8777230" lon="-3.0040110">
        <ele>544.2</ele>
        <time>2021-03-02T09:56:57Z</time>
      </trkpt>
      <trkpt lat="36.8777330" lon="-3.0039800">
        <ele>542.6</ele>
        <time>2021-03-02T09:56:58Z</time>
      </trkpt>
      <trkpt lat="36.8777420" lon="-3.0039490">
        <ele>541.8</ele>
        <time>2021-03-02T09:56:59Z</time>
      </trkpt>
      <trkpt lat="36.8777520" lon="-3.0039180">
        <ele>540.4</ele>
        <time>2021-03-02T09:57:00Z</time>
      </trkpt>
      <trkpt lat="36.8777640" lon="-3.0038870">
        <ele>539.8</ele>
        <time>2021-03-02T09:57:01Z</time>
      </trkpt>
      <trkpt lat="36.8777770" lon="-3.0038570">
        <ele>538.4</ele>
        <time>2021-03-02T09:57:02Z</time>
      </trkpt>
      <trkpt lat="36.8777910" lon="-3.0038290">
        <ele>537.0</ele>
        <time>2021-03-02T09:57:03Z</time>
      </trkpt>
      <trkpt lat="36.8778050" lon="-3.0037980">
        <ele>536.4</ele>
        <time>2021-03-02T09:57:04Z</time>
      </trkpt>
      <trkpt lat="36.8778190" lon="-3.0037680">
        <ele>534.8</ele>
        <time>2021-03-02T09:57:05Z</time>
      </trkpt>
      <trkpt lat="36.8778320" lon="-3.0037370">
        <ele>534.0</ele>
        <time>2021-03-02T09:57:06Z</time>
      </trkpt>
      <trkpt lat="36.8778450" lon="-3.0037060">
        <ele>532.6</ele>
        <time>2021-03-02T09:57:07Z</time>
      </trkpt>
      <trkpt lat="36.8778570" lon="-3.0036760">
        <ele>531.6</ele>
        <time>2021-03-02T09:57:08Z</time>
      </trkpt>
      <trkpt lat="36.8778680" lon="-3.0036470">
        <ele>530.0</ele>
        <time>2021-03-02T09:57:09Z</time>
      </trkpt>
      <trkpt lat="36.8778780" lon="-3.0036200">
        <ele>528.4</ele>
        <time>2021-03-02T09:57:10Z</time>
      </trkpt>
      <trkpt lat="36.8778870" lon="-3.0035880">
        <ele>527.8</ele>
        <time>2021-03-02T09:57:11Z</time>
      </trkpt>
      <trkpt lat="36.8778970" lon="-3.0035540">
        <ele>526.0</ele>
        <time>2021-03-02T09:57:12Z</time>
      </trkpt>
      <trkpt lat="36.8779070" lon="-3.0035160">
        <ele>525.4</ele>
        <time>2021-03-02T09:57:13Z</time>
      </trkpt>
      <trkpt lat="36.8779140" lon="-3.0034770">
        <ele>524.0</ele>
        <time>2021-03-02T09:57:14Z</time>
      </trkpt>
      <trkpt lat="36.8779210" lon="-3.0034420">
        <ele>523.4</ele>
        <time>2021-03-02T09:57:15Z</time>
      </trkpt>
      <trkpt lat="36.8779270" lon="-3.0034090">
        <ele>522.2</ele>
        <time>2021-03-02T09:57:16Z</time>
      </trkpt>
      <trkpt lat="36.8779340" lon="-3.0033800">
        <ele>521.0</ele>
        <time>2021-03-02T09:57:17Z</time>
      </trkpt>
      <trkpt lat="36.8779450" lon="-3.0033550">
        <ele>520.6</ele>
        <time>2021-03-02T09:57:18Z</time>
      </trkpt>
      <trkpt lat="36.8779550" lon="-3.0033310">
        <ele>519.8</ele>
        <time>2021-03-02T09:57:19Z</time>
      </trkpt>
      <trkpt lat="36.8779580" lon="-3.0033020">
        <ele>519.6</ele>
        <time>2021-03-02T09:57:20Z</time>
      </trkpt>
      <trkpt lat="36.8779550" lon="-3.0032630">
        <ele>518.8</ele>
        <time>2021-03-02T09:57:21Z</time>
      </trkpt>
      <trkpt lat="36.8779490" lon="-3.0032180">
        <ele>518.4</ele>
        <time>2021-03-02T09:57:22Z</time>
      </trkpt>
      <trkpt lat="36.8779450" lon="-3.0031660">
        <ele>517.2</ele>
        <time>2021-03-02T09:57:23Z</time>
      </trkpt>
      <trkpt lat="36.8779450" lon="-3.0031080">
        <ele>516.2</ele>
        <time>2021-03-02T09:57:24Z</time>
      </trkpt>
      <trkpt lat="36.8779460" lon="-3.0030520">
        <ele>515.6</ele>
        <time>2021-03-02T09:57:25Z</time>
      </trkpt>
      <trkpt lat="36.8779500" lon="-3.0030000">
        <ele>514.6</ele>
        <time>2021-03-02T09:57:26Z</time>
      </trkpt>
      <trkpt lat="36.8779550" lon="-3.0029540">
        <ele>514.0</ele>
        <time>2021-03-02T09:57:27Z</time>
      </trkpt>
      <trkpt lat="36.8779590" lon="-3.0029090">
        <ele>513.2</ele>
        <time>2021-03-02T09:57:28Z</time>
      </trkpt>
      <trkpt lat="36.8779620" lon="-3.0028650">
        <ele>512.6</ele>
        <time>2021-03-02T09:57:29Z</time>
      </trkpt>
      <trkpt lat="36.8779650" lon="-3.0028150">
        <ele>512.4</ele>
        <time>2021-03-02T09:57:30Z</time>
      </trkpt>
      <trkpt lat="36.8779650" lon="-3.0027580">
        <ele>511.6</ele>
        <time>2021-03-02T09:57:31Z</time>
      </trkpt>
      <trkpt lat="36.8779630" lon="-3.0026960">
        <ele>511.4</ele>
        <time>2021-03-02T09:57:32Z</time>
      </trkpt>
      <trkpt lat="36.8779600" lon="-3.0026370">
        <ele>510.6</ele>
        <time>2021-03-02T09:57:33Z</time>
      </trkpt>
      <trkpt lat="36.8779580" lon="-3.0025870">
        <ele>510.4</ele>
        <time>2021-03-02T09:57:34Z</time>
      </trkpt>
      <trkpt lat="36.8779530" lon="-3.0025450">
        <ele>510.0</ele>
        <time>2021-03-02T09:57:35Z</time>
      </trkpt>
      <trkpt lat="36.8779480" lon="-3.0025060">
        <ele>509.6</ele>
        <time>2021-03-02T09:57:36Z</time>
      </trkpt>
      <trkpt lat="36.8779480" lon="-3.0024690">
        <ele>509.4</ele>
        <time>2021-03-02T09:57:37Z</time>
      </trkpt>
      <trkpt lat="36.8779520" lon="-3.0024340">
        <ele>509.0</ele>
        <time>2021-03-02T09:57:38Z</time>
      </trkpt>
      <trkpt lat="36.8779590" lon="-3.0024000">
        <ele>508.6</ele>
        <time>2021-03-02T09:57:39Z</time>
      </trkpt>
      <trkpt lat="36.8779700" lon="-3.0023690">
        <ele>507.8</ele>
        <time>2021-03-02T09:57:40Z</time>
      </trkpt>
      <trkpt lat="36.8779820" lon="-3.0023410">
        <ele>507.4</ele>
        <time>2021-03-02T09:57:41Z</time>
      </trkpt>
      <trkpt lat="36.8779960" lon="-3.0023160">
        <ele>506.6</ele>
        <time>2021-03-02T09:57:42Z</time>
      </trkpt>
      <trkpt lat="36.8780110" lon="-3.0022950">
        <ele>505.4</ele>
        <time>2021-03-02T09:57:43Z</time>
      </trkpt>
      <trkpt lat="36.8780230" lon="-3.0022720">
        <ele>505.0</ele>
        <time>2021-03-02T09:57:44Z</time>
      </trkpt>
      <trkpt lat="36.8780350" lon="-3.0022480">
        <ele>504.2</ele>
        <time>2021-03-02T09:57:45Z</time>
      </trkpt>
      <trkpt lat="36.8780460" lon="-3.0022240">
        <ele>503.4</ele>
        <time>2021-03-02T09:57:46Z</time>
      </trkpt>
      <trkpt lat="36.8780580" lon="-3.0022040">
        <ele>502.0</ele>
        <time>2021-03-02T09:57:47Z</time>
      </trkpt>
      <trkpt lat="36.8780730" lon="-3.0021830">
        <ele>501.0</ele>
        <time>2021-03-02T09:57:48Z</time>
      </trkpt>
      <trkpt lat="36.8780860" lon="-3.0021570">
        <ele>500.4</ele>
        <time>2021-03-02T09:57:49Z</time>
      </trkpt>
      <trkpt lat="36.8780980" lon="-3.0021290">
        <ele>499.6</ele>
        <time>2021-03-02T09:57:50Z</time>
      </trkpt>
      <trkpt lat="36.8781080" lon="-3.0021010">
        <ele>499.2</ele>
        <time>2021-03-02T09:57:51Z</time>
      </trkpt>
      <trkpt lat="36.8781160" lon="-3.0020770">
        <ele>498.0</ele>
        <time>2021-03-02T09:57:52Z</time>
      </trkpt>
      <trkpt lat="36.8781230" lon="-3.0020560">
        <ele>497.4</ele>
        <time>2021-03-02T09:57:53Z</time>
      </trkpt>
      <trkpt lat="36.8781310" lon="-3.0020340">
        <ele>496.6</ele>
        <time>2021-03-02T09:57:54Z</time>
      </trkpt>
      <trkpt lat="36.8781430" lon="-3.0020090">
        <ele>495.8</ele>
        <time>2021-03-02T09:57:55Z</time>
      </trkpt>
      <trkpt lat="36.8781600" lon="-3.0019880">
        <ele>495.4</ele>
        <time>2021-03-02T09:57:56Z</time>
      </trkpt>
      <trkpt lat="36.8781770" lon="-3.0019680">
        <ele>494.4</ele>
        <time>2021-03-02T09:57:57Z</time>
      </trkpt>
      <trkpt lat="36.8781950" lon="-3.0019470">
        <ele>494.0</ele>
        <time>2021-03-02T09:57:58Z</time>
      </trkpt>
      <trkpt lat="36.8782140" lon="-3.0019270">
        <ele>493.0</ele>
        <time>2021-03-02T09:57:59Z</time>
      </trkpt>
      <trkpt lat="36.8782340" lon="-3.0019100">
        <ele>492.6</ele>
        <time>2021-03-02T09:58:00Z</time>
      </trkpt>
      <trkpt lat="36.8782510" lon="-3.0018980">
        <ele>491.8</ele>
        <time>2021-03-02T09:58:01Z</time>
      </trkpt>
      <trkpt lat="36.8782710" lon="-3.0018860">
        <ele>491.0</ele>
        <time>2021-03-02T09:58:02Z</time>
      </trkpt>
      <trkpt lat="36.8782930" lon="-3.0018760">
        <ele>490.8</ele>
        <time>2021-03-02T09:58:03Z</time>
      </trkpt>
      <trkpt lat="36.8783170" lon="-3.0018680">
        <ele>490.0</ele>
        <time>2021-03-02T09:58:04Z</time>
      </trkpt>
      <trkpt lat="36.8783410" lon="-3.0018610">
        <ele>489.4</ele>
        <time>2021-03-02T09:58:05Z</time>
      </trkpt>
      <trkpt lat="36.8783650" lon="-3.0018580">
        <ele>488.4</ele>
        <time>2021-03-02T09:58:06Z</time>
      </trkpt>
      <trkpt lat="36.8783890" lon="-3.0018570">
        <ele>487.8</ele>
        <time>2021-03-02T09:58:07Z</time>
      </trkpt>
      <trkpt lat="36.8784140" lon="-3.0018590">
        <ele>486.8</ele>
        <time>2021-03-02T09:58:08Z</time>
      </trkpt>
      <trkpt lat="36.8784410" lon="-3.0018630">
        <ele>485.6</ele>
        <time>2021-03-02T09:58:09Z</time>
      </trkpt>
      <trkpt lat="36.8784700" lon="-3.0018680">
        <ele>485.0</ele>
        <time>2021-03-02T09:58:10Z</time>
      </trkpt>
      <trkpt lat="36.8785030" lon="-3.0018740">
        <ele>483.6</ele>
        <time>2021-03-02T09:58:11Z</time>
      </trkpt>
      <trkpt lat="36.8785360" lon="-3.0018790">
        <ele>483.0</ele>
        <time>2021-03-02T09:58:12Z</time>
      </trkpt>
      <trkpt lat="36.8785670" lon="-3.0018800">
        <ele>482.0</ele>
        <time>2021-03-02T09:58:13Z</time>
      </trkpt>
      <trkpt lat="36.8785950" lon="-3.0018800">
        <ele>481.6</ele>
        <time>2021-03-02T09:58:14Z</time>
      </trkpt>
      <trkpt lat="36.8786160" lon="-3.0018820">
        <ele>481.6</ele>
        <time>2021-03-02T09:58:15Z</time>
      </trkpt>
      <trkpt lat="36.8786320" lon="-3.0018850">
        <ele>481.6</ele>
        <time>2021-03-02T09:58:16Z</time>
      </trkpt>
      <trkpt lat="36.8786450" lon="-3.0018910">
        <ele>481.8</ele>
        <time>2021-03-02T09:58:17Z</time>
      </trkpt>
      <trkpt lat="36.8786590" lon="-3.0018990">
        <ele>482.0</ele>
        <time>2021-03-02T09:58:18Z</time>
      </trkpt>
      <trkpt lat="36.8786760" lon="-3.0019120">
        <ele>482.0</ele>
        <time>2021-03-02T09:58:19Z</time>
      </trkpt>
      <trkpt lat="36.8787030" lon="-3.0019270">
        <ele>482.0</ele>
        <time>2021-03-02T09:58:20Z</time>
      </trkpt>
      <trkpt lat="36.8787340" lon="-3.0019400">
        <ele>482.0</ele>
        <time>2021-03-02T09:58:21Z</time>
      </trkpt>
      <trkpt lat="36.8787620" lon="-3.0019520">
        <ele>482.0</ele>
        <time>2021-03-02T09:58:22Z</time>
      </trkpt>
      <trkpt lat="36.8787860" lon="-3.0019610">
        <ele>482.2</ele>
        <time>2021-03-02T09:58:23Z</time>
      </trkpt>
      <trkpt lat="36.8788100" lon="-3.0019650">
        <ele>482.4</ele>
        <time>2021-03-02T09:58:24Z</time>
      </trkpt>
      <trkpt lat="36.8788300" lon="-3.0019690">
        <ele>482.6</ele>
        <time>2021-03-02T09:58:25Z</time>
      </trkpt>
      <trkpt lat="36.8788460" lon="-3.0019750">
        <ele>482.8</ele>
        <time>2021-03-02T09:58:26Z</time>
      </trkpt>
      <trkpt lat="36.8788590" lon="-3.0019800">
        <ele>483.0</ele>
        <time>2021-03-02T09:58:27Z</time>
      </trkpt>
      <trkpt lat="36.8788720" lon="-3.0019860">
        <ele>483.4</ele>
        <time>2021-03-02T09:58:28Z</time>
      </trkpt>
      <trkpt lat="36.8788840" lon="-3.0019910">
        <ele>483.6</ele>
        <time>2021-03-02T09:58:29Z</time>
      </trkpt>
      <trkpt lat="36.8788990" lon="-3.0019920">
        <ele>484.0</ele>
        <time>2021-03-02T09:58:30Z</time>
      </trkpt>
      <trkpt lat="36.8789170" lon="-3.0019910">
        <ele>484.2</ele>
        <time>2021-03-02T09:58:31Z</time>
      </trkpt>
      <trkpt lat="36.8789360" lon="-3.0019810">
        <ele>484.4</ele>
        <time>2021-03-02T09:58:32Z</time>
      </trkpt>
      <trkpt lat="36.8789530" lon="-3.0019580">
        <ele>484.6</ele>
        <time>2021-03-02T09:58:33Z</time>
      </trkpt>
      <trkpt lat="36.8789600" lon="-3.0019330">
        <ele>484.6</ele>
        <time>2021-03-02T09:58:34Z</time>
      </trkpt>
      <trkpt lat="36.8789610" lon="-3.0019100">
        <ele>484.6</ele>
        <time>2021-03-02T09:58:35Z</time>
      </trkpt>
      <trkpt lat="36.8789550" lon="-3.0018890">
        <ele>484.6</ele>
        <time>2021-03-02T09:58:36Z</time>
      </trkpt>
      <trkpt lat="36.8789470" lon="-3.0018670">
        <ele>484.8</ele>
        <time>2021-03-02T09:58:37Z</time>
      </trkpt>
      <trkpt lat="36.8789350" lon="-3.0018450">
        <ele>484.8</ele>
        <time>2021-03-02T09:58:38Z</time>
      </trkpt>
      <trkpt lat="36.8789210" lon="-3.0018240">
        <ele>484.8</ele>
        <time>2021-03-02T09:58:39Z</time>
      </trkpt>
      <trkpt lat="36.8789050" lon="-3.0018000">
        <ele>485.0</ele>
        <time>2021-03-02T09:58:40Z</time>
      </trkpt>
      <trkpt lat="36.8788840" lon="-3.0017720">
        <ele>485.0</ele>
        <time>2021-03-02T09:58:41Z</time>
      </trkpt>
      <trkpt lat="36.8788590" lon="-3.0017390">
        <ele>485.0</ele>
        <time>2021-03-02T09:58:42Z</time>
      </trkpt>
      <trkpt lat="36.8788230" lon="-3.0017080">
        <ele>484.8</ele>
        <time>2021-03-02T09:58:43Z</time>
      </trkpt>
      <trkpt lat="36.8787820" lon="-3.0016760">
        <ele>484.0</ele>
        <time>2021-03-02T09:58:44Z</time>
      </trkpt>
      <trkpt lat="36.8787540" lon="-3.0016440">
        <ele>483.6</ele>
        <time>2021-03-02T09:58:45Z</time>
      </trkpt>
      <trkpt lat="36.8787390" lon="-3.0016040">
        <ele>483.0</ele>
        <time>2021-03-02T09:58:46Z</time>
      </trkpt>
      <trkpt lat="36.8787300" lon="-3.0015580">
        <ele>482.6</ele>
        <time>2021-03-02T09:58:47Z</time>
      </trkpt>
      <trkpt lat="36.8787240" lon="-3.0015070">
        <ele>482.4</ele>
        <time>2021-03-02T09:58:48Z</time>
      </trkpt>
      <trkpt lat="36.8787290" lon="-3.0014550">
        <ele>481.8</ele>
        <time>2021-03-02T09:58:49Z</time>
      </trkpt>
      <trkpt lat="36.8787470" lon="-3.0014060">
        <ele>481.4</ele>
        <time>2021-03-02T09:58:50Z</time>
      </trkpt>
      <trkpt lat="36.8787770" lon="-3.0013570">
        <ele>480.4</ele>
        <time>2021-03-02T09:58:51Z</time>
      </trkpt>
      <trkpt lat="36.8788130" lon="-3.0013070">
        <ele>480.0</ele>
        <time>2021-03-02T09:58:52Z</time>
      </trkpt>
      <trkpt lat="36.8788450" lon="-3.0012590">
        <ele>479.2</ele>
        <time>2021-03-02T09:58:53Z</time>
      </trkpt>
      <trkpt lat="36.8788630" lon="-3.0012180">
        <ele>479.0</ele>
        <time>2021-03-02T09:58:54Z</time>
      </trkpt>
      <trkpt lat="36.8788690" lon="-3.0011880">
        <ele>479.2</ele>
        <time>2021-03-02T09:58:55Z</time>
      </trkpt>
      <trkpt lat="36.8788680" lon="-3.0011640">
        <ele>479.6</ele>
        <time>2021-03-02T09:58:56Z</time>
      </trkpt>
      <trkpt lat="36.8788600" lon="-3.0011410">
        <ele>479.8</ele>
        <time>2021-03-02T09:58:57Z</time>
      </trkpt>
      <trkpt lat="36.8788480" lon="-3.0011160">
        <ele>480.2</ele>
        <time>2021-03-02T09:58:58Z</time>
      </trkpt>
      <trkpt lat="36.8788340" lon="-3.0010920">
        <ele>480.4</ele>
        <time>2021-03-02T09:58:59Z</time>
      </trkpt>
      <trkpt lat="36.8788190" lon="-3.0010710">
        <ele>480.8</ele>
        <time>2021-03-02T09:59:00Z</time>
      </trkpt>
      <trkpt lat="36.8788040" lon="-3.0010510">
        <ele>481.0</ele>
        <time>2021-03-02T09:59:01Z</time>
      </trkpt>
      <trkpt lat="36.8787910" lon="-3.0010330">
        <ele>481.2</ele>
        <time>2021-03-02T09:59:02Z</time>
      </trkpt>
      <trkpt lat="36.8787790" lon="-3.0010160">
        <ele>481.8</ele>
        <time>2021-03-02T09:59:03Z</time>
      </trkpt>
      <trkpt lat="36.8787640" lon="-3.0009980">
        <ele>481.8</ele>
        <time>2021-03-02T09:59:04Z</time>
      </trkpt>
      <trkpt lat="36.8787500" lon="-3.0009810">
        <ele>482.2</ele>
        <time>2021-03-02T09:59:05Z</time>
      </trkpt>
      <trkpt lat="36.8787380" lon="-3.0009660">
        <ele>482.8</ele>
        <time>2021-03-02T09:59:06Z</time>
      </trkpt>
      <trkpt lat="36.8787260" lon="-3.0009530">
        <ele>483.0</ele>
        <time>2021-03-02T09:59:07Z</time>
      </trkpt>
      <trkpt lat="36.8787140" lon="-3.0009390">
        <ele>483.4</ele>
        <time>2021-03-02T09:59:08Z</time>
      </trkpt>
      <trkpt lat="36.8787030" lon="-3.0009240">
        <ele>483.4</ele>
        <time>2021-03-02T09:59:09Z</time>
      </trkpt>
      <trkpt lat="36.8786930" lon="-3.0009080">
        <ele>483.8</ele>
        <time>2021-03-02T09:59:10Z</time>
      </trkpt>
      <trkpt lat="36.8786840" lon="-3.0008880">
        <ele>484.0</ele>
        <time>2021-03-02T09:59:11Z</time>
      </trkpt>
      <trkpt lat="36.8786740" lon="-3.0008610">
        <ele>484.2</ele>
        <time>2021-03-02T09:59:12Z</time>
      </trkpt>
      <trkpt lat="36.8786690" lon="-3.0008210">
        <ele>484.0</ele>
        <time>2021-03-02T09:59:13Z</time>
      </trkpt>
      <trkpt lat="36.8786740" lon="-3.0007800">
        <ele>483.8</ele>
        <time>2021-03-02T09:59:14Z</time>
      </trkpt>
      <trkpt lat="36.8786920" lon="-3.0007400">
        <ele>483.2</ele>
        <time>2021-03-02T09:59:15Z</time>
      </trkpt>
      <trkpt lat="36.8787150" lon="-3.0007030">
        <ele>483.0</ele>
        <time>2021-03-02T09:59:16Z</time>
      </trkpt>
      <trkpt lat="36.8787420" lon="-3.0006680">
        <ele>482.0</ele>
        <time>2021-03-02T09:59:17Z</time>
      </trkpt>
      <trkpt lat="36.8787690" lon="-3.0006330">
        <ele>481.8</ele>
        <time>2021-03-02T09:59:18Z</time>
      </trkpt>
      <trkpt lat="36.8787930" lon="-3.0006000">
        <ele>481.0</ele>
        <time>2021-03-02T09:59:19Z</time>
      </trkpt>
      <trkpt lat="36.8788140" lon="-3.0005640">
        <ele>480.0</ele>
        <time>2021-03-02T09:59:20Z</time>
      </trkpt>
      <trkpt lat="36.8788390" lon="-3.0005220">
        <ele>479.4</ele>
        <time>2021-03-02T09:59:21Z</time>
      </trkpt>
      <trkpt lat="36.8788680" lon="-3.0004730">
        <ele>478.2</ele>
        <time>2021-03-02T09:59:22Z</time>
      </trkpt>
      <trkpt lat="36.8788940" lon="-3.0004210">
        <ele>477.6</ele>
        <time>2021-03-02T09:59:23Z</time>
      </trkpt>
      <trkpt lat="36.8789150" lon="-3.0003760">
        <ele>476.2</ele>
        <time>2021-03-02T09:59:24Z</time>
      </trkpt>
      <trkpt lat="36.8789380" lon="-3.0003310">
        <ele>475.6</ele>
        <time>2021-03-02T09:59:25Z</time>
      </trkpt>
      <trkpt lat="36.8789600" lon="-3.0002790">
        <ele>474.6</ele>
        <time>2021-03-02T09:59:26Z</time>
      </trkpt>
      <trkpt lat="36.8789790" lon="-3.0002210">
        <ele>473.6</ele>
        <time>2021-03-02T09:59:27Z</time>
      </trkpt>
      <trkpt lat="36.8789920" lon="-3.0001680">
        <ele>473.0</ele>
        <time>2021-03-02T09:59:28Z</time>
      </trkpt>
      <trkpt lat="36.8789980" lon="-3.0001210">
        <ele>471.8</ele>
        <time>2021-03-02T09:59:29Z</time>
      </trkpt>
      <trkpt lat="36.8790040" lon="-3.0000720">
        <ele>471.4</ele>
        <time>2021-03-02T09:59:30Z</time>
      </trkpt>
      <trkpt lat="36.8790190" lon="-3.0000250">
        <ele>470.8</ele>
        <time>2021-03-02T09:59:31Z</time>
      </trkpt>
      <trkpt lat="36.8790410" lon="-2.9999910">
        <ele>470.0</ele>
        <time>2021-03-02T09:59:32Z</time>
      </trkpt>
      <trkpt lat="36.8790670" lon="-2.9999720">
        <ele>469.8</ele>
        <time>2021-03-02T09:59:33Z</time>
      </trkpt>
      <trkpt lat="36.8790980" lon="-2.9999590">
        <ele>469.0</ele>
        <time>2021-03-02T09:59:34Z</time>
      </trkpt>
      <trkpt lat="36.8791320" lon="-2.9999400">
        <ele>468.6</ele>
        <time>2021-03-02T09:59:35Z</time>
      </trkpt>
      <trkpt lat="36.8791700" lon="-2.9999120">
        <ele>467.8</ele>
        <time>2021-03-02T09:59:36Z</time>
      </trkpt>
      <trkpt lat="36.8792050" lon="-2.9998840">
        <ele>467.4</ele>
        <time>2021-03-02T09:59:37Z</time>
      </trkpt>
      <trkpt lat="36.8792300" lon="-2.9998600">
        <ele>466.6</ele>
        <time>2021-03-02T09:59:38Z</time>
      </trkpt>
      <trkpt lat="36.8792420" lon="-2.9998450">
        <ele>466.4</ele>
        <time>2021-03-02T09:59:39Z</time>
      </trkpt>
      <trkpt lat="36.8792400" lon="-2.9998390">
        <ele>466.4</ele>
        <time>2021-03-02T09:59:40Z</time>
      </trkpt>
      <trkpt lat="36.8792350" lon="-2.9998330">
        <ele>466.2</ele>
        <time>2021-03-02T09:59:41Z</time>
      </trkpt>
      <trkpt lat="36.8792260" lon="-2.9998170">
        <ele>466.2</ele>
        <time>2021-03-02T09:59:42Z</time>
      </trkpt>
      <trkpt lat="36.8792140" lon="-2.9997990">
        <ele>466.2</ele>
        <time>2021-03-02T09:59:43Z</time>
      </trkpt>
      <trkpt lat="36.8791980" lon="-2.9997780">
        <ele>466.2</ele>
        <time>2021-03-02T09:59:44Z</time>
      </trkpt>
      <trkpt lat="36.8791780" lon="-2.9997520">
        <ele>466.2</ele>
        <time>2021-03-02T09:59:45Z</time>
      </trkpt>
      <trkpt lat="36.8791570" lon="-2.9997210">
        <ele>466.2</ele>
        <time>2021-03-02T09:59:46Z</time>
      </trkpt>
      <trkpt lat="36.8791340" lon="-2.9996880">
        <ele>466.2</ele>
        <time>2021-03-02T09:59:47Z</time>
      </trkpt>
      <trkpt lat="36.8791090" lon="-2.9996560">
        <ele>466.4</ele>
        <time>2021-03-02T09:59:48Z</time>
      </trkpt>
      <trkpt lat="36.8790840" lon="-2.9996300">
        <ele>466.6</ele>
        <time>2021-03-02T09:59:49Z</time>
      </trkpt>
      <trkpt lat="36.8790610" lon="-2.9996110">
        <ele>467.0</ele>
        <time>2021-03-02T09:59:50Z</time>
      </trkpt>
      <trkpt lat="36.8790390" lon="-2.9995950">
        <ele>467.2</ele>
        <time>2021-03-02T09:59:51Z</time>
      </trkpt>
      <trkpt lat="36.8790220" lon="-2.9995810">
        <ele>467.6</ele>
        <time>2021-03-02T09:59:52Z</time>
      </trkpt>
      <trkpt lat="36.8790070" lon="-2.9995700">
        <ele>468.0</ele>
        <time>2021-03-02T09:59:53Z</time>
      </trkpt>
      <trkpt lat="36.8789920" lon="-2.9995580">
        <ele>468.2</ele>
        <time>2021-03-02T09:59:54Z</time>
      </trkpt>
      <trkpt lat="36.8789790" lon="-2.9995420">
        <ele>468.6</ele>
        <time>2021-03-02T09:59:55Z</time>
      </trkpt>
      <trkpt lat="36.8789680" lon="-2.9995250">
        <ele>468.8</ele>
        <time>2021-03-02T09:59:56Z</time>
      </trkpt>
      <trkpt lat="36.8789590" lon="-2.9995090">
        <ele>469.2</ele>
        <time>2021-03-02T09:59:57Z</time>
      </trkpt>
      <trkpt lat="36.8789530" lon="-2.9994930">
        <ele>469.4</ele>
        <time>2021-03-02T09:59:58Z</time>
      </trkpt>
      <trkpt lat="36.8789510" lon="-2.9994700">
        <ele>469.6</ele>
        <time>2021-03-02T09:59:59Z</time>
      </trkpt>
      <trkpt lat="36.8789510" lon="-2.9994460">
        <ele>470.0</ele>
        <time>2021-03-02T10:00:00Z</time>
      </trkpt>
      <trkpt lat="36.8789510" lon="-2.9994280">
        <ele>470.2</ele>
        <time>2021-03-02T10:00:01Z</time>
      </trkpt>
      <trkpt lat="36.8789550" lon="-2.9994120">
        <ele>470.6</ele>
        <time>2021-03-02T10:00:02Z</time>
      </trkpt>
      <trkpt lat="36.8789600" lon="-2.9993990">
        <ele>471.0</ele>
        <time>2021-03-02T10:00:03Z</time>
      </trkpt>
      <trkpt lat="36.8789620" lon="-2.9993840">
        <ele>471.4</ele>
        <time>2021-03-02T10:00:04Z</time>
      </trkpt>
      <trkpt lat="36.8789630" lon="-2.9993680">
        <ele>471.6</ele>
        <time>2021-03-02T10:00:05Z</time>
      </trkpt>
      <trkpt lat="36.8789650" lon="-2.9993540">
        <ele>471.8</ele>
        <time>2021-03-02T10:00:06Z</time>
      </trkpt>
      <trkpt lat="36.8789670" lon="-2.9993390">
        <ele>472.2</ele>
        <time>2021-03-02T10:00:07Z</time>
      </trkpt>
      <trkpt lat="36.8789670" lon="-2.9993220">
        <ele>472.4</ele>
        <time>2021-03-02T10:00:08Z</time>
      </trkpt>
      <trkpt lat="36.8789690" lon="-2.9993050">
        <ele>472.8</ele>
        <time>2021-03-02T10:00:09Z</time>
      </trkpt>
      <trkpt lat="36.8789740" lon="-2.9992870">
        <ele>472.8</ele>
        <time>2021-03-02T10:00:10Z</time>
      </trkpt>
      <trkpt lat="36.8789810" lon="-2.9992680">
        <ele>473.0</ele>
        <time>2021-03-02T10:00:11Z</time>
      </trkpt>
      <trkpt lat="36.8789940" lon="-2.9992510">
        <ele>473.0</ele>
        <time>2021-03-02T10:00:12Z</time>
      </trkpt>
      <trkpt lat="36.8790100" lon="-2.9992370">
        <ele>473.0</ele>
        <time>2021-03-02T10:00:13Z</time>
      </trkpt>
      <trkpt lat="36.8790260" lon="-2.9992270">
        <ele>473.0</ele>
        <time>2021-03-02T10:00:14Z</time>
      </trkpt>
      <trkpt lat="36.8790420" lon="-2.9992200">
        <ele>473.0</ele>
        <time>2021-03-02T10:00:15Z</time>
      </trkpt>
      <trkpt lat="36.8790600" lon="-2.9992150">
        <ele>473.0</ele>
        <time>2021-03-02T10:00:16Z</time>
      </trkpt>
      <trkpt lat="36.8790790" lon="-2.9992100">
        <ele>473.2</ele>
        <time>2021-03-02T10:00:17Z</time>
      </trkpt>
      <trkpt lat="36.8790990" lon="-2.9992010">
        <ele>473.2</ele>
        <time>2021-03-02T10:00:18Z</time>
      </trkpt>
      <trkpt lat="36.8791190" lon="-2.9991900">
        <ele>473.4</ele>
        <time>2021-03-02T10:00:19Z</time>
      </trkpt>
      <trkpt lat="36.8791360" lon="-2.9991760">
        <ele>473.6</ele>
        <time>2021-03-02T10:00:20Z</time>
      </trkpt>
      <trkpt lat="36.8791510" lon="-2.9991600">
        <ele>473.6</ele>
        <time>2021-03-02T10:00:21Z</time>
      </trkpt>
      <trkpt lat="36.8791640" lon="-2.9991410">
        <ele>473.6</ele>
        <time>2021-03-02T10:00:22Z</time>
      </trkpt>
      <trkpt lat="36.8791790" lon="-2.9991240">
        <ele>473.8</ele>
        <time>2021-03-02T10:00:23Z</time>
      </trkpt>
      <trkpt lat="36.8791950" lon="-2.9991080">
        <ele>473.8</ele>
        <time>2021-03-02T10:00:24Z</time>
      </trkpt>
      <trkpt lat="36.8792140" lon="-2.9990900">
        <ele>473.8</ele>
        <time>2021-03-02T10:00:25Z</time>
      </trkpt>
      <trkpt lat="36.8792350" lon="-2.9990700">
        <ele>473.8</ele>
        <time>2021-03-02T10:00:26Z</time>
      </trkpt>
      <trkpt lat="36.8792570" lon="-2.9990490">
        <ele>473.8</ele>
        <time>2021-03-02T10:00:27Z</time>
      </trkpt>
      <trkpt lat="36.8792780" lon="-2.9990290">
        <ele>474.0</ele>
        <time>2021-03-02T10:00:28Z</time>
      </trkpt>
      <trkpt lat="36.8792990" lon="-2.9990110">
        <ele>474.0</ele>
        <time>2021-03-02T10:00:29Z</time>
      </trkpt>
      <trkpt lat="36.8793200" lon="-2.9989910">
        <ele>474.2</ele>
        <time>2021-03-02T10:00:30Z</time>
      </trkpt>
      <trkpt lat="36.8793430" lon="-2.9989710">
        <ele>474.4</ele>
        <time>2021-03-02T10:00:31Z</time>
      </trkpt>
      <trkpt lat="36.8793660" lon="-2.9989520">
        <ele>474.4</ele>
        <time>2021-03-02T10:00:32Z</time>
      </trkpt>
      <trkpt lat="36.8793910" lon="-2.9989330">
        <ele>474.4</ele>
        <time>2021-03-02T10:00:33Z</time>
      </trkpt>
      <trkpt lat="36.8794140" lon="-2.9989150">
        <ele>474.4</ele>
        <time>2021-03-02T10:00:34Z</time>
      </trkpt>
      <trkpt lat="36.8794360" lon="-2.9988970">
        <ele>474.6</ele>
        <time>2021-03-02T10:00:35Z</time>
      </trkpt>
      <trkpt lat="36.8794550" lon="-2.9988760">
        <ele>474.6</ele>
        <time>2021-03-02T10:00:36Z</time>
      </trkpt>
      <trkpt lat="36.8794740" lon="-2.9988540">
        <ele>474.8</ele>
        <time>2021-03-02T10:00:37Z</time>
      </trkpt>
      <trkpt lat="36.8794900" lon="-2.9988310">
        <ele>475.0</ele>
        <time>2021-03-02T10:00:38Z</time>
      </trkpt>
      <trkpt lat="36.8795030" lon="-2.9988110">
        <ele>475.0</ele>
        <time>2021-03-02T10:00:39Z</time>
      </trkpt>
      <trkpt lat="36.8795150" lon="-2.9987930">
        <ele>475.2</ele>
        <time>2021-03-02T10:00:40Z</time>
      </trkpt>
      <trkpt lat="36.8795280" lon="-2.9987740">
        <ele>475.4</ele>
        <time>2021-03-02T10:00:41Z</time>
      </trkpt>
      <trkpt lat="36.8795410" lon="-2.9987530">
        <ele>475.8</ele>
        <time>2021-03-02T10:00:42Z</time>
      </trkpt>
      <trkpt lat="36.8795530" lon="-2.9987300">
        <ele>475.8</ele>
        <time>2021-03-02T10:00:43Z</time>
      </trkpt>
      <trkpt lat="36.8795630" lon="-2.9987100">
        <ele>476.0</ele>
        <time>2021-03-02T10:00:44Z</time>
      </trkpt>
      <trkpt lat="36.8795690" lon="-2.9986930">
        <ele>476.4</ele>
        <time>2021-03-02T10:00:45Z</time>
      </trkpt>
      <trkpt lat="36.8795720" lon="-2.9986750">
        <ele>476.6</ele>
        <time>2021-03-02T10:00:46Z</time>
      </trkpt>
      <trkpt lat="36.8795760" lon="-2.9986510">
        <ele>477.0</ele>
        <time>2021-03-02T10:00:47Z</time>
      </trkpt>
      <trkpt lat="36.8795780" lon="-2.9986180">
        <ele>477.0</ele>
        <time>2021-03-02T10:00:48Z</time>
      </trkpt>
      <trkpt lat="36.8795820" lon="-2.9985780">
        <ele>477.0</ele>
        <time>2021-03-02T10:00:49Z</time>
      </trkpt>
      <trkpt lat="36.8795870" lon="-2.9985370">
        <ele>476.8</ele>
        <time>2021-03-02T10:00:50Z</time>
      </trkpt>
      <trkpt lat="36.8795880" lon="-2.9984930">
        <ele>476.8</ele>
        <time>2021-03-02T10:00:51Z</time>
      </trkpt>
      <trkpt lat="36.8795830" lon="-2.9984430">
        <ele>476.4</ele>
        <time>2021-03-02T10:00:52Z</time>
      </trkpt>
      <trkpt lat="36.8795820" lon="-2.9983880">
        <ele>476.2</ele>
        <time>2021-03-02T10:00:53Z</time>
      </trkpt>
      <trkpt lat="36.8795910" lon="-2.9983260">
        <ele>476.0</ele>
        <time>2021-03-02T10:00:54Z</time>
      </trkpt>
      <trkpt lat="36.8796130" lon="-2.9982640">
        <ele>475.6</ele>
        <time>2021-03-02T10:00:55Z</time>
      </trkpt>
      <trkpt lat="36.8796490" lon="-2.9982050">
        <ele>475.4</ele>
        <time>2021-03-02T10:00:56Z</time>
      </trkpt>
      <trkpt lat="36.8796940" lon="-2.9981480">
        <ele>474.6</ele>
        <time>2021-03-02T10:00:57Z</time>
      </trkpt>
      <trkpt lat="36.8797420" lon="-2.9980910">
        <ele>474.2</ele>
        <time>2021-03-02T10:00:58Z</time>
      </trkpt>
      <trkpt lat="36.8797920" lon="-2.9980310">
        <ele>473.6</ele>
        <time>2021-03-02T10:00:59Z</time>
      </trkpt>
      <trkpt lat="36.8798420" lon="-2.9979720">
        <ele>473.4</ele>
        <time>2021-03-02T10:01:00Z</time>
      </trkpt>
      <trkpt lat="36.8798920" lon="-2.9979140">
        <ele>473.0</ele>
        <time>2021-03-02T10:01:01Z</time>
      </trkpt>
      <trkpt lat="36.8799420" lon="-2.9978570">
        <ele>472.8</ele>
        <time>2021-03-02T10:01:02Z</time>
      </trkpt>
      <trkpt lat="36.8799910" lon="-2.9978020">
        <ele>472.6</ele>
        <time>2021-03-02T10:01:03Z</time>
      </trkpt>
      <trkpt lat="36.8800390" lon="-2.9977470">
        <ele>472.4</ele>
        <time>2021-03-02T10:01:04Z</time>
      </trkpt>
      <trkpt lat="36.8800850" lon="-2.9976940">
        <ele>472.4</ele>
        <time>2021-03-02T10:01:05Z</time>
      </trkpt>
      <trkpt lat="36.8801300" lon="-2.9976430">
        <ele>472.2</ele>
        <time>2021-03-02T10:01:06Z</time>
      </trkpt>
      <trkpt lat="36.8801720" lon="-2.9975960">
        <ele>472.2</ele>
        <time>2021-03-02T10:01:07Z</time>
      </trkpt>
      <trkpt lat="36.8802130" lon="-2.9975510">
        <ele>472.2</ele>
        <time>2021-03-02T10:01:08Z</time>
      </trkpt>
      <trkpt lat="36.8802510" lon="-2.9975080">
        <ele>472.2</ele>
        <time>2021-03-02T10:01:09Z</time>
      </trkpt>
      <trkpt lat="36.8802900" lon="-2.9974680">
        <ele>472.2</ele>
        <time>2021-03-02T10:01:10Z</time>
      </trkpt>
      <trkpt lat="36.8803270" lon="-2.9974310">
        <ele>472.2</ele>
        <time>2021-03-02T10:01:11Z</time>
      </trkpt>
      <trkpt lat="36.8803640" lon="-2.9973970">
        <ele>472.2</ele>
        <time>2021-03-02T10:01:12Z</time>
      </trkpt>
      <trkpt lat="36.8803990" lon="-2.9973640">
        <ele>472.4</ele>
        <time>2021-03-02T10:01:13Z</time>
      </trkpt>
      <trkpt lat="36.8804330" lon="-2.9973340">
        <ele>472.4</ele>
        <time>2021-03-02T10:01:14Z</time>
      </trkpt>
      <trkpt lat="36.8804700" lon="-2.9973070">
        <ele>472.4</ele>
        <time>2021-03-02T10:01:15Z</time>
      </trkpt>
      <trkpt lat="36.8805090" lon="-2.9972830">
        <ele>472.4</ele>
        <time>2021-03-02T10:01:16Z</time>
      </trkpt>
      <trkpt lat="36.8805500" lon="-2.9972590">
        <ele>472.4</ele>
        <time>2021-03-02T10:01:17Z</time>
      </trkpt>
      <trkpt lat="36.8805920" lon="-2.9972300">
        <ele>472.4</ele>
        <time>2021-03-02T10:01:18Z</time>
      </trkpt>
      <trkpt lat="36.8806360" lon="-2.9971990">
        <ele>472.2</ele>
        <time>2021-03-02T10:01:19Z</time>
      </trkpt>
      <trkpt lat="36.8806820" lon="-2.9971650">
        <ele>472.2</ele>
        <time>2021-03-02T10:01:20Z</time>
      </trkpt>
      <trkpt lat="36.8807300" lon="-2.9971300">
        <ele>472.0</ele>
        <time>2021-03-02T10:01:21Z</time>
      </trkpt>
      <trkpt lat="36.8807800" lon="-2.9970900">
        <ele>472.0</ele>
        <time>2021-03-02T10:01:22Z</time>
      </trkpt>
      <trkpt lat="36.8808280" lon="-2.9970430">
        <ele>471.8</ele>
        <time>2021-03-02T10:01:23Z</time>
      </trkpt>
      <trkpt lat="36.8808710" lon="-2.9969840">
        <ele>471.4</ele>
        <time>2021-03-02T10:01:24Z</time>
      </trkpt>
      <trkpt lat="36.8809050" lon="-2.9969130">
        <ele>471.0</ele>
        <time>2021-03-02T10:01:25Z</time>
      </trkpt>
      <trkpt lat="36.8809310" lon="-2.9968350">
        <ele>470.8</ele>
        <time>2021-03-02T10:01:26Z</time>
      </trkpt>
      <trkpt lat="36.8809530" lon="-2.9967520">
        <ele>470.6</ele>
        <time>2021-03-02T10:01:27Z</time>
      </trkpt>
      <trkpt lat="36.8809730" lon="-2.9966640">
        <ele>470.2</ele>
        <time>2021-03-02T10:01:28Z</time>
      </trkpt>
      <trkpt lat="36.8809890" lon="-2.9965740">
        <ele>469.8</ele>
        <time>2021-03-02T10:01:29Z</time>
      </trkpt>
      <trkpt lat="36.8809910" lon="-2.9964790">
        <ele>469.4</ele>
        <time>2021-03-02T10:01:30Z</time>
      </trkpt>
      <trkpt lat="36.8809790" lon="-2.9963820">
        <ele>469.0</ele>
        <time>2021-03-02T10:01:31Z</time>
      </trkpt>
      <trkpt lat="36.8809590" lon="-2.9962870">
        <ele>468.4</ele>
        <time>2021-03-02T10:01:32Z</time>
      </trkpt>
      <trkpt lat="36.8809360" lon="-2.9961900">
        <ele>468.0</ele>
        <time>2021-03-02T10:01:33Z</time>
      </trkpt>
      <trkpt lat="36.8809120" lon="-2.9960900">
        <ele>467.4</ele>
        <time>2021-03-02T10:01:34Z</time>
      </trkpt>
      <trkpt lat="36.8808880" lon="-2.9959860">
        <ele>466.8</ele>
        <time>2021-03-02T10:01:35Z</time>
      </trkpt>
      <trkpt lat="36.8808610" lon="-2.9958790">
        <ele>466.4</ele>
        <time>2021-03-02T10:01:36Z</time>
      </trkpt>
      <trkpt lat="36.8808290" lon="-2.9957690">
        <ele>465.8</ele>
        <time>2021-03-02T10:01:37Z</time>
      </trkpt>
      <trkpt lat="36.8807960" lon="-2.9956580">
        <ele>465.2</ele>
        <time>2021-03-02T10:01:38Z</time>
      </trkpt>
      <trkpt lat="36.8807610" lon="-2.9955430">
        <ele>464.2</ele>
        <time>2021-03-02T10:01:39Z</time>
      </trkpt>
      <trkpt lat="36.8807270" lon="-2.9954230">
        <ele>463.0</ele>
        <time>2021-03-02T10:01:40Z</time>
      </trkpt>
      <trkpt lat="36.8806960" lon="-2.9953010">
        <ele>462.6</ele>
        <time>2021-03-02T10:01:41Z</time>
      </trkpt>
      <trkpt lat="36.8806650" lon="-2.9951760">
        <ele>461.2</ele>
        <time>2021-03-02T10:01:42Z</time>
      </trkpt>
      <trkpt lat="36.8806310" lon="-2.9950480">
        <ele>460.6</ele>
        <time>2021-03-02T10:01:43Z</time>
      </trkpt>
      <trkpt lat="36.8805970" lon="-2.9949170">
        <ele>459.6</ele>
        <time>2021-03-02T10:01:44Z</time>
      </trkpt>
      <trkpt lat="36.8805690" lon="-2.9947810">
        <ele>459.0</ele>
        <time>2021-03-02T10:01:45Z</time>
      </trkpt>
      <trkpt lat="36.8805530" lon="-2.9946420">
        <ele>457.8</ele>
        <time>2021-03-02T10:01:46Z</time>
      </trkpt>
      <trkpt lat="36.8805400" lon="-2.9945070">
        <ele>456.6</ele>
        <time>2021-03-02T10:01:47Z</time>
      </trkpt>
      <trkpt lat="36.8805090" lon="-2.9943860">
        <ele>456.0</ele>
        <time>2021-03-02T10:01:48Z</time>
      </trkpt>
      <trkpt lat="36.8804620" lon="-2.9942880">
        <ele>455.2</ele>
        <time>2021-03-02T10:01:49Z</time>
      </trkpt>
      <trkpt lat="36.8804150" lon="-2.9941960">
        <ele>454.8</ele>
        <time>2021-03-02T10:01:50Z</time>
      </trkpt>
      <trkpt lat="36.8803860" lon="-2.9940940">
        <ele>454.0</ele>
        <time>2021-03-02T10:01:51Z</time>
      </trkpt>
      <trkpt lat="36.8803870" lon="-2.9939830">
        <ele>453.6</ele>
        <time>2021-03-02T10:01:52Z</time>
      </trkpt>
      <trkpt lat="36.8804060" lon="-2.9938700">
        <ele>453.0</ele>
        <time>2021-03-02T10:01:53Z</time>
      </trkpt>
      <trkpt lat="36.8804290" lon="-2.9937540">
        <ele>452.0</ele>
        <time>2021-03-02T10:01:54Z</time>
      </trkpt>
      <trkpt lat="36.8804470" lon="-2.9936380">
        <ele>451.4</ele>
        <time>2021-03-02T10:01:55Z</time>
      </trkpt>
      <trkpt lat="36.8804540" lon="-2.9935250">
        <ele>450.2</ele>
        <time>2021-03-02T10:01:56Z</time>
      </trkpt>
      <trkpt lat="36.8804580" lon="-2.9934230">
        <ele>449.8</ele>
        <time>2021-03-02T10:01:57Z</time>
      </trkpt>
      <trkpt lat="36.8804800" lon="-2.9933350">
        <ele>449.0</ele>
        <time>2021-03-02T10:01:58Z</time>
      </trkpt>
      <trkpt lat="36.8805310" lon="-2.9932650">
        <ele>448.2</ele>
        <time>2021-03-02T10:01:59Z</time>
      </trkpt>
      <trkpt lat="36.8806000" lon="-2.9932090">
        <ele>447.8</ele>
        <time>2021-03-02T10:02:00Z</time>
      </trkpt>
      <trkpt lat="36.8806800" lon="-2.9931750">
        <ele>447.0</ele>
        <time>2021-03-02T10:02:01Z</time>
      </trkpt>
      <trkpt lat="36.8807680" lon="-2.9931740">
        <ele>446.6</ele>
        <time>2021-03-02T10:02:02Z</time>
      </trkpt>
      <trkpt lat="36.8808590" lon="-2.9931950">
        <ele>445.8</ele>
        <time>2021-03-02T10:02:03Z</time>
      </trkpt>
      <trkpt lat="36.8809530" lon="-2.9932030">
        <ele>445.2</ele>
        <time>2021-03-02T10:02:04Z</time>
      </trkpt>
      <trkpt lat="36.8810450" lon="-2.9931830">
        <ele>444.2</ele>
        <time>2021-03-02T10:02:05Z</time>
      </trkpt>
      <trkpt lat="36.8811310" lon="-2.9931290">
        <ele>443.0</ele>
        <time>2021-03-02T10:02:06Z</time>
      </trkpt>
      <trkpt lat="36.8812030" lon="-2.9930440">
        <ele>442.4</ele>
        <time>2021-03-02T10:02:07Z</time>
      </trkpt>
      <trkpt lat="36.8812650" lon="-2.9929400">
        <ele>441.4</ele>
        <time>2021-03-02T10:02:08Z</time>
      </trkpt>
      <trkpt lat="36.8813220" lon="-2.9928360">
        <ele>440.8</ele>
        <time>2021-03-02T10:02:09Z</time>
      </trkpt>
      <trkpt lat="36.8813690" lon="-2.9927300">
        <ele>440.2</ele>
        <time>2021-03-02T10:02:10Z</time>
      </trkpt>
      <trkpt lat="36.8813910" lon="-2.9926210">
        <ele>440.2</ele>
        <time>2021-03-02T10:02:11Z</time>
      </trkpt>
      <trkpt lat="36.8813840" lon="-2.9925190">
        <ele>440.0</ele>
        <time>2021-03-02T10:02:12Z</time>
      </trkpt>
      <trkpt lat="36.8813500" lon="-2.9924380">
        <ele>440.4</ele>
        <time>2021-03-02T10:02:13Z</time>
      </trkpt>
      <trkpt lat="36.8812980" lon="-2.9923820">
        <ele>440.6</ele>
        <time>2021-03-02T10:02:14Z</time>
      </trkpt>
      <trkpt lat="36.8812450" lon="-2.9923360">
        <ele>441.0</ele>
        <time>2021-03-02T10:02:15Z</time>
      </trkpt>
      <trkpt lat="36.8811930" lon="-2.9922950">
        <ele>441.2</ele>
        <time>2021-03-02T10:02:16Z</time>
      </trkpt>
      <trkpt lat="36.8811440" lon="-2.9922550">
        <ele>441.6</ele>
        <time>2021-03-02T10:02:17Z</time>
      </trkpt>
      <trkpt lat="36.8810940" lon="-2.9922170">
        <ele>441.8</ele>
        <time>2021-03-02T10:02:18Z</time>
      </trkpt>
      <trkpt lat="36.8810420" lon="-2.9921800">
        <ele>441.8</ele>
        <time>2021-03-02T10:02:19Z</time>
      </trkpt>
      <trkpt lat="36.8809890" lon="-2.9921440">
        <ele>441.6</ele>
        <time>2021-03-02T10:02:20Z</time>
      </trkpt>
      <trkpt lat="36.8809340" lon="-2.9921080">
        <ele>441.6</ele>
        <time>2021-03-02T10:02:21Z</time>
      </trkpt>
      <trkpt lat="36.8808780" lon="-2.9920670">
        <ele>441.0</ele>
        <time>2021-03-02T10:02:22Z</time>
      </trkpt>
      <trkpt lat="36.8808250" lon="-2.9920150">
        <ele>440.8</ele>
        <time>2021-03-02T10:02:23Z</time>
      </trkpt>
      <trkpt lat="36.8807800" lon="-2.9919450">
        <ele>440.0</ele>
        <time>2021-03-02T10:02:24Z</time>
      </trkpt>
      <trkpt lat="36.8807500" lon="-2.9918580">
        <ele>439.4</ele>
        <time>2021-03-02T10:02:25Z</time>
      </trkpt>
      <trkpt lat="36.8807410" lon="-2.9917610">
        <ele>439.0</ele>
        <time>2021-03-02T10:02:26Z</time>
      </trkpt>
      <trkpt lat="36.8807600" lon="-2.9916630">
        <ele>438.6</ele>
        <time>2021-03-02T10:02:27Z</time>
      </trkpt>
      <trkpt lat="36.8808050" lon="-2.9915720">
        <ele>438.4</ele>
        <time>2021-03-02T10:02:28Z</time>
      </trkpt>
      <trkpt lat="36.8808550" lon="-2.9914790">
        <ele>437.4</ele>
        <time>2021-03-02T10:02:29Z</time>
      </trkpt>
      <trkpt lat="36.8809010" lon="-2.9913800">
        <ele>436.8</ele>
        <time>2021-03-02T10:02:30Z</time>
      </trkpt>
      <trkpt lat="36.8809390" lon="-2.9912710">
        <ele>435.8</ele>
        <time>2021-03-02T10:02:31Z</time>
      </trkpt>
      <trkpt lat="36.8809570" lon="-2.9911510">
        <ele>434.8</ele>
        <time>2021-03-02T10:02:32Z</time>
      </trkpt>
      <trkpt lat="36.8809490" lon="-2.9910250">
        <ele>434.2</ele>
        <time>2021-03-02T10:02:33Z</time>
      </trkpt>
      <trkpt lat="36.8809200" lon="-2.9909000">
        <ele>433.0</ele>
        <time>2021-03-02T10:02:34Z</time>
      </trkpt>
      <trkpt lat="36.8808830" lon="-2.9907770">
        <ele>432.4</ele>
        <time>2021-03-02T10:02:35Z</time>
      </trkpt>
      <trkpt lat="36.8808430" lon="-2.9906530">
        <ele>431.0</ele>
        <time>2021-03-02T10:02:36Z</time>
      </trkpt>
      <trkpt lat="36.8808070" lon="-2.9905260">
        <ele>429.8</ele>
        <time>2021-03-02T10:02:37Z</time>
      </trkpt>
      <trkpt lat="36.8807750" lon="-2.9903920">
        <ele>429.2</ele>
        <time>2021-03-02T10:02:38Z</time>
      </trkpt>
      <trkpt lat="36.8807510" lon="-2.9902550">
        <ele>427.8</ele>
        <time>2021-03-02T10:02:39Z</time>
      </trkpt>
      <trkpt lat="36.8807280" lon="-2.9901150">
        <ele>427.0</ele>
        <time>2021-03-02T10:02:40Z</time>
      </trkpt>
      <trkpt lat="36.8806970" lon="-2.9899760">
        <ele>425.8</ele>
        <time>2021-03-02T10:02:41Z</time>
      </trkpt>
      <trkpt lat="36.8806540" lon="-2.9898370">
        <ele>425.0</ele>
        <time>2021-03-02T10:02:42Z</time>
      </trkpt>
      <trkpt lat="36.8805970" lon="-2.9897050">
        <ele>423.8</ele>
        <time>2021-03-02T10:02:43Z</time>
      </trkpt>
      <trkpt lat="36.8805220" lon="-2.9895860">
        <ele>422.6</ele>
        <time>2021-03-02T10:02:44Z</time>
      </trkpt>
      <trkpt lat="36.8804290" lon="-2.9894850">
        <ele>421.8</ele>
        <time>2021-03-02T10:02:45Z</time>
      </trkpt>
      <trkpt lat="36.8803280" lon="-2.9893930">
        <ele>420.4</ele>
        <time>2021-03-02T10:02:46Z</time>
      </trkpt>
      <trkpt lat="36.8802270" lon="-2.9893000">
        <ele>419.8</ele>
        <time>2021-03-02T10:02:47Z</time>
      </trkpt>
      <trkpt lat="36.8801290" lon="-2.9892000">
        <ele>418.2</ele>
        <time>2021-03-02T10:02:48Z</time>
      </trkpt>
      <trkpt lat="36.8800350" lon="-2.9890930">
        <ele>417.6</ele>
        <time>2021-03-02T10:02:49Z</time>
      </trkpt>
      <trkpt lat="36.8799440" lon="-2.9889830">
        <ele>416.2</ele>
        <time>2021-03-02T10:02:50Z</time>
      </trkpt>
      <trkpt lat="36.8798480" lon="-2.9888740">
        <ele>414.8</ele>
        <time>2021-03-02T10:02:51Z</time>
      </trkpt>
      <trkpt lat="36.8797430" lon="-2.9887820">
        <ele>414.0</ele>
        <time>2021-03-02T10:02:52Z</time>
      </trkpt>
      <trkpt lat="36.8796310" lon="-2.9887040">
        <ele>412.8</ele>
        <time>2021-03-02T10:02:53Z</time>
      </trkpt>
      <trkpt lat="36.8795160" lon="-2.9886300">
        <ele>412.0</ele>
        <time>2021-03-02T10:02:54Z</time>
      </trkpt>
      <trkpt lat="36.8794030" lon="-2.9885540">
        <ele>410.4</ele>
        <time>2021-03-02T10:02:55Z</time>
      </trkpt>
      <trkpt lat="36.8792890" lon="-2.9884730">
        <ele>409.0</ele>
        <time>2021-03-02T10:02:56Z</time>
      </trkpt>
      <trkpt lat="36.8791760" lon="-2.9883910">
        <ele>408.2</ele>
        <time>2021-03-02T10:02:57Z</time>
      </trkpt>
      <trkpt lat="36.8790610" lon="-2.9883120">
        <ele>406.8</ele>
        <time>2021-03-02T10:02:58Z</time>
      </trkpt>
      <trkpt lat="36.8789430" lon="-2.9882390">
        <ele>406.0</ele>
        <time>2021-03-02T10:02:59Z</time>
      </trkpt>
      <trkpt lat="36.8788200" lon="-2.9881700">
        <ele>404.6</ele>
        <time>2021-03-02T10:03:00Z</time>
      </trkpt>
      <trkpt lat="36.8786960" lon="-2.9880970">
        <ele>403.8</ele>
        <time>2021-03-02T10:03:01Z</time>
      </trkpt>
      <trkpt lat="36.8785830" lon="-2.9880120">
        <ele>402.4</ele>
        <time>2021-03-02T10:03:02Z</time>
      </trkpt>
      <trkpt lat="36.8784730" lon="-2.9879180">
        <ele>401.0</ele>
        <time>2021-03-02T10:03:03Z</time>
      </trkpt>
      <trkpt lat="36.8783630" lon="-2.9878230">
        <ele>400.2</ele>
        <time>2021-03-02T10:03:04Z</time>
      </trkpt>
      <trkpt lat="36.8782520" lon="-2.9877370">
        <ele>398.8</ele>
        <time>2021-03-02T10:03:05Z</time>
      </trkpt>
      <trkpt lat="36.8781470" lon="-2.9876620">
        <ele>398.2</ele>
        <time>2021-03-02T10:03:06Z</time>
      </trkpt>
      <trkpt lat="36.8780550" lon="-2.9875960">
        <ele>397.0</ele>
        <time>2021-03-02T10:03:07Z</time>
      </trkpt>
      <trkpt lat="36.8779680" lon="-2.9875290">
        <ele>396.4</ele>
        <time>2021-03-02T10:03:08Z</time>
      </trkpt>
      <trkpt lat="36.8778900" lon="-2.9874480">
        <ele>395.4</ele>
        <time>2021-03-02T10:03:09Z</time>
      </trkpt>
      <trkpt lat="36.8778180" lon="-2.9873520">
        <ele>394.0</ele>
        <time>2021-03-02T10:03:10Z</time>
      </trkpt>
      <trkpt lat="36.8777460" lon="-2.9872500">
        <ele>393.4</ele>
        <time>2021-03-02T10:03:11Z</time>
      </trkpt>
      <trkpt lat="36.8776670" lon="-2.9871530">
        <ele>392.0</ele>
        <time>2021-03-02T10:03:12Z</time>
      </trkpt>
      <trkpt lat="36.8775760" lon="-2.9870720">
        <ele>391.4</ele>
        <time>2021-03-02T10:03:13Z</time>
      </trkpt>
      <trkpt lat="36.8774760" lon="-2.9870060">
        <ele>390.0</ele>
        <time>2021-03-02T10:03:14Z</time>
      </trkpt>
      <trkpt lat="36.8773740" lon="-2.9869440">
        <ele>389.4</ele>
        <time>2021-03-02T10:03:15Z</time>
      </trkpt>
      <trkpt lat="36.8772750" lon="-2.9868730">
        <ele>388.0</ele>
        <time>2021-03-02T10:03:16Z</time>
      </trkpt>
      <trkpt lat="36.8771860" lon="-2.9867880">
        <ele>387.0</ele>
        <time>2021-03-02T10:03:17Z</time>
      </trkpt>
      <trkpt lat="36.8770990" lon="-2.9866960">
        <ele>386.6</ele>
        <time>2021-03-02T10:03:18Z</time>
      </trkpt>
      <trkpt lat="36.8770080" lon="-2.9866090">
        <ele>385.6</ele>
        <time>2021-03-02T10:03:19Z</time>
      </trkpt>
      <trkpt lat="36.8769100" lon="-2.9865310">
        <ele>385.0</ele>
        <time>2021-03-02T10:03:20Z</time>
      </trkpt>
      <trkpt lat="36.8768080" lon="-2.9864640">
        <ele>383.8</ele>
        <time>2021-03-02T10:03:21Z</time>
      </trkpt>
      <trkpt lat="36.8767050" lon="-2.9864020">
        <ele>382.8</ele>
        <time>2021-03-02T10:03:22Z</time>
      </trkpt>
      <trkpt lat="36.8766060" lon="-2.9863340">
        <ele>382.4</ele>
        <time>2021-03-02T10:03:23Z</time>
      </trkpt>
      <trkpt lat="36.8765170" lon="-2.9862590">
        <ele>381.4</ele>
        <time>2021-03-02T10:03:24Z</time>
      </trkpt>
      <trkpt lat="36.8764360" lon="-2.9861820">
        <ele>380.8</ele>
        <time>2021-03-02T10:03:25Z</time>
      </trkpt>
      <trkpt lat="36.8763680" lon="-2.9861030">
        <ele>380.0</ele>
        <time>2021-03-02T10:03:26Z</time>
      </trkpt>
      <trkpt lat="36.8763090" lon="-2.9860170">
        <ele>379.6</ele>
        <time>2021-03-02T10:03:27Z</time>
      </trkpt>
      <trkpt lat="36.8762590" lon="-2.9859330">
        <ele>379.0</ele>
        <time>2021-03-02T10:03:28Z</time>
      </trkpt>
      <trkpt lat="36.8762110" lon="-2.9858600">
        <ele>378.2</ele>
        <time>2021-03-02T10:03:29Z</time>
      </trkpt>
      <trkpt lat="36.8761550" lon="-2.9858020">
        <ele>378.0</ele>
        <time>2021-03-02T10:03:30Z</time>
      </trkpt>
      <trkpt lat="36.8760860" lon="-2.9857560">
        <ele>377.2</ele>
        <time>2021-03-02T10:03:31Z</time>
      </trkpt>
      <trkpt lat="36.8760180" lon="-2.9857060">
        <ele>376.6</ele>
        <time>2021-03-02T10:03:32Z</time>
      </trkpt>
      <trkpt lat="36.8759580" lon="-2.9856380">
        <ele>376.0</ele>
        <time>2021-03-02T10:03:33Z</time>
      </trkpt>
      <trkpt lat="36.8759100" lon="-2.9855520">
        <ele>375.8</ele>
        <time>2021-03-02T10:03:34Z</time>
      </trkpt>
      <trkpt lat="36.8758740" lon="-2.9854540">
        <ele>375.0</ele>
        <time>2021-03-02T10:03:35Z</time>
      </trkpt>
      <trkpt lat="36.8758440" lon="-2.9853510">
        <ele>374.4</ele>
        <time>2021-03-02T10:03:36Z</time>
      </trkpt>
      <trkpt lat="36.8758140" lon="-2.9852490">
        <ele>374.0</ele>
        <time>2021-03-02T10:03:37Z</time>
      </trkpt>
      <trkpt lat="36.8757770" lon="-2.9851490">
        <ele>373.4</ele>
        <time>2021-03-02T10:03:38Z</time>
      </trkpt>
      <trkpt lat="36.8757310" lon="-2.9850540">
        <ele>373.2</ele>
        <time>2021-03-02T10:03:39Z</time>
      </trkpt>
      <trkpt lat="36.8756760" lon="-2.9849620">
        <ele>372.6</ele>
        <time>2021-03-02T10:03:40Z</time>
      </trkpt>
      <trkpt lat="36.8756180" lon="-2.9848710">
        <ele>371.8</ele>
        <time>2021-03-02T10:03:41Z</time>
      </trkpt>
      <trkpt lat="36.8755610" lon="-2.9847780">
        <ele>371.4</ele>
        <time>2021-03-02T10:03:42Z</time>
      </trkpt>
      <trkpt lat="36.8755060" lon="-2.9846810">
        <ele>370.8</ele>
        <time>2021-03-02T10:03:43Z</time>
      </trkpt>
      <trkpt lat="36.8754560" lon="-2.9845800">
        <ele>370.2</ele>
        <time>2021-03-02T10:03:44Z</time>
      </trkpt>
      <trkpt lat="36.8754070" lon="-2.9844770">
        <ele>369.4</ele>
        <time>2021-03-02T10:03:45Z</time>
      </trkpt>
      <trkpt lat="36.8753620" lon="-2.9843760">
        <ele>369.0</ele>
        <time>2021-03-02T10:03:46Z</time>
      </trkpt>
      <trkpt lat="36.8753250" lon="-2.9842790">
        <ele>368.2</ele>
        <time>2021-03-02T10:03:47Z</time>
      </trkpt>
      <trkpt lat="36.8753030" lon="-2.9841780">
        <ele>367.6</ele>
        <time>2021-03-02T10:03:48Z</time>
      </trkpt>
      <trkpt lat="36.8753000" lon="-2.9840710">
        <ele>367.4</ele>
        <time>2021-03-02T10:03:49Z</time>
      </trkpt>
      <trkpt lat="36.8753060" lon="-2.9839590">
        <ele>366.8</ele>
        <time>2021-03-02T10:03:50Z</time>
      </trkpt>
      <trkpt lat="36.8753120" lon="-2.9838450">
        <ele>366.4</ele>
        <time>2021-03-02T10:03:51Z</time>
      </trkpt>
      <trkpt lat="36.8753160" lon="-2.9837260">
        <ele>365.4</ele>
        <time>2021-03-02T10:03:52Z</time>
      </trkpt>
      <trkpt lat="36.8753100" lon="-2.9836090">
        <ele>364.8</ele>
        <time>2021-03-02T10:03:53Z</time>
      </trkpt>
      <trkpt lat="36.8752860" lon="-2.9834970">
        <ele>364.0</ele>
        <time>2021-03-02T10:03:54Z</time>
      </trkpt>
      <trkpt lat="36.8752370" lon="-2.9834010">
        <ele>363.2</ele>
        <time>2021-03-02T10:03:55Z</time>
      </trkpt>
      <trkpt lat="36.8751670" lon="-2.9833270">
        <ele>362.8</ele>
        <time>2021-03-02T10:03:56Z</time>
      </trkpt>
      <trkpt lat="36.8750880" lon="-2.9832720">
        <ele>362.4</ele>
        <time>2021-03-02T10:03:57Z</time>
      </trkpt>
      <trkpt lat="36.8750080" lon="-2.9832240">
        <ele>362.2</ele>
        <time>2021-03-02T10:03:58Z</time>
      </trkpt>
      <trkpt lat="36.8749280" lon="-2.9831810">
        <ele>362.0</ele>
        <time>2021-03-02T10:03:59Z</time>
      </trkpt>
      <trkpt lat="36.8748490" lon="-2.9831400">
        <ele>361.8</ele>
        <time>2021-03-02T10:04:00Z</time>
      </trkpt>
      <trkpt lat="36.8747710" lon="-2.9831010">
        <ele>361.8</ele>
        <time>2021-03-02T10:04:01Z</time>
      </trkpt>
      <trkpt lat="36.8746960" lon="-2.9830620">
        <ele>361.8</ele>
        <time>2021-03-02T10:04:02Z</time>
      </trkpt>
      <trkpt lat="36.8746220" lon="-2.9830280">
        <ele>361.8</ele>
        <time>2021-03-02T10:04:03Z</time>
      </trkpt>
      <trkpt lat="36.8745490" lon="-2.9830010">
        <ele>361.8</ele>
        <time>2021-03-02T10:04:04Z</time>
      </trkpt>
      <trkpt lat="36.8744730" lon="-2.9829810">
        <ele>361.6</ele>
        <time>2021-03-02T10:04:05Z</time>
      </trkpt>
      <trkpt lat="36.8743960" lon="-2.9829630">
        <ele>361.6</ele>
        <time>2021-03-02T10:04:06Z</time>
      </trkpt>
      <trkpt lat="36.8743170" lon="-2.9829390">
        <ele>361.2</ele>
        <time>2021-03-02T10:04:07Z</time>
      </trkpt>
      <trkpt lat="36.8742420" lon="-2.9829020">
        <ele>361.2</ele>
        <time>2021-03-02T10:04:08Z</time>
      </trkpt>
      <trkpt lat="36.8741710" lon="-2.9828480">
        <ele>360.8</ele>
        <time>2021-03-02T10:04:09Z</time>
      </trkpt>
      <trkpt lat="36.8741020" lon="-2.9827850">
        <ele>360.6</ele>
        <time>2021-03-02T10:04:10Z</time>
      </trkpt>
      <trkpt lat="36.8740310" lon="-2.9827180">
        <ele>360.0</ele>
        <time>2021-03-02T10:04:11Z</time>
      </trkpt>
      <trkpt lat="36.8739580" lon="-2.9826510">
        <ele>359.6</ele>
        <time>2021-03-02T10:04:12Z</time>
      </trkpt>
      <trkpt lat="36.8738830" lon="-2.9825850">
        <ele>358.8</ele>
        <time>2021-03-02T10:04:13Z</time>
      </trkpt>
      <trkpt lat="36.8738080" lon="-2.9825220">
        <ele>358.2</ele>
        <time>2021-03-02T10:04:14Z</time>
      </trkpt>
      <trkpt lat="36.8737320" lon="-2.9824600">
        <ele>358.0</ele>
        <time>2021-03-02T10:04:15Z</time>
      </trkpt>
      <trkpt lat="36.8736580" lon="-2.9824000">
        <ele>357.8</ele>
        <time>2021-03-02T10:04:16Z</time>
      </trkpt>
      <trkpt lat="36.8735860" lon="-2.9823390">
        <ele>357.8</ele>
        <time>2021-03-02T10:04:17Z</time>
      </trkpt>
      <trkpt lat="36.8735200" lon="-2.9822750">
        <ele>357.6</ele>
        <time>2021-03-02T10:04:18Z</time>
      </trkpt>
      <trkpt lat="36.8734580" lon="-2.9822050">
        <ele>357.6</ele>
        <time>2021-03-02T10:04:19Z</time>
      </trkpt>
      <trkpt lat="36.8734030" lon="-2.9821320">
        <ele>357.6</ele>
        <time>2021-03-02T10:04:20Z</time>
      </trkpt>
      <trkpt lat="36.8733520" lon="-2.9820590">
        <ele>357.4</ele>
        <time>2021-03-02T10:04:21Z</time>
      </trkpt>
      <trkpt lat="36.8732970" lon="-2.9819920">
        <ele>357.4</ele>
        <time>2021-03-02T10:04:22Z</time>
      </trkpt>
      <trkpt lat="36.8732410" lon="-2.9819360">
        <ele>357.6</ele>
        <time>2021-03-02T10:04:23Z</time>
      </trkpt>
      <trkpt lat="36.8731790" lon="-2.9818900">
        <ele>357.6</ele>
        <time>2021-03-02T10:04:24Z</time>
      </trkpt>
      <trkpt lat="36.8731140" lon="-2.9818550">
        <ele>357.6</ele>
        <time>2021-03-02T10:04:25Z</time>
      </trkpt>
      <trkpt lat="36.8730490" lon="-2.9818240">
        <ele>357.8</ele>
        <time>2021-03-02T10:04:26Z</time>
      </trkpt>
      <trkpt lat="36.8729870" lon="-2.9817900">
        <ele>357.8</ele>
        <time>2021-03-02T10:04:27Z</time>
      </trkpt>
      <trkpt lat="36.8729300" lon="-2.9817470">
        <ele>358.0</ele>
        <time>2021-03-02T10:04:28Z</time>
      </trkpt>
      <trkpt lat="36.8728780" lon="-2.9816960">
        <ele>358.0</ele>
        <time>2021-03-02T10:04:29Z</time>
      </trkpt>
      <trkpt lat="36.8728330" lon="-2.9816400">
        <ele>358.0</ele>
        <time>2021-03-02T10:04:30Z</time>
      </trkpt>
      <trkpt lat="36.8727940" lon="-2.9815810">
        <ele>358.2</ele>
        <time>2021-03-02T10:04:31Z</time>
      </trkpt>
      <trkpt lat="36.8727540" lon="-2.9815210">
        <ele>358.4</ele>
        <time>2021-03-02T10:04:32Z</time>
      </trkpt>
      <trkpt lat="36.8727130" lon="-2.9814640">
        <ele>358.4</ele>
        <time>2021-03-02T10:04:33Z</time>
      </trkpt>
      <trkpt lat="36.8726690" lon="-2.9814090">
        <ele>358.4</ele>
        <time>2021-03-02T10:04:34Z</time>
      </trkpt>
      <trkpt lat="36.8726250" lon="-2.9813590">
        <ele>358.4</ele>
        <time>2021-03-02T10:04:35Z</time>
      </trkpt>
      <trkpt lat="36.8725790" lon="-2.9813100">
        <ele>358.4</ele>
        <time>2021-03-02T10:04:36Z</time>
      </trkpt>
      <trkpt lat="36.8725330" lon="-2.9812640">
        <ele>358.6</ele>
        <time>2021-03-02T10:04:37Z</time>
      </trkpt>
      <trkpt lat="36.8724850" lon="-2.9812200">
        <ele>358.6</ele>
        <time>2021-03-02T10:04:38Z</time>
      </trkpt>
      <trkpt lat="36.8724360" lon="-2.9811760">
        <ele>358.6</ele>
        <time>2021-03-02T10:04:39Z</time>
      </trkpt>
      <trkpt lat="36.8723850" lon="-2.9811310">
        <ele>358.6</ele>
        <time>2021-03-02T10:04:40Z</time>
      </trkpt>
      <trkpt lat="36.8723320" lon="-2.9810850">
        <ele>358.6</ele>
        <time>2021-03-02T10:04:41Z</time>
      </trkpt>
      <trkpt lat="36.8722790" lon="-2.9810380">
        <ele>358.4</ele>
        <time>2021-03-02T10:04:42Z</time>
      </trkpt>
      <trkpt lat="36.8722270" lon="-2.9809910">
        <ele>358.2</ele>
        <time>2021-03-02T10:04:43Z</time>
      </trkpt>
      <trkpt lat="36.8721740" lon="-2.9809430">
        <ele>358.2</ele>
        <time>2021-03-02T10:04:44Z</time>
      </trkpt>
      <trkpt lat="36.8721200" lon="-2.9808940">
        <ele>358.0</ele>
        <time>2021-03-02T10:04:45Z</time>
      </trkpt>
      <trkpt lat="36.8720630" lon="-2.9808430">
        <ele>357.6</ele>
        <time>2021-03-02T10:04:46Z</time>
      </trkpt>
      <trkpt lat="36.8720040" lon="-2.9807900">
        <ele>357.2</ele>
        <time>2021-03-02T10:04:47Z</time>
      </trkpt>
      <trkpt lat="36.8719450" lon="-2.9807320">
        <ele>357.0</ele>
        <time>2021-03-02T10:04:48Z</time>
      </trkpt>
      <trkpt lat="36.8718840" lon="-2.9806710">
        <ele>356.4</ele>
        <time>2021-03-02T10:04:49Z</time>
      </trkpt>
      <trkpt lat="36.8718230" lon="-2.9806050">
        <ele>356.2</ele>
        <time>2021-03-02T10:04:50Z</time>
      </trkpt>
      <trkpt lat="36.8717600" lon="-2.9805380">
        <ele>355.4</ele>
        <time>2021-03-02T10:04:51Z</time>
      </trkpt>
      <trkpt lat="36.8716990" lon="-2.9804670">
        <ele>354.8</ele>
        <time>2021-03-02T10:04:52Z</time>
      </trkpt>
      <trkpt lat="36.8716400" lon="-2.9803920">
        <ele>354.6</ele>
        <time>2021-03-02T10:04:53Z</time>
      </trkpt>
      <trkpt lat="36.8715800" lon="-2.9803110">
        <ele>354.0</ele>
        <time>2021-03-02T10:04:54Z</time>
      </trkpt>
      <trkpt lat="36.8715190" lon="-2.9802300">
        <ele>353.8</ele>
        <time>2021-03-02T10:04:55Z</time>
      </trkpt>
      <trkpt lat="36.8714550" lon="-2.9801560">
        <ele>353.4</ele>
        <time>2021-03-02T10:04:56Z</time>
      </trkpt>
      <trkpt lat="36.8713860" lon="-2.9800920">
        <ele>353.2</ele>
        <time>2021-03-02T10:04:57Z</time>
      </trkpt>
      <trkpt lat="36.8713130" lon="-2.9800340">
        <ele>352.6</ele>
        <time>2021-03-02T10:04:58Z</time>
      </trkpt>
      <trkpt lat="36.8712420" lon="-2.9799710">
        <ele>352.2</ele>
        <time>2021-03-02T10:04:59Z</time>
      </trkpt>
      <trkpt lat="36.8711780" lon="-2.9798980">
        <ele>352.0</ele>
        <time>2021-03-02T10:05:00Z</time>
      </trkpt>
      <trkpt lat="36.8711150" lon="-2.9798160">
        <ele>351.4</ele>
        <time>2021-03-02T10:05:01Z</time>
      </trkpt>
      <trkpt lat="36.8710520" lon="-2.9797310">
        <ele>351.2</ele>
        <time>2021-03-02T10:05:02Z</time>
      </trkpt>
      <trkpt lat="36.8709820" lon="-2.9796470">
        <ele>350.2</ele>
        <time>2021-03-02T10:05:03Z</time>
      </trkpt>
      <trkpt lat="36.8709090" lon="-2.9795650">
        <ele>349.8</ele>
        <time>2021-03-02T10:05:04Z</time>
      </trkpt>
      <trkpt lat="36.8708320" lon="-2.9794850">
        <ele>349.0</ele>
        <time>2021-03-02T10:05:05Z</time>
      </trkpt>
      <trkpt lat="36.8707580" lon="-2.9794030">
        <ele>348.4</ele>
        <time>2021-03-02T10:05:06Z</time>
      </trkpt>
      <trkpt lat="36.8706900" lon="-2.9793130">
        <ele>348.0</ele>
        <time>2021-03-02T10:05:07Z</time>
      </trkpt>
      <trkpt lat="36.8706290" lon="-2.9792130">
        <ele>347.0</ele>
        <time>2021-03-02T10:05:08Z</time>
      </trkpt>
      <trkpt lat="36.8705720" lon="-2.9791070">
        <ele>346.6</ele>
        <time>2021-03-02T10:05:09Z</time>
      </trkpt>
      <trkpt lat="36.8705170" lon="-2.9790060">
        <ele>345.8</ele>
        <time>2021-03-02T10:05:10Z</time>
      </trkpt>
      <trkpt lat="36.8704590" lon="-2.9789120">
        <ele>345.4</ele>
        <time>2021-03-02T10:05:11Z</time>
      </trkpt>
      <trkpt lat="36.8703890" lon="-2.9788260">
        <ele>344.6</ele>
        <time>2021-03-02T10:05:12Z</time>
      </trkpt>
      <trkpt lat="36.8703060" lon="-2.9787570">
        <ele>343.6</ele>
        <time>2021-03-02T10:05:13Z</time>
      </trkpt>
      <trkpt lat="36.8702170" lon="-2.9786980">
        <ele>343.2</ele>
        <time>2021-03-02T10:05:14Z</time>
      </trkpt>
      <trkpt lat="36.8701290" lon="-2.9786380">
        <ele>342.4</ele>
        <time>2021-03-02T10:05:15Z</time>
      </trkpt>
      <trkpt lat="36.8700470" lon="-2.9785710">
        <ele>342.0</ele>
        <time>2021-03-02T10:05:16Z</time>
      </trkpt>
      <trkpt lat="36.8699680" lon="-2.9784960">
        <ele>341.2</ele>
        <time>2021-03-02T10:05:17Z</time>
      </trkpt>
      <trkpt lat="36.8698930" lon="-2.9784180">
        <ele>340.6</ele>
        <time>2021-03-02T10:05:18Z</time>
      </trkpt>
      <trkpt lat="36.8698170" lon="-2.9783390">
        <ele>340.2</ele>
        <time>2021-03-02T10:05:19Z</time>
      </trkpt>
      <trkpt lat="36.8697420" lon="-2.9782580">
        <ele>339.8</ele>
        <time>2021-03-02T10:05:20Z</time>
      </trkpt>
      <trkpt lat="36.8696640" lon="-2.9781810">
        <ele>339.4</ele>
        <time>2021-03-02T10:05:21Z</time>
      </trkpt>
      <trkpt lat="36.8695890" lon="-2.9781070">
        <ele>339.0</ele>
        <time>2021-03-02T10:05:22Z</time>
      </trkpt>
      <trkpt lat="36.8695150" lon="-2.9780340">
        <ele>338.8</ele>
        <time>2021-03-02T10:05:23Z</time>
      </trkpt>
      <trkpt lat="36.8694430" lon="-2.9779620">
        <ele>338.4</ele>
        <time>2021-03-02T10:05:24Z</time>
      </trkpt>
      <trkpt lat="36.8693740" lon="-2.9778880">
        <ele>338.0</ele>
        <time>2021-03-02T10:05:25Z</time>
      </trkpt>
      <trkpt lat="36.8693060" lon="-2.9778150">
        <ele>337.8</ele>
        <time>2021-03-02T10:05:26Z</time>
      </trkpt>
      <trkpt lat="36.8692410" lon="-2.9777420">
        <ele>337.4</ele>
        <time>2021-03-02T10:05:27Z</time>
      </trkpt>
      <trkpt lat="36.8691740" lon="-2.9776670">
        <ele>337.2</ele>
        <time>2021-03-02T10:05:28Z</time>
      </trkpt>
      <trkpt lat="36.8691090" lon="-2.9775930">
        <ele>336.8</ele>
        <time>2021-03-02T10:05:29Z</time>
      </trkpt>
      <trkpt lat="36.8690440" lon="-2.9775160">
        <ele>336.6</ele>
        <time>2021-03-02T10:05:30Z</time>
      </trkpt>
      <trkpt lat="36.8689820" lon="-2.9774330">
        <ele>336.2</ele>
        <time>2021-03-02T10:05:31Z</time>
      </trkpt>
      <trkpt lat="36.8689270" lon="-2.9773380">
        <ele>335.2</ele>
        <time>2021-03-02T10:05:32Z</time>
      </trkpt>
      <trkpt lat="36.8688820" lon="-2.9772280">
        <ele>334.8</ele>
        <time>2021-03-02T10:05:33Z</time>
      </trkpt>
      <trkpt lat="36.8688430" lon="-2.9771100">
        <ele>333.8</ele>
        <time>2021-03-02T10:05:34Z</time>
      </trkpt>
      <trkpt lat="36.8688020" lon="-2.9769870">
        <ele>333.2</ele>
        <time>2021-03-02T10:05:35Z</time>
      </trkpt>
      <trkpt lat="36.8687630" lon="-2.9768600">
        <ele>332.0</ele>
        <time>2021-03-02T10:05:36Z</time>
      </trkpt>
      <trkpt lat="36.8687210" lon="-2.9767280">
        <ele>330.8</ele>
        <time>2021-03-02T10:05:37Z</time>
      </trkpt>
      <trkpt lat="36.8686780" lon="-2.9765960">
        <ele>330.0</ele>
        <time>2021-03-02T10:05:38Z</time>
      </trkpt>
      <trkpt lat="36.8686290" lon="-2.9764640">
        <ele>328.6</ele>
        <time>2021-03-02T10:05:39Z</time>
      </trkpt>
      <trkpt lat="36.8685750" lon="-2.9763360">
        <ele>328.0</ele>
        <time>2021-03-02T10:05:40Z</time>
      </trkpt>
      <trkpt lat="36.8685150" lon="-2.9762130">
        <ele>326.6</ele>
        <time>2021-03-02T10:05:41Z</time>
      </trkpt>
      <trkpt lat="36.8684540" lon="-2.9760930">
        <ele>326.2</ele>
        <time>2021-03-02T10:05:42Z</time>
      </trkpt>
      <trkpt lat="36.8683930" lon="-2.9759760">
        <ele>325.4</ele>
        <time>2021-03-02T10:05:43Z</time>
      </trkpt>
      <trkpt lat="36.8683320" lon="-2.9758600">
        <ele>324.6</ele>
        <time>2021-03-02T10:05:44Z</time>
      </trkpt>
      <trkpt lat="36.8682720" lon="-2.9757460">
        <ele>324.4</ele>
        <time>2021-03-02T10:05:45Z</time>
      </trkpt>
      <trkpt lat="36.8682150" lon="-2.9756350">
        <ele>323.8</ele>
        <time>2021-03-02T10:05:46Z</time>
      </trkpt>
      <trkpt lat="36.8681590" lon="-2.9755270">
        <ele>323.6</ele>
        <time>2021-03-02T10:05:47Z</time>
      </trkpt>
      <trkpt lat="36.8681000" lon="-2.9754200">
        <ele>323.0</ele>
        <time>2021-03-02T10:05:48Z</time>
      </trkpt>
      <trkpt lat="36.8680390" lon="-2.9753160">
        <ele>322.8</ele>
        <time>2021-03-02T10:05:49Z</time>
      </trkpt>
      <trkpt lat="36.8679760" lon="-2.9752160">
        <ele>322.4</ele>
        <time>2021-03-02T10:05:50Z</time>
      </trkpt>
      <trkpt lat="36.8679080" lon="-2.9751190">
        <ele>321.8</ele>
        <time>2021-03-02T10:05:51Z</time>
      </trkpt>
      <trkpt lat="36.8678430" lon="-2.9750270">
        <ele>321.6</ele>
        <time>2021-03-02T10:05:52Z</time>
      </trkpt>
      <trkpt lat="36.8677850" lon="-2.9749440">
        <ele>320.8</ele>
        <time>2021-03-02T10:05:53Z</time>
      </trkpt>
      <trkpt lat="36.8677350" lon="-2.9748740">
        <ele>320.4</ele>
        <time>2021-03-02T10:05:54Z</time>
      </trkpt>
      <trkpt lat="36.8676870" lon="-2.9748170">
        <ele>320.0</ele>
        <time>2021-03-02T10:05:55Z</time>
      </trkpt>
      <trkpt lat="36.8676280" lon="-2.9747780">
        <ele>319.8</ele>
        <time>2021-03-02T10:05:56Z</time>
      </trkpt>
      <trkpt lat="36.8675620" lon="-2.9747630">
        <ele>319.4</ele>
        <time>2021-03-02T10:05:57Z</time>
      </trkpt>
      <trkpt lat="36.8674940" lon="-2.9747700">
        <ele>319.0</ele>
        <time>2021-03-02T10:05:58Z</time>
      </trkpt>
      <trkpt lat="36.8674260" lon="-2.9747890">
        <ele>319.0</ele>
        <time>2021-03-02T10:05:59Z</time>
      </trkpt>
      <trkpt lat="36.8673590" lon="-2.9748110">
        <ele>318.8</ele>
        <time>2021-03-02T10:06:00Z</time>
      </trkpt>
      <trkpt lat="36.8672940" lon="-2.9748310">
        <ele>318.6</ele>
        <time>2021-03-02T10:06:01Z</time>
      </trkpt>
      <trkpt lat="36.8672310" lon="-2.9748520">
        <ele>318.6</ele>
        <time>2021-03-02T10:06:02Z</time>
      </trkpt>
      <trkpt lat="36.8671710" lon="-2.9748750">
        <ele>318.6</ele>
        <time>2021-03-02T10:06:03Z</time>
      </trkpt>
      <trkpt lat="36.8671120" lon="-2.9748980">
        <ele>318.6</ele>
        <time>2021-03-02T10:06:04Z</time>
      </trkpt>
      <trkpt lat="36.8670520" lon="-2.9749150">
        <ele>318.6</ele>
        <time>2021-03-02T10:06:05Z</time>
      </trkpt>
      <trkpt lat="36.8669930" lon="-2.9749210">
        <ele>318.6</ele>
        <time>2021-03-02T10:06:06Z</time>
      </trkpt>
      <trkpt lat="36.8669360" lon="-2.9749070">
        <ele>318.4</ele>
        <time>2021-03-02T10:06:07Z</time>
      </trkpt>
      <trkpt lat="36.8668850" lon="-2.9748720">
        <ele>318.4</ele>
        <time>2021-03-02T10:06:08Z</time>
      </trkpt>
      <trkpt lat="36.8668410" lon="-2.9748270">
        <ele>318.2</ele>
        <time>2021-03-02T10:06:09Z</time>
      </trkpt>
      <trkpt lat="36.8668040" lon="-2.9747880">
        <ele>318.0</ele>
        <time>2021-03-02T10:06:10Z</time>
      </trkpt>
      <trkpt lat="36.8667690" lon="-2.9747670">
        <ele>318.0</ele>
        <time>2021-03-02T10:06:11Z</time>
      </trkpt>
      <trkpt lat="36.8667350" lon="-2.9747660">
        <ele>317.8</ele>
        <time>2021-03-02T10:06:12Z</time>
      </trkpt>
      <trkpt lat="36.8667050" lon="-2.9747810">
        <ele>317.8</ele>
        <time>2021-03-02T10:06:13Z</time>
      </trkpt>
      <trkpt lat="36.8666770" lon="-2.9748060">
        <ele>317.8</ele>
        <time>2021-03-02T10:06:14Z</time>
      </trkpt>
      <trkpt lat="36.8666500" lon="-2.9748380">
        <ele>317.8</ele>
        <time>2021-03-02T10:06:15Z</time>
      </trkpt>
      <trkpt lat="36.8666230" lon="-2.9748740">
        <ele>318.0</ele>
        <time>2021-03-02T10:06:16Z</time>
      </trkpt>
      <trkpt lat="36.8665940" lon="-2.9749120">
        <ele>318.0</ele>
        <time>2021-03-02T10:06:17Z</time>
      </trkpt>
      <trkpt lat="36.8665630" lon="-2.9749490">
        <ele>318.0</ele>
        <time>2021-03-02T10:06:18Z</time>
      </trkpt>
      <trkpt lat="36.8665310" lon="-2.9749870">
        <ele>318.0</ele>
        <time>2021-03-02T10:06:19Z</time>
      </trkpt>
      <trkpt lat="36.8664970" lon="-2.9750260">
        <ele>317.8</ele>
        <time>2021-03-02T10:06:20Z</time>
      </trkpt>
      <trkpt lat="36.8664620" lon="-2.9750640">
        <ele>317.8</ele>
        <time>2021-03-02T10:06:21Z</time>
      </trkpt>
      <trkpt lat="36.8664260" lon="-2.9751030">
        <ele>317.8</ele>
        <time>2021-03-02T10:06:22Z</time>
      </trkpt>
      <trkpt lat="36.8663880" lon="-2.9751430">
        <ele>317.8</ele>
        <time>2021-03-02T10:06:23Z</time>
      </trkpt>
      <trkpt lat="36.8663510" lon="-2.9751840">
        <ele>317.8</ele>
        <time>2021-03-02T10:06:24Z</time>
      </trkpt>
      <trkpt lat="36.8663130" lon="-2.9752260">
        <ele>317.8</ele>
        <time>2021-03-02T10:06:25Z</time>
      </trkpt>
      <trkpt lat="36.8662750" lon="-2.9752670">
        <ele>317.8</ele>
        <time>2021-03-02T10:06:26Z</time>
      </trkpt>
      <trkpt lat="36.8662380" lon="-2.9753060">
        <ele>317.8</ele>
        <time>2021-03-02T10:06:27Z</time>
      </trkpt>
      <trkpt lat="36.8662010" lon="-2.9753450">
        <ele>317.8</ele>
        <time>2021-03-02T10:06:28Z</time>
      </trkpt>
      <trkpt lat="36.8661670" lon="-2.9753840">
        <ele>317.8</ele>
        <time>2021-03-02T10:06:29Z</time>
      </trkpt>
      <trkpt lat="36.8661360" lon="-2.9754210">
        <ele>317.8</ele>
        <time>2021-03-02T10:06:30Z</time>
      </trkpt>
      <trkpt lat="36.8661090" lon="-2.9754570">
        <ele>317.8</ele>
        <time>2021-03-02T10:06:31Z</time>
      </trkpt>
      <trkpt lat="36.8660800" lon="-2.9754840">
        <ele>317.8</ele>
        <time>2021-03-02T10:06:32Z</time>
      </trkpt>
      <trkpt lat="36.8660470" lon="-2.9754980">
        <ele>318.0</ele>
        <time>2021-03-02T10:06:33Z</time>
      </trkpt>
      <trkpt lat="36.8660100" lon="-2.9754970">
        <ele>318.0</ele>
        <time>2021-03-02T10:06:34Z</time>
      </trkpt>
      <trkpt lat="36.8659730" lon="-2.9754800">
        <ele>318.0</ele>
        <time>2021-03-02T10:06:35Z</time>
      </trkpt>
      <trkpt lat="36.8659400" lon="-2.9754460">
        <ele>318.0</ele>
        <time>2021-03-02T10:06:36Z</time>
      </trkpt>
      <trkpt lat="36.8659110" lon="-2.9754070">
        <ele>317.8</ele>
        <time>2021-03-02T10:06:37Z</time>
      </trkpt>
      <trkpt lat="36.8658790" lon="-2.9753650">
        <ele>317.8</ele>
        <time>2021-03-02T10:06:38Z</time>
      </trkpt>
      <trkpt lat="36.8658410" lon="-2.9753190">
        <ele>317.6</ele>
        <time>2021-03-02T10:06:39Z</time>
      </trkpt>
      <trkpt lat="36.8657930" lon="-2.9752740">
        <ele>317.2</ele>
        <time>2021-03-02T10:06:40Z</time>
      </trkpt>
      <trkpt lat="36.8657350" lon="-2.9752270">
        <ele>316.8</ele>
        <time>2021-03-02T10:06:41Z</time>
      </trkpt>
      <trkpt lat="36.8656700" lon="-2.9751800">
        <ele>316.0</ele>
        <time>2021-03-02T10:06:42Z</time>
      </trkpt>
      <trkpt lat="36.8655990" lon="-2.9751340">
        <ele>314.8</ele>
        <time>2021-03-02T10:06:43Z</time>
      </trkpt>
      <trkpt lat="36.8655250" lon="-2.9750860">
        <ele>314.2</ele>
        <time>2021-03-02T10:06:44Z</time>
      </trkpt>
      <trkpt lat="36.8654490" lon="-2.9750320">
        <ele>313.2</ele>
        <time>2021-03-02T10:06:45Z</time>
      </trkpt>
      <trkpt lat="36.8653840" lon="-2.9749700">
        <ele>313.0</ele>
        <time>2021-03-02T10:06:46Z</time>
      </trkpt>
      <trkpt lat="36.8653270" lon="-2.9749020">
        <ele>312.6</ele>
        <time>2021-03-02T10:06:47Z</time>
      </trkpt>
      <trkpt lat="36.8652750" lon="-2.9748370">
        <ele>312.4</ele>
        <time>2021-03-02T10:06:48Z</time>
      </trkpt>
      <trkpt lat="36.8652250" lon="-2.9747730">
        <ele>312.4</ele>
        <time>2021-03-02T10:06:49Z</time>
      </trkpt>
      <trkpt lat="36.8651760" lon="-2.9747100">
        <ele>312.4</ele>
        <time>2021-03-02T10:06:50Z</time>
      </trkpt>
      <trkpt lat="36.8651290" lon="-2.9746490">
        <ele>312.4</ele>
        <time>2021-03-02T10:06:51Z</time>
      </trkpt>
      <trkpt lat="36.8650860" lon="-2.9745890">
        <ele>312.6</ele>
        <time>2021-03-02T10:06:52Z</time>
      </trkpt>
      <trkpt lat="36.8650450" lon="-2.9745310">
        <ele>312.6</ele>
        <time>2021-03-02T10:06:53Z</time>
      </trkpt>
      <trkpt lat="36.8650010" lon="-2.9744680">
        <ele>312.4</ele>
        <time>2021-03-02T10:06:54Z</time>
      </trkpt>
      <trkpt lat="36.8649530" lon="-2.9744030">
        <ele>312.2</ele>
        <time>2021-03-02T10:06:55Z</time>
      </trkpt>
      <trkpt lat="36.8649000" lon="-2.9743360">
        <ele>311.8</ele>
        <time>2021-03-02T10:06:56Z</time>
      </trkpt>
      <trkpt lat="36.8648460" lon="-2.9742690">
        <ele>311.4</ele>
        <time>2021-03-02T10:06:57Z</time>
      </trkpt>
      <trkpt lat="36.8647900" lon="-2.9742040">
        <ele>311.2</ele>
        <time>2021-03-02T10:06:58Z</time>
      </trkpt>
      <trkpt lat="36.8647300" lon="-2.9741390">
        <ele>311.0</ele>
        <time>2021-03-02T10:06:59Z</time>
      </trkpt>
      <trkpt lat="36.8646670" lon="-2.9740720">
        <ele>310.8</ele>
        <time>2021-03-02T10:07:00Z</time>
      </trkpt>
      <trkpt lat="36.8646020" lon="-2.9740040">
        <ele>310.2</ele>
        <time>2021-03-02T10:07:01Z</time>
      </trkpt>
      <trkpt lat="36.8645350" lon="-2.9739360">
        <ele>309.6</ele>
        <time>2021-03-02T10:07:02Z</time>
      </trkpt>
      <trkpt lat="36.8644680" lon="-2.9738680">
        <ele>309.4</ele>
        <time>2021-03-02T10:07:03Z</time>
      </trkpt>
      <trkpt lat="36.8644010" lon="-2.9738000">
        <ele>308.8</ele>
        <time>2021-03-02T10:07:04Z</time>
      </trkpt>
      <trkpt lat="36.8643360" lon="-2.9737360">
        <ele>308.6</ele>
        <time>2021-03-02T10:07:05Z</time>
      </trkpt>
      <trkpt lat="36.8642720" lon="-2.9736720">
        <ele>308.4</ele>
        <time>2021-03-02T10:07:06Z</time>
      </trkpt>
      <trkpt lat="36.8642080" lon="-2.9736080">
        <ele>308.2</ele>
        <time>2021-03-02T10:07:07Z</time>
      </trkpt>
      <trkpt lat="36.8641440" lon="-2.9735410">
        <ele>307.8</ele>
        <time>2021-03-02T10:07:08Z</time>
      </trkpt>
      <trkpt lat="36.8640800" lon="-2.9734690">
        <ele>307.2</ele>
        <time>2021-03-02T10:07:09Z</time>
      </trkpt>
      <trkpt lat="36.8640160" lon="-2.9733900">
        <ele>306.8</ele>
        <time>2021-03-02T10:07:10Z</time>
      </trkpt>
      <trkpt lat="36.8639510" lon="-2.9733050">
        <ele>306.2</ele>
        <time>2021-03-02T10:07:11Z</time>
      </trkpt>
      <trkpt lat="36.8638850" lon="-2.9732140">
        <ele>305.6</ele>
        <time>2021-03-02T10:07:12Z</time>
      </trkpt>
      <trkpt lat="36.8638190" lon="-2.9731150">
        <ele>304.0</ele>
        <time>2021-03-02T10:07:13Z</time>
      </trkpt>
      <trkpt lat="36.8637560" lon="-2.9730080">
        <ele>302.6</ele>
        <time>2021-03-02T10:07:14Z</time>
      </trkpt>
      <trkpt lat="36.8636960" lon="-2.9728940">
        <ele>302.0</ele>
        <time>2021-03-02T10:07:15Z</time>
      </trkpt>
      <trkpt lat="36.8636340" lon="-2.9727780">
        <ele>300.6</ele>
        <time>2021-03-02T10:07:16Z</time>
      </trkpt>
      <trkpt lat="36.8635670" lon="-2.9726660">
        <ele>300.2</ele>
        <time>2021-03-02T10:07:17Z</time>
      </trkpt>
      <trkpt lat="36.8634980" lon="-2.9725600">
        <ele>299.6</ele>
        <time>2021-03-02T10:07:18Z</time>
      </trkpt>
      <trkpt lat="36.8634290" lon="-2.9724620">
        <ele>299.4</ele>
        <time>2021-03-02T10:07:19Z</time>
      </trkpt>
      <trkpt lat="36.8633550" lon="-2.9723760">
        <ele>299.2</ele>
        <time>2021-03-02T10:07:20Z</time>
      </trkpt>
      <trkpt lat="36.8632750" lon="-2.9723050">
        <ele>299.4</ele>
        <time>2021-03-02T10:07:21Z</time>
      </trkpt>
      <trkpt lat="36.8631900" lon="-2.9722470">
        <ele>299.4</ele>
        <time>2021-03-02T10:07:22Z</time>
      </trkpt>
      <trkpt lat="36.8630990" lon="-2.9721970">
        <ele>299.4</ele>
        <time>2021-03-02T10:07:23Z</time>
      </trkpt>
      <trkpt lat="36.8630080" lon="-2.9721420">
        <ele>299.2</ele>
        <time>2021-03-02T10:07:24Z</time>
      </trkpt>
      <trkpt lat="36.8629240" lon="-2.9720740">
        <ele>298.8</ele>
        <time>2021-03-02T10:07:25Z</time>
      </trkpt>
      <trkpt lat="36.8628460" lon="-2.9720030">
        <ele>298.6</ele>
        <time>2021-03-02T10:07:26Z</time>
      </trkpt>
      <trkpt lat="36.8627700" lon="-2.9719360">
        <ele>298.6</ele>
        <time>2021-03-02T10:07:27Z</time>
      </trkpt>
      <trkpt lat="36.8626920" lon="-2.9718790">
        <ele>298.4</ele>
        <time>2021-03-02T10:07:28Z</time>
      </trkpt>
      <trkpt lat="36.8626100" lon="-2.9718300">
        <ele>298.4</ele>
        <time>2021-03-02T10:07:29Z</time>
      </trkpt>
      <trkpt lat="36.8625250" lon="-2.9717840">
        <ele>298.2</ele>
        <time>2021-03-02T10:07:30Z</time>
      </trkpt>
      <trkpt lat="36.8624380" lon="-2.9717370">
        <ele>297.8</ele>
        <time>2021-03-02T10:07:31Z</time>
      </trkpt>
      <trkpt lat="36.8623540" lon="-2.9716870">
        <ele>297.2</ele>
        <time>2021-03-02T10:07:32Z</time>
      </trkpt>
      <trkpt lat="36.8622710" lon="-2.9716320">
        <ele>297.2</ele>
        <time>2021-03-02T10:07:33Z</time>
      </trkpt>
      <trkpt lat="36.8621890" lon="-2.9715760">
        <ele>297.0</ele>
        <time>2021-03-02T10:07:34Z</time>
      </trkpt>
      <trkpt lat="36.8621060" lon="-2.9715210">
        <ele>296.8</ele>
        <time>2021-03-02T10:07:35Z</time>
      </trkpt>
      <trkpt lat="36.8620240" lon="-2.9714680">
        <ele>296.8</ele>
        <time>2021-03-02T10:07:36Z</time>
      </trkpt>
      <trkpt lat="36.8619430" lon="-2.9714170">
        <ele>296.6</ele>
        <time>2021-03-02T10:07:37Z</time>
      </trkpt>
      <trkpt lat="36.8618620" lon="-2.9713680">
        <ele>296.4</ele>
        <time>2021-03-02T10:07:38Z</time>
      </trkpt>
      <trkpt lat="36.8617820" lon="-2.9713190">
        <ele>296.2</ele>
        <time>2021-03-02T10:07:39Z</time>
      </trkpt>
      <trkpt lat="36.8617030" lon="-2.9712690">
        <ele>296.0</ele>
        <time>2021-03-02T10:07:40Z</time>
      </trkpt>
      <trkpt lat="36.8616260" lon="-2.9712170">
        <ele>295.8</ele>
        <time>2021-03-02T10:07:41Z</time>
      </trkpt>
      <trkpt lat="36.8615500" lon="-2.9711630">
        <ele>295.8</ele>
        <time>2021-03-02T10:07:42Z</time>
      </trkpt>
      <trkpt lat="36.8614750" lon="-2.9711110">
        <ele>295.6</ele>
        <time>2021-03-02T10:07:43Z</time>
      </trkpt>
      <trkpt lat="36.8614020" lon="-2.9710580">
        <ele>295.4</ele>
        <time>2021-03-02T10:07:44Z</time>
      </trkpt>
      <trkpt lat="36.8613300" lon="-2.9710040">
        <ele>295.2</ele>
        <time>2021-03-02T10:07:45Z</time>
      </trkpt>
      <trkpt lat="36.8612610" lon="-2.9709510">
        <ele>295.0</ele>
        <time>2021-03-02T10:07:46Z</time>
      </trkpt>
      <trkpt lat="36.8611920" lon="-2.9709010">
        <ele>294.8</ele>
        <time>2021-03-02T10:07:47Z</time>
      </trkpt>
      <trkpt lat="36.8611260" lon="-2.9708530">
        <ele>294.8</ele>
        <time>2021-03-02T10:07:48Z</time>
      </trkpt>
      <trkpt lat="36.8610620" lon="-2.9708100">
        <ele>295.0</ele>
        <time>2021-03-02T10:07:49Z</time>
      </trkpt>
      <trkpt lat="36.8609990" lon="-2.9707700">
        <ele>295.0</ele>
        <time>2021-03-02T10:07:50Z</time>
      </trkpt>
      <trkpt lat="36.8609400" lon="-2.9707270">
        <ele>295.2</ele>
        <time>2021-03-02T10:07:51Z</time>
      </trkpt>
      <trkpt lat="36.8608810" lon="-2.9706800">
        <ele>295.2</ele>
        <time>2021-03-02T10:07:52Z</time>
      </trkpt>
      <trkpt lat="36.8608210" lon="-2.9706310">
        <ele>295.0</ele>
        <time>2021-03-02T10:07:53Z</time>
      </trkpt>
      <trkpt lat="36.8607610" lon="-2.9705810">
        <ele>294.8</ele>
        <time>2021-03-02T10:07:54Z</time>
      </trkpt>
      <trkpt lat="36.8606980" lon="-2.9705320">
        <ele>294.8</ele>
        <time>2021-03-02T10:07:55Z</time>
      </trkpt>
      <trkpt lat="36.8606330" lon="-2.9704850">
        <ele>294.4</ele>
        <time>2021-03-02T10:07:56Z</time>
      </trkpt>
      <trkpt lat="36.8605680" lon="-2.9704390">
        <ele>294.4</ele>
        <time>2021-03-02T10:07:57Z</time>
      </trkpt>
      <trkpt lat="36.8605030" lon="-2.9703950">
        <ele>294.2</ele>
        <time>2021-03-02T10:07:58Z</time>
      </trkpt>
      <trkpt lat="36.8604380" lon="-2.9703550">
        <ele>294.0</ele>
        <time>2021-03-02T10:07:59Z</time>
      </trkpt>
      <trkpt lat="36.8603700" lon="-2.9703230">
        <ele>294.0</ele>
        <time>2021-03-02T10:08:00Z</time>
      </trkpt>
      <trkpt lat="36.8603000" lon="-2.9702980">
        <ele>293.8</ele>
        <time>2021-03-02T10:08:01Z</time>
      </trkpt>
      <trkpt lat="36.8602280" lon="-2.9702770">
        <ele>293.6</ele>
        <time>2021-03-02T10:08:02Z</time>
      </trkpt>
      <trkpt lat="36.8601550" lon="-2.9702580">
        <ele>293.2</ele>
        <time>2021-03-02T10:08:03Z</time>
      </trkpt>
      <trkpt lat="36.8600820" lon="-2.9702390">
        <ele>293.2</ele>
        <time>2021-03-02T10:08:04Z</time>
      </trkpt>
      <trkpt lat="36.8600090" lon="-2.9702190">
        <ele>292.8</ele>
        <time>2021-03-02T10:08:05Z</time>
      </trkpt>
      <trkpt lat="36.8599360" lon="-2.9702000">
        <ele>292.4</ele>
        <time>2021-03-02T10:08:06Z</time>
      </trkpt>
      <trkpt lat="36.8598620" lon="-2.9701810">
        <ele>292.2</ele>
        <time>2021-03-02T10:08:07Z</time>
      </trkpt>
      <trkpt lat="36.8597870" lon="-2.9701600">
        <ele>292.0</ele>
        <time>2021-03-02T10:08:08Z</time>
      </trkpt>
      <trkpt lat="36.8597110" lon="-2.9701390">
        <ele>291.8</ele>
        <time>2021-03-02T10:08:09Z</time>
      </trkpt>
      <trkpt lat="36.8596340" lon="-2.9701210">
        <ele>291.4</ele>
        <time>2021-03-02T10:08:10Z</time>
      </trkpt>
      <trkpt lat="36.8595570" lon="-2.9701050">
        <ele>291.4</ele>
        <time>2021-03-02T10:08:11Z</time>
      </trkpt>
      <trkpt lat="36.8594800" lon="-2.9700890">
        <ele>291.0</ele>
        <time>2021-03-02T10:08:12Z</time>
      </trkpt>
      <trkpt lat="36.8594020" lon="-2.9700720">
        <ele>290.8</ele>
        <time>2021-03-02T10:08:13Z</time>
      </trkpt>
      <trkpt lat="36.8593250" lon="-2.9700520">
        <ele>290.6</ele>
        <time>2021-03-02T10:08:14Z</time>
      </trkpt>
      <trkpt lat="36.8592470" lon="-2.9700330">
        <ele>290.4</ele>
        <time>2021-03-02T10:08:15Z</time>
      </trkpt>
      <trkpt lat="36.8591680" lon="-2.9700110">
        <ele>290.2</ele>
        <time>2021-03-02T10:08:16Z</time>
      </trkpt>
      <trkpt lat="36.8590890" lon="-2.9699870">
        <ele>290.0</ele>
        <time>2021-03-02T10:08:17Z</time>
      </trkpt>
      <trkpt lat="36.8590120" lon="-2.9699630">
        <ele>289.8</ele>
        <time>2021-03-02T10:08:18Z</time>
      </trkpt>
      <trkpt lat="36.8589370" lon="-2.9699390">
        <ele>289.8</ele>
        <time>2021-03-02T10:08:19Z</time>
      </trkpt>
      <trkpt lat="36.8588630" lon="-2.9699150">
        <ele>289.6</ele>
        <time>2021-03-02T10:08:20Z</time>
      </trkpt>
      <trkpt lat="36.8587900" lon="-2.9698920">
        <ele>289.4</ele>
        <time>2021-03-02T10:08:21Z</time>
      </trkpt>
      <trkpt lat="36.8587160" lon="-2.9698670">
        <ele>289.2</ele>
        <time>2021-03-02T10:08:22Z</time>
      </trkpt>
      <trkpt lat="36.8586430" lon="-2.9698390">
        <ele>289.2</ele>
        <time>2021-03-02T10:08:23Z</time>
      </trkpt>
      <trkpt lat="36.8585690" lon="-2.9698120">
        <ele>289.0</ele>
        <time>2021-03-02T10:08:24Z</time>
      </trkpt>
      <trkpt lat="36.8584960" lon="-2.9697830">
        <ele>288.8</ele>
        <time>2021-03-02T10:08:25Z</time>
      </trkpt>
      <trkpt lat="36.8584220" lon="-2.9697540">
        <ele>288.6</ele>
        <time>2021-03-02T10:08:26Z</time>
      </trkpt>
      <trkpt lat="36.8583470" lon="-2.9697250">
        <ele>288.0</ele>
        <time>2021-03-02T10:08:27Z</time>
      </trkpt>
      <trkpt lat="36.8582720" lon="-2.9696960">
        <ele>287.8</ele>
        <time>2021-03-02T10:08:28Z</time>
      </trkpt>
      <trkpt lat="36.8581970" lon="-2.9696630">
        <ele>287.6</ele>
        <time>2021-03-02T10:08:29Z</time>
      </trkpt>
      <trkpt lat="36.8581220" lon="-2.9696280">
        <ele>287.4</ele>
        <time>2021-03-02T10:08:30Z</time>
      </trkpt>
      <trkpt lat="36.8580470" lon="-2.9695920">
        <ele>287.2</ele>
        <time>2021-03-02T10:08:31Z</time>
      </trkpt>
      <trkpt lat="36.8579720" lon="-2.9695580">
        <ele>287.0</ele>
        <time>2021-03-02T10:08:32Z</time>
      </trkpt>
      <trkpt lat="36.8578980" lon="-2.9695210">
        <ele>287.0</ele>
        <time>2021-03-02T10:08:33Z</time>
      </trkpt>
      <trkpt lat="36.8578230" lon="-2.9694820">
        <ele>286.6</ele>
        <time>2021-03-02T10:08:34Z</time>
      </trkpt>
      <trkpt lat="36.8577490" lon="-2.9694420">
        <ele>286.2</ele>
        <time>2021-03-02T10:08:35Z</time>
      </trkpt>
      <trkpt lat="36.8576740" lon="-2.9694010">
        <ele>285.8</ele>
        <time>2021-03-02T10:08:36Z</time>
      </trkpt>
      <trkpt lat="36.8575990" lon="-2.9693580">
        <ele>285.6</ele>
        <time>2021-03-02T10:08:37Z</time>
      </trkpt>
      <trkpt lat="36.8575260" lon="-2.9693160">
        <ele>285.2</ele>
        <time>2021-03-02T10:08:38Z</time>
      </trkpt>
      <trkpt lat="36.8574530" lon="-2.9692740">
        <ele>284.8</ele>
        <time>2021-03-02T10:08:39Z</time>
      </trkpt>
      <trkpt lat="36.8573810" lon="-2.9692310">
        <ele>284.6</ele>
        <time>2021-03-02T10:08:40Z</time>
      </trkpt>
      <trkpt lat="36.8573100" lon="-2.9691880">
        <ele>284.6</ele>
        <time>2021-03-02T10:08:41Z</time>
      </trkpt>
      <trkpt lat="36.8572390" lon="-2.9691440">
        <ele>284.4</ele>
        <time>2021-03-02T10:08:42Z</time>
      </trkpt>
      <trkpt lat="36.8571690" lon="-2.9690990">
        <ele>284.4</ele>
        <time>2021-03-02T10:08:43Z</time>
      </trkpt>
      <trkpt lat="36.8571000" lon="-2.9690550">
        <ele>284.2</ele>
        <time>2021-03-02T10:08:44Z</time>
      </trkpt>
      <trkpt lat="36.8570310" lon="-2.9690120">
        <ele>284.0</ele>
        <time>2021-03-02T10:08:45Z</time>
      </trkpt>
      <trkpt lat="36.8569620" lon="-2.9689700">
        <ele>283.6</ele>
        <time>2021-03-02T10:08:46Z</time>
      </trkpt>
      <trkpt lat="36.8568920" lon="-2.9689300">
        <ele>283.6</ele>
        <time>2021-03-02T10:08:47Z</time>
      </trkpt>
      <trkpt lat="36.8568220" lon="-2.9688900">
        <ele>283.2</ele>
        <time>2021-03-02T10:08:48Z</time>
      </trkpt>
      <trkpt lat="36.8567520" lon="-2.9688530">
        <ele>283.2</ele>
        <time>2021-03-02T10:08:49Z</time>
      </trkpt>
      <trkpt lat="36.8566820" lon="-2.9688150">
        <ele>283.0</ele>
        <time>2021-03-02T10:08:50Z</time>
      </trkpt>
      <trkpt lat="36.8566120" lon="-2.9687730">
        <ele>282.8</ele>
        <time>2021-03-02T10:08:51Z</time>
      </trkpt>
      <trkpt lat="36.8565440" lon="-2.9687250">
        <ele>282.6</ele>
        <time>2021-03-02T10:08:52Z</time>
      </trkpt>
      <trkpt lat="36.8564800" lon="-2.9686720">
        <ele>282.2</ele>
        <time>2021-03-02T10:08:53Z</time>
      </trkpt>
      <trkpt lat="36.8564220" lon="-2.9686090">
        <ele>282.0</ele>
        <time>2021-03-02T10:08:54Z</time>
      </trkpt>
      <trkpt lat="36.8563720" lon="-2.9685440">
        <ele>282.0</ele>
        <time>2021-03-02T10:08:55Z</time>
      </trkpt>
      <trkpt lat="36.8563290" lon="-2.9684940">
        <ele>281.8</ele>
        <time>2021-03-02T10:08:56Z</time>
      </trkpt>
      <trkpt lat="36.8563010" lon="-2.9684490">
        <ele>281.4</ele>
        <time>2021-03-02T10:08:57Z</time>
      </trkpt>
      <trkpt lat="36.8562870" lon="-2.9684030">
        <ele>280.8</ele>
        <time>2021-03-02T10:08:58Z</time>
      </trkpt>
      <trkpt lat="36.8562850" lon="-2.9683540">
        <ele>280.6</ele>
        <time>2021-03-02T10:08:59Z</time>
      </trkpt>
      <trkpt lat="36.8562950" lon="-2.9683020">
        <ele>280.4</ele>
        <time>2021-03-02T10:09:00Z</time>
      </trkpt>
      <trkpt lat="36.8563150" lon="-2.9682450">
        <ele>280.2</ele>
        <time>2021-03-02T10:09:01Z</time>
      </trkpt>
      <trkpt lat="36.8563450" lon="-2.9681820">
        <ele>279.8</ele>
        <time>2021-03-02T10:09:02Z</time>
      </trkpt>
      <trkpt lat="36.8563860" lon="-2.9681190">
        <ele>279.4</ele>
        <time>2021-03-02T10:09:03Z</time>
      </trkpt>
      <trkpt lat="36.8564340" lon="-2.9680600">
        <ele>279.0</ele>
        <time>2021-03-02T10:09:04Z</time>
      </trkpt>
      <trkpt lat="36.8564840" lon="-2.9680100">
        <ele>278.8</ele>
        <time>2021-03-02T10:09:05Z</time>
      </trkpt>
      <trkpt lat="36.8565370" lon="-2.9679670">
        <ele>278.8</ele>
        <time>2021-03-02T10:09:06Z</time>
      </trkpt>
      <trkpt lat="36.8565890" lon="-2.9679270">
        <ele>278.6</ele>
        <time>2021-03-02T10:09:07Z</time>
      </trkpt>
      <trkpt lat="36.8566380" lon="-2.9678930">
        <ele>278.8</ele>
        <time>2021-03-02T10:09:08Z</time>
      </trkpt>
      <trkpt lat="36.8566850" lon="-2.9678650">
        <ele>279.2</ele>
        <time>2021-03-02T10:09:09Z</time>
      </trkpt>
      <trkpt lat="36.8567290" lon="-2.9678390">
        <ele>279.6</ele>
        <time>2021-03-02T10:09:10Z</time>
      </trkpt>
      <trkpt lat="36.8567680" lon="-2.9678140">
        <ele>279.8</ele>
        <time>2021-03-02T10:09:11Z</time>
      </trkpt>
      <trkpt lat="36.8568030" lon="-2.9677900">
        <ele>280.2</ele>
        <time>2021-03-02T10:09:12Z</time>
      </trkpt>
      <trkpt lat="36.8568400" lon="-2.9677650">
        <ele>280.4</ele>
        <time>2021-03-02T10:09:13Z</time>
      </trkpt>
      <trkpt lat="36.8568770" lon="-2.9677370">
        <ele>280.8</ele>
        <time>2021-03-02T10:09:14Z</time>
      </trkpt>
      <trkpt lat="36.8569140" lon="-2.9677080">
        <ele>281.0</ele>
        <time>2021-03-02T10:09:15Z</time>
      </trkpt>
      <trkpt lat="36.8569500" lon="-2.9676810">
        <ele>281.4</ele>
        <time>2021-03-02T10:09:16Z</time>
      </trkpt>
      <trkpt lat="36.8569870" lon="-2.9676560">
        <ele>281.8</ele>
        <time>2021-03-02T10:09:17Z</time>
      </trkpt>
      <trkpt lat="36.8570250" lon="-2.9676320">
        <ele>282.0</ele>
        <time>2021-03-02T10:09:18Z</time>
      </trkpt>
      <trkpt lat="36.8570660" lon="-2.9676130">
        <ele>282.4</ele>
        <time>2021-03-02T10:09:19Z</time>
      </trkpt>
      <trkpt lat="36.8571090" lon="-2.9675980">
        <ele>282.4</ele>
        <time>2021-03-02T10:09:20Z</time>
      </trkpt>
      <trkpt lat="36.8571540" lon="-2.9675880">
        <ele>282.8</ele>
        <time>2021-03-02T10:09:21Z</time>
      </trkpt>
      <trkpt lat="36.8571970" lon="-2.9675850">
        <ele>282.8</ele>
        <time>2021-03-02T10:09:22Z</time>
      </trkpt>
      <trkpt lat="36.8572450" lon="-2.9675900">
        <ele>282.8</ele>
        <time>2021-03-02T10:09:23Z</time>
      </trkpt>
      <trkpt lat="36.8572990" lon="-2.9675990">
        <ele>282.6</ele>
        <time>2021-03-02T10:09:24Z</time>
      </trkpt>
      <trkpt lat="36.8573570" lon="-2.9676120">
        <ele>282.4</ele>
        <time>2021-03-02T10:09:25Z</time>
      </trkpt>
      <trkpt lat="36.8574130" lon="-2.9676270">
        <ele>282.2</ele>
        <time>2021-03-02T10:09:26Z</time>
      </trkpt>
      <trkpt lat="36.8574680" lon="-2.9676430">
        <ele>282.2</ele>
        <time>2021-03-02T10:09:27Z</time>
      </trkpt>
      <trkpt lat="36.8575230" lon="-2.9676630">
        <ele>282.0</ele>
        <time>2021-03-02T10:09:28Z</time>
      </trkpt>
      <trkpt lat="36.8575780" lon="-2.9676840">
        <ele>282.0</ele>
        <time>2021-03-02T10:09:29Z</time>
      </trkpt>
      <trkpt lat="36.8576330" lon="-2.9677040">
        <ele>282.2</ele>
        <time>2021-03-02T10:09:30Z</time>
      </trkpt>
      <trkpt lat="36.8576840" lon="-2.9677200">
        <ele>282.4</ele>
        <time>2021-03-02T10:09:31Z</time>
      </trkpt>
      <trkpt lat="36.8577350" lon="-2.9677280">
        <ele>282.6</ele>
        <time>2021-03-02T10:09:32Z</time>
      </trkpt>
      <trkpt lat="36.8577840" lon="-2.9677310">
        <ele>283.0</ele>
        <time>2021-03-02T10:09:33Z</time>
      </trkpt>
      <trkpt lat="36.8578310" lon="-2.9677320">
        <ele>283.2</ele>
        <time>2021-03-02T10:09:34Z</time>
      </trkpt>
      <trkpt lat="36.8578740" lon="-2.9677350">
        <ele>283.4</ele>
        <time>2021-03-02T10:09:35Z</time>
      </trkpt>
      <trkpt lat="36.8579140" lon="-2.9677390">
        <ele>283.6</ele>
        <time>2021-03-02T10:09:36Z</time>
      </trkpt>
      <trkpt lat="36.8579540" lon="-2.9677440">
        <ele>283.8</ele>
        <time>2021-03-02T10:09:37Z</time>
      </trkpt>
      <trkpt lat="36.8579960" lon="-2.9677530">
        <ele>284.2</ele>
        <time>2021-03-02T10:09:38Z</time>
      </trkpt>
      <trkpt lat="36.8580390" lon="-2.9677640">
        <ele>284.4</ele>
        <time>2021-03-02T10:09:39Z</time>
      </trkpt>
      <trkpt lat="36.8580840" lon="-2.9677770">
        <ele>284.6</ele>
        <time>2021-03-02T10:09:40Z</time>
      </trkpt>
      <trkpt lat="36.8581290" lon="-2.9677920">
        <ele>284.8</ele>
        <time>2021-03-02T10:09:41Z</time>
      </trkpt>
      <trkpt lat="36.8581780" lon="-2.9678060">
        <ele>284.8</ele>
        <time>2021-03-02T10:09:42Z</time>
      </trkpt>
      <trkpt lat="36.8582290" lon="-2.9678170">
        <ele>284.8</ele>
        <time>2021-03-02T10:09:43Z</time>
      </trkpt>
      <trkpt lat="36.8582800" lon="-2.9678260">
        <ele>284.8</ele>
        <time>2021-03-02T10:09:44Z</time>
      </trkpt>
      <trkpt lat="36.8583330" lon="-2.9678360">
        <ele>285.0</ele>
        <time>2021-03-02T10:09:45Z</time>
      </trkpt>
      <trkpt lat="36.8583860" lon="-2.9678450">
        <ele>285.0</ele>
        <time>2021-03-02T10:09:46Z</time>
      </trkpt>
      <trkpt lat="36.8584360" lon="-2.9678540">
        <ele>285.0</ele>
        <time>2021-03-02T10:09:47Z</time>
      </trkpt>
      <trkpt lat="36.8584850" lon="-2.9678620">
        <ele>285.2</ele>
        <time>2021-03-02T10:09:48Z</time>
      </trkpt>
      <trkpt lat="36.8585310" lon="-2.9678710">
        <ele>285.4</ele>
        <time>2021-03-02T10:09:49Z</time>
      </trkpt>
      <trkpt lat="36.8585730" lon="-2.9678780">
        <ele>285.6</ele>
        <time>2021-03-02T10:09:50Z</time>
      </trkpt>
      <trkpt lat="36.8586090" lon="-2.9678860">
        <ele>285.8</ele>
        <time>2021-03-02T10:09:51Z</time>
      </trkpt>
      <trkpt lat="36.8586430" lon="-2.9678960">
        <ele>286.4</ele>
        <time>2021-03-02T10:09:52Z</time>
      </trkpt>
      <trkpt lat="36.8586790" lon="-2.9679070">
        <ele>286.6</ele>
        <time>2021-03-02T10:09:53Z</time>
      </trkpt>
      <trkpt lat="36.8587170" lon="-2.9679210">
        <ele>286.8</ele>
        <time>2021-03-02T10:09:54Z</time>
      </trkpt>
      <trkpt lat="36.8587560" lon="-2.9679370">
        <ele>287.0</ele>
        <time>2021-03-02T10:09:55Z</time>
      </trkpt>
      <trkpt lat="36.8587980" lon="-2.9679520">
        <ele>287.0</ele>
        <time>2021-03-02T10:09:56Z</time>
      </trkpt>
      <trkpt lat="36.8588410" lon="-2.9679610">
        <ele>287.2</ele>
        <time>2021-03-02T10:09:57Z</time>
      </trkpt>
      <trkpt lat="36.8588850" lon="-2.9679620">
        <ele>287.2</ele>
        <time>2021-03-02T10:09:58Z</time>
      </trkpt>
      <trkpt lat="36.8589300" lon="-2.9679580">
        <ele>287.2</ele>
        <time>2021-03-02T10:09:59Z</time>
      </trkpt>
      <trkpt lat="36.8589750" lon="-2.9679510">
        <ele>287.2</ele>
        <time>2021-03-02T10:10:00Z</time>
      </trkpt>
      <trkpt lat="36.8590190" lon="-2.9679410">
        <ele>287.4</ele>
        <time>2021-03-02T10:10:01Z</time>
      </trkpt>
      <trkpt lat="36.8590610" lon="-2.9679260">
        <ele>287.8</ele>
        <time>2021-03-02T10:10:02Z</time>
      </trkpt>
      <trkpt lat="36.8590980" lon="-2.9679080">
        <ele>288.0</ele>
        <time>2021-03-02T10:10:03Z</time>
      </trkpt>
      <trkpt lat="36.8591340" lon="-2.9678880">
        <ele>288.2</ele>
        <time>2021-03-02T10:10:04Z</time>
      </trkpt>
      <trkpt lat="36.8591660" lon="-2.9678670">
        <ele>288.4</ele>
        <time>2021-03-02T10:10:05Z</time>
      </trkpt>
      <trkpt lat="36.8591990" lon="-2.9678480">
        <ele>288.6</ele>
        <time>2021-03-02T10:10:06Z</time>
      </trkpt>
      <trkpt lat="36.8592330" lon="-2.9678290">
        <ele>289.0</ele>
        <time>2021-03-02T10:10:07Z</time>
      </trkpt>
      <trkpt lat="36.8592650" lon="-2.9678040">
        <ele>289.2</ele>
        <time>2021-03-02T10:10:08Z</time>
      </trkpt>
      <trkpt lat="36.8592970" lon="-2.9677720">
        <ele>289.4</ele>
        <time>2021-03-02T10:10:09Z</time>
      </trkpt>
      <trkpt lat="36.8593310" lon="-2.9677400">
        <ele>289.6</ele>
        <time>2021-03-02T10:10:10Z</time>
      </trkpt>
      <trkpt lat="36.8593710" lon="-2.9677100">
        <ele>289.6</ele>
        <time>2021-03-02T10:10:11Z</time>
      </trkpt>
      <trkpt lat="36.8594110" lon="-2.9676810">
        <ele>289.4</ele>
        <time>2021-03-02T10:10:12Z</time>
      </trkpt>
      <trkpt lat="36.8594540" lon="-2.9676510">
        <ele>289.4</ele>
        <time>2021-03-02T10:10:13Z</time>
      </trkpt>
      <trkpt lat="36.8594960" lon="-2.9676200">
        <ele>289.4</ele>
        <time>2021-03-02T10:10:14Z</time>
      </trkpt>
      <trkpt lat="36.8595380" lon="-2.9675880">
        <ele>289.4</ele>
        <time>2021-03-02T10:10:15Z</time>
      </trkpt>
      <trkpt lat="36.8595810" lon="-2.9675560">
        <ele>289.4</ele>
        <time>2021-03-02T10:10:16Z</time>
      </trkpt>
      <trkpt lat="36.8596260" lon="-2.9675260">
        <ele>289.4</ele>
        <time>2021-03-02T10:10:17Z</time>
      </trkpt>
      <trkpt lat="36.8596710" lon="-2.9674950">
        <ele>289.6</ele>
        <time>2021-03-02T10:10:18Z</time>
      </trkpt>
      <trkpt lat="36.8597150" lon="-2.9674630">
        <ele>289.8</ele>
        <time>2021-03-02T10:10:19Z</time>
      </trkpt>
      <trkpt lat="36.8597610" lon="-2.9674310">
        <ele>290.0</ele>
        <time>2021-03-02T10:10:20Z</time>
      </trkpt>
      <trkpt lat="36.8598060" lon="-2.9673970">
        <ele>289.8</ele>
        <time>2021-03-02T10:10:21Z</time>
      </trkpt>
      <trkpt lat="36.8598500" lon="-2.9673640">
        <ele>289.8</ele>
        <time>2021-03-02T10:10:22Z</time>
      </trkpt>
      <trkpt lat="36.8598940" lon="-2.9673310">
        <ele>290.0</ele>
        <time>2021-03-02T10:10:23Z</time>
      </trkpt>
      <trkpt lat="36.8599390" lon="-2.9672970">
        <ele>290.0</ele>
        <time>2021-03-02T10:10:24Z</time>
      </trkpt>
      <trkpt lat="36.8599850" lon="-2.9672620">
        <ele>290.0</ele>
        <time>2021-03-02T10:10:25Z</time>
      </trkpt>
      <trkpt lat="36.8600300" lon="-2.9672270">
        <ele>290.2</ele>
        <time>2021-03-02T10:10:26Z</time>
      </trkpt>
      <trkpt lat="36.8600740" lon="-2.9671930">
        <ele>290.2</ele>
        <time>2021-03-02T10:10:27Z</time>
      </trkpt>
      <trkpt lat="36.8601200" lon="-2.9671600">
        <ele>290.4</ele>
        <time>2021-03-02T10:10:28Z</time>
      </trkpt>
      <trkpt lat="36.8601620" lon="-2.9671290">
        <ele>290.4</ele>
        <time>2021-03-02T10:10:29Z</time>
      </trkpt>
      <trkpt lat="36.8602010" lon="-2.9671000">
        <ele>290.8</ele>
        <time>2021-03-02T10:10:30Z</time>
      </trkpt>
      <trkpt lat="36.8602340" lon="-2.9670740">
        <ele>291.0</ele>
        <time>2021-03-02T10:10:31Z</time>
      </trkpt>
      <trkpt lat="36.8602640" lon="-2.9670480">
        <ele>291.6</ele>
        <time>2021-03-02T10:10:32Z</time>
      </trkpt>
      <trkpt lat="36.8602950" lon="-2.9670200">
        <ele>291.8</ele>
        <time>2021-03-02T10:10:33Z</time>
      </trkpt>
      <trkpt lat="36.8603260" lon="-2.9669910">
        <ele>292.0</ele>
        <time>2021-03-02T10:10:34Z</time>
      </trkpt>
      <trkpt lat="36.8603580" lon="-2.9669620">
        <ele>292.4</ele>
        <time>2021-03-02T10:10:35Z</time>
      </trkpt>
      <trkpt lat="36.8603920" lon="-2.9669320">
        <ele>292.4</ele>
        <time>2021-03-02T10:10:36Z</time>
      </trkpt>
      <trkpt lat="36.8604270" lon="-2.9669030">
        <ele>292.6</ele>
        <time>2021-03-02T10:10:37Z</time>
      </trkpt>
      <trkpt lat="36.8604630" lon="-2.9668730">
        <ele>292.6</ele>
        <time>2021-03-02T10:10:38Z</time>
      </trkpt>
      <trkpt lat="36.8605010" lon="-2.9668430">
        <ele>292.8</ele>
        <time>2021-03-02T10:10:39Z</time>
      </trkpt>
      <trkpt lat="36.8605390" lon="-2.9668130">
        <ele>292.8</ele>
        <time>2021-03-02T10:10:40Z</time>
      </trkpt>
      <trkpt lat="36.8605780" lon="-2.9667840">
        <ele>292.8</ele>
        <time>2021-03-02T10:10:41Z</time>
      </trkpt>
      <trkpt lat="36.8606160" lon="-2.9667510">
        <ele>292.8</ele>
        <time>2021-03-02T10:10:42Z</time>
      </trkpt>
      <trkpt lat="36.8606550" lon="-2.9667180">
        <ele>292.8</ele>
        <time>2021-03-02T10:10:43Z</time>
      </trkpt>
      <trkpt lat="36.8606970" lon="-2.9666900">
        <ele>292.8</ele>
        <time>2021-03-02T10:10:44Z</time>
      </trkpt>
      <trkpt lat="36.8607410" lon="-2.9666670">
        <ele>292.8</ele>
        <time>2021-03-02T10:10:45Z</time>
      </trkpt>
      <trkpt lat="36.8607870" lon="-2.9666450">
        <ele>292.8</ele>
        <time>2021-03-02T10:10:46Z</time>
      </trkpt>
      <trkpt lat="36.8608320" lon="-2.9666250">
        <ele>293.0</ele>
        <time>2021-03-02T10:10:47Z</time>
      </trkpt>
      <trkpt lat="36.8608770" lon="-2.9666050">
        <ele>293.2</ele>
        <time>2021-03-02T10:10:48Z</time>
      </trkpt>
      <trkpt lat="36.8609180" lon="-2.9665830">
        <ele>293.6</ele>
        <time>2021-03-02T10:10:49Z</time>
      </trkpt>
      <trkpt lat="36.8609590" lon="-2.9665600">
        <ele>293.8</ele>
        <time>2021-03-02T10:10:50Z</time>
      </trkpt>
      <trkpt lat="36.8609980" lon="-2.9665370">
        <ele>294.0</ele>
        <time>2021-03-02T10:10:51Z</time>
      </trkpt>
      <trkpt lat="36.8610340" lon="-2.9665090">
        <ele>294.2</ele>
        <time>2021-03-02T10:10:52Z</time>
      </trkpt>
      <trkpt lat="36.8610690" lon="-2.9664810">
        <ele>294.2</ele>
        <time>2021-03-02T10:10:53Z</time>
      </trkpt>
      <trkpt lat="36.8611050" lon="-2.9664540">
        <ele>294.2</ele>
        <time>2021-03-02T10:10:54Z</time>
      </trkpt>
      <trkpt lat="36.8611430" lon="-2.9664270">
        <ele>294.2</ele>
        <time>2021-03-02T10:10:55Z</time>
      </trkpt>
      <trkpt lat="36.8611830" lon="-2.9664020">
        <ele>294.4</ele>
        <time>2021-03-02T10:10:56Z</time>
      </trkpt>
      <trkpt lat="36.8612250" lon="-2.9663830">
        <ele>294.4</ele>
        <time>2021-03-02T10:10:57Z</time>
      </trkpt>
      <trkpt lat="36.8612690" lon="-2.9663670">
        <ele>294.6</ele>
        <time>2021-03-02T10:10:58Z</time>
      </trkpt>
      <trkpt lat="36.8613140" lon="-2.9663510">
        <ele>294.6</ele>
        <time>2021-03-02T10:10:59Z</time>
      </trkpt>
      <trkpt lat="36.8613590" lon="-2.9663370">
        <ele>294.8</ele>
        <time>2021-03-02T10:11:00Z</time>
      </trkpt>
      <trkpt lat="36.8614060" lon="-2.9663230">
        <ele>295.0</ele>
        <time>2021-03-02T10:11:01Z</time>
      </trkpt>
      <trkpt lat="36.8614530" lon="-2.9663110">
        <ele>295.0</ele>
        <time>2021-03-02T10:11:02Z</time>
      </trkpt>
      <trkpt lat="36.8615010" lon="-2.9663000">
        <ele>295.0</ele>
        <time>2021-03-02T10:11:03Z</time>
      </trkpt>
      <trkpt lat="36.8615480" lon="-2.9662910">
        <ele>295.2</ele>
        <time>2021-03-02T10:11:04Z</time>
      </trkpt>
      <trkpt lat="36.8615930" lon="-2.9662830">
        <ele>295.2</ele>
        <time>2021-03-02T10:11:05Z</time>
      </trkpt>
      <trkpt lat="36.8616340" lon="-2.9662760">
        <ele>295.4</ele>
        <time>2021-03-02T10:11:06Z</time>
      </trkpt>
      <trkpt lat="36.8616700" lon="-2.9662700">
        <ele>295.4</ele>
        <time>2021-03-02T10:11:07Z</time>
      </trkpt>
      <trkpt lat="36.8617000" lon="-2.9662620">
        <ele>295.6</ele>
        <time>2021-03-02T10:11:08Z</time>
      </trkpt>
      <trkpt lat="36.8617210" lon="-2.9662460">
        <ele>295.8</ele>
        <time>2021-03-02T10:11:09Z</time>
      </trkpt>
      <trkpt lat="36.8617300" lon="-2.9662230">
        <ele>296.4</ele>
        <time>2021-03-02T10:11:10Z</time>
      </trkpt>
      <trkpt lat="36.8617340" lon="-2.9661970">
        <ele>296.6</ele>
        <time>2021-03-02T10:11:11Z</time>
      </trkpt>
      <trkpt lat="36.8617340" lon="-2.9661690">
        <ele>296.8</ele>
        <time>2021-03-02T10:11:12Z</time>
      </trkpt>
      <trkpt lat="36.8617270" lon="-2.9661360">
        <ele>297.0</ele>
        <time>2021-03-02T10:11:13Z</time>
      </trkpt>
      <trkpt lat="36.8617120" lon="-2.9661040">
        <ele>297.2</ele>
        <time>2021-03-02T10:11:14Z</time>
      </trkpt>
      <trkpt lat="36.8616900" lon="-2.9660730">
        <ele>297.2</ele>
        <time>2021-03-02T10:11:15Z</time>
      </trkpt>
      <trkpt lat="36.8616630" lon="-2.9660420">
        <ele>297.4</ele>
        <time>2021-03-02T10:11:16Z</time>
      </trkpt>
      <trkpt lat="36.8616350" lon="-2.9660070">
        <ele>297.4</ele>
        <time>2021-03-02T10:11:17Z</time>
      </trkpt>
      <trkpt lat="36.8616060" lon="-2.9659680">
        <ele>297.4</ele>
        <time>2021-03-02T10:11:18Z</time>
      </trkpt>
      <trkpt lat="36.8615770" lon="-2.9659250">
        <ele>297.4</ele>
        <time>2021-03-02T10:11:19Z</time>
      </trkpt>
      <trkpt lat="36.8615460" lon="-2.9658820">
        <ele>297.2</ele>
        <time>2021-03-02T10:11:20Z</time>
      </trkpt>
      <trkpt lat="36.8615160" lon="-2.9658380">
        <ele>297.2</ele>
        <time>2021-03-02T10:11:21Z</time>
      </trkpt>
      <trkpt lat="36.8614850" lon="-2.9657920">
        <ele>297.4</ele>
        <time>2021-03-02T10:11:22Z</time>
      </trkpt>
      <trkpt lat="36.8614530" lon="-2.9657450">
        <ele>297.4</ele>
        <time>2021-03-02T10:11:23Z</time>
      </trkpt>
      <trkpt lat="36.8614200" lon="-2.9656980">
        <ele>297.4</ele>
        <time>2021-03-02T10:11:24Z</time>
      </trkpt>
      <trkpt lat="36.8613860" lon="-2.9656470">
        <ele>297.2</ele>
        <time>2021-03-02T10:11:25Z</time>
      </trkpt>
      <trkpt lat="36.8613510" lon="-2.9655940">
        <ele>297.2</ele>
        <time>2021-03-02T10:11:26Z</time>
      </trkpt>
      <trkpt lat="36.8613140" lon="-2.9655400">
        <ele>297.2</ele>
        <time>2021-03-02T10:11:27Z</time>
      </trkpt>
      <trkpt lat="36.8612760" lon="-2.9654860">
        <ele>297.2</ele>
        <time>2021-03-02T10:11:28Z</time>
      </trkpt>
      <trkpt lat="36.8612370" lon="-2.9654340">
        <ele>297.2</ele>
        <time>2021-03-02T10:11:29Z</time>
      </trkpt>
      <trkpt lat="36.8611970" lon="-2.9653810">
        <ele>297.2</ele>
        <time>2021-03-02T10:11:30Z</time>
      </trkpt>
      <trkpt lat="36.8611580" lon="-2.9653290">
        <ele>297.2</ele>
        <time>2021-03-02T10:11:31Z</time>
      </trkpt>
      <trkpt lat="36.8611190" lon="-2.9652760">
        <ele>297.2</ele>
        <time>2021-03-02T10:11:32Z</time>
      </trkpt>
      <trkpt lat="36.8610790" lon="-2.9652220">
        <ele>297.2</ele>
        <time>2021-03-02T10:11:33Z</time>
      </trkpt>
      <trkpt lat="36.8610390" lon="-2.9651670">
        <ele>297.0</ele>
        <time>2021-03-02T10:11:34Z</time>
      </trkpt>
      <trkpt lat="36.8609970" lon="-2.9651120">
        <ele>297.0</ele>
        <time>2021-03-02T10:11:35Z</time>
      </trkpt>
      <trkpt lat="36.8609560" lon="-2.9650580">
        <ele>297.0</ele>
        <time>2021-03-02T10:11:36Z</time>
      </trkpt>
      <trkpt lat="36.8609140" lon="-2.9650050">
        <ele>297.0</ele>
        <time>2021-03-02T10:11:37Z</time>
      </trkpt>
      <trkpt lat="36.8608690" lon="-2.9649530">
        <ele>297.0</ele>
        <time>2021-03-02T10:11:38Z</time>
      </trkpt>
      <trkpt lat="36.8608240" lon="-2.9649010">
        <ele>297.0</ele>
        <time>2021-03-02T10:11:39Z</time>
      </trkpt>
      <trkpt lat="36.8607780" lon="-2.9648490">
        <ele>297.0</ele>
        <time>2021-03-02T10:11:40Z</time>
      </trkpt>
      <trkpt lat="36.8607300" lon="-2.9647990">
        <ele>297.0</ele>
        <time>2021-03-02T10:11:41Z</time>
      </trkpt>
      <trkpt lat="36.8606820" lon="-2.9647520">
        <ele>297.0</ele>
        <time>2021-03-02T10:11:42Z</time>
      </trkpt>
      <trkpt lat="36.8606320" lon="-2.9647070">
        <ele>297.0</ele>
        <time>2021-03-02T10:11:43Z</time>
      </trkpt>
      <trkpt lat="36.8605820" lon="-2.9646610">
        <ele>297.0</ele>
        <time>2021-03-02T10:11:44Z</time>
      </trkpt>
      <trkpt lat="36.8605320" lon="-2.9646160">
        <ele>297.0</ele>
        <time>2021-03-02T10:11:45Z</time>
      </trkpt>
      <trkpt lat="36.8604820" lon="-2.9645700">
        <ele>297.2</ele>
        <time>2021-03-02T10:11:46Z</time>
      </trkpt>
      <trkpt lat="36.8604320" lon="-2.9645240">
        <ele>297.2</ele>
        <time>2021-03-02T10:11:47Z</time>
      </trkpt>
      <trkpt lat="36.8603790" lon="-2.9644810">
        <ele>297.2</ele>
        <time>2021-03-02T10:11:48Z</time>
      </trkpt>
      <trkpt lat="36.8603260" lon="-2.9644360">
        <ele>297.0</ele>
        <time>2021-03-02T10:11:49Z</time>
      </trkpt>
      <trkpt lat="36.8602750" lon="-2.9643880">
        <ele>296.8</ele>
        <time>2021-03-02T10:11:50Z</time>
      </trkpt>
      <trkpt lat="36.8602270" lon="-2.9643380">
        <ele>296.8</ele>
        <time>2021-03-02T10:11:51Z</time>
      </trkpt>
      <trkpt lat="36.8601800" lon="-2.9642860">
        <ele>296.8</ele>
        <time>2021-03-02T10:11:52Z</time>
      </trkpt>
      <trkpt lat="36.8601330" lon="-2.9642330">
        <ele>297.0</ele>
        <time>2021-03-02T10:11:53Z</time>
      </trkpt>
      <trkpt lat="36.8600830" lon="-2.9641810">
        <ele>297.0</ele>
        <time>2021-03-02T10:11:54Z</time>
      </trkpt>
      <trkpt lat="36.8600340" lon="-2.9641270">
        <ele>297.2</ele>
        <time>2021-03-02T10:11:55Z</time>
      </trkpt>
      <trkpt lat="36.8599840" lon="-2.9640720">
        <ele>297.2</ele>
        <time>2021-03-02T10:11:56Z</time>
      </trkpt>
      <trkpt lat="36.8599360" lon="-2.9640170">
        <ele>297.2</ele>
        <time>2021-03-02T10:11:57Z</time>
      </trkpt>
      <trkpt lat="36.8598880" lon="-2.9639640">
        <ele>297.2</ele>
        <time>2021-03-02T10:11:58Z</time>
      </trkpt>
      <trkpt lat="36.8598400" lon="-2.9639090">
        <ele>297.4</ele>
        <time>2021-03-02T10:11:59Z</time>
      </trkpt>
      <trkpt lat="36.8597910" lon="-2.9638560">
        <ele>297.6</ele>
        <time>2021-03-02T10:12:00Z</time>
      </trkpt>
      <trkpt lat="36.8597420" lon="-2.9638010">
        <ele>297.6</ele>
        <time>2021-03-02T10:12:01Z</time>
      </trkpt>
      <trkpt lat="36.8596930" lon="-2.9637480">
        <ele>297.6</ele>
        <time>2021-03-02T10:12:02Z</time>
      </trkpt>
      <trkpt lat="36.8596420" lon="-2.9636970">
        <ele>297.6</ele>
        <time>2021-03-02T10:12:03Z</time>
      </trkpt>
      <trkpt lat="36.8595910" lon="-2.9636480">
        <ele>297.6</ele>
        <time>2021-03-02T10:12:04Z</time>
      </trkpt>
      <trkpt lat="36.8595410" lon="-2.9636000">
        <ele>297.6</ele>
        <time>2021-03-02T10:12:05Z</time>
      </trkpt>
      <trkpt lat="36.8594880" lon="-2.9635540">
        <ele>297.6</ele>
        <time>2021-03-02T10:12:06Z</time>
      </trkpt>
      <trkpt lat="36.8594350" lon="-2.9635110">
        <ele>297.8</ele>
        <time>2021-03-02T10:12:07Z</time>
      </trkpt>
      <trkpt lat="36.8593800" lon="-2.9634670">
        <ele>297.8</ele>
        <time>2021-03-02T10:12:08Z</time>
      </trkpt>
      <trkpt lat="36.8593250" lon="-2.9634230">
        <ele>297.8</ele>
        <time>2021-03-02T10:12:09Z</time>
      </trkpt>
      <trkpt lat="36.8592700" lon="-2.9633760">
        <ele>297.8</ele>
        <time>2021-03-02T10:12:10Z</time>
      </trkpt>
      <trkpt lat="36.8592160" lon="-2.9633260">
        <ele>297.8</ele>
        <time>2021-03-02T10:12:11Z</time>
      </trkpt>
      <trkpt lat="36.8591610" lon="-2.9632740">
        <ele>297.6</ele>
        <time>2021-03-02T10:12:12Z</time>
      </trkpt>
      <trkpt lat="36.8591070" lon="-2.9632200">
        <ele>297.6</ele>
        <time>2021-03-02T10:12:13Z</time>
      </trkpt>
      <trkpt lat="36.8590570" lon="-2.9631640">
        <ele>297.4</ele>
        <time>2021-03-02T10:12:14Z</time>
      </trkpt>
      <trkpt lat="36.8590060" lon="-2.9631070">
        <ele>297.6</ele>
        <time>2021-03-02T10:12:15Z</time>
      </trkpt>
      <trkpt lat="36.8589540" lon="-2.9630510">
        <ele>297.6</ele>
        <time>2021-03-02T10:12:16Z</time>
      </trkpt>
      <trkpt lat="36.8589000" lon="-2.9629970">
        <ele>297.8</ele>
        <time>2021-03-02T10:12:17Z</time>
      </trkpt>
      <trkpt lat="36.8588440" lon="-2.9629460">
        <ele>297.8</ele>
        <time>2021-03-02T10:12:18Z</time>
      </trkpt>
      <trkpt lat="36.8587880" lon="-2.9628950">
        <ele>297.8</ele>
        <time>2021-03-02T10:12:19Z</time>
      </trkpt>
      <trkpt lat="36.8587300" lon="-2.9628450">
        <ele>298.0</ele>
        <time>2021-03-02T10:12:20Z</time>
      </trkpt>
      <trkpt lat="36.8586720" lon="-2.9627960">
        <ele>298.0</ele>
        <time>2021-03-02T10:12:21Z</time>
      </trkpt>
      <trkpt lat="36.8586130" lon="-2.9627500">
        <ele>298.2</ele>
        <time>2021-03-02T10:12:22Z</time>
      </trkpt>
      <trkpt lat="36.8585550" lon="-2.9627050">
        <ele>298.2</ele>
        <time>2021-03-02T10:12:23Z</time>
      </trkpt>
      <trkpt lat="36.8584980" lon="-2.9626620">
        <ele>298.4</ele>
        <time>2021-03-02T10:12:24Z</time>
      </trkpt>
      <trkpt lat="36.8584410" lon="-2.9626260">
        <ele>298.4</ele>
        <time>2021-03-02T10:12:25Z</time>
      </trkpt>
      <trkpt lat="36.8583840" lon="-2.9625930">
        <ele>298.6</ele>
        <time>2021-03-02T10:12:26Z</time>
      </trkpt>
      <trkpt lat="36.8583300" lon="-2.9625660">
        <ele>298.8</ele>
        <time>2021-03-02T10:12:27Z</time>
      </trkpt>
      <trkpt lat="36.8582770" lon="-2.9625410">
        <ele>299.2</ele>
        <time>2021-03-02T10:12:28Z</time>
      </trkpt>
      <trkpt lat="36.8582250" lon="-2.9625150">
        <ele>299.6</ele>
        <time>2021-03-02T10:12:29Z</time>
      </trkpt>
      <trkpt lat="36.8581740" lon="-2.9624840">
        <ele>299.8</ele>
        <time>2021-03-02T10:12:30Z</time>
      </trkpt>
      <trkpt lat="36.8581240" lon="-2.9624500">
        <ele>299.8</ele>
        <time>2021-03-02T10:12:31Z</time>
      </trkpt>
      <trkpt lat="36.8580750" lon="-2.9624120">
        <ele>299.8</ele>
        <time>2021-03-02T10:12:32Z</time>
      </trkpt>
      <trkpt lat="36.8580270" lon="-2.9623710">
        <ele>299.8</ele>
        <time>2021-03-02T10:12:33Z</time>
      </trkpt>
      <trkpt lat="36.8579790" lon="-2.9623280">
        <ele>299.6</ele>
        <time>2021-03-02T10:12:34Z</time>
      </trkpt>
      <trkpt lat="36.8579330" lon="-2.9622850">
        <ele>299.6</ele>
        <time>2021-03-02T10:12:35Z</time>
      </trkpt>
      <trkpt lat="36.8578870" lon="-2.9622410">
        <ele>299.8</ele>
        <time>2021-03-02T10:12:36Z</time>
      </trkpt>
      <trkpt lat="36.8578420" lon="-2.9621970">
        <ele>300.0</ele>
        <time>2021-03-02T10:12:37Z</time>
      </trkpt>
      <trkpt lat="36.8577970" lon="-2.9621550">
        <ele>300.0</ele>
        <time>2021-03-02T10:12:38Z</time>
      </trkpt>
      <trkpt lat="36.8577530" lon="-2.9621140">
        <ele>300.0</ele>
        <time>2021-03-02T10:12:39Z</time>
      </trkpt>
      <trkpt lat="36.8577090" lon="-2.9620720">
        <ele>300.0</ele>
        <time>2021-03-02T10:12:40Z</time>
      </trkpt>
      <trkpt lat="36.8576680" lon="-2.9620270">
        <ele>300.2</ele>
        <time>2021-03-02T10:12:41Z</time>
      </trkpt>
      <trkpt lat="36.8576250" lon="-2.9619830">
        <ele>300.2</ele>
        <time>2021-03-02T10:12:42Z</time>
      </trkpt>
      <trkpt lat="36.8575810" lon="-2.9619390">
        <ele>300.4</ele>
        <time>2021-03-02T10:12:43Z</time>
      </trkpt>
      <trkpt lat="36.8575380" lon="-2.9618960">
        <ele>300.4</ele>
        <time>2021-03-02T10:12:44Z</time>
      </trkpt>
      <trkpt lat="36.8574950" lon="-2.9618540">
        <ele>300.4</ele>
        <time>2021-03-02T10:12:45Z</time>
      </trkpt>
      <trkpt lat="36.8574520" lon="-2.9618120">
        <ele>300.6</ele>
        <time>2021-03-02T10:12:46Z</time>
      </trkpt>
      <trkpt lat="36.8574100" lon="-2.9617720">
        <ele>300.8</ele>
        <time>2021-03-02T10:12:47Z</time>
      </trkpt>
      <trkpt lat="36.8573660" lon="-2.9617330">
        <ele>301.0</ele>
        <time>2021-03-02T10:12:48Z</time>
      </trkpt>
      <trkpt lat="36.8573210" lon="-2.9616950">
        <ele>301.0</ele>
        <time>2021-03-02T10:12:49Z</time>
      </trkpt>
      <trkpt lat="36.8572740" lon="-2.9616590">
        <ele>301.2</ele>
        <time>2021-03-02T10:12:50Z</time>
      </trkpt>
      <trkpt lat="36.8572270" lon="-2.9616250">
        <ele>301.2</ele>
        <time>2021-03-02T10:12:51Z</time>
      </trkpt>
      <trkpt lat="36.8571790" lon="-2.9615930">
        <ele>301.4</ele>
        <time>2021-03-02T10:12:52Z</time>
      </trkpt>
      <trkpt lat="36.8571300" lon="-2.9615630">
        <ele>301.6</ele>
        <time>2021-03-02T10:12:53Z</time>
      </trkpt>
      <trkpt lat="36.8570800" lon="-2.9615360">
        <ele>301.6</ele>
        <time>2021-03-02T10:12:54Z</time>
      </trkpt>
      <trkpt lat="36.8570300" lon="-2.9615140">
        <ele>301.8</ele>
        <time>2021-03-02T10:12:55Z</time>
      </trkpt>
      <trkpt lat="36.8569800" lon="-2.9614990">
        <ele>301.8</ele>
        <time>2021-03-02T10:12:56Z</time>
      </trkpt>
      <trkpt lat="36.8569300" lon="-2.9614900">
        <ele>302.0</ele>
        <time>2021-03-02T10:12:57Z</time>
      </trkpt>
      <trkpt lat="36.8568790" lon="-2.9614860">
        <ele>302.0</ele>
        <time>2021-03-02T10:12:58Z</time>
      </trkpt>
      <trkpt lat="36.8568290" lon="-2.9614850">
        <ele>302.4</ele>
        <time>2021-03-02T10:12:59Z</time>
      </trkpt>
      <trkpt lat="36.8567790" lon="-2.9614870">
        <ele>302.6</ele>
        <time>2021-03-02T10:13:00Z</time>
      </trkpt>
      <trkpt lat="36.8567280" lon="-2.9614850">
        <ele>302.6</ele>
        <time>2021-03-02T10:13:01Z</time>
      </trkpt>
      <trkpt lat="36.8566770" lon="-2.9614800">
        <ele>302.8</ele>
        <time>2021-03-02T10:13:02Z</time>
      </trkpt>
      <trkpt lat="36.8566260" lon="-2.9614710">
        <ele>302.8</ele>
        <time>2021-03-02T10:13:03Z</time>
      </trkpt>
      <trkpt lat="36.8565760" lon="-2.9614580">
        <ele>303.0</ele>
        <time>2021-03-02T10:13:04Z</time>
      </trkpt>
      <trkpt lat="36.8565250" lon="-2.9614430">
        <ele>303.0</ele>
        <time>2021-03-02T10:13:05Z</time>
      </trkpt>
      <trkpt lat="36.8564760" lon="-2.9614260">
        <ele>303.0</ele>
        <time>2021-03-02T10:13:06Z</time>
      </trkpt>
      <trkpt lat="36.8564270" lon="-2.9614080">
        <ele>303.2</ele>
        <time>2021-03-02T10:13:07Z</time>
      </trkpt>
      <trkpt lat="36.8563790" lon="-2.9613900">
        <ele>303.2</ele>
        <time>2021-03-02T10:13:08Z</time>
      </trkpt>
      <trkpt lat="36.8563320" lon="-2.9613710">
        <ele>303.4</ele>
        <time>2021-03-02T10:13:09Z</time>
      </trkpt>
      <trkpt lat="36.8562860" lon="-2.9613480">
        <ele>303.6</ele>
        <time>2021-03-02T10:13:10Z</time>
      </trkpt>
      <trkpt lat="36.8562410" lon="-2.9613230">
        <ele>303.8</ele>
        <time>2021-03-02T10:13:11Z</time>
      </trkpt>
      <trkpt lat="36.8561960" lon="-2.9612960">
        <ele>303.8</ele>
        <time>2021-03-02T10:13:12Z</time>
      </trkpt>
      <trkpt lat="36.8561520" lon="-2.9612700">
        <ele>304.0</ele>
        <time>2021-03-02T10:13:13Z</time>
      </trkpt>
      <trkpt lat="36.8561090" lon="-2.9612440">
        <ele>304.0</ele>
        <time>2021-03-02T10:13:14Z</time>
      </trkpt>
      <trkpt lat="36.8560640" lon="-2.9612200">
        <ele>304.0</ele>
        <time>2021-03-02T10:13:15Z</time>
      </trkpt>
      <trkpt lat="36.8560190" lon="-2.9611980">
        <ele>304.2</ele>
        <time>2021-03-02T10:13:16Z</time>
      </trkpt>
      <trkpt lat="36.8559710" lon="-2.9611800">
        <ele>304.2</ele>
        <time>2021-03-02T10:13:17Z</time>
      </trkpt>
      <trkpt lat="36.8559210" lon="-2.9611660">
        <ele>304.2</ele>
        <time>2021-03-02T10:13:18Z</time>
      </trkpt>
      <trkpt lat="36.8558710" lon="-2.9611560">
        <ele>304.4</ele>
        <time>2021-03-02T10:13:19Z</time>
      </trkpt>
      <trkpt lat="36.8558220" lon="-2.9611490">
        <ele>304.6</ele>
        <time>2021-03-02T10:13:20Z</time>
      </trkpt>
      <trkpt lat="36.8557710" lon="-2.9611450">
        <ele>304.8</ele>
        <time>2021-03-02T10:13:21Z</time>
      </trkpt>
      <trkpt lat="36.8557220" lon="-2.9611420">
        <ele>304.8</ele>
        <time>2021-03-02T10:13:22Z</time>
      </trkpt>
      <trkpt lat="36.8556730" lon="-2.9611370">
        <ele>305.0</ele>
        <time>2021-03-02T10:13:23Z</time>
      </trkpt>
      <trkpt lat="36.8556260" lon="-2.9611310">
        <ele>305.0</ele>
        <time>2021-03-02T10:13:24Z</time>
      </trkpt>
      <trkpt lat="36.8555780" lon="-2.9611220">
        <ele>305.2</ele>
        <time>2021-03-02T10:13:25Z</time>
      </trkpt>
      <trkpt lat="36.8555320" lon="-2.9611140">
        <ele>305.4</ele>
        <time>2021-03-02T10:13:26Z</time>
      </trkpt>
      <trkpt lat="36.8554870" lon="-2.9611050">
        <ele>305.6</ele>
        <time>2021-03-02T10:13:27Z</time>
      </trkpt>
      <trkpt lat="36.8554420" lon="-2.9610930">
        <ele>305.8</ele>
        <time>2021-03-02T10:13:28Z</time>
      </trkpt>
      <trkpt lat="36.8553980" lon="-2.9610800">
        <ele>305.8</ele>
        <time>2021-03-02T10:13:29Z</time>
      </trkpt>
      <trkpt lat="36.8553520" lon="-2.9610670">
        <ele>306.2</ele>
        <time>2021-03-02T10:13:30Z</time>
      </trkpt>
      <trkpt lat="36.8553060" lon="-2.9610520">
        <ele>306.4</ele>
        <time>2021-03-02T10:13:31Z</time>
      </trkpt>
      <trkpt lat="36.8552620" lon="-2.9610360">
        <ele>306.4</ele>
        <time>2021-03-02T10:13:32Z</time>
      </trkpt>
      <trkpt lat="36.8552170" lon="-2.9610180">
        <ele>306.6</ele>
        <time>2021-03-02T10:13:33Z</time>
      </trkpt>
      <trkpt lat="36.8551720" lon="-2.9610000">
        <ele>306.6</ele>
        <time>2021-03-02T10:13:34Z</time>
      </trkpt>
      <trkpt lat="36.8551280" lon="-2.9609820">
        <ele>306.8</ele>
        <time>2021-03-02T10:13:35Z</time>
      </trkpt>
      <trkpt lat="36.8550840" lon="-2.9609640">
        <ele>306.8</ele>
        <time>2021-03-02T10:13:36Z</time>
      </trkpt>
      <trkpt lat="36.8550400" lon="-2.9609450">
        <ele>307.0</ele>
        <time>2021-03-02T10:13:37Z</time>
      </trkpt>
      <trkpt lat="36.8549960" lon="-2.9609280">
        <ele>307.2</ele>
        <time>2021-03-02T10:13:38Z</time>
      </trkpt>
      <trkpt lat="36.8549520" lon="-2.9609100">
        <ele>307.2</ele>
        <time>2021-03-02T10:13:39Z</time>
      </trkpt>
      <trkpt lat="36.8549100" lon="-2.9608940">
        <ele>307.4</ele>
        <time>2021-03-02T10:13:40Z</time>
      </trkpt>
      <trkpt lat="36.8548680" lon="-2.9608810">
        <ele>307.4</ele>
        <time>2021-03-02T10:13:41Z</time>
      </trkpt>
      <trkpt lat="36.8548230" lon="-2.9608700">
        <ele>307.4</ele>
        <time>2021-03-02T10:13:42Z</time>
      </trkpt>
      <trkpt lat="36.8547820" lon="-2.9608580">
        <ele>307.6</ele>
        <time>2021-03-02T10:13:43Z</time>
      </trkpt>
      <trkpt lat="36.8547390" lon="-2.9608460">
        <ele>307.8</ele>
        <time>2021-03-02T10:13:44Z</time>
      </trkpt>
      <trkpt lat="36.8546960" lon="-2.9608360">
        <ele>308.0</ele>
        <time>2021-03-02T10:13:45Z</time>
      </trkpt>
      <trkpt lat="36.8546540" lon="-2.9608260">
        <ele>308.0</ele>
        <time>2021-03-02T10:13:46Z</time>
      </trkpt>
      <trkpt lat="36.8546120" lon="-2.9608180">
        <ele>308.2</ele>
        <time>2021-03-02T10:13:47Z</time>
      </trkpt>
      <trkpt lat="36.8545690" lon="-2.9608110">
        <ele>308.2</ele>
        <time>2021-03-02T10:13:48Z</time>
      </trkpt>
      <trkpt lat="36.8545270" lon="-2.9608040">
        <ele>308.2</ele>
        <time>2021-03-02T10:13:49Z</time>
      </trkpt>
      <trkpt lat="36.8544870" lon="-2.9607970">
        <ele>308.4</ele>
        <time>2021-03-02T10:13:50Z</time>
      </trkpt>
      <trkpt lat="36.8544480" lon="-2.9607900">
        <ele>308.6</ele>
        <time>2021-03-02T10:13:51Z</time>
      </trkpt>
      <trkpt lat="36.8544100" lon="-2.9607840">
        <ele>309.0</ele>
        <time>2021-03-02T10:13:52Z</time>
      </trkpt>
      <trkpt lat="36.8543710" lon="-2.9607740">
        <ele>309.0</ele>
        <time>2021-03-02T10:13:53Z</time>
      </trkpt>
      <trkpt lat="36.8543360" lon="-2.9607530">
        <ele>309.4</ele>
        <time>2021-03-02T10:13:54Z</time>
      </trkpt>
      <trkpt lat="36.8543030" lon="-2.9607240">
        <ele>309.4</ele>
        <time>2021-03-02T10:13:55Z</time>
      </trkpt>
      <trkpt lat="36.8542720" lon="-2.9606900">
        <ele>309.6</ele>
        <time>2021-03-02T10:13:56Z</time>
      </trkpt>
      <trkpt lat="36.8542450" lon="-2.9606520">
        <ele>309.8</ele>
        <time>2021-03-02T10:13:57Z</time>
      </trkpt>
      <trkpt lat="36.8542180" lon="-2.9606130">
        <ele>309.8</ele>
        <time>2021-03-02T10:13:58Z</time>
      </trkpt>
      <trkpt lat="36.8541930" lon="-2.9605730">
        <ele>310.0</ele>
        <time>2021-03-02T10:13:59Z</time>
      </trkpt>
      <trkpt lat="36.8541690" lon="-2.9605320">
        <ele>310.2</ele>
        <time>2021-03-02T10:14:00Z</time>
      </trkpt>
      <trkpt lat="36.8541460" lon="-2.9604900">
        <ele>310.2</ele>
        <time>2021-03-02T10:14:01Z</time>
      </trkpt>
      <trkpt lat="36.8541240" lon="-2.9604460">
        <ele>310.4</ele>
        <time>2021-03-02T10:14:02Z</time>
      </trkpt>
      <trkpt lat="36.8541020" lon="-2.9604050">
        <ele>310.4</ele>
        <time>2021-03-02T10:14:03Z</time>
      </trkpt>
      <trkpt lat="36.8540800" lon="-2.9603650">
        <ele>310.6</ele>
        <time>2021-03-02T10:14:04Z</time>
      </trkpt>
      <trkpt lat="36.8540570" lon="-2.9603270">
        <ele>310.8</ele>
        <time>2021-03-02T10:14:05Z</time>
      </trkpt>
      <trkpt lat="36.8540320" lon="-2.9602890">
        <ele>310.8</ele>
        <time>2021-03-02T10:14:06Z</time>
      </trkpt>
      <trkpt lat="36.8540050" lon="-2.9602520">
        <ele>311.0</ele>
        <time>2021-03-02T10:14:07Z</time>
      </trkpt>
      <trkpt lat="36.8539750" lon="-2.9602200">
        <ele>311.2</ele>
        <time>2021-03-02T10:14:08Z</time>
      </trkpt>
      <trkpt lat="36.8539420" lon="-2.9601930">
        <ele>311.4</ele>
        <time>2021-03-02T10:14:09Z</time>
      </trkpt>
      <trkpt lat="36.8539070" lon="-2.9601720">
        <ele>311.4</ele>
        <time>2021-03-02T10:14:10Z</time>
      </trkpt>
      <trkpt lat="36.8538690" lon="-2.9601540">
        <ele>311.6</ele>
        <time>2021-03-02T10:14:11Z</time>
      </trkpt>
      <trkpt lat="36.8538310" lon="-2.9601380">
        <ele>311.6</ele>
        <time>2021-03-02T10:14:12Z</time>
      </trkpt>
      <trkpt lat="36.8537940" lon="-2.9601220">
        <ele>311.8</ele>
        <time>2021-03-02T10:14:13Z</time>
      </trkpt>
      <trkpt lat="36.8537570" lon="-2.9601060">
        <ele>312.0</ele>
        <time>2021-03-02T10:14:14Z</time>
      </trkpt>
      <trkpt lat="36.8537200" lon="-2.9600950">
        <ele>312.0</ele>
        <time>2021-03-02T10:14:15Z</time>
      </trkpt>
      <trkpt lat="36.8536830" lon="-2.9600840">
        <ele>312.2</ele>
        <time>2021-03-02T10:14:16Z</time>
      </trkpt>
      <trkpt lat="36.8536470" lon="-2.9600690">
        <ele>312.4</ele>
        <time>2021-03-02T10:14:17Z</time>
      </trkpt>
      <trkpt lat="36.8536100" lon="-2.9600520">
        <ele>312.6</ele>
        <time>2021-03-02T10:14:18Z</time>
      </trkpt>
      <trkpt lat="36.8535750" lon="-2.9600350">
        <ele>312.8</ele>
        <time>2021-03-02T10:14:19Z</time>
      </trkpt>
      <trkpt lat="36.8535410" lon="-2.9600160">
        <ele>313.0</ele>
        <time>2021-03-02T10:14:20Z</time>
      </trkpt>
      <trkpt lat="36.8535060" lon="-2.9599980">
        <ele>313.2</ele>
        <time>2021-03-02T10:14:21Z</time>
      </trkpt>
      <trkpt lat="36.8534710" lon="-2.9599790">
        <ele>313.4</ele>
        <time>2021-03-02T10:14:22Z</time>
      </trkpt>
      <trkpt lat="36.8534370" lon="-2.9599570">
        <ele>313.6</ele>
        <time>2021-03-02T10:14:23Z</time>
      </trkpt>
      <trkpt lat="36.8534050" lon="-2.9599350">
        <ele>313.8</ele>
        <time>2021-03-02T10:14:24Z</time>
      </trkpt>
      <trkpt lat="36.8533740" lon="-2.9599110">
        <ele>314.0</ele>
        <time>2021-03-02T10:14:25Z</time>
      </trkpt>
      <trkpt lat="36.8533430" lon="-2.9598860">
        <ele>314.0</ele>
        <time>2021-03-02T10:14:26Z</time>
      </trkpt>
      <trkpt lat="36.8533080" lon="-2.9598620">
        <ele>314.4</ele>
        <time>2021-03-02T10:14:27Z</time>
      </trkpt>
      <trkpt lat="36.8532740" lon="-2.9598380">
        <ele>314.4</ele>
        <time>2021-03-02T10:14:28Z</time>
      </trkpt>
      <trkpt lat="36.8532390" lon="-2.9598140">
        <ele>314.6</ele>
        <time>2021-03-02T10:14:29Z</time>
      </trkpt>
      <trkpt lat="36.8532030" lon="-2.9597900">
        <ele>314.8</ele>
        <time>2021-03-02T10:14:30Z</time>
      </trkpt>
      <trkpt lat="36.8531680" lon="-2.9597650">
        <ele>315.0</ele>
        <time>2021-03-02T10:14:31Z</time>
      </trkpt>
      <trkpt lat="36.8531330" lon="-2.9597400">
        <ele>315.2</ele>
        <time>2021-03-02T10:14:32Z</time>
      </trkpt>
      <trkpt lat="36.8530970" lon="-2.9597160">
        <ele>315.2</ele>
        <time>2021-03-02T10:14:33Z</time>
      </trkpt>
      <trkpt lat="36.8530620" lon="-2.9596900">
        <ele>315.4</ele>
        <time>2021-03-02T10:14:34Z</time>
      </trkpt>
      <trkpt lat="36.8530290" lon="-2.9596660">
        <ele>315.6</ele>
        <time>2021-03-02T10:14:35Z</time>
      </trkpt>
      <trkpt lat="36.8529930" lon="-2.9596400">
        <ele>316.2</ele>
        <time>2021-03-02T10:14:36Z</time>
      </trkpt>
      <trkpt lat="36.8529580" lon="-2.9596150">
        <ele>316.6</ele>
        <time>2021-03-02T10:14:37Z</time>
      </trkpt>
      <trkpt lat="36.8529210" lon="-2.9595880">
        <ele>316.6</ele>
        <time>2021-03-02T10:14:38Z</time>
      </trkpt>
      <trkpt lat="36.8528860" lon="-2.9595620">
        <ele>317.0</ele>
        <time>2021-03-02T10:14:39Z</time>
      </trkpt>
      <trkpt lat="36.8528550" lon="-2.9595350">
        <ele>317.2</ele>
        <time>2021-03-02T10:14:40Z</time>
      </trkpt>
      <trkpt lat="36.8528250" lon="-2.9595100">
        <ele>317.4</ele>
        <time>2021-03-02T10:14:41Z</time>
      </trkpt>
      <trkpt lat="36.8527950" lon="-2.9594860">
        <ele>317.6</ele>
        <time>2021-03-02T10:14:42Z</time>
      </trkpt>
      <trkpt lat="36.8527670" lon="-2.9594620">
        <ele>318.0</ele>
        <time>2021-03-02T10:14:43Z</time>
      </trkpt>
      <trkpt lat="36.8527390" lon="-2.9594390">
        <ele>318.4</ele>
        <time>2021-03-02T10:14:44Z</time>
      </trkpt>
      <trkpt lat="36.8527110" lon="-2.9594140">
        <ele>318.6</ele>
        <time>2021-03-02T10:14:45Z</time>
      </trkpt>
      <trkpt lat="36.8526850" lon="-2.9593910">
        <ele>318.8</ele>
        <time>2021-03-02T10:14:46Z</time>
      </trkpt>
      <trkpt lat="36.8526580" lon="-2.9593670">
        <ele>319.0</ele>
        <time>2021-03-02T10:14:47Z</time>
      </trkpt>
      <trkpt lat="36.8526300" lon="-2.9593430">
        <ele>319.2</ele>
        <time>2021-03-02T10:14:48Z</time>
      </trkpt>
      <trkpt lat="36.8526020" lon="-2.9593190">
        <ele>319.6</ele>
        <time>2021-03-02T10:14:49Z</time>
      </trkpt>
      <trkpt lat="36.8525750" lon="-2.9592950">
        <ele>319.6</ele>
        <time>2021-03-02T10:14:50Z</time>
      </trkpt>
      <trkpt lat="36.8525490" lon="-2.9592730">
        <ele>320.0</ele>
        <time>2021-03-02T10:14:51Z</time>
      </trkpt>
      <trkpt lat="36.8525230" lon="-2.9592520">
        <ele>320.2</ele>
        <time>2021-03-02T10:14:52Z</time>
      </trkpt>
      <trkpt lat="36.8524990" lon="-2.9592310">
        <ele>320.4</ele>
        <time>2021-03-02T10:14:53Z</time>
      </trkpt>
      <trkpt lat="36.8524760" lon="-2.9592110">
        <ele>320.4</ele>
        <time>2021-03-02T10:14:54Z</time>
      </trkpt>
      <trkpt lat="36.8524540" lon="-2.9591890">
        <ele>320.8</ele>
        <time>2021-03-02T10:14:55Z</time>
      </trkpt>
      <trkpt lat="36.8524320" lon="-2.9591670">
        <ele>321.0</ele>
        <time>2021-03-02T10:14:56Z</time>
      </trkpt>
      <trkpt lat="36.8524100" lon="-2.9591470">
        <ele>321.0</ele>
        <time>2021-03-02T10:14:57Z</time>
      </trkpt>
      <trkpt lat="36.8523860" lon="-2.9591270">
        <ele>321.2</ele>
        <time>2021-03-02T10:14:58Z</time>
      </trkpt>
      <trkpt lat="36.8523600" lon="-2.9591070">
        <ele>321.4</ele>
        <time>2021-03-02T10:14:59Z</time>
      </trkpt>
      <trkpt lat="36.8523350" lon="-2.9590870">
        <ele>321.6</ele>
        <time>2021-03-02T10:15:00Z</time>
      </trkpt>
      <trkpt lat="36.8523100" lon="-2.9590660">
        <ele>321.6</ele>
        <time>2021-03-02T10:15:01Z</time>
      </trkpt>
      <trkpt lat="36.8522860" lon="-2.9590410">
        <ele>322.0</ele>
        <time>2021-03-02T10:15:02Z</time>
      </trkpt>
      <trkpt lat="36.8522640" lon="-2.9590170">
        <ele>322.2</ele>
        <time>2021-03-02T10:15:03Z</time>
      </trkpt>
      <trkpt lat="36.8522410" lon="-2.9589950">
        <ele>322.2</ele>
        <time>2021-03-02T10:15:04Z</time>
      </trkpt>
      <trkpt lat="36.8522180" lon="-2.9589730">
        <ele>322.6</ele>
        <time>2021-03-02T10:15:05Z</time>
      </trkpt>
      <trkpt lat="36.8521940" lon="-2.9589500">
        <ele>322.6</ele>
        <time>2021-03-02T10:15:06Z</time>
      </trkpt>
      <trkpt lat="36.8521720" lon="-2.9589280">
        <ele>322.8</ele>
        <time>2021-03-02T10:15:07Z</time>
      </trkpt>
      <trkpt lat="36.8521490" lon="-2.9589010">
        <ele>323.0</ele>
        <time>2021-03-02T10:15:08Z</time>
      </trkpt>
      <trkpt lat="36.8521250" lon="-2.9588740">
        <ele>323.2</ele>
        <time>2021-03-02T10:15:09Z</time>
      </trkpt>
      <trkpt lat="36.8521010" lon="-2.9588450">
        <ele>323.4</ele>
        <time>2021-03-02T10:15:10Z</time>
      </trkpt>
      <trkpt lat="36.8520770" lon="-2.9588150">
        <ele>323.6</ele>
        <time>2021-03-02T10:15:11Z</time>
      </trkpt>
      <trkpt lat="36.8520540" lon="-2.9587840">
        <ele>323.8</ele>
        <time>2021-03-02T10:15:12Z</time>
      </trkpt>
      <trkpt lat="36.8520310" lon="-2.9587510">
        <ele>323.8</ele>
        <time>2021-03-02T10:15:13Z</time>
      </trkpt>
      <trkpt lat="36.8520080" lon="-2.9587170">
        <ele>324.0</ele>
        <time>2021-03-02T10:15:14Z</time>
      </trkpt>
      <trkpt lat="36.8519850" lon="-2.9586840">
        <ele>324.2</ele>
        <time>2021-03-02T10:15:15Z</time>
      </trkpt>
      <trkpt lat="36.8519630" lon="-2.9586490">
        <ele>324.4</ele>
        <time>2021-03-02T10:15:16Z</time>
      </trkpt>
      <trkpt lat="36.8519400" lon="-2.9586140">
        <ele>324.4</ele>
        <time>2021-03-02T10:15:17Z</time>
      </trkpt>
      <trkpt lat="36.8519190" lon="-2.9585820">
        <ele>324.6</ele>
        <time>2021-03-02T10:15:18Z</time>
      </trkpt>
      <trkpt lat="36.8518980" lon="-2.9585490">
        <ele>324.8</ele>
        <time>2021-03-02T10:15:19Z</time>
      </trkpt>
      <trkpt lat="36.8518770" lon="-2.9585160">
        <ele>325.0</ele>
        <time>2021-03-02T10:15:20Z</time>
      </trkpt>
      <trkpt lat="36.8518560" lon="-2.9584840">
        <ele>325.2</ele>
        <time>2021-03-02T10:15:21Z</time>
      </trkpt>
      <trkpt lat="36.8518370" lon="-2.9584520">
        <ele>325.4</ele>
        <time>2021-03-02T10:15:22Z</time>
      </trkpt>
      <trkpt lat="36.8518180" lon="-2.9584190">
        <ele>325.6</ele>
        <time>2021-03-02T10:15:23Z</time>
      </trkpt>
      <trkpt lat="36.8517990" lon="-2.9583860">
        <ele>325.8</ele>
        <time>2021-03-02T10:15:24Z</time>
      </trkpt>
      <trkpt lat="36.8517820" lon="-2.9583530">
        <ele>326.0</ele>
        <time>2021-03-02T10:15:25Z</time>
      </trkpt>
      <trkpt lat="36.8517660" lon="-2.9583190">
        <ele>326.2</ele>
        <time>2021-03-02T10:15:26Z</time>
      </trkpt>
      <trkpt lat="36.8517500" lon="-2.9582860">
        <ele>326.4</ele>
        <time>2021-03-02T10:15:27Z</time>
      </trkpt>
      <trkpt lat="36.8517340" lon="-2.9582530">
        <ele>326.6</ele>
        <time>2021-03-02T10:15:28Z</time>
      </trkpt>
      <trkpt lat="36.8517210" lon="-2.9582190">
        <ele>326.8</ele>
        <time>2021-03-02T10:15:29Z</time>
      </trkpt>
      <trkpt lat="36.8517090" lon="-2.9581840">
        <ele>326.8</ele>
        <time>2021-03-02T10:15:30Z</time>
      </trkpt>
      <trkpt lat="36.8516970" lon="-2.9581480">
        <ele>327.2</ele>
        <time>2021-03-02T10:15:31Z</time>
      </trkpt>
      <trkpt lat="36.8516860" lon="-2.9581140">
        <ele>327.4</ele>
        <time>2021-03-02T10:15:32Z</time>
      </trkpt>
      <trkpt lat="36.8516750" lon="-2.9580790">
        <ele>327.6</ele>
        <time>2021-03-02T10:15:33Z</time>
      </trkpt>
      <trkpt lat="36.8516660" lon="-2.9580440">
        <ele>327.8</ele>
        <time>2021-03-02T10:15:34Z</time>
      </trkpt>
      <trkpt lat="36.8516580" lon="-2.9580080">
        <ele>328.0</ele>
        <time>2021-03-02T10:15:35Z</time>
      </trkpt>
      <trkpt lat="36.8516510" lon="-2.9579720">
        <ele>328.2</ele>
        <time>2021-03-02T10:15:36Z</time>
      </trkpt>
      <trkpt lat="36.8516450" lon="-2.9579340">
        <ele>328.4</ele>
        <time>2021-03-02T10:15:37Z</time>
      </trkpt>
      <trkpt lat="36.8516390" lon="-2.9578980">
        <ele>328.6</ele>
        <time>2021-03-02T10:15:38Z</time>
      </trkpt>
      <trkpt lat="36.8516330" lon="-2.9578610">
        <ele>328.8</ele>
        <time>2021-03-02T10:15:39Z</time>
      </trkpt>
      <trkpt lat="36.8516270" lon="-2.9578250">
        <ele>328.8</ele>
        <time>2021-03-02T10:15:40Z</time>
      </trkpt>
      <trkpt lat="36.8516220" lon="-2.9577880">
        <ele>329.0</ele>
        <time>2021-03-02T10:15:41Z</time>
      </trkpt>
      <trkpt lat="36.8516160" lon="-2.9577520">
        <ele>329.0</ele>
        <time>2021-03-02T10:15:42Z</time>
      </trkpt>
      <trkpt lat="36.8516100" lon="-2.9577160">
        <ele>329.2</ele>
        <time>2021-03-02T10:15:43Z</time>
      </trkpt>
      <trkpt lat="36.8516050" lon="-2.9576810">
        <ele>329.2</ele>
        <time>2021-03-02T10:15:44Z</time>
      </trkpt>
      <trkpt lat="36.8515990" lon="-2.9576450">
        <ele>329.4</ele>
        <time>2021-03-02T10:15:45Z</time>
      </trkpt>
      <trkpt lat="36.8515920" lon="-2.9576100">
        <ele>329.6</ele>
        <time>2021-03-02T10:15:46Z</time>
      </trkpt>
      <trkpt lat="36.8515850" lon="-2.9575740">
        <ele>329.8</ele>
        <time>2021-03-02T10:15:47Z</time>
      </trkpt>
      <trkpt lat="36.8515780" lon="-2.9575390">
        <ele>330.0</ele>
        <time>2021-03-02T10:15:48Z</time>
      </trkpt>
      <trkpt lat="36.8515710" lon="-2.9575020">
        <ele>330.2</ele>
        <time>2021-03-02T10:15:49Z</time>
      </trkpt>
      <trkpt lat="36.8515650" lon="-2.9574660">
        <ele>330.6</ele>
        <time>2021-03-02T10:15:50Z</time>
      </trkpt>
      <trkpt lat="36.8515570" lon="-2.9574310">
        <ele>330.8</ele>
        <time>2021-03-02T10:15:51Z</time>
      </trkpt>
      <trkpt lat="36.8515490" lon="-2.9573960">
        <ele>331.0</ele>
        <time>2021-03-02T10:15:52Z</time>
      </trkpt>
      <trkpt lat="36.8515400" lon="-2.9573610">
        <ele>331.2</ele>
        <time>2021-03-02T10:15:53Z</time>
      </trkpt>
      <trkpt lat="36.8515300" lon="-2.9573260">
        <ele>331.4</ele>
        <time>2021-03-02T10:15:54Z</time>
      </trkpt>
      <trkpt lat="36.8515190" lon="-2.9572920">
        <ele>331.6</ele>
        <time>2021-03-02T10:15:55Z</time>
      </trkpt>
      <trkpt lat="36.8515070" lon="-2.9572590">
        <ele>331.8</ele>
        <time>2021-03-02T10:15:56Z</time>
      </trkpt>
      <trkpt lat="36.8514940" lon="-2.9572280">
        <ele>332.2</ele>
        <time>2021-03-02T10:15:57Z</time>
      </trkpt>
      <trkpt lat="36.8514840" lon="-2.9571960">
        <ele>332.4</ele>
        <time>2021-03-02T10:15:58Z</time>
      </trkpt>
      <trkpt lat="36.8514720" lon="-2.9571650">
        <ele>333.2</ele>
        <time>2021-03-02T10:15:59Z</time>
      </trkpt>
      <trkpt lat="36.8514590" lon="-2.9571360">
        <ele>333.4</ele>
        <time>2021-03-02T10:16:00Z</time>
      </trkpt>
      <trkpt lat="36.8514480" lon="-2.9571060">
        <ele>333.4</ele>
        <time>2021-03-02T10:16:01Z</time>
      </trkpt>
      <trkpt lat="36.8514380" lon="-2.9570760">
        <ele>333.4</ele>
        <time>2021-03-02T10:16:02Z</time>
      </trkpt>
      <trkpt lat="36.8514270" lon="-2.9570460">
        <ele>333.4</ele>
        <time>2021-03-02T10:16:03Z</time>
      </trkpt>
      <trkpt lat="36.8514130" lon="-2.9570160">
        <ele>333.4</ele>
        <time>2021-03-02T10:16:04Z</time>
      </trkpt>
      <trkpt lat="36.8513970" lon="-2.9569860">
        <ele>333.6</ele>
        <time>2021-03-02T10:16:05Z</time>
      </trkpt>
      <trkpt lat="36.8513780" lon="-2.9569530">
        <ele>333.6</ele>
        <time>2021-03-02T10:16:06Z</time>
      </trkpt>
      <trkpt lat="36.8513540" lon="-2.9569130">
        <ele>333.6</ele>
        <time>2021-03-02T10:16:07Z</time>
      </trkpt>
      <trkpt lat="36.8513300" lon="-2.9568700">
        <ele>333.6</ele>
        <time>2021-03-02T10:16:08Z</time>
      </trkpt>
      <trkpt lat="36.8513070" lon="-2.9568250">
        <ele>333.6</ele>
        <time>2021-03-02T10:16:09Z</time>
      </trkpt>
      <trkpt lat="36.8512840" lon="-2.9567820">
        <ele>333.4</ele>
        <time>2021-03-02T10:16:10Z</time>
      </trkpt>
      <trkpt lat="36.8512620" lon="-2.9567430">
        <ele>333.4</ele>
        <time>2021-03-02T10:16:11Z</time>
      </trkpt>
      <trkpt lat="36.8512410" lon="-2.9567070">
        <ele>333.4</ele>
        <time>2021-03-02T10:16:12Z</time>
      </trkpt>
      <trkpt lat="36.8512230" lon="-2.9566750">
        <ele>333.6</ele>
        <time>2021-03-02T10:16:13Z</time>
      </trkpt>
      <trkpt lat="36.8512060" lon="-2.9566470">
        <ele>334.0</ele>
        <time>2021-03-02T10:16:14Z</time>
      </trkpt>
      <trkpt lat="36.8511890" lon="-2.9566200">
        <ele>334.2</ele>
        <time>2021-03-02T10:16:15Z</time>
      </trkpt>
      <trkpt lat="36.8511710" lon="-2.9565940">
        <ele>334.8</ele>
        <time>2021-03-02T10:16:16Z</time>
      </trkpt>
      <trkpt lat="36.8511530" lon="-2.9565710">
        <ele>335.0</ele>
        <time>2021-03-02T10:16:17Z</time>
      </trkpt>
      <trkpt lat="36.8511330" lon="-2.9565500">
        <ele>335.2</ele>
        <time>2021-03-02T10:16:18Z</time>
      </trkpt>
      <trkpt lat="36.8511160" lon="-2.9565250">
        <ele>335.4</ele>
        <time>2021-03-02T10:16:19Z</time>
      </trkpt>
      <trkpt lat="36.8511010" lon="-2.9565010">
        <ele>335.6</ele>
        <time>2021-03-02T10:16:20Z</time>
      </trkpt>
      <trkpt lat="36.8510850" lon="-2.9564780">
        <ele>335.8</ele>
        <time>2021-03-02T10:16:21Z</time>
      </trkpt>
      <trkpt lat="36.8510720" lon="-2.9564530">
        <ele>336.0</ele>
        <time>2021-03-02T10:16:22Z</time>
      </trkpt>
      <trkpt lat="36.8510600" lon="-2.9564260">
        <ele>336.4</ele>
        <time>2021-03-02T10:16:23Z</time>
      </trkpt>
      <trkpt lat="36.8510480" lon="-2.9564010">
        <ele>336.6</ele>
        <time>2021-03-02T10:16:24Z</time>
      </trkpt>
      <trkpt lat="36.8510370" lon="-2.9563730">
        <ele>337.2</ele>
        <time>2021-03-02T10:16:25Z</time>
      </trkpt>
      <trkpt lat="36.8510250" lon="-2.9563460">
        <ele>337.4</ele>
        <time>2021-03-02T10:16:26Z</time>
      </trkpt>
      <trkpt lat="36.8510120" lon="-2.9563170">
        <ele>337.4</ele>
        <time>2021-03-02T10:16:27Z</time>
      </trkpt>
      <trkpt lat="36.8509980" lon="-2.9562880">
        <ele>337.4</ele>
        <time>2021-03-02T10:16:28Z</time>
      </trkpt>
      <trkpt lat="36.8509840" lon="-2.9562590">
        <ele>337.4</ele>
        <time>2021-03-02T10:16:29Z</time>
      </trkpt>
      <trkpt lat="36.8509690" lon="-2.9562280">
        <ele>337.4</ele>
        <time>2021-03-02T10:16:30Z</time>
      </trkpt>
      <trkpt lat="36.8509530" lon="-2.9561960">
        <ele>337.6</ele>
        <time>2021-03-02T10:16:31Z</time>
      </trkpt>
      <trkpt lat="36.8509370" lon="-2.9561620">
        <ele>337.6</ele>
        <time>2021-03-02T10:16:32Z</time>
      </trkpt>
      <trkpt lat="36.8509220" lon="-2.9561260">
        <ele>337.6</ele>
        <time>2021-03-02T10:16:33Z</time>
      </trkpt>
      <trkpt lat="36.8509080" lon="-2.9560880">
        <ele>337.6</ele>
        <time>2021-03-02T10:16:34Z</time>
      </trkpt>
      <trkpt lat="36.8508950" lon="-2.9560480">
        <ele>337.8</ele>
        <time>2021-03-02T10:16:35Z</time>
      </trkpt>
      <trkpt lat="36.8508830" lon="-2.9560090">
        <ele>337.8</ele>
        <time>2021-03-02T10:16:36Z</time>
      </trkpt>
      <trkpt lat="36.8508730" lon="-2.9559690">
        <ele>338.0</ele>
        <time>2021-03-02T10:16:37Z</time>
      </trkpt>
      <trkpt lat="36.8508650" lon="-2.9559280">
        <ele>338.0</ele>
        <time>2021-03-02T10:16:38Z</time>
      </trkpt>
      <trkpt lat="36.8508620" lon="-2.9558870">
        <ele>338.2</ele>
        <time>2021-03-02T10:16:39Z</time>
      </trkpt>
      <trkpt lat="36.8508580" lon="-2.9558450">
        <ele>338.4</ele>
        <time>2021-03-02T10:16:40Z</time>
      </trkpt>
      <trkpt lat="36.8508560" lon="-2.9558030">
        <ele>338.4</ele>
        <time>2021-03-02T10:16:41Z</time>
      </trkpt>
      <trkpt lat="36.8508560" lon="-2.9557630">
        <ele>338.6</ele>
        <time>2021-03-02T10:16:42Z</time>
      </trkpt>
      <trkpt lat="36.8508580" lon="-2.9557220">
        <ele>338.8</ele>
        <time>2021-03-02T10:16:43Z</time>
      </trkpt>
      <trkpt lat="36.8508600" lon="-2.9556820">
        <ele>338.8</ele>
        <time>2021-03-02T10:16:44Z</time>
      </trkpt>
      <trkpt lat="36.8508650" lon="-2.9556420">
        <ele>339.0</ele>
        <time>2021-03-02T10:16:45Z</time>
      </trkpt>
      <trkpt lat="36.8508710" lon="-2.9556020">
        <ele>339.0</ele>
        <time>2021-03-02T10:16:46Z</time>
      </trkpt>
      <trkpt lat="36.8508780" lon="-2.9555630">
        <ele>339.0</ele>
        <time>2021-03-02T10:16:47Z</time>
      </trkpt>
      <trkpt lat="36.8508850" lon="-2.9555230">
        <ele>339.2</ele>
        <time>2021-03-02T10:16:48Z</time>
      </trkpt>
      <trkpt lat="36.8508920" lon="-2.9554830">
        <ele>339.4</ele>
        <time>2021-03-02T10:16:49Z</time>
      </trkpt>
      <trkpt lat="36.8508990" lon="-2.9554440">
        <ele>339.6</ele>
        <time>2021-03-02T10:16:50Z</time>
      </trkpt>
      <trkpt lat="36.8509060" lon="-2.9554040">
        <ele>339.8</ele>
        <time>2021-03-02T10:16:51Z</time>
      </trkpt>
      <trkpt lat="36.8509120" lon="-2.9553650">
        <ele>340.2</ele>
        <time>2021-03-02T10:16:52Z</time>
      </trkpt>
      <trkpt lat="36.8509200" lon="-2.9553260">
        <ele>340.2</ele>
        <time>2021-03-02T10:16:53Z</time>
      </trkpt>
      <trkpt lat="36.8509280" lon="-2.9552870">
        <ele>340.6</ele>
        <time>2021-03-02T10:16:54Z</time>
      </trkpt>
      <trkpt lat="36.8509360" lon="-2.9552490">
        <ele>340.6</ele>
        <time>2021-03-02T10:16:55Z</time>
      </trkpt>
      <trkpt lat="36.8509440" lon="-2.9552110">
        <ele>340.8</ele>
        <time>2021-03-02T10:16:56Z</time>
      </trkpt>
      <trkpt lat="36.8509510" lon="-2.9551730">
        <ele>341.0</ele>
        <time>2021-03-02T10:16:57Z</time>
      </trkpt>
      <trkpt lat="36.8509560" lon="-2.9551350">
        <ele>341.2</ele>
        <time>2021-03-02T10:16:58Z</time>
      </trkpt>
      <trkpt lat="36.8509620" lon="-2.9550980">
        <ele>341.6</ele>
        <time>2021-03-02T10:16:59Z</time>
      </trkpt>
      <trkpt lat="36.8509680" lon="-2.9550610">
        <ele>341.8</ele>
        <time>2021-03-02T10:17:00Z</time>
      </trkpt>
      <trkpt lat="36.8509740" lon="-2.9550230">
        <ele>342.2</ele>
        <time>2021-03-02T10:17:01Z</time>
      </trkpt>
      <trkpt lat="36.8509790" lon="-2.9549860">
        <ele>342.2</ele>
        <time>2021-03-02T10:17:02Z</time>
      </trkpt>
      <trkpt lat="36.8509840" lon="-2.9549490">
        <ele>342.6</ele>
        <time>2021-03-02T10:17:03Z</time>
      </trkpt>
      <trkpt lat="36.8509890" lon="-2.9549110">
        <ele>342.8</ele>
        <time>2021-03-02T10:17:04Z</time>
      </trkpt>
      <trkpt lat="36.8509950" lon="-2.9548740">
        <ele>343.0</ele>
        <time>2021-03-02T10:17:05Z</time>
      </trkpt>
      <trkpt lat="36.8510000" lon="-2.9548370">
        <ele>343.2</ele>
        <time>2021-03-02T10:17:06Z</time>
      </trkpt>
      <trkpt lat="36.8510040" lon="-2.9547990">
        <ele>343.2</ele>
        <time>2021-03-02T10:17:07Z</time>
      </trkpt>
      <trkpt lat="36.8510090" lon="-2.9547620">
        <ele>343.4</ele>
        <time>2021-03-02T10:17:08Z</time>
      </trkpt>
      <trkpt lat="36.8510130" lon="-2.9547250">
        <ele>343.6</ele>
        <time>2021-03-02T10:17:09Z</time>
      </trkpt>
      <trkpt lat="36.8510170" lon="-2.9546870">
        <ele>343.8</ele>
        <time>2021-03-02T10:17:10Z</time>
      </trkpt>
      <trkpt lat="36.8510210" lon="-2.9546500">
        <ele>344.0</ele>
        <time>2021-03-02T10:17:11Z</time>
      </trkpt>
      <trkpt lat="36.8510260" lon="-2.9546130">
        <ele>344.2</ele>
        <time>2021-03-02T10:17:12Z</time>
      </trkpt>
      <trkpt lat="36.8510300" lon="-2.9545770">
        <ele>344.6</ele>
        <time>2021-03-02T10:17:13Z</time>
      </trkpt>
      <trkpt lat="36.8510350" lon="-2.9545410">
        <ele>344.6</ele>
        <time>2021-03-02T10:17:14Z</time>
      </trkpt>
      <trkpt lat="36.8510390" lon="-2.9545050">
        <ele>344.8</ele>
        <time>2021-03-02T10:17:15Z</time>
      </trkpt>
      <trkpt lat="36.8510430" lon="-2.9544680">
        <ele>345.0</ele>
        <time>2021-03-02T10:17:16Z</time>
      </trkpt>
      <trkpt lat="36.8510470" lon="-2.9544310">
        <ele>345.4</ele>
        <time>2021-03-02T10:17:17Z</time>
      </trkpt>
      <trkpt lat="36.8510500" lon="-2.9543940">
        <ele>345.6</ele>
        <time>2021-03-02T10:17:18Z</time>
      </trkpt>
      <trkpt lat="36.8510530" lon="-2.9543570">
        <ele>345.8</ele>
        <time>2021-03-02T10:17:19Z</time>
      </trkpt>
      <trkpt lat="36.8510560" lon="-2.9543200">
        <ele>346.0</ele>
        <time>2021-03-02T10:17:20Z</time>
      </trkpt>
      <trkpt lat="36.8510590" lon="-2.9542830">
        <ele>346.0</ele>
        <time>2021-03-02T10:17:21Z</time>
      </trkpt>
      <trkpt lat="36.8510630" lon="-2.9542470">
        <ele>346.2</ele>
        <time>2021-03-02T10:17:22Z</time>
      </trkpt>
      <trkpt lat="36.8510660" lon="-2.9542120">
        <ele>346.4</ele>
        <time>2021-03-02T10:17:23Z</time>
      </trkpt>
      <trkpt lat="36.8510700" lon="-2.9541780">
        <ele>346.8</ele>
        <time>2021-03-02T10:17:24Z</time>
      </trkpt>
      <trkpt lat="36.8510730" lon="-2.9541430">
        <ele>347.2</ele>
        <time>2021-03-02T10:17:25Z</time>
      </trkpt>
      <trkpt lat="36.8510770" lon="-2.9541110">
        <ele>347.2</ele>
        <time>2021-03-02T10:17:26Z</time>
      </trkpt>
      <trkpt lat="36.8510820" lon="-2.9540800">
        <ele>347.4</ele>
        <time>2021-03-02T10:17:27Z</time>
      </trkpt>
      <trkpt lat="36.8510880" lon="-2.9540470">
        <ele>347.6</ele>
        <time>2021-03-02T10:17:28Z</time>
      </trkpt>
      <trkpt lat="36.8510940" lon="-2.9540130">
        <ele>348.0</ele>
        <time>2021-03-02T10:17:29Z</time>
      </trkpt>
      <trkpt lat="36.8511010" lon="-2.9539780">
        <ele>348.2</ele>
        <time>2021-03-02T10:17:30Z</time>
      </trkpt>
      <trkpt lat="36.8511100" lon="-2.9539440">
        <ele>348.4</ele>
        <time>2021-03-02T10:17:31Z</time>
      </trkpt>
      <trkpt lat="36.8511210" lon="-2.9539110">
        <ele>348.8</ele>
        <time>2021-03-02T10:17:32Z</time>
      </trkpt>
      <trkpt lat="36.8511320" lon="-2.9538790">
        <ele>348.8</ele>
        <time>2021-03-02T10:17:33Z</time>
      </trkpt>
      <trkpt lat="36.8511420" lon="-2.9538500">
        <ele>349.2</ele>
        <time>2021-03-02T10:17:34Z</time>
      </trkpt>
      <trkpt lat="36.8511500" lon="-2.9538230">
        <ele>349.4</ele>
        <time>2021-03-02T10:17:35Z</time>
      </trkpt>
      <trkpt lat="36.8511600" lon="-2.9537980">
        <ele>349.8</ele>
        <time>2021-03-02T10:17:36Z</time>
      </trkpt>
      <trkpt lat="36.8511710" lon="-2.9537730">
        <ele>350.0</ele>
        <time>2021-03-02T10:17:37Z</time>
      </trkpt>
      <trkpt lat="36.8511850" lon="-2.9537510">
        <ele>350.2</ele>
        <time>2021-03-02T10:17:38Z</time>
      </trkpt>
      <trkpt lat="36.8511990" lon="-2.9537290">
        <ele>350.4</ele>
        <time>2021-03-02T10:17:39Z</time>
      </trkpt>
      <trkpt lat="36.8512140" lon="-2.9537070">
        <ele>350.6</ele>
        <time>2021-03-02T10:17:40Z</time>
      </trkpt>
      <trkpt lat="36.8512290" lon="-2.9536850">
        <ele>351.0</ele>
        <time>2021-03-02T10:17:41Z</time>
      </trkpt>
      <trkpt lat="36.8512440" lon="-2.9536620">
        <ele>351.0</ele>
        <time>2021-03-02T10:17:42Z</time>
      </trkpt>
      <trkpt lat="36.8512570" lon="-2.9536380">
        <ele>351.2</ele>
        <time>2021-03-02T10:17:43Z</time>
      </trkpt>
      <trkpt lat="36.8512700" lon="-2.9536130">
        <ele>351.6</ele>
        <time>2021-03-02T10:17:44Z</time>
      </trkpt>
      <trkpt lat="36.8512820" lon="-2.9535880">
        <ele>351.6</ele>
        <time>2021-03-02T10:17:45Z</time>
      </trkpt>
      <trkpt lat="36.8512960" lon="-2.9535650">
        <ele>352.0</ele>
        <time>2021-03-02T10:17:46Z</time>
      </trkpt>
      <trkpt lat="36.8513100" lon="-2.9535410">
        <ele>352.2</ele>
        <time>2021-03-02T10:17:47Z</time>
      </trkpt>
      <trkpt lat="36.8513240" lon="-2.9535190">
        <ele>352.4</ele>
        <time>2021-03-02T10:17:48Z</time>
      </trkpt>
      <trkpt lat="36.8513380" lon="-2.9534950">
        <ele>352.6</ele>
        <time>2021-03-02T10:17:49Z</time>
      </trkpt>
      <trkpt lat="36.8513490" lon="-2.9534700">
        <ele>352.8</ele>
        <time>2021-03-02T10:17:50Z</time>
      </trkpt>
      <trkpt lat="36.8513600" lon="-2.9534440">
        <ele>353.2</ele>
        <time>2021-03-02T10:17:51Z</time>
      </trkpt>
      <trkpt lat="36.8513690" lon="-2.9534160">
        <ele>353.4</ele>
        <time>2021-03-02T10:17:52Z</time>
      </trkpt>
      <trkpt lat="36.8513740" lon="-2.9533870">
        <ele>353.8</ele>
        <time>2021-03-02T10:17:53Z</time>
      </trkpt>
      <trkpt lat="36.8513780" lon="-2.9533580">
        <ele>353.8</ele>
        <time>2021-03-02T10:17:54Z</time>
      </trkpt>
      <trkpt lat="36.8513800" lon="-2.9533280">
        <ele>354.2</ele>
        <time>2021-03-02T10:17:55Z</time>
      </trkpt>
      <trkpt lat="36.8513790" lon="-2.9532990">
        <ele>354.2</ele>
        <time>2021-03-02T10:17:56Z</time>
      </trkpt>
      <trkpt lat="36.8513760" lon="-2.9532700">
        <ele>354.4</ele>
        <time>2021-03-02T10:17:57Z</time>
      </trkpt>
      <trkpt lat="36.8513720" lon="-2.9532410">
        <ele>354.6</ele>
        <time>2021-03-02T10:17:58Z</time>
      </trkpt>
      <trkpt lat="36.8513660" lon="-2.9532120">
        <ele>354.8</ele>
        <time>2021-03-02T10:17:59Z</time>
      </trkpt>
      <trkpt lat="36.8513550" lon="-2.9531870">
        <ele>355.0</ele>
        <time>2021-03-02T10:18:00Z</time>
      </trkpt>
      <trkpt lat="36.8513390" lon="-2.9531640">
        <ele>355.0</ele>
        <time>2021-03-02T10:18:01Z</time>
      </trkpt>
      <trkpt lat="36.8513170" lon="-2.9531440">
        <ele>355.2</ele>
        <time>2021-03-02T10:18:02Z</time>
      </trkpt>
      <trkpt lat="36.8512920" lon="-2.9531250">
        <ele>355.2</ele>
        <time>2021-03-02T10:18:03Z</time>
      </trkpt>
      <trkpt lat="36.8512640" lon="-2.9531060">
        <ele>355.2</ele>
        <time>2021-03-02T10:18:04Z</time>
      </trkpt>
      <trkpt lat="36.8512360" lon="-2.9530830">
        <ele>355.0</ele>
        <time>2021-03-02T10:18:05Z</time>
      </trkpt>
      <trkpt lat="36.8512090" lon="-2.9530550">
        <ele>355.0</ele>
        <time>2021-03-02T10:18:06Z</time>
      </trkpt>
      <trkpt lat="36.8511840" lon="-2.9530230">
        <ele>355.0</ele>
        <time>2021-03-02T10:18:07Z</time>
      </trkpt>
      <trkpt lat="36.8511620" lon="-2.9529850">
        <ele>355.0</ele>
        <time>2021-03-02T10:18:08Z</time>
      </trkpt>
      <trkpt lat="36.8511380" lon="-2.9529460">
        <ele>354.8</ele>
        <time>2021-03-02T10:18:09Z</time>
      </trkpt>
      <trkpt lat="36.8511070" lon="-2.9529090">
        <ele>354.6</ele>
        <time>2021-03-02T10:18:10Z</time>
      </trkpt>
      <trkpt lat="36.8510670" lon="-2.9528790">
        <ele>354.6</ele>
        <time>2021-03-02T10:18:11Z</time>
      </trkpt>
      <trkpt lat="36.8510190" lon="-2.9528550">
        <ele>354.2</ele>
        <time>2021-03-02T10:18:12Z</time>
      </trkpt>
      <trkpt lat="36.8509640" lon="-2.9528350">
        <ele>354.0</ele>
        <time>2021-03-02T10:18:13Z</time>
      </trkpt>
      <trkpt lat="36.8509040" lon="-2.9528170">
        <ele>353.4</ele>
        <time>2021-03-02T10:18:14Z</time>
      </trkpt>
      <trkpt lat="36.8508400" lon="-2.9527970">
        <ele>353.2</ele>
        <time>2021-03-02T10:18:15Z</time>
      </trkpt>
      <trkpt lat="36.8507740" lon="-2.9527760">
        <ele>352.6</ele>
        <time>2021-03-02T10:18:16Z</time>
      </trkpt>
      <trkpt lat="36.8507040" lon="-2.9527560">
        <ele>351.8</ele>
        <time>2021-03-02T10:18:17Z</time>
      </trkpt>
      <trkpt lat="36.8506350" lon="-2.9527380">
        <ele>351.4</ele>
        <time>2021-03-02T10:18:18Z</time>
      </trkpt>
      <trkpt lat="36.8505660" lon="-2.9527280">
        <ele>350.8</ele>
        <time>2021-03-02T10:18:19Z</time>
      </trkpt>
      <trkpt lat="36.8504950" lon="-2.9527370">
        <ele>350.6</ele>
        <time>2021-03-02T10:18:20Z</time>
      </trkpt>
      <trkpt lat="36.8504250" lon="-2.9527600">
        <ele>350.0</ele>
        <time>2021-03-02T10:18:21Z</time>
      </trkpt>
      <trkpt lat="36.8503530" lon="-2.9527660">
        <ele>349.6</ele>
        <time>2021-03-02T10:18:22Z</time>
      </trkpt>
      <trkpt lat="36.8502840" lon="-2.9527360">
        <ele>349.0</ele>
        <time>2021-03-02T10:18:23Z</time>
      </trkpt>
      <trkpt lat="36.8502210" lon="-2.9526810">
        <ele>348.4</ele>
        <time>2021-03-02T10:18:24Z</time>
      </trkpt>
      <trkpt lat="36.8501580" lon="-2.9526240">
        <ele>348.2</ele>
        <time>2021-03-02T10:18:25Z</time>
      </trkpt>
      <trkpt lat="36.8500900" lon="-2.9525710">
        <ele>347.6</ele>
        <time>2021-03-02T10:18:26Z</time>
      </trkpt>
      <trkpt lat="36.8500160" lon="-2.9525240">
        <ele>347.2</ele>
        <time>2021-03-02T10:18:27Z</time>
      </trkpt>
      <trkpt lat="36.8499380" lon="-2.9524770">
        <ele>346.4</ele>
        <time>2021-03-02T10:18:28Z</time>
      </trkpt>
      <trkpt lat="36.8498580" lon="-2.9524300">
        <ele>345.6</ele>
        <time>2021-03-02T10:18:29Z</time>
      </trkpt>
      <trkpt lat="36.8497770" lon="-2.9523800">
        <ele>345.4</ele>
        <time>2021-03-02T10:18:30Z</time>
      </trkpt>
      <trkpt lat="36.8496970" lon="-2.9523240">
        <ele>344.6</ele>
        <time>2021-03-02T10:18:31Z</time>
      </trkpt>
      <trkpt lat="36.8496160" lon="-2.9522650">
        <ele>344.2</ele>
        <time>2021-03-02T10:18:32Z</time>
      </trkpt>
      <trkpt lat="36.8495360" lon="-2.9522060">
        <ele>343.6</ele>
        <time>2021-03-02T10:18:33Z</time>
      </trkpt>
      <trkpt lat="36.8494570" lon="-2.9521480">
        <ele>343.4</ele>
        <time>2021-03-02T10:18:34Z</time>
      </trkpt>
      <trkpt lat="36.8493780" lon="-2.9520860">
        <ele>342.6</ele>
        <time>2021-03-02T10:18:35Z</time>
      </trkpt>
      <trkpt lat="36.8493010" lon="-2.9520220">
        <ele>342.0</ele>
        <time>2021-03-02T10:18:36Z</time>
      </trkpt>
      <trkpt lat="36.8492240" lon="-2.9519570">
        <ele>341.6</ele>
        <time>2021-03-02T10:18:37Z</time>
      </trkpt>
      <trkpt lat="36.8491480" lon="-2.9518920">
        <ele>341.2</ele>
        <time>2021-03-02T10:18:38Z</time>
      </trkpt>
      <trkpt lat="36.8490730" lon="-2.9518220">
        <ele>341.0</ele>
        <time>2021-03-02T10:18:39Z</time>
      </trkpt>
      <trkpt lat="36.8490020" lon="-2.9517500">
        <ele>340.6</ele>
        <time>2021-03-02T10:18:40Z</time>
      </trkpt>
      <trkpt lat="36.8489360" lon="-2.9516780">
        <ele>340.4</ele>
        <time>2021-03-02T10:18:41Z</time>
      </trkpt>
      <trkpt lat="36.8488700" lon="-2.9516110">
        <ele>340.0</ele>
        <time>2021-03-02T10:18:42Z</time>
      </trkpt>
      <trkpt lat="36.8488060" lon="-2.9515440">
        <ele>339.6</ele>
        <time>2021-03-02T10:18:43Z</time>
      </trkpt>
      <trkpt lat="36.8487440" lon="-2.9514790">
        <ele>339.4</ele>
        <time>2021-03-02T10:18:44Z</time>
      </trkpt>
      <trkpt lat="36.8486810" lon="-2.9514190">
        <ele>339.0</ele>
        <time>2021-03-02T10:18:45Z</time>
      </trkpt>
      <trkpt lat="36.8486200" lon="-2.9513590">
        <ele>339.0</ele>
        <time>2021-03-02T10:18:46Z</time>
      </trkpt>
      <trkpt lat="36.8485610" lon="-2.9513020">
        <ele>338.8</ele>
        <time>2021-03-02T10:18:47Z</time>
      </trkpt>
      <trkpt lat="36.8485010" lon="-2.9512480">
        <ele>338.8</ele>
        <time>2021-03-02T10:18:48Z</time>
      </trkpt>
      <trkpt lat="36.8484450" lon="-2.9511920">
        <ele>338.8</ele>
        <time>2021-03-02T10:18:49Z</time>
      </trkpt>
      <trkpt lat="36.8483880" lon="-2.9511390">
        <ele>338.6</ele>
        <time>2021-03-02T10:18:50Z</time>
      </trkpt>
      <trkpt lat="36.8483310" lon="-2.9510870">
        <ele>338.4</ele>
        <time>2021-03-02T10:18:51Z</time>
      </trkpt>
      <trkpt lat="36.8482730" lon="-2.9510340">
        <ele>338.2</ele>
        <time>2021-03-02T10:18:52Z</time>
      </trkpt>
      <trkpt lat="36.8482160" lon="-2.9509810">
        <ele>338.2</ele>
        <time>2021-03-02T10:18:53Z</time>
      </trkpt>
      <trkpt lat="36.8481590" lon="-2.9509300">
        <ele>338.0</ele>
        <time>2021-03-02T10:18:54Z</time>
      </trkpt>
      <trkpt lat="36.8480990" lon="-2.9508840">
        <ele>338.0</ele>
        <time>2021-03-02T10:18:55Z</time>
      </trkpt>
      <trkpt lat="36.8480390" lon="-2.9508330">
        <ele>337.8</ele>
        <time>2021-03-02T10:18:56Z</time>
      </trkpt>
      <trkpt lat="36.8479770" lon="-2.9507860">
        <ele>337.6</ele>
        <time>2021-03-02T10:18:57Z</time>
      </trkpt>
      <trkpt lat="36.8479140" lon="-2.9507400">
        <ele>337.4</ele>
        <time>2021-03-02T10:18:58Z</time>
      </trkpt>
      <trkpt lat="36.8478530" lon="-2.9506920">
        <ele>337.2</ele>
        <time>2021-03-02T10:18:59Z</time>
      </trkpt>
      <trkpt lat="36.8477930" lon="-2.9506480">
        <ele>337.2</ele>
        <time>2021-03-02T10:19:00Z</time>
      </trkpt>
      <trkpt lat="36.8477340" lon="-2.9506010">
        <ele>337.0</ele>
        <time>2021-03-02T10:19:01Z</time>
      </trkpt>
      <trkpt lat="36.8476780" lon="-2.9505490">
        <ele>336.8</ele>
        <time>2021-03-02T10:19:02Z</time>
      </trkpt>
      <trkpt lat="36.8476220" lon="-2.9504990">
        <ele>336.6</ele>
        <time>2021-03-02T10:19:03Z</time>
      </trkpt>
      <trkpt lat="36.8475660" lon="-2.9504490">
        <ele>336.4</ele>
        <time>2021-03-02T10:19:04Z</time>
      </trkpt>
      <trkpt lat="36.8475090" lon="-2.9504020">
        <ele>336.2</ele>
        <time>2021-03-02T10:19:05Z</time>
      </trkpt>
      <trkpt lat="36.8474510" lon="-2.9503560">
        <ele>336.0</ele>
        <time>2021-03-02T10:19:06Z</time>
      </trkpt>
      <trkpt lat="36.8473980" lon="-2.9503040">
        <ele>336.0</ele>
        <time>2021-03-02T10:19:07Z</time>
      </trkpt>
      <trkpt lat="36.8473380" lon="-2.9502610">
        <ele>335.8</ele>
        <time>2021-03-02T10:19:08Z</time>
      </trkpt>
      <trkpt lat="36.8472760" lon="-2.9502220">
        <ele>335.6</ele>
        <time>2021-03-02T10:19:09Z</time>
      </trkpt>
      <trkpt lat="36.8472150" lon="-2.9501830">
        <ele>335.6</ele>
        <time>2021-03-02T10:19:10Z</time>
      </trkpt>
      <trkpt lat="36.8471540" lon="-2.9501460">
        <ele>335.6</ele>
        <time>2021-03-02T10:19:11Z</time>
      </trkpt>
      <trkpt lat="36.8470930" lon="-2.9501120">
        <ele>335.4</ele>
        <time>2021-03-02T10:19:12Z</time>
      </trkpt>
      <trkpt lat="36.8470330" lon="-2.9500770">
        <ele>335.4</ele>
        <time>2021-03-02T10:19:13Z</time>
      </trkpt>
      <trkpt lat="36.8469770" lon="-2.9500390">
        <ele>335.2</ele>
        <time>2021-03-02T10:19:14Z</time>
      </trkpt>
      <trkpt lat="36.8469270" lon="-2.9500000">
        <ele>335.2</ele>
        <time>2021-03-02T10:19:15Z</time>
      </trkpt>
      <trkpt lat="36.8468750" lon="-2.9499640">
        <ele>335.0</ele>
        <time>2021-03-02T10:19:16Z</time>
      </trkpt>
      <trkpt lat="36.8468240" lon="-2.9499290">
        <ele>335.0</ele>
        <time>2021-03-02T10:19:17Z</time>
      </trkpt>
      <trkpt lat="36.8467650" lon="-2.9499090">
        <ele>335.0</ele>
        <time>2021-03-02T10:19:18Z</time>
      </trkpt>
      <trkpt lat="36.8467040" lon="-2.9499070">
        <ele>335.0</ele>
        <time>2021-03-02T10:19:19Z</time>
      </trkpt>
      <trkpt lat="36.8466420" lon="-2.9499280">
        <ele>335.0</ele>
        <time>2021-03-02T10:19:20Z</time>
      </trkpt>
      <trkpt lat="36.8465830" lon="-2.9499460">
        <ele>335.0</ele>
        <time>2021-03-02T10:19:21Z</time>
      </trkpt>
      <trkpt lat="36.8465240" lon="-2.9499540">
        <ele>335.0</ele>
        <time>2021-03-02T10:19:22Z</time>
      </trkpt>
      <trkpt lat="36.8464720" lon="-2.9499440">
        <ele>334.8</ele>
        <time>2021-03-02T10:19:23Z</time>
      </trkpt>
      <trkpt lat="36.8464290" lon="-2.9499190">
        <ele>334.8</ele>
        <time>2021-03-02T10:19:24Z</time>
      </trkpt>
      <trkpt lat="36.8463930" lon="-2.9498910">
        <ele>334.8</ele>
        <time>2021-03-02T10:19:25Z</time>
      </trkpt>
      <trkpt lat="36.8463590" lon="-2.9498660">
        <ele>334.8</ele>
        <time>2021-03-02T10:19:26Z</time>
      </trkpt>
      <trkpt lat="36.8463270" lon="-2.9498460">
        <ele>334.8</ele>
        <time>2021-03-02T10:19:27Z</time>
      </trkpt>
      <trkpt lat="36.8462930" lon="-2.9498220">
        <ele>334.8</ele>
        <time>2021-03-02T10:19:28Z</time>
      </trkpt>
      <trkpt lat="36.8462580" lon="-2.9498010">
        <ele>335.0</ele>
        <time>2021-03-02T10:19:29Z</time>
      </trkpt>
      <trkpt lat="36.8462220" lon="-2.9497840">
        <ele>334.8</ele>
        <time>2021-03-02T10:19:30Z</time>
      </trkpt>
      <trkpt lat="36.8461840" lon="-2.9497760">
        <ele>334.8</ele>
        <time>2021-03-02T10:19:31Z</time>
      </trkpt>
      <trkpt lat="36.8461490" lon="-2.9497820">
        <ele>335.0</ele>
        <time>2021-03-02T10:19:32Z</time>
      </trkpt>
      <trkpt lat="36.8461280" lon="-2.9497770">
        <ele>335.0</ele>
        <time>2021-03-02T10:19:33Z</time>
      </trkpt>
      <trkpt lat="36.8460990" lon="-2.9497710">
        <ele>335.0</ele>
        <time>2021-03-02T10:19:34Z</time>
      </trkpt>
      <trkpt lat="36.8460660" lon="-2.9497540">
        <ele>335.2</ele>
        <time>2021-03-02T10:19:35Z</time>
      </trkpt>
      <trkpt lat="36.8460340" lon="-2.9497350">
        <ele>335.4</ele>
        <time>2021-03-02T10:19:36Z</time>
      </trkpt>
      <trkpt lat="36.8460040" lon="-2.9497140">
        <ele>335.4</ele>
        <time>2021-03-02T10:19:37Z</time>
      </trkpt>
      <trkpt lat="36.8459720" lon="-2.9496910">
        <ele>335.6</ele>
        <time>2021-03-02T10:19:38Z</time>
      </trkpt>
      <trkpt lat="36.8459410" lon="-2.9496710">
        <ele>335.6</ele>
        <time>2021-03-02T10:19:39Z</time>
      </trkpt>
      <trkpt lat="36.8459120" lon="-2.9496600">
        <ele>335.8</ele>
        <time>2021-03-02T10:19:40Z</time>
      </trkpt>
      <trkpt lat="36.8458860" lon="-2.9496430">
        <ele>335.8</ele>
        <time>2021-03-02T10:19:41Z</time>
      </trkpt>
      <trkpt lat="36.8458530" lon="-2.9496210">
        <ele>335.6</ele>
        <time>2021-03-02T10:19:42Z</time>
      </trkpt>
      <trkpt lat="36.8458120" lon="-2.9495990">
        <ele>335.4</ele>
        <time>2021-03-02T10:19:43Z</time>
      </trkpt>
      <trkpt lat="36.8457710" lon="-2.9495750">
        <ele>335.2</ele>
        <time>2021-03-02T10:19:44Z</time>
      </trkpt>
      <trkpt lat="36.8457240" lon="-2.9495490">
        <ele>335.2</ele>
        <time>2021-03-02T10:19:45Z</time>
      </trkpt>
      <trkpt lat="36.8456740" lon="-2.9495200">
        <ele>334.8</ele>
        <time>2021-03-02T10:19:46Z</time>
      </trkpt>
      <trkpt lat="36.8456270" lon="-2.9494890">
        <ele>334.6</ele>
        <time>2021-03-02T10:19:47Z</time>
      </trkpt>
      <trkpt lat="36.8455830" lon="-2.9494550">
        <ele>334.6</ele>
        <time>2021-03-02T10:19:48Z</time>
      </trkpt>
      <trkpt lat="36.8455400" lon="-2.9494190">
        <ele>334.4</ele>
        <time>2021-03-02T10:19:49Z</time>
      </trkpt>
      <trkpt lat="36.8454960" lon="-2.9493810">
        <ele>334.2</ele>
        <time>2021-03-02T10:19:50Z</time>
      </trkpt>
      <trkpt lat="36.8454580" lon="-2.9493250">
        <ele>334.0</ele>
        <time>2021-03-02T10:19:51Z</time>
      </trkpt>
      <trkpt lat="36.8454200" lon="-2.9492700">
        <ele>334.0</ele>
        <time>2021-03-02T10:19:52Z</time>
      </trkpt>
      <trkpt lat="36.8453820" lon="-2.9492220">
        <ele>333.8</ele>
        <time>2021-03-02T10:19:53Z</time>
      </trkpt>
      <trkpt lat="36.8453420" lon="-2.9491710">
        <ele>333.6</ele>
        <time>2021-03-02T10:19:54Z</time>
      </trkpt>
      <trkpt lat="36.8452990" lon="-2.9491270">
        <ele>333.4</ele>
        <time>2021-03-02T10:19:55Z</time>
      </trkpt>
      <trkpt lat="36.8452610" lon="-2.9490920">
        <ele>333.4</ele>
        <time>2021-03-02T10:19:56Z</time>
      </trkpt>
      <trkpt lat="36.8452250" lon="-2.9490620">
        <ele>333.2</ele>
        <time>2021-03-02T10:19:57Z</time>
      </trkpt>
      <trkpt lat="36.8451870" lon="-2.9490270">
        <ele>333.0</ele>
        <time>2021-03-02T10:19:58Z</time>
      </trkpt>
      <trkpt lat="36.8451450" lon="-2.9489810">
        <ele>332.8</ele>
        <time>2021-03-02T10:19:59Z</time>
      </trkpt>
      <trkpt lat="36.8451030" lon="-2.9489330">
        <ele>332.8</ele>
        <time>2021-03-02T10:20:00Z</time>
      </trkpt>
      <trkpt lat="36.8450620" lon="-2.9488890">
        <ele>332.6</ele>
        <time>2021-03-02T10:20:01Z</time>
      </trkpt>
      <trkpt lat="36.8450230" lon="-2.9488470">
        <ele>332.6</ele>
        <time>2021-03-02T10:20:02Z</time>
      </trkpt>
      <trkpt lat="36.8449880" lon="-2.9488120">
        <ele>332.4</ele>
        <time>2021-03-02T10:20:03Z</time>
      </trkpt>
      <trkpt lat="36.8449500" lon="-2.9487790">
        <ele>332.4</ele>
        <time>2021-03-02T10:20:04Z</time>
      </trkpt>
      <trkpt lat="36.8449210" lon="-2.9487310">
        <ele>332.4</ele>
        <time>2021-03-02T10:20:05Z</time>
      </trkpt>
      <trkpt lat="36.8448840" lon="-2.9487060">
        <ele>332.2</ele>
        <time>2021-03-02T10:20:06Z</time>
      </trkpt>
      <trkpt lat="36.8448430" lon="-2.9486830">
        <ele>332.2</ele>
        <time>2021-03-02T10:20:07Z</time>
      </trkpt>
      <trkpt lat="36.8448020" lon="-2.9486530">
        <ele>332.0</ele>
        <time>2021-03-02T10:20:08Z</time>
      </trkpt>
      <trkpt lat="36.8447630" lon="-2.9486170">
        <ele>331.8</ele>
        <time>2021-03-02T10:20:09Z</time>
      </trkpt>
      <trkpt lat="36.8447230" lon="-2.9485810">
        <ele>331.8</ele>
        <time>2021-03-02T10:20:10Z</time>
      </trkpt>
      <trkpt lat="36.8446820" lon="-2.9485460">
        <ele>331.8</ele>
        <time>2021-03-02T10:20:11Z</time>
      </trkpt>
      <trkpt lat="36.8446410" lon="-2.9485100">
        <ele>331.8</ele>
        <time>2021-03-02T10:20:12Z</time>
      </trkpt>
      <trkpt lat="36.8445970" lon="-2.9484750">
        <ele>331.8</ele>
        <time>2021-03-02T10:20:13Z</time>
      </trkpt>
      <trkpt lat="36.8445540" lon="-2.9484380">
        <ele>331.6</ele>
        <time>2021-03-02T10:20:14Z</time>
      </trkpt>
      <trkpt lat="36.8445120" lon="-2.9484000">
        <ele>331.6</ele>
        <time>2021-03-02T10:20:15Z</time>
      </trkpt>
      <trkpt lat="36.8444680" lon="-2.9483660">
        <ele>331.6</ele>
        <time>2021-03-02T10:20:16Z</time>
      </trkpt>
      <trkpt lat="36.8444310" lon="-2.9483230">
        <ele>331.4</ele>
        <time>2021-03-02T10:20:17Z</time>
      </trkpt>
      <trkpt lat="36.8443870" lon="-2.9482810">
        <ele>331.2</ele>
        <time>2021-03-02T10:20:18Z</time>
      </trkpt>
      <trkpt lat="36.8443440" lon="-2.9482430">
        <ele>331.0</ele>
        <time>2021-03-02T10:20:19Z</time>
      </trkpt>
      <trkpt lat="36.8443110" lon="-2.9482200">
        <ele>330.6</ele>
        <time>2021-03-02T10:20:20Z</time>
      </trkpt>
      <trkpt lat="36.8442930" lon="-2.9481840">
        <ele>330.4</ele>
        <time>2021-03-02T10:20:21Z</time>
      </trkpt>
      <trkpt lat="36.8442930" lon="-2.9481590">
        <ele>330.4</ele>
        <time>2021-03-02T10:20:22Z</time>
      </trkpt>
      <trkpt lat="36.8443060" lon="-2.9481320">
        <ele>330.6</ele>
        <time>2021-03-02T10:20:23Z</time>
      </trkpt>
      <trkpt lat="36.8443200" lon="-2.9481060">
        <ele>330.8</ele>
        <time>2021-03-02T10:20:24Z</time>
      </trkpt>
      <trkpt lat="36.8443320" lon="-2.9480820">
        <ele>331.0</ele>
        <time>2021-03-02T10:20:25Z</time>
      </trkpt>
      <trkpt lat="36.8443460" lon="-2.9480530">
        <ele>331.2</ele>
        <time>2021-03-02T10:20:26Z</time>
      </trkpt>
      <trkpt lat="36.8443610" lon="-2.9480230">
        <ele>331.4</ele>
        <time>2021-03-02T10:20:27Z</time>
      </trkpt>
      <trkpt lat="36.8443850" lon="-2.9479840">
        <ele>331.6</ele>
        <time>2021-03-02T10:20:28Z</time>
      </trkpt>
      <trkpt lat="36.8444040" lon="-2.9479500">
        <ele>331.8</ele>
        <time>2021-03-02T10:20:29Z</time>
      </trkpt>
      <trkpt lat="36.8444240" lon="-2.9479200">
        <ele>331.8</ele>
        <time>2021-03-02T10:20:30Z</time>
      </trkpt>
      <trkpt lat="36.8444490" lon="-2.9478920">
        <ele>332.0</ele>
        <time>2021-03-02T10:20:31Z</time>
      </trkpt>
      <trkpt lat="36.8444760" lon="-2.9478630">
        <ele>332.2</ele>
        <time>2021-03-02T10:20:32Z</time>
      </trkpt>
      <trkpt lat="36.8444970" lon="-2.9478360">
        <ele>332.2</ele>
        <time>2021-03-02T10:20:33Z</time>
      </trkpt>
      <trkpt lat="36.8445130" lon="-2.9478140">
        <ele>332.4</ele>
        <time>2021-03-02T10:20:34Z</time>
      </trkpt>
      <trkpt lat="36.8445270" lon="-2.9477970">
        <ele>332.4</ele>
        <time>2021-03-02T10:20:35Z</time>
      </trkpt>
      <trkpt lat="36.8445380" lon="-2.9477870">
        <ele>332.6</ele>
        <time>2021-03-02T10:20:36Z</time>
      </trkpt>
      <trkpt lat="36.8445500" lon="-2.9477810">
        <ele>332.6</ele>
        <time>2021-03-02T10:20:37Z</time>
      </trkpt>
      <trkpt lat="36.8445570" lon="-2.9477820">
        <ele>332.8</ele>
        <time>2021-03-02T10:20:38Z</time>
      </trkpt>
      <trkpt lat="36.8445650" lon="-2.9477900">
        <ele>332.8</ele>
        <time>2021-03-02T10:20:39Z</time>
      </trkpt>
      <trkpt lat="36.8445830" lon="-2.9478040">
        <ele>332.8</ele>
        <time>2021-03-02T10:20:40Z</time>
      </trkpt>
      <trkpt lat="36.8446110" lon="-2.9478180">
        <ele>332.8</ele>
        <time>2021-03-02T10:20:41Z</time>
      </trkpt>
      <trkpt lat="36.8446460" lon="-2.9478360">
        <ele>333.0</ele>
        <time>2021-03-02T10:20:42Z</time>
      </trkpt>
      <trkpt lat="36.8446870" lon="-2.9478510">
        <ele>333.0</ele>
        <time>2021-03-02T10:20:43Z</time>
      </trkpt>
      <trkpt lat="36.8447270" lon="-2.9478700">
        <ele>333.2</ele>
        <time>2021-03-02T10:20:44Z</time>
      </trkpt>
      <trkpt lat="36.8447620" lon="-2.9478920">
        <ele>333.2</ele>
        <time>2021-03-02T10:20:45Z</time>
      </trkpt>
      <trkpt lat="36.8448040" lon="-2.9479130">
        <ele>333.4</ele>
        <time>2021-03-02T10:20:46Z</time>
      </trkpt>
      <trkpt lat="36.8448430" lon="-2.9479340">
        <ele>333.4</ele>
        <time>2021-03-02T10:20:47Z</time>
      </trkpt>
      <trkpt lat="36.8448810" lon="-2.9479560">
        <ele>333.6</ele>
        <time>2021-03-02T10:20:48Z</time>
      </trkpt>
      <trkpt lat="36.8449220" lon="-2.9479740">
        <ele>333.8</ele>
        <time>2021-03-02T10:20:49Z</time>
      </trkpt>
      <trkpt lat="36.8449570" lon="-2.9479950">
        <ele>334.0</ele>
        <time>2021-03-02T10:20:50Z</time>
      </trkpt>
      <trkpt lat="36.8449950" lon="-2.9480160">
        <ele>334.2</ele>
        <time>2021-03-02T10:20:51Z</time>
      </trkpt>
      <trkpt lat="36.8450330" lon="-2.9480360">
        <ele>334.2</ele>
        <time>2021-03-02T10:20:52Z</time>
      </trkpt>
      <trkpt lat="36.8450710" lon="-2.9480590">
        <ele>334.2</ele>
        <time>2021-03-02T10:20:53Z</time>
      </trkpt>
      <trkpt lat="36.8451100" lon="-2.9480760">
        <ele>334.4</ele>
        <time>2021-03-02T10:20:54Z</time>
      </trkpt>
      <trkpt lat="36.8451430" lon="-2.9480970">
        <ele>334.4</ele>
        <time>2021-03-02T10:20:55Z</time>
      </trkpt>
      <trkpt lat="36.8451770" lon="-2.9481210">
        <ele>334.4</ele>
        <time>2021-03-02T10:20:56Z</time>
      </trkpt>
      <trkpt lat="36.8452120" lon="-2.9481440">
        <ele>334.6</ele>
        <time>2021-03-02T10:20:57Z</time>
      </trkpt>
      <trkpt lat="36.8452460" lon="-2.9481690">
        <ele>334.8</ele>
        <time>2021-03-02T10:20:58Z</time>
      </trkpt>
      <trkpt lat="36.8452850" lon="-2.9481870">
        <ele>335.0</ele>
        <time>2021-03-02T10:20:59Z</time>
      </trkpt>
      <trkpt lat="36.8453220" lon="-2.9482060">
        <ele>335.2</ele>
        <time>2021-03-02T10:21:00Z</time>
      </trkpt>
      <trkpt lat="36.8453570" lon="-2.9482240">
        <ele>335.2</ele>
        <time>2021-03-02T10:21:01Z</time>
      </trkpt>
      <trkpt lat="36.8453920" lon="-2.9482390">
        <ele>335.2</ele>
        <time>2021-03-02T10:21:02Z</time>
      </trkpt>
      <trkpt lat="36.8454240" lon="-2.9482550">
        <ele>335.4</ele>
        <time>2021-03-02T10:21:03Z</time>
      </trkpt>
      <trkpt lat="36.8454570" lon="-2.9482730">
        <ele>335.4</ele>
        <time>2021-03-02T10:21:04Z</time>
      </trkpt>
      <trkpt lat="36.8454900" lon="-2.9482900">
        <ele>335.6</ele>
        <time>2021-03-02T10:21:05Z</time>
      </trkpt>
      <trkpt lat="36.8455210" lon="-2.9483090">
        <ele>335.6</ele>
        <time>2021-03-02T10:21:06Z</time>
      </trkpt>
      <trkpt lat="36.8455510" lon="-2.9483250">
        <ele>335.8</ele>
        <time>2021-03-02T10:21:07Z</time>
      </trkpt>
      <trkpt lat="36.8455840" lon="-2.9483420">
        <ele>335.8</ele>
        <time>2021-03-02T10:21:08Z</time>
      </trkpt>
      <trkpt lat="36.8456130" lon="-2.9483580">
        <ele>335.8</ele>
        <time>2021-03-02T10:21:09Z</time>
      </trkpt>
      <trkpt lat="36.8456430" lon="-2.9483740">
        <ele>336.0</ele>
        <time>2021-03-02T10:21:10Z</time>
      </trkpt>
      <trkpt lat="36.8456700" lon="-2.9483890">
        <ele>336.0</ele>
        <time>2021-03-02T10:21:11Z</time>
      </trkpt>
      <trkpt lat="36.8457000" lon="-2.9484020">
        <ele>336.0</ele>
        <time>2021-03-02T10:21:12Z</time>
      </trkpt>
      <trkpt lat="36.8457310" lon="-2.9484120">
        <ele>336.0</ele>
        <time>2021-03-02T10:21:13Z</time>
      </trkpt>
      <trkpt lat="36.8457610" lon="-2.9484180">
        <ele>336.2</ele>
        <time>2021-03-02T10:21:14Z</time>
      </trkpt>
      <trkpt lat="36.8457890" lon="-2.9484130">
        <ele>336.2</ele>
        <time>2021-03-02T10:21:15Z</time>
      </trkpt>
      <trkpt lat="36.8458130" lon="-2.9483990">
        <ele>336.4</ele>
        <time>2021-03-02T10:21:16Z</time>
      </trkpt>
      <trkpt lat="36.8458350" lon="-2.9483810">
        <ele>336.4</ele>
        <time>2021-03-02T10:21:17Z</time>
      </trkpt>
      <trkpt lat="36.8458530" lon="-2.9483590">
        <ele>336.6</ele>
        <time>2021-03-02T10:21:18Z</time>
      </trkpt>
      <trkpt lat="36.8458660" lon="-2.9483480">
        <ele>336.8</ele>
        <time>2021-03-02T10:21:19Z</time>
      </trkpt>
      <trkpt lat="36.8458840" lon="-2.9483400">
        <ele>336.8</ele>
        <time>2021-03-02T10:21:20Z</time>
      </trkpt>
      <trkpt lat="36.8459040" lon="-2.9483290">
        <ele>336.8</ele>
        <time>2021-03-02T10:21:21Z</time>
      </trkpt>
      <trkpt lat="36.8459260" lon="-2.9483130">
        <ele>336.8</ele>
        <time>2021-03-02T10:21:22Z</time>
      </trkpt>
      <trkpt lat="36.8459510" lon="-2.9482960">
        <ele>336.8</ele>
        <time>2021-03-02T10:21:23Z</time>
      </trkpt>
      <trkpt lat="36.8459770" lon="-2.9482770">
        <ele>336.8</ele>
        <time>2021-03-02T10:21:24Z</time>
      </trkpt>
      <trkpt lat="36.8460020" lon="-2.9482540">
        <ele>336.8</ele>
        <time>2021-03-02T10:21:25Z</time>
      </trkpt>
      <trkpt lat="36.8460230" lon="-2.9482310">
        <ele>336.6</ele>
        <time>2021-03-02T10:21:26Z</time>
      </trkpt>
      <trkpt lat="36.8460400" lon="-2.9482060">
        <ele>336.6</ele>
        <time>2021-03-02T10:21:27Z</time>
      </trkpt>
      <trkpt lat="36.8460530" lon="-2.9481810">
        <ele>336.6</ele>
        <time>2021-03-02T10:21:28Z</time>
      </trkpt>
      <trkpt lat="36.8460650" lon="-2.9481560">
        <ele>336.6</ele>
        <time>2021-03-02T10:21:29Z</time>
      </trkpt>
      <trkpt lat="36.8460770" lon="-2.9481310">
        <ele>336.6</ele>
        <time>2021-03-02T10:21:30Z</time>
      </trkpt>
      <trkpt lat="36.8460850" lon="-2.9481080">
        <ele>336.6</ele>
        <time>2021-03-02T10:21:31Z</time>
      </trkpt>
      <trkpt lat="36.8460950" lon="-2.9480860">
        <ele>336.6</ele>
        <time>2021-03-02T10:21:32Z</time>
      </trkpt>
      <trkpt lat="36.8461060" lon="-2.9480680">
        <ele>336.6</ele>
        <time>2021-03-02T10:21:33Z</time>
      </trkpt>
      <trkpt lat="36.8461170" lon="-2.9480520">
        <ele>336.8</ele>
        <time>2021-03-02T10:21:34Z</time>
      </trkpt>
      <trkpt lat="36.8461240" lon="-2.9480330">
        <ele>336.8</ele>
        <time>2021-03-02T10:21:35Z</time>
      </trkpt>
      <trkpt lat="36.8461230" lon="-2.9480120">
        <ele>336.8</ele>
        <time>2021-03-02T10:21:36Z</time>
      </trkpt>
      <trkpt lat="36.8461130" lon="-2.9479900">
        <ele>336.8</ele>
        <time>2021-03-02T10:21:37Z</time>
      </trkpt>
      <trkpt lat="36.8461000" lon="-2.9479710">
        <ele>336.8</ele>
        <time>2021-03-02T10:21:38Z</time>
      </trkpt>
      <trkpt lat="36.8460860" lon="-2.9479520">
        <ele>336.8</ele>
        <time>2021-03-02T10:21:39Z</time>
      </trkpt>
      <trkpt lat="36.8460780" lon="-2.9479360">
        <ele>336.8</ele>
        <time>2021-03-02T10:21:40Z</time>
      </trkpt>
      <trkpt lat="36.8460710" lon="-2.9479210">
        <ele>336.8</ele>
        <time>2021-03-02T10:21:41Z</time>
      </trkpt>
      <trkpt lat="36.8460660" lon="-2.9479070">
        <ele>336.8</ele>
        <time>2021-03-02T10:21:42Z</time>
      </trkpt>
      <trkpt lat="36.8460600" lon="-2.9478950">
        <ele>336.8</ele>
        <time>2021-03-02T10:21:43Z</time>
      </trkpt>
      <trkpt lat="36.8460480" lon="-2.9478920">
        <ele>336.8</ele>
        <time>2021-03-02T10:21:44Z</time>
      </trkpt>
      <trkpt lat="36.8460330" lon="-2.9479010">
        <ele>336.8</ele>
        <time>2021-03-02T10:21:45Z</time>
      </trkpt>
      <trkpt lat="36.8460190" lon="-2.9479220">
        <ele>336.8</ele>
        <time>2021-03-02T10:21:46Z</time>
      </trkpt>
      <trkpt lat="36.8460080" lon="-2.9479550">
        <ele>336.8</ele>
        <time>2021-03-02T10:21:47Z</time>
      </trkpt>
      <trkpt lat="36.8460010" lon="-2.9479950">
        <ele>336.8</ele>
        <time>2021-03-02T10:21:48Z</time>
      </trkpt>
      <trkpt lat="36.8459940" lon="-2.9480350">
        <ele>336.8</ele>
        <time>2021-03-02T10:21:49Z</time>
      </trkpt>
      <trkpt lat="36.8459860" lon="-2.9480780">
        <ele>336.6</ele>
        <time>2021-03-02T10:21:50Z</time>
      </trkpt>
      <trkpt lat="36.8459760" lon="-2.9481230">
        <ele>336.6</ele>
        <time>2021-03-02T10:21:51Z</time>
      </trkpt>
      <trkpt lat="36.8459650" lon="-2.9481700">
        <ele>336.6</ele>
        <time>2021-03-02T10:21:52Z</time>
      </trkpt>
      <trkpt lat="36.8459540" lon="-2.9482160">
        <ele>336.6</ele>
        <time>2021-03-02T10:21:53Z</time>
      </trkpt>
      <trkpt lat="36.8459440" lon="-2.9482620">
        <ele>336.6</ele>
        <time>2021-03-02T10:21:54Z</time>
      </trkpt>
      <trkpt lat="36.8459340" lon="-2.9483070">
        <ele>336.6</ele>
        <time>2021-03-02T10:21:55Z</time>
      </trkpt>
      <trkpt lat="36.8459260" lon="-2.9483520">
        <ele>336.6</ele>
        <time>2021-03-02T10:21:56Z</time>
      </trkpt>
      <trkpt lat="36.8459240" lon="-2.9483960">
        <ele>336.6</ele>
        <time>2021-03-02T10:21:57Z</time>
      </trkpt>
      <trkpt lat="36.8459250" lon="-2.9484370">
        <ele>336.6</ele>
        <time>2021-03-02T10:21:58Z</time>
      </trkpt>
      <trkpt lat="36.8459270" lon="-2.9484730">
        <ele>336.6</ele>
        <time>2021-03-02T10:21:59Z</time>
      </trkpt>
      <trkpt lat="36.8459350" lon="-2.9485010">
        <ele>336.6</ele>
        <time>2021-03-02T10:22:00Z</time>
      </trkpt>
      <trkpt lat="36.8459540" lon="-2.9485230">
        <ele>336.6</ele>
        <time>2021-03-02T10:22:01Z</time>
      </trkpt>
      <trkpt lat="36.8459790" lon="-2.9485410">
        <ele>336.6</ele>
        <time>2021-03-02T10:22:02Z</time>
      </trkpt>
      <trkpt lat="36.8460090" lon="-2.9485590">
        <ele>336.8</ele>
        <time>2021-03-02T10:22:03Z</time>
      </trkpt>
      <trkpt lat="36.8460390" lon="-2.9485800">
        <ele>336.8</ele>
        <time>2021-03-02T10:22:04Z</time>
      </trkpt>
      <trkpt lat="36.8460680" lon="-2.9486030">
        <ele>337.0</ele>
        <time>2021-03-02T10:22:05Z</time>
      </trkpt>
      <trkpt lat="36.8460960" lon="-2.9486300">
        <ele>337.0</ele>
        <time>2021-03-02T10:22:06Z</time>
      </trkpt>
      <trkpt lat="36.8461310" lon="-2.9486490">
        <ele>337.0</ele>
        <time>2021-03-02T10:22:07Z</time>
      </trkpt>
      <trkpt lat="36.8461640" lon="-2.9486740">
        <ele>337.0</ele>
        <time>2021-03-02T10:22:08Z</time>
      </trkpt>
      <trkpt lat="36.8461970" lon="-2.9486990">
        <ele>337.0</ele>
        <time>2021-03-02T10:22:09Z</time>
      </trkpt>
      <trkpt lat="36.8462310" lon="-2.9487140">
        <ele>337.0</ele>
        <time>2021-03-02T10:22:10Z</time>
      </trkpt>
      <trkpt lat="36.8462650" lon="-2.9487210">
        <ele>337.2</ele>
        <time>2021-03-02T10:22:11Z</time>
      </trkpt>
      <trkpt lat="36.8462980" lon="-2.9487310">
        <ele>337.2</ele>
        <time>2021-03-02T10:22:12Z</time>
      </trkpt>
      <trkpt lat="36.8463140" lon="-2.9487700">
        <ele>337.4</ele>
        <time>2021-03-02T10:22:13Z</time>
      </trkpt>
      <trkpt lat="36.8463150" lon="-2.9488140">
        <ele>337.4</ele>
        <time>2021-03-02T10:22:14Z</time>
      </trkpt>
      <trkpt lat="36.8463050" lon="-2.9488460">
        <ele>337.4</ele>
        <time>2021-03-02T10:22:15Z</time>
      </trkpt>
      <trkpt lat="36.8462890" lon="-2.9488750">
        <ele>337.4</ele>
        <time>2021-03-02T10:22:16Z</time>
      </trkpt>
      <trkpt lat="36.8462740" lon="-2.9489030">
        <ele>337.4</ele>
        <time>2021-03-02T10:22:17Z</time>
      </trkpt>
      <trkpt lat="36.8462540" lon="-2.9489320">
        <ele>337.2</ele>
        <time>2021-03-02T10:22:18Z</time>
      </trkpt>
      <trkpt lat="36.8462340" lon="-2.9489650">
        <ele>337.2</ele>
        <time>2021-03-02T10:22:19Z</time>
      </trkpt>
      <trkpt lat="36.8462140" lon="-2.9489960">
        <ele>337.2</ele>
        <time>2021-03-02T10:22:20Z</time>
      </trkpt>
      <trkpt lat="36.8461940" lon="-2.9490340">
        <ele>337.0</ele>
        <time>2021-03-02T10:22:21Z</time>
      </trkpt>
      <trkpt lat="36.8461710" lon="-2.9490720">
        <ele>337.0</ele>
        <time>2021-03-02T10:22:22Z</time>
      </trkpt>
      <trkpt lat="36.8461480" lon="-2.9491210">
        <ele>336.8</ele>
        <time>2021-03-02T10:22:23Z</time>
      </trkpt>
      <trkpt lat="36.8461320" lon="-2.9491670">
        <ele>336.8</ele>
        <time>2021-03-02T10:22:24Z</time>
      </trkpt>
      <trkpt lat="36.8461210" lon="-2.9491920">
        <ele>336.6</ele>
        <time>2021-03-02T10:22:25Z</time>
      </trkpt>
      <trkpt lat="36.8461050" lon="-2.9492170">
        <ele>336.4</ele>
        <time>2021-03-02T10:22:26Z</time>
      </trkpt>
      <trkpt lat="36.8460940" lon="-2.9492410">
        <ele>336.2</ele>
        <time>2021-03-02T10:22:27Z</time>
      </trkpt>
      <trkpt lat="36.8460800" lon="-2.9492710">
        <ele>336.2</ele>
        <time>2021-03-02T10:22:28Z</time>
      </trkpt>
      <trkpt lat="36.8460610" lon="-2.9493080">
        <ele>336.0</ele>
        <time>2021-03-02T10:22:29Z</time>
      </trkpt>
      <trkpt lat="36.8460420" lon="-2.9493420">
        <ele>336.0</ele>
        <time>2021-03-02T10:22:30Z</time>
      </trkpt>
      <trkpt lat="36.8460210" lon="-2.9493720">
        <ele>335.8</ele>
        <time>2021-03-02T10:22:31Z</time>
      </trkpt>
      <trkpt lat="36.8459920" lon="-2.9494040">
        <ele>335.8</ele>
        <time>2021-03-02T10:22:32Z</time>
      </trkpt>
      <trkpt lat="36.8459720" lon="-2.9494320">
        <ele>335.8</ele>
        <time>2021-03-02T10:22:33Z</time>
      </trkpt>
      <trkpt lat="36.8459620" lon="-2.9494530">
        <ele>335.8</ele>
        <time>2021-03-02T10:22:34Z</time>
      </trkpt>
      <trkpt lat="36.8459540" lon="-2.9494690">
        <ele>335.6</ele>
        <time>2021-03-02T10:22:35Z</time>
      </trkpt>
      <trkpt lat="36.8459310" lon="-2.9494970">
        <ele>335.6</ele>
        <time>2021-03-02T10:22:36Z</time>
      </trkpt>
      <trkpt lat="36.8459130" lon="-2.9495290">
        <ele>335.6</ele>
        <time>2021-03-02T10:22:37Z</time>
      </trkpt>
      <trkpt lat="36.8459000" lon="-2.9495440">
        <ele>335.6</ele>
        <time>2021-03-02T10:22:38Z</time>
      </trkpt>
      <trkpt lat="36.8458990" lon="-2.9495540">
        <ele>335.6</ele>
        <time>2021-03-02T10:22:39Z</time>
      </trkpt>
      <trkpt lat="36.8458820" lon="-2.9495630">
        <ele>335.4</ele>
        <time>2021-03-02T10:22:40Z</time>
      </trkpt>
      <trkpt lat="36.8458580" lon="-2.9495570">
        <ele>335.2</ele>
        <time>2021-03-02T10:22:41Z</time>
      </trkpt>
      <trkpt lat="36.8458230" lon="-2.9495490">
        <ele>335.0</ele>
        <time>2021-03-02T10:22:42Z</time>
      </trkpt>
      <trkpt lat="36.8457820" lon="-2.9495290">
        <ele>335.0</ele>
        <time>2021-03-02T10:22:43Z</time>
      </trkpt>
      <trkpt lat="36.8457290" lon="-2.9495080">
        <ele>334.6</ele>
        <time>2021-03-02T10:22:44Z</time>
      </trkpt>
      <trkpt lat="36.8456770" lon="-2.9494800">
        <ele>334.4</ele>
        <time>2021-03-02T10:22:45Z</time>
      </trkpt>
      <trkpt lat="36.8456290" lon="-2.9494470">
        <ele>334.0</ele>
        <time>2021-03-02T10:22:46Z</time>
      </trkpt>
      <trkpt lat="36.8455800" lon="-2.9494100">
        <ele>333.8</ele>
        <time>2021-03-02T10:22:47Z</time>
      </trkpt>
      <trkpt lat="36.8455310" lon="-2.9493670">
        <ele>333.6</ele>
        <time>2021-03-02T10:22:48Z</time>
      </trkpt>
      <trkpt lat="36.8454830" lon="-2.9493090">
        <ele>333.2</ele>
        <time>2021-03-02T10:22:49Z</time>
      </trkpt>
      <trkpt lat="36.8454370" lon="-2.9492490">
        <ele>333.0</ele>
        <time>2021-03-02T10:22:50Z</time>
      </trkpt>
      <trkpt lat="36.8453820" lon="-2.9492030">
        <ele>332.8</ele>
        <time>2021-03-02T10:22:51Z</time>
      </trkpt>
      <trkpt lat="36.8453370" lon="-2.9491450">
        <ele>332.6</ele>
        <time>2021-03-02T10:22:52Z</time>
      </trkpt>
      <trkpt lat="36.8452920" lon="-2.9490980">
        <ele>332.4</ele>
        <time>2021-03-02T10:22:53Z</time>
      </trkpt>
      <trkpt lat="36.8452440" lon="-2.9490440">
        <ele>332.0</ele>
        <time>2021-03-02T10:22:54Z</time>
      </trkpt>
      <trkpt lat="36.8451930" lon="-2.9489900">
        <ele>332.0</ele>
        <time>2021-03-02T10:22:55Z</time>
      </trkpt>
      <trkpt lat="36.8451420" lon="-2.9489380">
        <ele>331.8</ele>
        <time>2021-03-02T10:22:56Z</time>
      </trkpt>
      <trkpt lat="36.8450900" lon="-2.9488810">
        <ele>331.8</ele>
        <time>2021-03-02T10:22:57Z</time>
      </trkpt>
      <trkpt lat="36.8450410" lon="-2.9488290">
        <ele>331.6</ele>
        <time>2021-03-02T10:22:58Z</time>
      </trkpt>
      <trkpt lat="36.8449950" lon="-2.9487740">
        <ele>331.4</ele>
        <time>2021-03-02T10:22:59Z</time>
      </trkpt>
      <trkpt lat="36.8449490" lon="-2.9487200">
        <ele>331.4</ele>
        <time>2021-03-02T10:23:00Z</time>
      </trkpt>
      <trkpt lat="36.8448990" lon="-2.9486710">
        <ele>331.4</ele>
        <time>2021-03-02T10:23:01Z</time>
      </trkpt>
      <trkpt lat="36.8448500" lon="-2.9486260">
        <ele>331.4</ele>
        <time>2021-03-02T10:23:02Z</time>
      </trkpt>
      <trkpt lat="36.8447990" lon="-2.9485810">
        <ele>331.2</ele>
        <time>2021-03-02T10:23:03Z</time>
      </trkpt>
      <trkpt lat="36.8447470" lon="-2.9485410">
        <ele>331.2</ele>
        <time>2021-03-02T10:23:04Z</time>
      </trkpt>
      <trkpt lat="36.8446960" lon="-2.9484940">
        <ele>331.0</ele>
        <time>2021-03-02T10:23:05Z</time>
      </trkpt>
      <trkpt lat="36.8446450" lon="-2.9484460">
        <ele>331.0</ele>
        <time>2021-03-02T10:23:06Z</time>
      </trkpt>
      <trkpt lat="36.8445930" lon="-2.9483940">
        <ele>331.0</ele>
        <time>2021-03-02T10:23:07Z</time>
      </trkpt>
      <trkpt lat="36.8445420" lon="-2.9483420">
        <ele>330.8</ele>
        <time>2021-03-02T10:23:08Z</time>
      </trkpt>
      <trkpt lat="36.8444840" lon="-2.9482920">
        <ele>330.8</ele>
        <time>2021-03-02T10:23:09Z</time>
      </trkpt>
      <trkpt lat="36.8444260" lon="-2.9482440">
        <ele>330.6</ele>
        <time>2021-03-02T10:23:10Z</time>
      </trkpt>
      <trkpt lat="36.8443670" lon="-2.9481960">
        <ele>330.4</ele>
        <time>2021-03-02T10:23:11Z</time>
      </trkpt>
      <trkpt lat="36.8442940" lon="-2.9481640">
        <ele>330.0</ele>
        <time>2021-03-02T10:23:12Z</time>
      </trkpt>
      <trkpt lat="36.8442250" lon="-2.9481340">
        <ele>329.8</ele>
        <time>2021-03-02T10:23:13Z</time>
      </trkpt>
      <trkpt lat="36.8441570" lon="-2.9481020">
        <ele>329.6</ele>
        <time>2021-03-02T10:23:14Z</time>
      </trkpt>
      <trkpt lat="36.8440840" lon="-2.9480740">
        <ele>329.2</ele>
        <time>2021-03-02T10:23:15Z</time>
      </trkpt>
      <trkpt lat="36.8440120" lon="-2.9480470">
        <ele>329.0</ele>
        <time>2021-03-02T10:23:16Z</time>
      </trkpt>
      <trkpt lat="36.8439370" lon="-2.9480220">
        <ele>328.6</ele>
        <time>2021-03-02T10:23:17Z</time>
      </trkpt>
      <trkpt lat="36.8438600" lon="-2.9479940">
        <ele>328.4</ele>
        <time>2021-03-02T10:23:18Z</time>
      </trkpt>
      <trkpt lat="36.8437830" lon="-2.9479690">
        <ele>328.0</ele>
        <time>2021-03-02T10:23:19Z</time>
      </trkpt>
      <trkpt lat="36.8437080" lon="-2.9479400">
        <ele>327.4</ele>
        <time>2021-03-02T10:23:20Z</time>
      </trkpt>
      <trkpt lat="36.8436310" lon="-2.9479190">
        <ele>327.2</ele>
        <time>2021-03-02T10:23:21Z</time>
      </trkpt>
      <trkpt lat="36.8435530" lon="-2.9479010">
        <ele>326.8</ele>
        <time>2021-03-02T10:23:22Z</time>
      </trkpt>
      <trkpt lat="36.8434750" lon="-2.9478900">
        <ele>326.6</ele>
        <time>2021-03-02T10:23:23Z</time>
      </trkpt>
      <trkpt lat="36.8433970" lon="-2.9478840">
        <ele>326.2</ele>
        <time>2021-03-02T10:23:24Z</time>
      </trkpt>
      <trkpt lat="36.8433320" lon="-2.9478740">
        <ele>326.0</ele>
        <time>2021-03-02T10:23:25Z</time>
      </trkpt>
      <trkpt lat="36.8432740" lon="-2.9478650">
        <ele>325.8</ele>
        <time>2021-03-02T10:23:26Z</time>
      </trkpt>
      <trkpt lat="36.8432170" lon="-2.9478560">
        <ele>325.6</ele>
        <time>2021-03-02T10:23:27Z</time>
      </trkpt>
      <trkpt lat="36.8431620" lon="-2.9478480">
        <ele>325.6</ele>
        <time>2021-03-02T10:23:28Z</time>
      </trkpt>
      <trkpt lat="36.8431010" lon="-2.9478410">
        <ele>325.4</ele>
        <time>2021-03-02T10:23:29Z</time>
      </trkpt>
      <trkpt lat="36.8430370" lon="-2.9478340">
        <ele>325.2</ele>
        <time>2021-03-02T10:23:30Z</time>
      </trkpt>
      <trkpt lat="36.8429690" lon="-2.9478250">
        <ele>324.8</ele>
        <time>2021-03-02T10:23:31Z</time>
      </trkpt>
      <trkpt lat="36.8428960" lon="-2.9478140">
        <ele>324.4</ele>
        <time>2021-03-02T10:23:32Z</time>
      </trkpt>
      <trkpt lat="36.8428190" lon="-2.9478020">
        <ele>324.2</ele>
        <time>2021-03-02T10:23:33Z</time>
      </trkpt>
      <trkpt lat="36.8427460" lon="-2.9478020">
        <ele>323.8</ele>
        <time>2021-03-02T10:23:34Z</time>
      </trkpt>
      <trkpt lat="36.8426690" lon="-2.9478050">
        <ele>323.4</ele>
        <time>2021-03-02T10:23:35Z</time>
      </trkpt>
      <trkpt lat="36.8425890" lon="-2.9478040">
        <ele>323.0</ele>
        <time>2021-03-02T10:23:36Z</time>
      </trkpt>
      <trkpt lat="36.8425070" lon="-2.9478030">
        <ele>322.6</ele>
        <time>2021-03-02T10:23:37Z</time>
      </trkpt>
      <trkpt lat="36.8424220" lon="-2.9478060">
        <ele>322.0</ele>
        <time>2021-03-02T10:23:38Z</time>
      </trkpt>
      <trkpt lat="36.8423330" lon="-2.9478080">
        <ele>321.4</ele>
        <time>2021-03-02T10:23:39Z</time>
      </trkpt>
      <trkpt lat="36.8422470" lon="-2.9478090">
        <ele>321.2</ele>
        <time>2021-03-02T10:23:40Z</time>
      </trkpt>
      <trkpt lat="36.8421630" lon="-2.9478200">
        <ele>320.4</ele>
        <time>2021-03-02T10:23:41Z</time>
      </trkpt>
      <trkpt lat="36.8420740" lon="-2.9478280">
        <ele>320.2</ele>
        <time>2021-03-02T10:23:42Z</time>
      </trkpt>
      <trkpt lat="36.8419830" lon="-2.9478330">
        <ele>319.6</ele>
        <time>2021-03-02T10:23:43Z</time>
      </trkpt>
      <trkpt lat="36.8418920" lon="-2.9478380">
        <ele>319.2</ele>
        <time>2021-03-02T10:23:44Z</time>
      </trkpt>
      <trkpt lat="36.8418010" lon="-2.9478410">
        <ele>318.8</ele>
        <time>2021-03-02T10:23:45Z</time>
      </trkpt>
      <trkpt lat="36.8417160" lon="-2.9478190">
        <ele>318.4</ele>
        <time>2021-03-02T10:23:46Z</time>
      </trkpt>
      <trkpt lat="36.8416410" lon="-2.9477960">
        <ele>318.2</ele>
        <time>2021-03-02T10:23:47Z</time>
      </trkpt>
      <trkpt lat="36.8415730" lon="-2.9477670">
        <ele>317.6</ele>
        <time>2021-03-02T10:23:48Z</time>
      </trkpt>
      <trkpt lat="36.8415190" lon="-2.9477150">
        <ele>317.4</ele>
        <time>2021-03-02T10:23:49Z</time>
      </trkpt>
      <trkpt lat="36.8414750" lon="-2.9476460">
        <ele>317.2</ele>
        <time>2021-03-02T10:23:50Z</time>
      </trkpt>
      <trkpt lat="36.8414430" lon="-2.9475680">
        <ele>316.8</ele>
        <time>2021-03-02T10:23:51Z</time>
      </trkpt>
      <trkpt lat="36.8414230" lon="-2.9474860">
        <ele>316.8</ele>
        <time>2021-03-02T10:23:52Z</time>
      </trkpt>
      <trkpt lat="36.8414160" lon="-2.9474110">
        <ele>316.8</ele>
        <time>2021-03-02T10:23:53Z</time>
      </trkpt>
      <trkpt lat="36.8414200" lon="-2.9473450">
        <ele>316.8</ele>
        <time>2021-03-02T10:23:54Z</time>
      </trkpt>
      <trkpt lat="36.8414230" lon="-2.9472940">
        <ele>316.8</ele>
        <time>2021-03-02T10:23:55Z</time>
      </trkpt>
      <trkpt lat="36.8414220" lon="-2.9472480">
        <ele>316.6</ele>
        <time>2021-03-02T10:23:56Z</time>
      </trkpt>
      <trkpt lat="36.8414190" lon="-2.9472010">
        <ele>316.6</ele>
        <time>2021-03-02T10:23:57Z</time>
      </trkpt>
      <trkpt lat="36.8414170" lon="-2.9471540">
        <ele>316.8</ele>
        <time>2021-03-02T10:23:58Z</time>
      </trkpt>
      <trkpt lat="36.8414190" lon="-2.9471060">
        <ele>316.8</ele>
        <time>2021-03-02T10:23:59Z</time>
      </trkpt>
      <trkpt lat="36.8414200" lon="-2.9470560">
        <ele>316.8</ele>
        <time>2021-03-02T10:24:00Z</time>
      </trkpt>
      <trkpt lat="36.8414200" lon="-2.9470100">
        <ele>316.8</ele>
        <time>2021-03-02T10:24:01Z</time>
      </trkpt>
      <trkpt lat="36.8414190" lon="-2.9469620">
        <ele>316.8</ele>
        <time>2021-03-02T10:24:02Z</time>
      </trkpt>
      <trkpt lat="36.8414160" lon="-2.9469110">
        <ele>316.8</ele>
        <time>2021-03-02T10:24:03Z</time>
      </trkpt>
      <trkpt lat="36.8414150" lon="-2.9468630">
        <ele>316.8</ele>
        <time>2021-03-02T10:24:04Z</time>
      </trkpt>
      <trkpt lat="36.8414130" lon="-2.9468240">
        <ele>316.6</ele>
        <time>2021-03-02T10:24:05Z</time>
      </trkpt>
      <trkpt lat="36.8414110" lon="-2.9467940">
        <ele>316.6</ele>
        <time>2021-03-02T10:24:06Z</time>
      </trkpt>
      <trkpt lat="36.8414120" lon="-2.9467740">
        <ele>316.6</ele>
        <time>2021-03-02T10:24:07Z</time>
      </trkpt>
      <trkpt lat="36.8414170" lon="-2.9467540">
        <ele>316.6</ele>
        <time>2021-03-02T10:24:08Z</time>
      </trkpt>
      <trkpt lat="36.8414150" lon="-2.9467350">
        <ele>316.6</ele>
        <time>2021-03-02T10:24:09Z</time>
      </trkpt>
      <trkpt lat="36.8414100" lon="-2.9467150">
        <ele>316.6</ele>
        <time>2021-03-02T10:24:10Z</time>
      </trkpt>
      <trkpt lat="36.8414130" lon="-2.9467030">
        <ele>316.6</ele>
        <time>2021-03-02T10:24:11Z</time>
      </trkpt>
      <trkpt lat="36.8414160" lon="-2.9466940">
        <ele>316.6</ele>
        <time>2021-03-02T10:24:12Z</time>
      </trkpt>
      <trkpt lat="36.8414180" lon="-2.9466860">
        <ele>316.6</ele>
        <time>2021-03-02T10:24:13Z</time>
      </trkpt>
      <trkpt lat="36.8414170" lon="-2.9466770">
        <ele>316.6</ele>
        <time>2021-03-02T10:24:14Z</time>
      </trkpt>
      <trkpt lat="36.8414270" lon="-2.9466560">
        <ele>316.6</ele>
        <time>2021-03-02T10:24:15Z</time>
      </trkpt>
      <trkpt lat="36.8414230" lon="-2.9466370">
        <ele>316.6</ele>
        <time>2021-03-02T10:24:16Z</time>
      </trkpt>
      <trkpt lat="36.8414270" lon="-2.9466160">
        <ele>316.4</ele>
        <time>2021-03-02T10:24:17Z</time>
      </trkpt>
      <trkpt lat="36.8414360" lon="-2.9465940">
        <ele>316.4</ele>
        <time>2021-03-02T10:24:18Z</time>
      </trkpt>
      <trkpt lat="36.8414410" lon="-2.9465750">
        <ele>316.4</ele>
        <time>2021-03-02T10:24:19Z</time>
      </trkpt>
      <trkpt lat="36.8414430" lon="-2.9465560">
        <ele>316.4</ele>
        <time>2021-03-02T10:24:20Z</time>
      </trkpt>
      <trkpt lat="36.8414500" lon="-2.9465390">
        <ele>316.2</ele>
        <time>2021-03-02T10:24:21Z</time>
      </trkpt>
      <trkpt lat="36.8414580" lon="-2.9465230">
        <ele>316.2</ele>
        <time>2021-03-02T10:24:22Z</time>
      </trkpt>
      <trkpt lat="36.8414650" lon="-2.9465030">
        <ele>316.2</ele>
        <time>2021-03-02T10:24:23Z</time>
      </trkpt>
      <trkpt lat="36.8414740" lon="-2.9464770">
        <ele>316.2</ele>
        <time>2021-03-02T10:24:24Z</time>
      </trkpt>
      <trkpt lat="36.8414820" lon="-2.9464510">
        <ele>316.2</ele>
        <time>2021-03-02T10:24:25Z</time>
      </trkpt>
      <trkpt lat="36.8414800" lon="-2.9464250">
        <ele>316.2</ele>
        <time>2021-03-02T10:24:26Z</time>
      </trkpt>
      <trkpt lat="36.8414770" lon="-2.9464000">
        <ele>316.2</ele>
        <time>2021-03-02T10:24:27Z</time>
      </trkpt>
      <trkpt lat="36.8414770" lon="-2.9463760">
        <ele>316.0</ele>
        <time>2021-03-02T10:24:28Z</time>
      </trkpt>
      <trkpt lat="36.8414780" lon="-2.9463630">
        <ele>316.0</ele>
        <time>2021-03-02T10:24:29Z</time>
      </trkpt>
      <trkpt lat="36.8414770" lon="-2.9463590">
        <ele>315.8</ele>
        <time>2021-03-02T10:24:30Z</time>
      </trkpt>
      <trkpt lat="36.8414750" lon="-2.9463570">
        <ele>315.8</ele>
        <time>2021-03-02T10:24:31Z</time>
      </trkpt>
      <trkpt lat="36.8414730" lon="-2.9463530">
        <ele>315.8</ele>
        <time>2021-03-02T10:24:32Z</time>
      </trkpt>
      <trkpt lat="36.8414710" lon="-2.9463450">
        <ele>315.8</ele>
        <time>2021-03-02T10:24:33Z</time>
      </trkpt>
      <trkpt lat="36.8414680" lon="-2.9463340">
        <ele>315.8</ele>
        <time>2021-03-02T10:24:34Z</time>
      </trkpt>
      <trkpt lat="36.8414630" lon="-2.9463250">
        <ele>315.8</ele>
        <time>2021-03-02T10:24:35Z</time>
      </trkpt>
      <trkpt lat="36.8414610" lon="-2.9463160">
        <ele>315.8</ele>
        <time>2021-03-02T10:24:36Z</time>
      </trkpt>
      <trkpt lat="36.8414590" lon="-2.9463080">
        <ele>315.8</ele>
        <time>2021-03-02T10:24:37Z</time>
      </trkpt>
      <trkpt lat="36.8414600" lon="-2.9462980">
        <ele>315.6</ele>
        <time>2021-03-02T10:24:38Z</time>
      </trkpt>
      <trkpt lat="36.8414620" lon="-2.9462780">
        <ele>315.6</ele>
        <time>2021-03-02T10:24:39Z</time>
      </trkpt>
      <trkpt lat="36.8414630" lon="-2.9462510">
        <ele>315.6</ele>
        <time>2021-03-02T10:24:40Z</time>
      </trkpt>
      <trkpt lat="36.8414650" lon="-2.9462150">
        <ele>315.6</ele>
        <time>2021-03-02T10:24:41Z</time>
      </trkpt>
      <trkpt lat="36.8414630" lon="-2.9461740">
        <ele>315.6</ele>
        <time>2021-03-02T10:24:42Z</time>
      </trkpt>
      <trkpt lat="36.8414510" lon="-2.9461340">
        <ele>315.4</ele>
        <time>2021-03-02T10:24:43Z</time>
      </trkpt>
      <trkpt lat="36.8414260" lon="-2.9460970">
        <ele>315.4</ele>
        <time>2021-03-02T10:24:44Z</time>
      </trkpt>
      <trkpt lat="36.8413930" lon="-2.9460700">
        <ele>315.2</ele>
        <time>2021-03-02T10:24:45Z</time>
      </trkpt>
      <trkpt lat="36.8413540" lon="-2.9460530">
        <ele>315.2</ele>
        <time>2021-03-02T10:24:46Z</time>
      </trkpt>
      <trkpt lat="36.8413110" lon="-2.9460470">
        <ele>315.0</ele>
        <time>2021-03-02T10:24:47Z</time>
      </trkpt>
      <trkpt lat="36.8412670" lon="-2.9460510">
        <ele>314.8</ele>
        <time>2021-03-02T10:24:48Z</time>
      </trkpt>
      <trkpt lat="36.8412250" lon="-2.9460620">
        <ele>314.6</ele>
        <time>2021-03-02T10:24:49Z</time>
      </trkpt>
      <trkpt lat="36.8411890" lon="-2.9460750">
        <ele>314.4</ele>
        <time>2021-03-02T10:24:50Z</time>
      </trkpt>
      <trkpt lat="36.8411670" lon="-2.9460820">
        <ele>314.4</ele>
        <time>2021-03-02T10:24:51Z</time>
      </trkpt>
      <trkpt lat="36.8411520" lon="-2.9460790">
        <ele>314.4</ele>
        <time>2021-03-02T10:24:52Z</time>
      </trkpt>
      <trkpt lat="36.8411370" lon="-2.9460640">
        <ele>314.4</ele>
        <time>2021-03-02T10:24:53Z</time>
      </trkpt>
      <trkpt lat="36.8411260" lon="-2.9460350">
        <ele>314.4</ele>
        <time>2021-03-02T10:24:54Z</time>
      </trkpt>
      <trkpt lat="36.8411310" lon="-2.9460050">
        <ele>314.2</ele>
        <time>2021-03-02T10:24:55Z</time>
      </trkpt>
      <trkpt lat="36.8411540" lon="-2.9459880">
        <ele>314.2</ele>
        <time>2021-03-02T10:24:56Z</time>
      </trkpt>
      <trkpt lat="36.8411840" lon="-2.9459830">
        <ele>314.4</ele>
        <time>2021-03-02T10:24:57Z</time>
      </trkpt>
      <trkpt lat="36.8412120" lon="-2.9459790">
        <ele>314.4</ele>
        <time>2021-03-02T10:24:58Z</time>
      </trkpt>
      <trkpt lat="36.8412360" lon="-2.9459730">
        <ele>314.4</ele>
        <time>2021-03-02T10:24:59Z</time>
      </trkpt>
      <trkpt lat="36.8412470" lon="-2.9459690">
        <ele>314.4</ele>
        <time>2021-03-02T10:25:00Z</time>
      </trkpt>
      <trkpt lat="36.8412470" lon="-2.9459690">
        <ele>314.4</ele>
        <time>2021-03-02T10:25:01Z</time>
      </trkpt>
      <trkpt lat="36.8412920" lon="-2.9459580">
        <ele>315.0</ele>
        <time>2021-03-02T11:10:07Z</time>
      </trkpt>
      <trkpt lat="36.8412910" lon="-2.9459560">
        <ele>315.0</ele>
        <time>2021-03-02T11:10:08Z</time>
      </trkpt>
      <trkpt lat="36.8412890" lon="-2.9459510">
        <ele>315.0</ele>
        <time>2021-03-02T11:10:09Z</time>
      </trkpt>
      <trkpt lat="36.8412890" lon="-2.9459370">
        <ele>315.0</ele>
        <time>2021-03-02T11:10:10Z</time>
      </trkpt>
      <trkpt lat="36.8412930" lon="-2.9459210">
        <ele>315.0</ele>
        <time>2021-03-02T11:10:11Z</time>
      </trkpt>
      <trkpt lat="36.8413040" lon="-2.9459130">
        <ele>315.2</ele>
        <time>2021-03-02T11:10:12Z</time>
      </trkpt>
      <trkpt lat="36.8413180" lon="-2.9459080">
        <ele>315.2</ele>
        <time>2021-03-02T11:10:13Z</time>
      </trkpt>
      <trkpt lat="36.8413340" lon="-2.9459120">
        <ele>315.4</ele>
        <time>2021-03-02T11:10:14Z</time>
      </trkpt>
      <trkpt lat="36.8413490" lon="-2.9459150">
        <ele>315.6</ele>
        <time>2021-03-02T11:10:15Z</time>
      </trkpt>
      <trkpt lat="36.8413620" lon="-2.9459170">
        <ele>315.6</ele>
        <time>2021-03-02T11:10:16Z</time>
      </trkpt>
      <trkpt lat="36.8413760" lon="-2.9459140">
        <ele>315.6</ele>
        <time>2021-03-02T11:10:17Z</time>
      </trkpt>
      <trkpt lat="36.8413920" lon="-2.9459100">
        <ele>315.6</ele>
        <time>2021-03-02T11:10:18Z</time>
      </trkpt>
      <trkpt lat="36.8414040" lon="-2.9458980">
        <ele>315.6</ele>
        <time>2021-03-02T11:10:19Z</time>
      </trkpt>
      <trkpt lat="36.8414140" lon="-2.9458910">
        <ele>315.6</ele>
        <time>2021-03-02T11:10:20Z</time>
      </trkpt>
      <trkpt lat="36.8414290" lon="-2.9458830">
        <ele>315.8</ele>
        <time>2021-03-02T11:10:21Z</time>
      </trkpt>
      <trkpt lat="36.8414480" lon="-2.9458910">
        <ele>315.8</ele>
        <time>2021-03-02T11:10:22Z</time>
      </trkpt>
      <trkpt lat="36.8414580" lon="-2.9458890">
        <ele>316.0</ele>
        <time>2021-03-02T11:10:23Z</time>
      </trkpt>
      <trkpt lat="36.8414660" lon="-2.9458990">
        <ele>316.0</ele>
        <time>2021-03-02T11:10:24Z</time>
      </trkpt>
      <trkpt lat="36.8414800" lon="-2.9459050">
        <ele>316.2</ele>
        <time>2021-03-02T11:10:25Z</time>
      </trkpt>
      <trkpt lat="36.8414950" lon="-2.9459040">
        <ele>316.2</ele>
        <time>2021-03-02T11:10:26Z</time>
      </trkpt>
      <trkpt lat="36.8415090" lon="-2.9458980">
        <ele>316.4</ele>
        <time>2021-03-02T11:10:27Z</time>
      </trkpt>
      <trkpt lat="36.8415230" lon="-2.9458990">
        <ele>316.6</ele>
        <time>2021-03-02T11:10:28Z</time>
      </trkpt>
      <trkpt lat="36.8415350" lon="-2.9459030">
        <ele>316.6</ele>
        <time>2021-03-02T11:10:29Z</time>
      </trkpt>
      <trkpt lat="36.8415370" lon="-2.9459040">
        <ele>316.6</ele>
        <time>2021-03-02T11:10:30Z</time>
      </trkpt>
      <trkpt lat="36.8415460" lon="-2.9459020">
        <ele>316.6</ele>
        <time>2021-03-02T11:10:31Z</time>
      </trkpt>
      <trkpt lat="36.8415630" lon="-2.9458970">
        <ele>316.6</ele>
        <time>2021-03-02T11:10:32Z</time>
      </trkpt>
      <trkpt lat="36.8415850" lon="-2.9458850">
        <ele>316.6</ele>
        <time>2021-03-02T11:10:33Z</time>
      </trkpt>
      <trkpt lat="36.8416130" lon="-2.9458750">
        <ele>316.6</ele>
        <time>2021-03-02T11:10:34Z</time>
      </trkpt>
      <trkpt lat="36.8416450" lon="-2.9458590">
        <ele>316.8</ele>
        <time>2021-03-02T11:10:35Z</time>
      </trkpt>
      <trkpt lat="36.8416690" lon="-2.9458280">
        <ele>317.0</ele>
        <time>2021-03-02T11:10:36Z</time>
      </trkpt>
      <trkpt lat="36.8416940" lon="-2.9457960">
        <ele>317.2</ele>
        <time>2021-03-02T11:10:37Z</time>
      </trkpt>
      <trkpt lat="36.8417210" lon="-2.9457580">
        <ele>317.4</ele>
        <time>2021-03-02T11:10:38Z</time>
      </trkpt>
      <trkpt lat="36.8417510" lon="-2.9457270">
        <ele>317.6</ele>
        <time>2021-03-02T11:10:39Z</time>
      </trkpt>
      <trkpt lat="36.8417860" lon="-2.9457070">
        <ele>317.6</ele>
        <time>2021-03-02T11:10:40Z</time>
      </trkpt>
      <trkpt lat="36.8418240" lon="-2.9456960">
        <ele>317.8</ele>
        <time>2021-03-02T11:10:41Z</time>
      </trkpt>
      <trkpt lat="36.8418620" lon="-2.9456970">
        <ele>318.0</ele>
        <time>2021-03-02T11:10:42Z</time>
      </trkpt>
      <trkpt lat="36.8418950" lon="-2.9457100">
        <ele>318.2</ele>
        <time>2021-03-02T11:10:43Z</time>
      </trkpt>
      <trkpt lat="36.8419250" lon="-2.9457280">
        <ele>318.2</ele>
        <time>2021-03-02T11:10:44Z</time>
      </trkpt>
      <trkpt lat="36.8419470" lon="-2.9457500">
        <ele>318.4</ele>
        <time>2021-03-02T11:10:45Z</time>
      </trkpt>
      <trkpt lat="36.8419650" lon="-2.9457720">
        <ele>318.6</ele>
        <time>2021-03-02T11:10:46Z</time>
      </trkpt>
      <trkpt lat="36.8419840" lon="-2.9457910">
        <ele>318.8</ele>
        <time>2021-03-02T11:10:47Z</time>
      </trkpt>
      <trkpt lat="36.8420020" lon="-2.9458090">
        <ele>318.8</ele>
        <time>2021-03-02T11:10:48Z</time>
      </trkpt>
      <trkpt lat="36.8420220" lon="-2.9458270">
        <ele>319.0</ele>
        <time>2021-03-02T11:10:49Z</time>
      </trkpt>
      <trkpt lat="36.8420420" lon="-2.9458420">
        <ele>319.0</ele>
        <time>2021-03-02T11:10:50Z</time>
      </trkpt>
      <trkpt lat="36.8420620" lon="-2.9458570">
        <ele>319.0</ele>
        <time>2021-03-02T11:10:51Z</time>
      </trkpt>
      <trkpt lat="36.8420820" lon="-2.9458680">
        <ele>319.2</ele>
        <time>2021-03-02T11:10:52Z</time>
      </trkpt>
      <trkpt lat="36.8421020" lon="-2.9458840">
        <ele>319.2</ele>
        <time>2021-03-02T11:10:53Z</time>
      </trkpt>
      <trkpt lat="36.8421210" lon="-2.9459010">
        <ele>319.4</ele>
        <time>2021-03-02T11:10:54Z</time>
      </trkpt>
      <trkpt lat="36.8421380" lon="-2.9459180">
        <ele>319.4</ele>
        <time>2021-03-02T11:10:55Z</time>
      </trkpt>
      <trkpt lat="36.8421540" lon="-2.9459350">
        <ele>319.6</ele>
        <time>2021-03-02T11:10:56Z</time>
      </trkpt>
      <trkpt lat="36.8421720" lon="-2.9459490">
        <ele>319.6</ele>
        <time>2021-03-02T11:10:57Z</time>
      </trkpt>
      <trkpt lat="36.8421880" lon="-2.9459610">
        <ele>319.8</ele>
        <time>2021-03-02T11:10:58Z</time>
      </trkpt>
      <trkpt lat="36.8422030" lon="-2.9459760">
        <ele>319.8</ele>
        <time>2021-03-02T11:10:59Z</time>
      </trkpt>
      <trkpt lat="36.8422160" lon="-2.9459870">
        <ele>320.0</ele>
        <time>2021-03-02T11:11:00Z</time>
      </trkpt>
      <trkpt lat="36.8422280" lon="-2.9459990">
        <ele>320.0</ele>
        <time>2021-03-02T11:11:01Z</time>
      </trkpt>
      <trkpt lat="36.8422390" lon="-2.9460100">
        <ele>320.0</ele>
        <time>2021-03-02T11:11:02Z</time>
      </trkpt>
      <trkpt lat="36.8422520" lon="-2.9460230">
        <ele>320.0</ele>
        <time>2021-03-02T11:11:03Z</time>
      </trkpt>
      <trkpt lat="36.8422650" lon="-2.9460370">
        <ele>320.2</ele>
        <time>2021-03-02T11:11:04Z</time>
      </trkpt>
      <trkpt lat="36.8422800" lon="-2.9460510">
        <ele>320.4</ele>
        <time>2021-03-02T11:11:05Z</time>
      </trkpt>
      <trkpt lat="36.8422960" lon="-2.9460640">
        <ele>320.4</ele>
        <time>2021-03-02T11:11:06Z</time>
      </trkpt>
      <trkpt lat="36.8423130" lon="-2.9460800">
        <ele>320.6</ele>
        <time>2021-03-02T11:11:07Z</time>
      </trkpt>
      <trkpt lat="36.8423290" lon="-2.9460940">
        <ele>320.8</ele>
        <time>2021-03-02T11:11:08Z</time>
      </trkpt>
      <trkpt lat="36.8423480" lon="-2.9461100">
        <ele>321.0</ele>
        <time>2021-03-02T11:11:09Z</time>
      </trkpt>
      <trkpt lat="36.8423690" lon="-2.9461270">
        <ele>321.2</ele>
        <time>2021-03-02T11:11:10Z</time>
      </trkpt>
      <trkpt lat="36.8423910" lon="-2.9461460">
        <ele>321.2</ele>
        <time>2021-03-02T11:11:11Z</time>
      </trkpt>
      <trkpt lat="36.8424130" lon="-2.9461660">
        <ele>321.2</ele>
        <time>2021-03-02T11:11:12Z</time>
      </trkpt>
      <trkpt lat="36.8424340" lon="-2.9461880">
        <ele>321.2</ele>
        <time>2021-03-02T11:11:13Z</time>
      </trkpt>
      <trkpt lat="36.8424550" lon="-2.9462100">
        <ele>321.2</ele>
        <time>2021-03-02T11:11:14Z</time>
      </trkpt>
      <trkpt lat="36.8424740" lon="-2.9462290">
        <ele>321.4</ele>
        <time>2021-03-02T11:11:15Z</time>
      </trkpt>
      <trkpt lat="36.8424930" lon="-2.9462470">
        <ele>321.8</ele>
        <time>2021-03-02T11:11:16Z</time>
      </trkpt>
      <trkpt lat="36.8425110" lon="-2.9462650">
        <ele>321.8</ele>
        <time>2021-03-02T11:11:17Z</time>
      </trkpt>
      <trkpt lat="36.8425310" lon="-2.9462830">
        <ele>322.0</ele>
        <time>2021-03-02T11:11:18Z</time>
      </trkpt>
      <trkpt lat="36.8425550" lon="-2.9463040">
        <ele>322.0</ele>
        <time>2021-03-02T11:11:19Z</time>
      </trkpt>
      <trkpt lat="36.8425850" lon="-2.9463300">
        <ele>322.2</ele>
        <time>2021-03-02T11:11:20Z</time>
      </trkpt>
      <trkpt lat="36.8426180" lon="-2.9463570">
        <ele>322.4</ele>
        <time>2021-03-02T11:11:21Z</time>
      </trkpt>
      <trkpt lat="36.8426520" lon="-2.9463870">
        <ele>322.6</ele>
        <time>2021-03-02T11:11:22Z</time>
      </trkpt>
      <trkpt lat="36.8426850" lon="-2.9464150">
        <ele>322.8</ele>
        <time>2021-03-02T11:11:23Z</time>
      </trkpt>
      <trkpt lat="36.8427170" lon="-2.9464460">
        <ele>322.8</ele>
        <time>2021-03-02T11:11:24Z</time>
      </trkpt>
      <trkpt lat="36.8427470" lon="-2.9464730">
        <ele>323.0</ele>
        <time>2021-03-02T11:11:25Z</time>
      </trkpt>
      <trkpt lat="36.8427740" lon="-2.9464950">
        <ele>323.0</ele>
        <time>2021-03-02T11:11:26Z</time>
      </trkpt>
      <trkpt lat="36.8428000" lon="-2.9465160">
        <ele>323.4</ele>
        <time>2021-03-02T11:11:27Z</time>
      </trkpt>
      <trkpt lat="36.8428260" lon="-2.9465370">
        <ele>323.6</ele>
        <time>2021-03-02T11:11:28Z</time>
      </trkpt>
      <trkpt lat="36.8428530" lon="-2.9465600">
        <ele>324.0</ele>
        <time>2021-03-02T11:11:29Z</time>
      </trkpt>
      <trkpt lat="36.8428830" lon="-2.9465800">
        <ele>324.4</ele>
        <time>2021-03-02T11:11:30Z</time>
      </trkpt>
      <trkpt lat="36.8429160" lon="-2.9466020">
        <ele>324.4</ele>
        <time>2021-03-02T11:11:31Z</time>
      </trkpt>
      <trkpt lat="36.8429520" lon="-2.9466270">
        <ele>324.8</ele>
        <time>2021-03-02T11:11:32Z</time>
      </trkpt>
      <trkpt lat="36.8429810" lon="-2.9466550">
        <ele>324.8</ele>
        <time>2021-03-02T11:11:33Z</time>
      </trkpt>
      <trkpt lat="36.8430050" lon="-2.9466850">
        <ele>325.0</ele>
        <time>2021-03-02T11:11:34Z</time>
      </trkpt>
      <trkpt lat="36.8430310" lon="-2.9467140">
        <ele>325.0</ele>
        <time>2021-03-02T11:11:35Z</time>
      </trkpt>
      <trkpt lat="36.8430560" lon="-2.9467290">
        <ele>325.2</ele>
        <time>2021-03-02T11:11:36Z</time>
      </trkpt>
      <trkpt lat="36.8430870" lon="-2.9467550">
        <ele>325.4</ele>
        <time>2021-03-02T11:11:37Z</time>
      </trkpt>
      <trkpt lat="36.8431210" lon="-2.9467670">
        <ele>325.6</ele>
        <time>2021-03-02T11:11:38Z</time>
      </trkpt>
      <trkpt lat="36.8431550" lon="-2.9467870">
        <ele>326.0</ele>
        <time>2021-03-02T11:11:39Z</time>
      </trkpt>
      <trkpt lat="36.8431870" lon="-2.9468000">
        <ele>326.0</ele>
        <time>2021-03-02T11:11:40Z</time>
      </trkpt>
      <trkpt lat="36.8432110" lon="-2.9468190">
        <ele>326.2</ele>
        <time>2021-03-02T11:11:41Z</time>
      </trkpt>
      <trkpt lat="36.8432350" lon="-2.9468320">
        <ele>326.2</ele>
        <time>2021-03-02T11:11:42Z</time>
      </trkpt>
      <trkpt lat="36.8432620" lon="-2.9468460">
        <ele>326.4</ele>
        <time>2021-03-02T11:11:43Z</time>
      </trkpt>
      <trkpt lat="36.8432830" lon="-2.9468600">
        <ele>326.4</ele>
        <time>2021-03-02T11:11:44Z</time>
      </trkpt>
      <trkpt lat="36.8433000" lon="-2.9468640">
        <ele>326.6</ele>
        <time>2021-03-02T11:11:45Z</time>
      </trkpt>
      <trkpt lat="36.8433140" lon="-2.9468780">
        <ele>326.6</ele>
        <time>2021-03-02T11:11:46Z</time>
      </trkpt>
      <trkpt lat="36.8433290" lon="-2.9468870">
        <ele>326.8</ele>
        <time>2021-03-02T11:11:47Z</time>
      </trkpt>
      <trkpt lat="36.8433450" lon="-2.9468960">
        <ele>326.8</ele>
        <time>2021-03-02T11:11:48Z</time>
      </trkpt>
      <trkpt lat="36.8433630" lon="-2.9469120">
        <ele>327.0</ele>
        <time>2021-03-02T11:11:49Z</time>
      </trkpt>
      <trkpt lat="36.8433830" lon="-2.9469250">
        <ele>327.2</ele>
        <time>2021-03-02T11:11:50Z</time>
      </trkpt>
      <trkpt lat="36.8434070" lon="-2.9469400">
        <ele>327.2</ele>
        <time>2021-03-02T11:11:51Z</time>
      </trkpt>
      <trkpt lat="36.8434350" lon="-2.9469590">
        <ele>327.4</ele>
        <time>2021-03-02T11:11:52Z</time>
      </trkpt>
      <trkpt lat="36.8434660" lon="-2.9469800">
        <ele>327.4</ele>
        <time>2021-03-02T11:11:53Z</time>
      </trkpt>
      <trkpt lat="36.8434930" lon="-2.9470000">
        <ele>327.6</ele>
        <time>2021-03-02T11:11:54Z</time>
      </trkpt>
      <trkpt lat="36.8435250" lon="-2.9470170">
        <ele>327.6</ele>
        <time>2021-03-02T11:11:55Z</time>
      </trkpt>
      <trkpt lat="36.8435490" lon="-2.9470300">
        <ele>327.8</ele>
        <time>2021-03-02T11:11:56Z</time>
      </trkpt>
      <trkpt lat="36.8435730" lon="-2.9470410">
        <ele>327.8</ele>
        <time>2021-03-02T11:11:57Z</time>
      </trkpt>
      <trkpt lat="36.8435990" lon="-2.9470540">
        <ele>328.0</ele>
        <time>2021-03-02T11:11:58Z</time>
      </trkpt>
      <trkpt lat="36.8436250" lon="-2.9470740">
        <ele>328.0</ele>
        <time>2021-03-02T11:11:59Z</time>
      </trkpt>
      <trkpt lat="36.8436490" lon="-2.9470970">
        <ele>328.2</ele>
        <time>2021-03-02T11:12:00Z</time>
      </trkpt>
      <trkpt lat="36.8436740" lon="-2.9471170">
        <ele>328.2</ele>
        <time>2021-03-02T11:12:01Z</time>
      </trkpt>
      <trkpt lat="36.8437020" lon="-2.9471410">
        <ele>328.4</ele>
        <time>2021-03-02T11:12:02Z</time>
      </trkpt>
      <trkpt lat="36.8437280" lon="-2.9471640">
        <ele>328.6</ele>
        <time>2021-03-02T11:12:03Z</time>
      </trkpt>
      <trkpt lat="36.8437530" lon="-2.9471860">
        <ele>328.8</ele>
        <time>2021-03-02T11:12:04Z</time>
      </trkpt>
      <trkpt lat="36.8437800" lon="-2.9472040">
        <ele>329.0</ele>
        <time>2021-03-02T11:12:05Z</time>
      </trkpt>
      <trkpt lat="36.8438120" lon="-2.9472190">
        <ele>329.2</ele>
        <time>2021-03-02T11:12:06Z</time>
      </trkpt>
      <trkpt lat="36.8438400" lon="-2.9472320">
        <ele>329.4</ele>
        <time>2021-03-02T11:12:07Z</time>
      </trkpt>
      <trkpt lat="36.8438650" lon="-2.9472490">
        <ele>329.4</ele>
        <time>2021-03-02T11:12:08Z</time>
      </trkpt>
      <trkpt lat="36.8438890" lon="-2.9472650">
        <ele>329.6</ele>
        <time>2021-03-02T11:12:09Z</time>
      </trkpt>
      <trkpt lat="36.8439100" lon="-2.9472790">
        <ele>330.0</ele>
        <time>2021-03-02T11:12:10Z</time>
      </trkpt>
      <trkpt lat="36.8439300" lon="-2.9472900">
        <ele>330.0</ele>
        <time>2021-03-02T11:12:11Z</time>
      </trkpt>
      <trkpt lat="36.8439480" lon="-2.9473010">
        <ele>330.2</ele>
        <time>2021-03-02T11:12:12Z</time>
      </trkpt>
      <trkpt lat="36.8439620" lon="-2.9473130">
        <ele>330.4</ele>
        <time>2021-03-02T11:12:13Z</time>
      </trkpt>
      <trkpt lat="36.8439750" lon="-2.9473240">
        <ele>330.4</ele>
        <time>2021-03-02T11:12:14Z</time>
      </trkpt>
      <trkpt lat="36.8439830" lon="-2.9473300">
        <ele>330.4</ele>
        <time>2021-03-02T11:12:15Z</time>
      </trkpt>
      <trkpt lat="36.8439910" lon="-2.9473360">
        <ele>330.4</ele>
        <time>2021-03-02T11:12:16Z</time>
      </trkpt>
      <trkpt lat="36.8440010" lon="-2.9473410">
        <ele>330.4</ele>
        <time>2021-03-02T11:12:17Z</time>
      </trkpt>
      <trkpt lat="36.8440130" lon="-2.9473490">
        <ele>330.4</ele>
        <time>2021-03-02T11:12:18Z</time>
      </trkpt>
      <trkpt lat="36.8440260" lon="-2.9473560">
        <ele>330.4</ele>
        <time>2021-03-02T11:12:19Z</time>
      </trkpt>
      <trkpt lat="36.8440430" lon="-2.9473670">
        <ele>330.4</ele>
        <time>2021-03-02T11:12:20Z</time>
      </trkpt>
      <trkpt lat="36.8440630" lon="-2.9473800">
        <ele>330.4</ele>
        <time>2021-03-02T11:12:21Z</time>
      </trkpt>
      <trkpt lat="36.8440860" lon="-2.9473970">
        <ele>330.4</ele>
        <time>2021-03-02T11:12:22Z</time>
      </trkpt>
      <trkpt lat="36.8441070" lon="-2.9474140">
        <ele>330.6</ele>
        <time>2021-03-02T11:12:23Z</time>
      </trkpt>
      <trkpt lat="36.8441280" lon="-2.9474290">
        <ele>330.8</ele>
        <time>2021-03-02T11:12:24Z</time>
      </trkpt>
      <trkpt lat="36.8441520" lon="-2.9474450">
        <ele>330.8</ele>
        <time>2021-03-02T11:12:25Z</time>
      </trkpt>
      <trkpt lat="36.8441770" lon="-2.9474600">
        <ele>331.0</ele>
        <time>2021-03-02T11:12:26Z</time>
      </trkpt>
      <trkpt lat="36.8442030" lon="-2.9474770">
        <ele>331.2</ele>
        <time>2021-03-02T11:12:27Z</time>
      </trkpt>
      <trkpt lat="36.8442280" lon="-2.9474930">
        <ele>331.4</ele>
        <time>2021-03-02T11:12:28Z</time>
      </trkpt>
      <trkpt lat="36.8442520" lon="-2.9475090">
        <ele>331.4</ele>
        <time>2021-03-02T11:12:29Z</time>
      </trkpt>
      <trkpt lat="36.8442760" lon="-2.9475280">
        <ele>331.8</ele>
        <time>2021-03-02T11:12:30Z</time>
      </trkpt>
      <trkpt lat="36.8443020" lon="-2.9475470">
        <ele>331.8</ele>
        <time>2021-03-02T11:12:31Z</time>
      </trkpt>
      <trkpt lat="36.8443300" lon="-2.9475670">
        <ele>332.0</ele>
        <time>2021-03-02T11:12:32Z</time>
      </trkpt>
      <trkpt lat="36.8443570" lon="-2.9475890">
        <ele>332.2</ele>
        <time>2021-03-02T11:12:33Z</time>
      </trkpt>
      <trkpt lat="36.8443820" lon="-2.9476080">
        <ele>332.2</ele>
        <time>2021-03-02T11:12:34Z</time>
      </trkpt>
      <trkpt lat="36.8444060" lon="-2.9476180">
        <ele>332.4</ele>
        <time>2021-03-02T11:12:35Z</time>
      </trkpt>
      <trkpt lat="36.8444280" lon="-2.9476310">
        <ele>332.6</ele>
        <time>2021-03-02T11:12:36Z</time>
      </trkpt>
      <trkpt lat="36.8444560" lon="-2.9476510">
        <ele>332.6</ele>
        <time>2021-03-02T11:12:37Z</time>
      </trkpt>
      <trkpt lat="36.8444830" lon="-2.9476660">
        <ele>332.6</ele>
        <time>2021-03-02T11:12:38Z</time>
      </trkpt>
      <trkpt lat="36.8445080" lon="-2.9476660">
        <ele>332.8</ele>
        <time>2021-03-02T11:12:39Z</time>
      </trkpt>
      <trkpt lat="36.8445310" lon="-2.9476810">
        <ele>332.8</ele>
        <time>2021-03-02T11:12:40Z</time>
      </trkpt>
      <trkpt lat="36.8445560" lon="-2.9477020">
        <ele>332.8</ele>
        <time>2021-03-02T11:12:41Z</time>
      </trkpt>
      <trkpt lat="36.8445800" lon="-2.9477250">
        <ele>333.0</ele>
        <time>2021-03-02T11:12:42Z</time>
      </trkpt>
      <trkpt lat="36.8446050" lon="-2.9477480">
        <ele>333.0</ele>
        <time>2021-03-02T11:12:43Z</time>
      </trkpt>
      <trkpt lat="36.8446280" lon="-2.9477660">
        <ele>333.2</ele>
        <time>2021-03-02T11:12:44Z</time>
      </trkpt>
      <trkpt lat="36.8446510" lon="-2.9477830">
        <ele>333.2</ele>
        <time>2021-03-02T11:12:45Z</time>
      </trkpt>
      <trkpt lat="36.8446770" lon="-2.9478000">
        <ele>333.4</ele>
        <time>2021-03-02T11:12:46Z</time>
      </trkpt>
      <trkpt lat="36.8447030" lon="-2.9478180">
        <ele>333.4</ele>
        <time>2021-03-02T11:12:47Z</time>
      </trkpt>
      <trkpt lat="36.8447280" lon="-2.9478330">
        <ele>333.6</ele>
        <time>2021-03-02T11:12:48Z</time>
      </trkpt>
      <trkpt lat="36.8447570" lon="-2.9478490">
        <ele>333.6</ele>
        <time>2021-03-02T11:12:49Z</time>
      </trkpt>
      <trkpt lat="36.8447840" lon="-2.9478670">
        <ele>333.6</ele>
        <time>2021-03-02T11:12:50Z</time>
      </trkpt>
      <trkpt lat="36.8448110" lon="-2.9478860">
        <ele>333.6</ele>
        <time>2021-03-02T11:12:51Z</time>
      </trkpt>
      <trkpt lat="36.8448370" lon="-2.9479030">
        <ele>333.8</ele>
        <time>2021-03-02T11:12:52Z</time>
      </trkpt>
      <trkpt lat="36.8448660" lon="-2.9479190">
        <ele>333.8</ele>
        <time>2021-03-02T11:12:53Z</time>
      </trkpt>
      <trkpt lat="36.8448950" lon="-2.9479360">
        <ele>334.0</ele>
        <time>2021-03-02T11:12:54Z</time>
      </trkpt>
      <trkpt lat="36.8449340" lon="-2.9479590">
        <ele>334.0</ele>
        <time>2021-03-02T11:12:55Z</time>
      </trkpt>
      <trkpt lat="36.8449670" lon="-2.9479750">
        <ele>334.2</ele>
        <time>2021-03-02T11:12:56Z</time>
      </trkpt>
      <trkpt lat="36.8450030" lon="-2.9479940">
        <ele>334.4</ele>
        <time>2021-03-02T11:12:57Z</time>
      </trkpt>
      <trkpt lat="36.8450340" lon="-2.9480120">
        <ele>334.4</ele>
        <time>2021-03-02T11:12:58Z</time>
      </trkpt>
      <trkpt lat="36.8450660" lon="-2.9480340">
        <ele>334.6</ele>
        <time>2021-03-02T11:12:59Z</time>
      </trkpt>
      <trkpt lat="36.8450960" lon="-2.9480530">
        <ele>334.6</ele>
        <time>2021-03-02T11:13:00Z</time>
      </trkpt>
      <trkpt lat="36.8451250" lon="-2.9480730">
        <ele>334.8</ele>
        <time>2021-03-02T11:13:01Z</time>
      </trkpt>
      <trkpt lat="36.8451540" lon="-2.9480900">
        <ele>334.8</ele>
        <time>2021-03-02T11:13:02Z</time>
      </trkpt>
      <trkpt lat="36.8451850" lon="-2.9481100">
        <ele>335.0</ele>
        <time>2021-03-02T11:13:03Z</time>
      </trkpt>
      <trkpt lat="36.8452170" lon="-2.9481260">
        <ele>335.0</ele>
        <time>2021-03-02T11:13:04Z</time>
      </trkpt>
      <trkpt lat="36.8452460" lon="-2.9481420">
        <ele>335.0</ele>
        <time>2021-03-02T11:13:05Z</time>
      </trkpt>
      <trkpt lat="36.8452770" lon="-2.9481560">
        <ele>335.2</ele>
        <time>2021-03-02T11:13:06Z</time>
      </trkpt>
      <trkpt lat="36.8453060" lon="-2.9481730">
        <ele>335.2</ele>
        <time>2021-03-02T11:13:07Z</time>
      </trkpt>
      <trkpt lat="36.8453340" lon="-2.9481900">
        <ele>335.4</ele>
        <time>2021-03-02T11:13:08Z</time>
      </trkpt>
      <trkpt lat="36.8453670" lon="-2.9482060">
        <ele>335.6</ele>
        <time>2021-03-02T11:13:09Z</time>
      </trkpt>
      <trkpt lat="36.8453980" lon="-2.9482240">
        <ele>335.6</ele>
        <time>2021-03-02T11:13:10Z</time>
      </trkpt>
      <trkpt lat="36.8454320" lon="-2.9482480">
        <ele>335.8</ele>
        <time>2021-03-02T11:13:11Z</time>
      </trkpt>
      <trkpt lat="36.8454620" lon="-2.9482700">
        <ele>335.8</ele>
        <time>2021-03-02T11:13:12Z</time>
      </trkpt>
      <trkpt lat="36.8454940" lon="-2.9482890">
        <ele>336.0</ele>
        <time>2021-03-02T11:13:13Z</time>
      </trkpt>
      <trkpt lat="36.8455260" lon="-2.9483040">
        <ele>336.0</ele>
        <time>2021-03-02T11:13:14Z</time>
      </trkpt>
      <trkpt lat="36.8455550" lon="-2.9483190">
        <ele>336.2</ele>
        <time>2021-03-02T11:13:15Z</time>
      </trkpt>
      <trkpt lat="36.8455870" lon="-2.9483300">
        <ele>336.2</ele>
        <time>2021-03-02T11:13:16Z</time>
      </trkpt>
      <trkpt lat="36.8456260" lon="-2.9483260">
        <ele>336.2</ele>
        <time>2021-03-02T11:13:17Z</time>
      </trkpt>
      <trkpt lat="36.8456610" lon="-2.9483340">
        <ele>336.4</ele>
        <time>2021-03-02T11:13:18Z</time>
      </trkpt>
      <trkpt lat="36.8456910" lon="-2.9483500">
        <ele>336.4</ele>
        <time>2021-03-02T11:13:19Z</time>
      </trkpt>
      <trkpt lat="36.8457200" lon="-2.9483680">
        <ele>336.6</ele>
        <time>2021-03-02T11:13:20Z</time>
      </trkpt>
      <trkpt lat="36.8457460" lon="-2.9483820">
        <ele>336.6</ele>
        <time>2021-03-02T11:13:21Z</time>
      </trkpt>
      <trkpt lat="36.8457720" lon="-2.9483950">
        <ele>336.6</ele>
        <time>2021-03-02T11:13:22Z</time>
      </trkpt>
      <trkpt lat="36.8458000" lon="-2.9484100">
        <ele>336.8</ele>
        <time>2021-03-02T11:13:23Z</time>
      </trkpt>
      <trkpt lat="36.8458240" lon="-2.9484230">
        <ele>336.8</ele>
        <time>2021-03-02T11:13:24Z</time>
      </trkpt>
      <trkpt lat="36.8458450" lon="-2.9484360">
        <ele>337.0</ele>
        <time>2021-03-02T11:13:25Z</time>
      </trkpt>
      <trkpt lat="36.8458670" lon="-2.9484470">
        <ele>337.0</ele>
        <time>2021-03-02T11:13:26Z</time>
      </trkpt>
      <trkpt lat="36.8458850" lon="-2.9484590">
        <ele>337.0</ele>
        <time>2021-03-02T11:13:27Z</time>
      </trkpt>
      <trkpt lat="36.8459040" lon="-2.9484710">
        <ele>337.2</ele>
        <time>2021-03-02T11:13:28Z</time>
      </trkpt>
      <trkpt lat="36.8459290" lon="-2.9484860">
        <ele>337.2</ele>
        <time>2021-03-02T11:13:29Z</time>
      </trkpt>
      <trkpt lat="36.8459490" lon="-2.9485010">
        <ele>337.2</ele>
        <time>2021-03-02T11:13:30Z</time>
      </trkpt>
      <trkpt lat="36.8459690" lon="-2.9485160">
        <ele>337.2</ele>
        <time>2021-03-02T11:13:31Z</time>
      </trkpt>
      <trkpt lat="36.8459860" lon="-2.9485350">
        <ele>337.2</ele>
        <time>2021-03-02T11:13:32Z</time>
      </trkpt>
      <trkpt lat="36.8460050" lon="-2.9485550">
        <ele>337.2</ele>
        <time>2021-03-02T11:13:33Z</time>
      </trkpt>
      <trkpt lat="36.8460260" lon="-2.9485760">
        <ele>337.2</ele>
        <time>2021-03-02T11:13:34Z</time>
      </trkpt>
      <trkpt lat="36.8460440" lon="-2.9485920">
        <ele>337.4</ele>
        <time>2021-03-02T11:13:35Z</time>
      </trkpt>
      <trkpt lat="36.8460620" lon="-2.9485910">
        <ele>337.4</ele>
        <time>2021-03-02T11:13:36Z</time>
      </trkpt>
      <trkpt lat="36.8460760" lon="-2.9485980">
        <ele>337.4</ele>
        <time>2021-03-02T11:13:37Z</time>
      </trkpt>
      <trkpt lat="36.8460960" lon="-2.9486070">
        <ele>337.4</ele>
        <time>2021-03-02T11:13:38Z</time>
      </trkpt>
      <trkpt lat="36.8461170" lon="-2.9486180">
        <ele>337.4</ele>
        <time>2021-03-02T11:13:39Z</time>
      </trkpt>
      <trkpt lat="36.8461320" lon="-2.9485680">
        <ele>337.4</ele>
        <time>2021-03-02T11:13:40Z</time>
      </trkpt>
      <trkpt lat="36.8461540" lon="-2.9485810">
        <ele>337.4</ele>
        <time>2021-03-02T11:13:41Z</time>
      </trkpt>
      <trkpt lat="36.8461730" lon="-2.9486080">
        <ele>337.4</ele>
        <time>2021-03-02T11:13:42Z</time>
      </trkpt>
      <trkpt lat="36.8461950" lon="-2.9486280">
        <ele>337.4</ele>
        <time>2021-03-02T11:13:43Z</time>
      </trkpt>
      <trkpt lat="36.8462150" lon="-2.9486380">
        <ele>337.4</ele>
        <time>2021-03-02T11:13:44Z</time>
      </trkpt>
      <trkpt lat="36.8462300" lon="-2.9486460">
        <ele>337.4</ele>
        <time>2021-03-02T11:13:45Z</time>
      </trkpt>
      <trkpt lat="36.8462430" lon="-2.9486560">
        <ele>337.6</ele>
        <time>2021-03-02T11:13:46Z</time>
      </trkpt>
      <trkpt lat="36.8462540" lon="-2.9486890">
        <ele>337.6</ele>
        <time>2021-03-02T11:13:47Z</time>
      </trkpt>
      <trkpt lat="36.8462630" lon="-2.9487160">
        <ele>337.6</ele>
        <time>2021-03-02T11:13:48Z</time>
      </trkpt>
      <trkpt lat="36.8462810" lon="-2.9487530">
        <ele>337.8</ele>
        <time>2021-03-02T11:13:49Z</time>
      </trkpt>
      <trkpt lat="36.8462830" lon="-2.9487700">
        <ele>337.8</ele>
        <time>2021-03-02T11:13:50Z</time>
      </trkpt>
      <trkpt lat="36.8462770" lon="-2.9487850">
        <ele>337.8</ele>
        <time>2021-03-02T11:13:51Z</time>
      </trkpt>
      <trkpt lat="36.8462700" lon="-2.9487970">
        <ele>337.8</ele>
        <time>2021-03-02T11:13:52Z</time>
      </trkpt>
      <trkpt lat="36.8462510" lon="-2.9488070">
        <ele>337.8</ele>
        <time>2021-03-02T11:13:53Z</time>
      </trkpt>
      <trkpt lat="36.8462410" lon="-2.9488270">
        <ele>337.8</ele>
        <time>2021-03-02T11:13:54Z</time>
      </trkpt>
      <trkpt lat="36.8462280" lon="-2.9488440">
        <ele>337.8</ele>
        <time>2021-03-02T11:13:55Z</time>
      </trkpt>
      <trkpt lat="36.8462150" lon="-2.9488600">
        <ele>337.8</ele>
        <time>2021-03-02T11:13:56Z</time>
      </trkpt>
      <trkpt lat="36.8461980" lon="-2.9488720">
        <ele>337.6</ele>
        <time>2021-03-02T11:13:57Z</time>
      </trkpt>
      <trkpt lat="36.8461880" lon="-2.9488880">
        <ele>337.6</ele>
        <time>2021-03-02T11:13:58Z</time>
      </trkpt>
      <trkpt lat="36.8461880" lon="-2.9489170">
        <ele>337.6</ele>
        <time>2021-03-02T11:13:59Z</time>
      </trkpt>
      <trkpt lat="36.8461840" lon="-2.9489380">
        <ele>337.6</ele>
        <time>2021-03-02T11:14:00Z</time>
      </trkpt>
      <trkpt lat="36.8461760" lon="-2.9489550">
        <ele>337.6</ele>
        <time>2021-03-02T11:14:01Z</time>
      </trkpt>
      <trkpt lat="36.8461690" lon="-2.9489740">
        <ele>337.4</ele>
        <time>2021-03-02T11:14:02Z</time>
      </trkpt>
      <trkpt lat="36.8461740" lon="-2.9490170">
        <ele>337.4</ele>
        <time>2021-03-02T11:14:03Z</time>
      </trkpt>
      <trkpt lat="36.8461740" lon="-2.9490550">
        <ele>337.2</ele>
        <time>2021-03-02T11:14:04Z</time>
      </trkpt>
      <trkpt lat="36.8461640" lon="-2.9490940">
        <ele>337.0</ele>
        <time>2021-03-02T11:14:05Z</time>
      </trkpt>
      <trkpt lat="36.8461460" lon="-2.9491310">
        <ele>336.8</ele>
        <time>2021-03-02T11:14:06Z</time>
      </trkpt>
      <trkpt lat="36.8461330" lon="-2.9491610">
        <ele>336.8</ele>
        <time>2021-03-02T11:14:07Z</time>
      </trkpt>
      <trkpt lat="36.8461270" lon="-2.9491890">
        <ele>336.8</ele>
        <time>2021-03-02T11:14:08Z</time>
      </trkpt>
      <trkpt lat="36.8461210" lon="-2.9492150">
        <ele>336.6</ele>
        <time>2021-03-02T11:14:09Z</time>
      </trkpt>
      <trkpt lat="36.8461210" lon="-2.9492400">
        <ele>336.6</ele>
        <time>2021-03-02T11:14:10Z</time>
      </trkpt>
      <trkpt lat="36.8461280" lon="-2.9492580">
        <ele>336.4</ele>
        <time>2021-03-02T11:14:11Z</time>
      </trkpt>
      <trkpt lat="36.8461400" lon="-2.9492800">
        <ele>336.4</ele>
        <time>2021-03-02T11:14:12Z</time>
      </trkpt>
      <trkpt lat="36.8461540" lon="-2.9493090">
        <ele>336.4</ele>
        <time>2021-03-02T11:14:13Z</time>
      </trkpt>
      <trkpt lat="36.8461750" lon="-2.9493380">
        <ele>336.4</ele>
        <time>2021-03-02T11:14:14Z</time>
      </trkpt>
      <trkpt lat="36.8461930" lon="-2.9493710">
        <ele>336.4</ele>
        <time>2021-03-02T11:14:15Z</time>
      </trkpt>
      <trkpt lat="36.8462090" lon="-2.9494050">
        <ele>336.4</ele>
        <time>2021-03-02T11:14:16Z</time>
      </trkpt>
      <trkpt lat="36.8462210" lon="-2.9494350">
        <ele>336.4</ele>
        <time>2021-03-02T11:14:17Z</time>
      </trkpt>
      <trkpt lat="36.8462330" lon="-2.9494630">
        <ele>336.4</ele>
        <time>2021-03-02T11:14:18Z</time>
      </trkpt>
      <trkpt lat="36.8462450" lon="-2.9494880">
        <ele>336.4</ele>
        <time>2021-03-02T11:14:19Z</time>
      </trkpt>
      <trkpt lat="36.8462610" lon="-2.9495090">
        <ele>336.2</ele>
        <time>2021-03-02T11:14:20Z</time>
      </trkpt>
      <trkpt lat="36.8462750" lon="-2.9495310">
        <ele>336.2</ele>
        <time>2021-03-02T11:14:21Z</time>
      </trkpt>
      <trkpt lat="36.8462910" lon="-2.9495480">
        <ele>336.2</ele>
        <time>2021-03-02T11:14:22Z</time>
      </trkpt>
      <trkpt lat="36.8463070" lon="-2.9495630">
        <ele>336.2</ele>
        <time>2021-03-02T11:14:23Z</time>
      </trkpt>
      <trkpt lat="36.8463280" lon="-2.9495800">
        <ele>336.2</ele>
        <time>2021-03-02T11:14:24Z</time>
      </trkpt>
      <trkpt lat="36.8463480" lon="-2.9495980">
        <ele>336.2</ele>
        <time>2021-03-02T11:14:25Z</time>
      </trkpt>
      <trkpt lat="36.8463670" lon="-2.9496060">
        <ele>336.2</ele>
        <time>2021-03-02T11:14:26Z</time>
      </trkpt>
      <trkpt lat="36.8463930" lon="-2.9496120">
        <ele>336.2</ele>
        <time>2021-03-02T11:14:27Z</time>
      </trkpt>
      <trkpt lat="36.8464230" lon="-2.9496230">
        <ele>336.0</ele>
        <time>2021-03-02T11:14:28Z</time>
      </trkpt>
      <trkpt lat="36.8464530" lon="-2.9496400">
        <ele>336.0</ele>
        <time>2021-03-02T11:14:29Z</time>
      </trkpt>
      <trkpt lat="36.8464900" lon="-2.9496630">
        <ele>336.0</ele>
        <time>2021-03-02T11:14:30Z</time>
      </trkpt>
      <trkpt lat="36.8465290" lon="-2.9496840">
        <ele>335.8</ele>
        <time>2021-03-02T11:14:31Z</time>
      </trkpt>
      <trkpt lat="36.8465730" lon="-2.9497060">
        <ele>335.8</ele>
        <time>2021-03-02T11:14:32Z</time>
      </trkpt>
      <trkpt lat="36.8466150" lon="-2.9497340">
        <ele>336.0</ele>
        <time>2021-03-02T11:14:33Z</time>
      </trkpt>
      <trkpt lat="36.8466570" lon="-2.9497730">
        <ele>336.0</ele>
        <time>2021-03-02T11:14:34Z</time>
      </trkpt>
      <trkpt lat="36.8466910" lon="-2.9498170">
        <ele>336.0</ele>
        <time>2021-03-02T11:14:35Z</time>
      </trkpt>
      <trkpt lat="36.8467290" lon="-2.9498630">
        <ele>336.0</ele>
        <time>2021-03-02T11:14:36Z</time>
      </trkpt>
      <trkpt lat="36.8467740" lon="-2.9499080">
        <ele>336.0</ele>
        <time>2021-03-02T11:14:37Z</time>
      </trkpt>
      <trkpt lat="36.8468240" lon="-2.9499440">
        <ele>336.0</ele>
        <time>2021-03-02T11:14:38Z</time>
      </trkpt>
      <trkpt lat="36.8468790" lon="-2.9499760">
        <ele>336.0</ele>
        <time>2021-03-02T11:14:39Z</time>
      </trkpt>
      <trkpt lat="36.8469340" lon="-2.9500070">
        <ele>335.8</ele>
        <time>2021-03-02T11:14:40Z</time>
      </trkpt>
      <trkpt lat="36.8469940" lon="-2.9500410">
        <ele>335.8</ele>
        <time>2021-03-02T11:14:41Z</time>
      </trkpt>
      <trkpt lat="36.8470520" lon="-2.9500760">
        <ele>335.6</ele>
        <time>2021-03-02T11:14:42Z</time>
      </trkpt>
      <trkpt lat="36.8471130" lon="-2.9501110">
        <ele>335.6</ele>
        <time>2021-03-02T11:14:43Z</time>
      </trkpt>
      <trkpt lat="36.8471690" lon="-2.9501550">
        <ele>335.6</ele>
        <time>2021-03-02T11:14:44Z</time>
      </trkpt>
      <trkpt lat="36.8472270" lon="-2.9501920">
        <ele>335.6</ele>
        <time>2021-03-02T11:14:45Z</time>
      </trkpt>
      <trkpt lat="36.8472870" lon="-2.9502310">
        <ele>335.8</ele>
        <time>2021-03-02T11:14:46Z</time>
      </trkpt>
      <trkpt lat="36.8473460" lon="-2.9502620">
        <ele>336.0</ele>
        <time>2021-03-02T11:14:47Z</time>
      </trkpt>
      <trkpt lat="36.8474040" lon="-2.9502980">
        <ele>336.0</ele>
        <time>2021-03-02T11:14:48Z</time>
      </trkpt>
      <trkpt lat="36.8474590" lon="-2.9503380">
        <ele>336.2</ele>
        <time>2021-03-02T11:14:49Z</time>
      </trkpt>
      <trkpt lat="36.8475120" lon="-2.9503790">
        <ele>336.2</ele>
        <time>2021-03-02T11:14:50Z</time>
      </trkpt>
      <trkpt lat="36.8475630" lon="-2.9504200">
        <ele>336.2</ele>
        <time>2021-03-02T11:14:51Z</time>
      </trkpt>
      <trkpt lat="36.8476090" lon="-2.9504660">
        <ele>336.4</ele>
        <time>2021-03-02T11:14:52Z</time>
      </trkpt>
      <trkpt lat="36.8476510" lon="-2.9505090">
        <ele>336.6</ele>
        <time>2021-03-02T11:14:53Z</time>
      </trkpt>
      <trkpt lat="36.8476970" lon="-2.9505560">
        <ele>336.8</ele>
        <time>2021-03-02T11:14:54Z</time>
      </trkpt>
      <trkpt lat="36.8477480" lon="-2.9506050">
        <ele>337.0</ele>
        <time>2021-03-02T11:14:55Z</time>
      </trkpt>
      <trkpt lat="36.8477990" lon="-2.9506530">
        <ele>337.0</ele>
        <time>2021-03-02T11:14:56Z</time>
      </trkpt>
      <trkpt lat="36.8478470" lon="-2.9507010">
        <ele>337.2</ele>
        <time>2021-03-02T11:14:57Z</time>
      </trkpt>
      <trkpt lat="36.8479050" lon="-2.9507520">
        <ele>337.4</ele>
        <time>2021-03-02T11:14:58Z</time>
      </trkpt>
      <trkpt lat="36.8479580" lon="-2.9507940">
        <ele>337.4</ele>
        <time>2021-03-02T11:14:59Z</time>
      </trkpt>
      <trkpt lat="36.8480090" lon="-2.9508350">
        <ele>337.6</ele>
        <time>2021-03-02T11:15:00Z</time>
      </trkpt>
      <trkpt lat="36.8480680" lon="-2.9508800">
        <ele>337.8</ele>
        <time>2021-03-02T11:15:01Z</time>
      </trkpt>
      <trkpt lat="36.8481220" lon="-2.9509230">
        <ele>337.8</ele>
        <time>2021-03-02T11:15:02Z</time>
      </trkpt>
      <trkpt lat="36.8481740" lon="-2.9509670">
        <ele>338.0</ele>
        <time>2021-03-02T11:15:03Z</time>
      </trkpt>
      <trkpt lat="36.8482250" lon="-2.9510100">
        <ele>338.0</ele>
        <time>2021-03-02T11:15:04Z</time>
      </trkpt>
      <trkpt lat="36.8482760" lon="-2.9510520">
        <ele>338.2</ele>
        <time>2021-03-02T11:15:05Z</time>
      </trkpt>
      <trkpt lat="36.8483290" lon="-2.9510950">
        <ele>338.2</ele>
        <time>2021-03-02T11:15:06Z</time>
      </trkpt>
      <trkpt lat="36.8483770" lon="-2.9511370">
        <ele>338.4</ele>
        <time>2021-03-02T11:15:07Z</time>
      </trkpt>
      <trkpt lat="36.8484260" lon="-2.9511790">
        <ele>338.6</ele>
        <time>2021-03-02T11:15:08Z</time>
      </trkpt>
      <trkpt lat="36.8484720" lon="-2.9512200">
        <ele>338.6</ele>
        <time>2021-03-02T11:15:09Z</time>
      </trkpt>
      <trkpt lat="36.8485020" lon="-2.9512720">
        <ele>338.8</ele>
        <time>2021-03-02T11:15:10Z</time>
      </trkpt>
      <trkpt lat="36.8485560" lon="-2.9512960">
        <ele>339.0</ele>
        <time>2021-03-02T11:15:11Z</time>
      </trkpt>
      <trkpt lat="36.8486010" lon="-2.9513330">
        <ele>339.0</ele>
        <time>2021-03-02T11:15:12Z</time>
      </trkpt>
      <trkpt lat="36.8486430" lon="-2.9513750">
        <ele>339.4</ele>
        <time>2021-03-02T11:15:13Z</time>
      </trkpt>
      <trkpt lat="36.8486830" lon="-2.9514150">
        <ele>339.4</ele>
        <time>2021-03-02T11:15:14Z</time>
      </trkpt>
      <trkpt lat="36.8487190" lon="-2.9514580">
        <ele>339.6</ele>
        <time>2021-03-02T11:15:15Z</time>
      </trkpt>
      <trkpt lat="36.8487560" lon="-2.9515020">
        <ele>339.8</ele>
        <time>2021-03-02T11:15:16Z</time>
      </trkpt>
      <trkpt lat="36.8487940" lon="-2.9515450">
        <ele>340.0</ele>
        <time>2021-03-02T11:15:17Z</time>
      </trkpt>
      <trkpt lat="36.8488340" lon="-2.9515880">
        <ele>340.2</ele>
        <time>2021-03-02T11:15:18Z</time>
      </trkpt>
      <trkpt lat="36.8488750" lon="-2.9516290">
        <ele>340.2</ele>
        <time>2021-03-02T11:15:19Z</time>
      </trkpt>
      <trkpt lat="36.8489170" lon="-2.9516710">
        <ele>340.2</ele>
        <time>2021-03-02T11:15:20Z</time>
      </trkpt>
      <trkpt lat="36.8489610" lon="-2.9517170">
        <ele>340.4</ele>
        <time>2021-03-02T11:15:21Z</time>
      </trkpt>
      <trkpt lat="36.8490020" lon="-2.9517600">
        <ele>340.6</ele>
        <time>2021-03-02T11:15:22Z</time>
      </trkpt>
      <trkpt lat="36.8490430" lon="-2.9518030">
        <ele>340.6</ele>
        <time>2021-03-02T11:15:23Z</time>
      </trkpt>
      <trkpt lat="36.8490840" lon="-2.9518470">
        <ele>340.6</ele>
        <time>2021-03-02T11:15:24Z</time>
      </trkpt>
      <trkpt lat="36.8491240" lon="-2.9518850">
        <ele>340.8</ele>
        <time>2021-03-02T11:15:25Z</time>
      </trkpt>
      <trkpt lat="36.8491720" lon="-2.9519180">
        <ele>340.8</ele>
        <time>2021-03-02T11:15:26Z</time>
      </trkpt>
      <trkpt lat="36.8492140" lon="-2.9519490">
        <ele>341.0</ele>
        <time>2021-03-02T11:15:27Z</time>
      </trkpt>
      <trkpt lat="36.8492530" lon="-2.9519820">
        <ele>341.0</ele>
        <time>2021-03-02T11:15:28Z</time>
      </trkpt>
      <trkpt lat="36.8492950" lon="-2.9520200">
        <ele>341.2</ele>
        <time>2021-03-02T11:15:29Z</time>
      </trkpt>
      <trkpt lat="36.8493370" lon="-2.9520590">
        <ele>341.6</ele>
        <time>2021-03-02T11:15:30Z</time>
      </trkpt>
      <trkpt lat="36.8493800" lon="-2.9520940">
        <ele>341.6</ele>
        <time>2021-03-02T11:15:31Z</time>
      </trkpt>
      <trkpt lat="36.8494280" lon="-2.9521280">
        <ele>342.0</ele>
        <time>2021-03-02T11:15:32Z</time>
      </trkpt>
      <trkpt lat="36.8494740" lon="-2.9521610">
        <ele>342.2</ele>
        <time>2021-03-02T11:15:33Z</time>
      </trkpt>
      <trkpt lat="36.8495220" lon="-2.9521930">
        <ele>342.6</ele>
        <time>2021-03-02T11:15:34Z</time>
      </trkpt>
      <trkpt lat="36.8495680" lon="-2.9522260">
        <ele>342.8</ele>
        <time>2021-03-02T11:15:35Z</time>
      </trkpt>
      <trkpt lat="36.8496150" lon="-2.9522570">
        <ele>343.2</ele>
        <time>2021-03-02T11:15:36Z</time>
      </trkpt>
      <trkpt lat="36.8496610" lon="-2.9522890">
        <ele>343.4</ele>
        <time>2021-03-02T11:15:37Z</time>
      </trkpt>
      <trkpt lat="36.8497080" lon="-2.9523170">
        <ele>343.4</ele>
        <time>2021-03-02T11:15:38Z</time>
      </trkpt>
      <trkpt lat="36.8497540" lon="-2.9523440">
        <ele>343.8</ele>
        <time>2021-03-02T11:15:39Z</time>
      </trkpt>
      <trkpt lat="36.8497980" lon="-2.9523690">
        <ele>344.0</ele>
        <time>2021-03-02T11:15:40Z</time>
      </trkpt>
      <trkpt lat="36.8498430" lon="-2.9523960">
        <ele>344.4</ele>
        <time>2021-03-02T11:15:41Z</time>
      </trkpt>
      <trkpt lat="36.8498880" lon="-2.9524230">
        <ele>344.4</ele>
        <time>2021-03-02T11:15:42Z</time>
      </trkpt>
      <trkpt lat="36.8499310" lon="-2.9524470">
        <ele>344.6</ele>
        <time>2021-03-02T11:15:43Z</time>
      </trkpt>
      <trkpt lat="36.8499760" lon="-2.9524600">
        <ele>344.8</ele>
        <time>2021-03-02T11:15:44Z</time>
      </trkpt>
      <trkpt lat="36.8500200" lon="-2.9524700">
        <ele>345.0</ele>
        <time>2021-03-02T11:15:45Z</time>
      </trkpt>
      <trkpt lat="36.8500600" lon="-2.9524780">
        <ele>345.4</ele>
        <time>2021-03-02T11:15:46Z</time>
      </trkpt>
      <trkpt lat="36.8500950" lon="-2.9524820">
        <ele>345.6</ele>
        <time>2021-03-02T11:15:47Z</time>
      </trkpt>
      <trkpt lat="36.8501250" lon="-2.9524840">
        <ele>346.0</ele>
        <time>2021-03-02T11:15:48Z</time>
      </trkpt>
      <trkpt lat="36.8502000" lon="-2.9525620">
        <ele>350.2</ele>
        <time>2021-03-02T07:47:41Z</time>
      </trkpt>
      <trkpt lat="36.8502180" lon="-2.9525580">
        <ele>350.2</ele>
        <time>2021-03-02T07:47:42Z</time>
      </trkpt>
      <trkpt lat="36.8502370" lon="-2.9525520">
        <ele>350.2</ele>
        <time>2021-03-02T07:47:43Z</time>
      </trkpt>
      <trkpt lat="36.8502600" lon="-2.9525440">
        <ele>350.4</ele>
        <time>2021-03-02T07:47:44Z</time>
      </trkpt>
      <trkpt lat="36.8502860" lon="-2.9525330">
        <ele>350.4</ele>
        <time>2021-03-02T07:47:45Z</time>
      </trkpt>
      <trkpt lat="36.8503190" lon="-2.9525160">
        <ele>350.4</ele>
        <time>2021-03-02T07:47:46Z</time>
      </trkpt>
      <trkpt lat="36.8503540" lon="-2.9524970">
        <ele>350.4</ele>
        <time>2021-03-02T07:47:47Z</time>
      </trkpt>
      <trkpt lat="36.8503880" lon="-2.9524770">
        <ele>350.8</ele>
        <time>2021-03-02T07:47:48Z</time>
      </trkpt>
      <trkpt lat="36.8504220" lon="-2.9524560">
        <ele>350.8</ele>
        <time>2021-03-02T07:47:49Z</time>
      </trkpt>
      <trkpt lat="36.8504550" lon="-2.9524330">
        <ele>351.0</ele>
        <time>2021-03-02T07:47:50Z</time>
      </trkpt>
      <trkpt lat="36.8504880" lon="-2.9524070">
        <ele>351.0</ele>
        <time>2021-03-02T07:47:51Z</time>
      </trkpt>
      <trkpt lat="36.8505200" lon="-2.9523790">
        <ele>351.2</ele>
        <time>2021-03-02T07:47:52Z</time>
      </trkpt>
      <trkpt lat="36.8505500" lon="-2.9523460">
        <ele>351.4</ele>
        <time>2021-03-02T07:47:53Z</time>
      </trkpt>
      <trkpt lat="36.8505810" lon="-2.9523050">
        <ele>351.6</ele>
        <time>2021-03-02T07:47:54Z</time>
      </trkpt>
      <trkpt lat="36.8506080" lon="-2.9522580">
        <ele>351.4</ele>
        <time>2021-03-02T07:47:55Z</time>
      </trkpt>
      <trkpt lat="36.8506320" lon="-2.9522030">
        <ele>351.4</ele>
        <time>2021-03-02T07:47:56Z</time>
      </trkpt>
      <trkpt lat="36.8506580" lon="-2.9521370">
        <ele>350.8</ele>
        <time>2021-03-02T07:47:57Z</time>
      </trkpt>
      <trkpt lat="36.8506800" lon="-2.9520670">
        <ele>350.6</ele>
        <time>2021-03-02T07:47:58Z</time>
      </trkpt>
      <trkpt lat="36.8506990" lon="-2.9519950">
        <ele>350.2</ele>
        <time>2021-03-02T07:47:59Z</time>
      </trkpt>
      <trkpt lat="36.8507150" lon="-2.9519240">
        <ele>350.0</ele>
        <time>2021-03-02T07:48:00Z</time>
      </trkpt>
      <trkpt lat="36.8507270" lon="-2.9518560">
        <ele>349.8</ele>
        <time>2021-03-02T07:48:01Z</time>
      </trkpt>
      <trkpt lat="36.8507370" lon="-2.9517910">
        <ele>350.0</ele>
        <time>2021-03-02T07:48:02Z</time>
      </trkpt>
      <trkpt lat="36.8507430" lon="-2.9517300">
        <ele>350.2</ele>
        <time>2021-03-02T07:48:03Z</time>
      </trkpt>
      <trkpt lat="36.8507480" lon="-2.9516710">
        <ele>350.4</ele>
        <time>2021-03-02T07:48:04Z</time>
      </trkpt>
      <trkpt lat="36.8507510" lon="-2.9516140">
        <ele>350.8</ele>
        <time>2021-03-02T07:48:05Z</time>
      </trkpt>
      <trkpt lat="36.8507530" lon="-2.9515570">
        <ele>351.0</ele>
        <time>2021-03-02T07:48:06Z</time>
      </trkpt>
      <trkpt lat="36.8507540" lon="-2.9515020">
        <ele>351.4</ele>
        <time>2021-03-02T07:48:07Z</time>
      </trkpt>
      <trkpt lat="36.8507560" lon="-2.9514470">
        <ele>351.4</ele>
        <time>2021-03-02T07:48:08Z</time>
      </trkpt>
      <trkpt lat="36.8507550" lon="-2.9513930">
        <ele>351.8</ele>
        <time>2021-03-02T07:48:09Z</time>
      </trkpt>
      <trkpt lat="36.8507550" lon="-2.9513400">
        <ele>352.0</ele>
        <time>2021-03-02T07:48:10Z</time>
      </trkpt>
      <trkpt lat="36.8507560" lon="-2.9512880">
        <ele>352.2</ele>
        <time>2021-03-02T07:48:11Z</time>
      </trkpt>
      <trkpt lat="36.8507550" lon="-2.9512360">
        <ele>352.6</ele>
        <time>2021-03-02T07:48:12Z</time>
      </trkpt>
      <trkpt lat="36.8507560" lon="-2.9511850">
        <ele>352.8</ele>
        <time>2021-03-02T07:48:13Z</time>
      </trkpt>
      <trkpt lat="36.8507570" lon="-2.9511350">
        <ele>353.2</ele>
        <time>2021-03-02T07:48:14Z</time>
      </trkpt>
      <trkpt lat="36.8507560" lon="-2.9510870">
        <ele>353.2</ele>
        <time>2021-03-02T07:48:15Z</time>
      </trkpt>
      <trkpt lat="36.8507560" lon="-2.9510400">
        <ele>353.6</ele>
        <time>2021-03-02T07:48:16Z</time>
      </trkpt>
      <trkpt lat="36.8507570" lon="-2.9509950">
        <ele>354.0</ele>
        <time>2021-03-02T07:48:17Z</time>
      </trkpt>
      <trkpt lat="36.8507580" lon="-2.9509500">
        <ele>354.2</ele>
        <time>2021-03-02T07:48:18Z</time>
      </trkpt>
      <trkpt lat="36.8507580" lon="-2.9509050">
        <ele>354.4</ele>
        <time>2021-03-02T07:48:19Z</time>
      </trkpt>
      <trkpt lat="36.8507580" lon="-2.9508620">
        <ele>354.6</ele>
        <time>2021-03-02T07:48:20Z</time>
      </trkpt>
      <trkpt lat="36.8507590" lon="-2.9508190">
        <ele>354.8</ele>
        <time>2021-03-02T07:48:21Z</time>
      </trkpt>
      <trkpt lat="36.8507590" lon="-2.9507750">
        <ele>355.0</ele>
        <time>2021-03-02T07:48:22Z</time>
      </trkpt>
      <trkpt lat="36.8507590" lon="-2.9507310">
        <ele>355.2</ele>
        <time>2021-03-02T07:48:23Z</time>
      </trkpt>
      <trkpt lat="36.8507580" lon="-2.9506880">
        <ele>355.4</ele>
        <time>2021-03-02T07:48:24Z</time>
      </trkpt>
      <trkpt lat="36.8507580" lon="-2.9506450">
        <ele>355.6</ele>
        <time>2021-03-02T07:48:25Z</time>
      </trkpt>
      <trkpt lat="36.8507570" lon="-2.9506010">
        <ele>355.8</ele>
        <time>2021-03-02T07:48:26Z</time>
      </trkpt>
      <trkpt lat="36.8507570" lon="-2.9505570">
        <ele>356.0</ele>
        <time>2021-03-02T07:48:27Z</time>
      </trkpt>
      <trkpt lat="36.8507570" lon="-2.9505130">
        <ele>356.2</ele>
        <time>2021-03-02T07:48:28Z</time>
      </trkpt>
      <trkpt lat="36.8507560" lon="-2.9504690">
        <ele>356.4</ele>
        <time>2021-03-02T07:48:29Z</time>
      </trkpt>
      <trkpt lat="36.8507560" lon="-2.9504240">
        <ele>356.4</ele>
        <time>2021-03-02T07:48:30Z</time>
      </trkpt>
      <trkpt lat="36.8507570" lon="-2.9503780">
        <ele>356.6</ele>
        <time>2021-03-02T07:48:31Z</time>
      </trkpt>
      <trkpt lat="36.8507580" lon="-2.9503330">
        <ele>356.8</ele>
        <time>2021-03-02T07:48:32Z</time>
      </trkpt>
      <trkpt lat="36.8507570" lon="-2.9502880">
        <ele>357.0</ele>
        <time>2021-03-02T07:48:33Z</time>
      </trkpt>
      <trkpt lat="36.8507570" lon="-2.9502420">
        <ele>357.2</ele>
        <time>2021-03-02T07:48:34Z</time>
      </trkpt>
      <trkpt lat="36.8507570" lon="-2.9501960">
        <ele>357.4</ele>
        <time>2021-03-02T07:48:35Z</time>
      </trkpt>
      <trkpt lat="36.8507570" lon="-2.9501500">
        <ele>357.6</ele>
        <time>2021-03-02T07:48:36Z</time>
      </trkpt>
      <trkpt lat="36.8507570" lon="-2.9501040">
        <ele>357.6</ele>
        <time>2021-03-02T07:48:37Z</time>
      </trkpt>
      <trkpt lat="36.8507580" lon="-2.9500580">
        <ele>357.8</ele>
        <time>2021-03-02T07:48:38Z</time>
      </trkpt>
      <trkpt lat="36.8507580" lon="-2.9500120">
        <ele>358.0</ele>
        <time>2021-03-02T07:48:39Z</time>
      </trkpt>
      <trkpt lat="36.8507580" lon="-2.9499660">
        <ele>358.0</ele>
        <time>2021-03-02T07:48:40Z</time>
      </trkpt>
      <trkpt lat="36.8507580" lon="-2.9499200">
        <ele>358.2</ele>
        <time>2021-03-02T07:48:41Z</time>
      </trkpt>
      <trkpt lat="36.8507590" lon="-2.9498740">
        <ele>358.4</ele>
        <time>2021-03-02T07:48:42Z</time>
      </trkpt>
      <trkpt lat="36.8507600" lon="-2.9498270">
        <ele>358.6</ele>
        <time>2021-03-02T07:48:43Z</time>
      </trkpt>
      <trkpt lat="36.8507610" lon="-2.9497790">
        <ele>358.6</ele>
        <time>2021-03-02T07:48:44Z</time>
      </trkpt>
      <trkpt lat="36.8507610" lon="-2.9497320">
        <ele>358.8</ele>
        <time>2021-03-02T07:48:45Z</time>
      </trkpt>
      <trkpt lat="36.8507610" lon="-2.9496850">
        <ele>359.0</ele>
        <time>2021-03-02T07:48:46Z</time>
      </trkpt>
      <trkpt lat="36.8507610" lon="-2.9496370">
        <ele>359.2</ele>
        <time>2021-03-02T07:48:47Z</time>
      </trkpt>
      <trkpt lat="36.8507620" lon="-2.9495880">
        <ele>359.4</ele>
        <time>2021-03-02T07:48:48Z</time>
      </trkpt>
      <trkpt lat="36.8507630" lon="-2.9495390">
        <ele>359.4</ele>
        <time>2021-03-02T07:48:49Z</time>
      </trkpt>
      <trkpt lat="36.8507640" lon="-2.9494900">
        <ele>359.6</ele>
        <time>2021-03-02T07:48:50Z</time>
      </trkpt>
      <trkpt lat="36.8507640" lon="-2.9494400">
        <ele>359.6</ele>
        <time>2021-03-02T07:48:51Z</time>
      </trkpt>
      <trkpt lat="36.8507640" lon="-2.9493910">
        <ele>359.8</ele>
        <time>2021-03-02T07:48:52Z</time>
      </trkpt>
      <trkpt lat="36.8507650" lon="-2.9493420">
        <ele>359.8</ele>
        <time>2021-03-02T07:48:53Z</time>
      </trkpt>
      <trkpt lat="36.8507670" lon="-2.9492930">
        <ele>360.0</ele>
        <time>2021-03-02T07:48:54Z</time>
      </trkpt>
      <trkpt lat="36.8507690" lon="-2.9492450">
        <ele>360.2</ele>
        <time>2021-03-02T07:48:55Z</time>
      </trkpt>
      <trkpt lat="36.8507710" lon="-2.9491960">
        <ele>360.2</ele>
        <time>2021-03-02T07:48:56Z</time>
      </trkpt>
      <trkpt lat="36.8507720" lon="-2.9491460">
        <ele>360.2</ele>
        <time>2021-03-02T07:48:57Z</time>
      </trkpt>
      <trkpt lat="36.8507710" lon="-2.9490950">
        <ele>360.4</ele>
        <time>2021-03-02T07:48:58Z</time>
      </trkpt>
      <trkpt lat="36.8507700" lon="-2.9490440">
        <ele>360.6</ele>
        <time>2021-03-02T07:48:59Z</time>
      </trkpt>
      <trkpt lat="36.8507680" lon="-2.9489950">
        <ele>360.8</ele>
        <time>2021-03-02T07:49:00Z</time>
      </trkpt>
      <trkpt lat="36.8507680" lon="-2.9489450">
        <ele>360.8</ele>
        <time>2021-03-02T07:49:01Z</time>
      </trkpt>
      <trkpt lat="36.8507690" lon="-2.9488950">
        <ele>361.0</ele>
        <time>2021-03-02T07:49:02Z</time>
      </trkpt>
      <trkpt lat="36.8507700" lon="-2.9488450">
        <ele>361.2</ele>
        <time>2021-03-02T07:49:03Z</time>
      </trkpt>
      <trkpt lat="36.8507700" lon="-2.9487940">
        <ele>361.4</ele>
        <time>2021-03-02T07:49:04Z</time>
      </trkpt>
      <trkpt lat="36.8507700" lon="-2.9487420">
        <ele>361.4</ele>
        <time>2021-03-02T07:49:05Z</time>
      </trkpt>
      <trkpt lat="36.8507710" lon="-2.9486910">
        <ele>361.4</ele>
        <time>2021-03-02T07:49:06Z</time>
      </trkpt>
      <trkpt lat="36.8507700" lon="-2.9486410">
        <ele>361.6</ele>
        <time>2021-03-02T07:49:07Z</time>
      </trkpt>
      <trkpt lat="36.8507690" lon="-2.9485900">
        <ele>361.8</ele>
        <time>2021-03-02T07:49:08Z</time>
      </trkpt>
      <trkpt lat="36.8507690" lon="-2.9485380">
        <ele>362.0</ele>
        <time>2021-03-02T07:49:09Z</time>
      </trkpt>
      <trkpt lat="36.8507690" lon="-2.9484870">
        <ele>362.0</ele>
        <time>2021-03-02T07:49:10Z</time>
      </trkpt>
      <trkpt lat="36.8507700" lon="-2.9484350">
        <ele>362.2</ele>
        <time>2021-03-02T07:49:11Z</time>
      </trkpt>
      <trkpt lat="36.8507690" lon="-2.9483830">
        <ele>362.2</ele>
        <time>2021-03-02T07:49:12Z</time>
      </trkpt>
      <trkpt lat="36.8507680" lon="-2.9483310">
        <ele>362.4</ele>
        <time>2021-03-02T07:49:13Z</time>
      </trkpt>
      <trkpt lat="36.8507680" lon="-2.9482780">
        <ele>362.6</ele>
        <time>2021-03-02T07:49:14Z</time>
      </trkpt>
      <trkpt lat="36.8507690" lon="-2.9482260">
        <ele>362.6</ele>
        <time>2021-03-02T07:49:15Z</time>
      </trkpt>
      <trkpt lat="36.8507690" lon="-2.9481730">
        <ele>362.8</ele>
        <time>2021-03-02T07:49:16Z</time>
      </trkpt>
      <trkpt lat="36.8507690" lon="-2.9481210">
        <ele>363.0</ele>
        <time>2021-03-02T07:49:17Z</time>
      </trkpt>
      <trkpt lat="36.8507680" lon="-2.9480700">
        <ele>363.2</ele>
        <time>2021-03-02T07:49:18Z</time>
      </trkpt>
      <trkpt lat="36.8507680" lon="-2.9480180">
        <ele>363.2</ele>
        <time>2021-03-02T07:49:19Z</time>
      </trkpt>
      <trkpt lat="36.8507660" lon="-2.9479660">
        <ele>363.2</ele>
        <time>2021-03-02T07:49:20Z</time>
      </trkpt>
      <trkpt lat="36.8507640" lon="-2.9479160">
        <ele>363.4</ele>
        <time>2021-03-02T07:49:21Z</time>
      </trkpt>
      <trkpt lat="36.8507640" lon="-2.9478640">
        <ele>363.6</ele>
        <time>2021-03-02T07:49:22Z</time>
      </trkpt>
      <trkpt lat="36.8507650" lon="-2.9478120">
        <ele>363.8</ele>
        <time>2021-03-02T07:49:23Z</time>
      </trkpt>
      <trkpt lat="36.8507640" lon="-2.9477610">
        <ele>363.8</ele>
        <time>2021-03-02T07:49:24Z</time>
      </trkpt>
      <trkpt lat="36.8507630" lon="-2.9477090">
        <ele>364.0</ele>
        <time>2021-03-02T07:49:25Z</time>
      </trkpt>
      <trkpt lat="36.8507630" lon="-2.9476550">
        <ele>364.0</ele>
        <time>2021-03-02T07:49:26Z</time>
      </trkpt>
      <trkpt lat="36.8507640" lon="-2.9476020">
        <ele>364.0</ele>
        <time>2021-03-02T07:49:27Z</time>
      </trkpt>
      <trkpt lat="36.8507640" lon="-2.9475490">
        <ele>364.2</ele>
        <time>2021-03-02T07:49:28Z</time>
      </trkpt>
      <trkpt lat="36.8507640" lon="-2.9474960">
        <ele>364.2</ele>
        <time>2021-03-02T07:49:29Z</time>
      </trkpt>
      <trkpt lat="36.8507640" lon="-2.9474440">
        <ele>364.4</ele>
        <time>2021-03-02T07:49:30Z</time>
      </trkpt>
      <trkpt lat="36.8507640" lon="-2.9473930">
        <ele>364.6</ele>
        <time>2021-03-02T07:49:31Z</time>
      </trkpt>
      <trkpt lat="36.8507630" lon="-2.9473410">
        <ele>364.6</ele>
        <time>2021-03-02T07:49:32Z</time>
      </trkpt>
      <trkpt lat="36.8507630" lon="-2.9472890">
        <ele>364.8</ele>
        <time>2021-03-02T07:49:33Z</time>
      </trkpt>
      <trkpt lat="36.8507630" lon="-2.9472370">
        <ele>364.8</ele>
        <time>2021-03-02T07:49:34Z</time>
      </trkpt>
      <trkpt lat="36.8507620" lon="-2.9471850">
        <ele>364.8</ele>
        <time>2021-03-02T07:49:35Z</time>
      </trkpt>
      <trkpt lat="36.8507620" lon="-2.9471330">
        <ele>365.0</ele>
        <time>2021-03-02T07:49:36Z</time>
      </trkpt>
      <trkpt lat="36.8507610" lon="-2.9470800">
        <ele>365.0</ele>
        <time>2021-03-02T07:49:37Z</time>
      </trkpt>
      <trkpt lat="36.8507610" lon="-2.9470290">
        <ele>365.2</ele>
        <time>2021-03-02T07:49:38Z</time>
      </trkpt>
      <trkpt lat="36.8507600" lon="-2.9469770">
        <ele>365.2</ele>
        <time>2021-03-02T07:49:39Z</time>
      </trkpt>
      <trkpt lat="36.8507600" lon="-2.9469260">
        <ele>365.4</ele>
        <time>2021-03-02T07:49:40Z</time>
      </trkpt>
      <trkpt lat="36.8507610" lon="-2.9468750">
        <ele>365.6</ele>
        <time>2021-03-02T07:49:41Z</time>
      </trkpt>
      <trkpt lat="36.8507610" lon="-2.9468240">
        <ele>365.8</ele>
        <time>2021-03-02T07:49:42Z</time>
      </trkpt>
      <trkpt lat="36.8507610" lon="-2.9467730">
        <ele>366.0</ele>
        <time>2021-03-02T07:49:43Z</time>
      </trkpt>
      <trkpt lat="36.8507600" lon="-2.9467230">
        <ele>366.0</ele>
        <time>2021-03-02T07:49:44Z</time>
      </trkpt>
      <trkpt lat="36.8507600" lon="-2.9466720">
        <ele>366.0</ele>
        <time>2021-03-02T07:49:45Z</time>
      </trkpt>
      <trkpt lat="36.8507590" lon="-2.9466190">
        <ele>366.2</ele>
        <time>2021-03-02T07:49:46Z</time>
      </trkpt>
      <trkpt lat="36.8507580" lon="-2.9465680">
        <ele>366.4</ele>
        <time>2021-03-02T07:49:47Z</time>
      </trkpt>
      <trkpt lat="36.8507560" lon="-2.9465170">
        <ele>366.4</ele>
        <time>2021-03-02T07:49:48Z</time>
      </trkpt>
      <trkpt lat="36.8507550" lon="-2.9464660">
        <ele>366.6</ele>
        <time>2021-03-02T07:49:49Z</time>
      </trkpt>
      <trkpt lat="36.8507540" lon="-2.9464140">
        <ele>366.8</ele>
        <time>2021-03-02T07:49:50Z</time>
      </trkpt>
      <trkpt lat="36.8507530" lon="-2.9463620">
        <ele>366.8</ele>
        <time>2021-03-02T07:49:51Z</time>
      </trkpt>
      <trkpt lat="36.8507510" lon="-2.9463100">
        <ele>366.8</ele>
        <time>2021-03-02T07:49:52Z</time>
      </trkpt>
      <trkpt lat="36.8507510" lon="-2.9462580">
        <ele>367.0</ele>
        <time>2021-03-02T07:49:53Z</time>
      </trkpt>
      <trkpt lat="36.8507510" lon="-2.9462060">
        <ele>367.2</ele>
        <time>2021-03-02T07:49:54Z</time>
      </trkpt>
      <trkpt lat="36.8507510" lon="-2.9461520">
        <ele>367.2</ele>
        <time>2021-03-02T07:49:55Z</time>
      </trkpt>
      <trkpt lat="36.8507490" lon="-2.9461000">
        <ele>367.2</ele>
        <time>2021-03-02T07:49:56Z</time>
      </trkpt>
      <trkpt lat="36.8507470" lon="-2.9460470">
        <ele>367.4</ele>
        <time>2021-03-02T07:49:57Z</time>
      </trkpt>
      <trkpt lat="36.8507450" lon="-2.9459930">
        <ele>367.4</ele>
        <time>2021-03-02T07:49:58Z</time>
      </trkpt>
      <trkpt lat="36.8507440" lon="-2.9459390">
        <ele>367.4</ele>
        <time>2021-03-02T07:49:59Z</time>
      </trkpt>
      <trkpt lat="36.8507450" lon="-2.9458850">
        <ele>367.4</ele>
        <time>2021-03-02T07:50:00Z</time>
      </trkpt>
      <trkpt lat="36.8507450" lon="-2.9458320">
        <ele>367.6</ele>
        <time>2021-03-02T07:50:01Z</time>
      </trkpt>
      <trkpt lat="36.8507450" lon="-2.9457790">
        <ele>367.8</ele>
        <time>2021-03-02T07:50:02Z</time>
      </trkpt>
      <trkpt lat="36.8507460" lon="-2.9457250">
        <ele>368.0</ele>
        <time>2021-03-02T07:50:03Z</time>
      </trkpt>
      <trkpt lat="36.8507460" lon="-2.9456710">
        <ele>368.0</ele>
        <time>2021-03-02T07:50:04Z</time>
      </trkpt>
      <trkpt lat="36.8507470" lon="-2.9456170">
        <ele>368.2</ele>
        <time>2021-03-02T07:50:05Z</time>
      </trkpt>
      <trkpt lat="36.8507460" lon="-2.9455630">
        <ele>368.4</ele>
        <time>2021-03-02T07:50:06Z</time>
      </trkpt>
      <trkpt lat="36.8507440" lon="-2.9455070">
        <ele>368.4</ele>
        <time>2021-03-02T07:50:07Z</time>
      </trkpt>
      <trkpt lat="36.8507420" lon="-2.9454520">
        <ele>368.6</ele>
        <time>2021-03-02T07:50:08Z</time>
      </trkpt>
      <trkpt lat="36.8507400" lon="-2.9453970">
        <ele>368.8</ele>
        <time>2021-03-02T07:50:09Z</time>
      </trkpt>
      <trkpt lat="36.8507370" lon="-2.9453420">
        <ele>368.8</ele>
        <time>2021-03-02T07:50:10Z</time>
      </trkpt>
      <trkpt lat="36.8507360" lon="-2.9452850">
        <ele>369.0</ele>
        <time>2021-03-02T07:50:11Z</time>
      </trkpt>
      <trkpt lat="36.8507340" lon="-2.9452300">
        <ele>369.0</ele>
        <time>2021-03-02T07:50:12Z</time>
      </trkpt>
      <trkpt lat="36.8507320" lon="-2.9451750">
        <ele>369.2</ele>
        <time>2021-03-02T07:50:13Z</time>
      </trkpt>
      <trkpt lat="36.8507290" lon="-2.9451210">
        <ele>369.4</ele>
        <time>2021-03-02T07:50:14Z</time>
      </trkpt>
      <trkpt lat="36.8507250" lon="-2.9450680">
        <ele>369.4</ele>
        <time>2021-03-02T07:50:15Z</time>
      </trkpt>
      <trkpt lat="36.8507210" lon="-2.9450130">
        <ele>369.6</ele>
        <time>2021-03-02T07:50:16Z</time>
      </trkpt>
      <trkpt lat="36.8507160" lon="-2.9449590">
        <ele>369.6</ele>
        <time>2021-03-02T07:50:17Z</time>
      </trkpt>
      <trkpt lat="36.8507100" lon="-2.9449050">
        <ele>369.8</ele>
        <time>2021-03-02T07:50:18Z</time>
      </trkpt>
      <trkpt lat="36.8507050" lon="-2.9448500">
        <ele>369.8</ele>
        <time>2021-03-02T07:50:19Z</time>
      </trkpt>
      <trkpt lat="36.8506990" lon="-2.9447960">
        <ele>370.0</ele>
        <time>2021-03-02T07:50:20Z</time>
      </trkpt>
      <trkpt lat="36.8506940" lon="-2.9447410">
        <ele>370.2</ele>
        <time>2021-03-02T07:50:21Z</time>
      </trkpt>
      <trkpt lat="36.8506870" lon="-2.9446860">
        <ele>370.2</ele>
        <time>2021-03-02T07:50:22Z</time>
      </trkpt>
      <trkpt lat="36.8506790" lon="-2.9446310">
        <ele>370.2</ele>
        <time>2021-03-02T07:50:23Z</time>
      </trkpt>
      <trkpt lat="36.8506710" lon="-2.9445750">
        <ele>370.4</ele>
        <time>2021-03-02T07:50:24Z</time>
      </trkpt>
      <trkpt lat="36.8506630" lon="-2.9445180">
        <ele>370.4</ele>
        <time>2021-03-02T07:50:25Z</time>
      </trkpt>
      <trkpt lat="36.8506550" lon="-2.9444610">
        <ele>370.6</ele>
        <time>2021-03-02T07:50:26Z</time>
      </trkpt>
      <trkpt lat="36.8506450" lon="-2.9444060">
        <ele>370.6</ele>
        <time>2021-03-02T07:50:27Z</time>
      </trkpt>
      <trkpt lat="36.8506350" lon="-2.9443530">
        <ele>370.6</ele>
        <time>2021-03-02T07:50:28Z</time>
      </trkpt>
      <trkpt lat="36.8506220" lon="-2.9442980">
        <ele>370.6</ele>
        <time>2021-03-02T07:50:29Z</time>
      </trkpt>
      <trkpt lat="36.8506100" lon="-2.9442420">
        <ele>370.8</ele>
        <time>2021-03-02T07:50:30Z</time>
      </trkpt>
      <trkpt lat="36.8505960" lon="-2.9441850">
        <ele>370.8</ele>
        <time>2021-03-02T07:50:31Z</time>
      </trkpt>
      <trkpt lat="36.8505820" lon="-2.9441290">
        <ele>370.8</ele>
        <time>2021-03-02T07:50:32Z</time>
      </trkpt>
      <trkpt lat="36.8505670" lon="-2.9440730">
        <ele>371.0</ele>
        <time>2021-03-02T07:50:33Z</time>
      </trkpt>
      <trkpt lat="36.8505520" lon="-2.9440150">
        <ele>371.2</ele>
        <time>2021-03-02T07:50:34Z</time>
      </trkpt>
      <trkpt lat="36.8505360" lon="-2.9439570">
        <ele>371.4</ele>
        <time>2021-03-02T07:50:35Z</time>
      </trkpt>
      <trkpt lat="36.8505170" lon="-2.9439000">
        <ele>371.4</ele>
        <time>2021-03-02T07:50:36Z</time>
      </trkpt>
      <trkpt lat="36.8504980" lon="-2.9438420">
        <ele>371.4</ele>
        <time>2021-03-02T07:50:37Z</time>
      </trkpt>
      <trkpt lat="36.8504760" lon="-2.9437840">
        <ele>371.4</ele>
        <time>2021-03-02T07:50:38Z</time>
      </trkpt>
      <trkpt lat="36.8504530" lon="-2.9437270">
        <ele>371.4</ele>
        <time>2021-03-02T07:50:39Z</time>
      </trkpt>
      <trkpt lat="36.8504300" lon="-2.9436680">
        <ele>371.4</ele>
        <time>2021-03-02T07:50:40Z</time>
      </trkpt>
      <trkpt lat="36.8504040" lon="-2.9436100">
        <ele>371.4</ele>
        <time>2021-03-02T07:50:41Z</time>
      </trkpt>
      <trkpt lat="36.8503770" lon="-2.9435520">
        <ele>371.2</ele>
        <time>2021-03-02T07:50:42Z</time>
      </trkpt>
      <trkpt lat="36.8503470" lon="-2.9434950">
        <ele>371.2</ele>
        <time>2021-03-02T07:50:43Z</time>
      </trkpt>
      <trkpt lat="36.8503180" lon="-2.9434370">
        <ele>371.2</ele>
        <time>2021-03-02T07:50:44Z</time>
      </trkpt>
      <trkpt lat="36.8502850" lon="-2.9433800">
        <ele>371.0</ele>
        <time>2021-03-02T07:50:45Z</time>
      </trkpt>
      <trkpt lat="36.8502500" lon="-2.9433230">
        <ele>371.0</ele>
        <time>2021-03-02T07:50:46Z</time>
      </trkpt>
      <trkpt lat="36.8502130" lon="-2.9432660">
        <ele>370.8</ele>
        <time>2021-03-02T07:50:47Z</time>
      </trkpt>
      <trkpt lat="36.8501740" lon="-2.9432100">
        <ele>370.8</ele>
        <time>2021-03-02T07:50:48Z</time>
      </trkpt>
      <trkpt lat="36.8501330" lon="-2.9431520">
        <ele>370.6</ele>
        <time>2021-03-02T07:50:49Z</time>
      </trkpt>
      <trkpt lat="36.8500460" lon="-2.9430390">
        <ele>370.4</ele>
        <time>2021-03-02T07:50:50Z</time>
      </trkpt>
      <trkpt lat="36.8500220" lon="-2.9430120">
        <ele>370.4</ele>
        <time>2021-03-02T07:50:51Z</time>
      </trkpt>
      <trkpt lat="36.8499980" lon="-2.9429850">
        <ele>370.2</ele>
        <time>2021-03-02T07:50:52Z</time>
      </trkpt>
      <trkpt lat="36.8499470" lon="-2.9429320">
        <ele>370.0</ele>
        <time>2021-03-02T07:50:53Z</time>
      </trkpt>
      <trkpt lat="36.8498950" lon="-2.9428770">
        <ele>369.6</ele>
        <time>2021-03-02T07:50:54Z</time>
      </trkpt>
      <trkpt lat="36.8498400" lon="-2.9428250">
        <ele>369.4</ele>
        <time>2021-03-02T07:50:55Z</time>
      </trkpt>
      <trkpt lat="36.8497820" lon="-2.9427750">
        <ele>369.0</ele>
        <time>2021-03-02T07:50:56Z</time>
      </trkpt>
      <trkpt lat="36.8497230" lon="-2.9427290">
        <ele>368.8</ele>
        <time>2021-03-02T07:50:57Z</time>
      </trkpt>
      <trkpt lat="36.8496610" lon="-2.9426830">
        <ele>368.8</ele>
        <time>2021-03-02T07:50:58Z</time>
      </trkpt>
      <trkpt lat="36.8495960" lon="-2.9426420">
        <ele>368.4</ele>
        <time>2021-03-02T07:50:59Z</time>
      </trkpt>
      <trkpt lat="36.8495290" lon="-2.9426040">
        <ele>368.2</ele>
        <time>2021-03-02T07:51:00Z</time>
      </trkpt>
      <trkpt lat="36.8494590" lon="-2.9425680">
        <ele>367.8</ele>
        <time>2021-03-02T07:51:01Z</time>
      </trkpt>
      <trkpt lat="36.8493880" lon="-2.9425320">
        <ele>367.6</ele>
        <time>2021-03-02T07:51:02Z</time>
      </trkpt>
      <trkpt lat="36.8493150" lon="-2.9424990">
        <ele>367.0</ele>
        <time>2021-03-02T07:51:03Z</time>
      </trkpt>
      <trkpt lat="36.8492410" lon="-2.9424680">
        <ele>366.6</ele>
        <time>2021-03-02T07:51:04Z</time>
      </trkpt>
      <trkpt lat="36.8491650" lon="-2.9424380">
        <ele>366.6</ele>
        <time>2021-03-02T07:51:05Z</time>
      </trkpt>
      <trkpt lat="36.8490880" lon="-2.9424080">
        <ele>366.0</ele>
        <time>2021-03-02T07:51:06Z</time>
      </trkpt>
      <trkpt lat="36.8490100" lon="-2.9423800">
        <ele>365.6</ele>
        <time>2021-03-02T07:51:07Z</time>
      </trkpt>
      <trkpt lat="36.8489300" lon="-2.9423530">
        <ele>365.2</ele>
        <time>2021-03-02T07:51:08Z</time>
      </trkpt>
      <trkpt lat="36.8488490" lon="-2.9423260">
        <ele>364.8</ele>
        <time>2021-03-02T07:51:09Z</time>
      </trkpt>
      <trkpt lat="36.8487670" lon="-2.9422970">
        <ele>364.6</ele>
        <time>2021-03-02T07:51:10Z</time>
      </trkpt>
      <trkpt lat="36.8486850" lon="-2.9422680">
        <ele>364.2</ele>
        <time>2021-03-02T07:51:11Z</time>
      </trkpt>
      <trkpt lat="36.8486020" lon="-2.9422390">
        <ele>364.0</ele>
        <time>2021-03-02T07:51:12Z</time>
      </trkpt>
      <trkpt lat="36.8485180" lon="-2.9422100">
        <ele>363.8</ele>
        <time>2021-03-02T07:51:13Z</time>
      </trkpt>
      <trkpt lat="36.8484330" lon="-2.9421810">
        <ele>363.6</ele>
        <time>2021-03-02T07:51:14Z</time>
      </trkpt>
      <trkpt lat="36.8483500" lon="-2.9421490">
        <ele>363.2</ele>
        <time>2021-03-02T07:51:15Z</time>
      </trkpt>
      <trkpt lat="36.8482650" lon="-2.9421200">
        <ele>363.0</ele>
        <time>2021-03-02T07:51:16Z</time>
      </trkpt>
      <trkpt lat="36.8481810" lon="-2.9420910">
        <ele>362.8</ele>
        <time>2021-03-02T07:51:17Z</time>
      </trkpt>
      <trkpt lat="36.8480980" lon="-2.9420620">
        <ele>362.4</ele>
        <time>2021-03-02T07:51:18Z</time>
      </trkpt>
      <trkpt lat="36.8480140" lon="-2.9420320">
        <ele>362.2</ele>
        <time>2021-03-02T07:51:19Z</time>
      </trkpt>
      <trkpt lat="36.8479310" lon="-2.9420050">
        <ele>362.0</ele>
        <time>2021-03-02T07:51:20Z</time>
      </trkpt>
      <trkpt lat="36.8478480" lon="-2.9419780">
        <ele>361.8</ele>
        <time>2021-03-02T07:51:21Z</time>
      </trkpt>
      <trkpt lat="36.8477670" lon="-2.9419500">
        <ele>361.6</ele>
        <time>2021-03-02T07:51:22Z</time>
      </trkpt>
      <trkpt lat="36.8476860" lon="-2.9419210">
        <ele>361.4</ele>
        <time>2021-03-02T07:51:23Z</time>
      </trkpt>
      <trkpt lat="36.8476050" lon="-2.9418920">
        <ele>361.2</ele>
        <time>2021-03-02T07:51:24Z</time>
      </trkpt>
      <trkpt lat="36.8475240" lon="-2.9418660">
        <ele>361.0</ele>
        <time>2021-03-02T07:51:25Z</time>
      </trkpt>
      <trkpt lat="36.8474430" lon="-2.9418380">
        <ele>360.8</ele>
        <time>2021-03-02T07:51:26Z</time>
      </trkpt>
      <trkpt lat="36.8473630" lon="-2.9418070">
        <ele>360.6</ele>
        <time>2021-03-02T07:51:27Z</time>
      </trkpt>
      <trkpt lat="36.8472820" lon="-2.9417760">
        <ele>360.4</ele>
        <time>2021-03-02T07:51:28Z</time>
      </trkpt>
      <trkpt lat="36.8472010" lon="-2.9417440">
        <ele>360.2</ele>
        <time>2021-03-02T07:51:29Z</time>
      </trkpt>
      <trkpt lat="36.8471200" lon="-2.9417110">
        <ele>360.0</ele>
        <time>2021-03-02T07:51:30Z</time>
      </trkpt>
      <trkpt lat="36.8470390" lon="-2.9416770">
        <ele>359.8</ele>
        <time>2021-03-02T07:51:31Z</time>
      </trkpt>
      <trkpt lat="36.8469590" lon="-2.9416410">
        <ele>359.4</ele>
        <time>2021-03-02T07:51:32Z</time>
      </trkpt>
      <trkpt lat="36.8468790" lon="-2.9416030">
        <ele>359.2</ele>
        <time>2021-03-02T07:51:33Z</time>
      </trkpt>
      <trkpt lat="36.8467980" lon="-2.9415610">
        <ele>359.0</ele>
        <time>2021-03-02T07:51:34Z</time>
      </trkpt>
      <trkpt lat="36.8467180" lon="-2.9415180">
        <ele>358.6</ele>
        <time>2021-03-02T07:51:35Z</time>
      </trkpt>
      <trkpt lat="36.8466360" lon="-2.9414720">
        <ele>358.2</ele>
        <time>2021-03-02T07:51:36Z</time>
      </trkpt>
      <trkpt lat="36.8465550" lon="-2.9414230">
        <ele>357.8</ele>
        <time>2021-03-02T07:51:37Z</time>
      </trkpt>
      <trkpt lat="36.8464740" lon="-2.9413720">
        <ele>357.4</ele>
        <time>2021-03-02T07:51:38Z</time>
      </trkpt>
      <trkpt lat="36.8463910" lon="-2.9413200">
        <ele>357.0</ele>
        <time>2021-03-02T07:51:39Z</time>
      </trkpt>
      <trkpt lat="36.8463080" lon="-2.9412680">
        <ele>356.4</ele>
        <time>2021-03-02T07:51:40Z</time>
      </trkpt>
      <trkpt lat="36.8462250" lon="-2.9412130">
        <ele>356.2</ele>
        <time>2021-03-02T07:51:41Z</time>
      </trkpt>
      <trkpt lat="36.8461410" lon="-2.9411580">
        <ele>355.8</ele>
        <time>2021-03-02T07:51:42Z</time>
      </trkpt>
      <trkpt lat="36.8460560" lon="-2.9411040">
        <ele>355.6</ele>
        <time>2021-03-02T07:51:43Z</time>
      </trkpt>
      <trkpt lat="36.8459710" lon="-2.9410490">
        <ele>355.2</ele>
        <time>2021-03-02T07:51:44Z</time>
      </trkpt>
      <trkpt lat="36.8458850" lon="-2.9409930">
        <ele>354.8</ele>
        <time>2021-03-02T07:51:45Z</time>
      </trkpt>
      <trkpt lat="36.8458000" lon="-2.9409370">
        <ele>354.2</ele>
        <time>2021-03-02T07:51:46Z</time>
      </trkpt>
      <trkpt lat="36.8457140" lon="-2.9408820">
        <ele>353.6</ele>
        <time>2021-03-02T07:51:47Z</time>
      </trkpt>
      <trkpt lat="36.8456280" lon="-2.9408280">
        <ele>353.4</ele>
        <time>2021-03-02T07:51:48Z</time>
      </trkpt>
      <trkpt lat="36.8455430" lon="-2.9407730">
        <ele>352.8</ele>
        <time>2021-03-02T07:51:49Z</time>
      </trkpt>
      <trkpt lat="36.8454570" lon="-2.9407180">
        <ele>352.6</ele>
        <time>2021-03-02T07:51:50Z</time>
      </trkpt>
      <trkpt lat="36.8453720" lon="-2.9406640">
        <ele>352.2</ele>
        <time>2021-03-02T07:51:51Z</time>
      </trkpt>
      <trkpt lat="36.8452870" lon="-2.9406110">
        <ele>352.0</ele>
        <time>2021-03-02T07:51:52Z</time>
      </trkpt>
      <trkpt lat="36.8452040" lon="-2.9405580">
        <ele>351.8</ele>
        <time>2021-03-02T07:51:53Z</time>
      </trkpt>
      <trkpt lat="36.8451220" lon="-2.9405050">
        <ele>351.4</ele>
        <time>2021-03-02T07:51:54Z</time>
      </trkpt>
      <trkpt lat="36.8450410" lon="-2.9404520">
        <ele>351.2</ele>
        <time>2021-03-02T07:51:55Z</time>
      </trkpt>
      <trkpt lat="36.8449580" lon="-2.9404000">
        <ele>350.8</ele>
        <time>2021-03-02T07:51:56Z</time>
      </trkpt>
      <trkpt lat="36.8448770" lon="-2.9403470">
        <ele>350.6</ele>
        <time>2021-03-02T07:51:57Z</time>
      </trkpt>
      <trkpt lat="36.8447960" lon="-2.9402950">
        <ele>350.2</ele>
        <time>2021-03-02T07:51:58Z</time>
      </trkpt>
      <trkpt lat="36.8447160" lon="-2.9402420">
        <ele>349.8</ele>
        <time>2021-03-02T07:51:59Z</time>
      </trkpt>
      <trkpt lat="36.8446360" lon="-2.9401910">
        <ele>349.8</ele>
        <time>2021-03-02T07:52:00Z</time>
      </trkpt>
      <trkpt lat="36.8445560" lon="-2.9401400">
        <ele>349.4</ele>
        <time>2021-03-02T07:52:01Z</time>
      </trkpt>
      <trkpt lat="36.8444770" lon="-2.9400880">
        <ele>349.2</ele>
        <time>2021-03-02T07:52:02Z</time>
      </trkpt>
      <trkpt lat="36.8443990" lon="-2.9400370">
        <ele>349.0</ele>
        <time>2021-03-02T07:52:03Z</time>
      </trkpt>
      <trkpt lat="36.8443210" lon="-2.9399850">
        <ele>348.8</ele>
        <time>2021-03-02T07:52:04Z</time>
      </trkpt>
      <trkpt lat="36.8442430" lon="-2.9399340">
        <ele>348.4</ele>
        <time>2021-03-02T07:52:05Z</time>
      </trkpt>
      <trkpt lat="36.8441660" lon="-2.9398820">
        <ele>348.2</ele>
        <time>2021-03-02T07:52:06Z</time>
      </trkpt>
      <trkpt lat="36.8440880" lon="-2.9398320">
        <ele>348.0</ele>
        <time>2021-03-02T07:52:07Z</time>
      </trkpt>
      <trkpt lat="36.8440100" lon="-2.9397820">
        <ele>347.8</ele>
        <time>2021-03-02T07:52:08Z</time>
      </trkpt>
      <trkpt lat="36.8439320" lon="-2.9397310">
        <ele>347.6</ele>
        <time>2021-03-02T07:52:09Z</time>
      </trkpt>
      <trkpt lat="36.8438540" lon="-2.9396810">
        <ele>347.2</ele>
        <time>2021-03-02T07:52:10Z</time>
      </trkpt>
      <trkpt lat="36.8437760" lon="-2.9396320">
        <ele>346.8</ele>
        <time>2021-03-02T07:52:11Z</time>
      </trkpt>
      <trkpt lat="36.8436980" lon="-2.9395840">
        <ele>346.6</ele>
        <time>2021-03-02T07:52:12Z</time>
      </trkpt>
      <trkpt lat="36.8436180" lon="-2.9395400">
        <ele>346.2</ele>
        <time>2021-03-02T07:52:13Z</time>
      </trkpt>
      <trkpt lat="36.8435380" lon="-2.9394970">
        <ele>346.2</ele>
        <time>2021-03-02T07:52:14Z</time>
      </trkpt>
      <trkpt lat="36.8434570" lon="-2.9394580">
        <ele>345.8</ele>
        <time>2021-03-02T07:52:15Z</time>
      </trkpt>
      <trkpt lat="36.8433750" lon="-2.9394270">
        <ele>345.8</ele>
        <time>2021-03-02T07:52:16Z</time>
      </trkpt>
      <trkpt lat="36.8432910" lon="-2.9394080">
        <ele>345.6</ele>
        <time>2021-03-02T07:52:17Z</time>
      </trkpt>
      <trkpt lat="36.8432060" lon="-2.9394040">
        <ele>345.4</ele>
        <time>2021-03-02T07:52:18Z</time>
      </trkpt>
      <trkpt lat="36.8431200" lon="-2.9394090">
        <ele>345.2</ele>
        <time>2021-03-02T07:52:19Z</time>
      </trkpt>
      <trkpt lat="36.8430340" lon="-2.9394210">
        <ele>344.8</ele>
        <time>2021-03-02T07:52:20Z</time>
      </trkpt>
      <trkpt lat="36.8429490" lon="-2.9394390">
        <ele>344.6</ele>
        <time>2021-03-02T07:52:21Z</time>
      </trkpt>
      <trkpt lat="36.8428660" lon="-2.9394640">
        <ele>344.4</ele>
        <time>2021-03-02T07:52:22Z</time>
      </trkpt>
      <trkpt lat="36.8427840" lon="-2.9394940">
        <ele>344.0</ele>
        <time>2021-03-02T07:52:23Z</time>
      </trkpt>
      <trkpt lat="36.8427030" lon="-2.9395270">
        <ele>343.8</ele>
        <time>2021-03-02T07:52:24Z</time>
      </trkpt>
      <trkpt lat="36.8426220" lon="-2.9395630">
        <ele>343.6</ele>
        <time>2021-03-02T07:52:25Z</time>
      </trkpt>
      <trkpt lat="36.8425410" lon="-2.9395960">
        <ele>343.4</ele>
        <time>2021-03-02T07:52:26Z</time>
      </trkpt>
      <trkpt lat="36.8424600" lon="-2.9396300">
        <ele>343.2</ele>
        <time>2021-03-02T07:52:27Z</time>
      </trkpt>
      <trkpt lat="36.8423790" lon="-2.9396620">
        <ele>343.0</ele>
        <time>2021-03-02T07:52:28Z</time>
      </trkpt>
      <trkpt lat="36.8422970" lon="-2.9396910">
        <ele>342.8</ele>
        <time>2021-03-02T07:52:29Z</time>
      </trkpt>
      <trkpt lat="36.8422150" lon="-2.9397170">
        <ele>342.8</ele>
        <time>2021-03-02T07:52:30Z</time>
      </trkpt>
      <trkpt lat="36.8421310" lon="-2.9397390">
        <ele>342.6</ele>
        <time>2021-03-02T07:52:31Z</time>
      </trkpt>
      <trkpt lat="36.8420460" lon="-2.9397550">
        <ele>342.2</ele>
        <time>2021-03-02T07:52:32Z</time>
      </trkpt>
      <trkpt lat="36.8419620" lon="-2.9397640">
        <ele>342.0</ele>
        <time>2021-03-02T07:52:33Z</time>
      </trkpt>
      <trkpt lat="36.8418780" lon="-2.9397630">
        <ele>341.6</ele>
        <time>2021-03-02T07:52:34Z</time>
      </trkpt>
      <trkpt lat="36.8417940" lon="-2.9397540">
        <ele>341.2</ele>
        <time>2021-03-02T07:52:35Z</time>
      </trkpt>
      <trkpt lat="36.8417120" lon="-2.9397370">
        <ele>341.2</ele>
        <time>2021-03-02T07:52:36Z</time>
      </trkpt>
      <trkpt lat="36.8416310" lon="-2.9397110">
        <ele>340.8</ele>
        <time>2021-03-02T07:52:37Z</time>
      </trkpt>
      <trkpt lat="36.8415530" lon="-2.9396770">
        <ele>340.6</ele>
        <time>2021-03-02T07:52:38Z</time>
      </trkpt>
      <trkpt lat="36.8414740" lon="-2.9396370">
        <ele>340.4</ele>
        <time>2021-03-02T07:52:39Z</time>
      </trkpt>
      <trkpt lat="36.8413970" lon="-2.9395940">
        <ele>340.2</ele>
        <time>2021-03-02T07:52:40Z</time>
      </trkpt>
      <trkpt lat="36.8413200" lon="-2.9395480">
        <ele>340.0</ele>
        <time>2021-03-02T07:52:41Z</time>
      </trkpt>
      <trkpt lat="36.8412450" lon="-2.9395020">
        <ele>339.8</ele>
        <time>2021-03-02T07:52:42Z</time>
      </trkpt>
      <trkpt lat="36.8411710" lon="-2.9394550">
        <ele>339.6</ele>
        <time>2021-03-02T07:52:43Z</time>
      </trkpt>
      <trkpt lat="36.8410980" lon="-2.9394070">
        <ele>339.4</ele>
        <time>2021-03-02T07:52:44Z</time>
      </trkpt>
      <trkpt lat="36.8410270" lon="-2.9393600">
        <ele>339.2</ele>
        <time>2021-03-02T07:52:45Z</time>
      </trkpt>
      <trkpt lat="36.8409560" lon="-2.9393120">
        <ele>339.0</ele>
        <time>2021-03-02T07:52:46Z</time>
      </trkpt>
      <trkpt lat="36.8408860" lon="-2.9392650">
        <ele>339.0</ele>
        <time>2021-03-02T07:52:47Z</time>
      </trkpt>
      <trkpt lat="36.8408170" lon="-2.9392190">
        <ele>338.8</ele>
        <time>2021-03-02T07:52:48Z</time>
      </trkpt>
      <trkpt lat="36.8407480" lon="-2.9391740">
        <ele>338.6</ele>
        <time>2021-03-02T07:52:49Z</time>
      </trkpt>
      <trkpt lat="36.8406790" lon="-2.9391290">
        <ele>338.6</ele>
        <time>2021-03-02T07:52:50Z</time>
      </trkpt>
      <trkpt lat="36.8406090" lon="-2.9390830">
        <ele>338.4</ele>
        <time>2021-03-02T07:52:51Z</time>
      </trkpt>
      <trkpt lat="36.8405380" lon="-2.9390360">
        <ele>338.2</ele>
        <time>2021-03-02T07:52:52Z</time>
      </trkpt>
      <trkpt lat="36.8404670" lon="-2.9389900">
        <ele>337.8</ele>
        <time>2021-03-02T07:52:53Z</time>
      </trkpt>
      <trkpt lat="36.8403950" lon="-2.9389430">
        <ele>337.6</ele>
        <time>2021-03-02T07:52:54Z</time>
      </trkpt>
      <trkpt lat="36.8403220" lon="-2.9388980">
        <ele>337.4</ele>
        <time>2021-03-02T07:52:55Z</time>
      </trkpt>
      <trkpt lat="36.8402470" lon="-2.9388550">
        <ele>337.0</ele>
        <time>2021-03-02T07:52:56Z</time>
      </trkpt>
      <trkpt lat="36.8401730" lon="-2.9388100">
        <ele>336.8</ele>
        <time>2021-03-02T07:52:57Z</time>
      </trkpt>
      <trkpt lat="36.8400990" lon="-2.9387620">
        <ele>336.4</ele>
        <time>2021-03-02T07:52:58Z</time>
      </trkpt>
      <trkpt lat="36.8400240" lon="-2.9387130">
        <ele>336.2</ele>
        <time>2021-03-02T07:52:59Z</time>
      </trkpt>
      <trkpt lat="36.8399480" lon="-2.9386640">
        <ele>335.6</ele>
        <time>2021-03-02T07:53:00Z</time>
      </trkpt>
      <trkpt lat="36.8398720" lon="-2.9386150">
        <ele>335.2</ele>
        <time>2021-03-02T07:53:01Z</time>
      </trkpt>
      <trkpt lat="36.8397950" lon="-2.9385640">
        <ele>334.8</ele>
        <time>2021-03-02T07:53:02Z</time>
      </trkpt>
      <trkpt lat="36.8397180" lon="-2.9385130">
        <ele>334.2</ele>
        <time>2021-03-02T07:53:03Z</time>
      </trkpt>
      <trkpt lat="36.8396410" lon="-2.9384630">
        <ele>334.0</ele>
        <time>2021-03-02T07:53:04Z</time>
      </trkpt>
      <trkpt lat="36.8395610" lon="-2.9384130">
        <ele>333.4</ele>
        <time>2021-03-02T07:53:05Z</time>
      </trkpt>
      <trkpt lat="36.8394830" lon="-2.9383630">
        <ele>333.0</ele>
        <time>2021-03-02T07:53:06Z</time>
      </trkpt>
      <trkpt lat="36.8394050" lon="-2.9383110">
        <ele>332.8</ele>
        <time>2021-03-02T07:53:07Z</time>
      </trkpt>
      <trkpt lat="36.8393270" lon="-2.9382590">
        <ele>332.6</ele>
        <time>2021-03-02T07:53:08Z</time>
      </trkpt>
      <trkpt lat="36.8392490" lon="-2.9382050">
        <ele>332.6</ele>
        <time>2021-03-02T07:53:09Z</time>
      </trkpt>
      <trkpt lat="36.8391710" lon="-2.9381520">
        <ele>331.8</ele>
        <time>2021-03-02T07:53:10Z</time>
      </trkpt>
      <trkpt lat="36.8390920" lon="-2.9381010">
        <ele>331.4</ele>
        <time>2021-03-02T07:53:11Z</time>
      </trkpt>
      <trkpt lat="36.8390120" lon="-2.9380500">
        <ele>330.8</ele>
        <time>2021-03-02T07:53:12Z</time>
      </trkpt>
      <trkpt lat="36.8389320" lon="-2.9379980">
        <ele>330.6</ele>
        <time>2021-03-02T07:53:13Z</time>
      </trkpt>
      <trkpt lat="36.8388500" lon="-2.9379440">
        <ele>330.4</ele>
        <time>2021-03-02T07:53:14Z</time>
      </trkpt>
      <trkpt lat="36.8387680" lon="-2.9378910">
        <ele>330.0</ele>
        <time>2021-03-02T07:53:15Z</time>
      </trkpt>
      <trkpt lat="36.8386840" lon="-2.9378380">
        <ele>329.8</ele>
        <time>2021-03-02T07:53:16Z</time>
      </trkpt>
      <trkpt lat="36.8385990" lon="-2.9377840">
        <ele>329.4</ele>
        <time>2021-03-02T07:53:17Z</time>
      </trkpt>
      <trkpt lat="36.8385140" lon="-2.9377310">
        <ele>329.0</ele>
        <time>2021-03-02T07:53:18Z</time>
      </trkpt>
      <trkpt lat="36.8384270" lon="-2.9376780">
        <ele>328.6</ele>
        <time>2021-03-02T07:53:19Z</time>
      </trkpt>
      <trkpt lat="36.8383380" lon="-2.9376240">
        <ele>328.0</ele>
        <time>2021-03-02T07:53:20Z</time>
      </trkpt>
      <trkpt lat="36.8382490" lon="-2.9375690">
        <ele>327.6</ele>
        <time>2021-03-02T07:53:21Z</time>
      </trkpt>
      <trkpt lat="36.8381580" lon="-2.9375110">
        <ele>327.0</ele>
        <time>2021-03-02T07:53:22Z</time>
      </trkpt>
      <trkpt lat="36.8380680" lon="-2.9374510">
        <ele>326.6</ele>
        <time>2021-03-02T07:53:23Z</time>
      </trkpt>
      <trkpt lat="36.8379780" lon="-2.9373880">
        <ele>325.8</ele>
        <time>2021-03-02T07:53:24Z</time>
      </trkpt>
      <trkpt lat="36.8378890" lon="-2.9373220">
        <ele>325.0</ele>
        <time>2021-03-02T07:53:25Z</time>
      </trkpt>
      <trkpt lat="36.8378000" lon="-2.9372540">
        <ele>324.6</ele>
        <time>2021-03-02T07:53:26Z</time>
      </trkpt>
      <trkpt lat="36.8377120" lon="-2.9371830">
        <ele>324.0</ele>
        <time>2021-03-02T07:53:27Z</time>
      </trkpt>
      <trkpt lat="36.8376270" lon="-2.9371090">
        <ele>323.6</ele>
        <time>2021-03-02T07:53:28Z</time>
      </trkpt>
      <trkpt lat="36.8375460" lon="-2.9370280">
        <ele>323.0</ele>
        <time>2021-03-02T07:53:29Z</time>
      </trkpt>
      <trkpt lat="36.8374710" lon="-2.9369400">
        <ele>322.6</ele>
        <time>2021-03-02T07:53:30Z</time>
      </trkpt>
      <trkpt lat="36.8374030" lon="-2.9368440">
        <ele>321.8</ele>
        <time>2021-03-02T07:53:31Z</time>
      </trkpt>
      <trkpt lat="36.8373440" lon="-2.9367400">
        <ele>321.4</ele>
        <time>2021-03-02T07:53:32Z</time>
      </trkpt>
      <trkpt lat="36.8372910" lon="-2.9366310">
        <ele>321.0</ele>
        <time>2021-03-02T07:53:33Z</time>
      </trkpt>
      <trkpt lat="36.8372430" lon="-2.9365190">
        <ele>320.4</ele>
        <time>2021-03-02T07:53:34Z</time>
      </trkpt>
      <trkpt lat="36.8371980" lon="-2.9364010">
        <ele>320.0</ele>
        <time>2021-03-02T07:53:35Z</time>
      </trkpt>
      <trkpt lat="36.8371560" lon="-2.9362820">
        <ele>319.6</ele>
        <time>2021-03-02T07:53:36Z</time>
      </trkpt>
      <trkpt lat="36.8371140" lon="-2.9361590">
        <ele>318.8</ele>
        <time>2021-03-02T07:53:37Z</time>
      </trkpt>
      <trkpt lat="36.8370690" lon="-2.9360400">
        <ele>318.4</ele>
        <time>2021-03-02T07:53:38Z</time>
      </trkpt>
      <trkpt lat="36.8370230" lon="-2.9359220">
        <ele>317.8</ele>
        <time>2021-03-02T07:53:39Z</time>
      </trkpt>
      <trkpt lat="36.8369780" lon="-2.9358050">
        <ele>317.4</ele>
        <time>2021-03-02T07:53:40Z</time>
      </trkpt>
      <trkpt lat="36.8369330" lon="-2.9356910">
        <ele>317.0</ele>
        <time>2021-03-02T07:53:41Z</time>
      </trkpt>
      <trkpt lat="36.8368880" lon="-2.9355810">
        <ele>316.8</ele>
        <time>2021-03-02T07:53:42Z</time>
      </trkpt>
      <trkpt lat="36.8368480" lon="-2.9354810">
        <ele>316.6</ele>
        <time>2021-03-02T07:53:43Z</time>
      </trkpt>
      <trkpt lat="36.8368070" lon="-2.9354020">
        <ele>316.4</ele>
        <time>2021-03-02T07:53:44Z</time>
      </trkpt>
      <trkpt lat="36.8367550" lon="-2.9353540">
        <ele>316.4</ele>
        <time>2021-03-02T07:53:45Z</time>
      </trkpt>
      <trkpt lat="36.8366930" lon="-2.9353370">
        <ele>316.4</ele>
        <time>2021-03-02T07:53:46Z</time>
      </trkpt>
      <trkpt lat="36.8366280" lon="-2.9353520">
        <ele>316.2</ele>
        <time>2021-03-02T07:53:47Z</time>
      </trkpt>
      <trkpt lat="36.8365620" lon="-2.9353860">
        <ele>316.0</ele>
        <time>2021-03-02T07:53:48Z</time>
      </trkpt>
      <trkpt lat="36.8368520" lon="-2.9354280">
        <ele>311.3</ele>
        <time>2021-03-01T15:43:30Z</time>
      </trkpt>
      <trkpt lat="36.8368280" lon="-2.9353840">
        <ele>311.3</ele>
        <time>2021-03-01T15:43:31Z</time>
      </trkpt>
      <trkpt lat="36.8367940" lon="-2.9353600">
        <ele>311.3</ele>
        <time>2021-03-01T15:43:32Z</time>
      </trkpt>
      <trkpt lat="36.8367520" lon="-2.9353510">
        <ele>311.3</ele>
        <time>2021-03-01T15:43:33Z</time>
      </trkpt>
      <trkpt lat="36.8367080" lon="-2.9353560">
        <ele>311.3</ele>
        <time>2021-03-01T15:43:34Z</time>
      </trkpt>
      <trkpt lat="36.8366600" lon="-2.9353680">
        <ele>311.3</ele>
        <time>2021-03-01T15:43:35Z</time>
      </trkpt>
      <trkpt lat="36.8366070" lon="-2.9353840">
        <ele>311.4</ele>
        <time>2021-03-01T15:43:36Z</time>
      </trkpt>
      <trkpt lat="36.8365520" lon="-2.9354020">
        <ele>311.4</ele>
        <time>2021-03-01T15:43:37Z</time>
      </trkpt>
      <trkpt lat="36.8365010" lon="-2.9354230">
        <ele>311.5</ele>
        <time>2021-03-01T15:43:38Z</time>
      </trkpt>
      <trkpt lat="36.8364510" lon="-2.9354500">
        <ele>311.6</ele>
        <time>2021-03-01T15:43:39Z</time>
      </trkpt>
      <trkpt lat="36.8364020" lon="-2.9354800">
        <ele>311.7</ele>
        <time>2021-03-01T15:43:40Z</time>
      </trkpt>
      <trkpt lat="36.8363550" lon="-2.9355080">
        <ele>311.8</ele>
        <time>2021-03-01T15:43:41Z</time>
      </trkpt>
      <trkpt lat="36.8363050" lon="-2.9355180">
        <ele>311.8</ele>
        <time>2021-03-01T15:43:42Z</time>
      </trkpt>
      <trkpt lat="36.8362540" lon="-2.9355240">
        <ele>311.8</ele>
        <time>2021-03-01T15:43:43Z</time>
      </trkpt>
      <trkpt lat="36.8362050" lon="-2.9355440">
        <ele>311.8</ele>
        <time>2021-03-01T15:43:44Z</time>
      </trkpt>
      <trkpt lat="36.8361510" lon="-2.9355640">
        <ele>311.8</ele>
        <time>2021-03-01T15:43:45Z</time>
      </trkpt>
      <trkpt lat="36.8360930" lon="-2.9355820">
        <ele>311.9</ele>
        <time>2021-03-01T15:43:46Z</time>
      </trkpt>
      <trkpt lat="36.8360370" lon="-2.9355900">
        <ele>311.9</ele>
        <time>2021-03-01T15:43:47Z</time>
      </trkpt>
      <trkpt lat="36.8359850" lon="-2.9355850">
        <ele>311.9</ele>
        <time>2021-03-01T15:43:48Z</time>
      </trkpt>
      <trkpt lat="36.8359360" lon="-2.9355900">
        <ele>311.8</ele>
        <time>2021-03-01T15:43:49Z</time>
      </trkpt>
      <trkpt lat="36.8358900" lon="-2.9355970">
        <ele>311.8</ele>
        <time>2021-03-01T15:43:50Z</time>
      </trkpt>
      <trkpt lat="36.8358430" lon="-2.9356020">
        <ele>311.7</ele>
        <time>2021-03-01T15:43:51Z</time>
      </trkpt>
      <trkpt lat="36.8357920" lon="-2.9356060">
        <ele>311.6</ele>
        <time>2021-03-01T15:43:52Z</time>
      </trkpt>
      <trkpt lat="36.8357430" lon="-2.9356110">
        <ele>311.5</ele>
        <time>2021-03-01T15:43:53Z</time>
      </trkpt>
      <trkpt lat="36.8356970" lon="-2.9356180">
        <ele>311.4</ele>
        <time>2021-03-01T15:43:54Z</time>
      </trkpt>
      <trkpt lat="36.8356570" lon="-2.9356240">
        <ele>311.4</ele>
        <time>2021-03-01T15:43:55Z</time>
      </trkpt>
      <trkpt lat="36.8356120" lon="-2.9356360">
        <ele>311.3</ele>
        <time>2021-03-01T15:43:56Z</time>
      </trkpt>
      <trkpt lat="36.8355600" lon="-2.9356350">
        <ele>311.2</ele>
        <time>2021-03-01T15:43:57Z</time>
      </trkpt>
      <trkpt lat="36.8355000" lon="-2.9356310">
        <ele>311.2</ele>
        <time>2021-03-01T15:43:58Z</time>
      </trkpt>
      <trkpt lat="36.8354390" lon="-2.9356250">
        <ele>311.1</ele>
        <time>2021-03-01T15:43:59Z</time>
      </trkpt>
      <trkpt lat="36.8353790" lon="-2.9356140">
        <ele>311.0</ele>
        <time>2021-03-01T15:44:00Z</time>
      </trkpt>
      <trkpt lat="36.8353180" lon="-2.9356010">
        <ele>310.9</ele>
        <time>2021-03-01T15:44:01Z</time>
      </trkpt>
      <trkpt lat="36.8352490" lon="-2.9356280">
        <ele>310.8</ele>
        <time>2021-03-01T15:44:02Z</time>
      </trkpt>
      <trkpt lat="36.8351880" lon="-2.9356240">
        <ele>310.7</ele>
        <time>2021-03-01T15:44:03Z</time>
      </trkpt>
      <trkpt lat="36.8351260" lon="-2.9356080">
        <ele>310.6</ele>
        <time>2021-03-01T15:44:04Z</time>
      </trkpt>
      <trkpt lat="36.8350690" lon="-2.9356120">
        <ele>310.6</ele>
        <time>2021-03-01T15:44:05Z</time>
      </trkpt>
      <trkpt lat="36.8350160" lon="-2.9356040">
        <ele>310.6</ele>
        <time>2021-03-01T15:44:06Z</time>
      </trkpt>
      <trkpt lat="36.8349690" lon="-2.9355920">
        <ele>310.6</ele>
        <time>2021-03-01T15:44:07Z</time>
      </trkpt>
      <trkpt lat="36.8349210" lon="-2.9355850">
        <ele>310.6</ele>
        <time>2021-03-01T15:44:08Z</time>
      </trkpt>
      <trkpt lat="36.8348710" lon="-2.9355820">
        <ele>310.6</ele>
        <time>2021-03-01T15:44:09Z</time>
      </trkpt>
      <trkpt lat="36.8348180" lon="-2.9355810">
        <ele>310.5</ele>
        <time>2021-03-01T15:44:10Z</time>
      </trkpt>
      <trkpt lat="36.8347650" lon="-2.9355740">
        <ele>310.5</ele>
        <time>2021-03-01T15:44:11Z</time>
      </trkpt>
      <trkpt lat="36.8347160" lon="-2.9355610">
        <ele>310.5</ele>
        <time>2021-03-01T15:44:12Z</time>
      </trkpt>
      <trkpt lat="36.8346650" lon="-2.9355480">
        <ele>310.4</ele>
        <time>2021-03-01T15:44:13Z</time>
      </trkpt>
      <trkpt lat="36.8346080" lon="-2.9355350">
        <ele>310.4</ele>
        <time>2021-03-01T15:44:14Z</time>
      </trkpt>
      <trkpt lat="36.8345470" lon="-2.9355190">
        <ele>310.3</ele>
        <time>2021-03-01T15:44:15Z</time>
      </trkpt>
      <trkpt lat="36.8344870" lon="-2.9355070">
        <ele>310.3</ele>
        <time>2021-03-01T15:44:16Z</time>
      </trkpt>
      <trkpt lat="36.8344260" lon="-2.9354850">
        <ele>310.3</ele>
        <time>2021-03-01T15:44:17Z</time>
      </trkpt>
      <trkpt lat="36.8343690" lon="-2.9354750">
        <ele>310.2</ele>
        <time>2021-03-01T15:44:18Z</time>
      </trkpt>
      <trkpt lat="36.8343110" lon="-2.9354710">
        <ele>310.2</ele>
        <time>2021-03-01T15:44:19Z</time>
      </trkpt>
      <trkpt lat="36.8342560" lon="-2.9354570">
        <ele>310.2</ele>
        <time>2021-03-01T15:44:20Z</time>
      </trkpt>
      <trkpt lat="36.8342030" lon="-2.9354470">
        <ele>310.2</ele>
        <time>2021-03-01T15:44:21Z</time>
      </trkpt>
      <trkpt lat="36.8341510" lon="-2.9354440">
        <ele>310.2</ele>
        <time>2021-03-01T15:44:22Z</time>
      </trkpt>
      <trkpt lat="36.8340990" lon="-2.9354480">
        <ele>310.2</ele>
        <time>2021-03-01T15:44:23Z</time>
      </trkpt>
      <trkpt lat="36.8340410" lon="-2.9354510">
        <ele>310.2</ele>
        <time>2021-03-01T15:44:24Z</time>
      </trkpt>
      <trkpt lat="36.8339960" lon="-2.9355580">
        <ele>310.2</ele>
        <time>2021-03-01T15:44:25Z</time>
      </trkpt>
      <trkpt lat="36.8339370" lon="-2.9355770">
        <ele>310.2</ele>
        <time>2021-03-01T15:44:26Z</time>
      </trkpt>
      <trkpt lat="36.8338800" lon="-2.9355910">
        <ele>310.2</ele>
        <time>2021-03-01T15:44:27Z</time>
      </trkpt>
      <trkpt lat="36.8338270" lon="-2.9356070">
        <ele>310.2</ele>
        <time>2021-03-01T15:44:28Z</time>
      </trkpt>
      <trkpt lat="36.8337770" lon="-2.9356240">
        <ele>310.3</ele>
        <time>2021-03-01T15:44:29Z</time>
      </trkpt>
      <trkpt lat="36.8337260" lon="-2.9356440">
        <ele>310.3</ele>
        <time>2021-03-01T15:44:30Z</time>
      </trkpt>
      <trkpt lat="36.8336740" lon="-2.9356710">
        <ele>310.3</ele>
        <time>2021-03-01T15:44:31Z</time>
      </trkpt>
      <trkpt lat="36.8336180" lon="-2.9356800">
        <ele>310.3</ele>
        <time>2021-03-01T15:44:32Z</time>
      </trkpt>
      <trkpt lat="36.8335600" lon="-2.9356800">
        <ele>310.3</ele>
        <time>2021-03-01T15:44:33Z</time>
      </trkpt>
      <trkpt lat="36.8335020" lon="-2.9356830">
        <ele>310.4</ele>
        <time>2021-03-01T15:44:34Z</time>
      </trkpt>
      <trkpt lat="36.8334490" lon="-2.9356950">
        <ele>310.4</ele>
        <time>2021-03-01T15:44:35Z</time>
      </trkpt>
      <trkpt lat="36.8333940" lon="-2.9357150">
        <ele>310.4</ele>
        <time>2021-03-01T15:44:36Z</time>
      </trkpt>
      <trkpt lat="36.8333360" lon="-2.9357340">
        <ele>310.4</ele>
        <time>2021-03-01T15:44:37Z</time>
      </trkpt>
      <trkpt lat="36.8332720" lon="-2.9357170">
        <ele>310.5</ele>
        <time>2021-03-01T15:44:38Z</time>
      </trkpt>
      <trkpt lat="36.8332010" lon="-2.9356830">
        <ele>310.6</ele>
        <time>2021-03-01T15:44:39Z</time>
      </trkpt>
      <trkpt lat="36.8331290" lon="-2.9356660">
        <ele>310.8</ele>
        <time>2021-03-01T15:44:40Z</time>
      </trkpt>
      <trkpt lat="36.8330580" lon="-2.9356540">
        <ele>311.0</ele>
        <time>2021-03-01T15:44:41Z</time>
      </trkpt>
      <trkpt lat="36.8329900" lon="-2.9356610">
        <ele>311.2</ele>
        <time>2021-03-01T15:44:42Z</time>
      </trkpt>
      <trkpt lat="36.8329210" lon="-2.9356930">
        <ele>311.4</ele>
        <time>2021-03-01T15:44:43Z</time>
      </trkpt>
      <trkpt lat="36.8328500" lon="-2.9357160">
        <ele>311.6</ele>
        <time>2021-03-01T15:44:44Z</time>
      </trkpt>
      <trkpt lat="36.8327780" lon="-2.9357340">
        <ele>311.7</ele>
        <time>2021-03-01T15:44:45Z</time>
      </trkpt>
      <trkpt lat="36.8327070" lon="-2.9357600">
        <ele>311.9</ele>
        <time>2021-03-01T15:44:46Z</time>
      </trkpt>
      <trkpt lat="36.8326420" lon="-2.9357880">
        <ele>312.0</ele>
        <time>2021-03-01T15:44:47Z</time>
      </trkpt>
      <trkpt lat="36.8325780" lon="-2.9358080">
        <ele>312.0</ele>
        <time>2021-03-01T15:44:48Z</time>
      </trkpt>
      <trkpt lat="36.8325130" lon="-2.9358320">
        <ele>312.1</ele>
        <time>2021-03-01T15:44:49Z</time>
      </trkpt>
      <trkpt lat="36.8324500" lon="-2.9358440">
        <ele>312.2</ele>
        <time>2021-03-01T15:44:50Z</time>
      </trkpt>
      <trkpt lat="36.8323890" lon="-2.9358360">
        <ele>312.2</ele>
        <time>2021-03-01T15:44:51Z</time>
      </trkpt>
      <trkpt lat="36.8323300" lon="-2.9358280">
        <ele>312.3</ele>
        <time>2021-03-01T15:44:52Z</time>
      </trkpt>
      <trkpt lat="36.8322730" lon="-2.9358270">
        <ele>312.3</ele>
        <time>2021-03-01T15:44:53Z</time>
      </trkpt>
      <trkpt lat="36.8322190" lon="-2.9358340">
        <ele>312.4</ele>
        <time>2021-03-01T15:44:54Z</time>
      </trkpt>
      <trkpt lat="36.8321580" lon="-2.9358360">
        <ele>312.3</ele>
        <time>2021-03-01T15:44:55Z</time>
      </trkpt>
      <trkpt lat="36.8321020" lon="-2.9358680">
        <ele>312.3</ele>
        <time>2021-03-01T15:44:56Z</time>
      </trkpt>
      <trkpt lat="36.8320430" lon="-2.9359020">
        <ele>312.2</ele>
        <time>2021-03-01T15:44:57Z</time>
      </trkpt>
      <trkpt lat="36.8319830" lon="-2.9359330">
        <ele>312.1</ele>
        <time>2021-03-01T15:44:58Z</time>
      </trkpt>
      <trkpt lat="36.8319210" lon="-2.9359560">
        <ele>312.0</ele>
        <time>2021-03-01T15:44:59Z</time>
      </trkpt>
      <trkpt lat="36.8318690" lon="-2.9359810">
        <ele>311.9</ele>
        <time>2021-03-01T15:45:00Z</time>
      </trkpt>
      <trkpt lat="36.8318180" lon="-2.9360120">
        <ele>311.8</ele>
        <time>2021-03-01T15:45:01Z</time>
      </trkpt>
      <trkpt lat="36.8317550" lon="-2.9360400">
        <ele>311.8</ele>
        <time>2021-03-01T15:45:02Z</time>
      </trkpt>
      <trkpt lat="36.8316850" lon="-2.9360560">
        <ele>311.8</ele>
        <time>2021-03-01T15:45:03Z</time>
      </trkpt>
      <trkpt lat="36.8316120" lon="-2.9360670">
        <ele>311.8</ele>
        <time>2021-03-01T15:45:04Z</time>
      </trkpt>
      <trkpt lat="36.8315520" lon="-2.9361000">
        <ele>311.8</ele>
        <time>2021-03-01T15:45:05Z</time>
      </trkpt>
      <trkpt lat="36.8314890" lon="-2.9361030">
        <ele>311.9</ele>
        <time>2021-03-01T15:45:06Z</time>
      </trkpt>
      <trkpt lat="36.8314440" lon="-2.9361310">
        <ele>311.9</ele>
        <time>2021-03-01T15:45:07Z</time>
      </trkpt>
      <trkpt lat="36.8313980" lon="-2.9361430">
        <ele>311.9</ele>
        <time>2021-03-01T15:45:08Z</time>
      </trkpt>
      <trkpt lat="36.8313580" lon="-2.9361760">
        <ele>311.9</ele>
        <time>2021-03-01T15:45:09Z</time>
      </trkpt>
      <trkpt lat="36.8313190" lon="-2.9362110">
        <ele>311.8</ele>
        <time>2021-03-01T15:45:10Z</time>
      </trkpt>
      <trkpt lat="36.8312800" lon="-2.9362480">
        <ele>311.7</ele>
        <time>2021-03-01T15:45:11Z</time>
      </trkpt>
      <trkpt lat="36.8312390" lon="-2.9362900">
        <ele>311.6</ele>
        <time>2021-03-01T15:45:12Z</time>
      </trkpt>
      <trkpt lat="36.8312050" lon="-2.9363310">
        <ele>311.5</ele>
        <time>2021-03-01T15:45:13Z</time>
      </trkpt>
      <trkpt lat="36.8311760" lon="-2.9363670">
        <ele>311.5</ele>
        <time>2021-03-01T15:45:14Z</time>
      </trkpt>
      <trkpt lat="36.8311490" lon="-2.9364120">
        <ele>311.4</ele>
        <time>2021-03-01T15:45:15Z</time>
      </trkpt>
      <trkpt lat="36.8311100" lon="-2.9364410">
        <ele>311.4</ele>
        <time>2021-03-01T15:45:16Z</time>
      </trkpt>
      <trkpt lat="36.8310680" lon="-2.9364620">
        <ele>311.5</ele>
        <time>2021-03-01T15:45:17Z</time>
      </trkpt>
      <trkpt lat="36.8310200" lon="-2.9364780">
        <ele>311.5</ele>
        <time>2021-03-01T15:45:18Z</time>
      </trkpt>
      <trkpt lat="36.8309690" lon="-2.9365040">
        <ele>311.5</ele>
        <time>2021-03-01T15:45:19Z</time>
      </trkpt>
      <trkpt lat="36.8309040" lon="-2.9364860">
        <ele>311.6</ele>
        <time>2021-03-01T15:45:20Z</time>
      </trkpt>
      <trkpt lat="36.8308530" lon="-2.9365130">
        <ele>311.7</ele>
        <time>2021-03-01T15:45:21Z</time>
      </trkpt>
      <trkpt lat="36.8308050" lon="-2.9365370">
        <ele>311.7</ele>
        <time>2021-03-01T15:45:22Z</time>
      </trkpt>
      <trkpt lat="36.8307580" lon="-2.9365640">
        <ele>311.8</ele>
        <time>2021-03-01T15:45:23Z</time>
      </trkpt>
      <trkpt lat="36.8307130" lon="-2.9365900">
        <ele>311.8</ele>
        <time>2021-03-01T15:45:24Z</time>
      </trkpt>
      <trkpt lat="36.8306680" lon="-2.9366170">
        <ele>311.9</ele>
        <time>2021-03-01T15:45:25Z</time>
      </trkpt>
      <trkpt lat="36.8306210" lon="-2.9366470">
        <ele>311.9</ele>
        <time>2021-03-01T15:45:26Z</time>
      </trkpt>
      <trkpt lat="36.8305690" lon="-2.9366670">
        <ele>311.9</ele>
        <time>2021-03-01T15:45:27Z</time>
      </trkpt>
      <trkpt lat="36.8305100" lon="-2.9366840">
        <ele>311.9</ele>
        <time>2021-03-01T15:45:28Z</time>
      </trkpt>
      <trkpt lat="36.8304500" lon="-2.9366880">
        <ele>311.9</ele>
        <time>2021-03-01T15:45:29Z</time>
      </trkpt>
      <trkpt lat="36.8303880" lon="-2.9366850">
        <ele>311.9</ele>
        <time>2021-03-01T15:45:30Z</time>
      </trkpt>
      <trkpt lat="36.8303290" lon="-2.9366840">
        <ele>311.9</ele>
        <time>2021-03-01T15:45:31Z</time>
      </trkpt>
      <trkpt lat="36.8302700" lon="-2.9367020">
        <ele>311.9</ele>
        <time>2021-03-01T15:45:32Z</time>
      </trkpt>
      <trkpt lat="36.8302130" lon="-2.9367130">
        <ele>311.9</ele>
        <time>2021-03-01T15:45:33Z</time>
      </trkpt>
      <trkpt lat="36.8301570" lon="-2.9367240">
        <ele>311.9</ele>
        <time>2021-03-01T15:45:34Z</time>
      </trkpt>
      <trkpt lat="36.8301000" lon="-2.9367350">
        <ele>311.9</ele>
        <time>2021-03-01T15:45:35Z</time>
      </trkpt>
      <trkpt lat="36.8300480" lon="-2.9367350">
        <ele>311.9</ele>
        <time>2021-03-01T15:45:36Z</time>
      </trkpt>
      <trkpt lat="36.8299980" lon="-2.9367320">
        <ele>311.9</ele>
        <time>2021-03-01T15:45:37Z</time>
      </trkpt>
      <trkpt lat="36.8299460" lon="-2.9367320">
        <ele>311.9</ele>
        <time>2021-03-01T15:45:38Z</time>
      </trkpt>
      <trkpt lat="36.8298970" lon="-2.9367290">
        <ele>311.9</ele>
        <time>2021-03-01T15:45:39Z</time>
      </trkpt>
      <trkpt lat="36.8298490" lon="-2.9367240">
        <ele>311.9</ele>
        <time>2021-03-01T15:45:40Z</time>
      </trkpt>
      <trkpt lat="36.8298040" lon="-2.9367340">
        <ele>311.9</ele>
        <time>2021-03-01T15:45:41Z</time>
      </trkpt>
      <trkpt lat="36.8297630" lon="-2.9367540">
        <ele>311.9</ele>
        <time>2021-03-01T15:45:42Z</time>
      </trkpt>
      <trkpt lat="36.8297180" lon="-2.9367880">
        <ele>311.8</ele>
        <time>2021-03-01T15:45:43Z</time>
      </trkpt>
      <trkpt lat="36.8296480" lon="-2.9368120">
        <ele>311.8</ele>
        <time>2021-03-01T15:45:44Z</time>
      </trkpt>
      <trkpt lat="36.8295980" lon="-2.9368920">
        <ele>311.7</ele>
        <time>2021-03-01T15:45:45Z</time>
      </trkpt>
      <trkpt lat="36.8295380" lon="-2.9369250">
        <ele>311.6</ele>
        <time>2021-03-01T15:45:46Z</time>
      </trkpt>
      <trkpt lat="36.8294830" lon="-2.9369580">
        <ele>311.5</ele>
        <time>2021-03-01T15:45:47Z</time>
      </trkpt>
      <trkpt lat="36.8294260" lon="-2.9369880">
        <ele>311.4</ele>
        <time>2021-03-01T15:45:48Z</time>
      </trkpt>
      <trkpt lat="36.8293690" lon="-2.9370200">
        <ele>311.3</ele>
        <time>2021-03-01T15:45:49Z</time>
      </trkpt>
      <trkpt lat="36.8293090" lon="-2.9370630">
        <ele>311.2</ele>
        <time>2021-03-01T15:45:50Z</time>
      </trkpt>
      <trkpt lat="36.8292400" lon="-2.9370890">
        <ele>311.1</ele>
        <time>2021-03-01T15:45:51Z</time>
      </trkpt>
      <trkpt lat="36.8291420" lon="-2.9371040">
        <ele>310.9</ele>
        <time>2021-03-01T15:45:52Z</time>
      </trkpt>
      <trkpt lat="36.8290420" lon="-2.9371120">
        <ele>310.7</ele>
        <time>2021-03-01T15:45:53Z</time>
      </trkpt>
      <trkpt lat="36.8289580" lon="-2.9371220">
        <ele>310.6</ele>
        <time>2021-03-01T15:45:54Z</time>
      </trkpt>
      <trkpt lat="36.8288860" lon="-2.9371140">
        <ele>310.5</ele>
        <time>2021-03-01T15:45:55Z</time>
      </trkpt>
      <trkpt lat="36.8288290" lon="-2.9370970">
        <ele>310.4</ele>
        <time>2021-03-01T15:45:56Z</time>
      </trkpt>
      <trkpt lat="36.8287720" lon="-2.9370740">
        <ele>310.4</ele>
        <time>2021-03-01T15:45:57Z</time>
      </trkpt>
      <trkpt lat="36.8287110" lon="-2.9370430">
        <ele>310.3</ele>
        <time>2021-03-01T15:45:58Z</time>
      </trkpt>
      <trkpt lat="36.8286540" lon="-2.9370140">
        <ele>310.2</ele>
        <time>2021-03-01T15:45:59Z</time>
      </trkpt>
      <trkpt lat="36.8286010" lon="-2.9369890">
        <ele>310.1</ele>
        <time>2021-03-01T15:46:00Z</time>
      </trkpt>
      <trkpt lat="36.8285530" lon="-2.9369630">
        <ele>310.0</ele>
        <time>2021-03-01T15:46:01Z</time>
      </trkpt>
      <trkpt lat="36.8285200" lon="-2.9369390">
        <ele>310.0</ele>
        <time>2021-03-01T15:46:02Z</time>
      </trkpt>
      <trkpt lat="36.8284800" lon="-2.9369080">
        <ele>309.9</ele>
        <time>2021-03-01T15:46:03Z</time>
      </trkpt>
      <trkpt lat="36.8284450" lon="-2.9368820">
        <ele>309.8</ele>
        <time>2021-03-01T15:46:04Z</time>
      </trkpt>
      <trkpt lat="36.8283860" lon="-2.9368420">
        <ele>309.8</ele>
        <time>2021-03-01T15:46:05Z</time>
      </trkpt>
      <trkpt lat="36.8283360" lon="-2.9368060">
        <ele>309.7</ele>
        <time>2021-03-01T15:46:06Z</time>
      </trkpt>
      <trkpt lat="36.8282880" lon="-2.9367630">
        <ele>309.6</ele>
        <time>2021-03-01T15:46:07Z</time>
      </trkpt>
      <trkpt lat="36.8282430" lon="-2.9367390">
        <ele>309.6</ele>
        <time>2021-03-01T15:46:08Z</time>
      </trkpt>
      <trkpt lat="36.8282070" lon="-2.9367220">
        <ele>309.5</ele>
        <time>2021-03-01T15:46:09Z</time>
      </trkpt>
      <trkpt lat="36.8281590" lon="-2.9367110">
        <ele>309.5</ele>
        <time>2021-03-01T15:46:10Z</time>
      </trkpt>
      <trkpt lat="36.8281030" lon="-2.9366940">
        <ele>309.4</ele>
        <time>2021-03-01T15:46:11Z</time>
      </trkpt>
      <trkpt lat="36.8280350" lon="-2.9366930">
        <ele>309.3</ele>
        <time>2021-03-01T15:46:12Z</time>
      </trkpt>
      <trkpt lat="36.8279680" lon="-2.9366820">
        <ele>309.2</ele>
        <time>2021-03-01T15:46:13Z</time>
      </trkpt>
      <trkpt lat="36.8278980" lon="-2.9366650">
        <ele>309.1</ele>
        <time>2021-03-01T15:46:14Z</time>
      </trkpt>
      <trkpt lat="36.8278250" lon="-2.9366340">
        <ele>309.0</ele>
        <time>2021-03-01T15:46:15Z</time>
      </trkpt>
      <trkpt lat="36.8277650" lon="-2.9366080">
        <ele>308.9</ele>
        <time>2021-03-01T15:46:16Z</time>
      </trkpt>
      <trkpt lat="36.8277150" lon="-2.9365900">
        <ele>308.8</ele>
        <time>2021-03-01T15:46:17Z</time>
      </trkpt>
      <trkpt lat="36.8276630" lon="-2.9365750">
        <ele>308.7</ele>
        <time>2021-03-01T15:46:18Z</time>
      </trkpt>
      <trkpt lat="36.8276000" lon="-2.9365650">
        <ele>308.6</ele>
        <time>2021-03-01T15:46:19Z</time>
      </trkpt>
      <trkpt lat="36.8275520" lon="-2.9365410">
        <ele>308.5</ele>
        <time>2021-03-01T15:46:20Z</time>
      </trkpt>
      <trkpt lat="36.8275070" lon="-2.9365240">
        <ele>308.4</ele>
        <time>2021-03-01T15:46:21Z</time>
      </trkpt>
      <trkpt lat="36.8274720" lon="-2.9364980">
        <ele>308.4</ele>
        <time>2021-03-01T15:46:22Z</time>
      </trkpt>
      <trkpt lat="36.8274340" lon="-2.9364860">
        <ele>308.3</ele>
        <time>2021-03-01T15:46:23Z</time>
      </trkpt>
      <trkpt lat="36.8273920" lon="-2.9364740">
        <ele>308.2</ele>
        <time>2021-03-01T15:46:24Z</time>
      </trkpt>
      <trkpt lat="36.8273540" lon="-2.9364650">
        <ele>308.1</ele>
        <time>2021-03-01T15:46:25Z</time>
      </trkpt>
      <trkpt lat="36.8273220" lon="-2.9364550">
        <ele>308.1</ele>
        <time>2021-03-01T15:46:26Z</time>
      </trkpt>
      <trkpt lat="36.8272940" lon="-2.9364380">
        <ele>308.0</ele>
        <time>2021-03-01T15:46:27Z</time>
      </trkpt>
      <trkpt lat="36.8272620" lon="-2.9364370">
        <ele>307.9</ele>
        <time>2021-03-01T15:46:28Z</time>
      </trkpt>
      <trkpt lat="36.8272260" lon="-2.9364300">
        <ele>307.8</ele>
        <time>2021-03-01T15:46:29Z</time>
      </trkpt>
      <trkpt lat="36.8272130" lon="-2.9364290">
        <ele>307.8</ele>
        <time>2021-03-01T15:46:30Z</time>
      </trkpt>
      <trkpt lat="36.8271950" lon="-2.9364300">
        <ele>307.8</ele>
        <time>2021-03-01T15:46:31Z</time>
      </trkpt>
      <trkpt lat="36.8271740" lon="-2.9364300">
        <ele>307.7</ele>
        <time>2021-03-01T15:46:32Z</time>
      </trkpt>
      <trkpt lat="36.8271620" lon="-2.9364340">
        <ele>307.7</ele>
        <time>2021-03-01T15:46:33Z</time>
      </trkpt>
      <trkpt lat="36.8271310" lon="-2.9364280">
        <ele>307.7</ele>
        <time>2021-03-01T15:46:34Z</time>
      </trkpt>
      <trkpt lat="36.8271190" lon="-2.9364240">
        <ele>307.7</ele>
        <time>2021-03-01T15:46:35Z</time>
      </trkpt>
      <trkpt lat="36.8270880" lon="-2.9364210">
        <ele>307.7</ele>
        <time>2021-03-01T15:46:36Z</time>
      </trkpt>
      <trkpt lat="36.8270600" lon="-2.9364270">
        <ele>307.7</ele>
        <time>2021-03-01T15:46:37Z</time>
      </trkpt>
      <trkpt lat="36.8270320" lon="-2.9364390">
        <ele>307.7</ele>
        <time>2021-03-01T15:46:38Z</time>
      </trkpt>
      <trkpt lat="36.8270000" lon="-2.9364530">
        <ele>307.8</ele>
        <time>2021-03-01T15:46:39Z</time>
      </trkpt>
      <trkpt lat="36.8269660" lon="-2.9364580">
        <ele>307.8</ele>
        <time>2021-03-01T15:46:40Z</time>
      </trkpt>
      <trkpt lat="36.8269340" lon="-2.9364640">
        <ele>307.8</ele>
        <time>2021-03-01T15:46:41Z</time>
      </trkpt>
      <trkpt lat="36.8268930" lon="-2.9364700">
        <ele>307.9</ele>
        <time>2021-03-01T15:46:42Z</time>
      </trkpt>
      <trkpt lat="36.8268450" lon="-2.9364650">
        <ele>307.9</ele>
        <time>2021-03-01T15:46:43Z</time>
      </trkpt>
      <trkpt lat="36.8267950" lon="-2.9364650">
        <ele>307.9</ele>
        <time>2021-03-01T15:46:44Z</time>
      </trkpt>
      <trkpt lat="36.8267370" lon="-2.9364500">
        <ele>307.9</ele>
        <time>2021-03-01T15:46:45Z</time>
      </trkpt>
      <trkpt lat="36.8266980" lon="-2.9364360">
        <ele>307.9</ele>
        <time>2021-03-01T15:46:46Z</time>
      </trkpt>
      <trkpt lat="36.8266630" lon="-2.9364280">
        <ele>307.9</ele>
        <time>2021-03-01T15:46:47Z</time>
      </trkpt>
      <trkpt lat="36.8266300" lon="-2.9364180">
        <ele>307.9</ele>
        <time>2021-03-01T15:46:48Z</time>
      </trkpt>
      <trkpt lat="36.8265860" lon="-2.9363940">
        <ele>307.9</ele>
        <time>2021-03-01T15:46:49Z</time>
      </trkpt>
      <trkpt lat="36.8265370" lon="-2.9363720">
        <ele>307.9</ele>
        <time>2021-03-01T15:46:50Z</time>
      </trkpt>
      <trkpt lat="36.8264920" lon="-2.9363560">
        <ele>307.8</ele>
        <time>2021-03-01T15:46:51Z</time>
      </trkpt>
      <trkpt lat="36.8264420" lon="-2.9363380">
        <ele>307.8</ele>
        <time>2021-03-01T15:46:52Z</time>
      </trkpt>
      <trkpt lat="36.8263970" lon="-2.9363240">
        <ele>307.8</ele>
        <time>2021-03-01T15:46:53Z</time>
      </trkpt>
      <trkpt lat="36.8263630" lon="-2.9363040">
        <ele>307.7</ele>
        <time>2021-03-01T15:46:54Z</time>
      </trkpt>
      <trkpt lat="36.8263110" lon="-2.9362760">
        <ele>307.7</ele>
        <time>2021-03-01T15:46:55Z</time>
      </trkpt>
      <trkpt lat="36.8262600" lon="-2.9362500">
        <ele>307.6</ele>
        <time>2021-03-01T15:46:56Z</time>
      </trkpt>
      <trkpt lat="36.8262140" lon="-2.9362220">
        <ele>307.6</ele>
        <time>2021-03-01T15:46:57Z</time>
      </trkpt>
      <trkpt lat="36.8261850" lon="-2.9361870">
        <ele>307.6</ele>
        <time>2021-03-01T15:46:58Z</time>
      </trkpt>
      <trkpt lat="36.8261410" lon="-2.9361580">
        <ele>307.6</ele>
        <time>2021-03-01T15:46:59Z</time>
      </trkpt>
      <trkpt lat="36.8260980" lon="-2.9361400">
        <ele>307.6</ele>
        <time>2021-03-01T15:47:00Z</time>
      </trkpt>
      <trkpt lat="36.8260640" lon="-2.9361460">
        <ele>307.5</ele>
        <time>2021-03-01T15:47:01Z</time>
      </trkpt>
      <trkpt lat="36.8260480" lon="-2.9361560">
        <ele>307.5</ele>
        <time>2021-03-01T15:47:02Z</time>
      </trkpt>
      <trkpt lat="36.8260010" lon="-2.9361990">
        <ele>307.4</ele>
        <time>2021-03-01T15:47:03Z</time>
      </trkpt>
      <trkpt lat="36.8259470" lon="-2.9362550">
        <ele>307.2</ele>
        <time>2021-03-01T15:47:04Z</time>
      </trkpt>
      <trkpt lat="36.8259000" lon="-2.9363090">
        <ele>307.1</ele>
        <time>2021-03-01T15:47:05Z</time>
      </trkpt>
      <trkpt lat="36.8258590" lon="-2.9363670">
        <ele>307.0</ele>
        <time>2021-03-01T15:47:06Z</time>
      </trkpt>
      <trkpt lat="36.8258160" lon="-2.9364270">
        <ele>306.9</ele>
        <time>2021-03-01T15:47:07Z</time>
      </trkpt>
      <trkpt lat="36.8257720" lon="-2.9364830">
        <ele>306.9</ele>
        <time>2021-03-01T15:47:08Z</time>
      </trkpt>
      <trkpt lat="36.8257280" lon="-2.9365460">
        <ele>306.9</ele>
        <time>2021-03-01T15:47:09Z</time>
      </trkpt>
      <trkpt lat="36.8256930" lon="-2.9365950">
        <ele>306.9</ele>
        <time>2021-03-01T15:47:10Z</time>
      </trkpt>
      <trkpt lat="36.8256460" lon="-2.9366440">
        <ele>306.9</ele>
        <time>2021-03-01T15:47:11Z</time>
      </trkpt>
      <trkpt lat="36.8255950" lon="-2.9366900">
        <ele>306.9</ele>
        <time>2021-03-01T15:47:12Z</time>
      </trkpt>
      <trkpt lat="36.8255500" lon="-2.9367430">
        <ele>306.9</ele>
        <time>2021-03-01T15:47:13Z</time>
      </trkpt>
      <trkpt lat="36.8255080" lon="-2.9367960">
        <ele>307.0</ele>
        <time>2021-03-01T15:47:14Z</time>
      </trkpt>
      <trkpt lat="36.8254570" lon="-2.9368310">
        <ele>307.1</ele>
        <time>2021-03-01T15:47:15Z</time>
      </trkpt>
      <trkpt lat="36.8254330" lon="-2.9368480">
        <ele>307.1</ele>
        <time>2021-03-01T15:47:16Z</time>
      </trkpt>
      <trkpt lat="36.8253840" lon="-2.9368900">
        <ele>307.3</ele>
        <time>2021-03-01T15:47:17Z</time>
      </trkpt>
      <trkpt lat="36.8253300" lon="-2.9369330">
        <ele>307.4</ele>
        <time>2021-03-01T15:47:18Z</time>
      </trkpt>
      <trkpt lat="36.8252840" lon="-2.9369760">
        <ele>307.6</ele>
        <time>2021-03-01T15:47:19Z</time>
      </trkpt>
      <trkpt lat="36.8252320" lon="-2.9370170">
        <ele>307.9</ele>
        <time>2021-03-01T15:47:20Z</time>
      </trkpt>
      <trkpt lat="36.8251740" lon="-2.9370580">
        <ele>308.2</ele>
        <time>2021-03-01T15:47:21Z</time>
      </trkpt>
      <trkpt lat="36.8251220" lon="-2.9370840">
        <ele>308.4</ele>
        <time>2021-03-01T15:47:22Z</time>
      </trkpt>
      <trkpt lat="36.8250710" lon="-2.9371080">
        <ele>308.7</ele>
        <time>2021-03-01T15:47:23Z</time>
      </trkpt>
      <trkpt lat="36.8250260" lon="-2.9371260">
        <ele>309.0</ele>
        <time>2021-03-01T15:47:24Z</time>
      </trkpt>
      <trkpt lat="36.8249700" lon="-2.9371530">
        <ele>309.3</ele>
        <time>2021-03-01T15:47:25Z</time>
      </trkpt>
      <trkpt lat="36.8249230" lon="-2.9371800">
        <ele>309.6</ele>
        <time>2021-03-01T15:47:26Z</time>
      </trkpt>
      <trkpt lat="36.8248700" lon="-2.9372060">
        <ele>310.0</ele>
        <time>2021-03-01T15:47:27Z</time>
      </trkpt>
      <trkpt lat="36.8248180" lon="-2.9372260">
        <ele>310.3</ele>
        <time>2021-03-01T15:47:28Z</time>
      </trkpt>
      <trkpt lat="36.8247680" lon="-2.9372330">
        <ele>310.6</ele>
        <time>2021-03-01T15:47:29Z</time>
      </trkpt>
      <trkpt lat="36.8247160" lon="-2.9372340">
        <ele>310.9</ele>
        <time>2021-03-01T15:47:30Z</time>
      </trkpt>
      <trkpt lat="36.8246700" lon="-2.9372290">
        <ele>311.2</ele>
        <time>2021-03-01T15:47:31Z</time>
      </trkpt>
      <trkpt lat="36.8246310" lon="-2.9372300">
        <ele>311.5</ele>
        <time>2021-03-01T15:47:32Z</time>
      </trkpt>
      <trkpt lat="36.8245920" lon="-2.9372240">
        <ele>311.7</ele>
        <time>2021-03-01T15:47:33Z</time>
      </trkpt>
      <trkpt lat="36.8245550" lon="-2.9372250">
        <ele>311.9</ele>
        <time>2021-03-01T15:47:34Z</time>
      </trkpt>
      <trkpt lat="36.8245090" lon="-2.9372410">
        <ele>312.2</ele>
        <time>2021-03-01T15:47:35Z</time>
      </trkpt>
      <trkpt lat="36.8244570" lon="-2.9372490">
        <ele>312.5</ele>
        <time>2021-03-01T15:47:36Z</time>
      </trkpt>
      <trkpt lat="36.8244130" lon="-2.9372550">
        <ele>312.7</ele>
        <time>2021-03-01T15:47:37Z</time>
      </trkpt>
      <trkpt lat="36.8243620" lon="-2.9372610">
        <ele>313.0</ele>
        <time>2021-03-01T15:47:38Z</time>
      </trkpt>
      <trkpt lat="36.8243120" lon="-2.9372690">
        <ele>313.3</ele>
        <time>2021-03-01T15:47:39Z</time>
      </trkpt>
      <trkpt lat="36.8242610" lon="-2.9372830">
        <ele>313.6</ele>
        <time>2021-03-01T15:47:40Z</time>
      </trkpt>
      <trkpt lat="36.8242170" lon="-2.9372970">
        <ele>313.8</ele>
        <time>2021-03-01T15:47:41Z</time>
      </trkpt>
      <trkpt lat="36.8241690" lon="-2.9373120">
        <ele>314.1</ele>
        <time>2021-03-01T15:47:42Z</time>
      </trkpt>
      <trkpt lat="36.8241210" lon="-2.9373180">
        <ele>314.3</ele>
        <time>2021-03-01T15:47:43Z</time>
      </trkpt>
      <trkpt lat="36.8240740" lon="-2.9373220">
        <ele>314.5</ele>
        <time>2021-03-01T15:47:44Z</time>
      </trkpt>
      <trkpt lat="36.8240340" lon="-2.9373270">
        <ele>314.7</ele>
        <time>2021-03-01T15:47:45Z</time>
      </trkpt>
      <trkpt lat="36.8239870" lon="-2.9373300">
        <ele>314.8</ele>
        <time>2021-03-01T15:47:46Z</time>
      </trkpt>
      <trkpt lat="36.8239430" lon="-2.9373360">
        <ele>315.0</ele>
        <time>2021-03-01T15:47:47Z</time>
      </trkpt>
      <trkpt lat="36.8238880" lon="-2.9373440">
        <ele>315.2</ele>
        <time>2021-03-01T15:47:48Z</time>
      </trkpt>
      <trkpt lat="36.8238330" lon="-2.9373530">
        <ele>315.3</ele>
        <time>2021-03-01T15:47:49Z</time>
      </trkpt>
      <trkpt lat="36.8237720" lon="-2.9373580">
        <ele>315.5</ele>
        <time>2021-03-01T15:47:50Z</time>
      </trkpt>
      <trkpt lat="36.8237150" lon="-2.9373630">
        <ele>315.7</ele>
        <time>2021-03-01T15:47:51Z</time>
      </trkpt>
      <trkpt lat="36.8236660" lon="-2.9373640">
        <ele>315.8</ele>
        <time>2021-03-01T15:47:52Z</time>
      </trkpt>
      <trkpt lat="36.8236220" lon="-2.9373640">
        <ele>316.0</ele>
        <time>2021-03-01T15:47:53Z</time>
      </trkpt>
      <trkpt lat="36.8235620" lon="-2.9373570">
        <ele>316.2</ele>
        <time>2021-03-01T15:47:54Z</time>
      </trkpt>
      <trkpt lat="36.8235090" lon="-2.9373490">
        <ele>316.4</ele>
        <time>2021-03-01T15:47:55Z</time>
      </trkpt>
      <trkpt lat="36.8234530" lon="-2.9373360">
        <ele>316.6</ele>
        <time>2021-03-01T15:47:56Z</time>
      </trkpt>
      <trkpt lat="36.8234060" lon="-2.9373160">
        <ele>316.8</ele>
        <time>2021-03-01T15:47:57Z</time>
      </trkpt>
      <trkpt lat="36.8233620" lon="-2.9372920">
        <ele>317.0</ele>
        <time>2021-03-01T15:47:58Z</time>
      </trkpt>
      <trkpt lat="36.8233120" lon="-2.9372670">
        <ele>317.3</ele>
        <time>2021-03-01T15:47:59Z</time>
      </trkpt>
      <trkpt lat="36.8232630" lon="-2.9372370">
        <ele>317.6</ele>
        <time>2021-03-01T15:48:00Z</time>
      </trkpt>
      <trkpt lat="36.8232210" lon="-2.9372000">
        <ele>317.8</ele>
        <time>2021-03-01T15:48:01Z</time>
      </trkpt>
      <trkpt lat="36.8231910" lon="-2.9371660">
        <ele>318.0</ele>
        <time>2021-03-01T15:48:02Z</time>
      </trkpt>
      <trkpt lat="36.8231560" lon="-2.9371270">
        <ele>318.3</ele>
        <time>2021-03-01T15:48:03Z</time>
      </trkpt>
      <trkpt lat="36.8231130" lon="-2.9370850">
        <ele>318.6</ele>
        <time>2021-03-01T15:48:04Z</time>
      </trkpt>
      <trkpt lat="36.8230720" lon="-2.9370410">
        <ele>318.9</ele>
        <time>2021-03-01T15:48:05Z</time>
      </trkpt>
      <trkpt lat="36.8230320" lon="-2.9369870">
        <ele>319.2</ele>
        <time>2021-03-01T15:48:06Z</time>
      </trkpt>
      <trkpt lat="36.8229940" lon="-2.9369440">
        <ele>319.5</ele>
        <time>2021-03-01T15:48:07Z</time>
      </trkpt>
      <trkpt lat="36.8229680" lon="-2.9368990">
        <ele>319.7</ele>
        <time>2021-03-01T15:48:08Z</time>
      </trkpt>
      <trkpt lat="36.8229310" lon="-2.9368530">
        <ele>320.0</ele>
        <time>2021-03-01T15:48:09Z</time>
      </trkpt>
      <trkpt lat="36.8228880" lon="-2.9368110">
        <ele>320.3</ele>
        <time>2021-03-01T15:48:10Z</time>
      </trkpt>
      <trkpt lat="36.8228510" lon="-2.9367610">
        <ele>320.6</ele>
        <time>2021-03-01T15:48:11Z</time>
      </trkpt>
      <trkpt lat="36.8228190" lon="-2.9367130">
        <ele>320.8</ele>
        <time>2021-03-01T15:48:12Z</time>
      </trkpt>
      <trkpt lat="36.8227830" lon="-2.9366630">
        <ele>321.1</ele>
        <time>2021-03-01T15:48:13Z</time>
      </trkpt>
      <trkpt lat="36.8227420" lon="-2.9366150">
        <ele>321.3</ele>
        <time>2021-03-01T15:48:14Z</time>
      </trkpt>
      <trkpt lat="36.8227000" lon="-2.9365670">
        <ele>321.6</ele>
        <time>2021-03-01T15:48:15Z</time>
      </trkpt>
      <trkpt lat="36.8226560" lon="-2.9365240">
        <ele>321.8</ele>
        <time>2021-03-01T15:48:16Z</time>
      </trkpt>
      <trkpt lat="36.8226090" lon="-2.9364870">
        <ele>322.0</ele>
        <time>2021-03-01T15:48:17Z</time>
      </trkpt>
      <trkpt lat="36.8225650" lon="-2.9364430">
        <ele>322.3</ele>
        <time>2021-03-01T15:48:18Z</time>
      </trkpt>
      <trkpt lat="36.8225220" lon="-2.9363980">
        <ele>322.5</ele>
        <time>2021-03-01T15:48:19Z</time>
      </trkpt>
      <trkpt lat="36.8224850" lon="-2.9363480">
        <ele>322.6</ele>
        <time>2021-03-01T15:48:20Z</time>
      </trkpt>
      <trkpt lat="36.8224520" lon="-2.9363010">
        <ele>322.8</ele>
        <time>2021-03-01T15:48:21Z</time>
      </trkpt>
      <trkpt lat="36.8224260" lon="-2.9362530">
        <ele>322.8</ele>
        <time>2021-03-01T15:48:22Z</time>
      </trkpt>
      <trkpt lat="36.8224020" lon="-2.9362050">
        <ele>322.9</ele>
        <time>2021-03-01T15:48:23Z</time>
      </trkpt>
      <trkpt lat="36.8223750" lon="-2.9361590">
        <ele>323.0</ele>
        <time>2021-03-01T15:48:24Z</time>
      </trkpt>
      <trkpt lat="36.8223530" lon="-2.9361050">
        <ele>323.0</ele>
        <time>2021-03-01T15:48:25Z</time>
      </trkpt>
      <trkpt lat="36.8223170" lon="-2.9360570">
        <ele>323.0</ele>
        <time>2021-03-01T15:48:26Z</time>
      </trkpt>
      <trkpt lat="36.8222720" lon="-2.9360180">
        <ele>322.9</ele>
        <time>2021-03-01T15:48:27Z</time>
      </trkpt>
      <trkpt lat="36.8222220" lon="-2.9359770">
        <ele>322.9</ele>
        <time>2021-03-01T15:48:28Z</time>
      </trkpt>
      <trkpt lat="36.8221710" lon="-2.9359350">
        <ele>322.8</ele>
        <time>2021-03-01T15:48:29Z</time>
      </trkpt>
      <trkpt lat="36.8221170" lon="-2.9358990">
        <ele>322.8</ele>
        <time>2021-03-01T15:48:30Z</time>
      </trkpt>
      <trkpt lat="36.8220670" lon="-2.9358570">
        <ele>322.8</ele>
        <time>2021-03-01T15:48:31Z</time>
      </trkpt>
      <trkpt lat="36.8220210" lon="-2.9358080">
        <ele>322.9</ele>
        <time>2021-03-01T15:48:32Z</time>
      </trkpt>
      <trkpt lat="36.8219750" lon="-2.9357620">
        <ele>323.0</ele>
        <time>2021-03-01T15:48:33Z</time>
      </trkpt>
      <trkpt lat="36.8219230" lon="-2.9357140">
        <ele>323.3</ele>
        <time>2021-03-01T15:48:34Z</time>
      </trkpt>
      <trkpt lat="36.8218710" lon="-2.9356680">
        <ele>323.5</ele>
        <time>2021-03-01T15:48:35Z</time>
      </trkpt>
      <trkpt lat="36.8218200" lon="-2.9356220">
        <ele>323.9</ele>
        <time>2021-03-01T15:48:36Z</time>
      </trkpt>
      <trkpt lat="36.8217660" lon="-2.9355810">
        <ele>324.2</ele>
        <time>2021-03-01T15:48:37Z</time>
      </trkpt>
      <trkpt lat="36.8217140" lon="-2.9355410">
        <ele>324.6</ele>
        <time>2021-03-01T15:48:38Z</time>
      </trkpt>
      <trkpt lat="36.8216610" lon="-2.9355060">
        <ele>325.0</ele>
        <time>2021-03-01T15:48:39Z</time>
      </trkpt>
      <trkpt lat="36.8216070" lon="-2.9354740">
        <ele>325.4</ele>
        <time>2021-03-01T15:48:40Z</time>
      </trkpt>
      <trkpt lat="36.8215550" lon="-2.9354380">
        <ele>325.9</ele>
        <time>2021-03-01T15:48:41Z</time>
      </trkpt>
      <trkpt lat="36.8215040" lon="-2.9354040">
        <ele>326.3</ele>
        <time>2021-03-01T15:48:42Z</time>
      </trkpt>
      <trkpt lat="36.8214480" lon="-2.9353810">
        <ele>326.8</ele>
        <time>2021-03-01T15:48:43Z</time>
      </trkpt>
      <trkpt lat="36.8213990" lon="-2.9353510">
        <ele>327.2</ele>
        <time>2021-03-01T15:48:44Z</time>
      </trkpt>
      <trkpt lat="36.8213480" lon="-2.9353120">
        <ele>327.7</ele>
        <time>2021-03-01T15:48:45Z</time>
      </trkpt>
      <trkpt lat="36.8212870" lon="-2.9352820">
        <ele>328.2</ele>
        <time>2021-03-01T15:48:46Z</time>
      </trkpt>
      <trkpt lat="36.8212230" lon="-2.9352480">
        <ele>328.9</ele>
        <time>2021-03-01T15:48:47Z</time>
      </trkpt>
      <trkpt lat="36.8211640" lon="-2.9352110">
        <ele>329.6</ele>
        <time>2021-03-01T15:48:48Z</time>
      </trkpt>
      <trkpt lat="36.8211140" lon="-2.9351670">
        <ele>330.3</ele>
        <time>2021-03-01T15:48:49Z</time>
      </trkpt>
      <trkpt lat="36.8210660" lon="-2.9351230">
        <ele>330.9</ele>
        <time>2021-03-01T15:48:50Z</time>
      </trkpt>
      <trkpt lat="36.8210360" lon="-2.9350780">
        <ele>331.4</ele>
        <time>2021-03-01T15:48:51Z</time>
      </trkpt>
      <trkpt lat="36.8210330" lon="-2.9350110">
        <ele>331.8</ele>
        <time>2021-03-01T15:48:52Z</time>
      </trkpt>
      <trkpt lat="36.8210380" lon="-2.9349340">
        <ele>332.3</ele>
        <time>2021-03-01T15:48:53Z</time>
      </trkpt>
      <trkpt lat="36.8210510" lon="-2.9348430">
        <ele>332.8</ele>
        <time>2021-03-01T15:48:54Z</time>
      </trkpt>
      <trkpt lat="36.8210540" lon="-2.9347490">
        <ele>333.2</ele>
        <time>2021-03-01T15:48:55Z</time>
      </trkpt>
      <trkpt lat="36.8210550" lon="-2.9346660">
        <ele>333.6</ele>
        <time>2021-03-01T15:48:56Z</time>
      </trkpt>
      <trkpt lat="36.8210550" lon="-2.9345820">
        <ele>333.8</ele>
        <time>2021-03-01T15:48:57Z</time>
      </trkpt>
      <trkpt lat="36.8210580" lon="-2.9345130">
        <ele>334.0</ele>
        <time>2021-03-01T15:48:58Z</time>
      </trkpt>
      <trkpt lat="36.8210670" lon="-2.9344360">
        <ele>334.2</ele>
        <time>2021-03-01T15:48:59Z</time>
      </trkpt>
      <trkpt lat="36.8210850" lon="-2.9343720">
        <ele>334.4</ele>
        <time>2021-03-01T15:49:00Z</time>
      </trkpt>
      <trkpt lat="36.8210930" lon="-2.9343100">
        <ele>334.6</ele>
        <time>2021-03-01T15:49:01Z</time>
      </trkpt>
      <trkpt lat="36.8210940" lon="-2.9342490">
        <ele>334.8</ele>
        <time>2021-03-01T15:49:02Z</time>
      </trkpt>
      <trkpt lat="36.8210960" lon="-2.9341740">
        <ele>335.0</ele>
        <time>2021-03-01T15:49:03Z</time>
      </trkpt>
      <trkpt lat="36.8210940" lon="-2.9341130">
        <ele>335.1</ele>
        <time>2021-03-01T15:49:04Z</time>
      </trkpt>
      <trkpt lat="36.8210840" lon="-2.9340420">
        <ele>335.3</ele>
        <time>2021-03-01T15:49:05Z</time>
      </trkpt>
      <trkpt lat="36.8210710" lon="-2.9339850">
        <ele>335.5</ele>
        <time>2021-03-01T15:49:06Z</time>
      </trkpt>
      <trkpt lat="36.8210650" lon="-2.9339190">
        <ele>335.7</ele>
        <time>2021-03-01T15:49:07Z</time>
      </trkpt>
      <trkpt lat="36.8210610" lon="-2.9338520">
        <ele>335.9</ele>
        <time>2021-03-01T15:49:08Z</time>
      </trkpt>
      <trkpt lat="36.8210520" lon="-2.9337780">
        <ele>336.1</ele>
        <time>2021-03-01T15:49:09Z</time>
      </trkpt>
      <trkpt lat="36.8210390" lon="-2.9337090">
        <ele>336.4</ele>
        <time>2021-03-01T15:49:10Z</time>
      </trkpt>
      <trkpt lat="36.8210340" lon="-2.9336410">
        <ele>336.7</ele>
        <time>2021-03-01T15:49:11Z</time>
      </trkpt>
      <trkpt lat="36.8210270" lon="-2.9335800">
        <ele>336.9</ele>
        <time>2021-03-01T15:49:12Z</time>
      </trkpt>
      <trkpt lat="36.8210330" lon="-2.9335250">
        <ele>337.2</ele>
        <time>2021-03-01T15:49:13Z</time>
      </trkpt>
      <trkpt lat="36.8210450" lon="-2.9334530">
        <ele>337.6</ele>
        <time>2021-03-01T15:49:14Z</time>
      </trkpt>
      <trkpt lat="36.8210820" lon="-2.9334110">
        <ele>338.0</ele>
        <time>2021-03-01T15:49:15Z</time>
      </trkpt>
      <trkpt lat="36.8211210" lon="-2.9333600">
        <ele>338.5</ele>
        <time>2021-03-01T15:49:16Z</time>
      </trkpt>
      <trkpt lat="36.8211440" lon="-2.9333050">
        <ele>339.0</ele>
        <time>2021-03-01T15:49:17Z</time>
      </trkpt>
      <trkpt lat="36.8211740" lon="-2.9332430">
        <ele>339.6</ele>
        <time>2021-03-01T15:49:18Z</time>
      </trkpt>
      <trkpt lat="36.8211870" lon="-2.9331810">
        <ele>340.1</ele>
        <time>2021-03-01T15:49:19Z</time>
      </trkpt>
      <trkpt lat="36.8212060" lon="-2.9331270">
        <ele>340.6</ele>
        <time>2021-03-01T15:49:20Z</time>
      </trkpt>
      <trkpt lat="36.8212150" lon="-2.9330800">
        <ele>341.1</ele>
        <time>2021-03-01T15:49:21Z</time>
      </trkpt>
      <trkpt lat="36.8212210" lon="-2.9330240">
        <ele>341.6</ele>
        <time>2021-03-01T15:49:22Z</time>
      </trkpt>
      <trkpt lat="36.8212040" lon="-2.9329670">
        <ele>342.0</ele>
        <time>2021-03-01T15:49:23Z</time>
      </trkpt>
      <trkpt lat="36.8211750" lon="-2.9329080">
        <ele>342.5</ele>
        <time>2021-03-01T15:49:24Z</time>
      </trkpt>
      <trkpt lat="36.8211440" lon="-2.9328510">
        <ele>343.0</ele>
        <time>2021-03-01T15:49:25Z</time>
      </trkpt>
      <trkpt lat="36.8211110" lon="-2.9327920">
        <ele>343.4</ele>
        <time>2021-03-01T15:49:26Z</time>
      </trkpt>
      <trkpt lat="36.8210790" lon="-2.9327360">
        <ele>343.7</ele>
        <time>2021-03-01T15:49:27Z</time>
      </trkpt>
      <trkpt lat="36.8210470" lon="-2.9326760">
        <ele>344.1</ele>
        <time>2021-03-01T15:49:28Z</time>
      </trkpt>
      <trkpt lat="36.8210170" lon="-2.9326120">
        <ele>344.5</ele>
        <time>2021-03-01T15:49:29Z</time>
      </trkpt>
      <trkpt lat="36.8209930" lon="-2.9325520">
        <ele>344.8</ele>
        <time>2021-03-01T15:49:30Z</time>
      </trkpt>
      <trkpt lat="36.8209820" lon="-2.9324830">
        <ele>345.1</ele>
        <time>2021-03-01T15:49:31Z</time>
      </trkpt>
      <trkpt lat="36.8209770" lon="-2.9324080">
        <ele>345.5</ele>
        <time>2021-03-01T15:49:32Z</time>
      </trkpt>
      <trkpt lat="36.8209720" lon="-2.9323350">
        <ele>345.9</ele>
        <time>2021-03-01T15:49:33Z</time>
      </trkpt>
      <trkpt lat="36.8209680" lon="-2.9322810">
        <ele>346.1</ele>
        <time>2021-03-01T15:49:34Z</time>
      </trkpt>
      <trkpt lat="36.8209720" lon="-2.9322060">
        <ele>346.5</ele>
        <time>2021-03-01T15:49:35Z</time>
      </trkpt>
      <trkpt lat="36.8209740" lon="-2.9321480">
        <ele>346.8</ele>
        <time>2021-03-01T15:49:36Z</time>
      </trkpt>
      <trkpt lat="36.8209790" lon="-2.9320990">
        <ele>347.1</ele>
        <time>2021-03-01T15:49:37Z</time>
      </trkpt>
      <trkpt lat="36.8210030" lon="-2.9320390">
        <ele>347.5</ele>
        <time>2021-03-01T15:49:38Z</time>
      </trkpt>
      <trkpt lat="36.8210180" lon="-2.9319750">
        <ele>347.8</ele>
        <time>2021-03-01T15:49:39Z</time>
      </trkpt>
      <trkpt lat="36.8210320" lon="-2.9319150">
        <ele>348.2</ele>
        <time>2021-03-01T15:49:40Z</time>
      </trkpt>
      <trkpt lat="36.8210410" lon="-2.9318700">
        <ele>348.4</ele>
        <time>2021-03-01T15:49:41Z</time>
      </trkpt>
      <trkpt lat="36.8210510" lon="-2.9318100">
        <ele>348.8</ele>
        <time>2021-03-01T15:49:42Z</time>
      </trkpt>
      <trkpt lat="36.8210700" lon="-2.9317400">
        <ele>349.2</ele>
        <time>2021-03-01T15:49:43Z</time>
      </trkpt>
      <trkpt lat="36.8210870" lon="-2.9316710">
        <ele>349.6</ele>
        <time>2021-03-01T15:49:44Z</time>
      </trkpt>
      <trkpt lat="36.8210920" lon="-2.9316120">
        <ele>349.9</ele>
        <time>2021-03-01T15:49:45Z</time>
      </trkpt>
      <trkpt lat="36.8211060" lon="-2.9315550">
        <ele>350.2</ele>
        <time>2021-03-01T15:49:46Z</time>
      </trkpt>
      <trkpt lat="36.8211150" lon="-2.9315040">
        <ele>350.6</ele>
        <time>2021-03-01T15:49:47Z</time>
      </trkpt>
      <trkpt lat="36.8211160" lon="-2.9314530">
        <ele>350.9</ele>
        <time>2021-03-01T15:49:48Z</time>
      </trkpt>
      <trkpt lat="36.8211050" lon="-2.9314100">
        <ele>351.2</ele>
        <time>2021-03-01T15:49:49Z</time>
      </trkpt>
      <trkpt lat="36.8210940" lon="-2.9313590">
        <ele>351.7</ele>
        <time>2021-03-01T15:49:50Z</time>
      </trkpt>
      <trkpt lat="36.8210760" lon="-2.9313200">
        <ele>352.1</ele>
        <time>2021-03-01T15:49:51Z</time>
      </trkpt>
      <trkpt lat="36.8210580" lon="-2.9312860">
        <ele>352.6</ele>
        <time>2021-03-01T15:49:52Z</time>
      </trkpt>
      <trkpt lat="36.8210440" lon="-2.9312720">
        <ele>352.8</ele>
        <time>2021-03-01T15:49:53Z</time>
      </trkpt>
      <trkpt lat="36.8210360" lon="-2.9312650">
        <ele>353.0</ele>
        <time>2021-03-01T15:49:54Z</time>
      </trkpt>
      <trkpt lat="36.8210290" lon="-2.9312570">
        <ele>353.1</ele>
        <time>2021-03-01T15:49:55Z</time>
      </trkpt>
      <trkpt lat="36.8210060" lon="-2.9312260">
        <ele>353.6</ele>
        <time>2021-03-01T15:49:56Z</time>
      </trkpt>
      <trkpt lat="36.8209720" lon="-2.9311980">
        <ele>354.3</ele>
        <time>2021-03-01T15:49:57Z</time>
      </trkpt>
      <trkpt lat="36.8209360" lon="-2.9311750">
        <ele>354.9</ele>
        <time>2021-03-01T15:49:58Z</time>
      </trkpt>
      <trkpt lat="36.8209000" lon="-2.9311620">
        <ele>355.6</ele>
        <time>2021-03-01T15:49:59Z</time>
      </trkpt>
      <trkpt lat="36.8208850" lon="-2.9311590">
        <ele>355.8</ele>
        <time>2021-03-01T15:50:00Z</time>
      </trkpt>
      <trkpt lat="36.8208470" lon="-2.9311640">
        <ele>356.4</ele>
        <time>2021-03-01T15:50:01Z</time>
      </trkpt>
      <trkpt lat="36.8208340" lon="-2.9311700">
        <ele>356.7</ele>
        <time>2021-03-01T15:50:02Z</time>
      </trkpt>
      <trkpt lat="36.8208070" lon="-2.9312020">
        <ele>357.2</ele>
        <time>2021-03-01T15:50:03Z</time>
      </trkpt>
      <trkpt lat="36.8207960" lon="-2.9312160">
        <ele>357.5</ele>
        <time>2021-03-01T15:50:04Z</time>
      </trkpt>
      <trkpt lat="36.8207740" lon="-2.9312510">
        <ele>358.0</ele>
        <time>2021-03-01T15:50:05Z</time>
      </trkpt>
      <trkpt lat="36.8207570" lon="-2.9312860">
        <ele>358.4</ele>
        <time>2021-03-01T15:50:06Z</time>
      </trkpt>
      <trkpt lat="36.8207400" lon="-2.9313170">
        <ele>358.8</ele>
        <time>2021-03-01T15:50:07Z</time>
      </trkpt>
      <trkpt lat="36.8207180" lon="-2.9313450">
        <ele>359.2</ele>
        <time>2021-03-01T15:50:08Z</time>
      </trkpt>
      <trkpt lat="36.8207010" lon="-2.9313800">
        <ele>359.6</ele>
        <time>2021-03-01T15:50:09Z</time>
      </trkpt>
      <trkpt lat="36.8206810" lon="-2.9314150">
        <ele>359.9</ele>
        <time>2021-03-01T15:50:10Z</time>
      </trkpt>
      <trkpt lat="36.8206580" lon="-2.9314380">
        <ele>360.3</ele>
        <time>2021-03-01T15:50:11Z</time>
      </trkpt>
      <trkpt lat="36.8206400" lon="-2.9314750">
        <ele>360.6</ele>
        <time>2021-03-01T15:50:12Z</time>
      </trkpt>
      <trkpt lat="36.8206070" lon="-2.9315030">
        <ele>361.0</ele>
        <time>2021-03-01T15:50:13Z</time>
      </trkpt>
      <trkpt lat="36.8205810" lon="-2.9315300">
        <ele>361.3</ele>
        <time>2021-03-01T15:50:14Z</time>
      </trkpt>
      <trkpt lat="36.8205560" lon="-2.9315510">
        <ele>361.7</ele>
        <time>2021-03-01T15:50:15Z</time>
      </trkpt>
      <trkpt lat="36.8205070" lon="-2.9315710">
        <ele>362.2</ele>
        <time>2021-03-01T15:50:16Z</time>
      </trkpt>
      <trkpt lat="36.8204800" lon="-2.9315770">
        <ele>362.5</ele>
        <time>2021-03-01T15:50:17Z</time>
      </trkpt>
      <trkpt lat="36.8204400" lon="-2.9315880">
        <ele>362.9</ele>
        <time>2021-03-01T15:50:19Z</time>
      </trkpt>
      <trkpt lat="36.8204050" lon="-2.9315930">
        <ele>363.4</ele>
        <time>2021-03-01T15:50:20Z</time>
      </trkpt>
      <trkpt lat="36.8203720" lon="-2.9315940">
        <ele>363.8</ele>
        <time>2021-03-01T15:50:21Z</time>
      </trkpt>
      <trkpt lat="36.8203370" lon="-2.9315820">
        <ele>364.2</ele>
        <time>2021-03-01T15:50:22Z</time>
      </trkpt>
      <trkpt lat="36.8203230" lon="-2.9315810">
        <ele>364.4</ele>
        <time>2021-03-01T15:50:23Z</time>
      </trkpt>
      <trkpt lat="36.8202930" lon="-2.9315750">
        <ele>364.8</ele>
        <time>2021-03-01T15:50:24Z</time>
      </trkpt>
      <trkpt lat="36.8202620" lon="-2.9315670">
        <ele>365.2</ele>
        <time>2021-03-01T15:50:25Z</time>
      </trkpt>
      <trkpt lat="36.8202470" lon="-2.9315620">
        <ele>365.4</ele>
        <time>2021-03-01T15:50:26Z</time>
      </trkpt>
      <trkpt lat="36.8202140" lon="-2.9315660">
        <ele>365.9</ele>
        <time>2021-03-01T15:50:27Z</time>
      </trkpt>
      <trkpt lat="36.8201970" lon="-2.9315650">
        <ele>366.1</ele>
        <time>2021-03-01T15:50:28Z</time>
      </trkpt>
      <trkpt lat="36.8201650" lon="-2.9315640">
        <ele>366.5</ele>
        <time>2021-03-01T15:50:29Z</time>
      </trkpt>
      <trkpt lat="36.8201320" lon="-2.9315610">
        <ele>367.0</ele>
        <time>2021-03-01T15:50:30Z</time>
      </trkpt>
      <trkpt lat="36.8200990" lon="-2.9315430">
        <ele>367.4</ele>
        <time>2021-03-01T15:50:31Z</time>
      </trkpt>
      <trkpt lat="36.8200570" lon="-2.9315280">
        <ele>367.9</ele>
        <time>2021-03-01T15:50:32Z</time>
      </trkpt>
      <trkpt lat="36.8200220" lon="-2.9315160">
        <ele>368.2</ele>
        <time>2021-03-01T15:50:33Z</time>
      </trkpt>
      <trkpt lat="36.8199900" lon="-2.9315080">
        <ele>368.5</ele>
        <time>2021-03-01T15:50:34Z</time>
      </trkpt>
      <trkpt lat="36.8199490" lon="-2.9315000">
        <ele>368.9</ele>
        <time>2021-03-01T15:50:35Z</time>
      </trkpt>
      <trkpt lat="36.8199230" lon="-2.9315090">
        <ele>369.1</ele>
        <time>2021-03-01T15:50:36Z</time>
      </trkpt>
      <trkpt lat="36.8198870" lon="-2.9315070">
        <ele>369.4</ele>
        <time>2021-03-01T15:50:37Z</time>
      </trkpt>
      <trkpt lat="36.8198510" lon="-2.9315080">
        <ele>369.7</ele>
        <time>2021-03-01T15:50:38Z</time>
      </trkpt>
      <trkpt lat="36.8198190" lon="-2.9315110">
        <ele>369.9</ele>
        <time>2021-03-01T15:50:39Z</time>
      </trkpt>
      <trkpt lat="36.8197810" lon="-2.9315110">
        <ele>370.2</ele>
        <time>2021-03-01T15:50:40Z</time>
      </trkpt>
      <trkpt lat="36.8197400" lon="-2.9315140">
        <ele>370.5</ele>
        <time>2021-03-01T15:50:41Z</time>
      </trkpt>
      <trkpt lat="36.8197010" lon="-2.9315080">
        <ele>370.8</ele>
        <time>2021-03-01T15:50:42Z</time>
      </trkpt>
      <trkpt lat="36.8196870" lon="-2.9315090">
        <ele>370.9</ele>
        <time>2021-03-01T15:50:43Z</time>
      </trkpt>
      <trkpt lat="36.8196470" lon="-2.9315080">
        <ele>371.2</ele>
        <time>2021-03-01T15:50:44Z</time>
      </trkpt>
      <trkpt lat="36.8196100" lon="-2.9315140">
        <ele>371.5</ele>
        <time>2021-03-01T15:50:45Z</time>
      </trkpt>
      <trkpt lat="36.8195720" lon="-2.9315210">
        <ele>371.8</ele>
        <time>2021-03-01T15:50:46Z</time>
      </trkpt>
      <trkpt lat="36.8195320" lon="-2.9315240">
        <ele>372.2</ele>
        <time>2021-03-01T15:50:47Z</time>
      </trkpt>
      <trkpt lat="36.8194900" lon="-2.9315240">
        <ele>372.6</ele>
        <time>2021-03-01T15:50:48Z</time>
      </trkpt>
      <trkpt lat="36.8194570" lon="-2.9315220">
        <ele>372.9</ele>
        <time>2021-03-01T15:50:49Z</time>
      </trkpt>
      <trkpt lat="36.8194160" lon="-2.9315190">
        <ele>373.3</ele>
        <time>2021-03-01T15:50:50Z</time>
      </trkpt>
      <trkpt lat="36.8194000" lon="-2.9315190">
        <ele>373.5</ele>
        <time>2021-03-01T15:50:51Z</time>
      </trkpt>
      <trkpt lat="36.8193660" lon="-2.9315240">
        <ele>373.9</ele>
        <time>2021-03-01T15:50:52Z</time>
      </trkpt>
      <trkpt lat="36.8193160" lon="-2.9315450">
        <ele>374.5</ele>
        <time>2021-03-01T15:50:53Z</time>
      </trkpt>
      <trkpt lat="36.8192950" lon="-2.9315750">
        <ele>374.8</ele>
        <time>2021-03-01T15:50:54Z</time>
      </trkpt>
      <trkpt lat="36.8192610" lon="-2.9315990">
        <ele>375.3</ele>
        <time>2021-03-01T15:50:55Z</time>
      </trkpt>
      <trkpt lat="36.8192360" lon="-2.9316160">
        <ele>375.6</ele>
        <time>2021-03-01T15:50:56Z</time>
      </trkpt>
      <trkpt lat="36.8192020" lon="-2.9316500">
        <ele>376.1</ele>
        <time>2021-03-01T15:50:57Z</time>
      </trkpt>
      <trkpt lat="36.8191690" lon="-2.9316890">
        <ele>376.6</ele>
        <time>2021-03-01T15:50:58Z</time>
      </trkpt>
      <trkpt lat="36.8191530" lon="-2.9317040">
        <ele>376.8</ele>
        <time>2021-03-01T15:50:59Z</time>
      </trkpt>
      <trkpt lat="36.8191360" lon="-2.9317340">
        <ele>377.2</ele>
        <time>2021-03-01T15:51:00Z</time>
      </trkpt>
      <trkpt lat="36.8190990" lon="-2.9317630">
        <ele>377.6</ele>
        <time>2021-03-01T15:51:01Z</time>
      </trkpt>
      <trkpt lat="36.8190630" lon="-2.9317980">
        <ele>378.1</ele>
        <time>2021-03-01T15:51:02Z</time>
      </trkpt>
      <trkpt lat="36.8190310" lon="-2.9318270">
        <ele>378.5</ele>
        <time>2021-03-01T15:51:03Z</time>
      </trkpt>
      <trkpt lat="36.8190070" lon="-2.9318630">
        <ele>378.8</ele>
        <time>2021-03-01T15:51:04Z</time>
      </trkpt>
      <trkpt lat="36.8189810" lon="-2.9319070">
        <ele>379.2</ele>
        <time>2021-03-01T15:51:05Z</time>
      </trkpt>
      <trkpt lat="36.8189540" lon="-2.9319420">
        <ele>379.5</ele>
        <time>2021-03-01T15:51:06Z</time>
      </trkpt>
      <trkpt lat="36.8189150" lon="-2.9319730">
        <ele>379.8</ele>
        <time>2021-03-01T15:51:07Z</time>
      </trkpt>
      <trkpt lat="36.8188660" lon="-2.9320010">
        <ele>380.2</ele>
        <time>2021-03-01T15:51:08Z</time>
      </trkpt>
      <trkpt lat="36.8188240" lon="-2.9320090">
        <ele>380.5</ele>
        <time>2021-03-01T15:51:09Z</time>
      </trkpt>
      <trkpt lat="36.8187770" lon="-2.9320070">
        <ele>380.9</ele>
        <time>2021-03-01T15:51:10Z</time>
      </trkpt>
      <trkpt lat="36.8187460" lon="-2.9320040">
        <ele>381.1</ele>
        <time>2021-03-01T15:51:11Z</time>
      </trkpt>
      <trkpt lat="36.8187290" lon="-2.9319910">
        <ele>381.2</ele>
        <time>2021-03-01T15:51:12Z</time>
      </trkpt>
      <trkpt lat="36.8187220" lon="-2.9319840">
        <ele>381.3</ele>
        <time>2021-03-01T15:51:13Z</time>
      </trkpt>
      <trkpt lat="36.8187150" lon="-2.9319760">
        <ele>381.4</ele>
        <time>2021-03-01T15:51:14Z</time>
      </trkpt>
      <trkpt lat="36.8187150" lon="-2.9319750">
        <ele>381.4</ele>
        <time>2021-03-01T15:51:15Z</time>
      </trkpt>
      <trkpt lat="36.8186890" lon="-2.9319560">
        <ele>381.6</ele>
        <time>2021-03-01T15:51:16Z</time>
      </trkpt>
      <trkpt lat="36.8186570" lon="-2.9319370">
        <ele>381.8</ele>
        <time>2021-03-01T15:51:17Z</time>
      </trkpt>
      <trkpt lat="36.8186260" lon="-2.9319160">
        <ele>382.0</ele>
        <time>2021-03-01T15:51:18Z</time>
      </trkpt>
      <trkpt lat="36.8185960" lon="-2.9318910">
        <ele>382.3</ele>
        <time>2021-03-01T15:51:19Z</time>
      </trkpt>
      <trkpt lat="36.8185850" lon="-2.9318800">
        <ele>382.4</ele>
        <time>2021-03-01T15:51:20Z</time>
      </trkpt>
      <trkpt lat="36.8185600" lon="-2.9318630">
        <ele>382.6</ele>
        <time>2021-03-01T15:51:21Z</time>
      </trkpt>
      <trkpt lat="36.8185500" lon="-2.9318600">
        <ele>382.6</ele>
        <time>2021-03-01T15:51:22Z</time>
      </trkpt>
      <trkpt lat="36.8185120" lon="-2.9318460">
        <ele>382.9</ele>
        <time>2021-03-01T15:51:23Z</time>
      </trkpt>
      <trkpt lat="36.8184990" lon="-2.9318350">
        <ele>383.0</ele>
        <time>2021-03-01T15:51:24Z</time>
      </trkpt>
      <trkpt lat="36.8184650" lon="-2.9318130">
        <ele>383.3</ele>
        <time>2021-03-01T15:51:25Z</time>
      </trkpt>
      <trkpt lat="36.8184530" lon="-2.9318070">
        <ele>383.3</ele>
        <time>2021-03-01T15:51:26Z</time>
      </trkpt>
      <trkpt lat="36.8184450" lon="-2.9317840">
        <ele>383.5</ele>
        <time>2021-03-01T15:51:27Z</time>
      </trkpt>
      <trkpt lat="36.8184350" lon="-2.9317720">
        <ele>383.6</ele>
        <time>2021-03-01T15:51:28Z</time>
      </trkpt>
      <trkpt lat="36.8184240" lon="-2.9317600">
        <ele>383.7</ele>
        <time>2021-03-01T15:51:29Z</time>
      </trkpt>
      <trkpt lat="36.8184000" lon="-2.9317390">
        <ele>383.8</ele>
        <time>2021-03-01T15:51:30Z</time>
      </trkpt>
      <trkpt lat="36.8183770" lon="-2.9317120">
        <ele>384.0</ele>
        <time>2021-03-01T15:51:31Z</time>
      </trkpt>
      <trkpt lat="36.8183560" lon="-2.9316890">
        <ele>384.2</ele>
        <time>2021-03-01T15:51:32Z</time>
      </trkpt>
      <trkpt lat="36.8183320" lon="-2.9316710">
        <ele>384.4</ele>
        <time>2021-03-01T15:51:33Z</time>
      </trkpt>
      <trkpt lat="36.8183190" lon="-2.9316610">
        <ele>384.5</ele>
        <time>2021-03-01T15:51:34Z</time>
      </trkpt>
      <trkpt lat="36.8183040" lon="-2.9316450">
        <ele>384.7</ele>
        <time>2021-03-01T15:51:35Z</time>
      </trkpt>
      <trkpt lat="36.8182850" lon="-2.9316150">
        <ele>384.9</ele>
        <time>2021-03-01T15:51:36Z</time>
      </trkpt>
      <trkpt lat="36.8182770" lon="-2.9316060">
        <ele>385.0</ele>
        <time>2021-03-01T15:51:37Z</time>
      </trkpt>
      <trkpt lat="36.8182230" lon="-2.9316030">
        <ele>385.4</ele>
        <time>2021-03-01T15:51:38Z</time>
      </trkpt>
      <trkpt lat="36.8181880" lon="-2.9315970">
        <ele>385.7</ele>
        <time>2021-03-01T15:51:39Z</time>
      </trkpt>
      <trkpt lat="36.8181600" lon="-2.9315830">
        <ele>386.0</ele>
        <time>2021-03-01T15:51:40Z</time>
      </trkpt>
      <trkpt lat="36.8181340" lon="-2.9315610">
        <ele>386.3</ele>
        <time>2021-03-01T15:51:41Z</time>
      </trkpt>
      <trkpt lat="36.8181090" lon="-2.9315420">
        <ele>386.5</ele>
        <time>2021-03-01T15:51:42Z</time>
      </trkpt>
      <trkpt lat="36.8180770" lon="-2.9315100">
        <ele>386.9</ele>
        <time>2021-03-01T15:51:43Z</time>
      </trkpt>
      <trkpt lat="36.8180630" lon="-2.9314980">
        <ele>387.0</ele>
        <time>2021-03-01T15:51:44Z</time>
      </trkpt>
      <trkpt lat="36.8180250" lon="-2.9314660">
        <ele>387.4</ele>
        <time>2021-03-01T15:51:45Z</time>
      </trkpt>
      <trkpt lat="36.8179720" lon="-2.9314560">
        <ele>387.8</ele>
        <time>2021-03-01T15:51:46Z</time>
      </trkpt>
      <trkpt lat="36.8179410" lon="-2.9314500">
        <ele>388.0</ele>
        <time>2021-03-01T15:51:47Z</time>
      </trkpt>
      <trkpt lat="36.8179060" lon="-2.9314620">
        <ele>388.3</ele>
        <time>2021-03-01T15:51:48Z</time>
      </trkpt>
      <trkpt lat="36.8178770" lon="-2.9315020">
        <ele>388.6</ele>
        <time>2021-03-01T15:51:49Z</time>
      </trkpt>
      <trkpt lat="36.8178600" lon="-2.9315180">
        <ele>388.7</ele>
        <time>2021-03-01T15:51:50Z</time>
      </trkpt>
      <trkpt lat="36.8178320" lon="-2.9315490">
        <ele>389.0</ele>
        <time>2021-03-01T15:51:51Z</time>
      </trkpt>
      <trkpt lat="36.8177990" lon="-2.9315900">
        <ele>389.3</ele>
        <time>2021-03-01T15:51:52Z</time>
      </trkpt>
      <trkpt lat="36.8177660" lon="-2.9316280">
        <ele>389.6</ele>
        <time>2021-03-01T15:51:53Z</time>
      </trkpt>
      <trkpt lat="36.8177320" lon="-2.9316780">
        <ele>390.1</ele>
        <time>2021-03-01T15:51:54Z</time>
      </trkpt>
      <trkpt lat="36.8177150" lon="-2.9317270">
        <ele>390.4</ele>
        <time>2021-03-01T15:51:55Z</time>
      </trkpt>
      <trkpt lat="36.8176870" lon="-2.9317730">
        <ele>390.8</ele>
        <time>2021-03-01T15:51:56Z</time>
      </trkpt>
      <trkpt lat="36.8176580" lon="-2.9318270">
        <ele>391.3</ele>
        <time>2021-03-01T15:51:57Z</time>
      </trkpt>
      <trkpt lat="36.8176380" lon="-2.9318710">
        <ele>391.7</ele>
        <time>2021-03-01T15:51:58Z</time>
      </trkpt>
      <trkpt lat="36.8176150" lon="-2.9319110">
        <ele>392.0</ele>
        <time>2021-03-01T15:51:59Z</time>
      </trkpt>
      <trkpt lat="36.8175910" lon="-2.9319540">
        <ele>392.4</ele>
        <time>2021-03-01T15:52:00Z</time>
      </trkpt>
      <trkpt lat="36.8175680" lon="-2.9320070">
        <ele>392.8</ele>
        <time>2021-03-01T15:52:01Z</time>
      </trkpt>
      <trkpt lat="36.8175460" lon="-2.9320560">
        <ele>393.1</ele>
        <time>2021-03-01T15:52:02Z</time>
      </trkpt>
      <trkpt lat="36.8175310" lon="-2.9321030">
        <ele>393.4</ele>
        <time>2021-03-01T15:52:03Z</time>
      </trkpt>
      <trkpt lat="36.8175200" lon="-2.9321550">
        <ele>393.7</ele>
        <time>2021-03-01T15:52:04Z</time>
      </trkpt>
      <trkpt lat="36.8175060" lon="-2.9322110">
        <ele>394.0</ele>
        <time>2021-03-01T15:52:05Z</time>
      </trkpt>
      <trkpt lat="36.8174910" lon="-2.9322620">
        <ele>394.3</ele>
        <time>2021-03-01T15:52:06Z</time>
      </trkpt>
      <trkpt lat="36.8174800" lon="-2.9323160">
        <ele>394.6</ele>
        <time>2021-03-01T15:52:07Z</time>
      </trkpt>
      <trkpt lat="36.8174750" lon="-2.9323750">
        <ele>394.9</ele>
        <time>2021-03-01T15:52:08Z</time>
      </trkpt>
      <trkpt lat="36.8174740" lon="-2.9324050">
        <ele>395.0</ele>
        <time>2021-03-01T15:52:09Z</time>
      </trkpt>
      <trkpt lat="36.8174710" lon="-2.9324720">
        <ele>395.4</ele>
        <time>2021-03-01T15:52:10Z</time>
      </trkpt>
      <trkpt lat="36.8174640" lon="-2.9325290">
        <ele>395.7</ele>
        <time>2021-03-01T15:52:11Z</time>
      </trkpt>
      <trkpt lat="36.8174570" lon="-2.9325690">
        <ele>395.9</ele>
        <time>2021-03-01T15:52:12Z</time>
      </trkpt>
      <trkpt lat="36.8174530" lon="-2.9326140">
        <ele>396.2</ele>
        <time>2021-03-01T15:52:13Z</time>
      </trkpt>
      <trkpt lat="36.8174480" lon="-2.9326610">
        <ele>396.4</ele>
        <time>2021-03-01T15:52:14Z</time>
      </trkpt>
      <trkpt lat="36.8174390" lon="-2.9327140">
        <ele>396.8</ele>
        <time>2021-03-01T15:52:15Z</time>
      </trkpt>
      <trkpt lat="36.8174360" lon="-2.9327640">
        <ele>397.1</ele>
        <time>2021-03-01T15:52:16Z</time>
      </trkpt>
      <trkpt lat="36.8174380" lon="-2.9328080">
        <ele>397.4</ele>
        <time>2021-03-01T15:52:17Z</time>
      </trkpt>
      <trkpt lat="36.8174310" lon="-2.9328670">
        <ele>397.8</ele>
        <time>2021-03-01T15:52:18Z</time>
      </trkpt>
      <trkpt lat="36.8174220" lon="-2.9329250">
        <ele>398.2</ele>
        <time>2021-03-01T15:52:19Z</time>
      </trkpt>
      <trkpt lat="36.8174120" lon="-2.9329930">
        <ele>398.8</ele>
        <time>2021-03-01T15:52:20Z</time>
      </trkpt>
      <trkpt lat="36.8174050" lon="-2.9330610">
        <ele>399.5</ele>
        <time>2021-03-01T15:52:21Z</time>
      </trkpt>
      <trkpt lat="36.8173980" lon="-2.9331220">
        <ele>400.1</ele>
        <time>2021-03-01T15:52:22Z</time>
      </trkpt>
      <trkpt lat="36.8173980" lon="-2.9331740">
        <ele>400.6</ele>
        <time>2021-03-01T15:52:23Z</time>
      </trkpt>
      <trkpt lat="36.8173990" lon="-2.9332270">
        <ele>401.1</ele>
        <time>2021-03-01T15:52:24Z</time>
      </trkpt>
      <trkpt lat="36.8174220" lon="-2.9332850">
        <ele>401.7</ele>
        <time>2021-03-01T15:52:25Z</time>
      </trkpt>
      <trkpt lat="36.8174430" lon="-2.9333280">
        <ele>402.2</ele>
        <time>2021-03-01T15:52:26Z</time>
      </trkpt>
      <trkpt lat="36.8174530" lon="-2.9333720">
        <ele>402.7</ele>
        <time>2021-03-01T15:52:27Z</time>
      </trkpt>
      <trkpt lat="36.8174610" lon="-2.9334140">
        <ele>403.1</ele>
        <time>2021-03-01T15:52:28Z</time>
      </trkpt>
      <trkpt lat="36.8174660" lon="-2.9334570">
        <ele>403.5</ele>
        <time>2021-03-01T15:52:29Z</time>
      </trkpt>
      <trkpt lat="36.8174750" lon="-2.9335180">
        <ele>404.1</ele>
        <time>2021-03-01T15:52:30Z</time>
      </trkpt>
      <trkpt lat="36.8174770" lon="-2.9335640">
        <ele>404.5</ele>
        <time>2021-03-01T15:52:31Z</time>
      </trkpt>
      <trkpt lat="36.8174780" lon="-2.9335850">
        <ele>404.7</ele>
        <time>2021-03-01T15:52:32Z</time>
      </trkpt>
      <trkpt lat="36.8174860" lon="-2.9336030">
        <ele>404.9</ele>
        <time>2021-03-01T15:52:33Z</time>
      </trkpt>
      <trkpt lat="36.8174970" lon="-2.9336190">
        <ele>405.1</ele>
        <time>2021-03-01T15:52:34Z</time>
      </trkpt>
      <trkpt lat="36.8174970" lon="-2.9336410">
        <ele>405.2</ele>
        <time>2021-03-01T15:52:35Z</time>
      </trkpt>
      <trkpt lat="36.8174940" lon="-2.9336620">
        <ele>405.4</ele>
        <time>2021-03-01T15:52:36Z</time>
      </trkpt>
      <trkpt lat="36.8174810" lon="-2.9336990">
        <ele>405.7</ele>
        <time>2021-03-01T15:52:37Z</time>
      </trkpt>
      <trkpt lat="36.8174640" lon="-2.9337440">
        <ele>406.1</ele>
        <time>2021-03-01T15:52:38Z</time>
      </trkpt>
      <trkpt lat="36.8174560" lon="-2.9337600">
        <ele>406.3</ele>
        <time>2021-03-01T15:52:39Z</time>
      </trkpt>
      <trkpt lat="36.8174390" lon="-2.9337900">
        <ele>406.6</ele>
        <time>2021-03-01T15:52:40Z</time>
      </trkpt>
      <trkpt lat="36.8174180" lon="-2.9338350">
        <ele>407.0</ele>
        <time>2021-03-01T15:52:41Z</time>
      </trkpt>
      <trkpt lat="36.8173890" lon="-2.9338660">
        <ele>407.3</ele>
        <time>2021-03-01T15:52:42Z</time>
      </trkpt>
      <trkpt lat="36.8173670" lon="-2.9339030">
        <ele>407.7</ele>
        <time>2021-03-01T15:52:43Z</time>
      </trkpt>
      <trkpt lat="36.8173530" lon="-2.9339160">
        <ele>407.8</ele>
        <time>2021-03-01T15:52:44Z</time>
      </trkpt>
      <trkpt lat="36.8173310" lon="-2.9339370">
        <ele>408.1</ele>
        <time>2021-03-01T15:52:45Z</time>
      </trkpt>
      <trkpt lat="36.8173060" lon="-2.9339550">
        <ele>408.4</ele>
        <time>2021-03-01T15:52:46Z</time>
      </trkpt>
      <trkpt lat="36.8172970" lon="-2.9339580">
        <ele>408.4</ele>
        <time>2021-03-01T15:52:47Z</time>
      </trkpt>
      <trkpt lat="36.8172640" lon="-2.9339770">
        <ele>408.8</ele>
        <time>2021-03-01T15:52:48Z</time>
      </trkpt>
      <trkpt lat="36.8172520" lon="-2.9339800">
        <ele>408.9</ele>
        <time>2021-03-01T15:52:49Z</time>
      </trkpt>
      <trkpt lat="36.8172110" lon="-2.9339960">
        <ele>409.3</ele>
        <time>2021-03-01T15:52:50Z</time>
      </trkpt>
      <trkpt lat="36.8171930" lon="-2.9340000">
        <ele>409.4</ele>
        <time>2021-03-01T15:52:51Z</time>
      </trkpt>
      <trkpt lat="36.8171800" lon="-2.9339980">
        <ele>409.6</ele>
        <time>2021-03-01T15:52:52Z</time>
      </trkpt>
      <trkpt lat="36.8171610" lon="-2.9340070">
        <ele>409.8</ele>
        <time>2021-03-01T15:52:53Z</time>
      </trkpt>
      <trkpt lat="36.8171320" lon="-2.9340250">
        <ele>410.1</ele>
        <time>2021-03-01T15:52:54Z</time>
      </trkpt>
      <trkpt lat="36.8170980" lon="-2.9340570">
        <ele>410.5</ele>
        <time>2021-03-01T15:52:55Z</time>
      </trkpt>
      <trkpt lat="36.8170840" lon="-2.9340700">
        <ele>410.6</ele>
        <time>2021-03-01T15:52:56Z</time>
      </trkpt>
      <trkpt lat="36.8170620" lon="-2.9340950">
        <ele>410.9</ele>
        <time>2021-03-01T15:52:57Z</time>
      </trkpt>
      <trkpt lat="36.8170340" lon="-2.9341140">
        <ele>411.3</ele>
        <time>2021-03-01T15:52:58Z</time>
      </trkpt>
      <trkpt lat="36.8170260" lon="-2.9341230">
        <ele>411.4</ele>
        <time>2021-03-01T15:52:59Z</time>
      </trkpt>
      <trkpt lat="36.8169850" lon="-2.9341330">
        <ele>411.8</ele>
        <time>2021-03-01T15:53:00Z</time>
      </trkpt>
      <trkpt lat="36.8169460" lon="-2.9341540">
        <ele>412.3</ele>
        <time>2021-03-01T15:53:01Z</time>
      </trkpt>
      <trkpt lat="36.8169320" lon="-2.9341640">
        <ele>412.5</ele>
        <time>2021-03-01T15:53:02Z</time>
      </trkpt>
      <trkpt lat="36.8169090" lon="-2.9341820">
        <ele>412.8</ele>
        <time>2021-03-01T15:53:03Z</time>
      </trkpt>
      <trkpt lat="36.8168970" lon="-2.9341990">
        <ele>413.0</ele>
        <time>2021-03-01T15:53:04Z</time>
      </trkpt>
      <trkpt lat="36.8168790" lon="-2.9342120">
        <ele>413.3</ele>
        <time>2021-03-01T15:53:05Z</time>
      </trkpt>
      <trkpt lat="36.8168620" lon="-2.9342240">
        <ele>413.5</ele>
        <time>2021-03-01T15:53:06Z</time>
      </trkpt>
      <trkpt lat="36.8168280" lon="-2.9342570">
        <ele>414.1</ele>
        <time>2021-03-01T15:53:07Z</time>
      </trkpt>
      <trkpt lat="36.8168150" lon="-2.9342680">
        <ele>414.3</ele>
        <time>2021-03-01T15:53:08Z</time>
      </trkpt>
      <trkpt lat="36.8167880" lon="-2.9342910">
        <ele>414.7</ele>
        <time>2021-03-01T15:53:09Z</time>
      </trkpt>
      <trkpt lat="36.8167640" lon="-2.9343150">
        <ele>415.1</ele>
        <time>2021-03-01T15:53:10Z</time>
      </trkpt>
      <trkpt lat="36.8167360" lon="-2.9343450">
        <ele>415.5</ele>
        <time>2021-03-01T15:53:11Z</time>
      </trkpt>
      <trkpt lat="36.8167140" lon="-2.9343690">
        <ele>415.8</ele>
        <time>2021-03-01T15:53:12Z</time>
      </trkpt>
      <trkpt lat="36.8166880" lon="-2.9344010">
        <ele>416.3</ele>
        <time>2021-03-01T15:53:13Z</time>
      </trkpt>
      <trkpt lat="36.8166700" lon="-2.9344350">
        <ele>416.6</ele>
        <time>2021-03-01T15:53:14Z</time>
      </trkpt>
      <trkpt lat="36.8166490" lon="-2.9344660">
        <ele>417.0</ele>
        <time>2021-03-01T15:53:15Z</time>
      </trkpt>
      <trkpt lat="36.8166400" lon="-2.9344910">
        <ele>417.3</ele>
        <time>2021-03-01T15:53:16Z</time>
      </trkpt>
      <trkpt lat="36.8166330" lon="-2.9345070">
        <ele>417.4</ele>
        <time>2021-03-01T15:53:17Z</time>
      </trkpt>
      <trkpt lat="36.8166270" lon="-2.9345240">
        <ele>417.6</ele>
        <time>2021-03-01T15:53:18Z</time>
      </trkpt>
      <trkpt lat="36.8165990" lon="-2.9345640">
        <ele>418.0</ele>
        <time>2021-03-01T15:53:19Z</time>
      </trkpt>
      <trkpt lat="36.8165870" lon="-2.9345830">
        <ele>418.2</ele>
        <time>2021-03-01T15:53:20Z</time>
      </trkpt>
      <trkpt lat="36.8165600" lon="-2.9346090">
        <ele>418.6</ele>
        <time>2021-03-01T15:53:21Z</time>
      </trkpt>
      <trkpt lat="36.8165490" lon="-2.9346160">
        <ele>418.7</ele>
        <time>2021-03-01T15:53:22Z</time>
      </trkpt>
      <trkpt lat="36.8165210" lon="-2.9346320">
        <ele>419.0</ele>
        <time>2021-03-01T15:53:23Z</time>
      </trkpt>
      <trkpt lat="36.8164900" lon="-2.9346440">
        <ele>419.4</ele>
        <time>2021-03-01T15:53:24Z</time>
      </trkpt>
      <trkpt lat="36.8164650" lon="-2.9346580">
        <ele>419.6</ele>
        <time>2021-03-01T15:53:25Z</time>
      </trkpt>
      <trkpt lat="36.8164360" lon="-2.9346560">
        <ele>419.9</ele>
        <time>2021-03-01T15:53:26Z</time>
      </trkpt>
      <trkpt lat="36.8163980" lon="-2.9346660">
        <ele>420.3</ele>
        <time>2021-03-01T15:53:27Z</time>
      </trkpt>
      <trkpt lat="36.8163850" lon="-2.9346700">
        <ele>420.4</ele>
        <time>2021-03-01T15:53:28Z</time>
      </trkpt>
      <trkpt lat="36.8163520" lon="-2.9346830">
        <ele>420.7</ele>
        <time>2021-03-01T15:53:29Z</time>
      </trkpt>
      <trkpt lat="36.8163160" lon="-2.9347020">
        <ele>421.1</ele>
        <time>2021-03-01T15:53:30Z</time>
      </trkpt>
      <trkpt lat="36.8162900" lon="-2.9347290">
        <ele>421.4</ele>
        <time>2021-03-01T15:53:31Z</time>
      </trkpt>
      <trkpt lat="36.8162640" lon="-2.9347450">
        <ele>421.6</ele>
        <time>2021-03-01T15:53:32Z</time>
      </trkpt>
      <trkpt lat="36.8162340" lon="-2.9347680">
        <ele>422.0</ele>
        <time>2021-03-01T15:53:33Z</time>
      </trkpt>
      <trkpt lat="36.8162230" lon="-2.9347740">
        <ele>422.1</ele>
        <time>2021-03-01T15:53:34Z</time>
      </trkpt>
      <trkpt lat="36.8161950" lon="-2.9348010">
        <ele>422.4</ele>
        <time>2021-03-01T15:53:35Z</time>
      </trkpt>
      <trkpt lat="36.8161860" lon="-2.9348090">
        <ele>422.5</ele>
        <time>2021-03-01T15:53:36Z</time>
      </trkpt>
      <trkpt lat="36.8161620" lon="-2.9348350">
        <ele>422.8</ele>
        <time>2021-03-01T15:53:37Z</time>
      </trkpt>
      <trkpt lat="36.8161220" lon="-2.9348620">
        <ele>423.3</ele>
        <time>2021-03-01T15:53:38Z</time>
      </trkpt>
      <trkpt lat="36.8161020" lon="-2.9348670">
        <ele>423.6</ele>
        <time>2021-03-01T15:53:39Z</time>
      </trkpt>
      <trkpt lat="36.8160700" lon="-2.9348740">
        <ele>423.9</ele>
        <time>2021-03-01T15:53:40Z</time>
      </trkpt>
      <trkpt lat="36.8160610" lon="-2.9348730">
        <ele>424.0</ele>
        <time>2021-03-01T15:53:41Z</time>
      </trkpt>
      <trkpt lat="36.8160350" lon="-2.9348610">
        <ele>424.4</ele>
        <time>2021-03-01T15:53:42Z</time>
      </trkpt>
      <trkpt lat="36.8160100" lon="-2.9348400">
        <ele>424.8</ele>
        <time>2021-03-01T15:53:43Z</time>
      </trkpt>
      <trkpt lat="36.8159800" lon="-2.9348250">
        <ele>425.2</ele>
        <time>2021-03-01T15:53:44Z</time>
      </trkpt>
      <trkpt lat="36.8159690" lon="-2.9348170">
        <ele>425.4</ele>
        <time>2021-03-01T15:53:45Z</time>
      </trkpt>
      <trkpt lat="36.8159410" lon="-2.9347960">
        <ele>425.9</ele>
        <time>2021-03-01T15:53:46Z</time>
      </trkpt>
      <trkpt lat="36.8159260" lon="-2.9347870">
        <ele>426.1</ele>
        <time>2021-03-01T15:53:47Z</time>
      </trkpt>
      <trkpt lat="36.8159020" lon="-2.9347800">
        <ele>426.4</ele>
        <time>2021-03-01T15:53:48Z</time>
      </trkpt>
      <trkpt lat="36.8158910" lon="-2.9347740">
        <ele>426.6</ele>
        <time>2021-03-01T15:53:49Z</time>
      </trkpt>
      <trkpt lat="36.8158600" lon="-2.9347580">
        <ele>427.1</ele>
        <time>2021-03-01T15:53:50Z</time>
      </trkpt>
      <trkpt lat="36.8158470" lon="-2.9347430">
        <ele>427.3</ele>
        <time>2021-03-01T15:53:51Z</time>
      </trkpt>
      <trkpt lat="36.8158320" lon="-2.9347310">
        <ele>427.6</ele>
        <time>2021-03-01T15:53:52Z</time>
      </trkpt>
      <trkpt lat="36.8158230" lon="-2.9346990">
        <ele>427.9</ele>
        <time>2021-03-01T15:53:53Z</time>
      </trkpt>
      <trkpt lat="36.8158170" lon="-2.9346870">
        <ele>428.0</ele>
        <time>2021-03-01T15:53:54Z</time>
      </trkpt>
      <trkpt lat="36.8158070" lon="-2.9346510">
        <ele>428.4</ele>
        <time>2021-03-01T15:53:55Z</time>
      </trkpt>
      <trkpt lat="36.8157980" lon="-2.9346150">
        <ele>428.7</ele>
        <time>2021-03-01T15:53:56Z</time>
      </trkpt>
      <trkpt lat="36.8157880" lon="-2.9345830">
        <ele>428.9</ele>
        <time>2021-03-01T15:53:57Z</time>
      </trkpt>
      <trkpt lat="36.8157750" lon="-2.9345340">
        <ele>429.3</ele>
        <time>2021-03-01T15:53:58Z</time>
      </trkpt>
      <trkpt lat="36.8157700" lon="-2.9345170">
        <ele>429.4</ele>
        <time>2021-03-01T15:53:59Z</time>
      </trkpt>
      <trkpt lat="36.8157540" lon="-2.9344850">
        <ele>429.6</ele>
        <time>2021-03-01T15:54:00Z</time>
      </trkpt>
      <trkpt lat="36.8157320" lon="-2.9344290">
        <ele>430.0</ele>
        <time>2021-03-01T15:54:01Z</time>
      </trkpt>
      <trkpt lat="36.8157230" lon="-2.9343880">
        <ele>430.3</ele>
        <time>2021-03-01T15:54:02Z</time>
      </trkpt>
      <trkpt lat="36.8157150" lon="-2.9343550">
        <ele>430.5</ele>
        <time>2021-03-01T15:54:03Z</time>
      </trkpt>
      <trkpt lat="36.8157030" lon="-2.9343170">
        <ele>430.7</ele>
        <time>2021-03-01T15:54:04Z</time>
      </trkpt>
      <trkpt lat="36.8156890" lon="-2.9342820">
        <ele>430.9</ele>
        <time>2021-03-01T15:54:05Z</time>
      </trkpt>
      <trkpt lat="36.8156750" lon="-2.9342460">
        <ele>431.2</ele>
        <time>2021-03-01T15:54:06Z</time>
      </trkpt>
      <trkpt lat="36.8156680" lon="-2.9342190">
        <ele>431.4</ele>
        <time>2021-03-01T15:54:07Z</time>
      </trkpt>
      <trkpt lat="36.8156660" lon="-2.9342050">
        <ele>431.5</ele>
        <time>2021-03-01T15:54:08Z</time>
      </trkpt>
      <trkpt lat="36.8156660" lon="-2.9341850">
        <ele>431.7</ele>
        <time>2021-03-01T15:54:09Z</time>
      </trkpt>
      <trkpt lat="36.8156630" lon="-2.9341720">
        <ele>431.8</ele>
        <time>2021-03-01T15:54:10Z</time>
      </trkpt>
      <trkpt lat="36.8156460" lon="-2.9341380">
        <ele>432.1</ele>
        <time>2021-03-01T15:54:11Z</time>
      </trkpt>
      <trkpt lat="36.8156380" lon="-2.9341240">
        <ele>432.2</ele>
        <time>2021-03-01T15:54:12Z</time>
      </trkpt>
      <trkpt lat="36.8156170" lon="-2.9340840">
        <ele>432.6</ele>
        <time>2021-03-01T15:54:13Z</time>
      </trkpt>
      <trkpt lat="36.8156100" lon="-2.9340700">
        <ele>432.7</ele>
        <time>2021-03-01T15:54:14Z</time>
      </trkpt>
      <trkpt lat="36.8155850" lon="-2.9340240">
        <ele>433.2</ele>
        <time>2021-03-01T15:54:15Z</time>
      </trkpt>
      <trkpt lat="36.8155730" lon="-2.9340000">
        <ele>433.4</ele>
        <time>2021-03-01T15:54:16Z</time>
      </trkpt>
      <trkpt lat="36.8155510" lon="-2.9339490">
        <ele>433.9</ele>
        <time>2021-03-01T15:54:17Z</time>
      </trkpt>
      <trkpt lat="36.8155300" lon="-2.9339060">
        <ele>434.3</ele>
        <time>2021-03-01T15:54:18Z</time>
      </trkpt>
      <trkpt lat="36.8155130" lon="-2.9338610">
        <ele>434.7</ele>
        <time>2021-03-01T15:54:19Z</time>
      </trkpt>
      <trkpt lat="36.8154940" lon="-2.9338250">
        <ele>435.0</ele>
        <time>2021-03-01T15:54:20Z</time>
      </trkpt>
      <trkpt lat="36.8154760" lon="-2.9337820">
        <ele>435.4</ele>
        <time>2021-03-01T15:54:21Z</time>
      </trkpt>
      <trkpt lat="36.8154780" lon="-2.9337470">
        <ele>435.7</ele>
        <time>2021-03-01T15:54:22Z</time>
      </trkpt>
      <trkpt lat="36.8154540" lon="-2.9337210">
        <ele>435.9</ele>
        <time>2021-03-01T15:54:23Z</time>
      </trkpt>
      <trkpt lat="36.8154360" lon="-2.9336960">
        <ele>436.2</ele>
        <time>2021-03-01T15:54:24Z</time>
      </trkpt>
      <trkpt lat="36.8154080" lon="-2.9336650">
        <ele>436.5</ele>
        <time>2021-03-01T15:54:25Z</time>
      </trkpt>
      <trkpt lat="36.8153960" lon="-2.9336580">
        <ele>436.6</ele>
        <time>2021-03-01T15:54:26Z</time>
      </trkpt>
      <trkpt lat="36.8153660" lon="-2.9336570">
        <ele>436.9</ele>
        <time>2021-03-01T15:54:27Z</time>
      </trkpt>
      <trkpt lat="36.8153250" lon="-2.9336820">
        <ele>437.4</ele>
        <time>2021-03-01T15:54:28Z</time>
      </trkpt>
      <trkpt lat="36.8152860" lon="-2.9337160">
        <ele>437.9</ele>
        <time>2021-03-01T15:54:29Z</time>
      </trkpt>
      <trkpt lat="36.8152450" lon="-2.9337500">
        <ele>438.5</ele>
        <time>2021-03-01T15:54:30Z</time>
      </trkpt>
      <trkpt lat="36.8152180" lon="-2.9337820">
        <ele>438.9</ele>
        <time>2021-03-01T15:54:31Z</time>
      </trkpt>
      <trkpt lat="36.8151940" lon="-2.9338120">
        <ele>439.3</ele>
        <time>2021-03-01T15:54:32Z</time>
      </trkpt>
      <trkpt lat="36.8151580" lon="-2.9338350">
        <ele>439.8</ele>
        <time>2021-03-01T15:54:33Z</time>
      </trkpt>
      <trkpt lat="36.8151310" lon="-2.9338630">
        <ele>440.2</ele>
        <time>2021-03-01T15:54:34Z</time>
      </trkpt>
      <trkpt lat="36.8151030" lon="-2.9339000">
        <ele>440.7</ele>
        <time>2021-03-01T15:54:35Z</time>
      </trkpt>
      <trkpt lat="36.8150840" lon="-2.9339420">
        <ele>441.2</ele>
        <time>2021-03-01T15:54:36Z</time>
      </trkpt>
      <trkpt lat="36.8150590" lon="-2.9339750">
        <ele>441.6</ele>
        <time>2021-03-01T15:54:37Z</time>
      </trkpt>
      <trkpt lat="36.8150400" lon="-2.9340160">
        <ele>442.0</ele>
        <time>2021-03-01T15:54:38Z</time>
      </trkpt>
      <trkpt lat="36.8150090" lon="-2.9340490">
        <ele>442.5</ele>
        <time>2021-03-01T15:54:39Z</time>
      </trkpt>
      <trkpt lat="36.8149860" lon="-2.9340840">
        <ele>442.9</ele>
        <time>2021-03-01T15:54:40Z</time>
      </trkpt>
      <trkpt lat="36.8149560" lon="-2.9341420">
        <ele>443.5</ele>
        <time>2021-03-01T15:54:41Z</time>
      </trkpt>
      <trkpt lat="36.8149320" lon="-2.9341910">
        <ele>444.0</ele>
        <time>2021-03-01T15:54:42Z</time>
      </trkpt>
      <trkpt lat="36.8149120" lon="-2.9342340">
        <ele>444.5</ele>
        <time>2021-03-01T15:54:43Z</time>
      </trkpt>
      <trkpt lat="36.8148930" lon="-2.9342620">
        <ele>444.8</ele>
        <time>2021-03-01T15:54:44Z</time>
      </trkpt>
      <trkpt lat="36.8148670" lon="-2.9342860">
        <ele>445.2</ele>
        <time>2021-03-01T15:54:45Z</time>
      </trkpt>
      <trkpt lat="36.8148510" lon="-2.9343170">
        <ele>445.5</ele>
        <time>2021-03-01T15:54:46Z</time>
      </trkpt>
      <trkpt lat="36.8148280" lon="-2.9343490">
        <ele>445.9</ele>
        <time>2021-03-01T15:54:47Z</time>
      </trkpt>
      <trkpt lat="36.8148020" lon="-2.9343810">
        <ele>446.3</ele>
        <time>2021-03-01T15:54:48Z</time>
      </trkpt>
      <trkpt lat="36.8147730" lon="-2.9344130">
        <ele>446.7</ele>
        <time>2021-03-01T15:54:49Z</time>
      </trkpt>
      <trkpt lat="36.8147470" lon="-2.9344610">
        <ele>447.3</ele>
        <time>2021-03-01T15:54:50Z</time>
      </trkpt>
      <trkpt lat="36.8147160" lon="-2.9344850">
        <ele>447.7</ele>
        <time>2021-03-01T15:54:51Z</time>
      </trkpt>
      <trkpt lat="36.8146880" lon="-2.9345160">
        <ele>448.1</ele>
        <time>2021-03-01T15:54:52Z</time>
      </trkpt>
      <trkpt lat="36.8146620" lon="-2.9345440">
        <ele>448.4</ele>
        <time>2021-03-01T15:54:53Z</time>
      </trkpt>
      <trkpt lat="36.8146430" lon="-2.9345850">
        <ele>448.8</ele>
        <time>2021-03-01T15:54:54Z</time>
      </trkpt>
      <trkpt lat="36.8146180" lon="-2.9346200">
        <ele>449.2</ele>
        <time>2021-03-01T15:54:55Z</time>
      </trkpt>
      <trkpt lat="36.8145880" lon="-2.9346550">
        <ele>449.5</ele>
        <time>2021-03-01T15:54:56Z</time>
      </trkpt>
      <trkpt lat="36.8145610" lon="-2.9346800">
        <ele>449.8</ele>
        <time>2021-03-01T15:54:57Z</time>
      </trkpt>
      <trkpt lat="36.8145290" lon="-2.9347030">
        <ele>450.2</ele>
        <time>2021-03-01T15:54:58Z</time>
      </trkpt>
      <trkpt lat="36.8144990" lon="-2.9347280">
        <ele>450.5</ele>
        <time>2021-03-01T15:54:59Z</time>
      </trkpt>
      <trkpt lat="36.8144550" lon="-2.9347490">
        <ele>450.9</ele>
        <time>2021-03-01T15:55:00Z</time>
      </trkpt>
      <trkpt lat="36.8144190" lon="-2.9347490">
        <ele>451.2</ele>
        <time>2021-03-01T15:55:01Z</time>
      </trkpt>
      <trkpt lat="36.8143790" lon="-2.9347360">
        <ele>451.5</ele>
        <time>2021-03-01T15:55:02Z</time>
      </trkpt>
      <trkpt lat="36.8143480" lon="-2.9347060">
        <ele>451.8</ele>
        <time>2021-03-01T15:55:03Z</time>
      </trkpt>
      <trkpt lat="36.8143250" lon="-2.9346720">
        <ele>452.1</ele>
        <time>2021-03-01T15:55:04Z</time>
      </trkpt>
      <trkpt lat="36.8142890" lon="-2.9346470">
        <ele>452.3</ele>
        <time>2021-03-01T15:55:05Z</time>
      </trkpt>
      <trkpt lat="36.8142720" lon="-2.9346350">
        <ele>452.5</ele>
        <time>2021-03-01T15:55:06Z</time>
      </trkpt>
      <trkpt lat="36.8142480" lon="-2.9346140">
        <ele>452.7</ele>
        <time>2021-03-01T15:55:07Z</time>
      </trkpt>
      <trkpt lat="36.8142090" lon="-2.9345920">
        <ele>452.9</ele>
        <time>2021-03-01T15:55:08Z</time>
      </trkpt>
      <trkpt lat="36.8141590" lon="-2.9345760">
        <ele>453.2</ele>
        <time>2021-03-01T15:55:09Z</time>
      </trkpt>
      <trkpt lat="36.8140990" lon="-2.9345740">
        <ele>453.5</ele>
        <time>2021-03-01T15:55:10Z</time>
      </trkpt>
      <trkpt lat="36.8140510" lon="-2.9345840">
        <ele>453.7</ele>
        <time>2021-03-01T15:55:11Z</time>
      </trkpt>
      <trkpt lat="36.8140030" lon="-2.9346000">
        <ele>453.8</ele>
        <time>2021-03-01T15:55:12Z</time>
      </trkpt>
      <trkpt lat="36.8139620" lon="-2.9346130">
        <ele>454.0</ele>
        <time>2021-03-01T15:55:13Z</time>
      </trkpt>
      <trkpt lat="36.8139260" lon="-2.9346260">
        <ele>454.1</ele>
        <time>2021-03-01T15:55:14Z</time>
      </trkpt>
      <trkpt lat="36.8138900" lon="-2.9346450">
        <ele>454.1</ele>
        <time>2021-03-01T15:55:15Z</time>
      </trkpt>
      <trkpt lat="36.8138510" lon="-2.9346510">
        <ele>454.1</ele>
        <time>2021-03-01T15:55:16Z</time>
      </trkpt>
      <trkpt lat="36.8138130" lon="-2.9346320">
        <ele>454.1</ele>
        <time>2021-03-01T15:55:17Z</time>
      </trkpt>
      <trkpt lat="36.8138020" lon="-2.9345680">
        <ele>454.0</ele>
        <time>2021-03-01T15:55:18Z</time>
      </trkpt>
      <trkpt lat="36.8138100" lon="-2.9344940">
        <ele>453.8</ele>
        <time>2021-03-01T15:55:19Z</time>
      </trkpt>
      <trkpt lat="36.8138120" lon="-2.9344110">
        <ele>453.6</ele>
        <time>2021-03-01T15:55:20Z</time>
      </trkpt>
      <trkpt lat="36.8138050" lon="-2.9343220">
        <ele>453.4</ele>
        <time>2021-03-01T15:55:21Z</time>
      </trkpt>
      <trkpt lat="36.8137830" lon="-2.9342240">
        <ele>453.2</ele>
        <time>2021-03-01T15:55:22Z</time>
      </trkpt>
      <trkpt lat="36.8137410" lon="-2.9341140">
        <ele>453.0</ele>
        <time>2021-03-01T15:55:23Z</time>
      </trkpt>
      <trkpt lat="36.8137000" lon="-2.9340000">
        <ele>452.8</ele>
        <time>2021-03-01T15:55:24Z</time>
      </trkpt>
      <trkpt lat="36.8136520" lon="-2.9338900">
        <ele>452.8</ele>
        <time>2021-03-01T15:55:25Z</time>
      </trkpt>
      <trkpt lat="36.8136090" lon="-2.9338000">
        <ele>452.9</ele>
        <time>2021-03-01T15:55:26Z</time>
      </trkpt>
      <trkpt lat="36.8135700" lon="-2.9337270">
        <ele>453.1</ele>
        <time>2021-03-01T15:55:27Z</time>
      </trkpt>
      <trkpt lat="36.8135410" lon="-2.9336660">
        <ele>453.3</ele>
        <time>2021-03-01T15:55:28Z</time>
      </trkpt>
      <trkpt lat="36.8135180" lon="-2.9336190">
        <ele>453.5</ele>
        <time>2021-03-01T15:55:29Z</time>
      </trkpt>
      <trkpt lat="36.8134940" lon="-2.9335800">
        <ele>453.7</ele>
        <time>2021-03-01T15:55:30Z</time>
      </trkpt>
      <trkpt lat="36.8134790" lon="-2.9335320">
        <ele>453.9</ele>
        <time>2021-03-01T15:55:31Z</time>
      </trkpt>
      <trkpt lat="36.8134590" lon="-2.9334880">
        <ele>454.2</ele>
        <time>2021-03-01T15:55:32Z</time>
      </trkpt>
      <trkpt lat="36.8134360" lon="-2.9334440">
        <ele>454.3</ele>
        <time>2021-03-01T15:55:33Z</time>
      </trkpt>
      <trkpt lat="36.8134130" lon="-2.9333960">
        <ele>454.5</ele>
        <time>2021-03-01T15:55:34Z</time>
      </trkpt>
      <trkpt lat="36.8134180" lon="-2.9333300">
        <ele>454.8</ele>
        <time>2021-03-01T15:55:35Z</time>
      </trkpt>
      <trkpt lat="36.8134420" lon="-2.9332670">
        <ele>455.2</ele>
        <time>2021-03-01T15:55:36Z</time>
      </trkpt>
      <trkpt lat="36.8134680" lon="-2.9332060">
        <ele>455.5</ele>
        <time>2021-03-01T15:55:37Z</time>
      </trkpt>
      <trkpt lat="36.8135030" lon="-2.9331520">
        <ele>455.9</ele>
        <time>2021-03-01T15:55:38Z</time>
      </trkpt>
      <trkpt lat="36.8135430" lon="-2.9331110">
        <ele>456.2</ele>
        <time>2021-03-01T15:55:39Z</time>
      </trkpt>
      <trkpt lat="36.8135820" lon="-2.9330710">
        <ele>456.5</ele>
        <time>2021-03-01T15:55:40Z</time>
      </trkpt>
      <trkpt lat="36.8136180" lon="-2.9330310">
        <ele>456.8</ele>
        <time>2021-03-01T15:55:41Z</time>
      </trkpt>
      <trkpt lat="36.8136510" lon="-2.9329890">
        <ele>457.0</ele>
        <time>2021-03-01T15:55:42Z</time>
      </trkpt>
      <trkpt lat="36.8136640" lon="-2.9329340">
        <ele>457.3</ele>
        <time>2021-03-01T15:55:43Z</time>
      </trkpt>
      <trkpt lat="36.8136720" lon="-2.9328740">
        <ele>457.6</ele>
        <time>2021-03-01T15:55:44Z</time>
      </trkpt>
      <trkpt lat="36.8136650" lon="-2.9328150">
        <ele>457.9</ele>
        <time>2021-03-01T15:55:45Z</time>
      </trkpt>
      <trkpt lat="36.8136470" lon="-2.9327720">
        <ele>458.2</ele>
        <time>2021-03-01T15:55:46Z</time>
      </trkpt>
      <trkpt lat="36.8136250" lon="-2.9327310">
        <ele>458.5</ele>
        <time>2021-03-01T15:55:47Z</time>
      </trkpt>
      <trkpt lat="36.8135990" lon="-2.9326850">
        <ele>458.8</ele>
        <time>2021-03-01T15:55:48Z</time>
      </trkpt>
      <trkpt lat="36.8135540" lon="-2.9326580">
        <ele>459.1</ele>
        <time>2021-03-01T15:55:49Z</time>
      </trkpt>
      <trkpt lat="36.8135150" lon="-2.9326410">
        <ele>459.4</ele>
        <time>2021-03-01T15:55:50Z</time>
      </trkpt>
      <trkpt lat="36.8134840" lon="-2.9326440">
        <ele>459.6</ele>
        <time>2021-03-01T15:55:51Z</time>
      </trkpt>
      <trkpt lat="36.8134560" lon="-2.9326720">
        <ele>459.9</ele>
        <time>2021-03-01T15:55:52Z</time>
      </trkpt>
      <trkpt lat="36.8134190" lon="-2.9327170">
        <ele>460.3</ele>
        <time>2021-03-01T15:55:53Z</time>
      </trkpt>
      <trkpt lat="36.8133860" lon="-2.9327590">
        <ele>460.6</ele>
        <time>2021-03-01T15:55:54Z</time>
      </trkpt>
      <trkpt lat="36.8133560" lon="-2.9328020">
        <ele>461.0</ele>
        <time>2021-03-01T15:55:55Z</time>
      </trkpt>
      <trkpt lat="36.8133260" lon="-2.9328490">
        <ele>461.5</ele>
        <time>2021-03-01T15:55:56Z</time>
      </trkpt>
      <trkpt lat="36.8132980" lon="-2.9328910">
        <ele>462.0</ele>
        <time>2021-03-01T15:55:57Z</time>
      </trkpt>
      <trkpt lat="36.8132640" lon="-2.9329260">
        <ele>462.5</ele>
        <time>2021-03-01T15:55:58Z</time>
      </trkpt>
      <trkpt lat="36.8132300" lon="-2.9329660">
        <ele>463.0</ele>
        <time>2021-03-01T15:55:59Z</time>
      </trkpt>
      <trkpt lat="36.8131930" lon="-2.9329920">
        <ele>463.6</ele>
        <time>2021-03-01T15:56:00Z</time>
      </trkpt>
      <trkpt lat="36.8131530" lon="-2.9330100">
        <ele>464.1</ele>
        <time>2021-03-01T15:56:01Z</time>
      </trkpt>
      <trkpt lat="36.8131110" lon="-2.9330240">
        <ele>464.7</ele>
        <time>2021-03-01T15:56:02Z</time>
      </trkpt>
      <trkpt lat="36.8130750" lon="-2.9330590">
        <ele>465.3</ele>
        <time>2021-03-01T15:56:03Z</time>
      </trkpt>
      <trkpt lat="36.8130360" lon="-2.9330870">
        <ele>466.0</ele>
        <time>2021-03-01T15:56:04Z</time>
      </trkpt>
      <trkpt lat="36.8129950" lon="-2.9331120">
        <ele>466.6</ele>
        <time>2021-03-01T15:56:05Z</time>
      </trkpt>
      <trkpt lat="36.8129560" lon="-2.9331390">
        <ele>467.3</ele>
        <time>2021-03-01T15:56:06Z</time>
      </trkpt>
      <trkpt lat="36.8129160" lon="-2.9331640">
        <ele>468.0</ele>
        <time>2021-03-01T15:56:07Z</time>
      </trkpt>
      <trkpt lat="36.8128810" lon="-2.9331950">
        <ele>468.7</ele>
        <time>2021-03-01T15:56:08Z</time>
      </trkpt>
      <trkpt lat="36.8128470" lon="-2.9332310">
        <ele>469.4</ele>
        <time>2021-03-01T15:56:09Z</time>
      </trkpt>
      <trkpt lat="36.8128230" lon="-2.9332710">
        <ele>470.0</ele>
        <time>2021-03-01T15:56:10Z</time>
      </trkpt>
      <trkpt lat="36.8128030" lon="-2.9333100">
        <ele>470.6</ele>
        <time>2021-03-01T15:56:11Z</time>
      </trkpt>
      <trkpt lat="36.8127890" lon="-2.9333540">
        <ele>471.3</ele>
        <time>2021-03-01T15:56:12Z</time>
      </trkpt>
      <trkpt lat="36.8127890" lon="-2.9334040">
        <ele>472.0</ele>
        <time>2021-03-01T15:56:13Z</time>
      </trkpt>
      <trkpt lat="36.8127860" lon="-2.9334550">
        <ele>472.7</ele>
        <time>2021-03-01T15:56:14Z</time>
      </trkpt>
      <trkpt lat="36.8127860" lon="-2.9335030">
        <ele>473.3</ele>
        <time>2021-03-01T15:56:15Z</time>
      </trkpt>
      <trkpt lat="36.8127770" lon="-2.9335460">
        <ele>473.9</ele>
        <time>2021-03-01T15:56:16Z</time>
      </trkpt>
      <trkpt lat="36.8127720" lon="-2.9335960">
        <ele>474.5</ele>
        <time>2021-03-01T15:56:17Z</time>
      </trkpt>
      <trkpt lat="36.8127700" lon="-2.9336430">
        <ele>475.1</ele>
        <time>2021-03-01T15:56:18Z</time>
      </trkpt>
      <trkpt lat="36.8127590" lon="-2.9336840">
        <ele>475.6</ele>
        <time>2021-03-01T15:56:19Z</time>
      </trkpt>
      <trkpt lat="36.8127290" lon="-2.9337270">
        <ele>476.3</ele>
        <time>2021-03-01T15:56:20Z</time>
      </trkpt>
      <trkpt lat="36.8126840" lon="-2.9337370">
        <ele>476.9</ele>
        <time>2021-03-01T15:56:21Z</time>
      </trkpt>
      <trkpt lat="36.8126480" lon="-2.9337220">
        <ele>477.4</ele>
        <time>2021-03-01T15:56:22Z</time>
      </trkpt>
      <trkpt lat="36.8126290" lon="-2.9336780">
        <ele>478.0</ele>
        <time>2021-03-01T15:56:23Z</time>
      </trkpt>
      <trkpt lat="36.8126000" lon="-2.9336470">
        <ele>478.5</ele>
        <time>2021-03-01T15:56:24Z</time>
      </trkpt>
      <trkpt lat="36.8125770" lon="-2.9335980">
        <ele>479.0</ele>
        <time>2021-03-01T15:56:25Z</time>
      </trkpt>
      <trkpt lat="36.8125600" lon="-2.9335450">
        <ele>479.6</ele>
        <time>2021-03-01T15:56:26Z</time>
      </trkpt>
      <trkpt lat="36.8125580" lon="-2.9334770">
        <ele>480.3</ele>
        <time>2021-03-01T15:56:27Z</time>
      </trkpt>
      <trkpt lat="36.8125610" lon="-2.9334060">
        <ele>481.0</ele>
        <time>2021-03-01T15:56:28Z</time>
      </trkpt>
      <trkpt lat="36.8125800" lon="-2.9333440">
        <ele>481.6</ele>
        <time>2021-03-01T15:56:29Z</time>
      </trkpt>
      <trkpt lat="36.8125900" lon="-2.9332810">
        <ele>482.2</ele>
        <time>2021-03-01T15:56:30Z</time>
      </trkpt>
      <trkpt lat="36.8125960" lon="-2.9332180">
        <ele>482.8</ele>
        <time>2021-03-01T15:56:31Z</time>
      </trkpt>
      <trkpt lat="36.8126110" lon="-2.9331600">
        <ele>483.5</ele>
        <time>2021-03-01T15:56:32Z</time>
      </trkpt>
      <trkpt lat="36.8126320" lon="-2.9331080">
        <ele>484.0</ele>
        <time>2021-03-01T15:56:33Z</time>
      </trkpt>
      <trkpt lat="36.8126470" lon="-2.9330570">
        <ele>484.6</ele>
        <time>2021-03-01T15:56:34Z</time>
      </trkpt>
      <trkpt lat="36.8126360" lon="-2.9330200">
        <ele>485.0</ele>
        <time>2021-03-01T15:56:35Z</time>
      </trkpt>
      <trkpt lat="36.8126090" lon="-2.9329900">
        <ele>485.5</ele>
        <time>2021-03-01T15:56:36Z</time>
      </trkpt>
      <trkpt lat="36.8125600" lon="-2.9329990">
        <ele>486.1</ele>
        <time>2021-03-01T15:56:37Z</time>
      </trkpt>
      <trkpt lat="36.8125080" lon="-2.9330320">
        <ele>486.9</ele>
        <time>2021-03-01T15:56:38Z</time>
      </trkpt>
      <trkpt lat="36.8124670" lon="-2.9330690">
        <ele>487.5</ele>
        <time>2021-03-01T15:56:39Z</time>
      </trkpt>
      <trkpt lat="36.8124330" lon="-2.9331100">
        <ele>488.1</ele>
        <time>2021-03-01T15:56:40Z</time>
      </trkpt>
      <trkpt lat="36.8123950" lon="-2.9331570">
        <ele>488.7</ele>
        <time>2021-03-01T15:56:41Z</time>
      </trkpt>
      <trkpt lat="36.8123520" lon="-2.9331900">
        <ele>489.3</ele>
        <time>2021-03-01T15:56:42Z</time>
      </trkpt>
      <trkpt lat="36.8123100" lon="-2.9332200">
        <ele>489.8</ele>
        <time>2021-03-01T15:56:43Z</time>
      </trkpt>
      <trkpt lat="36.8122610" lon="-2.9332490">
        <ele>490.5</ele>
        <time>2021-03-01T15:56:44Z</time>
      </trkpt>
      <trkpt lat="36.8122120" lon="-2.9332770">
        <ele>491.1</ele>
        <time>2021-03-01T15:56:45Z</time>
      </trkpt>
      <trkpt lat="36.8121700" lon="-2.9332880">
        <ele>491.6</ele>
        <time>2021-03-01T15:56:46Z</time>
      </trkpt>
      <trkpt lat="36.8121300" lon="-2.9333070">
        <ele>492.0</ele>
        <time>2021-03-01T15:56:47Z</time>
      </trkpt>
      <trkpt lat="36.8120790" lon="-2.9333110">
        <ele>492.6</ele>
        <time>2021-03-01T15:56:48Z</time>
      </trkpt>
      <trkpt lat="36.8120430" lon="-2.9333300">
        <ele>493.0</ele>
        <time>2021-03-01T15:56:49Z</time>
      </trkpt>
      <trkpt lat="36.8120100" lon="-2.9333400">
        <ele>493.4</ele>
        <time>2021-03-01T15:56:50Z</time>
      </trkpt>
      <trkpt lat="36.8119760" lon="-2.9333350">
        <ele>493.8</ele>
        <time>2021-03-01T15:56:51Z</time>
      </trkpt>
      <trkpt lat="36.8119400" lon="-2.9333060">
        <ele>494.3</ele>
        <time>2021-03-01T15:56:52Z</time>
      </trkpt>
      <trkpt lat="36.8119010" lon="-2.9332520">
        <ele>494.9</ele>
        <time>2021-03-01T15:56:53Z</time>
      </trkpt>
      <trkpt lat="36.8118570" lon="-2.9332140">
        <ele>495.5</ele>
        <time>2021-03-01T15:56:54Z</time>
      </trkpt>
      <trkpt lat="36.8118170" lon="-2.9331940">
        <ele>496.0</ele>
        <time>2021-03-01T15:56:55Z</time>
      </trkpt>
      <trkpt lat="36.8117800" lon="-2.9331720">
        <ele>496.5</ele>
        <time>2021-03-01T15:56:56Z</time>
      </trkpt>
      <trkpt lat="36.8117460" lon="-2.9331430">
        <ele>497.0</ele>
        <time>2021-03-01T15:56:57Z</time>
      </trkpt>
      <trkpt lat="36.8117150" lon="-2.9331080">
        <ele>497.5</ele>
        <time>2021-03-01T15:56:58Z</time>
      </trkpt>
      <trkpt lat="36.8116890" lon="-2.9330540">
        <ele>498.1</ele>
        <time>2021-03-01T15:56:59Z</time>
      </trkpt>
      <trkpt lat="36.8116760" lon="-2.9329970">
        <ele>498.7</ele>
        <time>2021-03-01T15:57:00Z</time>
      </trkpt>
      <trkpt lat="36.8116550" lon="-2.9329410">
        <ele>499.2</ele>
        <time>2021-03-01T15:57:01Z</time>
      </trkpt>
      <trkpt lat="36.8116330" lon="-2.9328860">
        <ele>499.8</ele>
        <time>2021-03-01T15:57:02Z</time>
      </trkpt>
      <trkpt lat="36.8116200" lon="-2.9328210">
        <ele>500.4</ele>
        <time>2021-03-01T15:57:03Z</time>
      </trkpt>
      <trkpt lat="36.8116080" lon="-2.9327510">
        <ele>501.0</ele>
        <time>2021-03-01T15:57:04Z</time>
      </trkpt>
      <trkpt lat="36.8115920" lon="-2.9326850">
        <ele>501.6</ele>
        <time>2021-03-01T15:57:05Z</time>
      </trkpt>
      <trkpt lat="36.8115840" lon="-2.9326260">
        <ele>502.1</ele>
        <time>2021-03-01T15:57:06Z</time>
      </trkpt>
      <trkpt lat="36.8115710" lon="-2.9325690">
        <ele>502.5</ele>
        <time>2021-03-01T15:57:07Z</time>
      </trkpt>
      <trkpt lat="36.8115490" lon="-2.9325200">
        <ele>502.8</ele>
        <time>2021-03-01T15:57:08Z</time>
      </trkpt>
      <trkpt lat="36.8115170" lon="-2.9324730">
        <ele>503.2</ele>
        <time>2021-03-01T15:57:09Z</time>
      </trkpt>
      <trkpt lat="36.8114740" lon="-2.9324290">
        <ele>503.4</ele>
        <time>2021-03-01T15:57:10Z</time>
      </trkpt>
      <trkpt lat="36.8114240" lon="-2.9323810">
        <ele>503.7</ele>
        <time>2021-03-01T15:57:11Z</time>
      </trkpt>
      <trkpt lat="36.8113730" lon="-2.9323160">
        <ele>503.9</ele>
        <time>2021-03-01T15:57:12Z</time>
      </trkpt>
      <trkpt lat="36.8113310" lon="-2.9322550">
        <ele>504.0</ele>
        <time>2021-03-01T15:57:13Z</time>
      </trkpt>
      <trkpt lat="36.8112950" lon="-2.9321690">
        <ele>504.2</ele>
        <time>2021-03-01T15:57:14Z</time>
      </trkpt>
      <trkpt lat="36.8112500" lon="-2.9320800">
        <ele>504.4</ele>
        <time>2021-03-01T15:57:15Z</time>
      </trkpt>
      <trkpt lat="36.8112050" lon="-2.9319810">
        <ele>504.7</ele>
        <time>2021-03-01T15:57:16Z</time>
      </trkpt>
      <trkpt lat="36.8111510" lon="-2.9318640">
        <ele>505.2</ele>
        <time>2021-03-01T15:57:17Z</time>
      </trkpt>
      <trkpt lat="36.8111160" lon="-2.9317610">
        <ele>505.7</ele>
        <time>2021-03-01T15:57:18Z</time>
      </trkpt>
      <trkpt lat="36.8111040" lon="-2.9316760">
        <ele>506.0</ele>
        <time>2021-03-01T15:57:19Z</time>
      </trkpt>
      <trkpt lat="36.8111100" lon="-2.9316240">
        <ele>506.3</ele>
        <time>2021-03-01T15:57:20Z</time>
      </trkpt>
      <trkpt lat="36.8111200" lon="-2.9315560">
        <ele>506.6</ele>
        <time>2021-03-01T15:57:21Z</time>
      </trkpt>
      <trkpt lat="36.8111220" lon="-2.9315060">
        <ele>506.8</ele>
        <time>2021-03-01T15:57:22Z</time>
      </trkpt>
      <trkpt lat="36.8111240" lon="-2.9314360">
        <ele>507.1</ele>
        <time>2021-03-01T15:57:23Z</time>
      </trkpt>
      <trkpt lat="36.8111220" lon="-2.9313710">
        <ele>507.5</ele>
        <time>2021-03-01T15:57:24Z</time>
      </trkpt>
      <trkpt lat="36.8111300" lon="-2.9313020">
        <ele>507.8</ele>
        <time>2021-03-01T15:57:25Z</time>
      </trkpt>
      <trkpt lat="36.8111340" lon="-2.9312430">
        <ele>508.1</ele>
        <time>2021-03-01T15:57:26Z</time>
      </trkpt>
      <trkpt lat="36.8111360" lon="-2.9311910">
        <ele>508.3</ele>
        <time>2021-03-01T15:57:27Z</time>
      </trkpt>
      <trkpt lat="36.8111390" lon="-2.9311490">
        <ele>508.5</ele>
        <time>2021-03-01T15:57:28Z</time>
      </trkpt>
      <trkpt lat="36.8111080" lon="-2.9311020">
        <ele>508.8</ele>
        <time>2021-03-01T15:57:29Z</time>
      </trkpt>
      <trkpt lat="36.8110950" lon="-2.9310580">
        <ele>509.0</ele>
        <time>2021-03-01T15:57:30Z</time>
      </trkpt>
      <trkpt lat="36.8110560" lon="-2.9310190">
        <ele>509.3</ele>
        <time>2021-03-01T15:57:31Z</time>
      </trkpt>
      <trkpt lat="36.8110150" lon="-2.9309820">
        <ele>509.5</ele>
        <time>2021-03-01T15:57:32Z</time>
      </trkpt>
      <trkpt lat="36.8109780" lon="-2.9309460">
        <ele>509.6</ele>
        <time>2021-03-01T15:57:33Z</time>
      </trkpt>
      <trkpt lat="36.8109370" lon="-2.9309040">
        <ele>509.8</ele>
        <time>2021-03-01T15:57:34Z</time>
      </trkpt>
      <trkpt lat="36.8109110" lon="-2.9308760">
        <ele>509.9</ele>
        <time>2021-03-01T15:57:35Z</time>
      </trkpt>
      <trkpt lat="36.8108820" lon="-2.9308460">
        <ele>510.0</ele>
        <time>2021-03-01T15:57:36Z</time>
      </trkpt>
      <trkpt lat="36.8108460" lon="-2.9308030">
        <ele>510.1</ele>
        <time>2021-03-01T15:57:37Z</time>
      </trkpt>
      <trkpt lat="36.8108150" lon="-2.9307560">
        <ele>510.2</ele>
        <time>2021-03-01T15:57:38Z</time>
      </trkpt>
      <trkpt lat="36.8107790" lon="-2.9306990">
        <ele>510.4</ele>
        <time>2021-03-01T15:57:39Z</time>
      </trkpt>
      <trkpt lat="36.8107450" lon="-2.9306570">
        <ele>510.5</ele>
        <time>2021-03-01T15:57:40Z</time>
      </trkpt>
      <trkpt lat="36.8107190" lon="-2.9306110">
        <ele>510.7</ele>
        <time>2021-03-01T15:57:41Z</time>
      </trkpt>
      <trkpt lat="36.8106920" lon="-2.9305730">
        <ele>510.8</ele>
        <time>2021-03-01T15:57:42Z</time>
      </trkpt>
      <trkpt lat="36.8106500" lon="-2.9305190">
        <ele>511.0</ele>
        <time>2021-03-01T15:57:43Z</time>
      </trkpt>
      <trkpt lat="36.8106300" lon="-2.9304890">
        <ele>511.1</ele>
        <time>2021-03-01T15:57:44Z</time>
      </trkpt>
      <trkpt lat="36.8105950" lon="-2.9304460">
        <ele>511.3</ele>
        <time>2021-03-01T15:57:45Z</time>
      </trkpt>
      <trkpt lat="36.8105590" lon="-2.9304110">
        <ele>511.4</ele>
        <time>2021-03-01T15:57:46Z</time>
      </trkpt>
      <trkpt lat="36.8105170" lon="-2.9303680">
        <ele>511.6</ele>
        <time>2021-03-01T15:57:47Z</time>
      </trkpt>
      <trkpt lat="36.8104670" lon="-2.9303300">
        <ele>511.7</ele>
        <time>2021-03-01T15:57:48Z</time>
      </trkpt>
      <trkpt lat="36.8104280" lon="-2.9303100">
        <ele>511.8</ele>
        <time>2021-03-01T15:57:49Z</time>
      </trkpt>
      <trkpt lat="36.8103790" lon="-2.9303010">
        <ele>512.0</ele>
        <time>2021-03-01T15:57:50Z</time>
      </trkpt>
      <trkpt lat="36.8103460" lon="-2.9302960">
        <ele>512.1</ele>
        <time>2021-03-01T15:57:51Z</time>
      </trkpt>
      <trkpt lat="36.8103150" lon="-2.9303050">
        <ele>512.2</ele>
        <time>2021-03-01T15:57:52Z</time>
      </trkpt>
      <trkpt lat="36.8102800" lon="-2.9303210">
        <ele>512.4</ele>
        <time>2021-03-01T15:57:53Z</time>
      </trkpt>
      <trkpt lat="36.8102440" lon="-2.9303360">
        <ele>512.6</ele>
        <time>2021-03-01T15:57:54Z</time>
      </trkpt>
      <trkpt lat="36.8101930" lon="-2.9303330">
        <ele>512.8</ele>
        <time>2021-03-01T15:57:55Z</time>
      </trkpt>
      <trkpt lat="36.8101570" lon="-2.9303320">
        <ele>513.0</ele>
        <time>2021-03-01T15:57:56Z</time>
      </trkpt>
      <trkpt lat="36.8101210" lon="-2.9303200">
        <ele>513.2</ele>
        <time>2021-03-01T15:57:57Z</time>
      </trkpt>
      <trkpt lat="36.8101000" lon="-2.9302860">
        <ele>513.4</ele>
        <time>2021-03-01T15:57:58Z</time>
      </trkpt>
      <trkpt lat="36.8100750" lon="-2.9302450">
        <ele>521.2</ele>
        <time>2021-03-02T08:25:16Z</time>
      </trkpt>
      <trkpt lat="36.8100680" lon="-2.9302310">
        <ele>521.6</ele>
        <time>2021-03-02T08:25:17Z</time>
      </trkpt>
      <trkpt lat="36.8100610" lon="-2.9302150">
        <ele>521.8</ele>
        <time>2021-03-02T08:25:18Z</time>
      </trkpt>
      <trkpt lat="36.8100540" lon="-2.9301970">
        <ele>522.0</ele>
        <time>2021-03-02T08:25:19Z</time>
      </trkpt>
      <trkpt lat="36.8100480" lon="-2.9301740">
        <ele>522.0</ele>
        <time>2021-03-02T08:25:20Z</time>
      </trkpt>
      <trkpt lat="36.8100400" lon="-2.9301510">
        <ele>522.0</ele>
        <time>2021-03-02T08:25:21Z</time>
      </trkpt>
      <trkpt lat="36.8100310" lon="-2.9301300">
        <ele>522.2</ele>
        <time>2021-03-02T08:25:22Z</time>
      </trkpt>
      <trkpt lat="36.8100190" lon="-2.9301100">
        <ele>522.4</ele>
        <time>2021-03-02T08:25:23Z</time>
      </trkpt>
      <trkpt lat="36.8100060" lon="-2.9300910">
        <ele>522.4</ele>
        <time>2021-03-02T08:25:24Z</time>
      </trkpt>
      <trkpt lat="36.8099910" lon="-2.9300830">
        <ele>522.6</ele>
        <time>2021-03-02T08:25:25Z</time>
      </trkpt>
      <trkpt lat="36.8099760" lon="-2.9300880">
        <ele>522.8</ele>
        <time>2021-03-02T08:25:26Z</time>
      </trkpt>
      <trkpt lat="36.8099610" lon="-2.9301020">
        <ele>522.8</ele>
        <time>2021-03-02T08:25:27Z</time>
      </trkpt>
      <trkpt lat="36.8099490" lon="-2.9301230">
        <ele>522.8</ele>
        <time>2021-03-02T08:25:28Z</time>
      </trkpt>
      <trkpt lat="36.8099370" lon="-2.9301500">
        <ele>522.8</ele>
        <time>2021-03-02T08:25:29Z</time>
      </trkpt>
      <trkpt lat="36.8099310" lon="-2.9301850">
        <ele>522.8</ele>
        <time>2021-03-02T08:25:30Z</time>
      </trkpt>
      <trkpt lat="36.8099280" lon="-2.9302230">
        <ele>522.8</ele>
        <time>2021-03-02T08:25:31Z</time>
      </trkpt>
      <trkpt lat="36.8099240" lon="-2.9302660">
        <ele>522.6</ele>
        <time>2021-03-02T08:25:32Z</time>
      </trkpt>
      <trkpt lat="36.8099180" lon="-2.9303100">
        <ele>522.6</ele>
        <time>2021-03-02T08:25:33Z</time>
      </trkpt>
      <trkpt lat="36.8099100" lon="-2.9303590">
        <ele>522.4</ele>
        <time>2021-03-02T08:25:34Z</time>
      </trkpt>
      <trkpt lat="36.8099020" lon="-2.9304100">
        <ele>522.4</ele>
        <time>2021-03-02T08:25:35Z</time>
      </trkpt>
      <trkpt lat="36.8098930" lon="-2.9304560">
        <ele>522.4</ele>
        <time>2021-03-02T08:25:36Z</time>
      </trkpt>
      <trkpt lat="36.8098820" lon="-2.9305010">
        <ele>522.4</ele>
        <time>2021-03-02T08:25:37Z</time>
      </trkpt>
      <trkpt lat="36.8098650" lon="-2.9305440">
        <ele>522.4</ele>
        <time>2021-03-02T08:25:38Z</time>
      </trkpt>
      <trkpt lat="36.8098440" lon="-2.9305870">
        <ele>522.4</ele>
        <time>2021-03-02T08:25:39Z</time>
      </trkpt>
      <trkpt lat="36.8098220" lon="-2.9306330">
        <ele>522.4</ele>
        <time>2021-03-02T08:25:40Z</time>
      </trkpt>
      <trkpt lat="36.8098010" lon="-2.9306770">
        <ele>522.4</ele>
        <time>2021-03-02T08:25:41Z</time>
      </trkpt>
      <trkpt lat="36.8097830" lon="-2.9307180">
        <ele>522.4</ele>
        <time>2021-03-02T08:25:42Z</time>
      </trkpt>
      <trkpt lat="36.8097680" lon="-2.9307500">
        <ele>522.6</ele>
        <time>2021-03-02T08:25:43Z</time>
      </trkpt>
      <trkpt lat="36.8097560" lon="-2.9307790">
        <ele>523.0</ele>
        <time>2021-03-02T08:25:44Z</time>
      </trkpt>
      <trkpt lat="36.8097430" lon="-2.9308060">
        <ele>523.2</ele>
        <time>2021-03-02T08:25:45Z</time>
      </trkpt>
      <trkpt lat="36.8097280" lon="-2.9308380">
        <ele>523.4</ele>
        <time>2021-03-02T08:25:46Z</time>
      </trkpt>
      <trkpt lat="36.8097090" lon="-2.9308780">
        <ele>523.6</ele>
        <time>2021-03-02T08:25:47Z</time>
      </trkpt>
      <trkpt lat="36.8096880" lon="-2.9309220">
        <ele>523.6</ele>
        <time>2021-03-02T08:25:48Z</time>
      </trkpt>
      <trkpt lat="36.8096650" lon="-2.9309680">
        <ele>523.4</ele>
        <time>2021-03-02T08:25:49Z</time>
      </trkpt>
      <trkpt lat="36.8096410" lon="-2.9310180">
        <ele>523.4</ele>
        <time>2021-03-02T08:25:50Z</time>
      </trkpt>
      <trkpt lat="36.8096190" lon="-2.9310740">
        <ele>523.0</ele>
        <time>2021-03-02T08:25:51Z</time>
      </trkpt>
      <trkpt lat="36.8095990" lon="-2.9311370">
        <ele>522.8</ele>
        <time>2021-03-02T08:25:52Z</time>
      </trkpt>
      <trkpt lat="36.8095850" lon="-2.9312090">
        <ele>522.6</ele>
        <time>2021-03-02T08:25:53Z</time>
      </trkpt>
      <trkpt lat="36.8095780" lon="-2.9312860">
        <ele>522.2</ele>
        <time>2021-03-02T08:25:54Z</time>
      </trkpt>
      <trkpt lat="36.8095740" lon="-2.9313660">
        <ele>522.0</ele>
        <time>2021-03-02T08:25:55Z</time>
      </trkpt>
      <trkpt lat="36.8095700" lon="-2.9314490">
        <ele>521.4</ele>
        <time>2021-03-02T08:25:56Z</time>
      </trkpt>
      <trkpt lat="36.8095660" lon="-2.9315340">
        <ele>521.2</ele>
        <time>2021-03-02T08:25:57Z</time>
      </trkpt>
      <trkpt lat="36.8095590" lon="-2.9316210">
        <ele>520.6</ele>
        <time>2021-03-02T08:25:58Z</time>
      </trkpt>
      <trkpt lat="36.8095480" lon="-2.9317090">
        <ele>520.2</ele>
        <time>2021-03-02T08:25:59Z</time>
      </trkpt>
      <trkpt lat="36.8095330" lon="-2.9317960">
        <ele>520.0</ele>
        <time>2021-03-02T08:26:00Z</time>
      </trkpt>
      <trkpt lat="36.8095150" lon="-2.9318830">
        <ele>519.4</ele>
        <time>2021-03-02T08:26:01Z</time>
      </trkpt>
      <trkpt lat="36.8094930" lon="-2.9319700">
        <ele>519.0</ele>
        <time>2021-03-02T08:26:02Z</time>
      </trkpt>
      <trkpt lat="36.8094680" lon="-2.9320530">
        <ele>518.6</ele>
        <time>2021-03-02T08:26:03Z</time>
      </trkpt>
      <trkpt lat="36.8094390" lon="-2.9321350">
        <ele>518.2</ele>
        <time>2021-03-02T08:26:04Z</time>
      </trkpt>
      <trkpt lat="36.8094040" lon="-2.9322120">
        <ele>518.0</ele>
        <time>2021-03-02T08:26:05Z</time>
      </trkpt>
      <trkpt lat="36.8093640" lon="-2.9322840">
        <ele>517.6</ele>
        <time>2021-03-02T08:26:06Z</time>
      </trkpt>
      <trkpt lat="36.8093220" lon="-2.9323530">
        <ele>517.6</ele>
        <time>2021-03-02T08:26:07Z</time>
      </trkpt>
      <trkpt lat="36.8092760" lon="-2.9324190">
        <ele>517.2</ele>
        <time>2021-03-02T08:26:08Z</time>
      </trkpt>
      <trkpt lat="36.8092230" lon="-2.9324800">
        <ele>517.2</ele>
        <time>2021-03-02T08:26:09Z</time>
      </trkpt>
      <trkpt lat="36.8091640" lon="-2.9325280">
        <ele>516.8</ele>
        <time>2021-03-02T08:26:10Z</time>
      </trkpt>
      <trkpt lat="36.8090990" lon="-2.9325640">
        <ele>516.6</ele>
        <time>2021-03-02T08:26:11Z</time>
      </trkpt>
      <trkpt lat="36.8090340" lon="-2.9325850">
        <ele>516.6</ele>
        <time>2021-03-02T08:26:12Z</time>
      </trkpt>
      <trkpt lat="36.8089700" lon="-2.9325950">
        <ele>516.6</ele>
        <time>2021-03-02T08:26:13Z</time>
      </trkpt>
      <trkpt lat="36.8089100" lon="-2.9325990">
        <ele>516.8</ele>
        <time>2021-03-02T08:26:14Z</time>
      </trkpt>
      <trkpt lat="36.8088540" lon="-2.9325990">
        <ele>517.0</ele>
        <time>2021-03-02T08:26:15Z</time>
      </trkpt>
      <trkpt lat="36.8088010" lon="-2.9325950">
        <ele>517.2</ele>
        <time>2021-03-02T08:26:16Z</time>
      </trkpt>
      <trkpt lat="36.8087510" lon="-2.9325910">
        <ele>517.6</ele>
        <time>2021-03-02T08:26:17Z</time>
      </trkpt>
      <trkpt lat="36.8087020" lon="-2.9325900">
        <ele>517.8</ele>
        <time>2021-03-02T08:26:18Z</time>
      </trkpt>
      <trkpt lat="36.8086550" lon="-2.9325900">
        <ele>518.0</ele>
        <time>2021-03-02T08:26:19Z</time>
      </trkpt>
      <trkpt lat="36.8086080" lon="-2.9325910">
        <ele>518.0</ele>
        <time>2021-03-02T08:26:20Z</time>
      </trkpt>
      <trkpt lat="36.8085610" lon="-2.9325970">
        <ele>518.2</ele>
        <time>2021-03-02T08:26:21Z</time>
      </trkpt>
      <trkpt lat="36.8085130" lon="-2.9326040">
        <ele>518.2</ele>
        <time>2021-03-02T08:26:22Z</time>
      </trkpt>
      <trkpt lat="36.8084670" lon="-2.9326110">
        <ele>518.2</ele>
        <time>2021-03-02T08:26:23Z</time>
      </trkpt>
      <trkpt lat="36.8084200" lon="-2.9326230">
        <ele>518.2</ele>
        <time>2021-03-02T08:26:24Z</time>
      </trkpt>
      <trkpt lat="36.8083720" lon="-2.9326430">
        <ele>518.2</ele>
        <time>2021-03-02T08:26:25Z</time>
      </trkpt>
      <trkpt lat="36.8083280" lon="-2.9326710">
        <ele>518.2</ele>
        <time>2021-03-02T08:26:26Z</time>
      </trkpt>
      <trkpt lat="36.8082870" lon="-2.9327050">
        <ele>518.4</ele>
        <time>2021-03-02T08:26:27Z</time>
      </trkpt>
      <trkpt lat="36.8082470" lon="-2.9327360">
        <ele>518.4</ele>
        <time>2021-03-02T08:26:28Z</time>
      </trkpt>
      <trkpt lat="36.8082090" lon="-2.9327520">
        <ele>518.6</ele>
        <time>2021-03-02T08:26:29Z</time>
      </trkpt>
      <trkpt lat="36.8081720" lon="-2.9327560">
        <ele>518.8</ele>
        <time>2021-03-02T08:26:30Z</time>
      </trkpt>
      <trkpt lat="36.8081380" lon="-2.9327500">
        <ele>519.0</ele>
        <time>2021-03-02T08:26:31Z</time>
      </trkpt>
      <trkpt lat="36.8081070" lon="-2.9327360">
        <ele>519.4</ele>
        <time>2021-03-02T08:26:32Z</time>
      </trkpt>
      <trkpt lat="36.8080800" lon="-2.9327190">
        <ele>519.4</ele>
        <time>2021-03-02T08:26:33Z</time>
      </trkpt>
      <trkpt lat="36.8080550" lon="-2.9326990">
        <ele>519.8</ele>
        <time>2021-03-02T08:26:34Z</time>
      </trkpt>
      <trkpt lat="36.8080320" lon="-2.9326790">
        <ele>519.8</ele>
        <time>2021-03-02T08:26:35Z</time>
      </trkpt>
      <trkpt lat="36.8080080" lon="-2.9326570">
        <ele>520.0</ele>
        <time>2021-03-02T08:26:36Z</time>
      </trkpt>
      <trkpt lat="36.8079840" lon="-2.9326290">
        <ele>520.4</ele>
        <time>2021-03-02T08:26:37Z</time>
      </trkpt>
      <trkpt lat="36.8079610" lon="-2.9325950">
        <ele>520.4</ele>
        <time>2021-03-02T08:26:38Z</time>
      </trkpt>
      <trkpt lat="36.8079370" lon="-2.9325570">
        <ele>520.6</ele>
        <time>2021-03-02T08:26:39Z</time>
      </trkpt>
      <trkpt lat="36.8079100" lon="-2.9325210">
        <ele>520.6</ele>
        <time>2021-03-02T08:26:40Z</time>
      </trkpt>
      <trkpt lat="36.8078810" lon="-2.9324900">
        <ele>520.6</ele>
        <time>2021-03-02T08:26:41Z</time>
      </trkpt>
      <trkpt lat="36.8078520" lon="-2.9324620">
        <ele>520.8</ele>
        <time>2021-03-02T08:26:42Z</time>
      </trkpt>
      <trkpt lat="36.8078230" lon="-2.9324360">
        <ele>521.0</ele>
        <time>2021-03-02T08:26:43Z</time>
      </trkpt>
      <trkpt lat="36.8077940" lon="-2.9324140">
        <ele>521.2</ele>
        <time>2021-03-02T08:26:44Z</time>
      </trkpt>
      <trkpt lat="36.8077650" lon="-2.9323930">
        <ele>521.4</ele>
        <time>2021-03-02T08:26:45Z</time>
      </trkpt>
      <trkpt lat="36.8077360" lon="-2.9323710">
        <ele>521.6</ele>
        <time>2021-03-02T08:26:46Z</time>
      </trkpt>
      <trkpt lat="36.8077040" lon="-2.9323530">
        <ele>521.8</ele>
        <time>2021-03-02T08:26:47Z</time>
      </trkpt>
      <trkpt lat="36.8076700" lon="-2.9323400">
        <ele>522.0</ele>
        <time>2021-03-02T08:26:48Z</time>
      </trkpt>
      <trkpt lat="36.8076370" lon="-2.9323330">
        <ele>522.2</ele>
        <time>2021-03-02T08:26:49Z</time>
      </trkpt>
      <trkpt lat="36.8076030" lon="-2.9323310">
        <ele>522.4</ele>
        <time>2021-03-02T08:26:50Z</time>
      </trkpt>
      <trkpt lat="36.8075710" lon="-2.9323320">
        <ele>522.6</ele>
        <time>2021-03-02T08:26:51Z</time>
      </trkpt>
      <trkpt lat="36.8075380" lon="-2.9323340">
        <ele>522.6</ele>
        <time>2021-03-02T08:26:52Z</time>
      </trkpt>
      <trkpt lat="36.8075060" lon="-2.9323330">
        <ele>522.8</ele>
        <time>2021-03-02T08:26:53Z</time>
      </trkpt>
      <trkpt lat="36.8074750" lon="-2.9323270">
        <ele>522.8</ele>
        <time>2021-03-02T08:26:54Z</time>
      </trkpt>
      <trkpt lat="36.8074440" lon="-2.9323180">
        <ele>523.0</ele>
        <time>2021-03-02T08:26:55Z</time>
      </trkpt>
      <trkpt lat="36.8074120" lon="-2.9323090">
        <ele>523.2</ele>
        <time>2021-03-02T08:26:56Z</time>
      </trkpt>
      <trkpt lat="36.8073810" lon="-2.9323010">
        <ele>523.4</ele>
        <time>2021-03-02T08:26:57Z</time>
      </trkpt>
      <trkpt lat="36.8073500" lon="-2.9322920">
        <ele>523.6</ele>
        <time>2021-03-02T08:26:58Z</time>
      </trkpt>
      <trkpt lat="36.8073200" lon="-2.9322820">
        <ele>523.8</ele>
        <time>2021-03-02T08:26:59Z</time>
      </trkpt>
      <trkpt lat="36.8072900" lon="-2.9322710">
        <ele>523.8</ele>
        <time>2021-03-02T08:27:00Z</time>
      </trkpt>
      <trkpt lat="36.8072600" lon="-2.9322560">
        <ele>524.0</ele>
        <time>2021-03-02T08:27:01Z</time>
      </trkpt>
      <trkpt lat="36.8072290" lon="-2.9322420">
        <ele>524.0</ele>
        <time>2021-03-02T08:27:02Z</time>
      </trkpt>
      <trkpt lat="36.8071950" lon="-2.9322300">
        <ele>524.0</ele>
        <time>2021-03-02T08:27:03Z</time>
      </trkpt>
      <trkpt lat="36.8071610" lon="-2.9322200">
        <ele>524.2</ele>
        <time>2021-03-02T08:27:04Z</time>
      </trkpt>
      <trkpt lat="36.8071250" lon="-2.9322140">
        <ele>524.2</ele>
        <time>2021-03-02T08:27:05Z</time>
      </trkpt>
      <trkpt lat="36.8070870" lon="-2.9322050">
        <ele>524.2</ele>
        <time>2021-03-02T08:27:06Z</time>
      </trkpt>
      <trkpt lat="36.8070480" lon="-2.9321910">
        <ele>524.2</ele>
        <time>2021-03-02T08:27:07Z</time>
      </trkpt>
      <trkpt lat="36.8070080" lon="-2.9321770">
        <ele>524.0</ele>
        <time>2021-03-02T08:27:08Z</time>
      </trkpt>
      <trkpt lat="36.8069660" lon="-2.9321630">
        <ele>524.0</ele>
        <time>2021-03-02T08:27:09Z</time>
      </trkpt>
      <trkpt lat="36.8069220" lon="-2.9321480">
        <ele>523.8</ele>
        <time>2021-03-02T08:27:10Z</time>
      </trkpt>
      <trkpt lat="36.8068790" lon="-2.9321290">
        <ele>524.0</ele>
        <time>2021-03-02T08:27:11Z</time>
      </trkpt>
      <trkpt lat="36.8068340" lon="-2.9321100">
        <ele>524.0</ele>
        <time>2021-03-02T08:27:12Z</time>
      </trkpt>
      <trkpt lat="36.8067880" lon="-2.9320940">
        <ele>524.0</ele>
        <time>2021-03-02T08:27:13Z</time>
      </trkpt>
      <trkpt lat="36.8067430" lon="-2.9320770">
        <ele>523.8</ele>
        <time>2021-03-02T08:27:14Z</time>
      </trkpt>
      <trkpt lat="36.8066970" lon="-2.9320600">
        <ele>523.6</ele>
        <time>2021-03-02T08:27:15Z</time>
      </trkpt>
      <trkpt lat="36.8066510" lon="-2.9320430">
        <ele>523.6</ele>
        <time>2021-03-02T08:27:16Z</time>
      </trkpt>
      <trkpt lat="36.8066050" lon="-2.9320230">
        <ele>523.4</ele>
        <time>2021-03-02T08:27:17Z</time>
      </trkpt>
      <trkpt lat="36.8065580" lon="-2.9320000">
        <ele>523.4</ele>
        <time>2021-03-02T08:27:18Z</time>
      </trkpt>
      <trkpt lat="36.8065130" lon="-2.9319770">
        <ele>523.2</ele>
        <time>2021-03-02T08:27:19Z</time>
      </trkpt>
      <trkpt lat="36.8064700" lon="-2.9319470">
        <ele>523.0</ele>
        <time>2021-03-02T08:27:20Z</time>
      </trkpt>
      <trkpt lat="36.8064260" lon="-2.9319140">
        <ele>523.0</ele>
        <time>2021-03-02T08:27:21Z</time>
      </trkpt>
      <trkpt lat="36.8063810" lon="-2.9318780">
        <ele>522.8</ele>
        <time>2021-03-02T08:27:22Z</time>
      </trkpt>
      <trkpt lat="36.8063350" lon="-2.9318380">
        <ele>522.8</ele>
        <time>2021-03-02T08:27:23Z</time>
      </trkpt>
      <trkpt lat="36.8062860" lon="-2.9317990">
        <ele>522.6</ele>
        <time>2021-03-02T08:27:24Z</time>
      </trkpt>
      <trkpt lat="36.8062350" lon="-2.9317630">
        <ele>522.6</ele>
        <time>2021-03-02T08:27:25Z</time>
      </trkpt>
      <trkpt lat="36.8061800" lon="-2.9317310">
        <ele>522.4</ele>
        <time>2021-03-02T08:27:26Z</time>
      </trkpt>
      <trkpt lat="36.8061220" lon="-2.9317070">
        <ele>522.4</ele>
        <time>2021-03-02T08:27:27Z</time>
      </trkpt>
      <trkpt lat="36.8060630" lon="-2.9316890">
        <ele>522.4</ele>
        <time>2021-03-02T08:27:28Z</time>
      </trkpt>
      <trkpt lat="36.8060030" lon="-2.9316790">
        <ele>522.4</ele>
        <time>2021-03-02T08:27:29Z</time>
      </trkpt>
      <trkpt lat="36.8059430" lon="-2.9316750">
        <ele>522.4</ele>
        <time>2021-03-02T08:27:30Z</time>
      </trkpt>
      <trkpt lat="36.8058840" lon="-2.9316750">
        <ele>522.4</ele>
        <time>2021-03-02T08:27:31Z</time>
      </trkpt>
      <trkpt lat="36.8058270" lon="-2.9316780">
        <ele>522.4</ele>
        <time>2021-03-02T08:27:32Z</time>
      </trkpt>
      <trkpt lat="36.8057700" lon="-2.9316850">
        <ele>522.4</ele>
        <time>2021-03-02T08:27:33Z</time>
      </trkpt>
      <trkpt lat="36.8057130" lon="-2.9316940">
        <ele>522.4</ele>
        <time>2021-03-02T08:27:34Z</time>
      </trkpt>
      <trkpt lat="36.8056560" lon="-2.9317030">
        <ele>522.4</ele>
        <time>2021-03-02T08:27:35Z</time>
      </trkpt>
      <trkpt lat="36.8055990" lon="-2.9317050">
        <ele>522.2</ele>
        <time>2021-03-02T08:27:36Z</time>
      </trkpt>
      <trkpt lat="36.8055430" lon="-2.9316980">
        <ele>522.2</ele>
        <time>2021-03-02T08:27:37Z</time>
      </trkpt>
      <trkpt lat="36.8054900" lon="-2.9316870">
        <ele>522.2</ele>
        <time>2021-03-02T08:27:38Z</time>
      </trkpt>
      <trkpt lat="36.8054400" lon="-2.9316740">
        <ele>522.4</ele>
        <time>2021-03-02T08:27:39Z</time>
      </trkpt>
      <trkpt lat="36.8053910" lon="-2.9316630">
        <ele>522.6</ele>
        <time>2021-03-02T08:27:40Z</time>
      </trkpt>
      <trkpt lat="36.8053440" lon="-2.9316530">
        <ele>522.8</ele>
        <time>2021-03-02T08:27:41Z</time>
      </trkpt>
      <trkpt lat="36.8052990" lon="-2.9316380">
        <ele>522.8</ele>
        <time>2021-03-02T08:27:42Z</time>
      </trkpt>
      <trkpt lat="36.8052580" lon="-2.9316130">
        <ele>523.0</ele>
        <time>2021-03-02T08:27:43Z</time>
      </trkpt>
      <trkpt lat="36.8052230" lon="-2.9315790">
        <ele>523.2</ele>
        <time>2021-03-02T08:27:44Z</time>
      </trkpt>
      <trkpt lat="36.8051920" lon="-2.9315380">
        <ele>523.4</ele>
        <time>2021-03-02T08:27:45Z</time>
      </trkpt>
      <trkpt lat="36.8051620" lon="-2.9314930">
        <ele>523.6</ele>
        <time>2021-03-02T08:27:46Z</time>
      </trkpt>
      <trkpt lat="36.8051330" lon="-2.9314440">
        <ele>523.4</ele>
        <time>2021-03-02T08:27:47Z</time>
      </trkpt>
      <trkpt lat="36.8051000" lon="-2.9313960">
        <ele>523.4</ele>
        <time>2021-03-02T08:27:48Z</time>
      </trkpt>
      <trkpt lat="36.8050680" lon="-2.9313480">
        <ele>523.4</ele>
        <time>2021-03-02T08:27:49Z</time>
      </trkpt>
      <trkpt lat="36.8050380" lon="-2.9312960">
        <ele>523.4</ele>
        <time>2021-03-02T08:27:50Z</time>
      </trkpt>
      <trkpt lat="36.8050090" lon="-2.9312440">
        <ele>523.4</ele>
        <time>2021-03-02T08:27:51Z</time>
      </trkpt>
      <trkpt lat="36.8049800" lon="-2.9311940">
        <ele>523.4</ele>
        <time>2021-03-02T08:27:52Z</time>
      </trkpt>
      <trkpt lat="36.8049490" lon="-2.9311440">
        <ele>523.2</ele>
        <time>2021-03-02T08:27:53Z</time>
      </trkpt>
      <trkpt lat="36.8049170" lon="-2.9310940">
        <ele>523.2</ele>
        <time>2021-03-02T08:27:54Z</time>
      </trkpt>
      <trkpt lat="36.8048850" lon="-2.9310410">
        <ele>523.0</ele>
        <time>2021-03-02T08:27:55Z</time>
      </trkpt>
      <trkpt lat="36.8048540" lon="-2.9309860">
        <ele>522.8</ele>
        <time>2021-03-02T08:27:56Z</time>
      </trkpt>
      <trkpt lat="36.8048230" lon="-2.9309300">
        <ele>522.8</ele>
        <time>2021-03-02T08:27:57Z</time>
      </trkpt>
      <trkpt lat="36.8047960" lon="-2.9308680">
        <ele>522.6</ele>
        <time>2021-03-02T08:27:58Z</time>
      </trkpt>
      <trkpt lat="36.8047720" lon="-2.9308010">
        <ele>522.4</ele>
        <time>2021-03-02T08:27:59Z</time>
      </trkpt>
      <trkpt lat="36.8047500" lon="-2.9307310">
        <ele>522.0</ele>
        <time>2021-03-02T08:28:00Z</time>
      </trkpt>
      <trkpt lat="36.8047290" lon="-2.9306590">
        <ele>522.0</ele>
        <time>2021-03-02T08:28:01Z</time>
      </trkpt>
      <trkpt lat="36.8047040" lon="-2.9305880">
        <ele>521.8</ele>
        <time>2021-03-02T08:28:02Z</time>
      </trkpt>
      <trkpt lat="36.8046700" lon="-2.9305200">
        <ele>521.4</ele>
        <time>2021-03-02T08:28:03Z</time>
      </trkpt>
      <trkpt lat="36.8046230" lon="-2.9304630">
        <ele>521.0</ele>
        <time>2021-03-02T08:28:04Z</time>
      </trkpt>
      <trkpt lat="36.8045640" lon="-2.9304220">
        <ele>520.8</ele>
        <time>2021-03-02T08:28:05Z</time>
      </trkpt>
      <trkpt lat="36.8045000" lon="-2.9303960">
        <ele>520.6</ele>
        <time>2021-03-02T08:28:06Z</time>
      </trkpt>
      <trkpt lat="36.8044350" lon="-2.9303740">
        <ele>520.4</ele>
        <time>2021-03-02T08:28:07Z</time>
      </trkpt>
      <trkpt lat="36.8043720" lon="-2.9303480">
        <ele>520.4</ele>
        <time>2021-03-02T08:28:08Z</time>
      </trkpt>
      <trkpt lat="36.8043120" lon="-2.9303140">
        <ele>520.2</ele>
        <time>2021-03-02T08:28:09Z</time>
      </trkpt>
      <trkpt lat="36.8042530" lon="-2.9302740">
        <ele>520.2</ele>
        <time>2021-03-02T08:28:10Z</time>
      </trkpt>
      <trkpt lat="36.8041960" lon="-2.9302330">
        <ele>520.0</ele>
        <time>2021-03-02T08:28:11Z</time>
      </trkpt>
      <trkpt lat="36.8041370" lon="-2.9301900">
        <ele>519.4</ele>
        <time>2021-03-02T08:28:12Z</time>
      </trkpt>
      <trkpt lat="36.8040770" lon="-2.9301500">
        <ele>519.2</ele>
        <time>2021-03-02T08:28:13Z</time>
      </trkpt>
      <trkpt lat="36.8040130" lon="-2.9301150">
        <ele>518.8</ele>
        <time>2021-03-02T08:28:14Z</time>
      </trkpt>
      <trkpt lat="36.8039450" lon="-2.9300890">
        <ele>518.6</ele>
        <time>2021-03-02T08:28:15Z</time>
      </trkpt>
      <trkpt lat="36.8038760" lon="-2.9300730">
        <ele>518.4</ele>
        <time>2021-03-02T08:28:16Z</time>
      </trkpt>
      <trkpt lat="36.8038070" lon="-2.9300630">
        <ele>518.2</ele>
        <time>2021-03-02T08:28:17Z</time>
      </trkpt>
      <trkpt lat="36.8037390" lon="-2.9300530">
        <ele>518.0</ele>
        <time>2021-03-02T08:28:18Z</time>
      </trkpt>
      <trkpt lat="36.8036730" lon="-2.9300450">
        <ele>517.8</ele>
        <time>2021-03-02T08:28:19Z</time>
      </trkpt>
      <trkpt lat="36.8036070" lon="-2.9300380">
        <ele>517.6</ele>
        <time>2021-03-02T08:28:20Z</time>
      </trkpt>
      <trkpt lat="36.8035420" lon="-2.9300310">
        <ele>517.6</ele>
        <time>2021-03-02T08:28:21Z</time>
      </trkpt>
      <trkpt lat="36.8034770" lon="-2.9300220">
        <ele>517.4</ele>
        <time>2021-03-02T08:28:22Z</time>
      </trkpt>
      <trkpt lat="36.8034130" lon="-2.9300150">
        <ele>517.2</ele>
        <time>2021-03-02T08:28:23Z</time>
      </trkpt>
      <trkpt lat="36.8033510" lon="-2.9300080">
        <ele>517.0</ele>
        <time>2021-03-02T08:28:24Z</time>
      </trkpt>
      <trkpt lat="36.8032890" lon="-2.9299990">
        <ele>517.0</ele>
        <time>2021-03-02T08:28:25Z</time>
      </trkpt>
      <trkpt lat="36.8032290" lon="-2.9299950">
        <ele>516.8</ele>
        <time>2021-03-02T08:28:26Z</time>
      </trkpt>
      <trkpt lat="36.8031670" lon="-2.9299930">
        <ele>516.8</ele>
        <time>2021-03-02T08:28:27Z</time>
      </trkpt>
      <trkpt lat="36.8031040" lon="-2.9299970">
        <ele>516.6</ele>
        <time>2021-03-02T08:28:28Z</time>
      </trkpt>
      <trkpt lat="36.8030360" lon="-2.9300000">
        <ele>516.4</ele>
        <time>2021-03-02T08:28:29Z</time>
      </trkpt>
      <trkpt lat="36.8029680" lon="-2.9299960">
        <ele>516.2</ele>
        <time>2021-03-02T08:28:30Z</time>
      </trkpt>
      <trkpt lat="36.8029050" lon="-2.9299830">
        <ele>516.0</ele>
        <time>2021-03-02T08:28:31Z</time>
      </trkpt>
      <trkpt lat="36.8028490" lon="-2.9299630">
        <ele>516.0</ele>
        <time>2021-03-02T08:28:32Z</time>
      </trkpt>
      <trkpt lat="36.8027980" lon="-2.9299380">
        <ele>516.0</ele>
        <time>2021-03-02T08:28:33Z</time>
      </trkpt>
      <trkpt lat="36.8027480" lon="-2.9299140">
        <ele>516.0</ele>
        <time>2021-03-02T08:28:34Z</time>
      </trkpt>
      <trkpt lat="36.8026980" lon="-2.9298920">
        <ele>516.4</ele>
        <time>2021-03-02T08:28:35Z</time>
      </trkpt>
      <trkpt lat="36.8026500" lon="-2.9298700">
        <ele>516.8</ele>
        <time>2021-03-02T08:28:36Z</time>
      </trkpt>
      <trkpt lat="36.8026050" lon="-2.9298480">
        <ele>516.8</ele>
        <time>2021-03-02T08:28:37Z</time>
      </trkpt>
      <trkpt lat="36.8025620" lon="-2.9298270">
        <ele>517.0</ele>
        <time>2021-03-02T08:28:38Z</time>
      </trkpt>
      <trkpt lat="36.8025220" lon="-2.9298080">
        <ele>517.0</ele>
        <time>2021-03-02T08:28:39Z</time>
      </trkpt>
      <trkpt lat="36.8024830" lon="-2.9297930">
        <ele>517.2</ele>
        <time>2021-03-02T08:28:40Z</time>
      </trkpt>
      <trkpt lat="36.8024450" lon="-2.9297830">
        <ele>517.4</ele>
        <time>2021-03-02T08:28:41Z</time>
      </trkpt>
      <trkpt lat="36.8024100" lon="-2.9297740">
        <ele>517.8</ele>
        <time>2021-03-02T08:28:42Z</time>
      </trkpt>
      <trkpt lat="36.8023760" lon="-2.9297660">
        <ele>518.2</ele>
        <time>2021-03-02T08:28:43Z</time>
      </trkpt>
      <trkpt lat="36.8023430" lon="-2.9297580">
        <ele>518.4</ele>
        <time>2021-03-02T08:28:44Z</time>
      </trkpt>
      <trkpt lat="36.8023100" lon="-2.9297520">
        <ele>518.6</ele>
        <time>2021-03-02T08:28:45Z</time>
      </trkpt>
      <trkpt lat="36.8022790" lon="-2.9297440">
        <ele>518.8</ele>
        <time>2021-03-02T08:28:46Z</time>
      </trkpt>
      <trkpt lat="36.8022470" lon="-2.9297360">
        <ele>519.2</ele>
        <time>2021-03-02T08:28:47Z</time>
      </trkpt>
      <trkpt lat="36.8022170" lon="-2.9297270">
        <ele>519.2</ele>
        <time>2021-03-02T08:28:48Z</time>
      </trkpt>
      <trkpt lat="36.8021890" lon="-2.9297130">
        <ele>519.4</ele>
        <time>2021-03-02T08:28:49Z</time>
      </trkpt>
      <trkpt lat="36.8021620" lon="-2.9296940">
        <ele>519.6</ele>
        <time>2021-03-02T08:28:50Z</time>
      </trkpt>
      <trkpt lat="36.8021340" lon="-2.9296730">
        <ele>519.8</ele>
        <time>2021-03-02T08:28:51Z</time>
      </trkpt>
      <trkpt lat="36.8021050" lon="-2.9296490">
        <ele>520.0</ele>
        <time>2021-03-02T08:28:52Z</time>
      </trkpt>
      <trkpt lat="36.8020730" lon="-2.9296240">
        <ele>520.0</ele>
        <time>2021-03-02T08:28:53Z</time>
      </trkpt>
      <trkpt lat="36.8020390" lon="-2.9295940">
        <ele>520.0</ele>
        <time>2021-03-02T08:28:54Z</time>
      </trkpt>
      <trkpt lat="36.8020000" lon="-2.9295600">
        <ele>520.0</ele>
        <time>2021-03-02T08:28:55Z</time>
      </trkpt>
      <trkpt lat="36.8019580" lon="-2.9295250">
        <ele>519.8</ele>
        <time>2021-03-02T08:28:56Z</time>
      </trkpt>
      <trkpt lat="36.8019140" lon="-2.9294900">
        <ele>519.4</ele>
        <time>2021-03-02T08:28:57Z</time>
      </trkpt>
      <trkpt lat="36.8018710" lon="-2.9294530">
        <ele>519.2</ele>
        <time>2021-03-02T08:28:58Z</time>
      </trkpt>
      <trkpt lat="36.8018320" lon="-2.9294120">
        <ele>518.8</ele>
        <time>2021-03-02T08:28:59Z</time>
      </trkpt>
      <trkpt lat="36.8017950" lon="-2.9293710">
        <ele>518.8</ele>
        <time>2021-03-02T08:29:00Z</time>
      </trkpt>
      <trkpt lat="36.8017560" lon="-2.9293330">
        <ele>518.6</ele>
        <time>2021-03-02T08:29:01Z</time>
      </trkpt>
      <trkpt lat="36.8017180" lon="-2.9292970">
        <ele>518.8</ele>
        <time>2021-03-02T08:29:02Z</time>
      </trkpt>
      <trkpt lat="36.8016800" lon="-2.9292600">
        <ele>518.8</ele>
        <time>2021-03-02T08:29:03Z</time>
      </trkpt>
      <trkpt lat="36.8016390" lon="-2.9292300">
        <ele>519.0</ele>
        <time>2021-03-02T08:29:04Z</time>
      </trkpt>
      <trkpt lat="36.8015980" lon="-2.9292000">
        <ele>519.0</ele>
        <time>2021-03-02T08:29:05Z</time>
      </trkpt>
      <trkpt lat="36.8015570" lon="-2.9291680">
        <ele>519.2</ele>
        <time>2021-03-02T08:29:06Z</time>
      </trkpt>
      <trkpt lat="36.8015170" lon="-2.9291340">
        <ele>519.2</ele>
        <time>2021-03-02T08:29:07Z</time>
      </trkpt>
      <trkpt lat="36.8014750" lon="-2.9290990">
        <ele>519.2</ele>
        <time>2021-03-02T08:29:08Z</time>
      </trkpt>
      <trkpt lat="36.8014350" lon="-2.9290630">
        <ele>519.2</ele>
        <time>2021-03-02T08:29:09Z</time>
      </trkpt>
      <trkpt lat="36.8013960" lon="-2.9290280">
        <ele>519.2</ele>
        <time>2021-03-02T08:29:10Z</time>
      </trkpt>
      <trkpt lat="36.8013560" lon="-2.9289930">
        <ele>519.2</ele>
        <time>2021-03-02T08:29:11Z</time>
      </trkpt>
      <trkpt lat="36.8013160" lon="-2.9289570">
        <ele>519.2</ele>
        <time>2021-03-02T08:29:12Z</time>
      </trkpt>
      <trkpt lat="36.8012760" lon="-2.9289220">
        <ele>519.0</ele>
        <time>2021-03-02T08:29:13Z</time>
      </trkpt>
      <trkpt lat="36.8012370" lon="-2.9288880">
        <ele>519.2</ele>
        <time>2021-03-02T08:29:14Z</time>
      </trkpt>
      <trkpt lat="36.8011960" lon="-2.9288550">
        <ele>519.0</ele>
        <time>2021-03-02T08:29:15Z</time>
      </trkpt>
      <trkpt lat="36.8011570" lon="-2.9288180">
        <ele>519.0</ele>
        <time>2021-03-02T08:29:16Z</time>
      </trkpt>
      <trkpt lat="36.8011210" lon="-2.9287740">
        <ele>518.8</ele>
        <time>2021-03-02T08:29:17Z</time>
      </trkpt>
      <trkpt lat="36.8010930" lon="-2.9287190">
        <ele>518.6</ele>
        <time>2021-03-02T08:29:18Z</time>
      </trkpt>
      <trkpt lat="36.8010760" lon="-2.9286530">
        <ele>518.6</ele>
        <time>2021-03-02T08:29:19Z</time>
      </trkpt>
      <trkpt lat="36.8010670" lon="-2.9285800">
        <ele>518.2</ele>
        <time>2021-03-02T08:29:20Z</time>
      </trkpt>
      <trkpt lat="36.8010600" lon="-2.9285000">
        <ele>517.4</ele>
        <time>2021-03-02T08:29:21Z</time>
      </trkpt>
      <trkpt lat="36.8010540" lon="-2.9284110">
        <ele>516.8</ele>
        <time>2021-03-02T08:29:22Z</time>
      </trkpt>
      <trkpt lat="36.8010460" lon="-2.9283170">
        <ele>516.2</ele>
        <time>2021-03-02T08:29:23Z</time>
      </trkpt>
      <trkpt lat="36.8010330" lon="-2.9282210">
        <ele>516.0</ele>
        <time>2021-03-02T08:29:24Z</time>
      </trkpt>
      <trkpt lat="36.8010130" lon="-2.9281190">
        <ele>515.0</ele>
        <time>2021-03-02T08:29:25Z</time>
      </trkpt>
      <trkpt lat="36.8009900" lon="-2.9280160">
        <ele>514.4</ele>
        <time>2021-03-02T08:29:26Z</time>
      </trkpt>
      <trkpt lat="36.8009640" lon="-2.9279200">
        <ele>513.0</ele>
        <time>2021-03-02T08:29:27Z</time>
      </trkpt>
      <trkpt lat="36.8009330" lon="-2.9278380">
        <ele>512.2</ele>
        <time>2021-03-02T08:29:28Z</time>
      </trkpt>
      <trkpt lat="36.8008940" lon="-2.9277640">
        <ele>511.8</ele>
        <time>2021-03-02T08:29:29Z</time>
      </trkpt>
      <trkpt lat="36.8008500" lon="-2.9276970">
        <ele>511.2</ele>
        <time>2021-03-02T08:29:30Z</time>
      </trkpt>
      <trkpt lat="36.8008050" lon="-2.9276330">
        <ele>511.0</ele>
        <time>2021-03-02T08:29:31Z</time>
      </trkpt>
      <trkpt lat="36.8007610" lon="-2.9275710">
        <ele>510.8</ele>
        <time>2021-03-02T08:29:32Z</time>
      </trkpt>
      <trkpt lat="36.8007190" lon="-2.9275110">
        <ele>510.6</ele>
        <time>2021-03-02T08:29:33Z</time>
      </trkpt>
      <trkpt lat="36.8006800" lon="-2.9274500">
        <ele>510.6</ele>
        <time>2021-03-02T08:29:34Z</time>
      </trkpt>
      <trkpt lat="36.8006460" lon="-2.9273870">
        <ele>510.6</ele>
        <time>2021-03-02T08:29:35Z</time>
      </trkpt>
      <trkpt lat="36.8006200" lon="-2.9273190">
        <ele>510.6</ele>
        <time>2021-03-02T08:29:36Z</time>
      </trkpt>
      <trkpt lat="36.8006000" lon="-2.9272460">
        <ele>510.6</ele>
        <time>2021-03-02T08:29:37Z</time>
      </trkpt>
      <trkpt lat="36.8005820" lon="-2.9271700">
        <ele>510.6</ele>
        <time>2021-03-02T08:29:38Z</time>
      </trkpt>
      <trkpt lat="36.8005620" lon="-2.9270940">
        <ele>510.2</ele>
        <time>2021-03-02T08:29:39Z</time>
      </trkpt>
      <trkpt lat="36.8005380" lon="-2.9270190">
        <ele>509.8</ele>
        <time>2021-03-02T08:29:40Z</time>
      </trkpt>
      <trkpt lat="36.8005110" lon="-2.9269420">
        <ele>509.6</ele>
        <time>2021-03-02T08:29:41Z</time>
      </trkpt>
      <trkpt lat="36.8004820" lon="-2.9268610">
        <ele>509.2</ele>
        <time>2021-03-02T08:29:42Z</time>
      </trkpt>
      <trkpt lat="36.8004510" lon="-2.9267770">
        <ele>509.0</ele>
        <time>2021-03-02T08:29:43Z</time>
      </trkpt>
      <trkpt lat="36.8004210" lon="-2.9266900">
        <ele>508.2</ele>
        <time>2021-03-02T08:29:44Z</time>
      </trkpt>
      <trkpt lat="36.8003910" lon="-2.9265980">
        <ele>507.8</ele>
        <time>2021-03-02T08:29:45Z</time>
      </trkpt>
      <trkpt lat="36.8003600" lon="-2.9265050">
        <ele>507.0</ele>
        <time>2021-03-02T08:29:46Z</time>
      </trkpt>
      <trkpt lat="36.8003260" lon="-2.9264090">
        <ele>506.4</ele>
        <time>2021-03-02T08:29:47Z</time>
      </trkpt>
      <trkpt lat="36.8002870" lon="-2.9263140">
        <ele>506.0</ele>
        <time>2021-03-02T08:29:48Z</time>
      </trkpt>
      <trkpt lat="36.8002480" lon="-2.9262150">
        <ele>505.6</ele>
        <time>2021-03-02T08:29:49Z</time>
      </trkpt>
      <trkpt lat="36.8002100" lon="-2.9261110">
        <ele>505.4</ele>
        <time>2021-03-02T08:29:50Z</time>
      </trkpt>
      <trkpt lat="36.8001750" lon="-2.9260040">
        <ele>504.6</ele>
        <time>2021-03-02T08:29:51Z</time>
      </trkpt>
      <trkpt lat="36.8001410" lon="-2.9258990">
        <ele>503.6</ele>
        <time>2021-03-02T08:29:52Z</time>
      </trkpt>
      <trkpt lat="36.8001050" lon="-2.9258000">
        <ele>503.2</ele>
        <time>2021-03-02T08:29:53Z</time>
      </trkpt>
      <trkpt lat="36.8000680" lon="-2.9257040">
        <ele>502.2</ele>
        <time>2021-03-02T08:29:54Z</time>
      </trkpt>
      <trkpt lat="36.8000360" lon="-2.9256100">
        <ele>502.0</ele>
        <time>2021-03-02T08:29:55Z</time>
      </trkpt>
      <trkpt lat="36.8000080" lon="-2.9255160">
        <ele>501.0</ele>
        <time>2021-03-02T08:29:56Z</time>
      </trkpt>
      <trkpt lat="36.7999790" lon="-2.9254290">
        <ele>500.6</ele>
        <time>2021-03-02T08:29:57Z</time>
      </trkpt>
      <trkpt lat="36.7999450" lon="-2.9253490">
        <ele>499.6</ele>
        <time>2021-03-02T08:29:58Z</time>
      </trkpt>
      <trkpt lat="36.7999000" lon="-2.9252760">
        <ele>498.6</ele>
        <time>2021-03-02T08:29:59Z</time>
      </trkpt>
      <trkpt lat="36.7998480" lon="-2.9252140">
        <ele>498.2</ele>
        <time>2021-03-02T08:30:00Z</time>
      </trkpt>
      <trkpt lat="36.7997960" lon="-2.9251540">
        <ele>497.4</ele>
        <time>2021-03-02T08:30:01Z</time>
      </trkpt>
      <trkpt lat="36.7997410" lon="-2.9251000">
        <ele>497.0</ele>
        <time>2021-03-02T08:30:02Z</time>
      </trkpt>
      <trkpt lat="36.7996830" lon="-2.9250520">
        <ele>496.4</ele>
        <time>2021-03-02T08:30:03Z</time>
      </trkpt>
      <trkpt lat="36.7996280" lon="-2.9250000">
        <ele>495.8</ele>
        <time>2021-03-02T08:30:04Z</time>
      </trkpt>
      <trkpt lat="36.7995730" lon="-2.9249430">
        <ele>495.6</ele>
        <time>2021-03-02T08:30:05Z</time>
      </trkpt>
      <trkpt lat="36.7995140" lon="-2.9248820">
        <ele>494.8</ele>
        <time>2021-03-02T08:30:06Z</time>
      </trkpt>
      <trkpt lat="36.7994550" lon="-2.9248240">
        <ele>494.6</ele>
        <time>2021-03-02T08:30:07Z</time>
      </trkpt>
      <trkpt lat="36.7993970" lon="-2.9247640">
        <ele>494.2</ele>
        <time>2021-03-02T08:30:08Z</time>
      </trkpt>
      <trkpt lat="36.7993420" lon="-2.9247040">
        <ele>494.0</ele>
        <time>2021-03-02T08:30:09Z</time>
      </trkpt>
      <trkpt lat="36.7992930" lon="-2.9246370">
        <ele>493.6</ele>
        <time>2021-03-02T08:30:10Z</time>
      </trkpt>
      <trkpt lat="36.7992460" lon="-2.9245670">
        <ele>493.2</ele>
        <time>2021-03-02T08:30:11Z</time>
      </trkpt>
      <trkpt lat="36.7991940" lon="-2.9244910">
        <ele>492.8</ele>
        <time>2021-03-02T08:30:12Z</time>
      </trkpt>
      <trkpt lat="36.7991400" lon="-2.9244140">
        <ele>492.0</ele>
        <time>2021-03-02T08:30:13Z</time>
      </trkpt>
      <trkpt lat="36.7990900" lon="-2.9243400">
        <ele>491.6</ele>
        <time>2021-03-02T08:30:14Z</time>
      </trkpt>
      <trkpt lat="36.7990380" lon="-2.9242690">
        <ele>491.0</ele>
        <time>2021-03-02T08:30:15Z</time>
      </trkpt>
      <trkpt lat="36.7989840" lon="-2.9242090">
        <ele>491.0</ele>
        <time>2021-03-02T08:30:16Z</time>
      </trkpt>
      <trkpt lat="36.7989360" lon="-2.9241560">
        <ele>491.0</ele>
        <time>2021-03-02T08:30:17Z</time>
      </trkpt>
      <trkpt lat="36.7989000" lon="-2.9241010">
        <ele>491.0</ele>
        <time>2021-03-02T08:30:18Z</time>
      </trkpt>
      <trkpt lat="36.7988700" lon="-2.9240410">
        <ele>491.2</ele>
        <time>2021-03-02T08:30:19Z</time>
      </trkpt>
      <trkpt lat="36.7988420" lon="-2.9239820">
        <ele>491.4</ele>
        <time>2021-03-02T08:30:20Z</time>
      </trkpt>
      <trkpt lat="36.7988160" lon="-2.9239230">
        <ele>491.6</ele>
        <time>2021-03-02T08:30:21Z</time>
      </trkpt>
      <trkpt lat="36.7987880" lon="-2.9238670">
        <ele>491.6</ele>
        <time>2021-03-02T08:30:22Z</time>
      </trkpt>
      <trkpt lat="36.7987560" lon="-2.9238190">
        <ele>491.8</ele>
        <time>2021-03-02T08:30:23Z</time>
      </trkpt>
      <trkpt lat="36.7987230" lon="-2.9237770">
        <ele>491.8</ele>
        <time>2021-03-02T08:30:24Z</time>
      </trkpt>
      <trkpt lat="36.7986910" lon="-2.9237380">
        <ele>492.0</ele>
        <time>2021-03-02T08:30:25Z</time>
      </trkpt>
      <trkpt lat="36.7986660" lon="-2.9236960">
        <ele>492.0</ele>
        <time>2021-03-02T08:30:26Z</time>
      </trkpt>
      <trkpt lat="36.7986540" lon="-2.9236460">
        <ele>492.2</ele>
        <time>2021-03-02T08:30:27Z</time>
      </trkpt>
      <trkpt lat="36.7986570" lon="-2.9235970">
        <ele>492.2</ele>
        <time>2021-03-02T08:30:28Z</time>
      </trkpt>
      <trkpt lat="36.7986760" lon="-2.9235500">
        <ele>492.2</ele>
        <time>2021-03-02T08:30:29Z</time>
      </trkpt>
      <trkpt lat="36.7987050" lon="-2.9235020">
        <ele>492.2</ele>
        <time>2021-03-02T08:30:30Z</time>
      </trkpt>
      <trkpt lat="36.7987400" lon="-2.9234490">
        <ele>492.0</ele>
        <time>2021-03-02T08:30:31Z</time>
      </trkpt>
      <trkpt lat="36.7987800" lon="-2.9233870">
        <ele>491.6</ele>
        <time>2021-03-02T08:30:32Z</time>
      </trkpt>
      <trkpt lat="36.7988260" lon="-2.9233170">
        <ele>491.4</ele>
        <time>2021-03-02T08:30:33Z</time>
      </trkpt>
      <trkpt lat="36.7988720" lon="-2.9232470">
        <ele>491.2</ele>
        <time>2021-03-02T08:30:34Z</time>
      </trkpt>
      <trkpt lat="36.7989140" lon="-2.9231870">
        <ele>491.2</ele>
        <time>2021-03-02T08:30:35Z</time>
      </trkpt>
      <trkpt lat="36.7989500" lon="-2.9231370">
        <ele>491.4</ele>
        <time>2021-03-02T08:30:36Z</time>
      </trkpt>
      <trkpt lat="36.7989780" lon="-2.9231000">
        <ele>492.2</ele>
        <time>2021-03-02T08:30:37Z</time>
      </trkpt>
      <trkpt lat="36.7990010" lon="-2.9230740">
        <ele>492.6</ele>
        <time>2021-03-02T08:30:38Z</time>
      </trkpt>
      <trkpt lat="36.7990220" lon="-2.9230520">
        <ele>493.4</ele>
        <time>2021-03-02T08:30:39Z</time>
      </trkpt>
      <trkpt lat="36.7990410" lon="-2.9230330">
        <ele>493.8</ele>
        <time>2021-03-02T08:30:40Z</time>
      </trkpt>
      <trkpt lat="36.7990560" lon="-2.9230160">
        <ele>494.6</ele>
        <time>2021-03-02T08:30:41Z</time>
      </trkpt>
      <trkpt lat="36.7990670" lon="-2.9229990">
        <ele>495.2</ele>
        <time>2021-03-02T08:30:42Z</time>
      </trkpt>
      <trkpt lat="36.7990750" lon="-2.9229850">
        <ele>495.6</ele>
        <time>2021-03-02T08:30:43Z</time>
      </trkpt>
      <trkpt lat="36.7990840" lon="-2.9229690">
        <ele>496.0</ele>
        <time>2021-03-02T08:30:44Z</time>
      </trkpt>
      <trkpt lat="36.7990930" lon="-2.9229540">
        <ele>496.2</ele>
        <time>2021-03-02T08:30:45Z</time>
      </trkpt>
      <trkpt lat="36.7991030" lon="-2.9229390">
        <ele>496.8</ele>
        <time>2021-03-02T08:30:46Z</time>
      </trkpt>
      <trkpt lat="36.7991120" lon="-2.9229240">
        <ele>497.2</ele>
        <time>2021-03-02T08:30:47Z</time>
      </trkpt>
      <trkpt lat="36.7991210" lon="-2.9229080">
        <ele>497.4</ele>
        <time>2021-03-02T08:30:48Z</time>
      </trkpt>
      <trkpt lat="36.7991280" lon="-2.9228940">
        <ele>498.0</ele>
        <time>2021-03-02T08:30:49Z</time>
      </trkpt>
      <trkpt lat="36.7991340" lon="-2.9228800">
        <ele>498.4</ele>
        <time>2021-03-02T08:30:50Z</time>
      </trkpt>
      <trkpt lat="36.7991410" lon="-2.9228680">
        <ele>498.8</ele>
        <time>2021-03-02T08:30:51Z</time>
      </trkpt>
      <trkpt lat="36.7991490" lon="-2.9228540">
        <ele>499.0</ele>
        <time>2021-03-02T08:30:52Z</time>
      </trkpt>
      <trkpt lat="36.7991560" lon="-2.9228400">
        <ele>499.6</ele>
        <time>2021-03-02T08:30:53Z</time>
      </trkpt>
      <trkpt lat="36.7991610" lon="-2.9228260">
        <ele>500.0</ele>
        <time>2021-03-02T08:30:54Z</time>
      </trkpt>
      <trkpt lat="36.7991630" lon="-2.9228120">
        <ele>500.2</ele>
        <time>2021-03-02T08:30:55Z</time>
      </trkpt>
      <trkpt lat="36.7991660" lon="-2.9227960">
        <ele>500.6</ele>
        <time>2021-03-02T08:30:56Z</time>
      </trkpt>
      <trkpt lat="36.7991680" lon="-2.9227800">
        <ele>500.8</ele>
        <time>2021-03-02T08:30:57Z</time>
      </trkpt>
      <trkpt lat="36.7991690" lon="-2.9227610">
        <ele>501.0</ele>
        <time>2021-03-02T08:30:58Z</time>
      </trkpt>
      <trkpt lat="36.7991680" lon="-2.9227410">
        <ele>501.2</ele>
        <time>2021-03-02T08:30:59Z</time>
      </trkpt>
      <trkpt lat="36.7991640" lon="-2.9227220">
        <ele>501.4</ele>
        <time>2021-03-02T08:31:00Z</time>
      </trkpt>
      <trkpt lat="36.7991600" lon="-2.9227040">
        <ele>501.8</ele>
        <time>2021-03-02T08:31:01Z</time>
      </trkpt>
      <trkpt lat="36.7991560" lon="-2.9226880">
        <ele>501.8</ele>
        <time>2021-03-02T08:31:02Z</time>
      </trkpt>
      <trkpt lat="36.7991530" lon="-2.9226700">
        <ele>502.0</ele>
        <time>2021-03-02T08:31:03Z</time>
      </trkpt>
      <trkpt lat="36.7991480" lon="-2.9226510">
        <ele>502.2</ele>
        <time>2021-03-02T08:31:04Z</time>
      </trkpt>
      <trkpt lat="36.7991430" lon="-2.9226310">
        <ele>502.4</ele>
        <time>2021-03-02T08:31:05Z</time>
      </trkpt>
      <trkpt lat="36.7991360" lon="-2.9226110">
        <ele>502.8</ele>
        <time>2021-03-02T08:31:06Z</time>
      </trkpt>
      <trkpt lat="36.7991270" lon="-2.9225930">
        <ele>503.0</ele>
        <time>2021-03-02T08:31:07Z</time>
      </trkpt>
      <trkpt lat="36.7991190" lon="-2.9225740">
        <ele>503.2</ele>
        <time>2021-03-02T08:31:08Z</time>
      </trkpt>
      <trkpt lat="36.7991120" lon="-2.9225550">
        <ele>503.2</ele>
        <time>2021-03-02T08:31:09Z</time>
      </trkpt>
      <trkpt lat="36.7991040" lon="-2.9225360">
        <ele>503.4</ele>
        <time>2021-03-02T08:31:10Z</time>
      </trkpt>
      <trkpt lat="36.7990970" lon="-2.9225160">
        <ele>503.4</ele>
        <time>2021-03-02T08:31:11Z</time>
      </trkpt>
      <trkpt lat="36.7990920" lon="-2.9224940">
        <ele>503.6</ele>
        <time>2021-03-02T08:31:12Z</time>
      </trkpt>
      <trkpt lat="36.7990870" lon="-2.9224750">
        <ele>503.8</ele>
        <time>2021-03-02T08:31:13Z</time>
      </trkpt>
      <trkpt lat="36.7990820" lon="-2.9224550">
        <ele>503.8</ele>
        <time>2021-03-02T08:31:14Z</time>
      </trkpt>
      <trkpt lat="36.7990780" lon="-2.9224350">
        <ele>504.0</ele>
        <time>2021-03-02T08:31:15Z</time>
      </trkpt>
      <trkpt lat="36.7990760" lon="-2.9224130">
        <ele>504.2</ele>
        <time>2021-03-02T08:31:16Z</time>
      </trkpt>
      <trkpt lat="36.7990730" lon="-2.9223900">
        <ele>504.4</ele>
        <time>2021-03-02T08:31:17Z</time>
      </trkpt>
      <trkpt lat="36.7990690" lon="-2.9223690">
        <ele>504.6</ele>
        <time>2021-03-02T08:31:18Z</time>
      </trkpt>
      <trkpt lat="36.7990670" lon="-2.9223480">
        <ele>504.6</ele>
        <time>2021-03-02T08:31:19Z</time>
      </trkpt>
      <trkpt lat="36.7990650" lon="-2.9223250">
        <ele>504.8</ele>
        <time>2021-03-02T08:31:20Z</time>
      </trkpt>
      <trkpt lat="36.7990620" lon="-2.9223050">
        <ele>504.8</ele>
        <time>2021-03-02T08:31:21Z</time>
      </trkpt>
      <trkpt lat="36.7990610" lon="-2.9222830">
        <ele>505.0</ele>
        <time>2021-03-02T08:31:22Z</time>
      </trkpt>
      <trkpt lat="36.7990600" lon="-2.9222610">
        <ele>505.0</ele>
        <time>2021-03-02T08:31:23Z</time>
      </trkpt>
      <trkpt lat="36.7990590" lon="-2.9222400">
        <ele>505.2</ele>
        <time>2021-03-02T08:31:24Z</time>
      </trkpt>
      <trkpt lat="36.7990570" lon="-2.9222190">
        <ele>505.2</ele>
        <time>2021-03-02T08:31:25Z</time>
      </trkpt>
      <trkpt lat="36.7990560" lon="-2.9221960">
        <ele>505.4</ele>
        <time>2021-03-02T08:31:26Z</time>
      </trkpt>
      <trkpt lat="36.7990550" lon="-2.9221720">
        <ele>505.4</ele>
        <time>2021-03-02T08:31:27Z</time>
      </trkpt>
      <trkpt lat="36.7990530" lon="-2.9221480">
        <ele>505.6</ele>
        <time>2021-03-02T08:31:28Z</time>
      </trkpt>
      <trkpt lat="36.7990510" lon="-2.9221250">
        <ele>505.6</ele>
        <time>2021-03-02T08:31:29Z</time>
      </trkpt>
      <trkpt lat="36.7990490" lon="-2.9221010">
        <ele>505.8</ele>
        <time>2021-03-02T08:31:30Z</time>
      </trkpt>
      <trkpt lat="36.7990460" lon="-2.9220780">
        <ele>505.8</ele>
        <time>2021-03-02T08:31:31Z</time>
      </trkpt>
      <trkpt lat="36.7990440" lon="-2.9220540">
        <ele>506.0</ele>
        <time>2021-03-02T08:31:32Z</time>
      </trkpt>
      <trkpt lat="36.7990410" lon="-2.9220310">
        <ele>506.0</ele>
        <time>2021-03-02T08:31:33Z</time>
      </trkpt>
      <trkpt lat="36.7990400" lon="-2.9220080">
        <ele>506.2</ele>
        <time>2021-03-02T08:31:34Z</time>
      </trkpt>
      <trkpt lat="36.7990380" lon="-2.9219870">
        <ele>506.2</ele>
        <time>2021-03-02T08:31:35Z</time>
      </trkpt>
      <trkpt lat="36.7990360" lon="-2.9219670">
        <ele>506.4</ele>
        <time>2021-03-02T08:31:36Z</time>
      </trkpt>
      <trkpt lat="36.7990350" lon="-2.9219470">
        <ele>506.6</ele>
        <time>2021-03-02T08:31:37Z</time>
      </trkpt>
      <trkpt lat="36.7990330" lon="-2.9219270">
        <ele>506.8</ele>
        <time>2021-03-02T08:31:38Z</time>
      </trkpt>
      <trkpt lat="36.7990310" lon="-2.9219060">
        <ele>507.0</ele>
        <time>2021-03-02T08:31:39Z</time>
      </trkpt>
      <trkpt lat="36.7990310" lon="-2.9218840">
        <ele>507.0</ele>
        <time>2021-03-02T08:31:40Z</time>
      </trkpt>
      <trkpt lat="36.7990290" lon="-2.9218600">
        <ele>507.2</ele>
        <time>2021-03-02T08:31:41Z</time>
      </trkpt>
      <trkpt lat="36.7990260" lon="-2.9218360">
        <ele>507.4</ele>
        <time>2021-03-02T08:31:42Z</time>
      </trkpt>
      <trkpt lat="36.7990240" lon="-2.9218140">
        <ele>507.6</ele>
        <time>2021-03-02T08:31:43Z</time>
      </trkpt>
      <trkpt lat="36.7990200" lon="-2.9217930">
        <ele>507.6</ele>
        <time>2021-03-02T08:31:44Z</time>
      </trkpt>
      <trkpt lat="36.7990140" lon="-2.9217710">
        <ele>507.8</ele>
        <time>2021-03-02T08:31:45Z</time>
      </trkpt>
      <trkpt lat="36.7990080" lon="-2.9217490">
        <ele>507.8</ele>
        <time>2021-03-02T08:31:46Z</time>
      </trkpt>
      <trkpt lat="36.7990030" lon="-2.9217270">
        <ele>508.0</ele>
        <time>2021-03-02T08:31:47Z</time>
      </trkpt>
      <trkpt lat="36.7989970" lon="-2.9217030">
        <ele>508.0</ele>
        <time>2021-03-02T08:31:48Z</time>
      </trkpt>
      <trkpt lat="36.7989900" lon="-2.9216800">
        <ele>508.2</ele>
        <time>2021-03-02T08:31:49Z</time>
      </trkpt>
      <trkpt lat="36.7989820" lon="-2.9216570">
        <ele>508.2</ele>
        <time>2021-03-02T08:31:50Z</time>
      </trkpt>
      <trkpt lat="36.7989730" lon="-2.9216340">
        <ele>508.4</ele>
        <time>2021-03-02T08:31:51Z</time>
      </trkpt>
      <trkpt lat="36.7989640" lon="-2.9216100">
        <ele>508.4</ele>
        <time>2021-03-02T08:31:52Z</time>
      </trkpt>
      <trkpt lat="36.7989540" lon="-2.9215820">
        <ele>508.6</ele>
        <time>2021-03-02T08:31:53Z</time>
      </trkpt>
      <trkpt lat="36.7989440" lon="-2.9215530">
        <ele>508.6</ele>
        <time>2021-03-02T08:31:54Z</time>
      </trkpt>
      <trkpt lat="36.7989320" lon="-2.9215210">
        <ele>508.8</ele>
        <time>2021-03-02T08:31:55Z</time>
      </trkpt>
      <trkpt lat="36.7989180" lon="-2.9214890">
        <ele>508.8</ele>
        <time>2021-03-02T08:31:56Z</time>
      </trkpt>
      <trkpt lat="36.7989030" lon="-2.9214550">
        <ele>508.8</ele>
        <time>2021-03-02T08:31:57Z</time>
      </trkpt>
      <trkpt lat="36.7988880" lon="-2.9214200">
        <ele>508.6</ele>
        <time>2021-03-02T08:31:58Z</time>
      </trkpt>
      <trkpt lat="36.7988730" lon="-2.9213880">
        <ele>508.6</ele>
        <time>2021-03-02T08:31:59Z</time>
      </trkpt>
      <trkpt lat="36.7988590" lon="-2.9213560">
        <ele>508.6</ele>
        <time>2021-03-02T08:32:00Z</time>
      </trkpt>
      <trkpt lat="36.7988460" lon="-2.9213270">
        <ele>508.8</ele>
        <time>2021-03-02T08:32:01Z</time>
      </trkpt>
      <trkpt lat="36.7988360" lon="-2.9213040">
        <ele>508.8</ele>
        <time>2021-03-02T08:32:02Z</time>
      </trkpt>
      <trkpt lat="36.7988270" lon="-2.9212840">
        <ele>509.0</ele>
        <time>2021-03-02T08:32:03Z</time>
      </trkpt>
      <trkpt lat="36.7988160" lon="-2.9212650">
        <ele>509.2</ele>
        <time>2021-03-02T08:32:04Z</time>
      </trkpt>
      <trkpt lat="36.7988040" lon="-2.9212460">
        <ele>509.4</ele>
        <time>2021-03-02T08:32:05Z</time>
      </trkpt>
      <trkpt lat="36.7987910" lon="-2.9212240">
        <ele>509.4</ele>
        <time>2021-03-02T08:32:06Z</time>
      </trkpt>
      <trkpt lat="36.7987800" lon="-2.9212010">
        <ele>509.6</ele>
        <time>2021-03-02T08:32:07Z</time>
      </trkpt>
      <trkpt lat="36.7987690" lon="-2.9211810">
        <ele>509.6</ele>
        <time>2021-03-02T08:32:08Z</time>
      </trkpt>
      <trkpt lat="36.7987570" lon="-2.9211600">
        <ele>509.6</ele>
        <time>2021-03-02T08:32:09Z</time>
      </trkpt>
      <trkpt lat="36.7987450" lon="-2.9211370">
        <ele>509.8</ele>
        <time>2021-03-02T08:32:10Z</time>
      </trkpt>
      <trkpt lat="36.7987330" lon="-2.9211150">
        <ele>509.8</ele>
        <time>2021-03-02T08:32:11Z</time>
      </trkpt>
      <trkpt lat="36.7987210" lon="-2.9210930">
        <ele>510.0</ele>
        <time>2021-03-02T08:32:12Z</time>
      </trkpt>
      <trkpt lat="36.7987080" lon="-2.9210720">
        <ele>510.0</ele>
        <time>2021-03-02T08:32:13Z</time>
      </trkpt>
      <trkpt lat="36.7986970" lon="-2.9210520">
        <ele>510.2</ele>
        <time>2021-03-02T08:32:14Z</time>
      </trkpt>
      <trkpt lat="36.7986850" lon="-2.9210320">
        <ele>510.4</ele>
        <time>2021-03-02T08:32:15Z</time>
      </trkpt>
      <trkpt lat="36.7986730" lon="-2.9210120">
        <ele>510.6</ele>
        <time>2021-03-02T08:32:16Z</time>
      </trkpt>
      <trkpt lat="36.7986600" lon="-2.9209930">
        <ele>510.8</ele>
        <time>2021-03-02T08:32:17Z</time>
      </trkpt>
      <trkpt lat="36.7986470" lon="-2.9209750">
        <ele>511.0</ele>
        <time>2021-03-02T08:32:18Z</time>
      </trkpt>
      <trkpt lat="36.7986360" lon="-2.9209570">
        <ele>511.0</ele>
        <time>2021-03-02T08:32:19Z</time>
      </trkpt>
      <trkpt lat="36.7986240" lon="-2.9209400">
        <ele>511.2</ele>
        <time>2021-03-02T08:32:20Z</time>
      </trkpt>
      <trkpt lat="36.7986130" lon="-2.9209240">
        <ele>511.4</ele>
        <time>2021-03-02T08:32:21Z</time>
      </trkpt>
      <trkpt lat="36.7986010" lon="-2.9209080">
        <ele>511.6</ele>
        <time>2021-03-02T08:32:22Z</time>
      </trkpt>
      <trkpt lat="36.7985910" lon="-2.9208900">
        <ele>511.8</ele>
        <time>2021-03-02T08:32:23Z</time>
      </trkpt>
      <trkpt lat="36.7985810" lon="-2.9208740">
        <ele>512.0</ele>
        <time>2021-03-02T08:32:24Z</time>
      </trkpt>
      <trkpt lat="36.7985700" lon="-2.9208590">
        <ele>512.0</ele>
        <time>2021-03-02T08:32:25Z</time>
      </trkpt>
      <trkpt lat="36.7985610" lon="-2.9208440">
        <ele>512.4</ele>
        <time>2021-03-02T08:32:26Z</time>
      </trkpt>
      <trkpt lat="36.7985520" lon="-2.9208290">
        <ele>512.8</ele>
        <time>2021-03-02T08:32:27Z</time>
      </trkpt>
      <trkpt lat="36.7985450" lon="-2.9208150">
        <ele>512.8</ele>
        <time>2021-03-02T08:32:28Z</time>
      </trkpt>
      <trkpt lat="36.7985370" lon="-2.9208000">
        <ele>513.2</ele>
        <time>2021-03-02T08:32:29Z</time>
      </trkpt>
      <trkpt lat="36.7985300" lon="-2.9207860">
        <ele>513.4</ele>
        <time>2021-03-02T08:32:30Z</time>
      </trkpt>
      <trkpt lat="36.7985230" lon="-2.9207710">
        <ele>513.6</ele>
        <time>2021-03-02T08:32:31Z</time>
      </trkpt>
      <trkpt lat="36.7985160" lon="-2.9207570">
        <ele>513.6</ele>
        <time>2021-03-02T08:32:32Z</time>
      </trkpt>
      <trkpt lat="36.7985080" lon="-2.9207430">
        <ele>514.0</ele>
        <time>2021-03-02T08:32:33Z</time>
      </trkpt>
      <trkpt lat="36.7985000" lon="-2.9207280">
        <ele>514.4</ele>
        <time>2021-03-02T08:32:34Z</time>
      </trkpt>
      <trkpt lat="36.7984930" lon="-2.9207140">
        <ele>514.4</ele>
        <time>2021-03-02T08:32:35Z</time>
      </trkpt>
      <trkpt lat="36.7984850" lon="-2.9207000">
        <ele>514.8</ele>
        <time>2021-03-02T08:32:36Z</time>
      </trkpt>
      <trkpt lat="36.7984760" lon="-2.9206870">
        <ele>515.0</ele>
        <time>2021-03-02T08:32:37Z</time>
      </trkpt>
      <trkpt lat="36.7984680" lon="-2.9206720">
        <ele>515.4</ele>
        <time>2021-03-02T08:32:38Z</time>
      </trkpt>
      <trkpt lat="36.7984580" lon="-2.9206590">
        <ele>515.6</ele>
        <time>2021-03-02T08:32:39Z</time>
      </trkpt>
      <trkpt lat="36.7984480" lon="-2.9206450">
        <ele>515.8</ele>
        <time>2021-03-02T08:32:40Z</time>
      </trkpt>
      <trkpt lat="36.7984400" lon="-2.9206310">
        <ele>516.2</ele>
        <time>2021-03-02T08:32:41Z</time>
      </trkpt>
      <trkpt lat="36.7984310" lon="-2.9206160">
        <ele>516.2</ele>
        <time>2021-03-02T08:32:42Z</time>
      </trkpt>
      <trkpt lat="36.7984230" lon="-2.9206010">
        <ele>516.4</ele>
        <time>2021-03-02T08:32:43Z</time>
      </trkpt>
      <trkpt lat="36.7984140" lon="-2.9205860">
        <ele>516.6</ele>
        <time>2021-03-02T08:32:44Z</time>
      </trkpt>
      <trkpt lat="36.7984040" lon="-2.9205710">
        <ele>516.6</ele>
        <time>2021-03-02T08:32:45Z</time>
      </trkpt>
      <trkpt lat="36.7983950" lon="-2.9205560">
        <ele>517.0</ele>
        <time>2021-03-02T08:32:46Z</time>
      </trkpt>
      <trkpt lat="36.7983850" lon="-2.9205410">
        <ele>517.2</ele>
        <time>2021-03-02T08:32:47Z</time>
      </trkpt>
      <trkpt lat="36.7983770" lon="-2.9205260">
        <ele>517.4</ele>
        <time>2021-03-02T08:32:48Z</time>
      </trkpt>
      <trkpt lat="36.7983680" lon="-2.9205120">
        <ele>517.6</ele>
        <time>2021-03-02T08:32:49Z</time>
      </trkpt>
      <trkpt lat="36.7983580" lon="-2.9204980">
        <ele>518.0</ele>
        <time>2021-03-02T08:32:50Z</time>
      </trkpt>
      <trkpt lat="36.7983480" lon="-2.9204830">
        <ele>518.2</ele>
        <time>2021-03-02T08:32:51Z</time>
      </trkpt>
      <trkpt lat="36.7983400" lon="-2.9204660">
        <ele>518.2</ele>
        <time>2021-03-02T08:32:52Z</time>
      </trkpt>
      <trkpt lat="36.7983320" lon="-2.9204500">
        <ele>518.4</ele>
        <time>2021-03-02T08:32:53Z</time>
      </trkpt>
      <trkpt lat="36.7983230" lon="-2.9204340">
        <ele>518.6</ele>
        <time>2021-03-02T08:32:54Z</time>
      </trkpt>
      <trkpt lat="36.7983130" lon="-2.9204150">
        <ele>518.6</ele>
        <time>2021-03-02T08:32:55Z</time>
      </trkpt>
      <trkpt lat="36.7983040" lon="-2.9203960">
        <ele>518.8</ele>
        <time>2021-03-02T08:32:56Z</time>
      </trkpt>
      <trkpt lat="36.7982940" lon="-2.9203780">
        <ele>519.2</ele>
        <time>2021-03-02T08:32:57Z</time>
      </trkpt>
      <trkpt lat="36.7982850" lon="-2.9203630">
        <ele>519.6</ele>
        <time>2021-03-02T08:32:58Z</time>
      </trkpt>
      <trkpt lat="36.7982800" lon="-2.9203460">
        <ele>519.8</ele>
        <time>2021-03-02T08:32:59Z</time>
      </trkpt>
      <trkpt lat="36.7982770" lon="-2.9203300">
        <ele>520.2</ele>
        <time>2021-03-02T08:33:00Z</time>
      </trkpt>
      <trkpt lat="36.7982760" lon="-2.9203140">
        <ele>520.2</ele>
        <time>2021-03-02T08:33:01Z</time>
      </trkpt>
      <trkpt lat="36.7982750" lon="-2.9202960">
        <ele>520.6</ele>
        <time>2021-03-02T08:33:02Z</time>
      </trkpt>
      <trkpt lat="36.7982740" lon="-2.9202790">
        <ele>520.8</ele>
        <time>2021-03-02T08:33:03Z</time>
      </trkpt>
      <trkpt lat="36.7982730" lon="-2.9202610">
        <ele>521.2</ele>
        <time>2021-03-02T08:33:04Z</time>
      </trkpt>
      <trkpt lat="36.7982730" lon="-2.9202440">
        <ele>521.6</ele>
        <time>2021-03-02T08:33:05Z</time>
      </trkpt>
      <trkpt lat="36.7982720" lon="-2.9202260">
        <ele>521.8</ele>
        <time>2021-03-02T08:33:06Z</time>
      </trkpt>
      <trkpt lat="36.7982700" lon="-2.9202070">
        <ele>522.2</ele>
        <time>2021-03-02T08:33:07Z</time>
      </trkpt>
      <trkpt lat="36.7982690" lon="-2.9201900">
        <ele>522.4</ele>
        <time>2021-03-02T08:33:08Z</time>
      </trkpt>
      <trkpt lat="36.7982680" lon="-2.9201720">
        <ele>522.8</ele>
        <time>2021-03-02T08:33:09Z</time>
      </trkpt>
      <trkpt lat="36.7982670" lon="-2.9201560">
        <ele>523.0</ele>
        <time>2021-03-02T08:33:10Z</time>
      </trkpt>
      <trkpt lat="36.7982650" lon="-2.9201400">
        <ele>523.2</ele>
        <time>2021-03-02T08:33:11Z</time>
      </trkpt>
      <trkpt lat="36.7982620" lon="-2.9201240">
        <ele>523.6</ele>
        <time>2021-03-02T08:33:12Z</time>
      </trkpt>
      <trkpt lat="36.7982590" lon="-2.9201080">
        <ele>523.8</ele>
        <time>2021-03-02T08:33:13Z</time>
      </trkpt>
      <trkpt lat="36.7982560" lon="-2.9200900">
        <ele>524.0</ele>
        <time>2021-03-02T08:33:14Z</time>
      </trkpt>
      <trkpt lat="36.7982530" lon="-2.9200730">
        <ele>524.4</ele>
        <time>2021-03-02T08:33:15Z</time>
      </trkpt>
      <trkpt lat="36.7982510" lon="-2.9200550">
        <ele>524.8</ele>
        <time>2021-03-02T08:33:16Z</time>
      </trkpt>
      <trkpt lat="36.7982480" lon="-2.9200370">
        <ele>525.2</ele>
        <time>2021-03-02T08:33:17Z</time>
      </trkpt>
      <trkpt lat="36.7982440" lon="-2.9200190">
        <ele>525.4</ele>
        <time>2021-03-02T08:33:18Z</time>
      </trkpt>
      <trkpt lat="36.7982400" lon="-2.9200020">
        <ele>525.6</ele>
        <time>2021-03-02T08:33:19Z</time>
      </trkpt>
      <trkpt lat="36.7982350" lon="-2.9199860">
        <ele>525.8</ele>
        <time>2021-03-02T08:33:20Z</time>
      </trkpt>
      <trkpt lat="36.7982280" lon="-2.9199700">
        <ele>526.4</ele>
        <time>2021-03-02T08:33:21Z</time>
      </trkpt>
      <trkpt lat="36.7982210" lon="-2.9199560">
        <ele>526.6</ele>
        <time>2021-03-02T08:33:22Z</time>
      </trkpt>
      <trkpt lat="36.7982160" lon="-2.9199420">
        <ele>526.6</ele>
        <time>2021-03-02T08:33:23Z</time>
      </trkpt>
      <trkpt lat="36.7982100" lon="-2.9199270">
        <ele>527.0</ele>
        <time>2021-03-02T08:33:24Z</time>
      </trkpt>
      <trkpt lat="36.7982030" lon="-2.9199110">
        <ele>527.0</ele>
        <time>2021-03-02T08:33:25Z</time>
      </trkpt>
      <trkpt lat="36.7981980" lon="-2.9198960">
        <ele>527.2</ele>
        <time>2021-03-02T08:33:26Z</time>
      </trkpt>
      <trkpt lat="36.7981940" lon="-2.9198800">
        <ele>527.4</ele>
        <time>2021-03-02T08:33:27Z</time>
      </trkpt>
      <trkpt lat="36.7981900" lon="-2.9198630">
        <ele>527.8</ele>
        <time>2021-03-02T08:33:28Z</time>
      </trkpt>
      <trkpt lat="36.7981810" lon="-2.9198450">
        <ele>528.2</ele>
        <time>2021-03-02T08:33:29Z</time>
      </trkpt>
      <trkpt lat="36.7981720" lon="-2.9198290">
        <ele>528.2</ele>
        <time>2021-03-02T08:33:30Z</time>
      </trkpt>
      <trkpt lat="36.7981640" lon="-2.9198130">
        <ele>528.2</ele>
        <time>2021-03-02T08:33:31Z</time>
      </trkpt>
      <trkpt lat="36.7981560" lon="-2.9197970">
        <ele>528.4</ele>
        <time>2021-03-02T08:33:32Z</time>
      </trkpt>
      <trkpt lat="36.7981480" lon="-2.9197820">
        <ele>528.4</ele>
        <time>2021-03-02T08:33:33Z</time>
      </trkpt>
      <trkpt lat="36.7981410" lon="-2.9197650">
        <ele>528.4</ele>
        <time>2021-03-02T08:33:34Z</time>
      </trkpt>
      <trkpt lat="36.7981330" lon="-2.9197490">
        <ele>528.4</ele>
        <time>2021-03-02T08:33:35Z</time>
      </trkpt>
      <trkpt lat="36.7981260" lon="-2.9197350">
        <ele>528.6</ele>
        <time>2021-03-02T08:33:36Z</time>
      </trkpt>
      <trkpt lat="36.7981200" lon="-2.9197200">
        <ele>528.8</ele>
        <time>2021-03-02T08:33:37Z</time>
      </trkpt>
      <trkpt lat="36.7981140" lon="-2.9197060">
        <ele>529.0</ele>
        <time>2021-03-02T08:33:38Z</time>
      </trkpt>
      <trkpt lat="36.7981090" lon="-2.9196920">
        <ele>529.2</ele>
        <time>2021-03-02T08:33:39Z</time>
      </trkpt>
      <trkpt lat="36.7981040" lon="-2.9196760">
        <ele>529.6</ele>
        <time>2021-03-02T08:33:40Z</time>
      </trkpt>
      <trkpt lat="36.7981000" lon="-2.9196580">
        <ele>529.6</ele>
        <time>2021-03-02T08:33:41Z</time>
      </trkpt>
      <trkpt lat="36.7980980" lon="-2.9196430">
        <ele>529.8</ele>
        <time>2021-03-02T08:33:42Z</time>
      </trkpt>
      <trkpt lat="36.7980960" lon="-2.9196270">
        <ele>529.8</ele>
        <time>2021-03-02T08:33:43Z</time>
      </trkpt>
      <trkpt lat="36.7980950" lon="-2.9196110">
        <ele>530.0</ele>
        <time>2021-03-02T08:33:44Z</time>
      </trkpt>
      <trkpt lat="36.7980970" lon="-2.9195940">
        <ele>530.2</ele>
        <time>2021-03-02T08:33:45Z</time>
      </trkpt>
      <trkpt lat="36.7980990" lon="-2.9195750">
        <ele>530.2</ele>
        <time>2021-03-02T08:33:46Z</time>
      </trkpt>
      <trkpt lat="36.7981050" lon="-2.9195540">
        <ele>530.4</ele>
        <time>2021-03-02T08:33:47Z</time>
      </trkpt>
      <trkpt lat="36.7981130" lon="-2.9195320">
        <ele>530.6</ele>
        <time>2021-03-02T08:33:48Z</time>
      </trkpt>
      <trkpt lat="36.7981220" lon="-2.9195100">
        <ele>530.6</ele>
        <time>2021-03-02T08:33:49Z</time>
      </trkpt>
      <trkpt lat="36.7981290" lon="-2.9194890">
        <ele>530.8</ele>
        <time>2021-03-02T08:33:50Z</time>
      </trkpt>
      <trkpt lat="36.7981360" lon="-2.9194700">
        <ele>530.8</ele>
        <time>2021-03-02T08:33:51Z</time>
      </trkpt>
      <trkpt lat="36.7981420" lon="-2.9194490">
        <ele>530.8</ele>
        <time>2021-03-02T08:33:52Z</time>
      </trkpt>
      <trkpt lat="36.7981480" lon="-2.9194280">
        <ele>531.0</ele>
        <time>2021-03-02T08:33:53Z</time>
      </trkpt>
      <trkpt lat="36.7981530" lon="-2.9194070">
        <ele>531.0</ele>
        <time>2021-03-02T08:33:54Z</time>
      </trkpt>
      <trkpt lat="36.7981580" lon="-2.9193860">
        <ele>531.2</ele>
        <time>2021-03-02T08:33:55Z</time>
      </trkpt>
      <trkpt lat="36.7981620" lon="-2.9193660">
        <ele>531.2</ele>
        <time>2021-03-02T08:33:56Z</time>
      </trkpt>
      <trkpt lat="36.7981650" lon="-2.9193470">
        <ele>531.4</ele>
        <time>2021-03-02T08:33:57Z</time>
      </trkpt>
      <trkpt lat="36.7981670" lon="-2.9193280">
        <ele>531.6</ele>
        <time>2021-03-02T08:33:58Z</time>
      </trkpt>
      <trkpt lat="36.7981680" lon="-2.9193100">
        <ele>531.8</ele>
        <time>2021-03-02T08:33:59Z</time>
      </trkpt>
      <trkpt lat="36.7981690" lon="-2.9192930">
        <ele>532.0</ele>
        <time>2021-03-02T08:34:00Z</time>
      </trkpt>
      <trkpt lat="36.7981700" lon="-2.9192760">
        <ele>532.0</ele>
        <time>2021-03-02T08:34:01Z</time>
      </trkpt>
      <trkpt lat="36.7981710" lon="-2.9192590">
        <ele>532.4</ele>
        <time>2021-03-02T08:34:02Z</time>
      </trkpt>
      <trkpt lat="36.7981710" lon="-2.9192420">
        <ele>532.6</ele>
        <time>2021-03-02T08:34:03Z</time>
      </trkpt>
      <trkpt lat="36.7981720" lon="-2.9192230">
        <ele>533.0</ele>
        <time>2021-03-02T08:34:04Z</time>
      </trkpt>
      <trkpt lat="36.7981740" lon="-2.9192060">
        <ele>533.0</ele>
        <time>2021-03-02T08:34:05Z</time>
      </trkpt>
      <trkpt lat="36.7981780" lon="-2.9191880">
        <ele>533.4</ele>
        <time>2021-03-02T08:34:06Z</time>
      </trkpt>
      <trkpt lat="36.7981840" lon="-2.9191700">
        <ele>533.4</ele>
        <time>2021-03-02T08:34:07Z</time>
      </trkpt>
      <trkpt lat="36.7981900" lon="-2.9191510">
        <ele>533.6</ele>
        <time>2021-03-02T08:34:08Z</time>
      </trkpt>
      <trkpt lat="36.7981980" lon="-2.9191310">
        <ele>533.8</ele>
        <time>2021-03-02T08:34:09Z</time>
      </trkpt>
      <trkpt lat="36.7982090" lon="-2.9191110">
        <ele>533.8</ele>
        <time>2021-03-02T08:34:10Z</time>
      </trkpt>
      <trkpt lat="36.7982260" lon="-2.9190940">
        <ele>533.8</ele>
        <time>2021-03-02T08:34:11Z</time>
      </trkpt>
      <trkpt lat="36.7982460" lon="-2.9190740">
        <ele>533.8</ele>
        <time>2021-03-02T08:34:12Z</time>
      </trkpt>
      <trkpt lat="36.7982730" lon="-2.9190520">
        <ele>533.8</ele>
        <time>2021-03-02T08:34:13Z</time>
      </trkpt>
      <trkpt lat="36.7983070" lon="-2.9190320">
        <ele>533.6</ele>
        <time>2021-03-02T08:34:14Z</time>
      </trkpt>
      <trkpt lat="36.7983490" lon="-2.9190100">
        <ele>533.4</ele>
        <time>2021-03-02T08:34:15Z</time>
      </trkpt>
      <trkpt lat="36.7984010" lon="-2.9189880">
        <ele>532.8</ele>
        <time>2021-03-02T08:34:16Z</time>
      </trkpt>
      <trkpt lat="36.7984620" lon="-2.9189670">
        <ele>532.4</ele>
        <time>2021-03-02T08:34:17Z</time>
      </trkpt>
      <trkpt lat="36.7985310" lon="-2.9189520">
        <ele>531.2</ele>
        <time>2021-03-02T08:34:18Z</time>
      </trkpt>
      <trkpt lat="36.7986070" lon="-2.9189410">
        <ele>530.6</ele>
        <time>2021-03-02T08:34:19Z</time>
      </trkpt>
      <trkpt lat="36.7986880" lon="-2.9189360">
        <ele>530.0</ele>
        <time>2021-03-02T08:34:20Z</time>
      </trkpt>
      <trkpt lat="36.7987730" lon="-2.9189340">
        <ele>529.0</ele>
        <time>2021-03-02T08:34:21Z</time>
      </trkpt>
      <trkpt lat="36.7988530" lon="-2.9189230">
        <ele>528.6</ele>
        <time>2021-03-02T08:34:22Z</time>
      </trkpt>
      <trkpt lat="36.7989220" lon="-2.9189040">
        <ele>527.8</ele>
        <time>2021-03-02T08:34:23Z</time>
      </trkpt>
      <trkpt lat="36.7989860" lon="-2.9188840">
        <ele>527.2</ele>
        <time>2021-03-02T08:34:24Z</time>
      </trkpt>
      <trkpt lat="36.7990550" lon="-2.9188750">
        <ele>526.2</ele>
        <time>2021-03-02T08:34:25Z</time>
      </trkpt>
      <trkpt lat="36.7991340" lon="-2.9188850">
        <ele>524.8</ele>
        <time>2021-03-02T08:34:26Z</time>
      </trkpt>
      <trkpt lat="36.7992150" lon="-2.9189140">
        <ele>524.2</ele>
        <time>2021-03-02T08:34:27Z</time>
      </trkpt>
      <trkpt lat="36.7992960" lon="-2.9189570">
        <ele>523.0</ele>
        <time>2021-03-02T08:34:28Z</time>
      </trkpt>
      <trkpt lat="36.7993770" lon="-2.9190030">
        <ele>522.4</ele>
        <time>2021-03-02T08:34:29Z</time>
      </trkpt>
      <trkpt lat="36.7994620" lon="-2.9190460">
        <ele>521.2</ele>
        <time>2021-03-02T08:34:30Z</time>
      </trkpt>
      <trkpt lat="36.7995520" lon="-2.9190770">
        <ele>520.2</ele>
        <time>2021-03-02T08:34:31Z</time>
      </trkpt>
      <trkpt lat="36.7996470" lon="-2.9190980">
        <ele>519.8</ele>
        <time>2021-03-02T08:34:32Z</time>
      </trkpt>
      <trkpt lat="36.7997440" lon="-2.9191080">
        <ele>519.0</ele>
        <time>2021-03-02T08:34:33Z</time>
      </trkpt>
      <trkpt lat="36.7998410" lon="-2.9191090">
        <ele>518.4</ele>
        <time>2021-03-02T08:34:34Z</time>
      </trkpt>
      <trkpt lat="36.7999360" lon="-2.9190980">
        <ele>517.4</ele>
        <time>2021-03-02T08:34:35Z</time>
      </trkpt>
      <trkpt lat="36.8000220" lon="-2.9190710">
        <ele>517.0</ele>
        <time>2021-03-02T08:34:36Z</time>
      </trkpt>
      <trkpt lat="36.8000980" lon="-2.9190350">
        <ele>516.6</ele>
        <time>2021-03-02T08:34:37Z</time>
      </trkpt>
      <trkpt lat="36.8001720" lon="-2.9190000">
        <ele>516.8</ele>
        <time>2021-03-02T08:34:38Z</time>
      </trkpt>
      <trkpt lat="36.8002390" lon="-2.9189670">
        <ele>516.8</ele>
        <time>2021-03-02T08:34:39Z</time>
      </trkpt>
      <trkpt lat="36.8002950" lon="-2.9189250">
        <ele>517.2</ele>
        <time>2021-03-02T08:34:40Z</time>
      </trkpt>
      <trkpt lat="36.8003330" lon="-2.9188680">
        <ele>517.2</ele>
        <time>2021-03-02T08:34:41Z</time>
      </trkpt>
      <trkpt lat="36.8003610" lon="-2.9188070">
        <ele>517.6</ele>
        <time>2021-03-02T08:34:42Z</time>
      </trkpt>
      <trkpt lat="36.8003890" lon="-2.9187580">
        <ele>518.0</ele>
        <time>2021-03-02T08:34:43Z</time>
      </trkpt>
      <trkpt lat="36.8004230" lon="-2.9187250">
        <ele>518.2</ele>
        <time>2021-03-02T08:34:44Z</time>
      </trkpt>
      <trkpt lat="36.8004600" lon="-2.9187040">
        <ele>519.0</ele>
        <time>2021-03-02T08:34:45Z</time>
      </trkpt>
      <trkpt lat="36.8004990" lon="-2.9186890">
        <ele>519.2</ele>
        <time>2021-03-02T08:34:46Z</time>
      </trkpt>
      <trkpt lat="36.8005380" lon="-2.9186880">
        <ele>519.6</ele>
        <time>2021-03-02T08:34:47Z</time>
      </trkpt>
      <trkpt lat="36.8005750" lon="-2.9186920">
        <ele>519.8</ele>
        <time>2021-03-02T08:34:48Z</time>
      </trkpt>
      <trkpt lat="36.8006050" lon="-2.9186880">
        <ele>520.0</ele>
        <time>2021-03-02T08:34:49Z</time>
      </trkpt>
      <trkpt lat="36.8006260" lon="-2.9186770">
        <ele>520.2</ele>
        <time>2021-03-02T08:34:50Z</time>
      </trkpt>
      <trkpt lat="36.8006420" lon="-2.9186630">
        <ele>520.6</ele>
        <time>2021-03-02T08:34:51Z</time>
      </trkpt>
      <trkpt lat="36.8006580" lon="-2.9186440">
        <ele>521.6</ele>
        <time>2021-03-02T08:34:52Z</time>
      </trkpt>
      <trkpt lat="36.8006730" lon="-2.9186240">
        <ele>521.8</ele>
        <time>2021-03-02T08:34:53Z</time>
      </trkpt>
      <trkpt lat="36.8006880" lon="-2.9186040">
        <ele>522.4</ele>
        <time>2021-03-02T08:34:54Z</time>
      </trkpt>
      <trkpt lat="36.8007000" lon="-2.9185830">
        <ele>522.8</ele>
        <time>2021-03-02T08:34:55Z</time>
      </trkpt>
      <trkpt lat="36.8007090" lon="-2.9185640">
        <ele>523.4</ele>
        <time>2021-03-02T08:34:56Z</time>
      </trkpt>
      <trkpt lat="36.8007210" lon="-2.9185480">
        <ele>524.2</ele>
        <time>2021-03-02T08:34:57Z</time>
      </trkpt>
      <trkpt lat="36.8007340" lon="-2.9185340">
        <ele>524.4</ele>
        <time>2021-03-02T08:34:58Z</time>
      </trkpt>
      <trkpt lat="36.8007500" lon="-2.9185190">
        <ele>524.8</ele>
        <time>2021-03-02T08:34:59Z</time>
      </trkpt>
      <trkpt lat="36.8007650" lon="-2.9185040">
        <ele>525.0</ele>
        <time>2021-03-02T08:35:00Z</time>
      </trkpt>
      <trkpt lat="36.8007810" lon="-2.9184890">
        <ele>525.4</ele>
        <time>2021-03-02T08:35:01Z</time>
      </trkpt>
      <trkpt lat="36.8007980" lon="-2.9184720">
        <ele>525.8</ele>
        <time>2021-03-02T08:35:02Z</time>
      </trkpt>
      <trkpt lat="36.8008130" lon="-2.9184540">
        <ele>526.0</ele>
        <time>2021-03-02T08:35:03Z</time>
      </trkpt>
      <trkpt lat="36.8008290" lon="-2.9184390">
        <ele>526.2</ele>
        <time>2021-03-02T08:35:04Z</time>
      </trkpt>
      <trkpt lat="36.8008440" lon="-2.9184260">
        <ele>526.4</ele>
        <time>2021-03-02T08:35:05Z</time>
      </trkpt>
      <trkpt lat="36.8008580" lon="-2.9184130">
        <ele>527.0</ele>
        <time>2021-03-02T08:35:06Z</time>
      </trkpt>
      <trkpt lat="36.8008730" lon="-2.9183980">
        <ele>527.2</ele>
        <time>2021-03-02T08:35:07Z</time>
      </trkpt>
      <trkpt lat="36.8008870" lon="-2.9183830">
        <ele>527.6</ele>
        <time>2021-03-02T08:35:08Z</time>
      </trkpt>
      <trkpt lat="36.8009020" lon="-2.9183700">
        <ele>527.8</ele>
        <time>2021-03-02T08:35:09Z</time>
      </trkpt>
      <trkpt lat="36.8009150" lon="-2.9183560">
        <ele>527.8</ele>
        <time>2021-03-02T08:35:10Z</time>
      </trkpt>
      <trkpt lat="36.8009290" lon="-2.9183430">
        <ele>528.2</ele>
        <time>2021-03-02T08:35:11Z</time>
      </trkpt>
      <trkpt lat="36.8009420" lon="-2.9183310">
        <ele>528.4</ele>
        <time>2021-03-02T08:35:12Z</time>
      </trkpt>
      <trkpt lat="36.8009550" lon="-2.9183180">
        <ele>528.8</ele>
        <time>2021-03-02T08:35:13Z</time>
      </trkpt>
      <trkpt lat="36.8009680" lon="-2.9183030">
        <ele>529.0</ele>
        <time>2021-03-02T08:35:14Z</time>
      </trkpt>
      <trkpt lat="36.8009820" lon="-2.9182890">
        <ele>529.4</ele>
        <time>2021-03-02T08:35:15Z</time>
      </trkpt>
      <trkpt lat="36.8009970" lon="-2.9182750">
        <ele>529.6</ele>
        <time>2021-03-02T08:35:16Z</time>
      </trkpt>
      <trkpt lat="36.8010140" lon="-2.9182630">
        <ele>529.8</ele>
        <time>2021-03-02T08:35:17Z</time>
      </trkpt>
      <trkpt lat="36.8010310" lon="-2.9182520">
        <ele>530.0</ele>
        <time>2021-03-02T08:35:18Z</time>
      </trkpt>
      <trkpt lat="36.8010490" lon="-2.9182430">
        <ele>530.0</ele>
        <time>2021-03-02T08:35:19Z</time>
      </trkpt>
      <trkpt lat="36.8010670" lon="-2.9182360">
        <ele>530.2</ele>
        <time>2021-03-02T08:35:20Z</time>
      </trkpt>
      <trkpt lat="36.8010860" lon="-2.9182330">
        <ele>530.4</ele>
        <time>2021-03-02T08:35:21Z</time>
      </trkpt>
      <trkpt lat="36.8011060" lon="-2.9182330">
        <ele>530.6</ele>
        <time>2021-03-02T08:35:22Z</time>
      </trkpt>
      <trkpt lat="36.8011240" lon="-2.9182360">
        <ele>530.8</ele>
        <time>2021-03-02T08:35:23Z</time>
      </trkpt>
      <trkpt lat="36.8011420" lon="-2.9182410">
        <ele>530.8</ele>
        <time>2021-03-02T08:35:24Z</time>
      </trkpt>
      <trkpt lat="36.8011600" lon="-2.9182480">
        <ele>531.2</ele>
        <time>2021-03-02T08:35:25Z</time>
      </trkpt>
      <trkpt lat="36.8011780" lon="-2.9182570">
        <ele>531.4</ele>
        <time>2021-03-02T08:35:26Z</time>
      </trkpt>
      <trkpt lat="36.8011950" lon="-2.9182660">
        <ele>531.6</ele>
        <time>2021-03-02T08:35:27Z</time>
      </trkpt>
      <trkpt lat="36.8012110" lon="-2.9182740">
        <ele>531.8</ele>
        <time>2021-03-02T08:35:28Z</time>
      </trkpt>
      <trkpt lat="36.8012280" lon="-2.9182810">
        <ele>532.0</ele>
        <time>2021-03-02T08:35:29Z</time>
      </trkpt>
      <trkpt lat="36.8012440" lon="-2.9182900">
        <ele>532.4</ele>
        <time>2021-03-02T08:35:30Z</time>
      </trkpt>
      <trkpt lat="36.8012600" lon="-2.9182980">
        <ele>532.6</ele>
        <time>2021-03-02T08:35:31Z</time>
      </trkpt>
      <trkpt lat="36.8012760" lon="-2.9183060">
        <ele>533.0</ele>
        <time>2021-03-02T08:35:32Z</time>
      </trkpt>
      <trkpt lat="36.8012900" lon="-2.9183130">
        <ele>533.4</ele>
        <time>2021-03-02T08:35:33Z</time>
      </trkpt>
      <trkpt lat="36.8013040" lon="-2.9183210">
        <ele>533.4</ele>
        <time>2021-03-02T08:35:34Z</time>
      </trkpt>
      <trkpt lat="36.8013190" lon="-2.9183300">
        <ele>533.6</ele>
        <time>2021-03-02T08:35:35Z</time>
      </trkpt>
      <trkpt lat="36.8013340" lon="-2.9183380">
        <ele>533.8</ele>
        <time>2021-03-02T08:35:36Z</time>
      </trkpt>
      <trkpt lat="36.8013490" lon="-2.9183440">
        <ele>534.2</ele>
        <time>2021-03-02T08:35:37Z</time>
      </trkpt>
      <trkpt lat="36.8013620" lon="-2.9183510">
        <ele>534.4</ele>
        <time>2021-03-02T08:35:38Z</time>
      </trkpt>
      <trkpt lat="36.8013760" lon="-2.9183590">
        <ele>534.6</ele>
        <time>2021-03-02T08:35:39Z</time>
      </trkpt>
      <trkpt lat="36.8013890" lon="-2.9183690">
        <ele>534.8</ele>
        <time>2021-03-02T08:35:40Z</time>
      </trkpt>
      <trkpt lat="36.8014020" lon="-2.9183780">
        <ele>535.0</ele>
        <time>2021-03-02T08:35:41Z</time>
      </trkpt>
      <trkpt lat="36.8014140" lon="-2.9183860">
        <ele>535.2</ele>
        <time>2021-03-02T08:35:42Z</time>
      </trkpt>
      <trkpt lat="36.8014270" lon="-2.9183950">
        <ele>535.4</ele>
        <time>2021-03-02T08:35:43Z</time>
      </trkpt>
      <trkpt lat="36.8014400" lon="-2.9184030">
        <ele>535.6</ele>
        <time>2021-03-02T08:35:44Z</time>
      </trkpt>
      <trkpt lat="36.8014540" lon="-2.9184120">
        <ele>535.8</ele>
        <time>2021-03-02T08:35:45Z</time>
      </trkpt>
      <trkpt lat="36.8014670" lon="-2.9184200">
        <ele>536.2</ele>
        <time>2021-03-02T08:35:46Z</time>
      </trkpt>
      <trkpt lat="36.8014800" lon="-2.9184270">
        <ele>536.6</ele>
        <time>2021-03-02T08:35:47Z</time>
      </trkpt>
      <trkpt lat="36.8014920" lon="-2.9184340">
        <ele>536.6</ele>
        <time>2021-03-02T08:35:48Z</time>
      </trkpt>
      <trkpt lat="36.8015040" lon="-2.9184420">
        <ele>537.0</ele>
        <time>2021-03-02T08:35:49Z</time>
      </trkpt>
      <trkpt lat="36.8015180" lon="-2.9184490">
        <ele>537.2</ele>
        <time>2021-03-02T08:35:50Z</time>
      </trkpt>
      <trkpt lat="36.8015320" lon="-2.9184550">
        <ele>537.2</ele>
        <time>2021-03-02T08:35:51Z</time>
      </trkpt>
      <trkpt lat="36.8015460" lon="-2.9184610">
        <ele>537.6</ele>
        <time>2021-03-02T08:35:52Z</time>
      </trkpt>
      <trkpt lat="36.8015590" lon="-2.9184660">
        <ele>537.6</ele>
        <time>2021-03-02T08:35:53Z</time>
      </trkpt>
      <trkpt lat="36.8015700" lon="-2.9184700">
        <ele>538.0</ele>
        <time>2021-03-02T08:35:54Z</time>
      </trkpt>
      <trkpt lat="36.8015840" lon="-2.9184740">
        <ele>538.0</ele>
        <time>2021-03-02T08:35:55Z</time>
      </trkpt>
      <trkpt lat="36.8015960" lon="-2.9184760">
        <ele>538.4</ele>
        <time>2021-03-02T08:35:56Z</time>
      </trkpt>
      <trkpt lat="36.8016080" lon="-2.9184790">
        <ele>538.4</ele>
        <time>2021-03-02T08:35:57Z</time>
      </trkpt>
      <trkpt lat="36.8016210" lon="-2.9184810">
        <ele>538.6</ele>
        <time>2021-03-02T08:35:58Z</time>
      </trkpt>
      <trkpt lat="36.8016340" lon="-2.9184820">
        <ele>539.0</ele>
        <time>2021-03-02T08:35:59Z</time>
      </trkpt>
      <trkpt lat="36.8016460" lon="-2.9184810">
        <ele>539.2</ele>
        <time>2021-03-02T08:36:00Z</time>
      </trkpt>
      <trkpt lat="36.8016600" lon="-2.9184790">
        <ele>539.4</ele>
        <time>2021-03-02T08:36:01Z</time>
      </trkpt>
      <trkpt lat="36.8016720" lon="-2.9184770">
        <ele>539.6</ele>
        <time>2021-03-02T08:36:02Z</time>
      </trkpt>
      <trkpt lat="36.8016860" lon="-2.9184720">
        <ele>539.8</ele>
        <time>2021-03-02T08:36:03Z</time>
      </trkpt>
      <trkpt lat="36.8017010" lon="-2.9184650">
        <ele>540.0</ele>
        <time>2021-03-02T08:36:04Z</time>
      </trkpt>
      <trkpt lat="36.8017170" lon="-2.9184580">
        <ele>540.0</ele>
        <time>2021-03-02T08:36:05Z</time>
      </trkpt>
      <trkpt lat="36.8017320" lon="-2.9184500">
        <ele>540.4</ele>
        <time>2021-03-02T08:36:06Z</time>
      </trkpt>
      <trkpt lat="36.8017470" lon="-2.9184400">
        <ele>540.4</ele>
        <time>2021-03-02T08:36:07Z</time>
      </trkpt>
      <trkpt lat="36.8017610" lon="-2.9184290">
        <ele>540.8</ele>
        <time>2021-03-02T08:36:08Z</time>
      </trkpt>
      <trkpt lat="36.8017740" lon="-2.9184190">
        <ele>541.0</ele>
        <time>2021-03-02T08:36:09Z</time>
      </trkpt>
      <trkpt lat="36.8017880" lon="-2.9184080">
        <ele>541.2</ele>
        <time>2021-03-02T08:36:10Z</time>
      </trkpt>
      <trkpt lat="36.8018020" lon="-2.9183980">
        <ele>541.2</ele>
        <time>2021-03-02T08:36:11Z</time>
      </trkpt>
      <trkpt lat="36.8018170" lon="-2.9183870">
        <ele>541.4</ele>
        <time>2021-03-02T08:36:12Z</time>
      </trkpt>
      <trkpt lat="36.8018310" lon="-2.9183760">
        <ele>541.4</ele>
        <time>2021-03-02T08:36:13Z</time>
      </trkpt>
      <trkpt lat="36.8018450" lon="-2.9183640">
        <ele>541.6</ele>
        <time>2021-03-02T08:36:14Z</time>
      </trkpt>
      <trkpt lat="36.8018590" lon="-2.9183510">
        <ele>541.8</ele>
        <time>2021-03-02T08:36:15Z</time>
      </trkpt>
      <trkpt lat="36.8018730" lon="-2.9183400">
        <ele>542.0</ele>
        <time>2021-03-02T08:36:16Z</time>
      </trkpt>
      <trkpt lat="36.8018880" lon="-2.9183290">
        <ele>542.2</ele>
        <time>2021-03-02T08:36:17Z</time>
      </trkpt>
      <trkpt lat="36.8019020" lon="-2.9183170">
        <ele>542.2</ele>
        <time>2021-03-02T08:36:18Z</time>
      </trkpt>
      <trkpt lat="36.8019180" lon="-2.9183050">
        <ele>542.4</ele>
        <time>2021-03-02T08:36:19Z</time>
      </trkpt>
      <trkpt lat="36.8019350" lon="-2.9182940">
        <ele>542.4</ele>
        <time>2021-03-02T08:36:20Z</time>
      </trkpt>
      <trkpt lat="36.8019540" lon="-2.9182810">
        <ele>542.6</ele>
        <time>2021-03-02T08:36:21Z</time>
      </trkpt>
      <trkpt lat="36.8019750" lon="-2.9182670">
        <ele>542.6</ele>
        <time>2021-03-02T08:36:22Z</time>
      </trkpt>
      <trkpt lat="36.8019980" lon="-2.9182560">
        <ele>542.6</ele>
        <time>2021-03-02T08:36:23Z</time>
      </trkpt>
      <trkpt lat="36.8020220" lon="-2.9182460">
        <ele>542.8</ele>
        <time>2021-03-02T08:36:24Z</time>
      </trkpt>
      <trkpt lat="36.8020460" lon="-2.9182360">
        <ele>542.8</ele>
        <time>2021-03-02T08:36:25Z</time>
      </trkpt>
      <trkpt lat="36.8020700" lon="-2.9182240">
        <ele>543.0</ele>
        <time>2021-03-02T08:36:26Z</time>
      </trkpt>
      <trkpt lat="36.8020940" lon="-2.9182090">
        <ele>543.0</ele>
        <time>2021-03-02T08:36:27Z</time>
      </trkpt>
      <trkpt lat="36.8021150" lon="-2.9181890">
        <ele>543.0</ele>
        <time>2021-03-02T08:36:28Z</time>
      </trkpt>
      <trkpt lat="36.8021300" lon="-2.9181670">
        <ele>543.2</ele>
        <time>2021-03-02T08:36:29Z</time>
      </trkpt>
      <trkpt lat="36.8021410" lon="-2.9181450">
        <ele>543.4</ele>
        <time>2021-03-02T08:36:30Z</time>
      </trkpt>
      <trkpt lat="36.8021490" lon="-2.9181230">
        <ele>543.4</ele>
        <time>2021-03-02T08:36:31Z</time>
      </trkpt>
      <trkpt lat="36.8021540" lon="-2.9180990">
        <ele>543.6</ele>
        <time>2021-03-02T08:36:32Z</time>
      </trkpt>
      <trkpt lat="36.8021600" lon="-2.9180740">
        <ele>543.6</ele>
        <time>2021-03-02T08:36:33Z</time>
      </trkpt>
      <trkpt lat="36.8021690" lon="-2.9180480">
        <ele>543.8</ele>
        <time>2021-03-02T08:36:34Z</time>
      </trkpt>
      <trkpt lat="36.8021810" lon="-2.9180190">
        <ele>544.0</ele>
        <time>2021-03-02T08:36:35Z</time>
      </trkpt>
      <trkpt lat="36.8021940" lon="-2.9179890">
        <ele>544.0</ele>
        <time>2021-03-02T08:36:36Z</time>
      </trkpt>
      <trkpt lat="36.8022070" lon="-2.9179600">
        <ele>544.0</ele>
        <time>2021-03-02T08:36:37Z</time>
      </trkpt>
      <trkpt lat="36.8022190" lon="-2.9179340">
        <ele>544.2</ele>
        <time>2021-03-02T08:36:38Z</time>
      </trkpt>
      <trkpt lat="36.8022310" lon="-2.9179080">
        <ele>544.4</ele>
        <time>2021-03-02T08:36:39Z</time>
      </trkpt>
      <trkpt lat="36.8022420" lon="-2.9178830">
        <ele>544.4</ele>
        <time>2021-03-02T08:36:40Z</time>
      </trkpt>
      <trkpt lat="36.8022550" lon="-2.9178600">
        <ele>544.6</ele>
        <time>2021-03-02T08:36:41Z</time>
      </trkpt>
      <trkpt lat="36.8022690" lon="-2.9178390">
        <ele>545.0</ele>
        <time>2021-03-02T08:36:42Z</time>
      </trkpt>
      <trkpt lat="36.8022850" lon="-2.9178210">
        <ele>545.0</ele>
        <time>2021-03-02T08:36:43Z</time>
      </trkpt>
      <trkpt lat="36.8023030" lon="-2.9178070">
        <ele>545.2</ele>
        <time>2021-03-02T08:36:44Z</time>
      </trkpt>
      <trkpt lat="36.8023230" lon="-2.9177970">
        <ele>545.4</ele>
        <time>2021-03-02T08:36:45Z</time>
      </trkpt>
      <trkpt lat="36.8023430" lon="-2.9177910">
        <ele>545.6</ele>
        <time>2021-03-02T08:36:46Z</time>
      </trkpt>
      <trkpt lat="36.8023610" lon="-2.9177870">
        <ele>545.8</ele>
        <time>2021-03-02T08:36:47Z</time>
      </trkpt>
      <trkpt lat="36.8023760" lon="-2.9177800">
        <ele>546.2</ele>
        <time>2021-03-02T08:36:48Z</time>
      </trkpt>
      <trkpt lat="36.8023910" lon="-2.9177730">
        <ele>546.4</ele>
        <time>2021-03-02T08:36:49Z</time>
      </trkpt>
      <trkpt lat="36.8024050" lon="-2.9177640">
        <ele>546.6</ele>
        <time>2021-03-02T08:36:50Z</time>
      </trkpt>
      <trkpt lat="36.8024190" lon="-2.9177560">
        <ele>547.0</ele>
        <time>2021-03-02T08:36:51Z</time>
      </trkpt>
      <trkpt lat="36.8024340" lon="-2.9177500">
        <ele>547.2</ele>
        <time>2021-03-02T08:36:52Z</time>
      </trkpt>
      <trkpt lat="36.8024500" lon="-2.9177450">
        <ele>547.6</ele>
        <time>2021-03-02T08:36:53Z</time>
      </trkpt>
      <trkpt lat="36.8024660" lon="-2.9177410">
        <ele>547.8</ele>
        <time>2021-03-02T08:36:54Z</time>
      </trkpt>
      <trkpt lat="36.8024800" lon="-2.9177370">
        <ele>548.0</ele>
        <time>2021-03-02T08:36:55Z</time>
      </trkpt>
      <trkpt lat="36.8024950" lon="-2.9177320">
        <ele>548.2</ele>
        <time>2021-03-02T08:36:56Z</time>
      </trkpt>
      <trkpt lat="36.8025090" lon="-2.9177280">
        <ele>548.4</ele>
        <time>2021-03-02T08:36:57Z</time>
      </trkpt>
      <trkpt lat="36.8025220" lon="-2.9177270">
        <ele>548.8</ele>
        <time>2021-03-02T08:36:58Z</time>
      </trkpt>
      <trkpt lat="36.8025350" lon="-2.9177270">
        <ele>549.0</ele>
        <time>2021-03-02T08:36:59Z</time>
      </trkpt>
      <trkpt lat="36.8025480" lon="-2.9177260">
        <ele>549.2</ele>
        <time>2021-03-02T08:37:00Z</time>
      </trkpt>
      <trkpt lat="36.8025600" lon="-2.9177250">
        <ele>549.6</ele>
        <time>2021-03-02T08:37:01Z</time>
      </trkpt>
      <trkpt lat="36.8025730" lon="-2.9177240">
        <ele>549.6</ele>
        <time>2021-03-02T08:37:02Z</time>
      </trkpt>
      <trkpt lat="36.8025850" lon="-2.9177240">
        <ele>550.0</ele>
        <time>2021-03-02T08:37:03Z</time>
      </trkpt>
      <trkpt lat="36.8025980" lon="-2.9177230">
        <ele>550.0</ele>
        <time>2021-03-02T08:37:04Z</time>
      </trkpt>
      <trkpt lat="36.8026100" lon="-2.9177210">
        <ele>550.4</ele>
        <time>2021-03-02T08:37:05Z</time>
      </trkpt>
      <trkpt lat="36.8026220" lon="-2.9177180">
        <ele>550.6</ele>
        <time>2021-03-02T08:37:06Z</time>
      </trkpt>
      <trkpt lat="36.8026340" lon="-2.9177150">
        <ele>550.8</ele>
        <time>2021-03-02T08:37:07Z</time>
      </trkpt>
      <trkpt lat="36.8026470" lon="-2.9177120">
        <ele>551.2</ele>
        <time>2021-03-02T08:37:08Z</time>
      </trkpt>
      <trkpt lat="36.8026590" lon="-2.9177090">
        <ele>551.2</ele>
        <time>2021-03-02T08:37:09Z</time>
      </trkpt>
      <trkpt lat="36.8026720" lon="-2.9177080">
        <ele>551.6</ele>
        <time>2021-03-02T08:37:10Z</time>
      </trkpt>
      <trkpt lat="36.8026850" lon="-2.9177070">
        <ele>551.8</ele>
        <time>2021-03-02T08:37:11Z</time>
      </trkpt>
      <trkpt lat="36.8026980" lon="-2.9177060">
        <ele>552.2</ele>
        <time>2021-03-02T08:37:12Z</time>
      </trkpt>
      <trkpt lat="36.8027110" lon="-2.9177060">
        <ele>552.4</ele>
        <time>2021-03-02T08:37:13Z</time>
      </trkpt>
      <trkpt lat="36.8027250" lon="-2.9177070">
        <ele>552.4</ele>
        <time>2021-03-02T08:37:14Z</time>
      </trkpt>
      <trkpt lat="36.8027360" lon="-2.9177080">
        <ele>552.8</ele>
        <time>2021-03-02T08:37:15Z</time>
      </trkpt>
      <trkpt lat="36.8027490" lon="-2.9177100">
        <ele>553.0</ele>
        <time>2021-03-02T08:37:16Z</time>
      </trkpt>
      <trkpt lat="36.8027620" lon="-2.9177130">
        <ele>553.4</ele>
        <time>2021-03-02T08:37:17Z</time>
      </trkpt>
      <trkpt lat="36.8027760" lon="-2.9177170">
        <ele>553.4</ele>
        <time>2021-03-02T08:37:18Z</time>
      </trkpt>
      <trkpt lat="36.8027890" lon="-2.9177190">
        <ele>553.8</ele>
        <time>2021-03-02T08:37:19Z</time>
      </trkpt>
      <trkpt lat="36.8028020" lon="-2.9177230">
        <ele>554.2</ele>
        <time>2021-03-02T08:37:20Z</time>
      </trkpt>
      <trkpt lat="36.8028130" lon="-2.9177290">
        <ele>554.4</ele>
        <time>2021-03-02T08:37:21Z</time>
      </trkpt>
      <trkpt lat="36.8028220" lon="-2.9177370">
        <ele>554.6</ele>
        <time>2021-03-02T08:37:22Z</time>
      </trkpt>
      <trkpt lat="36.8028320" lon="-2.9177470">
        <ele>554.8</ele>
        <time>2021-03-02T08:37:23Z</time>
      </trkpt>
      <trkpt lat="36.8028430" lon="-2.9177570">
        <ele>555.2</ele>
        <time>2021-03-02T08:37:24Z</time>
      </trkpt>
      <trkpt lat="36.8028530" lon="-2.9177670">
        <ele>555.6</ele>
        <time>2021-03-02T08:37:25Z</time>
      </trkpt>
      <trkpt lat="36.8028630" lon="-2.9177780">
        <ele>555.6</ele>
        <time>2021-03-02T08:37:26Z</time>
      </trkpt>
      <trkpt lat="36.8028720" lon="-2.9177880">
        <ele>556.0</ele>
        <time>2021-03-02T08:37:27Z</time>
      </trkpt>
      <trkpt lat="36.8028830" lon="-2.9177960">
        <ele>556.2</ele>
        <time>2021-03-02T08:37:28Z</time>
      </trkpt>
      <trkpt lat="36.8028920" lon="-2.9178060">
        <ele>556.6</ele>
        <time>2021-03-02T08:37:29Z</time>
      </trkpt>
      <trkpt lat="36.8029010" lon="-2.9178160">
        <ele>556.6</ele>
        <time>2021-03-02T08:37:30Z</time>
      </trkpt>
      <trkpt lat="36.8029110" lon="-2.9178270">
        <ele>557.0</ele>
        <time>2021-03-02T08:37:31Z</time>
      </trkpt>
      <trkpt lat="36.8029200" lon="-2.9178370">
        <ele>557.2</ele>
        <time>2021-03-02T08:37:32Z</time>
      </trkpt>
      <trkpt lat="36.8029300" lon="-2.9178470">
        <ele>557.4</ele>
        <time>2021-03-02T08:37:33Z</time>
      </trkpt>
      <trkpt lat="36.8029400" lon="-2.9178570">
        <ele>557.8</ele>
        <time>2021-03-02T08:37:34Z</time>
      </trkpt>
      <trkpt lat="36.8029510" lon="-2.9178670">
        <ele>557.8</ele>
        <time>2021-03-02T08:37:35Z</time>
      </trkpt>
      <trkpt lat="36.8029620" lon="-2.9178770">
        <ele>558.2</ele>
        <time>2021-03-02T08:37:36Z</time>
      </trkpt>
      <trkpt lat="36.8029730" lon="-2.9178870">
        <ele>558.2</ele>
        <time>2021-03-02T08:37:37Z</time>
      </trkpt>
      <trkpt lat="36.8029850" lon="-2.9178960">
        <ele>558.6</ele>
        <time>2021-03-02T08:37:38Z</time>
      </trkpt>
      <trkpt lat="36.8029980" lon="-2.9179040">
        <ele>559.0</ele>
        <time>2021-03-02T08:37:39Z</time>
      </trkpt>
      <trkpt lat="36.8030100" lon="-2.9179120">
        <ele>559.0</ele>
        <time>2021-03-02T08:37:40Z</time>
      </trkpt>
      <trkpt lat="36.8030230" lon="-2.9179200">
        <ele>559.2</ele>
        <time>2021-03-02T08:37:41Z</time>
      </trkpt>
      <trkpt lat="36.8030380" lon="-2.9179280">
        <ele>559.2</ele>
        <time>2021-03-02T08:37:42Z</time>
      </trkpt>
      <trkpt lat="36.8030540" lon="-2.9179370">
        <ele>559.4</ele>
        <time>2021-03-02T08:37:43Z</time>
      </trkpt>
      <trkpt lat="36.8030720" lon="-2.9179470">
        <ele>559.6</ele>
        <time>2021-03-02T08:37:44Z</time>
      </trkpt>
      <trkpt lat="36.8030920" lon="-2.9179570">
        <ele>559.6</ele>
        <time>2021-03-02T08:37:45Z</time>
      </trkpt>
      <trkpt lat="36.8031110" lon="-2.9179660">
        <ele>560.0</ele>
        <time>2021-03-02T08:37:46Z</time>
      </trkpt>
      <trkpt lat="36.8031320" lon="-2.9179740">
        <ele>560.0</ele>
        <time>2021-03-02T08:37:47Z</time>
      </trkpt>
      <trkpt lat="36.8031550" lon="-2.9179820">
        <ele>560.2</ele>
        <time>2021-03-02T08:37:48Z</time>
      </trkpt>
      <trkpt lat="36.8031800" lon="-2.9179910">
        <ele>560.2</ele>
        <time>2021-03-02T08:37:49Z</time>
      </trkpt>
      <trkpt lat="36.8032090" lon="-2.9179990">
        <ele>560.4</ele>
        <time>2021-03-02T08:37:50Z</time>
      </trkpt>
      <trkpt lat="36.8032440" lon="-2.9180070">
        <ele>560.2</ele>
        <time>2021-03-02T08:37:51Z</time>
      </trkpt>
      <trkpt lat="36.8032820" lon="-2.9180020">
        <ele>560.0</ele>
        <time>2021-03-02T08:37:52Z</time>
      </trkpt>
      <trkpt lat="36.8033240" lon="-2.9179760">
        <ele>559.4</ele>
        <time>2021-03-02T08:37:53Z</time>
      </trkpt>
      <trkpt lat="36.8033610" lon="-2.9179340">
        <ele>559.2</ele>
        <time>2021-03-02T08:37:54Z</time>
      </trkpt>
      <trkpt lat="36.8033950" lon="-2.9179000">
        <ele>558.8</ele>
        <time>2021-03-02T08:37:55Z</time>
      </trkpt>
      <trkpt lat="36.8034270" lon="-2.9178840">
        <ele>558.6</ele>
        <time>2021-03-02T08:37:56Z</time>
      </trkpt>
      <trkpt lat="36.8034540" lon="-2.9178790">
        <ele>558.8</ele>
        <time>2021-03-02T08:37:57Z</time>
      </trkpt>
      <trkpt lat="36.8034750" lon="-2.9178770">
        <ele>559.4</ele>
        <time>2021-03-02T08:37:58Z</time>
      </trkpt>
      <trkpt lat="36.8034950" lon="-2.9178770">
        <ele>559.8</ele>
        <time>2021-03-02T08:37:59Z</time>
      </trkpt>
      <trkpt lat="36.8035140" lon="-2.9178800">
        <ele>560.2</ele>
        <time>2021-03-02T08:38:00Z</time>
      </trkpt>
      <trkpt lat="36.8035320" lon="-2.9178850">
        <ele>560.4</ele>
        <time>2021-03-02T08:38:01Z</time>
      </trkpt>
      <trkpt lat="36.8035490" lon="-2.9178890">
        <ele>560.6</ele>
        <time>2021-03-02T08:38:02Z</time>
      </trkpt>
      <trkpt lat="36.8035700" lon="-2.9178930">
        <ele>561.0</ele>
        <time>2021-03-02T08:38:03Z</time>
      </trkpt>
      <trkpt lat="36.8035900" lon="-2.9178970">
        <ele>561.0</ele>
        <time>2021-03-02T08:38:04Z</time>
      </trkpt>
      <trkpt lat="36.8036090" lon="-2.9178990">
        <ele>561.2</ele>
        <time>2021-03-02T08:38:05Z</time>
      </trkpt>
      <trkpt lat="36.8036290" lon="-2.9178980">
        <ele>561.4</ele>
        <time>2021-03-02T08:38:06Z</time>
      </trkpt>
      <trkpt lat="36.8036480" lon="-2.9178980">
        <ele>561.6</ele>
        <time>2021-03-02T08:38:07Z</time>
      </trkpt>
      <trkpt lat="36.8036670" lon="-2.9178960">
        <ele>561.8</ele>
        <time>2021-03-02T08:38:08Z</time>
      </trkpt>
      <trkpt lat="36.8036860" lon="-2.9178940">
        <ele>562.0</ele>
        <time>2021-03-02T08:38:09Z</time>
      </trkpt>
      <trkpt lat="36.8037080" lon="-2.9178920">
        <ele>562.2</ele>
        <time>2021-03-02T08:38:10Z</time>
      </trkpt>
      <trkpt lat="36.8037250" lon="-2.9178890">
        <ele>562.4</ele>
        <time>2021-03-02T08:38:11Z</time>
      </trkpt>
      <trkpt lat="36.8037410" lon="-2.9178860">
        <ele>562.8</ele>
        <time>2021-03-02T08:38:12Z</time>
      </trkpt>
      <trkpt lat="36.8037570" lon="-2.9178830">
        <ele>563.0</ele>
        <time>2021-03-02T08:38:13Z</time>
      </trkpt>
      <trkpt lat="36.8037760" lon="-2.9178770">
        <ele>563.0</ele>
        <time>2021-03-02T08:38:14Z</time>
      </trkpt>
      <trkpt lat="36.8037950" lon="-2.9178710">
        <ele>563.2</ele>
        <time>2021-03-02T08:38:15Z</time>
      </trkpt>
      <trkpt lat="36.8038120" lon="-2.9178650">
        <ele>563.2</ele>
        <time>2021-03-02T08:38:16Z</time>
      </trkpt>
      <trkpt lat="36.8038310" lon="-2.9178590">
        <ele>563.4</ele>
        <time>2021-03-02T08:38:17Z</time>
      </trkpt>
      <trkpt lat="36.8038510" lon="-2.9178520">
        <ele>563.6</ele>
        <time>2021-03-02T08:38:18Z</time>
      </trkpt>
      <trkpt lat="36.8038710" lon="-2.9178430">
        <ele>563.8</ele>
        <time>2021-03-02T08:38:19Z</time>
      </trkpt>
      <trkpt lat="36.8038910" lon="-2.9178340">
        <ele>563.8</ele>
        <time>2021-03-02T08:38:20Z</time>
      </trkpt>
      <trkpt lat="36.8039140" lon="-2.9178220">
        <ele>564.0</ele>
        <time>2021-03-02T08:38:21Z</time>
      </trkpt>
      <trkpt lat="36.8039370" lon="-2.9178080">
        <ele>564.2</ele>
        <time>2021-03-02T08:38:22Z</time>
      </trkpt>
      <trkpt lat="36.8039590" lon="-2.9177920">
        <ele>564.2</ele>
        <time>2021-03-02T08:38:23Z</time>
      </trkpt>
      <trkpt lat="36.8039780" lon="-2.9177750">
        <ele>564.4</ele>
        <time>2021-03-02T08:38:24Z</time>
      </trkpt>
      <trkpt lat="36.8039950" lon="-2.9177590">
        <ele>564.4</ele>
        <time>2021-03-02T08:38:25Z</time>
      </trkpt>
      <trkpt lat="36.8040120" lon="-2.9177450">
        <ele>564.6</ele>
        <time>2021-03-02T08:38:26Z</time>
      </trkpt>
      <trkpt lat="36.8040310" lon="-2.9177310">
        <ele>564.8</ele>
        <time>2021-03-02T08:38:27Z</time>
      </trkpt>
      <trkpt lat="36.8040510" lon="-2.9177160">
        <ele>565.0</ele>
        <time>2021-03-02T08:38:28Z</time>
      </trkpt>
      <trkpt lat="36.8040700" lon="-2.9177020">
        <ele>565.4</ele>
        <time>2021-03-02T08:38:29Z</time>
      </trkpt>
      <trkpt lat="36.8040890" lon="-2.9176880">
        <ele>565.4</ele>
        <time>2021-03-02T08:38:30Z</time>
      </trkpt>
      <trkpt lat="36.8041100" lon="-2.9176720">
        <ele>565.6</ele>
        <time>2021-03-02T08:38:31Z</time>
      </trkpt>
      <trkpt lat="36.8041320" lon="-2.9176560">
        <ele>565.8</ele>
        <time>2021-03-02T08:38:32Z</time>
      </trkpt>
      <trkpt lat="36.8041550" lon="-2.9176420">
        <ele>565.8</ele>
        <time>2021-03-02T08:38:33Z</time>
      </trkpt>
      <trkpt lat="36.8041770" lon="-2.9176280">
        <ele>566.0</ele>
        <time>2021-03-02T08:38:34Z</time>
      </trkpt>
      <trkpt lat="36.8041970" lon="-2.9176140">
        <ele>566.2</ele>
        <time>2021-03-02T08:38:35Z</time>
      </trkpt>
      <trkpt lat="36.8042190" lon="-2.9175990">
        <ele>566.2</ele>
        <time>2021-03-02T08:38:36Z</time>
      </trkpt>
      <trkpt lat="36.8042410" lon="-2.9175830">
        <ele>566.4</ele>
        <time>2021-03-02T08:38:37Z</time>
      </trkpt>
      <trkpt lat="36.8042630" lon="-2.9175660">
        <ele>566.6</ele>
        <time>2021-03-02T08:38:38Z</time>
      </trkpt>
      <trkpt lat="36.8042870" lon="-2.9175500">
        <ele>566.6</ele>
        <time>2021-03-02T08:38:39Z</time>
      </trkpt>
      <trkpt lat="36.8043130" lon="-2.9175350">
        <ele>566.8</ele>
        <time>2021-03-02T08:38:40Z</time>
      </trkpt>
      <trkpt lat="36.8043390" lon="-2.9175170">
        <ele>566.8</ele>
        <time>2021-03-02T08:38:41Z</time>
      </trkpt>
      <trkpt lat="36.8043680" lon="-2.9175010">
        <ele>566.8</ele>
        <time>2021-03-02T08:38:42Z</time>
      </trkpt>
      <trkpt lat="36.8043990" lon="-2.9174850">
        <ele>566.8</ele>
        <time>2021-03-02T08:38:43Z</time>
      </trkpt>
      <trkpt lat="36.8044320" lon="-2.9174680">
        <ele>566.8</ele>
        <time>2021-03-02T08:38:44Z</time>
      </trkpt>
      <trkpt lat="36.8044670" lon="-2.9174550">
        <ele>566.8</ele>
        <time>2021-03-02T08:38:45Z</time>
      </trkpt>
      <trkpt lat="36.8045100" lon="-2.9174440">
        <ele>566.8</ele>
        <time>2021-03-02T08:38:46Z</time>
      </trkpt>
      <trkpt lat="36.8045570" lon="-2.9174340">
        <ele>566.6</ele>
        <time>2021-03-02T08:38:47Z</time>
      </trkpt>
      <trkpt lat="36.8046100" lon="-2.9174260">
        <ele>566.2</ele>
        <time>2021-03-02T08:38:48Z</time>
      </trkpt>
      <trkpt lat="36.8046630" lon="-2.9174110">
        <ele>566.0</ele>
        <time>2021-03-02T08:38:49Z</time>
      </trkpt>
      <trkpt lat="36.8047140" lon="-2.9173870">
        <ele>565.6</ele>
        <time>2021-03-02T08:38:50Z</time>
      </trkpt>
      <trkpt lat="36.8047530" lon="-2.9173580">
        <ele>565.4</ele>
        <time>2021-03-02T08:38:51Z</time>
      </trkpt>
      <trkpt lat="36.8047820" lon="-2.9173300">
        <ele>565.4</ele>
        <time>2021-03-02T08:38:52Z</time>
      </trkpt>
      <trkpt lat="36.8048080" lon="-2.9173090">
        <ele>565.6</ele>
        <time>2021-03-02T08:38:53Z</time>
      </trkpt>
      <trkpt lat="36.8048330" lon="-2.9172950">
        <ele>566.0</ele>
        <time>2021-03-02T08:38:54Z</time>
      </trkpt>
      <trkpt lat="36.8048560" lon="-2.9172830">
        <ele>566.4</ele>
        <time>2021-03-02T08:38:55Z</time>
      </trkpt>
      <trkpt lat="36.8048790" lon="-2.9172700">
        <ele>566.6</ele>
        <time>2021-03-02T08:38:56Z</time>
      </trkpt>
      <trkpt lat="36.8049040" lon="-2.9172570">
        <ele>567.0</ele>
        <time>2021-03-02T08:38:57Z</time>
      </trkpt>
      <trkpt lat="36.8049310" lon="-2.9172490">
        <ele>567.2</ele>
        <time>2021-03-02T08:38:58Z</time>
      </trkpt>
      <trkpt lat="36.8049600" lon="-2.9172430">
        <ele>567.2</ele>
        <time>2021-03-02T08:38:59Z</time>
      </trkpt>
      <trkpt lat="36.8049900" lon="-2.9172370">
        <ele>567.4</ele>
        <time>2021-03-02T08:39:00Z</time>
      </trkpt>
      <trkpt lat="36.8050210" lon="-2.9172290">
        <ele>567.4</ele>
        <time>2021-03-02T08:39:01Z</time>
      </trkpt>
      <trkpt lat="36.8050540" lon="-2.9172220">
        <ele>567.2</ele>
        <time>2021-03-02T08:39:02Z</time>
      </trkpt>
      <trkpt lat="36.8050880" lon="-2.9172160">
        <ele>567.2</ele>
        <time>2021-03-02T08:39:03Z</time>
      </trkpt>
      <trkpt lat="36.8051250" lon="-2.9172100">
        <ele>567.2</ele>
        <time>2021-03-02T08:39:04Z</time>
      </trkpt>
      <trkpt lat="36.8051650" lon="-2.9172020">
        <ele>567.2</ele>
        <time>2021-03-02T08:39:05Z</time>
      </trkpt>
      <trkpt lat="36.8052050" lon="-2.9171930">
        <ele>567.4</ele>
        <time>2021-03-02T08:39:06Z</time>
      </trkpt>
      <trkpt lat="36.8052440" lon="-2.9171860">
        <ele>567.6</ele>
        <time>2021-03-02T08:39:07Z</time>
      </trkpt>
      <trkpt lat="36.8052820" lon="-2.9171810">
        <ele>567.6</ele>
        <time>2021-03-02T08:39:08Z</time>
      </trkpt>
      <trkpt lat="36.8053180" lon="-2.9171740">
        <ele>567.8</ele>
        <time>2021-03-02T08:39:09Z</time>
      </trkpt>
      <trkpt lat="36.8053550" lon="-2.9171640">
        <ele>567.8</ele>
        <time>2021-03-02T08:39:10Z</time>
      </trkpt>
      <trkpt lat="36.8053910" lon="-2.9171560">
        <ele>567.8</ele>
        <time>2021-03-02T08:39:11Z</time>
      </trkpt>
      <trkpt lat="36.8054260" lon="-2.9171470">
        <ele>567.8</ele>
        <time>2021-03-02T08:39:12Z</time>
      </trkpt>
      <trkpt lat="36.8054610" lon="-2.9171400">
        <ele>567.8</ele>
        <time>2021-03-02T08:39:13Z</time>
      </trkpt>
      <trkpt lat="36.8054970" lon="-2.9171310">
        <ele>568.0</ele>
        <time>2021-03-02T08:39:14Z</time>
      </trkpt>
      <trkpt lat="36.8055340" lon="-2.9171260">
        <ele>568.0</ele>
        <time>2021-03-02T08:39:15Z</time>
      </trkpt>
      <trkpt lat="36.8055700" lon="-2.9171180">
        <ele>568.2</ele>
        <time>2021-03-02T08:39:16Z</time>
      </trkpt>
      <trkpt lat="36.8056070" lon="-2.9171100">
        <ele>568.4</ele>
        <time>2021-03-02T08:39:17Z</time>
      </trkpt>
      <trkpt lat="36.8056420" lon="-2.9170980">
        <ele>568.4</ele>
        <time>2021-03-02T08:39:18Z</time>
      </trkpt>
      <trkpt lat="36.8056760" lon="-2.9170830">
        <ele>568.6</ele>
        <time>2021-03-02T08:39:19Z</time>
      </trkpt>
      <trkpt lat="36.8057090" lon="-2.9170640">
        <ele>568.8</ele>
        <time>2021-03-02T08:39:20Z</time>
      </trkpt>
      <trkpt lat="36.8057390" lon="-2.9170400">
        <ele>568.8</ele>
        <time>2021-03-02T08:39:21Z</time>
      </trkpt>
      <trkpt lat="36.8057670" lon="-2.9170140">
        <ele>569.0</ele>
        <time>2021-03-02T08:39:22Z</time>
      </trkpt>
      <trkpt lat="36.8057940" lon="-2.9169880">
        <ele>569.0</ele>
        <time>2021-03-02T08:39:23Z</time>
      </trkpt>
      <trkpt lat="36.8058220" lon="-2.9169630">
        <ele>569.0</ele>
        <time>2021-03-02T08:39:24Z</time>
      </trkpt>
      <trkpt lat="36.8058520" lon="-2.9169420">
        <ele>569.2</ele>
        <time>2021-03-02T08:39:25Z</time>
      </trkpt>
      <trkpt lat="36.8058860" lon="-2.9169290">
        <ele>569.4</ele>
        <time>2021-03-02T08:39:26Z</time>
      </trkpt>
      <trkpt lat="36.8059230" lon="-2.9169280">
        <ele>569.4</ele>
        <time>2021-03-02T08:39:27Z</time>
      </trkpt>
      <trkpt lat="36.8059610" lon="-2.9169300">
        <ele>569.4</ele>
        <time>2021-03-02T08:39:28Z</time>
      </trkpt>
      <trkpt lat="36.8060000" lon="-2.9169290">
        <ele>569.4</ele>
        <time>2021-03-02T08:39:29Z</time>
      </trkpt>
      <trkpt lat="36.8060410" lon="-2.9169250">
        <ele>569.4</ele>
        <time>2021-03-02T08:39:30Z</time>
      </trkpt>
      <trkpt lat="36.8060810" lon="-2.9169170">
        <ele>569.4</ele>
        <time>2021-03-02T08:39:31Z</time>
      </trkpt>
      <trkpt lat="36.8061200" lon="-2.9169080">
        <ele>569.4</ele>
        <time>2021-03-02T08:39:32Z</time>
      </trkpt>
      <trkpt lat="36.8061580" lon="-2.9169000">
        <ele>569.4</ele>
        <time>2021-03-02T08:39:33Z</time>
      </trkpt>
      <trkpt lat="36.8061960" lon="-2.9168910">
        <ele>569.4</ele>
        <time>2021-03-02T08:39:34Z</time>
      </trkpt>
      <trkpt lat="36.8062340" lon="-2.9168820">
        <ele>569.4</ele>
        <time>2021-03-02T08:39:35Z</time>
      </trkpt>
      <trkpt lat="36.8062700" lon="-2.9168720">
        <ele>569.6</ele>
        <time>2021-03-02T08:39:36Z</time>
      </trkpt>
      <trkpt lat="36.8063060" lon="-2.9168600">
        <ele>569.6</ele>
        <time>2021-03-02T08:39:37Z</time>
      </trkpt>
      <trkpt lat="36.8063410" lon="-2.9168480">
        <ele>569.8</ele>
        <time>2021-03-02T08:39:38Z</time>
      </trkpt>
      <trkpt lat="36.8063750" lon="-2.9168390">
        <ele>570.0</ele>
        <time>2021-03-02T08:39:39Z</time>
      </trkpt>
      <trkpt lat="36.8064100" lon="-2.9168350">
        <ele>570.4</ele>
        <time>2021-03-02T08:39:40Z</time>
      </trkpt>
      <trkpt lat="36.8064450" lon="-2.9168420">
        <ele>570.4</ele>
        <time>2021-03-02T08:39:41Z</time>
      </trkpt>
      <trkpt lat="36.8064780" lon="-2.9168610">
        <ele>570.6</ele>
        <time>2021-03-02T08:39:42Z</time>
      </trkpt>
      <trkpt lat="36.8065110" lon="-2.9168850">
        <ele>570.6</ele>
        <time>2021-03-02T08:39:43Z</time>
      </trkpt>
      <trkpt lat="36.8065490" lon="-2.9169020">
        <ele>570.6</ele>
        <time>2021-03-02T08:39:44Z</time>
      </trkpt>
      <trkpt lat="36.8065890" lon="-2.9169040">
        <ele>570.6</ele>
        <time>2021-03-02T08:39:45Z</time>
      </trkpt>
      <trkpt lat="36.8066240" lon="-2.9168870">
        <ele>570.6</ele>
        <time>2021-03-02T08:39:46Z</time>
      </trkpt>
      <trkpt lat="36.8066520" lon="-2.9168570">
        <ele>570.6</ele>
        <time>2021-03-02T08:39:47Z</time>
      </trkpt>
      <trkpt lat="36.8066750" lon="-2.9168210">
        <ele>570.6</ele>
        <time>2021-03-02T08:39:48Z</time>
      </trkpt>
      <trkpt lat="36.8066940" lon="-2.9167830">
        <ele>570.8</ele>
        <time>2021-03-02T08:39:49Z</time>
      </trkpt>
      <trkpt lat="36.8067120" lon="-2.9167450">
        <ele>570.8</ele>
        <time>2021-03-02T08:39:50Z</time>
      </trkpt>
      <trkpt lat="36.8067310" lon="-2.9167090">
        <ele>570.8</ele>
        <time>2021-03-02T08:39:51Z</time>
      </trkpt>
      <trkpt lat="36.8067510" lon="-2.9166790">
        <ele>571.0</ele>
        <time>2021-03-02T08:39:52Z</time>
      </trkpt>
      <trkpt lat="36.8067720" lon="-2.9166510">
        <ele>571.2</ele>
        <time>2021-03-02T08:39:53Z</time>
      </trkpt>
      <trkpt lat="36.8067940" lon="-2.9166240">
        <ele>571.4</ele>
        <time>2021-03-02T08:39:54Z</time>
      </trkpt>
      <trkpt lat="36.8068160" lon="-2.9165980">
        <ele>571.6</ele>
        <time>2021-03-02T08:39:55Z</time>
      </trkpt>
      <trkpt lat="36.8068380" lon="-2.9165730">
        <ele>571.8</ele>
        <time>2021-03-02T08:39:56Z</time>
      </trkpt>
      <trkpt lat="36.8068620" lon="-2.9165500">
        <ele>572.0</ele>
        <time>2021-03-02T08:39:57Z</time>
      </trkpt>
      <trkpt lat="36.8068900" lon="-2.9165300">
        <ele>572.0</ele>
        <time>2021-03-02T08:39:58Z</time>
      </trkpt>
      <trkpt lat="36.8069180" lon="-2.9165140">
        <ele>572.2</ele>
        <time>2021-03-02T08:39:59Z</time>
      </trkpt>
      <trkpt lat="36.8069490" lon="-2.9164980">
        <ele>572.4</ele>
        <time>2021-03-02T08:40:00Z</time>
      </trkpt>
      <trkpt lat="36.8069790" lon="-2.9164840">
        <ele>572.6</ele>
        <time>2021-03-02T08:40:01Z</time>
      </trkpt>
      <trkpt lat="36.8070090" lon="-2.9164660">
        <ele>572.6</ele>
        <time>2021-03-02T08:40:02Z</time>
      </trkpt>
      <trkpt lat="36.8070370" lon="-2.9164450">
        <ele>572.6</ele>
        <time>2021-03-02T08:40:03Z</time>
      </trkpt>
      <trkpt lat="36.8070640" lon="-2.9164220">
        <ele>572.8</ele>
        <time>2021-03-02T08:40:04Z</time>
      </trkpt>
      <trkpt lat="36.8070890" lon="-2.9163990">
        <ele>573.0</ele>
        <time>2021-03-02T08:40:05Z</time>
      </trkpt>
      <trkpt lat="36.8071140" lon="-2.9163790">
        <ele>573.2</ele>
        <time>2021-03-02T08:40:06Z</time>
      </trkpt>
      <trkpt lat="36.8071420" lon="-2.9163620">
        <ele>573.4</ele>
        <time>2021-03-02T08:40:07Z</time>
      </trkpt>
      <trkpt lat="36.8071690" lon="-2.9163480">
        <ele>573.6</ele>
        <time>2021-03-02T08:40:08Z</time>
      </trkpt>
      <trkpt lat="36.8071980" lon="-2.9163340">
        <ele>573.6</ele>
        <time>2021-03-02T08:40:09Z</time>
      </trkpt>
      <trkpt lat="36.8072260" lon="-2.9163160">
        <ele>573.6</ele>
        <time>2021-03-02T08:40:10Z</time>
      </trkpt>
      <trkpt lat="36.8072490" lon="-2.9162930">
        <ele>573.8</ele>
        <time>2021-03-02T08:40:11Z</time>
      </trkpt>
      <trkpt lat="36.8072760" lon="-2.9162700">
        <ele>574.0</ele>
        <time>2021-03-02T08:40:12Z</time>
      </trkpt>
      <trkpt lat="36.8073030" lon="-2.9162480">
        <ele>574.0</ele>
        <time>2021-03-02T08:40:13Z</time>
      </trkpt>
      <trkpt lat="36.8073330" lon="-2.9162280">
        <ele>574.0</ele>
        <time>2021-03-02T08:40:14Z</time>
      </trkpt>
      <trkpt lat="36.8073640" lon="-2.9162120">
        <ele>574.2</ele>
        <time>2021-03-02T08:40:15Z</time>
      </trkpt>
      <trkpt lat="36.8073960" lon="-2.9161960">
        <ele>574.4</ele>
        <time>2021-03-02T08:40:16Z</time>
      </trkpt>
      <trkpt lat="36.8074270" lon="-2.9161800">
        <ele>574.4</ele>
        <time>2021-03-02T08:40:17Z</time>
      </trkpt>
      <trkpt lat="36.8074600" lon="-2.9161660">
        <ele>574.6</ele>
        <time>2021-03-02T08:40:18Z</time>
      </trkpt>
      <trkpt lat="36.8074910" lon="-2.9161490">
        <ele>574.6</ele>
        <time>2021-03-02T08:40:19Z</time>
      </trkpt>
      <trkpt lat="36.8075180" lon="-2.9161250">
        <ele>574.8</ele>
        <time>2021-03-02T08:40:20Z</time>
      </trkpt>
      <trkpt lat="36.8075340" lon="-2.9160950">
        <ele>574.8</ele>
        <time>2021-03-02T08:40:21Z</time>
      </trkpt>
      <trkpt lat="36.8075400" lon="-2.9160600">
        <ele>575.0</ele>
        <time>2021-03-02T08:40:22Z</time>
      </trkpt>
      <trkpt lat="36.8075400" lon="-2.9160290">
        <ele>575.2</ele>
        <time>2021-03-02T08:40:23Z</time>
      </trkpt>
      <trkpt lat="36.8075350" lon="-2.9159980">
        <ele>575.4</ele>
        <time>2021-03-02T08:40:24Z</time>
      </trkpt>
      <trkpt lat="36.8075270" lon="-2.9159690">
        <ele>575.6</ele>
        <time>2021-03-02T08:40:25Z</time>
      </trkpt>
      <trkpt lat="36.8075210" lon="-2.9159400">
        <ele>575.8</ele>
        <time>2021-03-02T08:40:26Z</time>
      </trkpt>
      <trkpt lat="36.8075180" lon="-2.9159130">
        <ele>576.0</ele>
        <time>2021-03-02T08:40:27Z</time>
      </trkpt>
      <trkpt lat="36.8075160" lon="-2.9158850">
        <ele>576.0</ele>
        <time>2021-03-02T08:40:28Z</time>
      </trkpt>
      <trkpt lat="36.8075150" lon="-2.9158590">
        <ele>576.4</ele>
        <time>2021-03-02T08:40:29Z</time>
      </trkpt>
      <trkpt lat="36.8075150" lon="-2.9158330">
        <ele>576.6</ele>
        <time>2021-03-02T08:40:30Z</time>
      </trkpt>
      <trkpt lat="36.8075150" lon="-2.9158070">
        <ele>576.8</ele>
        <time>2021-03-02T08:40:31Z</time>
      </trkpt>
      <trkpt lat="36.8075130" lon="-2.9157800">
        <ele>577.0</ele>
        <time>2021-03-02T08:40:32Z</time>
      </trkpt>
      <trkpt lat="36.8075100" lon="-2.9157530">
        <ele>577.0</ele>
        <time>2021-03-02T08:40:33Z</time>
      </trkpt>
      <trkpt lat="36.8075050" lon="-2.9157280">
        <ele>577.2</ele>
        <time>2021-03-02T08:40:34Z</time>
      </trkpt>
      <trkpt lat="36.8075010" lon="-2.9157010">
        <ele>577.6</ele>
        <time>2021-03-02T08:40:35Z</time>
      </trkpt>
      <trkpt lat="36.8074980" lon="-2.9156750">
        <ele>577.8</ele>
        <time>2021-03-02T08:40:36Z</time>
      </trkpt>
      <trkpt lat="36.8074940" lon="-2.9156500">
        <ele>578.0</ele>
        <time>2021-03-02T08:40:37Z</time>
      </trkpt>
      <trkpt lat="36.8074910" lon="-2.9156250">
        <ele>578.2</ele>
        <time>2021-03-02T08:40:38Z</time>
      </trkpt>
      <trkpt lat="36.8074870" lon="-2.9156000">
        <ele>578.6</ele>
        <time>2021-03-02T08:40:39Z</time>
      </trkpt>
      <trkpt lat="36.8074830" lon="-2.9155750">
        <ele>578.8</ele>
        <time>2021-03-02T08:40:40Z</time>
      </trkpt>
      <trkpt lat="36.8074810" lon="-2.9155510">
        <ele>579.0</ele>
        <time>2021-03-02T08:40:41Z</time>
      </trkpt>
      <trkpt lat="36.8074790" lon="-2.9155270">
        <ele>579.2</ele>
        <time>2021-03-02T08:40:42Z</time>
      </trkpt>
      <trkpt lat="36.8074780" lon="-2.9155030">
        <ele>579.4</ele>
        <time>2021-03-02T08:40:43Z</time>
      </trkpt>
      <trkpt lat="36.8074770" lon="-2.9154790">
        <ele>579.6</ele>
        <time>2021-03-02T08:40:44Z</time>
      </trkpt>
      <trkpt lat="36.8074770" lon="-2.9154540">
        <ele>579.8</ele>
        <time>2021-03-02T08:40:45Z</time>
      </trkpt>
      <trkpt lat="36.8074750" lon="-2.9154290">
        <ele>580.0</ele>
        <time>2021-03-02T08:40:46Z</time>
      </trkpt>
      <trkpt lat="36.8074730" lon="-2.9154050">
        <ele>580.2</ele>
        <time>2021-03-02T08:40:47Z</time>
      </trkpt>
      <trkpt lat="36.8074720" lon="-2.9153800">
        <ele>580.4</ele>
        <time>2021-03-02T08:40:48Z</time>
      </trkpt>
      <trkpt lat="36.8074730" lon="-2.9153570">
        <ele>580.6</ele>
        <time>2021-03-02T08:40:49Z</time>
      </trkpt>
      <trkpt lat="36.8074770" lon="-2.9153350">
        <ele>580.6</ele>
        <time>2021-03-02T08:40:50Z</time>
      </trkpt>
      <trkpt lat="36.8074780" lon="-2.9153130">
        <ele>580.8</ele>
        <time>2021-03-02T08:40:51Z</time>
      </trkpt>
      <trkpt lat="36.8074770" lon="-2.9152930">
        <ele>581.0</ele>
        <time>2021-03-02T08:40:52Z</time>
      </trkpt>
      <trkpt lat="36.8074760" lon="-2.9152740">
        <ele>581.4</ele>
        <time>2021-03-02T08:40:53Z</time>
      </trkpt>
      <trkpt lat="36.8074740" lon="-2.9152570">
        <ele>581.6</ele>
        <time>2021-03-02T08:40:54Z</time>
      </trkpt>
      <trkpt lat="36.8074710" lon="-2.9152400">
        <ele>581.8</ele>
        <time>2021-03-02T08:40:55Z</time>
      </trkpt>
      <trkpt lat="36.8074650" lon="-2.9152210">
        <ele>582.0</ele>
        <time>2021-03-02T08:40:56Z</time>
      </trkpt>
      <trkpt lat="36.8074580" lon="-2.9152010">
        <ele>582.2</ele>
        <time>2021-03-02T08:40:57Z</time>
      </trkpt>
      <trkpt lat="36.8074540" lon="-2.9151830">
        <ele>582.6</ele>
        <time>2021-03-02T08:40:58Z</time>
      </trkpt>
      <trkpt lat="36.8074510" lon="-2.9151670">
        <ele>582.6</ele>
        <time>2021-03-02T08:40:59Z</time>
      </trkpt>
      <trkpt lat="36.8074490" lon="-2.9151490">
        <ele>582.8</ele>
        <time>2021-03-02T08:41:00Z</time>
      </trkpt>
      <trkpt lat="36.8074480" lon="-2.9151310">
        <ele>583.0</ele>
        <time>2021-03-02T08:41:01Z</time>
      </trkpt>
      <trkpt lat="36.8074440" lon="-2.9151120">
        <ele>583.0</ele>
        <time>2021-03-02T08:41:02Z</time>
      </trkpt>
      <trkpt lat="36.8074410" lon="-2.9150950">
        <ele>583.4</ele>
        <time>2021-03-02T08:41:03Z</time>
      </trkpt>
      <trkpt lat="36.8074420" lon="-2.9150780">
        <ele>583.6</ele>
        <time>2021-03-02T08:41:04Z</time>
      </trkpt>
      <trkpt lat="36.8074430" lon="-2.9150600">
        <ele>584.0</ele>
        <time>2021-03-02T08:41:05Z</time>
      </trkpt>
      <trkpt lat="36.8074430" lon="-2.9150420">
        <ele>584.2</ele>
        <time>2021-03-02T08:41:06Z</time>
      </trkpt>
      <trkpt lat="36.8074420" lon="-2.9150240">
        <ele>584.4</ele>
        <time>2021-03-02T08:41:07Z</time>
      </trkpt>
      <trkpt lat="36.8074410" lon="-2.9150060">
        <ele>584.6</ele>
        <time>2021-03-02T08:41:08Z</time>
      </trkpt>
      <trkpt lat="36.8074410" lon="-2.9149880">
        <ele>584.6</ele>
        <time>2021-03-02T08:41:09Z</time>
      </trkpt>
      <trkpt lat="36.8074410" lon="-2.9149690">
        <ele>585.0</ele>
        <time>2021-03-02T08:41:10Z</time>
      </trkpt>
      <trkpt lat="36.8074390" lon="-2.9149510">
        <ele>585.0</ele>
        <time>2021-03-02T08:41:11Z</time>
      </trkpt>
      <trkpt lat="36.8074370" lon="-2.9149330">
        <ele>585.4</ele>
        <time>2021-03-02T08:41:12Z</time>
      </trkpt>
      <trkpt lat="36.8074360" lon="-2.9149150">
        <ele>585.6</ele>
        <time>2021-03-02T08:41:13Z</time>
      </trkpt>
      <trkpt lat="36.8074350" lon="-2.9148970">
        <ele>585.6</ele>
        <time>2021-03-02T08:41:14Z</time>
      </trkpt>
      <trkpt lat="36.8074350" lon="-2.9148780">
        <ele>585.8</ele>
        <time>2021-03-02T08:41:15Z</time>
      </trkpt>
      <trkpt lat="36.8074330" lon="-2.9148590">
        <ele>586.0</ele>
        <time>2021-03-02T08:41:16Z</time>
      </trkpt>
      <trkpt lat="36.8074300" lon="-2.9148410">
        <ele>586.2</ele>
        <time>2021-03-02T08:41:17Z</time>
      </trkpt>
      <trkpt lat="36.8074290" lon="-2.9148220">
        <ele>586.4</ele>
        <time>2021-03-02T08:41:18Z</time>
      </trkpt>
      <trkpt lat="36.8074280" lon="-2.9148030">
        <ele>586.6</ele>
        <time>2021-03-02T08:41:19Z</time>
      </trkpt>
      <trkpt lat="36.8074270" lon="-2.9147820">
        <ele>586.6</ele>
        <time>2021-03-02T08:41:20Z</time>
      </trkpt>
      <trkpt lat="36.8074260" lon="-2.9147640">
        <ele>586.8</ele>
        <time>2021-03-02T08:41:21Z</time>
      </trkpt>
      <trkpt lat="36.8074260" lon="-2.9147470">
        <ele>587.0</ele>
        <time>2021-03-02T08:41:22Z</time>
      </trkpt>
      <trkpt lat="36.8074280" lon="-2.9147300">
        <ele>587.2</ele>
        <time>2021-03-02T08:41:23Z</time>
      </trkpt>
      <trkpt lat="36.8074290" lon="-2.9147140">
        <ele>587.4</ele>
        <time>2021-03-02T08:41:24Z</time>
      </trkpt>
      <trkpt lat="36.8074310" lon="-2.9146980">
        <ele>587.6</ele>
        <time>2021-03-02T08:41:25Z</time>
      </trkpt>
      <trkpt lat="36.8074350" lon="-2.9146810">
        <ele>587.8</ele>
        <time>2021-03-02T08:41:26Z</time>
      </trkpt>
      <trkpt lat="36.8074370" lon="-2.9146640">
        <ele>588.0</ele>
        <time>2021-03-02T08:41:27Z</time>
      </trkpt>
      <trkpt lat="36.8074400" lon="-2.9146470">
        <ele>588.2</ele>
        <time>2021-03-02T08:41:28Z</time>
      </trkpt>
      <trkpt lat="36.8074410" lon="-2.9146320">
        <ele>588.6</ele>
        <time>2021-03-02T08:41:29Z</time>
      </trkpt>
      <trkpt lat="36.8074440" lon="-2.9146160">
        <ele>588.8</ele>
        <time>2021-03-02T08:41:30Z</time>
      </trkpt>
      <trkpt lat="36.8074460" lon="-2.9146020">
        <ele>589.0</ele>
        <time>2021-03-02T08:41:31Z</time>
      </trkpt>
      <trkpt lat="36.8074470" lon="-2.9145870">
        <ele>589.0</ele>
        <time>2021-03-02T08:41:32Z</time>
      </trkpt>
      <trkpt lat="36.8074460" lon="-2.9145720">
        <ele>589.2</ele>
        <time>2021-03-02T08:41:33Z</time>
      </trkpt>
      <trkpt lat="36.8074420" lon="-2.9145570">
        <ele>589.4</ele>
        <time>2021-03-02T08:41:34Z</time>
      </trkpt>
      <trkpt lat="36.8074370" lon="-2.9145440">
        <ele>589.6</ele>
        <time>2021-03-02T08:41:35Z</time>
      </trkpt>
      <trkpt lat="36.8074290" lon="-2.9145320">
        <ele>589.8</ele>
        <time>2021-03-02T08:41:36Z</time>
      </trkpt>
      <trkpt lat="36.8074200" lon="-2.9145230">
        <ele>590.0</ele>
        <time>2021-03-02T08:41:37Z</time>
      </trkpt>
      <trkpt lat="36.8074090" lon="-2.9145190">
        <ele>590.2</ele>
        <time>2021-03-02T08:41:38Z</time>
      </trkpt>
      <trkpt lat="36.8073960" lon="-2.9145190">
        <ele>590.4</ele>
        <time>2021-03-02T08:41:39Z</time>
      </trkpt>
      <trkpt lat="36.8073870" lon="-2.9145210">
        <ele>590.4</ele>
        <time>2021-03-02T08:41:40Z</time>
      </trkpt>
      <trkpt lat="36.8073870" lon="-2.9145210">
        <ele>590.6</ele>
        <time>2021-03-02T08:41:41Z</time>
      </trkpt>
      <trkpt lat="36.8073820" lon="-2.9145250">
        <ele>590.4</ele>
        <time>2021-03-02T08:43:27Z</time>
      </trkpt>
      <trkpt lat="36.8073820" lon="-2.9145260">
        <ele>590.4</ele>
        <time>2021-03-02T08:43:28Z</time>
      </trkpt>
      <trkpt lat="36.8073820" lon="-2.9145260">
        <ele>590.4</ele>
        <time>2021-03-02T08:43:29Z</time>
      </trkpt>
      <trkpt lat="36.8073700" lon="-2.9145310">
        <ele>590.6</ele>
        <time>2021-03-02T08:43:30Z</time>
      </trkpt>
      <trkpt lat="36.8073540" lon="-2.9145360">
        <ele>590.6</ele>
        <time>2021-03-02T08:43:31Z</time>
      </trkpt>
      <trkpt lat="36.8073350" lon="-2.9145410">
        <ele>590.6</ele>
        <time>2021-03-02T08:43:32Z</time>
      </trkpt>
      <trkpt lat="36.8073130" lon="-2.9145500">
        <ele>590.6</ele>
        <time>2021-03-02T08:43:33Z</time>
      </trkpt>
      <trkpt lat="36.8072880" lon="-2.9145590">
        <ele>590.6</ele>
        <time>2021-03-02T08:43:34Z</time>
      </trkpt>
      <trkpt lat="36.8072600" lon="-2.9145710">
        <ele>590.4</ele>
        <time>2021-03-02T08:43:35Z</time>
      </trkpt>
      <trkpt lat="36.8072290" lon="-2.9145850">
        <ele>590.4</ele>
        <time>2021-03-02T08:43:36Z</time>
      </trkpt>
      <trkpt lat="36.8071970" lon="-2.9146020">
        <ele>590.2</ele>
        <time>2021-03-02T08:43:37Z</time>
      </trkpt>
      <trkpt lat="36.8071610" lon="-2.9146200">
        <ele>590.2</ele>
        <time>2021-03-02T08:43:38Z</time>
      </trkpt>
      <trkpt lat="36.8071240" lon="-2.9146390">
        <ele>590.2</ele>
        <time>2021-03-02T08:43:39Z</time>
      </trkpt>
      <trkpt lat="36.8070860" lon="-2.9146540">
        <ele>590.2</ele>
        <time>2021-03-02T08:43:40Z</time>
      </trkpt>
      <trkpt lat="36.8070450" lon="-2.9146670">
        <ele>590.2</ele>
        <time>2021-03-02T08:43:41Z</time>
      </trkpt>
      <trkpt lat="36.8070030" lon="-2.9146740">
        <ele>590.2</ele>
        <time>2021-03-02T08:43:42Z</time>
      </trkpt>
      <trkpt lat="36.8069600" lon="-2.9146790">
        <ele>590.2</ele>
        <time>2021-03-02T08:43:43Z</time>
      </trkpt>
      <trkpt lat="36.8069170" lon="-2.9146840">
        <ele>590.2</ele>
        <time>2021-03-02T08:43:44Z</time>
      </trkpt>
      <trkpt lat="36.8068740" lon="-2.9146870">
        <ele>590.2</ele>
        <time>2021-03-02T08:43:45Z</time>
      </trkpt>
      <trkpt lat="36.8068330" lon="-2.9146860">
        <ele>590.2</ele>
        <time>2021-03-02T08:43:46Z</time>
      </trkpt>
      <trkpt lat="36.8067930" lon="-2.9146800">
        <ele>590.6</ele>
        <time>2021-03-02T08:43:47Z</time>
      </trkpt>
      <trkpt lat="36.8067550" lon="-2.9146730">
        <ele>590.6</ele>
        <time>2021-03-02T08:43:48Z</time>
      </trkpt>
      <trkpt lat="36.8067190" lon="-2.9146640">
        <ele>591.0</ele>
        <time>2021-03-02T08:43:49Z</time>
      </trkpt>
      <trkpt lat="36.8066850" lon="-2.9146550">
        <ele>591.2</ele>
        <time>2021-03-02T08:43:50Z</time>
      </trkpt>
      <trkpt lat="36.8066530" lon="-2.9146430">
        <ele>591.8</ele>
        <time>2021-03-02T08:43:51Z</time>
      </trkpt>
      <trkpt lat="36.8066240" lon="-2.9146300">
        <ele>592.0</ele>
        <time>2021-03-02T08:43:52Z</time>
      </trkpt>
      <trkpt lat="36.8065970" lon="-2.9146180">
        <ele>592.6</ele>
        <time>2021-03-02T08:43:53Z</time>
      </trkpt>
      <trkpt lat="36.8065700" lon="-2.9146050">
        <ele>593.2</ele>
        <time>2021-03-02T08:43:54Z</time>
      </trkpt>
      <trkpt lat="36.8065430" lon="-2.9145930">
        <ele>593.4</ele>
        <time>2021-03-02T08:43:55Z</time>
      </trkpt>
      <trkpt lat="36.8065170" lon="-2.9145790">
        <ele>593.6</ele>
        <time>2021-03-02T08:43:56Z</time>
      </trkpt>
      <trkpt lat="36.8064890" lon="-2.9145680">
        <ele>593.8</ele>
        <time>2021-03-02T08:43:57Z</time>
      </trkpt>
      <trkpt lat="36.8064610" lon="-2.9145600">
        <ele>594.2</ele>
        <time>2021-03-02T08:43:58Z</time>
      </trkpt>
      <trkpt lat="36.8064320" lon="-2.9145540">
        <ele>594.2</ele>
        <time>2021-03-02T08:43:59Z</time>
      </trkpt>
      <trkpt lat="36.8064030" lon="-2.9145510">
        <ele>594.4</ele>
        <time>2021-03-02T08:44:00Z</time>
      </trkpt>
      <trkpt lat="36.8063720" lon="-2.9145500">
        <ele>594.6</ele>
        <time>2021-03-02T08:44:01Z</time>
      </trkpt>
      <trkpt lat="36.8063410" lon="-2.9145490">
        <ele>594.8</ele>
        <time>2021-03-02T08:44:02Z</time>
      </trkpt>
      <trkpt lat="36.8063120" lon="-2.9145500">
        <ele>595.0</ele>
        <time>2021-03-02T08:44:03Z</time>
      </trkpt>
      <trkpt lat="36.8062830" lon="-2.9145520">
        <ele>595.2</ele>
        <time>2021-03-02T08:44:04Z</time>
      </trkpt>
      <trkpt lat="36.8062580" lon="-2.9145570">
        <ele>595.6</ele>
        <time>2021-03-02T08:44:05Z</time>
      </trkpt>
      <trkpt lat="36.8062350" lon="-2.9145650">
        <ele>596.0</ele>
        <time>2021-03-02T08:44:06Z</time>
      </trkpt>
      <trkpt lat="36.8062150" lon="-2.9145730">
        <ele>596.4</ele>
        <time>2021-03-02T08:44:07Z</time>
      </trkpt>
      <trkpt lat="36.8061940" lon="-2.9145810">
        <ele>596.8</ele>
        <time>2021-03-02T08:44:08Z</time>
      </trkpt>
      <trkpt lat="36.8061710" lon="-2.9145880">
        <ele>597.0</ele>
        <time>2021-03-02T08:44:09Z</time>
      </trkpt>
      <trkpt lat="36.8061470" lon="-2.9145950">
        <ele>597.2</ele>
        <time>2021-03-02T08:44:10Z</time>
      </trkpt>
      <trkpt lat="36.8061210" lon="-2.9146020">
        <ele>597.4</ele>
        <time>2021-03-02T08:44:11Z</time>
      </trkpt>
      <trkpt lat="36.8060960" lon="-2.9146070">
        <ele>597.4</ele>
        <time>2021-03-02T08:44:12Z</time>
      </trkpt>
      <trkpt lat="36.8060720" lon="-2.9146130">
        <ele>597.8</ele>
        <time>2021-03-02T08:44:13Z</time>
      </trkpt>
      <trkpt lat="36.8060480" lon="-2.9146190">
        <ele>597.8</ele>
        <time>2021-03-02T08:44:14Z</time>
      </trkpt>
      <trkpt lat="36.8060230" lon="-2.9146230">
        <ele>598.0</ele>
        <time>2021-03-02T08:44:15Z</time>
      </trkpt>
      <trkpt lat="36.8059990" lon="-2.9146230">
        <ele>598.2</ele>
        <time>2021-03-02T08:44:16Z</time>
      </trkpt>
      <trkpt lat="36.8059760" lon="-2.9146220">
        <ele>598.2</ele>
        <time>2021-03-02T08:44:17Z</time>
      </trkpt>
      <trkpt lat="36.8059520" lon="-2.9146210">
        <ele>598.4</ele>
        <time>2021-03-02T08:44:18Z</time>
      </trkpt>
      <trkpt lat="36.8059300" lon="-2.9146200">
        <ele>598.6</ele>
        <time>2021-03-02T08:44:19Z</time>
      </trkpt>
      <trkpt lat="36.8059090" lon="-2.9146160">
        <ele>598.8</ele>
        <time>2021-03-02T08:44:20Z</time>
      </trkpt>
      <trkpt lat="36.8058890" lon="-2.9146110">
        <ele>599.0</ele>
        <time>2021-03-02T08:44:21Z</time>
      </trkpt>
      <trkpt lat="36.8058690" lon="-2.9146060">
        <ele>599.2</ele>
        <time>2021-03-02T08:44:22Z</time>
      </trkpt>
      <trkpt lat="36.8058510" lon="-2.9145980">
        <ele>599.4</ele>
        <time>2021-03-02T08:44:23Z</time>
      </trkpt>
      <trkpt lat="36.8058350" lon="-2.9145840">
        <ele>599.8</ele>
        <time>2021-03-02T08:44:24Z</time>
      </trkpt>
      <trkpt lat="36.8058220" lon="-2.9145700">
        <ele>600.2</ele>
        <time>2021-03-02T08:44:25Z</time>
      </trkpt>
      <trkpt lat="36.8058120" lon="-2.9145520">
        <ele>600.4</ele>
        <time>2021-03-02T08:44:26Z</time>
      </trkpt>
      <trkpt lat="36.8058040" lon="-2.9145320">
        <ele>600.6</ele>
        <time>2021-03-02T08:44:27Z</time>
      </trkpt>
      <trkpt lat="36.8058000" lon="-2.9145130">
        <ele>600.8</ele>
        <time>2021-03-02T08:44:28Z</time>
      </trkpt>
      <trkpt lat="36.8058010" lon="-2.9144970">
        <ele>601.2</ele>
        <time>2021-03-02T08:44:29Z</time>
      </trkpt>
      <trkpt lat="36.8058050" lon="-2.9144810">
        <ele>601.4</ele>
        <time>2021-03-02T08:44:30Z</time>
      </trkpt>
      <trkpt lat="36.8058110" lon="-2.9144650">
        <ele>601.8</ele>
        <time>2021-03-02T08:44:31Z</time>
      </trkpt>
      <trkpt lat="36.8058180" lon="-2.9144500">
        <ele>602.2</ele>
        <time>2021-03-02T08:44:32Z</time>
      </trkpt>
      <trkpt lat="36.8058260" lon="-2.9144360">
        <ele>602.4</ele>
        <time>2021-03-02T08:44:33Z</time>
      </trkpt>
      <trkpt lat="36.8058340" lon="-2.9144230">
        <ele>602.8</ele>
        <time>2021-03-02T08:44:34Z</time>
      </trkpt>
      <trkpt lat="36.8058420" lon="-2.9144100">
        <ele>603.0</ele>
        <time>2021-03-02T08:44:35Z</time>
      </trkpt>
      <trkpt lat="36.8058490" lon="-2.9143960">
        <ele>603.2</ele>
        <time>2021-03-02T08:44:36Z</time>
      </trkpt>
      <trkpt lat="36.8058560" lon="-2.9143820">
        <ele>603.4</ele>
        <time>2021-03-02T08:44:37Z</time>
      </trkpt>
      <trkpt lat="36.8058650" lon="-2.9143690">
        <ele>603.8</ele>
        <time>2021-03-02T08:44:38Z</time>
      </trkpt>
      <trkpt lat="36.8058740" lon="-2.9143570">
        <ele>604.0</ele>
        <time>2021-03-02T08:44:39Z</time>
      </trkpt>
      <trkpt lat="36.8058870" lon="-2.9143460">
        <ele>604.2</ele>
        <time>2021-03-02T08:44:40Z</time>
      </trkpt>
      <trkpt lat="36.8059000" lon="-2.9143360">
        <ele>604.2</ele>
        <time>2021-03-02T08:44:41Z</time>
      </trkpt>
      <trkpt lat="36.8059140" lon="-2.9143270">
        <ele>604.2</ele>
        <time>2021-03-02T08:44:42Z</time>
      </trkpt>
      <trkpt lat="36.8059270" lon="-2.9143170">
        <ele>604.4</ele>
        <time>2021-03-02T08:44:43Z</time>
      </trkpt>
      <trkpt lat="36.8059380" lon="-2.9143060">
        <ele>604.6</ele>
        <time>2021-03-02T08:44:44Z</time>
      </trkpt>
      <trkpt lat="36.8059480" lon="-2.9142930">
        <ele>604.8</ele>
        <time>2021-03-02T08:44:45Z</time>
      </trkpt>
      <trkpt lat="36.8059600" lon="-2.9142800">
        <ele>605.0</ele>
        <time>2021-03-02T08:44:46Z</time>
      </trkpt>
      <trkpt lat="36.8059710" lon="-2.9142680">
        <ele>605.2</ele>
        <time>2021-03-02T08:44:47Z</time>
      </trkpt>
      <trkpt lat="36.8059810" lon="-2.9142550">
        <ele>605.4</ele>
        <time>2021-03-02T08:44:48Z</time>
      </trkpt>
      <trkpt lat="36.8059900" lon="-2.9142410">
        <ele>605.4</ele>
        <time>2021-03-02T08:44:49Z</time>
      </trkpt>
      <trkpt lat="36.8059980" lon="-2.9142280">
        <ele>605.6</ele>
        <time>2021-03-02T08:44:50Z</time>
      </trkpt>
      <trkpt lat="36.8060050" lon="-2.9142130">
        <ele>605.8</ele>
        <time>2021-03-02T08:44:51Z</time>
      </trkpt>
      <trkpt lat="36.8060100" lon="-2.9141970">
        <ele>606.0</ele>
        <time>2021-03-02T08:44:52Z</time>
      </trkpt>
      <trkpt lat="36.8060160" lon="-2.9141810">
        <ele>606.4</ele>
        <time>2021-03-02T08:44:53Z</time>
      </trkpt>
      <trkpt lat="36.8060220" lon="-2.9141650">
        <ele>606.4</ele>
        <time>2021-03-02T08:44:54Z</time>
      </trkpt>
      <trkpt lat="36.8060290" lon="-2.9141490">
        <ele>606.6</ele>
        <time>2021-03-02T08:44:55Z</time>
      </trkpt>
      <trkpt lat="36.8060360" lon="-2.9141330">
        <ele>606.8</ele>
        <time>2021-03-02T08:44:56Z</time>
      </trkpt>
      <trkpt lat="36.8060430" lon="-2.9141150">
        <ele>607.0</ele>
        <time>2021-03-02T08:44:57Z</time>
      </trkpt>
      <trkpt lat="36.8060500" lon="-2.9140990">
        <ele>607.2</ele>
        <time>2021-03-02T08:44:58Z</time>
      </trkpt>
      <trkpt lat="36.8060560" lon="-2.9140820">
        <ele>607.4</ele>
        <time>2021-03-02T08:44:59Z</time>
      </trkpt>
      <trkpt lat="36.8060620" lon="-2.9140670">
        <ele>607.6</ele>
        <time>2021-03-02T08:45:00Z</time>
      </trkpt>
      <trkpt lat="36.8060670" lon="-2.9140510">
        <ele>607.6</ele>
        <time>2021-03-02T08:45:01Z</time>
      </trkpt>
      <trkpt lat="36.8060700" lon="-2.9140350">
        <ele>607.8</ele>
        <time>2021-03-02T08:45:02Z</time>
      </trkpt>
      <trkpt lat="36.8060730" lon="-2.9140190">
        <ele>608.0</ele>
        <time>2021-03-02T08:45:03Z</time>
      </trkpt>
      <trkpt lat="36.8060750" lon="-2.9140020">
        <ele>608.2</ele>
        <time>2021-03-02T08:45:04Z</time>
      </trkpt>
      <trkpt lat="36.8060770" lon="-2.9139850">
        <ele>608.4</ele>
        <time>2021-03-02T08:45:05Z</time>
      </trkpt>
      <trkpt lat="36.8060790" lon="-2.9139670">
        <ele>608.4</ele>
        <time>2021-03-02T08:45:06Z</time>
      </trkpt>
      <trkpt lat="36.8060850" lon="-2.9139500">
        <ele>608.6</ele>
        <time>2021-03-02T08:45:07Z</time>
      </trkpt>
      <trkpt lat="36.8060910" lon="-2.9139340">
        <ele>608.6</ele>
        <time>2021-03-02T08:45:08Z</time>
      </trkpt>
      <trkpt lat="36.8060970" lon="-2.9139190">
        <ele>609.0</ele>
        <time>2021-03-02T08:45:09Z</time>
      </trkpt>
      <trkpt lat="36.8061050" lon="-2.9139040">
        <ele>609.2</ele>
        <time>2021-03-02T08:45:10Z</time>
      </trkpt>
      <trkpt lat="36.8061130" lon="-2.9138900">
        <ele>609.2</ele>
        <time>2021-03-02T08:45:11Z</time>
      </trkpt>
      <trkpt lat="36.8061200" lon="-2.9138750">
        <ele>609.4</ele>
        <time>2021-03-02T08:45:12Z</time>
      </trkpt>
      <trkpt lat="36.8061270" lon="-2.9138600">
        <ele>609.4</ele>
        <time>2021-03-02T08:45:13Z</time>
      </trkpt>
      <trkpt lat="36.8061330" lon="-2.9138450">
        <ele>609.8</ele>
        <time>2021-03-02T08:45:14Z</time>
      </trkpt>
      <trkpt lat="36.8061410" lon="-2.9138300">
        <ele>610.0</ele>
        <time>2021-03-02T08:45:15Z</time>
      </trkpt>
      <trkpt lat="36.8061490" lon="-2.9138150">
        <ele>610.2</ele>
        <time>2021-03-02T08:45:16Z</time>
      </trkpt>
      <trkpt lat="36.8061590" lon="-2.9138000">
        <ele>610.4</ele>
        <time>2021-03-02T08:45:17Z</time>
      </trkpt>
      <trkpt lat="36.8061700" lon="-2.9137880">
        <ele>610.6</ele>
        <time>2021-03-02T08:45:18Z</time>
      </trkpt>
      <trkpt lat="36.8061820" lon="-2.9137760">
        <ele>610.8</ele>
        <time>2021-03-02T08:45:19Z</time>
      </trkpt>
      <trkpt lat="36.8061920" lon="-2.9137640">
        <ele>610.8</ele>
        <time>2021-03-02T08:45:20Z</time>
      </trkpt>
      <trkpt lat="36.8062040" lon="-2.9137530">
        <ele>611.2</ele>
        <time>2021-03-02T08:45:21Z</time>
      </trkpt>
      <trkpt lat="36.8062180" lon="-2.9137430">
        <ele>611.4</ele>
        <time>2021-03-02T08:45:22Z</time>
      </trkpt>
      <trkpt lat="36.8062330" lon="-2.9137350">
        <ele>611.4</ele>
        <time>2021-03-02T08:45:23Z</time>
      </trkpt>
      <trkpt lat="36.8062490" lon="-2.9137250">
        <ele>611.6</ele>
        <time>2021-03-02T08:45:24Z</time>
      </trkpt>
      <trkpt lat="36.8062630" lon="-2.9137160">
        <ele>611.6</ele>
        <time>2021-03-02T08:45:25Z</time>
      </trkpt>
      <trkpt lat="36.8062790" lon="-2.9137060">
        <ele>611.8</ele>
        <time>2021-03-02T08:45:26Z</time>
      </trkpt>
      <trkpt lat="36.8062950" lon="-2.9136970">
        <ele>612.0</ele>
        <time>2021-03-02T08:45:27Z</time>
      </trkpt>
      <trkpt lat="36.8063100" lon="-2.9136890">
        <ele>612.2</ele>
        <time>2021-03-02T08:45:28Z</time>
      </trkpt>
      <trkpt lat="36.8063260" lon="-2.9136800">
        <ele>612.4</ele>
        <time>2021-03-02T08:45:29Z</time>
      </trkpt>
      <trkpt lat="36.8063420" lon="-2.9136730">
        <ele>612.4</ele>
        <time>2021-03-02T08:45:30Z</time>
      </trkpt>
      <trkpt lat="36.8063570" lon="-2.9136670">
        <ele>612.8</ele>
        <time>2021-03-02T08:45:31Z</time>
      </trkpt>
      <trkpt lat="36.8063730" lon="-2.9136630">
        <ele>612.8</ele>
        <time>2021-03-02T08:45:32Z</time>
      </trkpt>
      <trkpt lat="36.8063890" lon="-2.9136600">
        <ele>613.0</ele>
        <time>2021-03-02T08:45:33Z</time>
      </trkpt>
      <trkpt lat="36.8064050" lon="-2.9136570">
        <ele>613.4</ele>
        <time>2021-03-02T08:45:34Z</time>
      </trkpt>
      <trkpt lat="36.8064200" lon="-2.9136540">
        <ele>613.4</ele>
        <time>2021-03-02T08:45:35Z</time>
      </trkpt>
      <trkpt lat="36.8064350" lon="-2.9136490">
        <ele>613.6</ele>
        <time>2021-03-02T08:45:36Z</time>
      </trkpt>
      <trkpt lat="36.8064510" lon="-2.9136460">
        <ele>613.8</ele>
        <time>2021-03-02T08:45:37Z</time>
      </trkpt>
      <trkpt lat="36.8064650" lon="-2.9136450">
        <ele>614.0</ele>
        <time>2021-03-02T08:45:38Z</time>
      </trkpt>
      <trkpt lat="36.8064800" lon="-2.9136450">
        <ele>614.0</ele>
        <time>2021-03-02T08:45:39Z</time>
      </trkpt>
      <trkpt lat="36.8064950" lon="-2.9136430">
        <ele>614.2</ele>
        <time>2021-03-02T08:45:40Z</time>
      </trkpt>
      <trkpt lat="36.8065110" lon="-2.9136390">
        <ele>614.4</ele>
        <time>2021-03-02T08:45:41Z</time>
      </trkpt>
      <trkpt lat="36.8065260" lon="-2.9136330">
        <ele>614.6</ele>
        <time>2021-03-02T08:45:42Z</time>
      </trkpt>
      <trkpt lat="36.8065410" lon="-2.9136270">
        <ele>614.8</ele>
        <time>2021-03-02T08:45:43Z</time>
      </trkpt>
      <trkpt lat="36.8065560" lon="-2.9136200">
        <ele>615.0</ele>
        <time>2021-03-02T08:45:44Z</time>
      </trkpt>
      <trkpt lat="36.8065710" lon="-2.9136140">
        <ele>615.4</ele>
        <time>2021-03-02T08:45:45Z</time>
      </trkpt>
      <trkpt lat="36.8065860" lon="-2.9136070">
        <ele>615.4</ele>
        <time>2021-03-02T08:45:46Z</time>
      </trkpt>
      <trkpt lat="36.8066020" lon="-2.9136000">
        <ele>615.6</ele>
        <time>2021-03-02T08:45:47Z</time>
      </trkpt>
      <trkpt lat="36.8066170" lon="-2.9135940">
        <ele>615.8</ele>
        <time>2021-03-02T08:45:48Z</time>
      </trkpt>
      <trkpt lat="36.8066320" lon="-2.9135870">
        <ele>615.8</ele>
        <time>2021-03-02T08:45:49Z</time>
      </trkpt>
      <trkpt lat="36.8066470" lon="-2.9135780">
        <ele>616.0</ele>
        <time>2021-03-02T08:45:50Z</time>
      </trkpt>
      <trkpt lat="36.8066610" lon="-2.9135680">
        <ele>616.2</ele>
        <time>2021-03-02T08:45:51Z</time>
      </trkpt>
      <trkpt lat="36.8066740" lon="-2.9135590">
        <ele>616.2</ele>
        <time>2021-03-02T08:45:52Z</time>
      </trkpt>
      <trkpt lat="36.8066890" lon="-2.9135500">
        <ele>616.4</ele>
        <time>2021-03-02T08:45:53Z</time>
      </trkpt>
      <trkpt lat="36.8067040" lon="-2.9135410">
        <ele>616.6</ele>
        <time>2021-03-02T08:45:54Z</time>
      </trkpt>
      <trkpt lat="36.8067180" lon="-2.9135320">
        <ele>616.8</ele>
        <time>2021-03-02T08:45:55Z</time>
      </trkpt>
      <trkpt lat="36.8067310" lon="-2.9135200">
        <ele>616.8</ele>
        <time>2021-03-02T08:45:56Z</time>
      </trkpt>
      <trkpt lat="36.8067440" lon="-2.9135080">
        <ele>617.0</ele>
        <time>2021-03-02T08:45:57Z</time>
      </trkpt>
      <trkpt lat="36.8067560" lon="-2.9134950">
        <ele>617.0</ele>
        <time>2021-03-02T08:45:58Z</time>
      </trkpt>
      <trkpt lat="36.8067660" lon="-2.9134830">
        <ele>617.2</ele>
        <time>2021-03-02T08:45:59Z</time>
      </trkpt>
      <trkpt lat="36.8067760" lon="-2.9134680">
        <ele>617.4</ele>
        <time>2021-03-02T08:46:00Z</time>
      </trkpt>
      <trkpt lat="36.8067840" lon="-2.9134530">
        <ele>617.4</ele>
        <time>2021-03-02T08:46:01Z</time>
      </trkpt>
      <trkpt lat="36.8067920" lon="-2.9134380">
        <ele>617.6</ele>
        <time>2021-03-02T08:46:02Z</time>
      </trkpt>
      <trkpt lat="36.8068000" lon="-2.9134230">
        <ele>617.8</ele>
        <time>2021-03-02T08:46:03Z</time>
      </trkpt>
      <trkpt lat="36.8068060" lon="-2.9134070">
        <ele>618.0</ele>
        <time>2021-03-02T08:46:04Z</time>
      </trkpt>
      <trkpt lat="36.8068110" lon="-2.9133900">
        <ele>618.0</ele>
        <time>2021-03-02T08:46:05Z</time>
      </trkpt>
      <trkpt lat="36.8068170" lon="-2.9133730">
        <ele>618.2</ele>
        <time>2021-03-02T08:46:06Z</time>
      </trkpt>
      <trkpt lat="36.8068250" lon="-2.9133570">
        <ele>618.4</ele>
        <time>2021-03-02T08:46:07Z</time>
      </trkpt>
      <trkpt lat="36.8068320" lon="-2.9133400">
        <ele>618.6</ele>
        <time>2021-03-02T08:46:08Z</time>
      </trkpt>
      <trkpt lat="36.8068380" lon="-2.9133230">
        <ele>618.8</ele>
        <time>2021-03-02T08:46:09Z</time>
      </trkpt>
      <trkpt lat="36.8068430" lon="-2.9133070">
        <ele>619.0</ele>
        <time>2021-03-02T08:46:10Z</time>
      </trkpt>
      <trkpt lat="36.8068490" lon="-2.9132920">
        <ele>619.2</ele>
        <time>2021-03-02T08:46:11Z</time>
      </trkpt>
      <trkpt lat="36.8068540" lon="-2.9132750">
        <ele>619.4</ele>
        <time>2021-03-02T08:46:12Z</time>
      </trkpt>
      <trkpt lat="36.8068610" lon="-2.9132580">
        <ele>619.6</ele>
        <time>2021-03-02T08:46:13Z</time>
      </trkpt>
      <trkpt lat="36.8068690" lon="-2.9132440">
        <ele>619.8</ele>
        <time>2021-03-02T08:46:14Z</time>
      </trkpt>
      <trkpt lat="36.8068780" lon="-2.9132280">
        <ele>620.0</ele>
        <time>2021-03-02T08:46:15Z</time>
      </trkpt>
      <trkpt lat="36.8068850" lon="-2.9132120">
        <ele>620.2</ele>
        <time>2021-03-02T08:46:16Z</time>
      </trkpt>
      <trkpt lat="36.8068910" lon="-2.9131950">
        <ele>620.2</ele>
        <time>2021-03-02T08:46:17Z</time>
      </trkpt>
      <trkpt lat="36.8068980" lon="-2.9131780">
        <ele>620.4</ele>
        <time>2021-03-02T08:46:18Z</time>
      </trkpt>
      <trkpt lat="36.8069030" lon="-2.9131610">
        <ele>620.8</ele>
        <time>2021-03-02T08:46:19Z</time>
      </trkpt>
      <trkpt lat="36.8069080" lon="-2.9131420">
        <ele>621.0</ele>
        <time>2021-03-02T08:46:20Z</time>
      </trkpt>
      <trkpt lat="36.8069130" lon="-2.9131240">
        <ele>621.4</ele>
        <time>2021-03-02T08:46:21Z</time>
      </trkpt>
      <trkpt lat="36.8069200" lon="-2.9131080">
        <ele>621.6</ele>
        <time>2021-03-02T08:46:22Z</time>
      </trkpt>
      <trkpt lat="36.8069270" lon="-2.9130920">
        <ele>621.8</ele>
        <time>2021-03-02T08:46:23Z</time>
      </trkpt>
      <trkpt lat="36.8069340" lon="-2.9130750">
        <ele>621.8</ele>
        <time>2021-03-02T08:46:24Z</time>
      </trkpt>
      <trkpt lat="36.8069420" lon="-2.9130570">
        <ele>622.0</ele>
        <time>2021-03-02T08:46:25Z</time>
      </trkpt>
      <trkpt lat="36.8069510" lon="-2.9130380">
        <ele>622.0</ele>
        <time>2021-03-02T08:46:26Z</time>
      </trkpt>
      <trkpt lat="36.8069610" lon="-2.9130200">
        <ele>622.2</ele>
        <time>2021-03-02T08:46:27Z</time>
      </trkpt>
      <trkpt lat="36.8069700" lon="-2.9130010">
        <ele>622.2</ele>
        <time>2021-03-02T08:46:28Z</time>
      </trkpt>
      <trkpt lat="36.8069810" lon="-2.9129830">
        <ele>622.4</ele>
        <time>2021-03-02T08:46:29Z</time>
      </trkpt>
      <trkpt lat="36.8069930" lon="-2.9129630">
        <ele>622.4</ele>
        <time>2021-03-02T08:46:30Z</time>
      </trkpt>
      <trkpt lat="36.8070070" lon="-2.9129410">
        <ele>622.6</ele>
        <time>2021-03-02T08:46:31Z</time>
      </trkpt>
      <trkpt lat="36.8070210" lon="-2.9129190">
        <ele>622.8</ele>
        <time>2021-03-02T08:46:32Z</time>
      </trkpt>
      <trkpt lat="36.8070370" lon="-2.9128940">
        <ele>623.0</ele>
        <time>2021-03-02T08:46:33Z</time>
      </trkpt>
      <trkpt lat="36.8070530" lon="-2.9128690">
        <ele>623.0</ele>
        <time>2021-03-02T08:46:34Z</time>
      </trkpt>
      <trkpt lat="36.8070690" lon="-2.9128450">
        <ele>623.2</ele>
        <time>2021-03-02T08:46:35Z</time>
      </trkpt>
      <trkpt lat="36.8070840" lon="-2.9128230">
        <ele>623.4</ele>
        <time>2021-03-02T08:46:36Z</time>
      </trkpt>
      <trkpt lat="36.8070980" lon="-2.9128010">
        <ele>623.4</ele>
        <time>2021-03-02T08:46:37Z</time>
      </trkpt>
      <trkpt lat="36.8071130" lon="-2.9127770">
        <ele>623.6</ele>
        <time>2021-03-02T08:46:38Z</time>
      </trkpt>
      <trkpt lat="36.8071270" lon="-2.9127530">
        <ele>623.6</ele>
        <time>2021-03-02T08:46:39Z</time>
      </trkpt>
      <trkpt lat="36.8071410" lon="-2.9127300">
        <ele>623.8</ele>
        <time>2021-03-02T08:46:40Z</time>
      </trkpt>
      <trkpt lat="36.8071570" lon="-2.9127080">
        <ele>624.0</ele>
        <time>2021-03-02T08:46:41Z</time>
      </trkpt>
      <trkpt lat="36.8071720" lon="-2.9126880">
        <ele>624.2</ele>
        <time>2021-03-02T08:46:42Z</time>
      </trkpt>
      <trkpt lat="36.8071860" lon="-2.9126680">
        <ele>624.6</ele>
        <time>2021-03-02T08:46:43Z</time>
      </trkpt>
      <trkpt lat="36.8072000" lon="-2.9126460">
        <ele>624.8</ele>
        <time>2021-03-02T08:46:44Z</time>
      </trkpt>
      <trkpt lat="36.8072130" lon="-2.9126260">
        <ele>625.0</ele>
        <time>2021-03-02T08:46:45Z</time>
      </trkpt>
      <trkpt lat="36.8072270" lon="-2.9126040">
        <ele>625.0</ele>
        <time>2021-03-02T08:46:46Z</time>
      </trkpt>
      <trkpt lat="36.8072370" lon="-2.9125790">
        <ele>625.4</ele>
        <time>2021-03-02T08:46:47Z</time>
      </trkpt>
      <trkpt lat="36.8072460" lon="-2.9125520">
        <ele>625.4</ele>
        <time>2021-03-02T08:46:48Z</time>
      </trkpt>
      <trkpt lat="36.8072550" lon="-2.9125260">
        <ele>625.8</ele>
        <time>2021-03-02T08:46:49Z</time>
      </trkpt>
      <trkpt lat="36.8072640" lon="-2.9124990">
        <ele>626.0</ele>
        <time>2021-03-02T08:46:50Z</time>
      </trkpt>
      <trkpt lat="36.8072700" lon="-2.9124730">
        <ele>626.2</ele>
        <time>2021-03-02T08:46:51Z</time>
      </trkpt>
      <trkpt lat="36.8072750" lon="-2.9124460">
        <ele>626.4</ele>
        <time>2021-03-02T08:46:52Z</time>
      </trkpt>
      <trkpt lat="36.8072790" lon="-2.9124180">
        <ele>626.6</ele>
        <time>2021-03-02T08:46:53Z</time>
      </trkpt>
      <trkpt lat="36.8072830" lon="-2.9123910">
        <ele>626.8</ele>
        <time>2021-03-02T08:46:54Z</time>
      </trkpt>
      <trkpt lat="36.8072890" lon="-2.9123640">
        <ele>627.0</ele>
        <time>2021-03-02T08:46:55Z</time>
      </trkpt>
      <trkpt lat="36.8072930" lon="-2.9123350">
        <ele>627.2</ele>
        <time>2021-03-02T08:46:56Z</time>
      </trkpt>
      <trkpt lat="36.8072980" lon="-2.9123050">
        <ele>627.2</ele>
        <time>2021-03-02T08:46:57Z</time>
      </trkpt>
      <trkpt lat="36.8073010" lon="-2.9122760">
        <ele>627.4</ele>
        <time>2021-03-02T08:46:58Z</time>
      </trkpt>
      <trkpt lat="36.8073060" lon="-2.9122480">
        <ele>627.6</ele>
        <time>2021-03-02T08:46:59Z</time>
      </trkpt>
      <trkpt lat="36.8073090" lon="-2.9122210">
        <ele>627.6</ele>
        <time>2021-03-02T08:47:00Z</time>
      </trkpt>
      <trkpt lat="36.8073120" lon="-2.9121920">
        <ele>627.8</ele>
        <time>2021-03-02T08:47:01Z</time>
      </trkpt>
      <trkpt lat="36.8073160" lon="-2.9121620">
        <ele>628.0</ele>
        <time>2021-03-02T08:47:02Z</time>
      </trkpt>
      <trkpt lat="36.8073210" lon="-2.9121320">
        <ele>628.0</ele>
        <time>2021-03-02T08:47:03Z</time>
      </trkpt>
      <trkpt lat="36.8073280" lon="-2.9121020">
        <ele>628.2</ele>
        <time>2021-03-02T08:47:04Z</time>
      </trkpt>
      <trkpt lat="36.8073380" lon="-2.9120700">
        <ele>628.2</ele>
        <time>2021-03-02T08:47:05Z</time>
      </trkpt>
      <trkpt lat="36.8073460" lon="-2.9120360">
        <ele>628.2</ele>
        <time>2021-03-02T08:47:06Z</time>
      </trkpt>
      <trkpt lat="36.8073520" lon="-2.9120020">
        <ele>628.4</ele>
        <time>2021-03-02T08:47:07Z</time>
      </trkpt>
      <trkpt lat="36.8073580" lon="-2.9119690">
        <ele>628.4</ele>
        <time>2021-03-02T08:47:08Z</time>
      </trkpt>
      <trkpt lat="36.8073650" lon="-2.9119350">
        <ele>628.6</ele>
        <time>2021-03-02T08:47:09Z</time>
      </trkpt>
      <trkpt lat="36.8073720" lon="-2.9118990">
        <ele>628.6</ele>
        <time>2021-03-02T08:47:10Z</time>
      </trkpt>
      <trkpt lat="36.8073760" lon="-2.9118620">
        <ele>628.8</ele>
        <time>2021-03-02T08:47:11Z</time>
      </trkpt>
      <trkpt lat="36.8073780" lon="-2.9118240">
        <ele>628.8</ele>
        <time>2021-03-02T08:47:12Z</time>
      </trkpt>
      <trkpt lat="36.8073760" lon="-2.9117860">
        <ele>629.0</ele>
        <time>2021-03-02T08:47:13Z</time>
      </trkpt>
      <trkpt lat="36.8073670" lon="-2.9117520">
        <ele>629.2</ele>
        <time>2021-03-02T08:47:14Z</time>
      </trkpt>
      <trkpt lat="36.8073540" lon="-2.9117200">
        <ele>629.2</ele>
        <time>2021-03-02T08:47:15Z</time>
      </trkpt>
      <trkpt lat="36.8073370" lon="-2.9116930">
        <ele>629.2</ele>
        <time>2021-03-02T08:47:16Z</time>
      </trkpt>
      <trkpt lat="36.8073160" lon="-2.9116680">
        <ele>629.4</ele>
        <time>2021-03-02T08:47:17Z</time>
      </trkpt>
      <trkpt lat="36.8072930" lon="-2.9116450">
        <ele>629.4</ele>
        <time>2021-03-02T08:47:18Z</time>
      </trkpt>
      <trkpt lat="36.8072670" lon="-2.9116210">
        <ele>629.6</ele>
        <time>2021-03-02T08:47:19Z</time>
      </trkpt>
      <trkpt lat="36.8072400" lon="-2.9115950">
        <ele>629.6</ele>
        <time>2021-03-02T08:47:20Z</time>
      </trkpt>
      <trkpt lat="36.8072120" lon="-2.9115680">
        <ele>629.6</ele>
        <time>2021-03-02T08:47:21Z</time>
      </trkpt>
      <trkpt lat="36.8071840" lon="-2.9115400">
        <ele>629.6</ele>
        <time>2021-03-02T08:47:22Z</time>
      </trkpt>
      <trkpt lat="36.8071540" lon="-2.9115120">
        <ele>629.6</ele>
        <time>2021-03-02T08:47:23Z</time>
      </trkpt>
      <trkpt lat="36.8071230" lon="-2.9114840">
        <ele>629.6</ele>
        <time>2021-03-02T08:47:24Z</time>
      </trkpt>
      <trkpt lat="36.8070920" lon="-2.9114570">
        <ele>629.6</ele>
        <time>2021-03-02T08:47:25Z</time>
      </trkpt>
      <trkpt lat="36.8070590" lon="-2.9114300">
        <ele>629.6</ele>
        <time>2021-03-02T08:47:26Z</time>
      </trkpt>
      <trkpt lat="36.8070260" lon="-2.9114030">
        <ele>629.6</ele>
        <time>2021-03-02T08:47:27Z</time>
      </trkpt>
      <trkpt lat="36.8069920" lon="-2.9113750">
        <ele>629.4</ele>
        <time>2021-03-02T08:47:28Z</time>
      </trkpt>
      <trkpt lat="36.8069560" lon="-2.9113440">
        <ele>629.4</ele>
        <time>2021-03-02T08:47:29Z</time>
      </trkpt>
      <trkpt lat="36.8069220" lon="-2.9113070">
        <ele>629.2</ele>
        <time>2021-03-02T08:47:30Z</time>
      </trkpt>
      <trkpt lat="36.8068930" lon="-2.9112640">
        <ele>629.2</ele>
        <time>2021-03-02T08:47:31Z</time>
      </trkpt>
      <trkpt lat="36.8068680" lon="-2.9112150">
        <ele>629.0</ele>
        <time>2021-03-02T08:47:32Z</time>
      </trkpt>
      <trkpt lat="36.8068480" lon="-2.9111640">
        <ele>629.0</ele>
        <time>2021-03-02T08:47:33Z</time>
      </trkpt>
      <trkpt lat="36.8068320" lon="-2.9111130">
        <ele>629.0</ele>
        <time>2021-03-02T08:47:34Z</time>
      </trkpt>
      <trkpt lat="36.8068220" lon="-2.9110590">
        <ele>629.0</ele>
        <time>2021-03-02T08:47:35Z</time>
      </trkpt>
      <trkpt lat="36.8068130" lon="-2.9110020">
        <ele>629.0</ele>
        <time>2021-03-02T08:47:36Z</time>
      </trkpt>
      <trkpt lat="36.8068040" lon="-2.9109400">
        <ele>628.8</ele>
        <time>2021-03-02T08:47:37Z</time>
      </trkpt>
      <trkpt lat="36.8067980" lon="-2.9108720">
        <ele>628.8</ele>
        <time>2021-03-02T08:47:38Z</time>
      </trkpt>
      <trkpt lat="36.8067930" lon="-2.9107970">
        <ele>628.4</ele>
        <time>2021-03-02T08:47:39Z</time>
      </trkpt>
      <trkpt lat="36.8067830" lon="-2.9107120">
        <ele>627.8</ele>
        <time>2021-03-02T08:47:40Z</time>
      </trkpt>
      <trkpt lat="36.8067680" lon="-2.9106220">
        <ele>627.6</ele>
        <time>2021-03-02T08:47:41Z</time>
      </trkpt>
      <trkpt lat="36.8067440" lon="-2.9105280">
        <ele>626.8</ele>
        <time>2021-03-02T08:47:42Z</time>
      </trkpt>
      <trkpt lat="36.8067150" lon="-2.9104300">
        <ele>626.2</ele>
        <time>2021-03-02T08:47:43Z</time>
      </trkpt>
      <trkpt lat="36.8066850" lon="-2.9103280">
        <ele>625.0</ele>
        <time>2021-03-02T08:47:44Z</time>
      </trkpt>
      <trkpt lat="36.8066510" lon="-2.9102270">
        <ele>623.8</ele>
        <time>2021-03-02T08:47:45Z</time>
      </trkpt>
      <trkpt lat="36.8066110" lon="-2.9101330">
        <ele>623.0</ele>
        <time>2021-03-02T08:47:46Z</time>
      </trkpt>
      <trkpt lat="36.8065810" lon="-2.9100350">
        <ele>621.2</ele>
        <time>2021-03-02T08:47:47Z</time>
      </trkpt>
      <trkpt lat="36.8065650" lon="-2.9099330">
        <ele>620.4</ele>
        <time>2021-03-02T08:47:48Z</time>
      </trkpt>
      <trkpt lat="36.8065560" lon="-2.9098350">
        <ele>619.8</ele>
        <time>2021-03-02T08:47:49Z</time>
      </trkpt>
      <trkpt lat="36.8065480" lon="-2.9097420">
        <ele>619.6</ele>
        <time>2021-03-02T08:47:50Z</time>
      </trkpt>
      <trkpt lat="36.8065400" lon="-2.9096550">
        <ele>619.6</ele>
        <time>2021-03-02T08:47:51Z</time>
      </trkpt>
      <trkpt lat="36.8065330" lon="-2.9095740">
        <ele>619.8</ele>
        <time>2021-03-02T08:47:52Z</time>
      </trkpt>
      <trkpt lat="36.8065260" lon="-2.9094980">
        <ele>620.2</ele>
        <time>2021-03-02T08:47:53Z</time>
      </trkpt>
      <trkpt lat="36.8065180" lon="-2.9094280">
        <ele>620.6</ele>
        <time>2021-03-02T08:47:54Z</time>
      </trkpt>
      <trkpt lat="36.8065090" lon="-2.9093620">
        <ele>621.0</ele>
        <time>2021-03-02T08:47:55Z</time>
      </trkpt>
      <trkpt lat="36.8064960" lon="-2.9093010">
        <ele>621.4</ele>
        <time>2021-03-02T08:47:56Z</time>
      </trkpt>
      <trkpt lat="36.8064810" lon="-2.9092450">
        <ele>621.6</ele>
        <time>2021-03-02T08:47:57Z</time>
      </trkpt>
      <trkpt lat="36.8064670" lon="-2.9091940">
        <ele>621.8</ele>
        <time>2021-03-02T08:47:58Z</time>
      </trkpt>
      <trkpt lat="36.8064560" lon="-2.9091450">
        <ele>622.0</ele>
        <time>2021-03-02T08:47:59Z</time>
      </trkpt>
      <trkpt lat="36.8064450" lon="-2.9090960">
        <ele>622.2</ele>
        <time>2021-03-02T08:48:00Z</time>
      </trkpt>
      <trkpt lat="36.8064310" lon="-2.9090470">
        <ele>622.4</ele>
        <time>2021-03-02T08:48:01Z</time>
      </trkpt>
      <trkpt lat="36.8064180" lon="-2.9089970">
        <ele>622.6</ele>
        <time>2021-03-02T08:48:02Z</time>
      </trkpt>
      <trkpt lat="36.8064030" lon="-2.9089490">
        <ele>623.0</ele>
        <time>2021-03-02T08:48:03Z</time>
      </trkpt>
      <trkpt lat="36.8063880" lon="-2.9089010">
        <ele>623.0</ele>
        <time>2021-03-02T08:48:04Z</time>
      </trkpt>
      <trkpt lat="36.8063760" lon="-2.9088500">
        <ele>623.2</ele>
        <time>2021-03-02T08:48:05Z</time>
      </trkpt>
      <trkpt lat="36.8063690" lon="-2.9087980">
        <ele>623.2</ele>
        <time>2021-03-02T08:48:06Z</time>
      </trkpt>
      <trkpt lat="36.8063660" lon="-2.9087470">
        <ele>623.2</ele>
        <time>2021-03-02T08:48:07Z</time>
      </trkpt>
      <trkpt lat="36.8063650" lon="-2.9086980">
        <ele>623.4</ele>
        <time>2021-03-02T08:48:08Z</time>
      </trkpt>
      <trkpt lat="36.8063650" lon="-2.9086530">
        <ele>623.6</ele>
        <time>2021-03-02T08:48:09Z</time>
      </trkpt>
      <trkpt lat="36.8063650" lon="-2.9086100">
        <ele>623.8</ele>
        <time>2021-03-02T08:48:10Z</time>
      </trkpt>
      <trkpt lat="36.8063630" lon="-2.9085700">
        <ele>624.0</ele>
        <time>2021-03-02T08:48:11Z</time>
      </trkpt>
      <trkpt lat="36.8063590" lon="-2.9085300">
        <ele>624.2</ele>
        <time>2021-03-02T08:48:12Z</time>
      </trkpt>
      <trkpt lat="36.8063570" lon="-2.9084910">
        <ele>624.4</ele>
        <time>2021-03-02T08:48:13Z</time>
      </trkpt>
      <trkpt lat="36.8063540" lon="-2.9084530">
        <ele>624.6</ele>
        <time>2021-03-02T08:48:14Z</time>
      </trkpt>
      <trkpt lat="36.8063520" lon="-2.9084140">
        <ele>625.2</ele>
        <time>2021-03-02T08:48:15Z</time>
      </trkpt>
      <trkpt lat="36.8063480" lon="-2.9083750">
        <ele>625.4</ele>
        <time>2021-03-02T08:48:16Z</time>
      </trkpt>
      <trkpt lat="36.8063460" lon="-2.9083380">
        <ele>625.6</ele>
        <time>2021-03-02T08:48:17Z</time>
      </trkpt>
      <trkpt lat="36.8063440" lon="-2.9083010">
        <ele>625.8</ele>
        <time>2021-03-02T08:48:18Z</time>
      </trkpt>
      <trkpt lat="36.8063410" lon="-2.9082650">
        <ele>626.0</ele>
        <time>2021-03-02T08:48:19Z</time>
      </trkpt>
      <trkpt lat="36.8063380" lon="-2.9082290">
        <ele>626.2</ele>
        <time>2021-03-02T08:48:20Z</time>
      </trkpt>
      <trkpt lat="36.8063320" lon="-2.9081930">
        <ele>626.2</ele>
        <time>2021-03-02T08:48:21Z</time>
      </trkpt>
      <trkpt lat="36.8063250" lon="-2.9081560">
        <ele>626.4</ele>
        <time>2021-03-02T08:48:22Z</time>
      </trkpt>
      <trkpt lat="36.8063180" lon="-2.9081170">
        <ele>626.6</ele>
        <time>2021-03-02T08:48:23Z</time>
      </trkpt>
      <trkpt lat="36.8063120" lon="-2.9080800">
        <ele>626.6</ele>
        <time>2021-03-02T08:48:24Z</time>
      </trkpt>
      <trkpt lat="36.8063080" lon="-2.9080410">
        <ele>626.8</ele>
        <time>2021-03-02T08:48:25Z</time>
      </trkpt>
      <trkpt lat="36.8063040" lon="-2.9080030">
        <ele>626.8</ele>
        <time>2021-03-02T08:48:26Z</time>
      </trkpt>
      <trkpt lat="36.8063020" lon="-2.9079650">
        <ele>627.0</ele>
        <time>2021-03-02T08:48:27Z</time>
      </trkpt>
      <trkpt lat="36.8063020" lon="-2.9079250">
        <ele>627.2</ele>
        <time>2021-03-02T08:48:28Z</time>
      </trkpt>
      <trkpt lat="36.8063030" lon="-2.9078890">
        <ele>627.4</ele>
        <time>2021-03-02T08:48:29Z</time>
      </trkpt>
      <trkpt lat="36.8063040" lon="-2.9078530">
        <ele>628.0</ele>
        <time>2021-03-02T08:48:30Z</time>
      </trkpt>
      <trkpt lat="36.8063070" lon="-2.9078180">
        <ele>628.0</ele>
        <time>2021-03-02T08:48:31Z</time>
      </trkpt>
      <trkpt lat="36.8063110" lon="-2.9077850">
        <ele>628.4</ele>
        <time>2021-03-02T08:48:32Z</time>
      </trkpt>
      <trkpt lat="36.8063140" lon="-2.9077520">
        <ele>628.4</ele>
        <time>2021-03-02T08:48:33Z</time>
      </trkpt>
      <trkpt lat="36.8063180" lon="-2.9077190">
        <ele>628.8</ele>
        <time>2021-03-02T08:48:34Z</time>
      </trkpt>
      <trkpt lat="36.8063200" lon="-2.9076870">
        <ele>629.2</ele>
        <time>2021-03-02T08:48:35Z</time>
      </trkpt>
      <trkpt lat="36.8063230" lon="-2.9076540">
        <ele>629.4</ele>
        <time>2021-03-02T08:48:36Z</time>
      </trkpt>
      <trkpt lat="36.8063250" lon="-2.9076210">
        <ele>629.6</ele>
        <time>2021-03-02T08:48:37Z</time>
      </trkpt>
      <trkpt lat="36.8063280" lon="-2.9075870">
        <ele>629.6</ele>
        <time>2021-03-02T08:48:38Z</time>
      </trkpt>
      <trkpt lat="36.8063310" lon="-2.9075550">
        <ele>629.8</ele>
        <time>2021-03-02T08:48:39Z</time>
      </trkpt>
      <trkpt lat="36.8063340" lon="-2.9075210">
        <ele>630.0</ele>
        <time>2021-03-02T08:48:40Z</time>
      </trkpt>
      <trkpt lat="36.8063390" lon="-2.9074860">
        <ele>630.2</ele>
        <time>2021-03-02T08:48:41Z</time>
      </trkpt>
      <trkpt lat="36.8063440" lon="-2.9074520">
        <ele>630.4</ele>
        <time>2021-03-02T08:48:42Z</time>
      </trkpt>
      <trkpt lat="36.8063490" lon="-2.9074180">
        <ele>630.4</ele>
        <time>2021-03-02T08:48:43Z</time>
      </trkpt>
      <trkpt lat="36.8063530" lon="-2.9073840">
        <ele>630.6</ele>
        <time>2021-03-02T08:48:44Z</time>
      </trkpt>
      <trkpt lat="36.8063540" lon="-2.9073490">
        <ele>630.8</ele>
        <time>2021-03-02T08:48:45Z</time>
      </trkpt>
      <trkpt lat="36.8063550" lon="-2.9073150">
        <ele>631.0</ele>
        <time>2021-03-02T08:48:46Z</time>
      </trkpt>
      <trkpt lat="36.8063550" lon="-2.9072820">
        <ele>631.0</ele>
        <time>2021-03-02T08:48:47Z</time>
      </trkpt>
      <trkpt lat="36.8063510" lon="-2.9072490">
        <ele>631.2</ele>
        <time>2021-03-02T08:48:48Z</time>
      </trkpt>
      <trkpt lat="36.8063430" lon="-2.9072140">
        <ele>631.2</ele>
        <time>2021-03-02T08:48:49Z</time>
      </trkpt>
      <trkpt lat="36.8063320" lon="-2.9071780">
        <ele>631.4</ele>
        <time>2021-03-02T08:48:50Z</time>
      </trkpt>
      <trkpt lat="36.8063210" lon="-2.9071440">
        <ele>631.6</ele>
        <time>2021-03-02T08:48:51Z</time>
      </trkpt>
      <trkpt lat="36.8063100" lon="-2.9071100">
        <ele>631.6</ele>
        <time>2021-03-02T08:48:52Z</time>
      </trkpt>
      <trkpt lat="36.8062990" lon="-2.9070740">
        <ele>631.8</ele>
        <time>2021-03-02T08:48:53Z</time>
      </trkpt>
      <trkpt lat="36.8062890" lon="-2.9070380">
        <ele>632.0</ele>
        <time>2021-03-02T08:48:54Z</time>
      </trkpt>
      <trkpt lat="36.8062790" lon="-2.9070020">
        <ele>632.0</ele>
        <time>2021-03-02T08:48:55Z</time>
      </trkpt>
      <trkpt lat="36.8062700" lon="-2.9069680">
        <ele>632.2</ele>
        <time>2021-03-02T08:48:56Z</time>
      </trkpt>
      <trkpt lat="36.8062620" lon="-2.9069380">
        <ele>632.2</ele>
        <time>2021-03-02T08:48:57Z</time>
      </trkpt>
      <trkpt lat="36.8062550" lon="-2.9069100">
        <ele>632.6</ele>
        <time>2021-03-02T08:48:58Z</time>
      </trkpt>
      <trkpt lat="36.8062480" lon="-2.9068830">
        <ele>632.8</ele>
        <time>2021-03-02T08:48:59Z</time>
      </trkpt>
      <trkpt lat="36.8062420" lon="-2.9068540">
        <ele>633.0</ele>
        <time>2021-03-02T08:49:00Z</time>
      </trkpt>
      <trkpt lat="36.8062360" lon="-2.9068260">
        <ele>633.4</ele>
        <time>2021-03-02T08:49:01Z</time>
      </trkpt>
      <trkpt lat="36.8062290" lon="-2.9067980">
        <ele>633.6</ele>
        <time>2021-03-02T08:49:02Z</time>
      </trkpt>
      <trkpt lat="36.8062210" lon="-2.9067690">
        <ele>634.0</ele>
        <time>2021-03-02T08:49:03Z</time>
      </trkpt>
      <trkpt lat="36.8062150" lon="-2.9067400">
        <ele>634.0</ele>
        <time>2021-03-02T08:49:04Z</time>
      </trkpt>
      <trkpt lat="36.8062070" lon="-2.9067100">
        <ele>634.2</ele>
        <time>2021-03-02T08:49:05Z</time>
      </trkpt>
      <trkpt lat="36.8062010" lon="-2.9066810">
        <ele>634.4</ele>
        <time>2021-03-02T08:49:06Z</time>
      </trkpt>
      <trkpt lat="36.8061940" lon="-2.9066520">
        <ele>634.6</ele>
        <time>2021-03-02T08:49:07Z</time>
      </trkpt>
      <trkpt lat="36.8061880" lon="-2.9066230">
        <ele>634.8</ele>
        <time>2021-03-02T08:49:08Z</time>
      </trkpt>
      <trkpt lat="36.8061810" lon="-2.9065950">
        <ele>635.0</ele>
        <time>2021-03-02T08:49:09Z</time>
      </trkpt>
      <trkpt lat="36.8061740" lon="-2.9065650">
        <ele>635.2</ele>
        <time>2021-03-02T08:49:10Z</time>
      </trkpt>
      <trkpt lat="36.8061680" lon="-2.9065360">
        <ele>635.4</ele>
        <time>2021-03-02T08:49:11Z</time>
      </trkpt>
      <trkpt lat="36.8061610" lon="-2.9065070">
        <ele>635.8</ele>
        <time>2021-03-02T08:49:12Z</time>
      </trkpt>
      <trkpt lat="36.8061540" lon="-2.9064770">
        <ele>635.8</ele>
        <time>2021-03-02T08:49:13Z</time>
      </trkpt>
      <trkpt lat="36.8061470" lon="-2.9064470">
        <ele>636.0</ele>
        <time>2021-03-02T08:49:14Z</time>
      </trkpt>
      <trkpt lat="36.8061400" lon="-2.9064160">
        <ele>636.0</ele>
        <time>2021-03-02T08:49:15Z</time>
      </trkpt>
      <trkpt lat="36.8061350" lon="-2.9063860">
        <ele>636.0</ele>
        <time>2021-03-02T08:49:16Z</time>
      </trkpt>
      <trkpt lat="36.8061290" lon="-2.9063560">
        <ele>636.4</ele>
        <time>2021-03-02T08:49:17Z</time>
      </trkpt>
      <trkpt lat="36.8061230" lon="-2.9063300">
        <ele>636.6</ele>
        <time>2021-03-02T08:49:18Z</time>
      </trkpt>
      <trkpt lat="36.8061180" lon="-2.9063030">
        <ele>636.8</ele>
        <time>2021-03-02T08:49:19Z</time>
      </trkpt>
      <trkpt lat="36.8061110" lon="-2.9062770">
        <ele>637.0</ele>
        <time>2021-03-02T08:49:20Z</time>
      </trkpt>
      <trkpt lat="36.8061050" lon="-2.9062490">
        <ele>637.0</ele>
        <time>2021-03-02T08:49:21Z</time>
      </trkpt>
      <trkpt lat="36.8060990" lon="-2.9062210">
        <ele>637.4</ele>
        <time>2021-03-02T08:49:22Z</time>
      </trkpt>
      <trkpt lat="36.8060940" lon="-2.9061940">
        <ele>637.6</ele>
        <time>2021-03-02T08:49:23Z</time>
      </trkpt>
      <trkpt lat="36.8060880" lon="-2.9061690">
        <ele>637.8</ele>
        <time>2021-03-02T08:49:24Z</time>
      </trkpt>
      <trkpt lat="36.8060810" lon="-2.9061440">
        <ele>638.2</ele>
        <time>2021-03-02T08:49:25Z</time>
      </trkpt>
      <trkpt lat="36.8060730" lon="-2.9061180">
        <ele>638.2</ele>
        <time>2021-03-02T08:49:26Z</time>
      </trkpt>
      <trkpt lat="36.8060650" lon="-2.9060920">
        <ele>638.6</ele>
        <time>2021-03-02T08:49:27Z</time>
      </trkpt>
      <trkpt lat="36.8060570" lon="-2.9060650">
        <ele>638.6</ele>
        <time>2021-03-02T08:49:28Z</time>
      </trkpt>
      <trkpt lat="36.8060490" lon="-2.9060390">
        <ele>638.8</ele>
        <time>2021-03-02T08:49:29Z</time>
      </trkpt>
      <trkpt lat="36.8060410" lon="-2.9060130">
        <ele>639.0</ele>
        <time>2021-03-02T08:49:30Z</time>
      </trkpt>
      <trkpt lat="36.8060320" lon="-2.9059870">
        <ele>639.0</ele>
        <time>2021-03-02T08:49:31Z</time>
      </trkpt>
      <trkpt lat="36.8060230" lon="-2.9059620">
        <ele>639.2</ele>
        <time>2021-03-02T08:49:32Z</time>
      </trkpt>
      <trkpt lat="36.8060150" lon="-2.9059370">
        <ele>639.4</ele>
        <time>2021-03-02T08:49:33Z</time>
      </trkpt>
      <trkpt lat="36.8060060" lon="-2.9059110">
        <ele>639.6</ele>
        <time>2021-03-02T08:49:34Z</time>
      </trkpt>
      <trkpt lat="36.8060000" lon="-2.9058850">
        <ele>639.6</ele>
        <time>2021-03-02T08:49:35Z</time>
      </trkpt>
      <trkpt lat="36.8059970" lon="-2.9058580">
        <ele>639.8</ele>
        <time>2021-03-02T08:49:36Z</time>
      </trkpt>
      <trkpt lat="36.8059930" lon="-2.9058310">
        <ele>640.2</ele>
        <time>2021-03-02T08:49:37Z</time>
      </trkpt>
      <trkpt lat="36.8059880" lon="-2.9058050">
        <ele>640.2</ele>
        <time>2021-03-02T08:49:38Z</time>
      </trkpt>
      <trkpt lat="36.8059820" lon="-2.9057800">
        <ele>640.4</ele>
        <time>2021-03-02T08:49:39Z</time>
      </trkpt>
      <trkpt lat="36.8059770" lon="-2.9057540">
        <ele>640.6</ele>
        <time>2021-03-02T08:49:40Z</time>
      </trkpt>
      <trkpt lat="36.8059730" lon="-2.9057280">
        <ele>640.8</ele>
        <time>2021-03-02T08:49:41Z</time>
      </trkpt>
      <trkpt lat="36.8059690" lon="-2.9056990">
        <ele>641.0</ele>
        <time>2021-03-02T08:49:42Z</time>
      </trkpt>
      <trkpt lat="36.8059660" lon="-2.9056710">
        <ele>641.2</ele>
        <time>2021-03-02T08:49:43Z</time>
      </trkpt>
      <trkpt lat="36.8059650" lon="-2.9056440">
        <ele>641.4</ele>
        <time>2021-03-02T08:49:44Z</time>
      </trkpt>
      <trkpt lat="36.8059640" lon="-2.9056190">
        <ele>641.4</ele>
        <time>2021-03-02T08:49:45Z</time>
      </trkpt>
      <trkpt lat="36.8059620" lon="-2.9055970">
        <ele>641.6</ele>
        <time>2021-03-02T08:49:46Z</time>
      </trkpt>
      <trkpt lat="36.8059610" lon="-2.9055760">
        <ele>641.6</ele>
        <time>2021-03-02T08:49:47Z</time>
      </trkpt>
      <trkpt lat="36.8059610" lon="-2.9055550">
        <ele>641.8</ele>
        <time>2021-03-02T08:49:48Z</time>
      </trkpt>
      <trkpt lat="36.8059610" lon="-2.9055350">
        <ele>641.8</ele>
        <time>2021-03-02T08:49:49Z</time>
      </trkpt>
      <trkpt lat="36.8059590" lon="-2.9055160">
        <ele>642.2</ele>
        <time>2021-03-02T08:49:50Z</time>
      </trkpt>
      <trkpt lat="36.8059560" lon="-2.9054960">
        <ele>642.4</ele>
        <time>2021-03-02T08:49:51Z</time>
      </trkpt>
      <trkpt lat="36.8059530" lon="-2.9054760">
        <ele>642.6</ele>
        <time>2021-03-02T08:49:52Z</time>
      </trkpt>
      <trkpt lat="36.8059510" lon="-2.9054550">
        <ele>642.8</ele>
        <time>2021-03-02T08:49:53Z</time>
      </trkpt>
      <trkpt lat="36.8059490" lon="-2.9054350">
        <ele>643.0</ele>
        <time>2021-03-02T08:49:54Z</time>
      </trkpt>
      <trkpt lat="36.8059440" lon="-2.9054160">
        <ele>643.2</ele>
        <time>2021-03-02T08:49:55Z</time>
      </trkpt>
      <trkpt lat="36.8059400" lon="-2.9053960">
        <ele>643.6</ele>
        <time>2021-03-02T08:49:56Z</time>
      </trkpt>
      <trkpt lat="36.8059350" lon="-2.9053760">
        <ele>643.6</ele>
        <time>2021-03-02T08:49:57Z</time>
      </trkpt>
      <trkpt lat="36.8059290" lon="-2.9053580">
        <ele>644.0</ele>
        <time>2021-03-02T08:49:58Z</time>
      </trkpt>
      <trkpt lat="36.8059220" lon="-2.9053390">
        <ele>644.0</ele>
        <time>2021-03-02T08:49:59Z</time>
      </trkpt>
      <trkpt lat="36.8059140" lon="-2.9053210">
        <ele>644.4</ele>
        <time>2021-03-02T08:50:00Z</time>
      </trkpt>
      <trkpt lat="36.8059050" lon="-2.9053030">
        <ele>644.4</ele>
        <time>2021-03-02T08:50:01Z</time>
      </trkpt>
      <trkpt lat="36.8058950" lon="-2.9052870">
        <ele>644.8</ele>
        <time>2021-03-02T08:50:02Z</time>
      </trkpt>
      <trkpt lat="36.8058830" lon="-2.9052700">
        <ele>645.0</ele>
        <time>2021-03-02T08:50:03Z</time>
      </trkpt>
      <trkpt lat="36.8058710" lon="-2.9052540">
        <ele>645.0</ele>
        <time>2021-03-02T08:50:04Z</time>
      </trkpt>
      <trkpt lat="36.8058590" lon="-2.9052390">
        <ele>645.4</ele>
        <time>2021-03-02T08:50:05Z</time>
      </trkpt>
      <trkpt lat="36.8058440" lon="-2.9052240">
        <ele>645.4</ele>
        <time>2021-03-02T08:50:06Z</time>
      </trkpt>
      <trkpt lat="36.8058280" lon="-2.9052110">
        <ele>645.6</ele>
        <time>2021-03-02T08:50:07Z</time>
      </trkpt>
      <trkpt lat="36.8058120" lon="-2.9051960">
        <ele>645.8</ele>
        <time>2021-03-02T08:50:08Z</time>
      </trkpt>
      <trkpt lat="36.8057960" lon="-2.9051800">
        <ele>646.0</ele>
        <time>2021-03-02T08:50:09Z</time>
      </trkpt>
      <trkpt lat="36.8057790" lon="-2.9051640">
        <ele>646.0</ele>
        <time>2021-03-02T08:50:10Z</time>
      </trkpt>
      <trkpt lat="36.8057620" lon="-2.9051490">
        <ele>646.0</ele>
        <time>2021-03-02T08:50:11Z</time>
      </trkpt>
      <trkpt lat="36.8057450" lon="-2.9051330">
        <ele>646.2</ele>
        <time>2021-03-02T08:50:12Z</time>
      </trkpt>
      <trkpt lat="36.8057290" lon="-2.9051170">
        <ele>646.2</ele>
        <time>2021-03-02T08:50:13Z</time>
      </trkpt>
      <trkpt lat="36.8057130" lon="-2.9051020">
        <ele>646.2</ele>
        <time>2021-03-02T08:50:14Z</time>
      </trkpt>
      <trkpt lat="36.8056960" lon="-2.9050870">
        <ele>646.4</ele>
        <time>2021-03-02T08:50:15Z</time>
      </trkpt>
      <trkpt lat="36.8056820" lon="-2.9050730">
        <ele>646.6</ele>
        <time>2021-03-02T08:50:16Z</time>
      </trkpt>
      <trkpt lat="36.8056670" lon="-2.9050580">
        <ele>646.8</ele>
        <time>2021-03-02T08:50:17Z</time>
      </trkpt>
      <trkpt lat="36.8056520" lon="-2.9050440">
        <ele>647.0</ele>
        <time>2021-03-02T08:50:18Z</time>
      </trkpt>
      <trkpt lat="36.8056370" lon="-2.9050310">
        <ele>647.2</ele>
        <time>2021-03-02T08:50:19Z</time>
      </trkpt>
      <trkpt lat="36.8056240" lon="-2.9050190">
        <ele>647.2</ele>
        <time>2021-03-02T08:50:20Z</time>
      </trkpt>
      <trkpt lat="36.8056110" lon="-2.9050070">
        <ele>647.4</ele>
        <time>2021-03-02T08:50:21Z</time>
      </trkpt>
      <trkpt lat="36.8056000" lon="-2.9049950">
        <ele>647.6</ele>
        <time>2021-03-02T08:50:22Z</time>
      </trkpt>
      <trkpt lat="36.8055880" lon="-2.9049810">
        <ele>647.6</ele>
        <time>2021-03-02T08:50:23Z</time>
      </trkpt>
      <trkpt lat="36.8055750" lon="-2.9049700">
        <ele>648.2</ele>
        <time>2021-03-02T08:50:24Z</time>
      </trkpt>
      <trkpt lat="36.8055610" lon="-2.9049580">
        <ele>648.4</ele>
        <time>2021-03-02T08:50:25Z</time>
      </trkpt>
      <trkpt lat="36.8055480" lon="-2.9049450">
        <ele>648.8</ele>
        <time>2021-03-02T08:50:26Z</time>
      </trkpt>
      <trkpt lat="36.8055410" lon="-2.9049320">
        <ele>649.0</ele>
        <time>2021-03-02T08:50:27Z</time>
      </trkpt>
      <trkpt lat="36.8055370" lon="-2.9049190">
        <ele>649.2</ele>
        <time>2021-03-02T08:50:28Z</time>
      </trkpt>
      <trkpt lat="36.8055370" lon="-2.9049070">
        <ele>649.4</ele>
        <time>2021-03-02T08:50:29Z</time>
      </trkpt>
      <trkpt lat="36.8055370" lon="-2.9048930">
        <ele>649.6</ele>
        <time>2021-03-02T08:50:30Z</time>
      </trkpt>
      <trkpt lat="36.8055390" lon="-2.9048790">
        <ele>650.0</ele>
        <time>2021-03-02T08:50:31Z</time>
      </trkpt>
      <trkpt lat="36.8055450" lon="-2.9048650">
        <ele>650.4</ele>
        <time>2021-03-02T08:50:32Z</time>
      </trkpt>
      <trkpt lat="36.8055540" lon="-2.9048530">
        <ele>650.8</ele>
        <time>2021-03-02T08:50:33Z</time>
      </trkpt>
      <trkpt lat="36.8055660" lon="-2.9048450">
        <ele>651.0</ele>
        <time>2021-03-02T08:50:34Z</time>
      </trkpt>
      <trkpt lat="36.8055790" lon="-2.9048390">
        <ele>651.0</ele>
        <time>2021-03-02T08:50:35Z</time>
      </trkpt>
      <trkpt lat="36.8055940" lon="-2.9048360">
        <ele>651.0</ele>
        <time>2021-03-02T08:50:36Z</time>
      </trkpt>
      <trkpt lat="36.8056090" lon="-2.9048350">
        <ele>651.2</ele>
        <time>2021-03-02T08:50:37Z</time>
      </trkpt>
      <trkpt lat="36.8056250" lon="-2.9048340">
        <ele>651.2</ele>
        <time>2021-03-02T08:50:38Z</time>
      </trkpt>
      <trkpt lat="36.8056410" lon="-2.9048340">
        <ele>651.4</ele>
        <time>2021-03-02T08:50:39Z</time>
      </trkpt>
      <trkpt lat="36.8056550" lon="-2.9048370">
        <ele>651.4</ele>
        <time>2021-03-02T08:50:40Z</time>
      </trkpt>
      <trkpt lat="36.8056690" lon="-2.9048390">
        <ele>651.6</ele>
        <time>2021-03-02T08:50:41Z</time>
      </trkpt>
      <trkpt lat="36.8056840" lon="-2.9048410">
        <ele>651.8</ele>
        <time>2021-03-02T08:50:42Z</time>
      </trkpt>
      <trkpt lat="36.8056980" lon="-2.9048440">
        <ele>652.0</ele>
        <time>2021-03-02T08:50:43Z</time>
      </trkpt>
      <trkpt lat="36.8057120" lon="-2.9048470">
        <ele>652.0</ele>
        <time>2021-03-02T08:50:44Z</time>
      </trkpt>
      <trkpt lat="36.8057260" lon="-2.9048520">
        <ele>652.2</ele>
        <time>2021-03-02T08:50:45Z</time>
      </trkpt>
      <trkpt lat="36.8057390" lon="-2.9048580">
        <ele>652.4</ele>
        <time>2021-03-02T08:50:46Z</time>
      </trkpt>
      <trkpt lat="36.8057540" lon="-2.9048630">
        <ele>652.6</ele>
        <time>2021-03-02T08:50:47Z</time>
      </trkpt>
      <trkpt lat="36.8057670" lon="-2.9048660">
        <ele>652.8</ele>
        <time>2021-03-02T08:50:48Z</time>
      </trkpt>
      <trkpt lat="36.8057810" lon="-2.9048710">
        <ele>653.0</ele>
        <time>2021-03-02T08:50:49Z</time>
      </trkpt>
      <trkpt lat="36.8057960" lon="-2.9048780">
        <ele>653.2</ele>
        <time>2021-03-02T08:50:50Z</time>
      </trkpt>
      <trkpt lat="36.8058110" lon="-2.9048870">
        <ele>653.2</ele>
        <time>2021-03-02T08:50:51Z</time>
      </trkpt>
      <trkpt lat="36.8058270" lon="-2.9048980">
        <ele>653.4</ele>
        <time>2021-03-02T08:50:52Z</time>
      </trkpt>
      <trkpt lat="36.8058420" lon="-2.9049090">
        <ele>653.6</ele>
        <time>2021-03-02T08:50:53Z</time>
      </trkpt>
      <trkpt lat="36.8058590" lon="-2.9049190">
        <ele>653.6</ele>
        <time>2021-03-02T08:50:54Z</time>
      </trkpt>
      <trkpt lat="36.8058750" lon="-2.9049290">
        <ele>653.8</ele>
        <time>2021-03-02T08:50:55Z</time>
      </trkpt>
      <trkpt lat="36.8058910" lon="-2.9049370">
        <ele>653.8</ele>
        <time>2021-03-02T08:50:56Z</time>
      </trkpt>
      <trkpt lat="36.8059050" lon="-2.9049440">
        <ele>654.0</ele>
        <time>2021-03-02T08:50:57Z</time>
      </trkpt>
      <trkpt lat="36.8059200" lon="-2.9049520">
        <ele>654.0</ele>
        <time>2021-03-02T08:50:58Z</time>
      </trkpt>
      <trkpt lat="36.8059340" lon="-2.9049600">
        <ele>654.2</ele>
        <time>2021-03-02T08:50:59Z</time>
      </trkpt>
      <trkpt lat="36.8059480" lon="-2.9049660">
        <ele>654.4</ele>
        <time>2021-03-02T08:51:00Z</time>
      </trkpt>
      <trkpt lat="36.8059620" lon="-2.9049700">
        <ele>654.4</ele>
        <time>2021-03-02T08:51:01Z</time>
      </trkpt>
      <trkpt lat="36.8059760" lon="-2.9049740">
        <ele>654.6</ele>
        <time>2021-03-02T08:51:02Z</time>
      </trkpt>
      <trkpt lat="36.8059910" lon="-2.9049770">
        <ele>654.8</ele>
        <time>2021-03-02T08:51:03Z</time>
      </trkpt>
      <trkpt lat="36.8060050" lon="-2.9049810">
        <ele>655.0</ele>
        <time>2021-03-02T08:51:04Z</time>
      </trkpt>
      <trkpt lat="36.8060200" lon="-2.9049840">
        <ele>655.0</ele>
        <time>2021-03-02T08:51:05Z</time>
      </trkpt>
      <trkpt lat="36.8060340" lon="-2.9049850">
        <ele>655.2</ele>
        <time>2021-03-02T08:51:06Z</time>
      </trkpt>
      <trkpt lat="36.8060480" lon="-2.9049850">
        <ele>655.2</ele>
        <time>2021-03-02T08:51:07Z</time>
      </trkpt>
      <trkpt lat="36.8060630" lon="-2.9049830">
        <ele>655.4</ele>
        <time>2021-03-02T08:51:08Z</time>
      </trkpt>
      <trkpt lat="36.8060770" lon="-2.9049780">
        <ele>655.6</ele>
        <time>2021-03-02T08:51:09Z</time>
      </trkpt>
      <trkpt lat="36.8060930" lon="-2.9049730">
        <ele>655.6</ele>
        <time>2021-03-02T08:51:10Z</time>
      </trkpt>
      <trkpt lat="36.8061080" lon="-2.9049680">
        <ele>655.8</ele>
        <time>2021-03-02T08:51:11Z</time>
      </trkpt>
      <trkpt lat="36.8061230" lon="-2.9049640">
        <ele>656.0</ele>
        <time>2021-03-02T08:51:12Z</time>
      </trkpt>
      <trkpt lat="36.8061360" lon="-2.9049580">
        <ele>656.0</ele>
        <time>2021-03-02T08:51:13Z</time>
      </trkpt>
      <trkpt lat="36.8061520" lon="-2.9049460">
        <ele>656.2</ele>
        <time>2021-03-02T08:51:14Z</time>
      </trkpt>
      <trkpt lat="36.8061690" lon="-2.9049310">
        <ele>656.2</ele>
        <time>2021-03-02T08:51:15Z</time>
      </trkpt>
      <trkpt lat="36.8061840" lon="-2.9049140">
        <ele>656.2</ele>
        <time>2021-03-02T08:51:16Z</time>
      </trkpt>
      <trkpt lat="36.8062000" lon="-2.9048950">
        <ele>656.2</ele>
        <time>2021-03-02T08:51:17Z</time>
      </trkpt>
      <trkpt lat="36.8062160" lon="-2.9048740">
        <ele>656.2</ele>
        <time>2021-03-02T08:51:18Z</time>
      </trkpt>
      <trkpt lat="36.8062310" lon="-2.9048510">
        <ele>656.2</ele>
        <time>2021-03-02T08:51:19Z</time>
      </trkpt>
      <trkpt lat="36.8062460" lon="-2.9048280">
        <ele>656.2</ele>
        <time>2021-03-02T08:51:20Z</time>
      </trkpt>
      <trkpt lat="36.8062610" lon="-2.9048050">
        <ele>656.2</ele>
        <time>2021-03-02T08:51:21Z</time>
      </trkpt>
      <trkpt lat="36.8062770" lon="-2.9047770">
        <ele>656.4</ele>
        <time>2021-03-02T08:51:22Z</time>
      </trkpt>
      <trkpt lat="36.8062930" lon="-2.9047470">
        <ele>656.4</ele>
        <time>2021-03-02T08:51:23Z</time>
      </trkpt>
      <trkpt lat="36.8063080" lon="-2.9047150">
        <ele>656.4</ele>
        <time>2021-03-02T08:51:24Z</time>
      </trkpt>
      <trkpt lat="36.8063250" lon="-2.9046800">
        <ele>656.4</ele>
        <time>2021-03-02T08:51:25Z</time>
      </trkpt>
      <trkpt lat="36.8063430" lon="-2.9046450">
        <ele>656.4</ele>
        <time>2021-03-02T08:51:26Z</time>
      </trkpt>
      <trkpt lat="36.8063640" lon="-2.9046100">
        <ele>656.6</ele>
        <time>2021-03-02T08:51:27Z</time>
      </trkpt>
      <trkpt lat="36.8063870" lon="-2.9045770">
        <ele>656.6</ele>
        <time>2021-03-02T08:51:28Z</time>
      </trkpt>
      <trkpt lat="36.8064160" lon="-2.9045440">
        <ele>656.6</ele>
        <time>2021-03-02T08:51:29Z</time>
      </trkpt>
      <trkpt lat="36.8064500" lon="-2.9045100">
        <ele>656.6</ele>
        <time>2021-03-02T08:51:30Z</time>
      </trkpt>
      <trkpt lat="36.8064890" lon="-2.9044760">
        <ele>656.4</ele>
        <time>2021-03-02T08:51:31Z</time>
      </trkpt>
      <trkpt lat="36.8065310" lon="-2.9044460">
        <ele>656.4</ele>
        <time>2021-03-02T08:51:32Z</time>
      </trkpt>
      <trkpt lat="36.8065770" lon="-2.9044220">
        <ele>656.2</ele>
        <time>2021-03-02T08:51:33Z</time>
      </trkpt>
      <trkpt lat="36.8066270" lon="-2.9044030">
        <ele>656.2</ele>
        <time>2021-03-02T08:51:34Z</time>
      </trkpt>
      <trkpt lat="36.8066790" lon="-2.9043840">
        <ele>656.0</ele>
        <time>2021-03-02T08:51:35Z</time>
      </trkpt>
      <trkpt lat="36.8067320" lon="-2.9043610">
        <ele>656.0</ele>
        <time>2021-03-02T08:51:36Z</time>
      </trkpt>
      <trkpt lat="36.8067850" lon="-2.9043370">
        <ele>655.8</ele>
        <time>2021-03-02T08:51:37Z</time>
      </trkpt>
      <trkpt lat="36.8068370" lon="-2.9043140">
        <ele>655.8</ele>
        <time>2021-03-02T08:51:38Z</time>
      </trkpt>
      <trkpt lat="36.8068820" lon="-2.9042890">
        <ele>655.8</ele>
        <time>2021-03-02T08:51:39Z</time>
      </trkpt>
      <trkpt lat="36.8069170" lon="-2.9042620">
        <ele>656.4</ele>
        <time>2021-03-02T08:51:40Z</time>
      </trkpt>
      <trkpt lat="36.8069460" lon="-2.9042370">
        <ele>656.8</ele>
        <time>2021-03-02T08:51:41Z</time>
      </trkpt>
      <trkpt lat="36.8069670" lon="-2.9042150">
        <ele>657.8</ele>
        <time>2021-03-02T08:51:42Z</time>
      </trkpt>
      <trkpt lat="36.8069850" lon="-2.9041950">
        <ele>658.0</ele>
        <time>2021-03-02T08:51:43Z</time>
      </trkpt>
      <trkpt lat="36.8070020" lon="-2.9041750">
        <ele>658.6</ele>
        <time>2021-03-02T08:51:44Z</time>
      </trkpt>
      <trkpt lat="36.8070180" lon="-2.9041560">
        <ele>659.0</ele>
        <time>2021-03-02T08:51:45Z</time>
      </trkpt>
      <trkpt lat="36.8070310" lon="-2.9041380">
        <ele>659.2</ele>
        <time>2021-03-02T08:51:46Z</time>
      </trkpt>
      <trkpt lat="36.8070430" lon="-2.9041200">
        <ele>659.6</ele>
        <time>2021-03-02T08:51:47Z</time>
      </trkpt>
      <trkpt lat="36.8070540" lon="-2.9040980">
        <ele>659.6</ele>
        <time>2021-03-02T08:51:48Z</time>
      </trkpt>
      <trkpt lat="36.8070670" lon="-2.9040770">
        <ele>660.0</ele>
        <time>2021-03-02T08:51:49Z</time>
      </trkpt>
      <trkpt lat="36.8070810" lon="-2.9040590">
        <ele>660.2</ele>
        <time>2021-03-02T08:51:50Z</time>
      </trkpt>
      <trkpt lat="36.8070970" lon="-2.9040410">
        <ele>660.2</ele>
        <time>2021-03-02T08:51:51Z</time>
      </trkpt>
      <trkpt lat="36.8071120" lon="-2.9040240">
        <ele>660.6</ele>
        <time>2021-03-02T08:51:52Z</time>
      </trkpt>
      <trkpt lat="36.8071260" lon="-2.9040060">
        <ele>660.8</ele>
        <time>2021-03-02T08:51:53Z</time>
      </trkpt>
      <trkpt lat="36.8071400" lon="-2.9039880">
        <ele>661.2</ele>
        <time>2021-03-02T08:51:54Z</time>
      </trkpt>
      <trkpt lat="36.8071540" lon="-2.9039690">
        <ele>661.4</ele>
        <time>2021-03-02T08:51:55Z</time>
      </trkpt>
      <trkpt lat="36.8071680" lon="-2.9039500">
        <ele>661.6</ele>
        <time>2021-03-02T08:51:56Z</time>
      </trkpt>
      <trkpt lat="36.8071840" lon="-2.9039310">
        <ele>662.0</ele>
        <time>2021-03-02T08:51:57Z</time>
      </trkpt>
      <trkpt lat="36.8072000" lon="-2.9039120">
        <ele>662.2</ele>
        <time>2021-03-02T08:51:58Z</time>
      </trkpt>
      <trkpt lat="36.8072180" lon="-2.9038920">
        <ele>662.4</ele>
        <time>2021-03-02T08:51:59Z</time>
      </trkpt>
      <trkpt lat="36.8072370" lon="-2.9038710">
        <ele>662.4</ele>
        <time>2021-03-02T08:52:00Z</time>
      </trkpt>
      <trkpt lat="36.8072560" lon="-2.9038530">
        <ele>662.6</ele>
        <time>2021-03-02T08:52:01Z</time>
      </trkpt>
      <trkpt lat="36.8072790" lon="-2.9038350">
        <ele>662.8</ele>
        <time>2021-03-02T08:52:02Z</time>
      </trkpt>
      <trkpt lat="36.8073030" lon="-2.9038180">
        <ele>662.8</ele>
        <time>2021-03-02T08:52:03Z</time>
      </trkpt>
      <trkpt lat="36.8073290" lon="-2.9038030">
        <ele>663.0</ele>
        <time>2021-03-02T08:52:04Z</time>
      </trkpt>
      <trkpt lat="36.8073560" lon="-2.9037870">
        <ele>663.0</ele>
        <time>2021-03-02T08:52:05Z</time>
      </trkpt>
      <trkpt lat="36.8073830" lon="-2.9037700">
        <ele>663.0</ele>
        <time>2021-03-02T08:52:06Z</time>
      </trkpt>
      <trkpt lat="36.8074090" lon="-2.9037530">
        <ele>663.2</ele>
        <time>2021-03-02T08:52:07Z</time>
      </trkpt>
      <trkpt lat="36.8074350" lon="-2.9037370">
        <ele>663.4</ele>
        <time>2021-03-02T08:52:08Z</time>
      </trkpt>
      <trkpt lat="36.8074590" lon="-2.9037200">
        <ele>663.4</ele>
        <time>2021-03-02T08:52:09Z</time>
      </trkpt>
      <trkpt lat="36.8074840" lon="-2.9037020">
        <ele>663.6</ele>
        <time>2021-03-02T08:52:10Z</time>
      </trkpt>
      <trkpt lat="36.8075080" lon="-2.9036850">
        <ele>663.8</ele>
        <time>2021-03-02T08:52:11Z</time>
      </trkpt>
      <trkpt lat="36.8075320" lon="-2.9036680">
        <ele>664.0</ele>
        <time>2021-03-02T08:52:12Z</time>
      </trkpt>
      <trkpt lat="36.8075560" lon="-2.9036530">
        <ele>664.0</ele>
        <time>2021-03-02T08:52:13Z</time>
      </trkpt>
      <trkpt lat="36.8075800" lon="-2.9036370">
        <ele>664.2</ele>
        <time>2021-03-02T08:52:14Z</time>
      </trkpt>
      <trkpt lat="36.8076050" lon="-2.9036200">
        <ele>664.2</ele>
        <time>2021-03-02T08:52:15Z</time>
      </trkpt>
      <trkpt lat="36.8076290" lon="-2.9036030">
        <ele>664.4</ele>
        <time>2021-03-02T08:52:16Z</time>
      </trkpt>
      <trkpt lat="36.8076550" lon="-2.9035890">
        <ele>664.6</ele>
        <time>2021-03-02T08:52:17Z</time>
      </trkpt>
      <trkpt lat="36.8076820" lon="-2.9035780">
        <ele>664.8</ele>
        <time>2021-03-02T08:52:18Z</time>
      </trkpt>
      <trkpt lat="36.8077090" lon="-2.9035670">
        <ele>664.8</ele>
        <time>2021-03-02T08:52:19Z</time>
      </trkpt>
      <trkpt lat="36.8077360" lon="-2.9035540">
        <ele>665.0</ele>
        <time>2021-03-02T08:52:20Z</time>
      </trkpt>
      <trkpt lat="36.8077620" lon="-2.9035400">
        <ele>665.0</ele>
        <time>2021-03-02T08:52:21Z</time>
      </trkpt>
      <trkpt lat="36.8077890" lon="-2.9035270">
        <ele>665.2</ele>
        <time>2021-03-02T08:52:22Z</time>
      </trkpt>
      <trkpt lat="36.8078160" lon="-2.9035120">
        <ele>665.4</ele>
        <time>2021-03-02T08:52:23Z</time>
      </trkpt>
      <trkpt lat="36.8078430" lon="-2.9034960">
        <ele>665.4</ele>
        <time>2021-03-02T08:52:24Z</time>
      </trkpt>
      <trkpt lat="36.8078710" lon="-2.9034780">
        <ele>666.0</ele>
        <time>2021-03-02T08:52:25Z</time>
      </trkpt>
      <trkpt lat="36.8078950" lon="-2.9034590">
        <ele>666.0</ele>
        <time>2021-03-02T08:52:26Z</time>
      </trkpt>
      <trkpt lat="36.8079140" lon="-2.9034430">
        <ele>666.4</ele>
        <time>2021-03-02T08:52:27Z</time>
      </trkpt>
      <trkpt lat="36.8079300" lon="-2.9034320">
        <ele>666.6</ele>
        <time>2021-03-02T08:52:28Z</time>
      </trkpt>
      <trkpt lat="36.8079430" lon="-2.9034240">
        <ele>666.8</ele>
        <time>2021-03-02T08:52:29Z</time>
      </trkpt>
      <trkpt lat="36.8079540" lon="-2.9034120">
        <ele>667.0</ele>
        <time>2021-03-02T08:52:30Z</time>
      </trkpt>
      <trkpt lat="36.8079680" lon="-2.9033990">
        <ele>667.2</ele>
        <time>2021-03-02T08:52:31Z</time>
      </trkpt>
      <trkpt lat="36.8079820" lon="-2.9033850">
        <ele>667.4</ele>
        <time>2021-03-02T08:52:32Z</time>
      </trkpt>
      <trkpt lat="36.8079980" lon="-2.9033690">
        <ele>667.4</ele>
        <time>2021-03-02T08:52:33Z</time>
      </trkpt>
      <trkpt lat="36.8080180" lon="-2.9033510">
        <ele>667.4</ele>
        <time>2021-03-02T08:52:34Z</time>
      </trkpt>
      <trkpt lat="36.8080380" lon="-2.9033320">
        <ele>667.6</ele>
        <time>2021-03-02T08:52:35Z</time>
      </trkpt>
      <trkpt lat="36.8080570" lon="-2.9033140">
        <ele>667.6</ele>
        <time>2021-03-02T08:52:36Z</time>
      </trkpt>
      <trkpt lat="36.8080760" lon="-2.9032960">
        <ele>667.8</ele>
        <time>2021-03-02T08:52:37Z</time>
      </trkpt>
      <trkpt lat="36.8080960" lon="-2.9032760">
        <ele>667.8</ele>
        <time>2021-03-02T08:52:38Z</time>
      </trkpt>
      <trkpt lat="36.8081180" lon="-2.9032570">
        <ele>668.0</ele>
        <time>2021-03-02T08:52:39Z</time>
      </trkpt>
      <trkpt lat="36.8081410" lon="-2.9032380">
        <ele>668.0</ele>
        <time>2021-03-02T08:52:40Z</time>
      </trkpt>
      <trkpt lat="36.8081630" lon="-2.9032200">
        <ele>668.2</ele>
        <time>2021-03-02T08:52:41Z</time>
      </trkpt>
      <trkpt lat="36.8081840" lon="-2.9031990">
        <ele>668.2</ele>
        <time>2021-03-02T08:52:42Z</time>
      </trkpt>
      <trkpt lat="36.8082050" lon="-2.9031780">
        <ele>668.4</ele>
        <time>2021-03-02T08:52:43Z</time>
      </trkpt>
      <trkpt lat="36.8082270" lon="-2.9031550">
        <ele>668.4</ele>
        <time>2021-03-02T08:52:44Z</time>
      </trkpt>
      <trkpt lat="36.8082490" lon="-2.9031330">
        <ele>668.4</ele>
        <time>2021-03-02T08:52:45Z</time>
      </trkpt>
      <trkpt lat="36.8082700" lon="-2.9031110">
        <ele>668.6</ele>
        <time>2021-03-02T08:52:46Z</time>
      </trkpt>
      <trkpt lat="36.8082910" lon="-2.9030880">
        <ele>668.8</ele>
        <time>2021-03-02T08:52:47Z</time>
      </trkpt>
      <trkpt lat="36.8083100" lon="-2.9030650">
        <ele>669.2</ele>
        <time>2021-03-02T08:52:48Z</time>
      </trkpt>
      <trkpt lat="36.8083290" lon="-2.9030430">
        <ele>669.4</ele>
        <time>2021-03-02T08:52:49Z</time>
      </trkpt>
      <trkpt lat="36.8083480" lon="-2.9030210">
        <ele>669.4</ele>
        <time>2021-03-02T08:52:50Z</time>
      </trkpt>
      <trkpt lat="36.8083670" lon="-2.9030020">
        <ele>669.6</ele>
        <time>2021-03-02T08:52:51Z</time>
      </trkpt>
      <trkpt lat="36.8083880" lon="-2.9029840">
        <ele>669.8</ele>
        <time>2021-03-02T08:52:52Z</time>
      </trkpt>
      <trkpt lat="36.8084080" lon="-2.9029660">
        <ele>670.0</ele>
        <time>2021-03-02T08:52:53Z</time>
      </trkpt>
      <trkpt lat="36.8084250" lon="-2.9029450">
        <ele>670.2</ele>
        <time>2021-03-02T08:52:54Z</time>
      </trkpt>
      <trkpt lat="36.8084420" lon="-2.9029250">
        <ele>670.4</ele>
        <time>2021-03-02T08:52:55Z</time>
      </trkpt>
      <trkpt lat="36.8084600" lon="-2.9029050">
        <ele>670.6</ele>
        <time>2021-03-02T08:52:56Z</time>
      </trkpt>
      <trkpt lat="36.8084790" lon="-2.9028850">
        <ele>670.8</ele>
        <time>2021-03-02T08:52:57Z</time>
      </trkpt>
      <trkpt lat="36.8085000" lon="-2.9028660">
        <ele>671.0</ele>
        <time>2021-03-02T08:52:58Z</time>
      </trkpt>
      <trkpt lat="36.8085200" lon="-2.9028470">
        <ele>671.0</ele>
        <time>2021-03-02T08:52:59Z</time>
      </trkpt>
      <trkpt lat="36.8085390" lon="-2.9028290">
        <ele>671.2</ele>
        <time>2021-03-02T08:53:00Z</time>
      </trkpt>
      <trkpt lat="36.8085560" lon="-2.9028100">
        <ele>671.4</ele>
        <time>2021-03-02T08:53:01Z</time>
      </trkpt>
      <trkpt lat="36.8085740" lon="-2.9027910">
        <ele>671.4</ele>
        <time>2021-03-02T08:53:02Z</time>
      </trkpt>
      <trkpt lat="36.8085930" lon="-2.9027710">
        <ele>671.4</ele>
        <time>2021-03-02T08:53:03Z</time>
      </trkpt>
      <trkpt lat="36.8086100" lon="-2.9027510">
        <ele>671.6</ele>
        <time>2021-03-02T08:53:04Z</time>
      </trkpt>
      <trkpt lat="36.8086250" lon="-2.9027290">
        <ele>672.0</ele>
        <time>2021-03-02T08:53:05Z</time>
      </trkpt>
      <trkpt lat="36.8086380" lon="-2.9027060">
        <ele>672.0</ele>
        <time>2021-03-02T08:53:06Z</time>
      </trkpt>
      <trkpt lat="36.8086530" lon="-2.9026840">
        <ele>672.4</ele>
        <time>2021-03-02T08:53:07Z</time>
      </trkpt>
      <trkpt lat="36.8086680" lon="-2.9026630">
        <ele>672.6</ele>
        <time>2021-03-02T08:53:08Z</time>
      </trkpt>
      <trkpt lat="36.8086830" lon="-2.9026390">
        <ele>672.8</ele>
        <time>2021-03-02T08:53:09Z</time>
      </trkpt>
      <trkpt lat="36.8086960" lon="-2.9026160">
        <ele>673.0</ele>
        <time>2021-03-02T08:53:10Z</time>
      </trkpt>
      <trkpt lat="36.8087100" lon="-2.9025950">
        <ele>673.0</ele>
        <time>2021-03-02T08:53:11Z</time>
      </trkpt>
      <trkpt lat="36.8087220" lon="-2.9025760">
        <ele>673.2</ele>
        <time>2021-03-02T08:53:12Z</time>
      </trkpt>
      <trkpt lat="36.8087350" lon="-2.9025580">
        <ele>673.4</ele>
        <time>2021-03-02T08:53:13Z</time>
      </trkpt>
      <trkpt lat="36.8087480" lon="-2.9025410">
        <ele>673.6</ele>
        <time>2021-03-02T08:53:14Z</time>
      </trkpt>
      <trkpt lat="36.8087620" lon="-2.9025220">
        <ele>673.8</ele>
        <time>2021-03-02T08:53:15Z</time>
      </trkpt>
      <trkpt lat="36.8087760" lon="-2.9025030">
        <ele>674.0</ele>
        <time>2021-03-02T08:53:16Z</time>
      </trkpt>
      <trkpt lat="36.8087890" lon="-2.9024850">
        <ele>674.2</ele>
        <time>2021-03-02T08:53:17Z</time>
      </trkpt>
      <trkpt lat="36.8088020" lon="-2.9024650">
        <ele>674.4</ele>
        <time>2021-03-02T08:53:18Z</time>
      </trkpt>
      <trkpt lat="36.8088170" lon="-2.9024440">
        <ele>674.6</ele>
        <time>2021-03-02T08:53:19Z</time>
      </trkpt>
      <trkpt lat="36.8088330" lon="-2.9024250">
        <ele>674.8</ele>
        <time>2021-03-02T08:53:20Z</time>
      </trkpt>
      <trkpt lat="36.8088510" lon="-2.9024050">
        <ele>675.0</ele>
        <time>2021-03-02T08:53:21Z</time>
      </trkpt>
      <trkpt lat="36.8088690" lon="-2.9023850">
        <ele>675.0</ele>
        <time>2021-03-02T08:53:22Z</time>
      </trkpt>
      <trkpt lat="36.8088880" lon="-2.9023650">
        <ele>675.2</ele>
        <time>2021-03-02T08:53:23Z</time>
      </trkpt>
      <trkpt lat="36.8089080" lon="-2.9023470">
        <ele>675.2</ele>
        <time>2021-03-02T08:53:24Z</time>
      </trkpt>
      <trkpt lat="36.8089250" lon="-2.9023280">
        <ele>675.2</ele>
        <time>2021-03-02T08:53:25Z</time>
      </trkpt>
      <trkpt lat="36.8089420" lon="-2.9023080">
        <ele>675.4</ele>
        <time>2021-03-02T08:53:26Z</time>
      </trkpt>
      <trkpt lat="36.8089590" lon="-2.9022890">
        <ele>675.6</ele>
        <time>2021-03-02T08:53:27Z</time>
      </trkpt>
      <trkpt lat="36.8089770" lon="-2.9022690">
        <ele>675.6</ele>
        <time>2021-03-02T08:53:28Z</time>
      </trkpt>
      <trkpt lat="36.8089940" lon="-2.9022500">
        <ele>675.8</ele>
        <time>2021-03-02T08:53:29Z</time>
      </trkpt>
      <trkpt lat="36.8090110" lon="-2.9022310">
        <ele>676.0</ele>
        <time>2021-03-02T08:53:30Z</time>
      </trkpt>
      <trkpt lat="36.8090260" lon="-2.9022120">
        <ele>676.0</ele>
        <time>2021-03-02T08:53:31Z</time>
      </trkpt>
      <trkpt lat="36.8090410" lon="-2.9021950">
        <ele>676.2</ele>
        <time>2021-03-02T08:53:32Z</time>
      </trkpt>
      <trkpt lat="36.8090560" lon="-2.9021810">
        <ele>676.4</ele>
        <time>2021-03-02T08:53:33Z</time>
      </trkpt>
      <trkpt lat="36.8090720" lon="-2.9021680">
        <ele>676.6</ele>
        <time>2021-03-02T08:53:34Z</time>
      </trkpt>
      <trkpt lat="36.8090890" lon="-2.9021510">
        <ele>676.8</ele>
        <time>2021-03-02T08:53:35Z</time>
      </trkpt>
      <trkpt lat="36.8091080" lon="-2.9021350">
        <ele>677.0</ele>
        <time>2021-03-02T08:53:36Z</time>
      </trkpt>
      <trkpt lat="36.8091270" lon="-2.9021200">
        <ele>677.2</ele>
        <time>2021-03-02T08:53:37Z</time>
      </trkpt>
      <trkpt lat="36.8091480" lon="-2.9021060">
        <ele>677.4</ele>
        <time>2021-03-02T08:53:38Z</time>
      </trkpt>
      <trkpt lat="36.8091700" lon="-2.9020920">
        <ele>677.6</ele>
        <time>2021-03-02T08:53:39Z</time>
      </trkpt>
      <trkpt lat="36.8091950" lon="-2.9020780">
        <ele>677.6</ele>
        <time>2021-03-02T08:53:40Z</time>
      </trkpt>
      <trkpt lat="36.8092200" lon="-2.9020660">
        <ele>677.6</ele>
        <time>2021-03-02T08:53:41Z</time>
      </trkpt>
      <trkpt lat="36.8092430" lon="-2.9020570">
        <ele>677.8</ele>
        <time>2021-03-02T08:53:42Z</time>
      </trkpt>
      <trkpt lat="36.8092650" lon="-2.9020510">
        <ele>678.2</ele>
        <time>2021-03-02T08:53:43Z</time>
      </trkpt>
      <trkpt lat="36.8092870" lon="-2.9020480">
        <ele>678.2</ele>
        <time>2021-03-02T08:53:44Z</time>
      </trkpt>
      <trkpt lat="36.8093130" lon="-2.9020480">
        <ele>678.2</ele>
        <time>2021-03-02T08:53:45Z</time>
      </trkpt>
      <trkpt lat="36.8093400" lon="-2.9020500">
        <ele>678.4</ele>
        <time>2021-03-02T08:53:46Z</time>
      </trkpt>
      <trkpt lat="36.8093700" lon="-2.9020540">
        <ele>678.4</ele>
        <time>2021-03-02T08:53:47Z</time>
      </trkpt>
      <trkpt lat="36.8094030" lon="-2.9020620">
        <ele>678.4</ele>
        <time>2021-03-02T08:53:48Z</time>
      </trkpt>
      <trkpt lat="36.8094390" lon="-2.9020740">
        <ele>678.2</ele>
        <time>2021-03-02T08:53:49Z</time>
      </trkpt>
      <trkpt lat="36.8094800" lon="-2.9020880">
        <ele>678.2</ele>
        <time>2021-03-02T08:53:50Z</time>
      </trkpt>
      <trkpt lat="36.8095240" lon="-2.9021020">
        <ele>678.0</ele>
        <time>2021-03-02T08:53:51Z</time>
      </trkpt>
      <trkpt lat="36.8095720" lon="-2.9021200">
        <ele>677.8</ele>
        <time>2021-03-02T08:53:52Z</time>
      </trkpt>
      <trkpt lat="36.8096230" lon="-2.9021360">
        <ele>677.6</ele>
        <time>2021-03-02T08:53:53Z</time>
      </trkpt>
      <trkpt lat="36.8096770" lon="-2.9021510">
        <ele>677.2</ele>
        <time>2021-03-02T08:53:54Z</time>
      </trkpt>
      <trkpt lat="36.8097320" lon="-2.9021670">
        <ele>677.0</ele>
        <time>2021-03-02T08:53:55Z</time>
      </trkpt>
      <trkpt lat="36.8097870" lon="-2.9021840">
        <ele>676.8</ele>
        <time>2021-03-02T08:53:56Z</time>
      </trkpt>
      <trkpt lat="36.8098440" lon="-2.9022000">
        <ele>676.6</ele>
        <time>2021-03-02T08:53:57Z</time>
      </trkpt>
      <trkpt lat="36.8099010" lon="-2.9022160">
        <ele>676.4</ele>
        <time>2021-03-02T08:53:58Z</time>
      </trkpt>
      <trkpt lat="36.8099580" lon="-2.9022320">
        <ele>676.2</ele>
        <time>2021-03-02T08:53:59Z</time>
      </trkpt>
      <trkpt lat="36.8100140" lon="-2.9022480">
        <ele>676.2</ele>
        <time>2021-03-02T08:54:00Z</time>
      </trkpt>
      <trkpt lat="36.8100680" lon="-2.9022690">
        <ele>676.0</ele>
        <time>2021-03-02T08:54:01Z</time>
      </trkpt>
      <trkpt lat="36.8101220" lon="-2.9022930">
        <ele>676.0</ele>
        <time>2021-03-02T08:54:02Z</time>
      </trkpt>
      <trkpt lat="36.8101770" lon="-2.9023210">
        <ele>676.0</ele>
        <time>2021-03-02T08:54:03Z</time>
      </trkpt>
      <trkpt lat="36.8102340" lon="-2.9023500">
        <ele>676.0</ele>
        <time>2021-03-02T08:54:04Z</time>
      </trkpt>
      <trkpt lat="36.8102930" lon="-2.9023830">
        <ele>675.6</ele>
        <time>2021-03-02T08:54:05Z</time>
      </trkpt>
      <trkpt lat="36.8103540" lon="-2.9024160">
        <ele>675.6</ele>
        <time>2021-03-02T08:54:06Z</time>
      </trkpt>
      <trkpt lat="36.8104080" lon="-2.9024480">
        <ele>675.4</ele>
        <time>2021-03-02T08:54:07Z</time>
      </trkpt>
      <trkpt lat="36.8104550" lon="-2.9024710">
        <ele>675.4</ele>
        <time>2021-03-02T08:54:08Z</time>
      </trkpt>
      <trkpt lat="36.8104930" lon="-2.9024780">
        <ele>675.4</ele>
        <time>2021-03-02T08:54:09Z</time>
      </trkpt>
      <trkpt lat="36.8105250" lon="-2.9024670">
        <ele>675.4</ele>
        <time>2021-03-02T08:54:10Z</time>
      </trkpt>
      <trkpt lat="36.8105460" lon="-2.9024440">
        <ele>675.4</ele>
        <time>2021-03-02T08:54:11Z</time>
      </trkpt>
      <trkpt lat="36.8105580" lon="-2.9024150">
        <ele>675.8</ele>
        <time>2021-03-02T08:54:12Z</time>
      </trkpt>
      <trkpt lat="36.8105680" lon="-2.9023840">
        <ele>676.0</ele>
        <time>2021-03-02T08:54:13Z</time>
      </trkpt>
      <trkpt lat="36.8105760" lon="-2.9023530">
        <ele>676.6</ele>
        <time>2021-03-02T08:54:14Z</time>
      </trkpt>
      <trkpt lat="36.8105840" lon="-2.9023200">
        <ele>676.8</ele>
        <time>2021-03-02T08:54:15Z</time>
      </trkpt>
      <trkpt lat="36.8105920" lon="-2.9022880">
        <ele>677.2</ele>
        <time>2021-03-02T08:54:16Z</time>
      </trkpt>
      <trkpt lat="36.8105990" lon="-2.9022580">
        <ele>677.8</ele>
        <time>2021-03-02T08:54:17Z</time>
      </trkpt>
      <trkpt lat="36.8106080" lon="-2.9022280">
        <ele>678.0</ele>
        <time>2021-03-02T08:54:18Z</time>
      </trkpt>
      <trkpt lat="36.8106180" lon="-2.9021970">
        <ele>678.4</ele>
        <time>2021-03-02T08:54:19Z</time>
      </trkpt>
      <trkpt lat="36.8106300" lon="-2.9021670">
        <ele>678.4</ele>
        <time>2021-03-02T08:54:20Z</time>
      </trkpt>
      <trkpt lat="36.8106440" lon="-2.9021370">
        <ele>678.8</ele>
        <time>2021-03-02T08:54:21Z</time>
      </trkpt>
      <trkpt lat="36.8106600" lon="-2.9021120">
        <ele>678.8</ele>
        <time>2021-03-02T08:54:22Z</time>
      </trkpt>
      <trkpt lat="36.8106830" lon="-2.9020940">
        <ele>679.0</ele>
        <time>2021-03-02T08:54:23Z</time>
      </trkpt>
      <trkpt lat="36.8107140" lon="-2.9020900">
        <ele>679.2</ele>
        <time>2021-03-02T08:54:24Z</time>
      </trkpt>
      <trkpt lat="36.8107500" lon="-2.9021010">
        <ele>679.2</ele>
        <time>2021-03-02T08:54:25Z</time>
      </trkpt>
      <trkpt lat="36.8107900" lon="-2.9021230">
        <ele>679.0</ele>
        <time>2021-03-02T08:54:26Z</time>
      </trkpt>
      <trkpt lat="36.8108350" lon="-2.9021480">
        <ele>678.8</ele>
        <time>2021-03-02T08:54:27Z</time>
      </trkpt>
      <trkpt lat="36.8108850" lon="-2.9021770">
        <ele>678.4</ele>
        <time>2021-03-02T08:54:28Z</time>
      </trkpt>
      <trkpt lat="36.8109370" lon="-2.9022120">
        <ele>678.0</ele>
        <time>2021-03-02T08:54:29Z</time>
      </trkpt>
      <trkpt lat="36.8109900" lon="-2.9022520">
        <ele>678.0</ele>
        <time>2021-03-02T08:54:30Z</time>
      </trkpt>
      <trkpt lat="36.8110420" lon="-2.9022910">
        <ele>677.8</ele>
        <time>2021-03-02T08:54:31Z</time>
      </trkpt>
      <trkpt lat="36.8110940" lon="-2.9023240">
        <ele>677.8</ele>
        <time>2021-03-02T08:54:32Z</time>
      </trkpt>
      <trkpt lat="36.8111450" lon="-2.9023560">
        <ele>677.8</ele>
        <time>2021-03-02T08:54:33Z</time>
      </trkpt>
      <trkpt lat="36.8111980" lon="-2.9023880">
        <ele>677.8</ele>
        <time>2021-03-02T08:54:34Z</time>
      </trkpt>
      <trkpt lat="36.8112500" lon="-2.9024220">
        <ele>677.8</ele>
        <time>2021-03-02T08:54:35Z</time>
      </trkpt>
      <trkpt lat="36.8113030" lon="-2.9024580">
        <ele>678.0</ele>
        <time>2021-03-02T08:54:36Z</time>
      </trkpt>
      <trkpt lat="36.8113540" lon="-2.9024960">
        <ele>678.0</ele>
        <time>2021-03-02T08:54:37Z</time>
      </trkpt>
      <trkpt lat="36.8114060" lon="-2.9025300">
        <ele>678.0</ele>
        <time>2021-03-02T08:54:38Z</time>
      </trkpt>
      <trkpt lat="36.8114580" lon="-2.9025640">
        <ele>678.0</ele>
        <time>2021-03-02T08:54:39Z</time>
      </trkpt>
      <trkpt lat="36.8115120" lon="-2.9025930">
        <ele>678.2</ele>
        <time>2021-03-02T08:54:40Z</time>
      </trkpt>
      <trkpt lat="36.8115660" lon="-2.9026150">
        <ele>678.2</ele>
        <time>2021-03-02T08:54:41Z</time>
      </trkpt>
      <trkpt lat="36.8116180" lon="-2.9026260">
        <ele>678.4</ele>
        <time>2021-03-02T08:54:42Z</time>
      </trkpt>
      <trkpt lat="36.8116680" lon="-2.9026260">
        <ele>678.8</ele>
        <time>2021-03-02T08:54:43Z</time>
      </trkpt>
      <trkpt lat="36.8117130" lon="-2.9026250">
        <ele>679.0</ele>
        <time>2021-03-02T08:54:44Z</time>
      </trkpt>
      <trkpt lat="36.8117560" lon="-2.9026260">
        <ele>679.2</ele>
        <time>2021-03-02T08:54:45Z</time>
      </trkpt>
      <trkpt lat="36.8118000" lon="-2.9026280">
        <ele>679.4</ele>
        <time>2021-03-02T08:54:46Z</time>
      </trkpt>
      <trkpt lat="36.8118460" lon="-2.9026320">
        <ele>679.8</ele>
        <time>2021-03-02T08:54:47Z</time>
      </trkpt>
      <trkpt lat="36.8118940" lon="-2.9026380">
        <ele>680.0</ele>
        <time>2021-03-02T08:54:48Z</time>
      </trkpt>
      <trkpt lat="36.8119450" lon="-2.9026470">
        <ele>680.2</ele>
        <time>2021-03-02T08:54:49Z</time>
      </trkpt>
      <trkpt lat="36.8119980" lon="-2.9026590">
        <ele>680.0</ele>
        <time>2021-03-02T08:54:50Z</time>
      </trkpt>
      <trkpt lat="36.8120550" lon="-2.9026720">
        <ele>679.8</ele>
        <time>2021-03-02T08:54:51Z</time>
      </trkpt>
      <trkpt lat="36.8121140" lon="-2.9026840">
        <ele>679.4</ele>
        <time>2021-03-02T08:54:52Z</time>
      </trkpt>
      <trkpt lat="36.8121770" lon="-2.9026990">
        <ele>679.0</ele>
        <time>2021-03-02T08:54:53Z</time>
      </trkpt>
      <trkpt lat="36.8122430" lon="-2.9027150">
        <ele>678.8</ele>
        <time>2021-03-02T08:54:54Z</time>
      </trkpt>
      <trkpt lat="36.8123130" lon="-2.9027260">
        <ele>678.6</ele>
        <time>2021-03-02T08:54:55Z</time>
      </trkpt>
      <trkpt lat="36.8123820" lon="-2.9027350">
        <ele>678.4</ele>
        <time>2021-03-02T08:54:56Z</time>
      </trkpt>
      <trkpt lat="36.8124470" lon="-2.9027430">
        <ele>678.4</ele>
        <time>2021-03-02T08:54:57Z</time>
      </trkpt>
      <trkpt lat="36.8125090" lon="-2.9027510">
        <ele>678.4</ele>
        <time>2021-03-02T08:54:58Z</time>
      </trkpt>
      <trkpt lat="36.8125710" lon="-2.9027580">
        <ele>678.6</ele>
        <time>2021-03-02T08:54:59Z</time>
      </trkpt>
      <trkpt lat="36.8126320" lon="-2.9027670">
        <ele>678.8</ele>
        <time>2021-03-02T08:55:00Z</time>
      </trkpt>
      <trkpt lat="36.8126940" lon="-2.9027760">
        <ele>679.0</ele>
        <time>2021-03-02T08:55:01Z</time>
      </trkpt>
      <trkpt lat="36.8127540" lon="-2.9027860">
        <ele>679.2</ele>
        <time>2021-03-02T08:55:02Z</time>
      </trkpt>
      <trkpt lat="36.8128120" lon="-2.9027950">
        <ele>679.4</ele>
        <time>2021-03-02T08:55:03Z</time>
      </trkpt>
      <trkpt lat="36.8128710" lon="-2.9028070">
        <ele>679.4</ele>
        <time>2021-03-02T08:55:04Z</time>
      </trkpt>
      <trkpt lat="36.8129320" lon="-2.9028180">
        <ele>679.4</ele>
        <time>2021-03-02T08:55:05Z</time>
      </trkpt>
      <trkpt lat="36.8129980" lon="-2.9028270">
        <ele>679.2</ele>
        <time>2021-03-02T08:55:06Z</time>
      </trkpt>
      <trkpt lat="36.8130690" lon="-2.9028390">
        <ele>679.2</ele>
        <time>2021-03-02T08:55:07Z</time>
      </trkpt>
      <trkpt lat="36.8131430" lon="-2.9028460">
        <ele>678.8</ele>
        <time>2021-03-02T08:55:08Z</time>
      </trkpt>
      <trkpt lat="36.8132230" lon="-2.9028510">
        <ele>677.8</ele>
        <time>2021-03-02T08:55:09Z</time>
      </trkpt>
      <trkpt lat="36.8133100" lon="-2.9028590">
        <ele>677.2</ele>
        <time>2021-03-02T08:55:10Z</time>
      </trkpt>
      <trkpt lat="36.8133990" lon="-2.9028660">
        <ele>676.2</ele>
        <time>2021-03-02T08:55:11Z</time>
      </trkpt>
      <trkpt lat="36.8134910" lon="-2.9028750">
        <ele>675.8</ele>
        <time>2021-03-02T08:55:12Z</time>
      </trkpt>
      <trkpt lat="36.8135830" lon="-2.9028890">
        <ele>675.4</ele>
        <time>2021-03-02T08:55:13Z</time>
      </trkpt>
      <trkpt lat="36.8136750" lon="-2.9029040">
        <ele>674.8</ele>
        <time>2021-03-02T08:55:14Z</time>
      </trkpt>
      <trkpt lat="36.8137630" lon="-2.9029220">
        <ele>674.4</ele>
        <time>2021-03-02T08:55:15Z</time>
      </trkpt>
      <trkpt lat="36.8138480" lon="-2.9029470">
        <ele>674.0</ele>
        <time>2021-03-02T08:55:16Z</time>
      </trkpt>
      <trkpt lat="36.8139290" lon="-2.9029790">
        <ele>673.8</ele>
        <time>2021-03-02T08:55:17Z</time>
      </trkpt>
      <trkpt lat="36.8140050" lon="-2.9030150">
        <ele>673.6</ele>
        <time>2021-03-02T08:55:18Z</time>
      </trkpt>
      <trkpt lat="36.8140750" lon="-2.9030470">
        <ele>673.6</ele>
        <time>2021-03-02T08:55:19Z</time>
      </trkpt>
      <trkpt lat="36.8141400" lon="-2.9030730">
        <ele>673.4</ele>
        <time>2021-03-02T08:55:20Z</time>
      </trkpt>
      <trkpt lat="36.8142030" lon="-2.9030930">
        <ele>673.8</ele>
        <time>2021-03-02T08:55:21Z</time>
      </trkpt>
      <trkpt lat="36.8142650" lon="-2.9031050">
        <ele>674.0</ele>
        <time>2021-03-02T08:55:22Z</time>
      </trkpt>
      <trkpt lat="36.8143250" lon="-2.9031070">
        <ele>674.2</ele>
        <time>2021-03-02T08:55:23Z</time>
      </trkpt>
      <trkpt lat="36.8143840" lon="-2.9031030">
        <ele>674.4</ele>
        <time>2021-03-02T08:55:24Z</time>
      </trkpt>
      <trkpt lat="36.8144440" lon="-2.9030990">
        <ele>674.6</ele>
        <time>2021-03-02T08:55:25Z</time>
      </trkpt>
      <trkpt lat="36.8145080" lon="-2.9030970">
        <ele>674.6</ele>
        <time>2021-03-02T08:55:26Z</time>
      </trkpt>
      <trkpt lat="36.8145720" lon="-2.9030960">
        <ele>674.6</ele>
        <time>2021-03-02T08:55:27Z</time>
      </trkpt>
      <trkpt lat="36.8146360" lon="-2.9030980">
        <ele>674.6</ele>
        <time>2021-03-02T08:55:28Z</time>
      </trkpt>
      <trkpt lat="36.8147030" lon="-2.9031050">
        <ele>674.4</ele>
        <time>2021-03-02T08:55:29Z</time>
      </trkpt>
      <trkpt lat="36.8147710" lon="-2.9031090">
        <ele>673.8</ele>
        <time>2021-03-02T08:55:30Z</time>
      </trkpt>
      <trkpt lat="36.8148370" lon="-2.9031050">
        <ele>673.4</ele>
        <time>2021-03-02T08:55:31Z</time>
      </trkpt>
      <trkpt lat="36.8148990" lon="-2.9030880">
        <ele>672.2</ele>
        <time>2021-03-02T08:55:32Z</time>
      </trkpt>
      <trkpt lat="36.8149610" lon="-2.9030590">
        <ele>671.4</ele>
        <time>2021-03-02T08:55:33Z</time>
      </trkpt>
      <trkpt lat="36.8150240" lon="-2.9030230">
        <ele>670.8</ele>
        <time>2021-03-02T08:55:34Z</time>
      </trkpt>
      <trkpt lat="36.8150930" lon="-2.9029930">
        <ele>669.8</ele>
        <time>2021-03-02T08:55:35Z</time>
      </trkpt>
      <trkpt lat="36.8151670" lon="-2.9029780">
        <ele>669.4</ele>
        <time>2021-03-02T08:55:36Z</time>
      </trkpt>
      <trkpt lat="36.8152410" lon="-2.9029830">
        <ele>668.8</ele>
        <time>2021-03-02T08:55:37Z</time>
      </trkpt>
      <trkpt lat="36.8153160" lon="-2.9030020">
        <ele>668.4</ele>
        <time>2021-03-02T08:55:38Z</time>
      </trkpt>
      <trkpt lat="36.8153920" lon="-2.9030330">
        <ele>668.0</ele>
        <time>2021-03-02T08:55:39Z</time>
      </trkpt>
      <trkpt lat="36.8154630" lon="-2.9030750">
        <ele>667.4</ele>
        <time>2021-03-02T08:55:40Z</time>
      </trkpt>
      <trkpt lat="36.8155250" lon="-2.9031270">
        <ele>667.0</ele>
        <time>2021-03-02T08:55:41Z</time>
      </trkpt>
      <trkpt lat="36.8155820" lon="-2.9031860">
        <ele>666.4</ele>
        <time>2021-03-02T08:55:42Z</time>
      </trkpt>
      <trkpt lat="36.8156320" lon="-2.9032520">
        <ele>666.2</ele>
        <time>2021-03-02T08:55:43Z</time>
      </trkpt>
      <trkpt lat="36.8156720" lon="-2.9033190">
        <ele>666.2</ele>
        <time>2021-03-02T08:55:44Z</time>
      </trkpt>
      <trkpt lat="36.8157040" lon="-2.9033840">
        <ele>666.2</ele>
        <time>2021-03-02T08:55:45Z</time>
      </trkpt>
      <trkpt lat="36.8157280" lon="-2.9034470">
        <ele>667.0</ele>
        <time>2021-03-02T08:55:46Z</time>
      </trkpt>
      <trkpt lat="36.8157470" lon="-2.9035080">
        <ele>667.6</ele>
        <time>2021-03-02T08:55:47Z</time>
      </trkpt>
      <trkpt lat="36.8157650" lon="-2.9035600">
        <ele>667.8</ele>
        <time>2021-03-02T08:55:48Z</time>
      </trkpt>
      <trkpt lat="36.8157830" lon="-2.9036040">
        <ele>668.4</ele>
        <time>2021-03-02T08:55:49Z</time>
      </trkpt>
      <trkpt lat="36.8157970" lon="-2.9036410">
        <ele>668.8</ele>
        <time>2021-03-02T08:55:50Z</time>
      </trkpt>
      <trkpt lat="36.8158090" lon="-2.9036770">
        <ele>669.4</ele>
        <time>2021-03-02T08:55:51Z</time>
      </trkpt>
      <trkpt lat="36.8158240" lon="-2.9037160">
        <ele>669.8</ele>
        <time>2021-03-02T08:55:52Z</time>
      </trkpt>
      <trkpt lat="36.8158420" lon="-2.9037550">
        <ele>670.0</ele>
        <time>2021-03-02T08:55:53Z</time>
      </trkpt>
      <trkpt lat="36.8158590" lon="-2.9037960">
        <ele>670.4</ele>
        <time>2021-03-02T08:55:54Z</time>
      </trkpt>
      <trkpt lat="36.8158760" lon="-2.9038380">
        <ele>670.6</ele>
        <time>2021-03-02T08:55:55Z</time>
      </trkpt>
      <trkpt lat="36.8158940" lon="-2.9038780">
        <ele>671.0</ele>
        <time>2021-03-02T08:55:56Z</time>
      </trkpt>
      <trkpt lat="36.8159140" lon="-2.9039140">
        <ele>671.2</ele>
        <time>2021-03-02T08:55:57Z</time>
      </trkpt>
      <trkpt lat="36.8159380" lon="-2.9039470">
        <ele>671.6</ele>
        <time>2021-03-02T08:55:58Z</time>
      </trkpt>
      <trkpt lat="36.8159630" lon="-2.9039800">
        <ele>672.0</ele>
        <time>2021-03-02T08:55:59Z</time>
      </trkpt>
      <trkpt lat="36.8159890" lon="-2.9040110">
        <ele>672.2</ele>
        <time>2021-03-02T08:56:00Z</time>
      </trkpt>
      <trkpt lat="36.8160180" lon="-2.9040420">
        <ele>672.6</ele>
        <time>2021-03-02T08:56:01Z</time>
      </trkpt>
      <trkpt lat="36.8160500" lon="-2.9040700">
        <ele>672.6</ele>
        <time>2021-03-02T08:56:02Z</time>
      </trkpt>
      <trkpt lat="36.8160830" lon="-2.9041010">
        <ele>672.8</ele>
        <time>2021-03-02T08:56:03Z</time>
      </trkpt>
      <trkpt lat="36.8161190" lon="-2.9041340">
        <ele>673.0</ele>
        <time>2021-03-02T08:56:04Z</time>
      </trkpt>
      <trkpt lat="36.8161600" lon="-2.9041670">
        <ele>672.8</ele>
        <time>2021-03-02T08:56:05Z</time>
      </trkpt>
      <trkpt lat="36.8162030" lon="-2.9042030">
        <ele>672.6</ele>
        <time>2021-03-02T08:56:06Z</time>
      </trkpt>
      <trkpt lat="36.8162500" lon="-2.9042460">
        <ele>672.4</ele>
        <time>2021-03-02T08:56:07Z</time>
      </trkpt>
      <trkpt lat="36.8162990" lon="-2.9042940">
        <ele>672.0</ele>
        <time>2021-03-02T08:56:08Z</time>
      </trkpt>
      <trkpt lat="36.8163520" lon="-2.9043410">
        <ele>671.8</ele>
        <time>2021-03-02T08:56:09Z</time>
      </trkpt>
      <trkpt lat="36.8164060" lon="-2.9043900">
        <ele>671.4</ele>
        <time>2021-03-02T08:56:10Z</time>
      </trkpt>
      <trkpt lat="36.8164620" lon="-2.9044410">
        <ele>671.0</ele>
        <time>2021-03-02T08:56:11Z</time>
      </trkpt>
      <trkpt lat="36.8165180" lon="-2.9044910">
        <ele>670.8</ele>
        <time>2021-03-02T08:56:12Z</time>
      </trkpt>
      <trkpt lat="36.8165750" lon="-2.9045380">
        <ele>670.2</ele>
        <time>2021-03-02T08:56:13Z</time>
      </trkpt>
      <trkpt lat="36.8166320" lon="-2.9045820">
        <ele>670.2</ele>
        <time>2021-03-02T08:56:14Z</time>
      </trkpt>
      <trkpt lat="36.8166890" lon="-2.9046230">
        <ele>670.0</ele>
        <time>2021-03-02T08:56:15Z</time>
      </trkpt>
      <trkpt lat="36.8167470" lon="-2.9046610">
        <ele>669.8</ele>
        <time>2021-03-02T08:56:16Z</time>
      </trkpt>
      <trkpt lat="36.8168040" lon="-2.9046980">
        <ele>669.8</ele>
        <time>2021-03-02T08:56:17Z</time>
      </trkpt>
      <trkpt lat="36.8168590" lon="-2.9047310">
        <ele>669.8</ele>
        <time>2021-03-02T08:56:18Z</time>
      </trkpt>
      <trkpt lat="36.8169110" lon="-2.9047610">
        <ele>670.0</ele>
        <time>2021-03-02T08:56:19Z</time>
      </trkpt>
      <trkpt lat="36.8169620" lon="-2.9047880">
        <ele>670.4</ele>
        <time>2021-03-02T08:56:20Z</time>
      </trkpt>
      <trkpt lat="36.8170110" lon="-2.9048150">
        <ele>670.4</ele>
        <time>2021-03-02T08:56:21Z</time>
      </trkpt>
      <trkpt lat="36.8170570" lon="-2.9048450">
        <ele>670.6</ele>
        <time>2021-03-02T08:56:22Z</time>
      </trkpt>
      <trkpt lat="36.8171010" lon="-2.9048760">
        <ele>670.8</ele>
        <time>2021-03-02T08:56:23Z</time>
      </trkpt>
      <trkpt lat="36.8171470" lon="-2.9049060">
        <ele>671.0</ele>
        <time>2021-03-02T08:56:24Z</time>
      </trkpt>
      <trkpt lat="36.8171930" lon="-2.9049380">
        <ele>671.2</ele>
        <time>2021-03-02T08:56:25Z</time>
      </trkpt>
      <trkpt lat="36.8172430" lon="-2.9049750">
        <ele>671.0</ele>
        <time>2021-03-02T08:56:26Z</time>
      </trkpt>
      <trkpt lat="36.8172960" lon="-2.9050130">
        <ele>671.0</ele>
        <time>2021-03-02T08:56:27Z</time>
      </trkpt>
      <trkpt lat="36.8173500" lon="-2.9050520">
        <ele>670.8</ele>
        <time>2021-03-02T08:56:28Z</time>
      </trkpt>
      <trkpt lat="36.8174020" lon="-2.9050900">
        <ele>670.6</ele>
        <time>2021-03-02T08:56:29Z</time>
      </trkpt>
      <trkpt lat="36.8174550" lon="-2.9051270">
        <ele>670.4</ele>
        <time>2021-03-02T08:56:30Z</time>
      </trkpt>
      <trkpt lat="36.8175070" lon="-2.9051640">
        <ele>670.4</ele>
        <time>2021-03-02T08:56:31Z</time>
      </trkpt>
      <trkpt lat="36.8175550" lon="-2.9052010">
        <ele>670.6</ele>
        <time>2021-03-02T08:56:32Z</time>
      </trkpt>
      <trkpt lat="36.8176010" lon="-2.9052380">
        <ele>670.6</ele>
        <time>2021-03-02T08:56:33Z</time>
      </trkpt>
      <trkpt lat="36.8176480" lon="-2.9052750">
        <ele>670.6</ele>
        <time>2021-03-02T08:56:34Z</time>
      </trkpt>
      <trkpt lat="36.8176990" lon="-2.9053160">
        <ele>670.6</ele>
        <time>2021-03-02T08:56:35Z</time>
      </trkpt>
      <trkpt lat="36.8177580" lon="-2.9053570">
        <ele>670.2</ele>
        <time>2021-03-02T08:56:36Z</time>
      </trkpt>
      <trkpt lat="36.8178220" lon="-2.9054020">
        <ele>669.2</ele>
        <time>2021-03-02T08:56:37Z</time>
      </trkpt>
      <trkpt lat="36.8178850" lon="-2.9054530">
        <ele>668.8</ele>
        <time>2021-03-02T08:56:38Z</time>
      </trkpt>
      <trkpt lat="36.8179420" lon="-2.9055110">
        <ele>668.0</ele>
        <time>2021-03-02T08:56:39Z</time>
      </trkpt>
      <trkpt lat="36.8179910" lon="-2.9055770">
        <ele>667.8</ele>
        <time>2021-03-02T08:56:40Z</time>
      </trkpt>
      <trkpt lat="36.8180330" lon="-2.9056420">
        <ele>667.6</ele>
        <time>2021-03-02T08:56:41Z</time>
      </trkpt>
      <trkpt lat="36.8180690" lon="-2.9057060">
        <ele>667.4</ele>
        <time>2021-03-02T08:56:42Z</time>
      </trkpt>
      <trkpt lat="36.8181000" lon="-2.9057700">
        <ele>667.6</ele>
        <time>2021-03-02T08:56:43Z</time>
      </trkpt>
      <trkpt lat="36.8181340" lon="-2.9058270">
        <ele>667.8</ele>
        <time>2021-03-02T08:56:44Z</time>
      </trkpt>
      <trkpt lat="36.8181740" lon="-2.9058810">
        <ele>667.8</ele>
        <time>2021-03-02T08:56:45Z</time>
      </trkpt>
      <trkpt lat="36.8182180" lon="-2.9059340">
        <ele>667.8</ele>
        <time>2021-03-02T08:56:46Z</time>
      </trkpt>
      <trkpt lat="36.8182670" lon="-2.9059860">
        <ele>667.8</ele>
        <time>2021-03-02T08:56:47Z</time>
      </trkpt>
      <trkpt lat="36.8183200" lon="-2.9060320">
        <ele>667.4</ele>
        <time>2021-03-02T08:56:48Z</time>
      </trkpt>
      <trkpt lat="36.8183770" lon="-2.9060650">
        <ele>667.0</ele>
        <time>2021-03-02T08:56:49Z</time>
      </trkpt>
      <trkpt lat="36.8184370" lon="-2.9060890">
        <ele>666.8</ele>
        <time>2021-03-02T08:56:50Z</time>
      </trkpt>
      <trkpt lat="36.8184990" lon="-2.9061140">
        <ele>666.8</ele>
        <time>2021-03-02T08:56:51Z</time>
      </trkpt>
      <trkpt lat="36.8185650" lon="-2.9061450">
        <ele>666.6</ele>
        <time>2021-03-02T08:56:52Z</time>
      </trkpt>
      <trkpt lat="36.8186340" lon="-2.9061820">
        <ele>666.4</ele>
        <time>2021-03-02T08:56:53Z</time>
      </trkpt>
      <trkpt lat="36.8187080" lon="-2.9062270">
        <ele>666.0</ele>
        <time>2021-03-02T08:56:54Z</time>
      </trkpt>
      <trkpt lat="36.8187790" lon="-2.9062740">
        <ele>665.2</ele>
        <time>2021-03-02T08:56:55Z</time>
      </trkpt>
      <trkpt lat="36.8188390" lon="-2.9063220">
        <ele>663.2</ele>
        <time>2021-03-02T08:56:56Z</time>
      </trkpt>
      <trkpt lat="36.8188850" lon="-2.9063800">
        <ele>662.4</ele>
        <time>2021-03-02T08:56:57Z</time>
      </trkpt>
      <trkpt lat="36.8189150" lon="-2.9064520">
        <ele>661.0</ele>
        <time>2021-03-02T08:56:58Z</time>
      </trkpt>
      <trkpt lat="36.8189300" lon="-2.9065360">
        <ele>660.4</ele>
        <time>2021-03-02T08:56:59Z</time>
      </trkpt>
      <trkpt lat="36.8189440" lon="-2.9066310">
        <ele>658.8</ele>
        <time>2021-03-02T08:57:00Z</time>
      </trkpt>
      <trkpt lat="36.8189740" lon="-2.9067300">
        <ele>658.0</ele>
        <time>2021-03-02T08:57:01Z</time>
      </trkpt>
      <trkpt lat="36.8190200" lon="-2.9068280">
        <ele>656.6</ele>
        <time>2021-03-02T08:57:02Z</time>
      </trkpt>
      <trkpt lat="36.8190710" lon="-2.9069310">
        <ele>655.2</ele>
        <time>2021-03-02T08:57:03Z</time>
      </trkpt>
      <trkpt lat="36.8191250" lon="-2.9070360">
        <ele>654.2</ele>
        <time>2021-03-02T08:57:04Z</time>
      </trkpt>
      <trkpt lat="36.8191880" lon="-2.9071350">
        <ele>652.6</ele>
        <time>2021-03-02T08:57:05Z</time>
      </trkpt>
      <trkpt lat="36.8192610" lon="-2.9072280">
        <ele>651.8</ele>
        <time>2021-03-02T08:57:06Z</time>
      </trkpt>
      <trkpt lat="36.8193390" lon="-2.9073150">
        <ele>650.6</ele>
        <time>2021-03-02T08:57:07Z</time>
      </trkpt>
      <trkpt lat="36.8194140" lon="-2.9074010">
        <ele>649.0</ele>
        <time>2021-03-02T08:57:08Z</time>
      </trkpt>
      <trkpt lat="36.8194890" lon="-2.9074810">
        <ele>648.2</ele>
        <time>2021-03-02T08:57:09Z</time>
      </trkpt>
      <trkpt lat="36.8195670" lon="-2.9075490">
        <ele>646.8</ele>
        <time>2021-03-02T08:57:10Z</time>
      </trkpt>
      <trkpt lat="36.8196430" lon="-2.9076020">
        <ele>646.0</ele>
        <time>2021-03-02T08:57:11Z</time>
      </trkpt>
      <trkpt lat="36.8197140" lon="-2.9076490">
        <ele>644.8</ele>
        <time>2021-03-02T08:57:12Z</time>
      </trkpt>
      <trkpt lat="36.8197810" lon="-2.9076980">
        <ele>644.0</ele>
        <time>2021-03-02T08:57:13Z</time>
      </trkpt>
      <trkpt lat="36.8198420" lon="-2.9077590">
        <ele>642.6</ele>
        <time>2021-03-02T08:57:14Z</time>
      </trkpt>
      <trkpt lat="36.8198930" lon="-2.9078380">
        <ele>641.6</ele>
        <time>2021-03-02T08:57:15Z</time>
      </trkpt>
      <trkpt lat="36.8199380" lon="-2.9079270">
        <ele>641.2</ele>
        <time>2021-03-02T08:57:16Z</time>
      </trkpt>
      <trkpt lat="36.8199880" lon="-2.9080170">
        <ele>640.4</ele>
        <time>2021-03-02T08:57:17Z</time>
      </trkpt>
      <trkpt lat="36.8200510" lon="-2.9081010">
        <ele>639.8</ele>
        <time>2021-03-02T08:57:18Z</time>
      </trkpt>
      <trkpt lat="36.8201170" lon="-2.9081900">
        <ele>638.6</ele>
        <time>2021-03-02T08:57:19Z</time>
      </trkpt>
      <trkpt lat="36.8201800" lon="-2.9082840">
        <ele>637.8</ele>
        <time>2021-03-02T08:57:20Z</time>
      </trkpt>
      <trkpt lat="36.8202450" lon="-2.9083770">
        <ele>636.4</ele>
        <time>2021-03-02T08:57:21Z</time>
      </trkpt>
      <trkpt lat="36.8203110" lon="-2.9084690">
        <ele>635.6</ele>
        <time>2021-03-02T08:57:22Z</time>
      </trkpt>
      <trkpt lat="36.8203800" lon="-2.9085550">
        <ele>635.2</ele>
        <time>2021-03-02T08:57:23Z</time>
      </trkpt>
      <trkpt lat="36.8204540" lon="-2.9086320">
        <ele>634.4</ele>
        <time>2021-03-02T08:57:24Z</time>
      </trkpt>
      <trkpt lat="36.8205320" lon="-2.9086970">
        <ele>634.0</ele>
        <time>2021-03-02T08:57:25Z</time>
      </trkpt>
      <trkpt lat="36.8206120" lon="-2.9087550">
        <ele>633.4</ele>
        <time>2021-03-02T08:57:26Z</time>
      </trkpt>
      <trkpt lat="36.8206920" lon="-2.9088140">
        <ele>633.0</ele>
        <time>2021-03-02T08:57:27Z</time>
      </trkpt>
      <trkpt lat="36.8207710" lon="-2.9088750">
        <ele>632.8</ele>
        <time>2021-03-02T08:57:28Z</time>
      </trkpt>
      <trkpt lat="36.8208510" lon="-2.9089290">
        <ele>632.4</ele>
        <time>2021-03-02T08:57:29Z</time>
      </trkpt>
      <trkpt lat="36.8209360" lon="-2.9089670">
        <ele>632.2</ele>
        <time>2021-03-02T08:57:30Z</time>
      </trkpt>
      <trkpt lat="36.8210240" lon="-2.9089840">
        <ele>631.6</ele>
        <time>2021-03-02T08:57:31Z</time>
      </trkpt>
      <trkpt lat="36.8211140" lon="-2.9089910">
        <ele>631.4</ele>
        <time>2021-03-02T08:57:32Z</time>
      </trkpt>
      <trkpt lat="36.8212050" lon="-2.9090090">
        <ele>630.8</ele>
        <time>2021-03-02T08:57:33Z</time>
      </trkpt>
      <trkpt lat="36.8212940" lon="-2.9090380">
        <ele>630.0</ele>
        <time>2021-03-02T08:57:34Z</time>
      </trkpt>
      <trkpt lat="36.8213800" lon="-2.9090720">
        <ele>629.6</ele>
        <time>2021-03-02T08:57:35Z</time>
      </trkpt>
      <trkpt lat="36.8214600" lon="-2.9091180">
        <ele>629.2</ele>
        <time>2021-03-02T08:57:36Z</time>
      </trkpt>
      <trkpt lat="36.8215260" lon="-2.9091800">
        <ele>629.2</ele>
        <time>2021-03-02T08:57:37Z</time>
      </trkpt>
      <trkpt lat="36.8215830" lon="-2.9092440">
        <ele>629.6</ele>
        <time>2021-03-02T08:57:38Z</time>
      </trkpt>
      <trkpt lat="36.8216380" lon="-2.9092990">
        <ele>630.4</ele>
        <time>2021-03-02T08:57:39Z</time>
      </trkpt>
      <trkpt lat="36.8216910" lon="-2.9093490">
        <ele>630.8</ele>
        <time>2021-03-02T08:57:40Z</time>
      </trkpt>
      <trkpt lat="36.8217450" lon="-2.9093910">
        <ele>631.4</ele>
        <time>2021-03-02T08:57:41Z</time>
      </trkpt>
      <trkpt lat="36.8218000" lon="-2.9094190">
        <ele>631.6</ele>
        <time>2021-03-02T08:57:42Z</time>
      </trkpt>
      <trkpt lat="36.8218570" lon="-2.9094370">
        <ele>632.2</ele>
        <time>2021-03-02T08:57:43Z</time>
      </trkpt>
      <trkpt lat="36.8219180" lon="-2.9094480">
        <ele>632.4</ele>
        <time>2021-03-02T08:57:44Z</time>
      </trkpt>
      <trkpt lat="36.8219820" lon="-2.9094560">
        <ele>632.4</ele>
        <time>2021-03-02T08:57:45Z</time>
      </trkpt>
      <trkpt lat="36.8220450" lon="-2.9094650">
        <ele>632.4</ele>
        <time>2021-03-02T08:57:46Z</time>
      </trkpt>
      <trkpt lat="36.8221060" lon="-2.9094800">
        <ele>632.4</ele>
        <time>2021-03-02T08:57:47Z</time>
      </trkpt>
      <trkpt lat="36.8221630" lon="-2.9094970">
        <ele>632.2</ele>
        <time>2021-03-02T08:57:48Z</time>
      </trkpt>
      <trkpt lat="36.8222220" lon="-2.9095140">
        <ele>632.2</ele>
        <time>2021-03-02T08:57:49Z</time>
      </trkpt>
      <trkpt lat="36.8222850" lon="-2.9095340">
        <ele>632.0</ele>
        <time>2021-03-02T08:57:50Z</time>
      </trkpt>
      <trkpt lat="36.8223510" lon="-2.9095590">
        <ele>631.8</ele>
        <time>2021-03-02T08:57:51Z</time>
      </trkpt>
      <trkpt lat="36.8224210" lon="-2.9095870">
        <ele>631.4</ele>
        <time>2021-03-02T08:57:52Z</time>
      </trkpt>
      <trkpt lat="36.8224970" lon="-2.9096190">
        <ele>631.0</ele>
        <time>2021-03-02T08:57:53Z</time>
      </trkpt>
      <trkpt lat="36.8225770" lon="-2.9096540">
        <ele>630.6</ele>
        <time>2021-03-02T08:57:54Z</time>
      </trkpt>
      <trkpt lat="36.8226610" lon="-2.9096920">
        <ele>629.6</ele>
        <time>2021-03-02T08:57:55Z</time>
      </trkpt>
      <trkpt lat="36.8227480" lon="-2.9097300">
        <ele>629.2</ele>
        <time>2021-03-02T08:57:56Z</time>
      </trkpt>
      <trkpt lat="36.8228360" lon="-2.9097680">
        <ele>628.2</ele>
        <time>2021-03-02T08:57:57Z</time>
      </trkpt>
      <trkpt lat="36.8229200" lon="-2.9098010">
        <ele>626.8</ele>
        <time>2021-03-02T08:57:58Z</time>
      </trkpt>
      <trkpt lat="36.8230010" lon="-2.9098270">
        <ele>626.0</ele>
        <time>2021-03-02T08:57:59Z</time>
      </trkpt>
      <trkpt lat="36.8230820" lon="-2.9098490">
        <ele>624.6</ele>
        <time>2021-03-02T08:58:00Z</time>
      </trkpt>
      <trkpt lat="36.8231590" lon="-2.9098690">
        <ele>624.0</ele>
        <time>2021-03-02T08:58:01Z</time>
      </trkpt>
      <trkpt lat="36.8232300" lon="-2.9098960">
        <ele>622.4</ele>
        <time>2021-03-02T08:58:02Z</time>
      </trkpt>
      <trkpt lat="36.8233000" lon="-2.9099280">
        <ele>621.8</ele>
        <time>2021-03-02T08:58:03Z</time>
      </trkpt>
      <trkpt lat="36.8233740" lon="-2.9099690">
        <ele>619.8</ele>
        <time>2021-03-02T08:58:04Z</time>
      </trkpt>
      <trkpt lat="36.8234520" lon="-2.9100240">
        <ele>617.4</ele>
        <time>2021-03-02T08:58:05Z</time>
      </trkpt>
      <trkpt lat="36.8235360" lon="-2.9100820">
        <ele>616.2</ele>
        <time>2021-03-02T08:58:06Z</time>
      </trkpt>
      <trkpt lat="36.8236150" lon="-2.9101380">
        <ele>613.8</ele>
        <time>2021-03-02T08:58:07Z</time>
      </trkpt>
      <trkpt lat="36.8236910" lon="-2.9101990">
        <ele>612.6</ele>
        <time>2021-03-02T08:58:08Z</time>
      </trkpt>
      <trkpt lat="36.8237740" lon="-2.9102560">
        <ele>610.2</ele>
        <time>2021-03-02T08:58:09Z</time>
      </trkpt>
      <trkpt lat="36.8238660" lon="-2.9103050">
        <ele>609.2</ele>
        <time>2021-03-02T08:58:10Z</time>
      </trkpt>
      <trkpt lat="36.8239620" lon="-2.9103520">
        <ele>607.6</ele>
        <time>2021-03-02T08:58:11Z</time>
      </trkpt>
      <trkpt lat="36.8240520" lon="-2.9103970">
        <ele>606.0</ele>
        <time>2021-03-02T08:58:12Z</time>
      </trkpt>
      <trkpt lat="36.8241310" lon="-2.9104440">
        <ele>605.2</ele>
        <time>2021-03-02T08:58:13Z</time>
      </trkpt>
      <trkpt lat="36.8242040" lon="-2.9104930">
        <ele>603.2</ele>
        <time>2021-03-02T08:58:14Z</time>
      </trkpt>
      <trkpt lat="36.8242770" lon="-2.9105370">
        <ele>602.6</ele>
        <time>2021-03-02T08:58:15Z</time>
      </trkpt>
      <trkpt lat="36.8243490" lon="-2.9105650">
        <ele>601.2</ele>
        <time>2021-03-02T08:58:16Z</time>
      </trkpt>
      <trkpt lat="36.8244240" lon="-2.9105790">
        <ele>599.8</ele>
        <time>2021-03-02T08:58:17Z</time>
      </trkpt>
      <trkpt lat="36.8245050" lon="-2.9105950">
        <ele>598.8</ele>
        <time>2021-03-02T08:58:18Z</time>
      </trkpt>
      <trkpt lat="36.8245830" lon="-2.9106210">
        <ele>597.6</ele>
        <time>2021-03-02T08:58:19Z</time>
      </trkpt>
      <trkpt lat="36.8246580" lon="-2.9106580">
        <ele>596.8</ele>
        <time>2021-03-02T08:58:20Z</time>
      </trkpt>
      <trkpt lat="36.8247400" lon="-2.9106980">
        <ele>595.8</ele>
        <time>2021-03-02T08:58:21Z</time>
      </trkpt>
      <trkpt lat="36.8248280" lon="-2.9107340">
        <ele>595.0</ele>
        <time>2021-03-02T08:58:22Z</time>
      </trkpt>
      <trkpt lat="36.8249180" lon="-2.9107630">
        <ele>593.2</ele>
        <time>2021-03-02T08:58:23Z</time>
      </trkpt>
      <trkpt lat="36.8250050" lon="-2.9107900">
        <ele>591.6</ele>
        <time>2021-03-02T08:58:24Z</time>
      </trkpt>
      <trkpt lat="36.8250880" lon="-2.9108180">
        <ele>591.2</ele>
        <time>2021-03-02T08:58:25Z</time>
      </trkpt>
      <trkpt lat="36.8251660" lon="-2.9108490">
        <ele>590.0</ele>
        <time>2021-03-02T08:58:26Z</time>
      </trkpt>
      <trkpt lat="36.8252360" lon="-2.9108740">
        <ele>589.4</ele>
        <time>2021-03-02T08:58:27Z</time>
      </trkpt>
      <trkpt lat="36.8252970" lon="-2.9108820">
        <ele>588.0</ele>
        <time>2021-03-02T08:58:28Z</time>
      </trkpt>
      <trkpt lat="36.8253530" lon="-2.9108690">
        <ele>587.4</ele>
        <time>2021-03-02T08:58:29Z</time>
      </trkpt>
      <trkpt lat="36.8254050" lon="-2.9108350">
        <ele>586.4</ele>
        <time>2021-03-02T08:58:30Z</time>
      </trkpt>
      <trkpt lat="36.8254500" lon="-2.9107860">
        <ele>585.4</ele>
        <time>2021-03-02T08:58:31Z</time>
      </trkpt>
      <trkpt lat="36.8254900" lon="-2.9107250">
        <ele>584.6</ele>
        <time>2021-03-02T08:58:32Z</time>
      </trkpt>
      <trkpt lat="36.8255230" lon="-2.9106490">
        <ele>583.4</ele>
        <time>2021-03-02T08:58:33Z</time>
      </trkpt>
      <trkpt lat="36.8255480" lon="-2.9105580">
        <ele>582.8</ele>
        <time>2021-03-02T08:58:34Z</time>
      </trkpt>
      <trkpt lat="36.8255710" lon="-2.9104600">
        <ele>581.8</ele>
        <time>2021-03-02T08:58:35Z</time>
      </trkpt>
      <trkpt lat="36.8255980" lon="-2.9103630">
        <ele>580.6</ele>
        <time>2021-03-02T08:58:36Z</time>
      </trkpt>
      <trkpt lat="36.8256310" lon="-2.9102700">
        <ele>580.2</ele>
        <time>2021-03-02T08:58:37Z</time>
      </trkpt>
      <trkpt lat="36.8256660" lon="-2.9101790">
        <ele>579.6</ele>
        <time>2021-03-02T08:58:38Z</time>
      </trkpt>
      <trkpt lat="36.8257030" lon="-2.9100970">
        <ele>579.2</ele>
        <time>2021-03-02T08:58:39Z</time>
      </trkpt>
      <trkpt lat="36.8257420" lon="-2.9100370">
        <ele>578.0</ele>
        <time>2021-03-02T08:58:40Z</time>
      </trkpt>
      <trkpt lat="36.8257890" lon="-2.9100000">
        <ele>577.4</ele>
        <time>2021-03-02T08:58:41Z</time>
      </trkpt>
      <trkpt lat="36.8258430" lon="-2.9099880">
        <ele>576.4</ele>
        <time>2021-03-02T08:58:42Z</time>
      </trkpt>
      <trkpt lat="36.8259040" lon="-2.9099900">
        <ele>575.6</ele>
        <time>2021-03-02T08:58:43Z</time>
      </trkpt>
      <trkpt lat="36.8259700" lon="-2.9099960">
        <ele>575.0</ele>
        <time>2021-03-02T08:58:44Z</time>
      </trkpt>
      <trkpt lat="36.8260400" lon="-2.9100060">
        <ele>574.0</ele>
        <time>2021-03-02T08:58:45Z</time>
      </trkpt>
      <trkpt lat="36.8261110" lon="-2.9100200">
        <ele>573.6</ele>
        <time>2021-03-02T08:58:46Z</time>
      </trkpt>
      <trkpt lat="36.8261750" lon="-2.9100350">
        <ele>572.8</ele>
        <time>2021-03-02T08:58:47Z</time>
      </trkpt>
      <trkpt lat="36.8262230" lon="-2.9100490">
        <ele>572.4</ele>
        <time>2021-03-02T08:58:48Z</time>
      </trkpt>
      <trkpt lat="36.8262570" lon="-2.9100730">
        <ele>571.8</ele>
        <time>2021-03-02T08:58:49Z</time>
      </trkpt>
      <trkpt lat="36.8262800" lon="-2.9101120">
        <ele>571.6</ele>
        <time>2021-03-02T08:58:50Z</time>
      </trkpt>
      <trkpt lat="36.8262940" lon="-2.9101620">
        <ele>571.4</ele>
        <time>2021-03-02T08:58:51Z</time>
      </trkpt>
      <trkpt lat="36.8263030" lon="-2.9102150">
        <ele>571.2</ele>
        <time>2021-03-02T08:58:52Z</time>
      </trkpt>
      <trkpt lat="36.8263100" lon="-2.9102700">
        <ele>571.2</ele>
        <time>2021-03-02T08:58:53Z</time>
      </trkpt>
      <trkpt lat="36.8263140" lon="-2.9103250">
        <ele>571.2</ele>
        <time>2021-03-02T08:58:54Z</time>
      </trkpt>
      <trkpt lat="36.8263170" lon="-2.9103750">
        <ele>571.6</ele>
        <time>2021-03-02T08:58:55Z</time>
      </trkpt>
      <trkpt lat="36.8263180" lon="-2.9104210">
        <ele>571.8</ele>
        <time>2021-03-02T08:58:56Z</time>
      </trkpt>
      <trkpt lat="36.8263190" lon="-2.9104680">
        <ele>572.2</ele>
        <time>2021-03-02T08:58:57Z</time>
      </trkpt>
      <trkpt lat="36.8263220" lon="-2.9105190">
        <ele>572.4</ele>
        <time>2021-03-02T08:58:58Z</time>
      </trkpt>
      <trkpt lat="36.8263290" lon="-2.9105740">
        <ele>572.4</ele>
        <time>2021-03-02T08:58:59Z</time>
      </trkpt>
      <trkpt lat="36.8263410" lon="-2.9106330">
        <ele>572.4</ele>
        <time>2021-03-02T08:59:00Z</time>
      </trkpt>
      <trkpt lat="36.8263660" lon="-2.9106920">
        <ele>572.4</ele>
        <time>2021-03-02T08:59:01Z</time>
      </trkpt>
      <trkpt lat="36.8264100" lon="-2.9107410">
        <ele>572.0</ele>
        <time>2021-03-02T08:59:02Z</time>
      </trkpt>
      <trkpt lat="36.8264700" lon="-2.9107760">
        <ele>571.6</ele>
        <time>2021-03-02T08:59:03Z</time>
      </trkpt>
      <trkpt lat="36.8265420" lon="-2.9107930">
        <ele>570.4</ele>
        <time>2021-03-02T08:59:04Z</time>
      </trkpt>
      <trkpt lat="36.8266240" lon="-2.9107970">
        <ele>569.6</ele>
        <time>2021-03-02T08:59:05Z</time>
      </trkpt>
      <trkpt lat="36.8267100" lon="-2.9107870">
        <ele>568.0</ele>
        <time>2021-03-02T08:59:06Z</time>
      </trkpt>
      <trkpt lat="36.8267990" lon="-2.9107620">
        <ele>567.4</ele>
        <time>2021-03-02T08:59:07Z</time>
      </trkpt>
      <trkpt lat="36.8268820" lon="-2.9107230">
        <ele>565.8</ele>
        <time>2021-03-02T08:59:08Z</time>
      </trkpt>
      <trkpt lat="36.8269580" lon="-2.9106730">
        <ele>564.6</ele>
        <time>2021-03-02T08:59:09Z</time>
      </trkpt>
      <trkpt lat="36.8270240" lon="-2.9106150">
        <ele>564.2</ele>
        <time>2021-03-02T08:59:10Z</time>
      </trkpt>
      <trkpt lat="36.8270830" lon="-2.9105590">
        <ele>563.4</ele>
        <time>2021-03-02T08:59:11Z</time>
      </trkpt>
      <trkpt lat="36.8271400" lon="-2.9105160">
        <ele>563.0</ele>
        <time>2021-03-02T08:59:12Z</time>
      </trkpt>
      <trkpt lat="36.8271920" lon="-2.9104870">
        <ele>562.4</ele>
        <time>2021-03-02T08:59:13Z</time>
      </trkpt>
      <trkpt lat="36.8272420" lon="-2.9104700">
        <ele>561.8</ele>
        <time>2021-03-02T08:59:14Z</time>
      </trkpt>
      <trkpt lat="36.8272950" lon="-2.9104510">
        <ele>561.4</ele>
        <time>2021-03-02T08:59:15Z</time>
      </trkpt>
      <trkpt lat="36.8273420" lon="-2.9104300">
        <ele>560.0</ele>
        <time>2021-03-02T08:59:16Z</time>
      </trkpt>
      <trkpt lat="36.8273810" lon="-2.9104190">
        <ele>559.2</ele>
        <time>2021-03-02T08:59:17Z</time>
      </trkpt>
      <trkpt lat="36.8274170" lon="-2.9104280">
        <ele>558.4</ele>
        <time>2021-03-02T08:59:18Z</time>
      </trkpt>
      <trkpt lat="36.8274540" lon="-2.9104490">
        <ele>558.0</ele>
        <time>2021-03-02T08:59:19Z</time>
      </trkpt>
      <trkpt lat="36.8274920" lon="-2.9104810">
        <ele>557.6</ele>
        <time>2021-03-02T08:59:20Z</time>
      </trkpt>
      <trkpt lat="36.8275370" lon="-2.9105200">
        <ele>557.2</ele>
        <time>2021-03-02T08:59:21Z</time>
      </trkpt>
      <trkpt lat="36.8275850" lon="-2.9105600">
        <ele>557.0</ele>
        <time>2021-03-02T08:59:22Z</time>
      </trkpt>
      <trkpt lat="36.8276250" lon="-2.9106000">
        <ele>556.4</ele>
        <time>2021-03-02T08:59:23Z</time>
      </trkpt>
      <trkpt lat="36.8276550" lon="-2.9106410">
        <ele>556.0</ele>
        <time>2021-03-02T08:59:24Z</time>
      </trkpt>
      <trkpt lat="36.8276790" lon="-2.9106750">
        <ele>555.6</ele>
        <time>2021-03-02T08:59:25Z</time>
      </trkpt>
      <trkpt lat="36.8277010" lon="-2.9106920">
        <ele>555.4</ele>
        <time>2021-03-02T08:59:26Z</time>
      </trkpt>
      <trkpt lat="36.8277260" lon="-2.9106950">
        <ele>555.4</ele>
        <time>2021-03-02T08:59:27Z</time>
      </trkpt>
      <trkpt lat="36.8277550" lon="-2.9106900">
        <ele>555.2</ele>
        <time>2021-03-02T08:59:28Z</time>
      </trkpt>
      <trkpt lat="36.8277880" lon="-2.9106870">
        <ele>555.2</ele>
        <time>2021-03-02T08:59:29Z</time>
      </trkpt>
      <trkpt lat="36.8278260" lon="-2.9106860">
        <ele>555.2</ele>
        <time>2021-03-02T08:59:30Z</time>
      </trkpt>
      <trkpt lat="36.8278680" lon="-2.9106860">
        <ele>555.0</ele>
        <time>2021-03-02T08:59:31Z</time>
      </trkpt>
      <trkpt lat="36.8279110" lon="-2.9106880">
        <ele>555.0</ele>
        <time>2021-03-02T08:59:32Z</time>
      </trkpt>
      <trkpt lat="36.8279560" lon="-2.9106880">
        <ele>555.0</ele>
        <time>2021-03-02T08:59:33Z</time>
      </trkpt>
      <trkpt lat="36.8280010" lon="-2.9106790">
        <ele>555.0</ele>
        <time>2021-03-02T08:59:34Z</time>
      </trkpt>
      <trkpt lat="36.8280420" lon="-2.9106600">
        <ele>555.0</ele>
        <time>2021-03-02T08:59:35Z</time>
      </trkpt>
      <trkpt lat="36.8280830" lon="-2.9106300">
        <ele>555.0</ele>
        <time>2021-03-02T08:59:36Z</time>
      </trkpt>
      <trkpt lat="36.8281210" lon="-2.9105870">
        <ele>554.8</ele>
        <time>2021-03-02T08:59:37Z</time>
      </trkpt>
      <trkpt lat="36.8281540" lon="-2.9105320">
        <ele>554.6</ele>
        <time>2021-03-02T08:59:38Z</time>
      </trkpt>
      <trkpt lat="36.8281820" lon="-2.9104680">
        <ele>554.4</ele>
        <time>2021-03-02T08:59:39Z</time>
      </trkpt>
      <trkpt lat="36.8282080" lon="-2.9104040">
        <ele>554.2</ele>
        <time>2021-03-02T08:59:40Z</time>
      </trkpt>
      <trkpt lat="36.8282340" lon="-2.9103420">
        <ele>554.0</ele>
        <time>2021-03-02T08:59:41Z</time>
      </trkpt>
      <trkpt lat="36.8282600" lon="-2.9102820">
        <ele>554.0</ele>
        <time>2021-03-02T08:59:42Z</time>
      </trkpt>
      <trkpt lat="36.8282900" lon="-2.9102230">
        <ele>554.0</ele>
        <time>2021-03-02T08:59:43Z</time>
      </trkpt>
      <trkpt lat="36.8283240" lon="-2.9101640">
        <ele>553.8</ele>
        <time>2021-03-02T08:59:44Z</time>
      </trkpt>
      <trkpt lat="36.8283640" lon="-2.9101030">
        <ele>553.6</ele>
        <time>2021-03-02T08:59:45Z</time>
      </trkpt>
      <trkpt lat="36.8284100" lon="-2.9100350">
        <ele>553.0</ele>
        <time>2021-03-02T08:59:46Z</time>
      </trkpt>
      <trkpt lat="36.8284520" lon="-2.9099680">
        <ele>552.0</ele>
        <time>2021-03-02T08:59:47Z</time>
      </trkpt>
      <trkpt lat="36.8284850" lon="-2.9099060">
        <ele>551.4</ele>
        <time>2021-03-02T08:59:48Z</time>
      </trkpt>
      <trkpt lat="36.8285150" lon="-2.9098590">
        <ele>550.6</ele>
        <time>2021-03-02T08:59:49Z</time>
      </trkpt>
      <trkpt lat="36.8285440" lon="-2.9098400">
        <ele>550.2</ele>
        <time>2021-03-02T08:59:50Z</time>
      </trkpt>
      <trkpt lat="36.8285690" lon="-2.9098520">
        <ele>549.8</ele>
        <time>2021-03-02T08:59:51Z</time>
      </trkpt>
      <trkpt lat="36.8285870" lon="-2.9098870">
        <ele>549.4</ele>
        <time>2021-03-02T08:59:52Z</time>
      </trkpt>
      <trkpt lat="36.8285910" lon="-2.9099350">
        <ele>548.8</ele>
        <time>2021-03-02T08:59:53Z</time>
      </trkpt>
      <trkpt lat="36.8285840" lon="-2.9099870">
        <ele>548.0</ele>
        <time>2021-03-02T08:59:54Z</time>
      </trkpt>
      <trkpt lat="36.8285770" lon="-2.9100370">
        <ele>547.4</ele>
        <time>2021-03-02T08:59:55Z</time>
      </trkpt>
      <trkpt lat="36.8285710" lon="-2.9100850">
        <ele>545.8</ele>
        <time>2021-03-02T08:59:56Z</time>
      </trkpt>
      <trkpt lat="36.8285600" lon="-2.9101290">
        <ele>545.2</ele>
        <time>2021-03-02T08:59:57Z</time>
      </trkpt>
      <trkpt lat="36.8285450" lon="-2.9101700">
        <ele>544.2</ele>
        <time>2021-03-02T08:59:58Z</time>
      </trkpt>
      <trkpt lat="36.8285350" lon="-2.9102190">
        <ele>542.8</ele>
        <time>2021-03-02T08:59:59Z</time>
      </trkpt>
      <trkpt lat="36.8285360" lon="-2.9102680">
        <ele>542.4</ele>
        <time>2021-03-02T09:00:00Z</time>
      </trkpt>
      <trkpt lat="36.8285440" lon="-2.9103160">
        <ele>541.2</ele>
        <time>2021-03-02T09:00:01Z</time>
      </trkpt>
      <trkpt lat="36.8285600" lon="-2.9103620">
        <ele>540.6</ele>
        <time>2021-03-02T09:00:02Z</time>
      </trkpt>
      <trkpt lat="36.8285830" lon="-2.9104070">
        <ele>539.2</ele>
        <time>2021-03-02T09:00:03Z</time>
      </trkpt>
      <trkpt lat="36.8286070" lon="-2.9104490">
        <ele>538.6</ele>
        <time>2021-03-02T09:00:04Z</time>
      </trkpt>
      <trkpt lat="36.8286310" lon="-2.9104860">
        <ele>537.4</ele>
        <time>2021-03-02T09:00:05Z</time>
      </trkpt>
      <trkpt lat="36.8286560" lon="-2.9105180">
        <ele>536.0</ele>
        <time>2021-03-02T09:00:06Z</time>
      </trkpt>
      <trkpt lat="36.8286810" lon="-2.9105490">
        <ele>535.6</ele>
        <time>2021-03-02T09:00:07Z</time>
      </trkpt>
      <trkpt lat="36.8287040" lon="-2.9105810">
        <ele>534.2</ele>
        <time>2021-03-02T09:00:08Z</time>
      </trkpt>
      <trkpt lat="36.8287260" lon="-2.9106140">
        <ele>533.4</ele>
        <time>2021-03-02T09:00:09Z</time>
      </trkpt>
      <trkpt lat="36.8287490" lon="-2.9106460">
        <ele>532.0</ele>
        <time>2021-03-02T09:00:10Z</time>
      </trkpt>
      <trkpt lat="36.8287700" lon="-2.9106770">
        <ele>531.2</ele>
        <time>2021-03-02T09:00:11Z</time>
      </trkpt>
      <trkpt lat="36.8287900" lon="-2.9107050">
        <ele>530.0</ele>
        <time>2021-03-02T09:00:12Z</time>
      </trkpt>
      <trkpt lat="36.8288100" lon="-2.9107270">
        <ele>528.8</ele>
        <time>2021-03-02T09:00:13Z</time>
      </trkpt>
      <trkpt lat="36.8288270" lon="-2.9107480">
        <ele>528.0</ele>
        <time>2021-03-02T09:00:14Z</time>
      </trkpt>
      <trkpt lat="36.8288380" lon="-2.9107680">
        <ele>527.0</ele>
        <time>2021-03-02T09:00:15Z</time>
      </trkpt>
      <trkpt lat="36.8288480" lon="-2.9107850">
        <ele>526.6</ele>
        <time>2021-03-02T09:00:16Z</time>
      </trkpt>
      <trkpt lat="36.8288600" lon="-2.9108000">
        <ele>525.6</ele>
        <time>2021-03-02T09:00:17Z</time>
      </trkpt>
      <trkpt lat="36.8288740" lon="-2.9108170">
        <ele>525.0</ele>
        <time>2021-03-02T09:00:18Z</time>
      </trkpt>
      <trkpt lat="36.8288900" lon="-2.9108370">
        <ele>524.8</ele>
        <time>2021-03-02T09:00:19Z</time>
      </trkpt>
      <trkpt lat="36.8289070" lon="-2.9108560">
        <ele>524.0</ele>
        <time>2021-03-02T09:00:20Z</time>
      </trkpt>
      <trkpt lat="36.8289230" lon="-2.9108750">
        <ele>523.6</ele>
        <time>2021-03-02T09:00:21Z</time>
      </trkpt>
      <trkpt lat="36.8289380" lon="-2.9108920">
        <ele>522.8</ele>
        <time>2021-03-02T09:00:22Z</time>
      </trkpt>
      <trkpt lat="36.8289580" lon="-2.9109100">
        <ele>522.4</ele>
        <time>2021-03-02T09:00:23Z</time>
      </trkpt>
      <trkpt lat="36.8289820" lon="-2.9109390">
        <ele>521.4</ele>
        <time>2021-03-02T09:00:24Z</time>
      </trkpt>
      <trkpt lat="36.8290060" lon="-2.9109770">
        <ele>520.4</ele>
        <time>2021-03-02T09:00:25Z</time>
      </trkpt>
      <trkpt lat="36.8290280" lon="-2.9110130">
        <ele>520.0</ele>
        <time>2021-03-02T09:00:26Z</time>
      </trkpt>
      <trkpt lat="36.8290450" lon="-2.9110440">
        <ele>518.8</ele>
        <time>2021-03-02T09:00:27Z</time>
      </trkpt>
      <trkpt lat="36.8290590" lon="-2.9110730">
        <ele>518.2</ele>
        <time>2021-03-02T09:00:28Z</time>
      </trkpt>
      <trkpt lat="36.8290730" lon="-2.9111020">
        <ele>517.6</ele>
        <time>2021-03-02T09:00:29Z</time>
      </trkpt>
      <trkpt lat="36.8290900" lon="-2.9111310">
        <ele>517.2</ele>
        <time>2021-03-02T09:00:30Z</time>
      </trkpt>
      <trkpt lat="36.8291090" lon="-2.9111590">
        <ele>516.4</ele>
        <time>2021-03-02T09:00:31Z</time>
      </trkpt>
      <trkpt lat="36.8291300" lon="-2.9111860">
        <ele>515.8</ele>
        <time>2021-03-02T09:00:32Z</time>
      </trkpt>
      <trkpt lat="36.8291520" lon="-2.9112080">
        <ele>515.4</ele>
        <time>2021-03-02T09:00:33Z</time>
      </trkpt>
      <trkpt lat="36.8291760" lon="-2.9112290">
        <ele>514.4</ele>
        <time>2021-03-02T09:00:34Z</time>
      </trkpt>
      <trkpt lat="36.8292020" lon="-2.9112510">
        <ele>514.0</ele>
        <time>2021-03-02T09:00:35Z</time>
      </trkpt>
      <trkpt lat="36.8292270" lon="-2.9112730">
        <ele>513.0</ele>
        <time>2021-03-02T09:00:36Z</time>
      </trkpt>
      <trkpt lat="36.8292520" lon="-2.9112980">
        <ele>512.2</ele>
        <time>2021-03-02T09:00:37Z</time>
      </trkpt>
      <trkpt lat="36.8292750" lon="-2.9113240">
        <ele>511.8</ele>
        <time>2021-03-02T09:00:38Z</time>
      </trkpt>
      <trkpt lat="36.8293000" lon="-2.9113450">
        <ele>511.0</ele>
        <time>2021-03-02T09:00:39Z</time>
      </trkpt>
      <trkpt lat="36.8293260" lon="-2.9113590">
        <ele>510.4</ele>
        <time>2021-03-02T09:00:40Z</time>
      </trkpt>
      <trkpt lat="36.8293540" lon="-2.9113670">
        <ele>509.2</ele>
        <time>2021-03-02T09:00:41Z</time>
      </trkpt>
      <trkpt lat="36.8293830" lon="-2.9113770">
        <ele>508.8</ele>
        <time>2021-03-02T09:00:42Z</time>
      </trkpt>
      <trkpt lat="36.8294110" lon="-2.9113930">
        <ele>508.2</ele>
        <time>2021-03-02T09:00:43Z</time>
      </trkpt>
      <trkpt lat="36.8294430" lon="-2.9114150">
        <ele>507.4</ele>
        <time>2021-03-02T09:00:44Z</time>
      </trkpt>
      <trkpt lat="36.8294840" lon="-2.9114450">
        <ele>506.8</ele>
        <time>2021-03-02T09:00:45Z</time>
      </trkpt>
      <trkpt lat="36.8295350" lon="-2.9114840">
        <ele>505.6</ele>
        <time>2021-03-02T09:00:46Z</time>
      </trkpt>
      <trkpt lat="36.8295880" lon="-2.9115320">
        <ele>504.8</ele>
        <time>2021-03-02T09:00:47Z</time>
      </trkpt>
      <trkpt lat="36.8296350" lon="-2.9115840">
        <ele>503.2</ele>
        <time>2021-03-02T09:00:48Z</time>
      </trkpt>
      <trkpt lat="36.8296750" lon="-2.9116390">
        <ele>502.4</ele>
        <time>2021-03-02T09:00:49Z</time>
      </trkpt>
      <trkpt lat="36.8297080" lon="-2.9116930">
        <ele>500.6</ele>
        <time>2021-03-02T09:00:50Z</time>
      </trkpt>
      <trkpt lat="36.8297360" lon="-2.9117440">
        <ele>499.0</ele>
        <time>2021-03-02T09:00:51Z</time>
      </trkpt>
      <trkpt lat="36.8297620" lon="-2.9117890">
        <ele>498.2</ele>
        <time>2021-03-02T09:00:52Z</time>
      </trkpt>
      <trkpt lat="36.8297860" lon="-2.9118290">
        <ele>497.0</ele>
        <time>2021-03-02T09:00:53Z</time>
      </trkpt>
      <trkpt lat="36.8298110" lon="-2.9118620">
        <ele>496.2</ele>
        <time>2021-03-02T09:00:54Z</time>
      </trkpt>
      <trkpt lat="36.8298350" lon="-2.9118880">
        <ele>495.4</ele>
        <time>2021-03-02T09:00:55Z</time>
      </trkpt>
      <trkpt lat="36.8298570" lon="-2.9119140">
        <ele>494.6</ele>
        <time>2021-03-02T09:00:56Z</time>
      </trkpt>
      <trkpt lat="36.8298820" lon="-2.9119400">
        <ele>494.2</ele>
        <time>2021-03-02T09:00:57Z</time>
      </trkpt>
      <trkpt lat="36.8299110" lon="-2.9119600">
        <ele>493.2</ele>
        <time>2021-03-02T09:00:58Z</time>
      </trkpt>
      <trkpt lat="36.8299440" lon="-2.9119740">
        <ele>492.8</ele>
        <time>2021-03-02T09:00:59Z</time>
      </trkpt>
      <trkpt lat="36.8299790" lon="-2.9119850">
        <ele>491.8</ele>
        <time>2021-03-02T09:01:00Z</time>
      </trkpt>
      <trkpt lat="36.8300130" lon="-2.9119940">
        <ele>491.2</ele>
        <time>2021-03-02T09:01:01Z</time>
      </trkpt>
      <trkpt lat="36.8300460" lon="-2.9120030">
        <ele>489.8</ele>
        <time>2021-03-02T09:01:02Z</time>
      </trkpt>
      <trkpt lat="36.8300800" lon="-2.9120170">
        <ele>488.4</ele>
        <time>2021-03-02T09:01:03Z</time>
      </trkpt>
      <trkpt lat="36.8301170" lon="-2.9120350">
        <ele>487.8</ele>
        <time>2021-03-02T09:01:04Z</time>
      </trkpt>
      <trkpt lat="36.8301570" lon="-2.9120600">
        <ele>486.8</ele>
        <time>2021-03-02T09:01:05Z</time>
      </trkpt>
      <trkpt lat="36.8302010" lon="-2.9120900">
        <ele>486.2</ele>
        <time>2021-03-02T09:01:06Z</time>
      </trkpt>
      <trkpt lat="36.8302450" lon="-2.9121220">
        <ele>484.6</ele>
        <time>2021-03-02T09:01:07Z</time>
      </trkpt>
      <trkpt lat="36.8302840" lon="-2.9121570">
        <ele>482.8</ele>
        <time>2021-03-02T09:01:08Z</time>
      </trkpt>
      <trkpt lat="36.8303160" lon="-2.9121950">
        <ele>482.0</ele>
        <time>2021-03-02T09:01:09Z</time>
      </trkpt>
      <trkpt lat="36.8303420" lon="-2.9122370">
        <ele>480.4</ele>
        <time>2021-03-02T09:01:10Z</time>
      </trkpt>
      <trkpt lat="36.8303650" lon="-2.9122810">
        <ele>479.8</ele>
        <time>2021-03-02T09:01:11Z</time>
      </trkpt>
      <trkpt lat="36.8303870" lon="-2.9123260">
        <ele>478.4</ele>
        <time>2021-03-02T09:01:12Z</time>
      </trkpt>
      <trkpt lat="36.8304080" lon="-2.9123700">
        <ele>477.6</ele>
        <time>2021-03-02T09:01:13Z</time>
      </trkpt>
      <trkpt lat="36.8304290" lon="-2.9124110">
        <ele>476.0</ele>
        <time>2021-03-02T09:01:14Z</time>
      </trkpt>
      <trkpt lat="36.8304490" lon="-2.9124500">
        <ele>474.8</ele>
        <time>2021-03-02T09:01:15Z</time>
      </trkpt>
      <trkpt lat="36.8304710" lon="-2.9124970">
        <ele>474.4</ele>
        <time>2021-03-02T09:01:16Z</time>
      </trkpt>
      <trkpt lat="36.8304970" lon="-2.9125570">
        <ele>473.0</ele>
        <time>2021-03-02T09:01:17Z</time>
      </trkpt>
      <trkpt lat="36.8305250" lon="-2.9126240">
        <ele>472.2</ele>
        <time>2021-03-02T09:01:18Z</time>
      </trkpt>
      <trkpt lat="36.8305520" lon="-2.9126870">
        <ele>470.2</ele>
        <time>2021-03-02T09:01:19Z</time>
      </trkpt>
      <trkpt lat="36.8305780" lon="-2.9127450">
        <ele>469.2</ele>
        <time>2021-03-02T09:01:20Z</time>
      </trkpt>
      <trkpt lat="36.8306020" lon="-2.9127980">
        <ele>467.6</ele>
        <time>2021-03-02T09:01:21Z</time>
      </trkpt>
      <trkpt lat="36.8306260" lon="-2.9128470">
        <ele>466.4</ele>
        <time>2021-03-02T09:01:22Z</time>
      </trkpt>
      <trkpt lat="36.8306500" lon="-2.9128930">
        <ele>465.6</ele>
        <time>2021-03-02T09:01:23Z</time>
      </trkpt>
      <trkpt lat="36.8306740" lon="-2.9129390">
        <ele>464.2</ele>
        <time>2021-03-02T09:01:24Z</time>
      </trkpt>
      <trkpt lat="36.8306910" lon="-2.9129880">
        <ele>463.6</ele>
        <time>2021-03-02T09:01:25Z</time>
      </trkpt>
      <trkpt lat="36.8307000" lon="-2.9130370">
        <ele>462.2</ele>
        <time>2021-03-02T09:01:26Z</time>
      </trkpt>
      <trkpt lat="36.8307060" lon="-2.9130810">
        <ele>461.4</ele>
        <time>2021-03-02T09:01:27Z</time>
      </trkpt>
      <trkpt lat="36.8307110" lon="-2.9131190">
        <ele>459.8</ele>
        <time>2021-03-02T09:01:28Z</time>
      </trkpt>
      <trkpt lat="36.8307180" lon="-2.9131520">
        <ele>458.6</ele>
        <time>2021-03-02T09:01:29Z</time>
      </trkpt>
      <trkpt lat="36.8307270" lon="-2.9131760">
        <ele>458.0</ele>
        <time>2021-03-02T09:01:30Z</time>
      </trkpt>
      <trkpt lat="36.8307400" lon="-2.9131880">
        <ele>457.0</ele>
        <time>2021-03-02T09:01:31Z</time>
      </trkpt>
      <trkpt lat="36.8307550" lon="-2.9131900">
        <ele>456.6</ele>
        <time>2021-03-02T09:01:32Z</time>
      </trkpt>
      <trkpt lat="36.8307670" lon="-2.9131830">
        <ele>456.2</ele>
        <time>2021-03-02T09:01:33Z</time>
      </trkpt>
      <trkpt lat="36.8307730" lon="-2.9131690">
        <ele>455.8</ele>
        <time>2021-03-02T09:01:34Z</time>
      </trkpt>
      <trkpt lat="36.8307820" lon="-2.9131490">
        <ele>455.8</ele>
        <time>2021-03-02T09:01:35Z</time>
      </trkpt>
      <trkpt lat="36.8307920" lon="-2.9131190">
        <ele>455.6</ele>
        <time>2021-03-02T09:01:36Z</time>
      </trkpt>
      <trkpt lat="36.8308020" lon="-2.9130750">
        <ele>455.4</ele>
        <time>2021-03-02T09:01:37Z</time>
      </trkpt>
      <trkpt lat="36.8308120" lon="-2.9130250">
        <ele>455.0</ele>
        <time>2021-03-02T09:01:38Z</time>
      </trkpt>
      <trkpt lat="36.8308250" lon="-2.9129640">
        <ele>454.8</ele>
        <time>2021-03-02T09:01:39Z</time>
      </trkpt>
      <trkpt lat="36.8308440" lon="-2.9129060">
        <ele>454.0</ele>
        <time>2021-03-02T09:01:40Z</time>
      </trkpt>
      <trkpt lat="36.8308720" lon="-2.9128640">
        <ele>453.4</ele>
        <time>2021-03-02T09:01:41Z</time>
      </trkpt>
      <trkpt lat="36.8309110" lon="-2.9128500">
        <ele>453.2</ele>
        <time>2021-03-02T09:01:42Z</time>
      </trkpt>
      <trkpt lat="36.8309530" lon="-2.9128620">
        <ele>452.8</ele>
        <time>2021-03-02T09:01:43Z</time>
      </trkpt>
      <trkpt lat="36.8309910" lon="-2.9128990">
        <ele>452.6</ele>
        <time>2021-03-02T09:01:44Z</time>
      </trkpt>
      <trkpt lat="36.8310270" lon="-2.9129520">
        <ele>452.2</ele>
        <time>2021-03-02T09:01:45Z</time>
      </trkpt>
      <trkpt lat="36.8310590" lon="-2.9130170">
        <ele>452.0</ele>
        <time>2021-03-02T09:01:46Z</time>
      </trkpt>
      <trkpt lat="36.8310900" lon="-2.9130890">
        <ele>451.4</ele>
        <time>2021-03-02T09:01:47Z</time>
      </trkpt>
      <trkpt lat="36.8311230" lon="-2.9131610">
        <ele>450.8</ele>
        <time>2021-03-02T09:01:48Z</time>
      </trkpt>
      <trkpt lat="36.8311580" lon="-2.9132220">
        <ele>450.6</ele>
        <time>2021-03-02T09:01:49Z</time>
      </trkpt>
      <trkpt lat="36.8311970" lon="-2.9132670">
        <ele>450.2</ele>
        <time>2021-03-02T09:01:50Z</time>
      </trkpt>
      <trkpt lat="36.8312420" lon="-2.9133040">
        <ele>450.0</ele>
        <time>2021-03-02T09:01:51Z</time>
      </trkpt>
      <trkpt lat="36.8312870" lon="-2.9133450">
        <ele>449.6</ele>
        <time>2021-03-02T09:01:52Z</time>
      </trkpt>
      <trkpt lat="36.8313230" lon="-2.9133930">
        <ele>449.0</ele>
        <time>2021-03-02T09:01:53Z</time>
      </trkpt>
      <trkpt lat="36.8313430" lon="-2.9134420">
        <ele>448.4</ele>
        <time>2021-03-02T09:01:54Z</time>
      </trkpt>
      <trkpt lat="36.8313500" lon="-2.9134860">
        <ele>447.2</ele>
        <time>2021-03-02T09:01:55Z</time>
      </trkpt>
      <trkpt lat="36.8313460" lon="-2.9135230">
        <ele>446.8</ele>
        <time>2021-03-02T09:01:56Z</time>
      </trkpt>
      <trkpt lat="36.8313320" lon="-2.9135550">
        <ele>446.0</ele>
        <time>2021-03-02T09:01:57Z</time>
      </trkpt>
      <trkpt lat="36.8313090" lon="-2.9135810">
        <ele>445.6</ele>
        <time>2021-03-02T09:01:58Z</time>
      </trkpt>
      <trkpt lat="36.8312830" lon="-2.9136000">
        <ele>445.0</ele>
        <time>2021-03-02T09:01:59Z</time>
      </trkpt>
      <trkpt lat="36.8312520" lon="-2.9136130">
        <ele>444.2</ele>
        <time>2021-03-02T09:02:00Z</time>
      </trkpt>
      <trkpt lat="36.8312170" lon="-2.9136310">
        <ele>444.0</ele>
        <time>2021-03-02T09:02:01Z</time>
      </trkpt>
      <trkpt lat="36.8311870" lon="-2.9136670">
        <ele>443.2</ele>
        <time>2021-03-02T09:02:02Z</time>
      </trkpt>
      <trkpt lat="36.8311670" lon="-2.9137180">
        <ele>442.8</ele>
        <time>2021-03-02T09:02:03Z</time>
      </trkpt>
      <trkpt lat="36.8311620" lon="-2.9137710">
        <ele>442.0</ele>
        <time>2021-03-02T09:02:04Z</time>
      </trkpt>
      <trkpt lat="36.8311770" lon="-2.9138130">
        <ele>441.4</ele>
        <time>2021-03-02T09:02:05Z</time>
      </trkpt>
      <trkpt lat="36.8312090" lon="-2.9138490">
        <ele>440.6</ele>
        <time>2021-03-02T09:02:06Z</time>
      </trkpt>
      <trkpt lat="36.8312490" lon="-2.9138740">
        <ele>439.6</ele>
        <time>2021-03-02T09:02:07Z</time>
      </trkpt>
      <trkpt lat="36.8312910" lon="-2.9138930">
        <ele>439.0</ele>
        <time>2021-03-02T09:02:08Z</time>
      </trkpt>
      <trkpt lat="36.8313290" lon="-2.9139200">
        <ele>438.2</ele>
        <time>2021-03-02T09:02:09Z</time>
      </trkpt>
      <trkpt lat="36.8313580" lon="-2.9139600">
        <ele>437.8</ele>
        <time>2021-03-02T09:02:10Z</time>
      </trkpt>
      <trkpt lat="36.8313800" lon="-2.9140130">
        <ele>437.0</ele>
        <time>2021-03-02T09:02:11Z</time>
      </trkpt>
      <trkpt lat="36.8313960" lon="-2.9140750">
        <ele>436.2</ele>
        <time>2021-03-02T09:02:12Z</time>
      </trkpt>
      <trkpt lat="36.8314130" lon="-2.9141480">
        <ele>435.6</ele>
        <time>2021-03-02T09:02:13Z</time>
      </trkpt>
      <trkpt lat="36.8314360" lon="-2.9142320">
        <ele>434.4</ele>
        <time>2021-03-02T09:02:14Z</time>
      </trkpt>
      <trkpt lat="36.8314660" lon="-2.9143240">
        <ele>433.6</ele>
        <time>2021-03-02T09:02:15Z</time>
      </trkpt>
      <trkpt lat="36.8315000" lon="-2.9144210">
        <ele>432.0</ele>
        <time>2021-03-02T09:02:16Z</time>
      </trkpt>
      <trkpt lat="36.8315350" lon="-2.9145230">
        <ele>431.4</ele>
        <time>2021-03-02T09:02:17Z</time>
      </trkpt>
      <trkpt lat="36.8315720" lon="-2.9146300">
        <ele>430.2</ele>
        <time>2021-03-02T09:02:18Z</time>
      </trkpt>
      <trkpt lat="36.8316110" lon="-2.9147390">
        <ele>428.4</ele>
        <time>2021-03-02T09:02:19Z</time>
      </trkpt>
      <trkpt lat="36.8316520" lon="-2.9148500">
        <ele>427.4</ele>
        <time>2021-03-02T09:02:20Z</time>
      </trkpt>
      <trkpt lat="36.8316990" lon="-2.9149590">
        <ele>426.0</ele>
        <time>2021-03-02T09:02:21Z</time>
      </trkpt>
      <trkpt lat="36.8317460" lon="-2.9150600">
        <ele>425.0</ele>
        <time>2021-03-02T09:02:22Z</time>
      </trkpt>
      <trkpt lat="36.8317870" lon="-2.9151490">
        <ele>422.8</ele>
        <time>2021-03-02T09:02:23Z</time>
      </trkpt>
      <trkpt lat="36.8318250" lon="-2.9152260">
        <ele>422.0</ele>
        <time>2021-03-02T09:02:24Z</time>
      </trkpt>
      <trkpt lat="36.8318620" lon="-2.9152900">
        <ele>420.8</ele>
        <time>2021-03-02T09:02:25Z</time>
      </trkpt>
      <trkpt lat="36.8319010" lon="-2.9153440">
        <ele>419.6</ele>
        <time>2021-03-02T09:02:26Z</time>
      </trkpt>
      <trkpt lat="36.8319390" lon="-2.9154020">
        <ele>419.0</ele>
        <time>2021-03-02T09:02:27Z</time>
      </trkpt>
      <trkpt lat="36.8319720" lon="-2.9154740">
        <ele>417.8</ele>
        <time>2021-03-02T09:02:28Z</time>
      </trkpt>
      <trkpt lat="36.8320050" lon="-2.9155530">
        <ele>417.2</ele>
        <time>2021-03-02T09:02:29Z</time>
      </trkpt>
      <trkpt lat="36.8320370" lon="-2.9156330">
        <ele>416.0</ele>
        <time>2021-03-02T09:02:30Z</time>
      </trkpt>
      <trkpt lat="36.8320680" lon="-2.9157130">
        <ele>414.8</ele>
        <time>2021-03-02T09:02:31Z</time>
      </trkpt>
      <trkpt lat="36.8321010" lon="-2.9157950">
        <ele>414.2</ele>
        <time>2021-03-02T09:02:32Z</time>
      </trkpt>
      <trkpt lat="36.8321420" lon="-2.9158810">
        <ele>412.8</ele>
        <time>2021-03-02T09:02:33Z</time>
      </trkpt>
      <trkpt lat="36.8321880" lon="-2.9159690">
        <ele>412.2</ele>
        <time>2021-03-02T09:02:34Z</time>
      </trkpt>
      <trkpt lat="36.8322360" lon="-2.9160620">
        <ele>410.6</ele>
        <time>2021-03-02T09:02:35Z</time>
      </trkpt>
      <trkpt lat="36.8322840" lon="-2.9161630">
        <ele>410.0</ele>
        <time>2021-03-02T09:02:36Z</time>
      </trkpt>
      <trkpt lat="36.8323280" lon="-2.9162710">
        <ele>408.8</ele>
        <time>2021-03-02T09:02:37Z</time>
      </trkpt>
      <trkpt lat="36.8323730" lon="-2.9163840">
        <ele>407.6</ele>
        <time>2021-03-02T09:02:38Z</time>
      </trkpt>
      <trkpt lat="36.8324230" lon="-2.9164960">
        <ele>406.8</ele>
        <time>2021-03-02T09:02:39Z</time>
      </trkpt>
      <trkpt lat="36.8324780" lon="-2.9166080">
        <ele>405.2</ele>
        <time>2021-03-02T09:02:40Z</time>
      </trkpt>
      <trkpt lat="36.8325350" lon="-2.9167180">
        <ele>404.6</ele>
        <time>2021-03-02T09:02:41Z</time>
      </trkpt>
      <trkpt lat="36.8325940" lon="-2.9168250">
        <ele>403.2</ele>
        <time>2021-03-02T09:02:42Z</time>
      </trkpt>
      <trkpt lat="36.8326560" lon="-2.9169270">
        <ele>402.4</ele>
        <time>2021-03-02T09:02:43Z</time>
      </trkpt>
      <trkpt lat="36.8327230" lon="-2.9170240">
        <ele>401.2</ele>
        <time>2021-03-02T09:02:44Z</time>
      </trkpt>
      <trkpt lat="36.8327940" lon="-2.9171120">
        <ele>400.0</ele>
        <time>2021-03-02T09:02:45Z</time>
      </trkpt>
      <trkpt lat="36.8328690" lon="-2.9171870">
        <ele>399.2</ele>
        <time>2021-03-02T09:02:46Z</time>
      </trkpt>
      <trkpt lat="36.8329490" lon="-2.9172510">
        <ele>398.2</ele>
        <time>2021-03-02T09:02:47Z</time>
      </trkpt>
      <trkpt lat="36.8330330" lon="-2.9173070">
        <ele>397.6</ele>
        <time>2021-03-02T09:02:48Z</time>
      </trkpt>
      <trkpt lat="36.8331200" lon="-2.9173600">
        <ele>396.4</ele>
        <time>2021-03-02T09:02:49Z</time>
      </trkpt>
      <trkpt lat="36.8332080" lon="-2.9174150">
        <ele>396.0</ele>
        <time>2021-03-02T09:02:50Z</time>
      </trkpt>
      <trkpt lat="36.8332850" lon="-2.9174780">
        <ele>395.4</ele>
        <time>2021-03-02T09:02:51Z</time>
      </trkpt>
      <trkpt lat="36.8333450" lon="-2.9175460">
        <ele>394.4</ele>
        <time>2021-03-02T09:02:52Z</time>
      </trkpt>
      <trkpt lat="36.8333960" lon="-2.9176150">
        <ele>393.6</ele>
        <time>2021-03-02T09:02:53Z</time>
      </trkpt>
      <trkpt lat="36.8334470" lon="-2.9176790">
        <ele>392.6</ele>
        <time>2021-03-02T09:02:54Z</time>
      </trkpt>
      <trkpt lat="36.8334970" lon="-2.9177420">
        <ele>392.2</ele>
        <time>2021-03-02T09:02:55Z</time>
      </trkpt>
      <trkpt lat="36.8335480" lon="-2.9178010">
        <ele>391.6</ele>
        <time>2021-03-02T09:02:56Z</time>
      </trkpt>
      <trkpt lat="36.8335980" lon="-2.9178540">
        <ele>391.2</ele>
        <time>2021-03-02T09:02:57Z</time>
      </trkpt>
      <trkpt lat="36.8336470" lon="-2.9179020">
        <ele>390.8</ele>
        <time>2021-03-02T09:02:58Z</time>
      </trkpt>
      <trkpt lat="36.8336910" lon="-2.9179460">
        <ele>390.2</ele>
        <time>2021-03-02T09:02:59Z</time>
      </trkpt>
      <trkpt lat="36.8337280" lon="-2.9179810">
        <ele>389.8</ele>
        <time>2021-03-02T09:03:00Z</time>
      </trkpt>
      <trkpt lat="36.8337630" lon="-2.9180040">
        <ele>389.2</ele>
        <time>2021-03-02T09:03:01Z</time>
      </trkpt>
      <trkpt lat="36.8338010" lon="-2.9180070">
        <ele>389.0</ele>
        <time>2021-03-02T09:03:02Z</time>
      </trkpt>
      <trkpt lat="36.8338380" lon="-2.9179900">
        <ele>388.6</ele>
        <time>2021-03-02T09:03:03Z</time>
      </trkpt>
      <trkpt lat="36.8338670" lon="-2.9179620">
        <ele>388.6</ele>
        <time>2021-03-02T09:03:04Z</time>
      </trkpt>
      <trkpt lat="36.8338900" lon="-2.9179320">
        <ele>388.6</ele>
        <time>2021-03-02T09:03:05Z</time>
      </trkpt>
      <trkpt lat="36.8339100" lon="-2.9179000">
        <ele>388.6</ele>
        <time>2021-03-02T09:03:06Z</time>
      </trkpt>
      <trkpt lat="36.8339280" lon="-2.9178660">
        <ele>388.6</ele>
        <time>2021-03-02T09:03:07Z</time>
      </trkpt>
      <trkpt lat="36.8339430" lon="-2.9178330">
        <ele>388.8</ele>
        <time>2021-03-02T09:03:08Z</time>
      </trkpt>
      <trkpt lat="36.8339590" lon="-2.9178010">
        <ele>388.8</ele>
        <time>2021-03-02T09:03:09Z</time>
      </trkpt>
      <trkpt lat="36.8339720" lon="-2.9177690">
        <ele>388.8</ele>
        <time>2021-03-02T09:03:10Z</time>
      </trkpt>
      <trkpt lat="36.8339860" lon="-2.9177330">
        <ele>389.0</ele>
        <time>2021-03-02T09:03:11Z</time>
      </trkpt>
      <trkpt lat="36.8340050" lon="-2.9176910">
        <ele>389.2</ele>
        <time>2021-03-02T09:03:12Z</time>
      </trkpt>
      <trkpt lat="36.8340230" lon="-2.9176480">
        <ele>389.2</ele>
        <time>2021-03-02T09:03:13Z</time>
      </trkpt>
      <trkpt lat="36.8340400" lon="-2.9176050">
        <ele>389.4</ele>
        <time>2021-03-02T09:03:14Z</time>
      </trkpt>
      <trkpt lat="36.8340590" lon="-2.9175630">
        <ele>389.6</ele>
        <time>2021-03-02T09:03:15Z</time>
      </trkpt>
      <trkpt lat="36.8340780" lon="-2.9175220">
        <ele>389.6</ele>
        <time>2021-03-02T09:03:16Z</time>
      </trkpt>
      <trkpt lat="36.8340980" lon="-2.9174800">
        <ele>389.8</ele>
        <time>2021-03-02T09:03:17Z</time>
      </trkpt>
      <trkpt lat="36.8341190" lon="-2.9174380">
        <ele>390.0</ele>
        <time>2021-03-02T09:03:18Z</time>
      </trkpt>
      <trkpt lat="36.8341390" lon="-2.9173970">
        <ele>390.2</ele>
        <time>2021-03-02T09:03:19Z</time>
      </trkpt>
      <trkpt lat="36.8341590" lon="-2.9173560">
        <ele>390.6</ele>
        <time>2021-03-02T09:03:20Z</time>
      </trkpt>
      <trkpt lat="36.8341790" lon="-2.9173150">
        <ele>390.8</ele>
        <time>2021-03-02T09:03:21Z</time>
      </trkpt>
      <trkpt lat="36.8341990" lon="-2.9172730">
        <ele>391.0</ele>
        <time>2021-03-02T09:03:22Z</time>
      </trkpt>
      <trkpt lat="36.8342200" lon="-2.9172330">
        <ele>391.2</ele>
        <time>2021-03-02T09:03:23Z</time>
      </trkpt>
      <trkpt lat="36.8342400" lon="-2.9171920">
        <ele>391.4</ele>
        <time>2021-03-02T09:03:24Z</time>
      </trkpt>
      <trkpt lat="36.8342610" lon="-2.9171500">
        <ele>391.6</ele>
        <time>2021-03-02T09:03:25Z</time>
      </trkpt>
      <trkpt lat="36.8342830" lon="-2.9171090">
        <ele>391.8</ele>
        <time>2021-03-02T09:03:26Z</time>
      </trkpt>
      <trkpt lat="36.8343030" lon="-2.9170690">
        <ele>392.0</ele>
        <time>2021-03-02T09:03:27Z</time>
      </trkpt>
      <trkpt lat="36.8343230" lon="-2.9170280">
        <ele>392.0</ele>
        <time>2021-03-02T09:03:28Z</time>
      </trkpt>
      <trkpt lat="36.8343430" lon="-2.9169870">
        <ele>392.4</ele>
        <time>2021-03-02T09:03:29Z</time>
      </trkpt>
      <trkpt lat="36.8343620" lon="-2.9169470">
        <ele>392.6</ele>
        <time>2021-03-02T09:03:30Z</time>
      </trkpt>
      <trkpt lat="36.8343820" lon="-2.9169080">
        <ele>392.8</ele>
        <time>2021-03-02T09:03:31Z</time>
      </trkpt>
      <trkpt lat="36.8344020" lon="-2.9168690">
        <ele>393.2</ele>
        <time>2021-03-02T09:03:32Z</time>
      </trkpt>
      <trkpt lat="36.8344240" lon="-2.9168320">
        <ele>393.4</ele>
        <time>2021-03-02T09:03:33Z</time>
      </trkpt>
      <trkpt lat="36.8344450" lon="-2.9167950">
        <ele>393.6</ele>
        <time>2021-03-02T09:03:34Z</time>
      </trkpt>
      <trkpt lat="36.8344630" lon="-2.9167570">
        <ele>394.0</ele>
        <time>2021-03-02T09:03:35Z</time>
      </trkpt>
      <trkpt lat="36.8344830" lon="-2.9167180">
        <ele>394.0</ele>
        <time>2021-03-02T09:03:36Z</time>
      </trkpt>
      <trkpt lat="36.8345040" lon="-2.9166810">
        <ele>394.2</ele>
        <time>2021-03-02T09:03:37Z</time>
      </trkpt>
      <trkpt lat="36.8345260" lon="-2.9166460">
        <ele>394.2</ele>
        <time>2021-03-02T09:03:38Z</time>
      </trkpt>
      <trkpt lat="36.8345480" lon="-2.9166100">
        <ele>394.4</ele>
        <time>2021-03-02T09:03:39Z</time>
      </trkpt>
      <trkpt lat="36.8345700" lon="-2.9165740">
        <ele>394.4</ele>
        <time>2021-03-02T09:03:40Z</time>
      </trkpt>
      <trkpt lat="36.8345890" lon="-2.9165360">
        <ele>394.8</ele>
        <time>2021-03-02T09:03:41Z</time>
      </trkpt>
      <trkpt lat="36.8346090" lon="-2.9164980">
        <ele>395.0</ele>
        <time>2021-03-02T09:03:42Z</time>
      </trkpt>
      <trkpt lat="36.8346290" lon="-2.9164590">
        <ele>395.0</ele>
        <time>2021-03-02T09:03:43Z</time>
      </trkpt>
      <trkpt lat="36.8346500" lon="-2.9164220">
        <ele>395.2</ele>
        <time>2021-03-02T09:03:44Z</time>
      </trkpt>
      <trkpt lat="36.8346710" lon="-2.9163840">
        <ele>395.4</ele>
        <time>2021-03-02T09:03:45Z</time>
      </trkpt>
      <trkpt lat="36.8346910" lon="-2.9163470">
        <ele>395.6</ele>
        <time>2021-03-02T09:03:46Z</time>
      </trkpt>
      <trkpt lat="36.8347140" lon="-2.9163100">
        <ele>395.8</ele>
        <time>2021-03-02T09:03:47Z</time>
      </trkpt>
      <trkpt lat="36.8347360" lon="-2.9162730">
        <ele>396.2</ele>
        <time>2021-03-02T09:03:48Z</time>
      </trkpt>
      <trkpt lat="36.8347590" lon="-2.9162350">
        <ele>396.4</ele>
        <time>2021-03-02T09:03:49Z</time>
      </trkpt>
      <trkpt lat="36.8347830" lon="-2.9161970">
        <ele>396.4</ele>
        <time>2021-03-02T09:03:50Z</time>
      </trkpt>
      <trkpt lat="36.8348060" lon="-2.9161590">
        <ele>396.8</ele>
        <time>2021-03-02T09:03:51Z</time>
      </trkpt>
      <trkpt lat="36.8348280" lon="-2.9161210">
        <ele>396.8</ele>
        <time>2021-03-02T09:03:52Z</time>
      </trkpt>
      <trkpt lat="36.8348510" lon="-2.9160830">
        <ele>397.0</ele>
        <time>2021-03-02T09:03:53Z</time>
      </trkpt>
      <trkpt lat="36.8348730" lon="-2.9160440">
        <ele>397.4</ele>
        <time>2021-03-02T09:03:54Z</time>
      </trkpt>
      <trkpt lat="36.8348960" lon="-2.9160070">
        <ele>397.4</ele>
        <time>2021-03-02T09:03:55Z</time>
      </trkpt>
      <trkpt lat="36.8349190" lon="-2.9159710">
        <ele>397.6</ele>
        <time>2021-03-02T09:03:56Z</time>
      </trkpt>
      <trkpt lat="36.8349420" lon="-2.9159360">
        <ele>397.8</ele>
        <time>2021-03-02T09:03:57Z</time>
      </trkpt>
      <trkpt lat="36.8349640" lon="-2.9159000">
        <ele>398.0</ele>
        <time>2021-03-02T09:03:58Z</time>
      </trkpt>
      <trkpt lat="36.8349860" lon="-2.9158670">
        <ele>398.4</ele>
        <time>2021-03-02T09:03:59Z</time>
      </trkpt>
      <trkpt lat="36.8350080" lon="-2.9158350">
        <ele>398.6</ele>
        <time>2021-03-02T09:04:00Z</time>
      </trkpt>
      <trkpt lat="36.8350280" lon="-2.9158010">
        <ele>399.0</ele>
        <time>2021-03-02T09:04:01Z</time>
      </trkpt>
      <trkpt lat="36.8350480" lon="-2.9157680">
        <ele>399.0</ele>
        <time>2021-03-02T09:04:02Z</time>
      </trkpt>
      <trkpt lat="36.8350670" lon="-2.9157360">
        <ele>399.4</ele>
        <time>2021-03-02T09:04:03Z</time>
      </trkpt>
      <trkpt lat="36.8350860" lon="-2.9157030">
        <ele>399.6</ele>
        <time>2021-03-02T09:04:04Z</time>
      </trkpt>
      <trkpt lat="36.8351050" lon="-2.9156700">
        <ele>399.8</ele>
        <time>2021-03-02T09:04:05Z</time>
      </trkpt>
      <trkpt lat="36.8351230" lon="-2.9156390">
        <ele>399.8</ele>
        <time>2021-03-02T09:04:06Z</time>
      </trkpt>
      <trkpt lat="36.8351420" lon="-2.9156070">
        <ele>400.0</ele>
        <time>2021-03-02T09:04:07Z</time>
      </trkpt>
      <trkpt lat="36.8351620" lon="-2.9155740">
        <ele>400.4</ele>
        <time>2021-03-02T09:04:08Z</time>
      </trkpt>
      <trkpt lat="36.8351820" lon="-2.9155410">
        <ele>400.4</ele>
        <time>2021-03-02T09:04:09Z</time>
      </trkpt>
      <trkpt lat="36.8352010" lon="-2.9155090">
        <ele>400.8</ele>
        <time>2021-03-02T09:04:10Z</time>
      </trkpt>
      <trkpt lat="36.8352210" lon="-2.9154780">
        <ele>400.8</ele>
        <time>2021-03-02T09:04:11Z</time>
      </trkpt>
      <trkpt lat="36.8352420" lon="-2.9154470">
        <ele>401.0</ele>
        <time>2021-03-02T09:04:12Z</time>
      </trkpt>
      <trkpt lat="36.8352620" lon="-2.9154170">
        <ele>401.2</ele>
        <time>2021-03-02T09:04:13Z</time>
      </trkpt>
      <trkpt lat="36.8352820" lon="-2.9153860">
        <ele>401.2</ele>
        <time>2021-03-02T09:04:14Z</time>
      </trkpt>
      <trkpt lat="36.8353010" lon="-2.9153550">
        <ele>401.4</ele>
        <time>2021-03-02T09:04:15Z</time>
      </trkpt>
      <trkpt lat="36.8353210" lon="-2.9153260">
        <ele>401.6</ele>
        <time>2021-03-02T09:04:16Z</time>
      </trkpt>
      <trkpt lat="36.8353390" lon="-2.9152950">
        <ele>402.0</ele>
        <time>2021-03-02T09:04:17Z</time>
      </trkpt>
      <trkpt lat="36.8353580" lon="-2.9152640">
        <ele>402.2</ele>
        <time>2021-03-02T09:04:18Z</time>
      </trkpt>
      <trkpt lat="36.8353770" lon="-2.9152320">
        <ele>402.4</ele>
        <time>2021-03-02T09:04:19Z</time>
      </trkpt>
      <trkpt lat="36.8353960" lon="-2.9152000">
        <ele>402.6</ele>
        <time>2021-03-02T09:04:20Z</time>
      </trkpt>
      <trkpt lat="36.8354160" lon="-2.9151690">
        <ele>402.8</ele>
        <time>2021-03-02T09:04:21Z</time>
      </trkpt>
      <trkpt lat="36.8354360" lon="-2.9151380">
        <ele>403.0</ele>
        <time>2021-03-02T09:04:22Z</time>
      </trkpt>
      <trkpt lat="36.8354550" lon="-2.9151070">
        <ele>403.2</ele>
        <time>2021-03-02T09:04:23Z</time>
      </trkpt>
      <trkpt lat="36.8354730" lon="-2.9150750">
        <ele>403.4</ele>
        <time>2021-03-02T09:04:24Z</time>
      </trkpt>
      <trkpt lat="36.8354900" lon="-2.9150450">
        <ele>403.6</ele>
        <time>2021-03-02T09:04:25Z</time>
      </trkpt>
      <trkpt lat="36.8355070" lon="-2.9150150">
        <ele>403.8</ele>
        <time>2021-03-02T09:04:26Z</time>
      </trkpt>
      <trkpt lat="36.8355250" lon="-2.9149850">
        <ele>404.0</ele>
        <time>2021-03-02T09:04:27Z</time>
      </trkpt>
      <trkpt lat="36.8355420" lon="-2.9149540">
        <ele>404.2</ele>
        <time>2021-03-02T09:04:28Z</time>
      </trkpt>
      <trkpt lat="36.8355590" lon="-2.9149230">
        <ele>404.4</ele>
        <time>2021-03-02T09:04:29Z</time>
      </trkpt>
      <trkpt lat="36.8355750" lon="-2.9148910">
        <ele>404.4</ele>
        <time>2021-03-02T09:04:30Z</time>
      </trkpt>
      <trkpt lat="36.8355910" lon="-2.9148590">
        <ele>404.6</ele>
        <time>2021-03-02T09:04:31Z</time>
      </trkpt>
      <trkpt lat="36.8356080" lon="-2.9148280">
        <ele>404.8</ele>
        <time>2021-03-02T09:04:32Z</time>
      </trkpt>
      <trkpt lat="36.8356240" lon="-2.9147980">
        <ele>405.0</ele>
        <time>2021-03-02T09:04:33Z</time>
      </trkpt>
      <trkpt lat="36.8356390" lon="-2.9147670">
        <ele>405.4</ele>
        <time>2021-03-02T09:04:34Z</time>
      </trkpt>
      <trkpt lat="36.8356530" lon="-2.9147350">
        <ele>405.4</ele>
        <time>2021-03-02T09:04:35Z</time>
      </trkpt>
      <trkpt lat="36.8356680" lon="-2.9147040">
        <ele>405.8</ele>
        <time>2021-03-02T09:04:36Z</time>
      </trkpt>
      <trkpt lat="36.8356830" lon="-2.9146730">
        <ele>405.8</ele>
        <time>2021-03-02T09:04:37Z</time>
      </trkpt>
      <trkpt lat="36.8357000" lon="-2.9146420">
        <ele>406.0</ele>
        <time>2021-03-02T09:04:38Z</time>
      </trkpt>
      <trkpt lat="36.8357150" lon="-2.9146110">
        <ele>406.4</ele>
        <time>2021-03-02T09:04:39Z</time>
      </trkpt>
      <trkpt lat="36.8357290" lon="-2.9145770">
        <ele>406.6</ele>
        <time>2021-03-02T09:04:40Z</time>
      </trkpt>
      <trkpt lat="36.8357440" lon="-2.9145430">
        <ele>406.8</ele>
        <time>2021-03-02T09:04:41Z</time>
      </trkpt>
      <trkpt lat="36.8357570" lon="-2.9145080">
        <ele>406.8</ele>
        <time>2021-03-02T09:04:42Z</time>
      </trkpt>
      <trkpt lat="36.8357720" lon="-2.9144720">
        <ele>407.0</ele>
        <time>2021-03-02T09:04:43Z</time>
      </trkpt>
      <trkpt lat="36.8357850" lon="-2.9144370">
        <ele>407.2</ele>
        <time>2021-03-02T09:04:44Z</time>
      </trkpt>
      <trkpt lat="36.8357990" lon="-2.9144020">
        <ele>407.4</ele>
        <time>2021-03-02T09:04:45Z</time>
      </trkpt>
      <trkpt lat="36.8358130" lon="-2.9143670">
        <ele>407.8</ele>
        <time>2021-03-02T09:04:46Z</time>
      </trkpt>
      <trkpt lat="36.8358270" lon="-2.9143330">
        <ele>407.8</ele>
        <time>2021-03-02T09:04:47Z</time>
      </trkpt>
      <trkpt lat="36.8358410" lon="-2.9142970">
        <ele>408.0</ele>
        <time>2021-03-02T09:04:48Z</time>
      </trkpt>
      <trkpt lat="36.8358540" lon="-2.9142610">
        <ele>408.2</ele>
        <time>2021-03-02T09:04:49Z</time>
      </trkpt>
      <trkpt lat="36.8358680" lon="-2.9142240">
        <ele>408.6</ele>
        <time>2021-03-02T09:04:50Z</time>
      </trkpt>
      <trkpt lat="36.8358800" lon="-2.9141860">
        <ele>408.8</ele>
        <time>2021-03-02T09:04:51Z</time>
      </trkpt>
      <trkpt lat="36.8358920" lon="-2.9141480">
        <ele>409.0</ele>
        <time>2021-03-02T09:04:52Z</time>
      </trkpt>
      <trkpt lat="36.8359030" lon="-2.9141100">
        <ele>409.2</ele>
        <time>2021-03-02T09:04:53Z</time>
      </trkpt>
      <trkpt lat="36.8359140" lon="-2.9140720">
        <ele>409.2</ele>
        <time>2021-03-02T09:04:54Z</time>
      </trkpt>
      <trkpt lat="36.8359260" lon="-2.9140340">
        <ele>409.4</ele>
        <time>2021-03-02T09:04:55Z</time>
      </trkpt>
      <trkpt lat="36.8359390" lon="-2.9139970">
        <ele>409.4</ele>
        <time>2021-03-02T09:04:56Z</time>
      </trkpt>
      <trkpt lat="36.8359520" lon="-2.9139590">
        <ele>409.8</ele>
        <time>2021-03-02T09:04:57Z</time>
      </trkpt>
      <trkpt lat="36.8359630" lon="-2.9139220">
        <ele>410.0</ele>
        <time>2021-03-02T09:04:58Z</time>
      </trkpt>
      <trkpt lat="36.8359750" lon="-2.9138860">
        <ele>410.2</ele>
        <time>2021-03-02T09:04:59Z</time>
      </trkpt>
      <trkpt lat="36.8359870" lon="-2.9138490">
        <ele>410.6</ele>
        <time>2021-03-02T09:05:00Z</time>
      </trkpt>
      <trkpt lat="36.8359980" lon="-2.9138130">
        <ele>410.8</ele>
        <time>2021-03-02T09:05:01Z</time>
      </trkpt>
      <trkpt lat="36.8360100" lon="-2.9137760">
        <ele>411.2</ele>
        <time>2021-03-02T09:05:02Z</time>
      </trkpt>
      <trkpt lat="36.8360210" lon="-2.9137390">
        <ele>411.4</ele>
        <time>2021-03-02T09:05:03Z</time>
      </trkpt>
      <trkpt lat="36.8360340" lon="-2.9137030">
        <ele>411.6</ele>
        <time>2021-03-02T09:05:04Z</time>
      </trkpt>
      <trkpt lat="36.8360480" lon="-2.9136660">
        <ele>412.0</ele>
        <time>2021-03-02T09:05:05Z</time>
      </trkpt>
      <trkpt lat="36.8360600" lon="-2.9136280">
        <ele>412.0</ele>
        <time>2021-03-02T09:05:06Z</time>
      </trkpt>
      <trkpt lat="36.8360700" lon="-2.9135900">
        <ele>412.4</ele>
        <time>2021-03-02T09:05:07Z</time>
      </trkpt>
      <trkpt lat="36.8360800" lon="-2.9135490">
        <ele>412.6</ele>
        <time>2021-03-02T09:05:08Z</time>
      </trkpt>
      <trkpt lat="36.8360910" lon="-2.9135090">
        <ele>412.8</ele>
        <time>2021-03-02T09:05:09Z</time>
      </trkpt>
      <trkpt lat="36.8361010" lon="-2.9134700">
        <ele>413.2</ele>
        <time>2021-03-02T09:05:10Z</time>
      </trkpt>
      <trkpt lat="36.8361130" lon="-2.9134310">
        <ele>413.2</ele>
        <time>2021-03-02T09:05:11Z</time>
      </trkpt>
      <trkpt lat="36.8361250" lon="-2.9133930">
        <ele>413.6</ele>
        <time>2021-03-02T09:05:12Z</time>
      </trkpt>
      <trkpt lat="36.8361360" lon="-2.9133540">
        <ele>413.8</ele>
        <time>2021-03-02T09:05:13Z</time>
      </trkpt>
      <trkpt lat="36.8361480" lon="-2.9133150">
        <ele>414.2</ele>
        <time>2021-03-02T09:05:14Z</time>
      </trkpt>
      <trkpt lat="36.8361600" lon="-2.9132770">
        <ele>414.2</ele>
        <time>2021-03-02T09:05:15Z</time>
      </trkpt>
      <trkpt lat="36.8361720" lon="-2.9132400">
        <ele>414.4</ele>
        <time>2021-03-02T09:05:16Z</time>
      </trkpt>
      <trkpt lat="36.8361840" lon="-2.9132040">
        <ele>414.6</ele>
        <time>2021-03-02T09:05:17Z</time>
      </trkpt>
      <trkpt lat="36.8361960" lon="-2.9131670">
        <ele>414.8</ele>
        <time>2021-03-02T09:05:18Z</time>
      </trkpt>
      <trkpt lat="36.8362080" lon="-2.9131310">
        <ele>415.0</ele>
        <time>2021-03-02T09:05:19Z</time>
      </trkpt>
      <trkpt lat="36.8362200" lon="-2.9130960">
        <ele>415.2</ele>
        <time>2021-03-02T09:05:20Z</time>
      </trkpt>
      <trkpt lat="36.8362300" lon="-2.9130610">
        <ele>415.4</ele>
        <time>2021-03-02T09:05:21Z</time>
      </trkpt>
      <trkpt lat="36.8362400" lon="-2.9130260">
        <ele>415.6</ele>
        <time>2021-03-02T09:05:22Z</time>
      </trkpt>
      <trkpt lat="36.8362500" lon="-2.9129900">
        <ele>415.8</ele>
        <time>2021-03-02T09:05:23Z</time>
      </trkpt>
      <trkpt lat="36.8362610" lon="-2.9129550">
        <ele>416.2</ele>
        <time>2021-03-02T09:05:24Z</time>
      </trkpt>
      <trkpt lat="36.8362710" lon="-2.9129220">
        <ele>416.2</ele>
        <time>2021-03-02T09:05:25Z</time>
      </trkpt>
      <trkpt lat="36.8362820" lon="-2.9128880">
        <ele>416.6</ele>
        <time>2021-03-02T09:05:26Z</time>
      </trkpt>
      <trkpt lat="36.8362930" lon="-2.9128540">
        <ele>416.8</ele>
        <time>2021-03-02T09:05:27Z</time>
      </trkpt>
      <trkpt lat="36.8363030" lon="-2.9128210">
        <ele>417.2</ele>
        <time>2021-03-02T09:05:28Z</time>
      </trkpt>
      <trkpt lat="36.8363130" lon="-2.9127880">
        <ele>417.4</ele>
        <time>2021-03-02T09:05:29Z</time>
      </trkpt>
      <trkpt lat="36.8363230" lon="-2.9127540">
        <ele>417.4</ele>
        <time>2021-03-02T09:05:30Z</time>
      </trkpt>
      <trkpt lat="36.8363340" lon="-2.9127210">
        <ele>417.8</ele>
        <time>2021-03-02T09:05:31Z</time>
      </trkpt>
      <trkpt lat="36.8363440" lon="-2.9126870">
        <ele>417.8</ele>
        <time>2021-03-02T09:05:32Z</time>
      </trkpt>
      <trkpt lat="36.8363550" lon="-2.9126540">
        <ele>418.0</ele>
        <time>2021-03-02T09:05:33Z</time>
      </trkpt>
      <trkpt lat="36.8363650" lon="-2.9126220">
        <ele>418.2</ele>
        <time>2021-03-02T09:05:34Z</time>
      </trkpt>
      <trkpt lat="36.8363750" lon="-2.9125890">
        <ele>418.6</ele>
        <time>2021-03-02T09:05:35Z</time>
      </trkpt>
      <trkpt lat="36.8363850" lon="-2.9125560">
        <ele>419.0</ele>
        <time>2021-03-02T09:05:36Z</time>
      </trkpt>
      <trkpt lat="36.8363940" lon="-2.9125220">
        <ele>419.0</ele>
        <time>2021-03-02T09:05:37Z</time>
      </trkpt>
      <trkpt lat="36.8364030" lon="-2.9124900">
        <ele>419.2</ele>
        <time>2021-03-02T09:05:38Z</time>
      </trkpt>
      <trkpt lat="36.8364130" lon="-2.9124570">
        <ele>419.2</ele>
        <time>2021-03-02T09:05:39Z</time>
      </trkpt>
      <trkpt lat="36.8364230" lon="-2.9124230">
        <ele>419.4</ele>
        <time>2021-03-02T09:05:40Z</time>
      </trkpt>
      <trkpt lat="36.8364330" lon="-2.9123900">
        <ele>419.6</ele>
        <time>2021-03-02T09:05:41Z</time>
      </trkpt>
      <trkpt lat="36.8364430" lon="-2.9123570">
        <ele>419.8</ele>
        <time>2021-03-02T09:05:42Z</time>
      </trkpt>
      <trkpt lat="36.8364540" lon="-2.9123240">
        <ele>420.0</ele>
        <time>2021-03-02T09:05:43Z</time>
      </trkpt>
      <trkpt lat="36.8364650" lon="-2.9122900">
        <ele>420.2</ele>
        <time>2021-03-02T09:05:44Z</time>
      </trkpt>
      <trkpt lat="36.8364760" lon="-2.9122570">
        <ele>420.4</ele>
        <time>2021-03-02T09:05:45Z</time>
      </trkpt>
      <trkpt lat="36.8364860" lon="-2.9122230">
        <ele>420.4</ele>
        <time>2021-03-02T09:05:46Z</time>
      </trkpt>
      <trkpt lat="36.8364950" lon="-2.9121900">
        <ele>420.6</ele>
        <time>2021-03-02T09:05:47Z</time>
      </trkpt>
      <trkpt lat="36.8365070" lon="-2.9121560">
        <ele>420.8</ele>
        <time>2021-03-02T09:05:48Z</time>
      </trkpt>
      <trkpt lat="36.8365220" lon="-2.9121270">
        <ele>421.0</ele>
        <time>2021-03-02T09:05:49Z</time>
      </trkpt>
      <trkpt lat="36.8365380" lon="-2.9121000">
        <ele>421.2</ele>
        <time>2021-03-02T09:05:50Z</time>
      </trkpt>
      <trkpt lat="36.8365540" lon="-2.9120720">
        <ele>421.4</ele>
        <time>2021-03-02T09:05:51Z</time>
      </trkpt>
      <trkpt lat="36.8365710" lon="-2.9120430">
        <ele>421.6</ele>
        <time>2021-03-02T09:05:52Z</time>
      </trkpt>
      <trkpt lat="36.8365900" lon="-2.9120160">
        <ele>421.6</ele>
        <time>2021-03-02T09:05:53Z</time>
      </trkpt>
      <trkpt lat="36.8366100" lon="-2.9119930">
        <ele>422.0</ele>
        <time>2021-03-02T09:05:54Z</time>
      </trkpt>
      <trkpt lat="36.8366310" lon="-2.9119700">
        <ele>422.2</ele>
        <time>2021-03-02T09:05:55Z</time>
      </trkpt>
      <trkpt lat="36.8366490" lon="-2.9119450">
        <ele>422.2</ele>
        <time>2021-03-02T09:05:56Z</time>
      </trkpt>
      <trkpt lat="36.8366650" lon="-2.9119200">
        <ele>422.4</ele>
        <time>2021-03-02T09:05:57Z</time>
      </trkpt>
      <trkpt lat="36.8366800" lon="-2.9119000">
        <ele>422.6</ele>
        <time>2021-03-02T09:05:58Z</time>
      </trkpt>
      <trkpt lat="36.8367000" lon="-2.9118870">
        <ele>422.6</ele>
        <time>2021-03-02T09:05:59Z</time>
      </trkpt>
      <trkpt lat="36.8367190" lon="-2.9118850">
        <ele>422.8</ele>
        <time>2021-03-02T09:06:00Z</time>
      </trkpt>
      <trkpt lat="36.8367360" lon="-2.9118910">
        <ele>423.0</ele>
        <time>2021-03-02T09:06:01Z</time>
      </trkpt>
      <trkpt lat="36.8367430" lon="-2.9118980">
        <ele>423.0</ele>
        <time>2021-03-02T09:06:02Z</time>
      </trkpt>
      <trkpt lat="36.8367290" lon="-2.9119500">
        <ele>414.7</ele>
        <time>2021-03-01T09:59:44Z</time>
      </trkpt>
      <trkpt lat="36.8367570" lon="-2.9119860">
        <ele>414.5</ele>
        <time>2021-03-01T09:59:45Z</time>
      </trkpt>
      <trkpt lat="36.8367860" lon="-2.9120290">
        <ele>414.3</ele>
        <time>2021-03-01T09:59:46Z</time>
      </trkpt>
      <trkpt lat="36.8368170" lon="-2.9120770">
        <ele>414.1</ele>
        <time>2021-03-01T09:59:47Z</time>
      </trkpt>
      <trkpt lat="36.8368450" lon="-2.9121270">
        <ele>413.8</ele>
        <time>2021-03-01T09:59:48Z</time>
      </trkpt>
      <trkpt lat="36.8368720" lon="-2.9121820">
        <ele>413.6</ele>
        <time>2021-03-01T09:59:49Z</time>
      </trkpt>
      <trkpt lat="36.8369020" lon="-2.9122430">
        <ele>413.3</ele>
        <time>2021-03-01T09:59:50Z</time>
      </trkpt>
      <trkpt lat="36.8369320" lon="-2.9123120">
        <ele>412.9</ele>
        <time>2021-03-01T09:59:51Z</time>
      </trkpt>
      <trkpt lat="36.8369620" lon="-2.9123880">
        <ele>412.6</ele>
        <time>2021-03-01T09:59:52Z</time>
      </trkpt>
      <trkpt lat="36.8369910" lon="-2.9124720">
        <ele>412.2</ele>
        <time>2021-03-01T09:59:53Z</time>
      </trkpt>
      <trkpt lat="36.8370180" lon="-2.9125610">
        <ele>411.8</ele>
        <time>2021-03-01T09:59:54Z</time>
      </trkpt>
      <trkpt lat="36.8370460" lon="-2.9126560">
        <ele>411.4</ele>
        <time>2021-03-01T09:59:55Z</time>
      </trkpt>
      <trkpt lat="36.8370670" lon="-2.9127570">
        <ele>411.0</ele>
        <time>2021-03-01T09:59:56Z</time>
      </trkpt>
      <trkpt lat="36.8370750" lon="-2.9128630">
        <ele>410.6</ele>
        <time>2021-03-01T09:59:57Z</time>
      </trkpt>
      <trkpt lat="36.8370710" lon="-2.9129720">
        <ele>410.2</ele>
        <time>2021-03-01T09:59:58Z</time>
      </trkpt>
      <trkpt lat="36.8370520" lon="-2.9130810">
        <ele>409.7</ele>
        <time>2021-03-01T09:59:59Z</time>
      </trkpt>
      <trkpt lat="36.8370200" lon="-2.9131870">
        <ele>409.3</ele>
        <time>2021-03-01T10:00:00Z</time>
      </trkpt>
      <trkpt lat="36.8369760" lon="-2.9132880">
        <ele>409.0</ele>
        <time>2021-03-01T10:00:01Z</time>
      </trkpt>
      <trkpt lat="36.8369220" lon="-2.9133810">
        <ele>408.7</ele>
        <time>2021-03-01T10:00:02Z</time>
      </trkpt>
      <trkpt lat="36.8368610" lon="-2.9134660">
        <ele>408.6</ele>
        <time>2021-03-01T10:00:03Z</time>
      </trkpt>
      <trkpt lat="36.8367960" lon="-2.9135420">
        <ele>408.4</ele>
        <time>2021-03-01T10:00:04Z</time>
      </trkpt>
      <trkpt lat="36.8367360" lon="-2.9136070">
        <ele>408.3</ele>
        <time>2021-03-01T10:00:05Z</time>
      </trkpt>
      <trkpt lat="36.8366820" lon="-2.9136580">
        <ele>408.3</ele>
        <time>2021-03-01T10:00:06Z</time>
      </trkpt>
      <trkpt lat="36.8366380" lon="-2.9136990">
        <ele>408.2</ele>
        <time>2021-03-01T10:00:07Z</time>
      </trkpt>
      <trkpt lat="36.8366060" lon="-2.9137310">
        <ele>408.1</ele>
        <time>2021-03-01T10:00:08Z</time>
      </trkpt>
      <trkpt lat="36.8365870" lon="-2.9137620">
        <ele>408.1</ele>
        <time>2021-03-01T10:00:09Z</time>
      </trkpt>
      <trkpt lat="36.8365810" lon="-2.9137900">
        <ele>408.0</ele>
        <time>2021-03-01T10:00:10Z</time>
      </trkpt>
      <trkpt lat="36.8365890" lon="-2.9138100">
        <ele>407.3</ele>
        <time>2021-03-01T10:00:11Z</time>
      </trkpt>
      <trkpt lat="36.8366100" lon="-2.9138240">
        <ele>407.0</ele>
        <time>2021-03-01T10:00:12Z</time>
      </trkpt>
      <trkpt lat="36.8366450" lon="-2.9138270">
        <ele>406.7</ele>
        <time>2021-03-01T10:00:13Z</time>
      </trkpt>
      <trkpt lat="36.8366910" lon="-2.9138160">
        <ele>406.3</ele>
        <time>2021-03-01T10:00:14Z</time>
      </trkpt>
      <trkpt lat="36.8367440" lon="-2.9137980">
        <ele>406.0</ele>
        <time>2021-03-01T10:00:15Z</time>
      </trkpt>
      <trkpt lat="36.8367980" lon="-2.9137750">
        <ele>405.8</ele>
        <time>2021-03-01T10:00:16Z</time>
      </trkpt>
      <trkpt lat="36.8368540" lon="-2.9137500">
        <ele>405.7</ele>
        <time>2021-03-01T10:00:17Z</time>
      </trkpt>
      <trkpt lat="36.8369080" lon="-2.9137240">
        <ele>405.6</ele>
        <time>2021-03-01T10:00:18Z</time>
      </trkpt>
      <trkpt lat="36.8369610" lon="-2.9137020">
        <ele>405.5</ele>
        <time>2021-03-01T10:00:19Z</time>
      </trkpt>
      <trkpt lat="36.8370150" lon="-2.9136900">
        <ele>405.4</ele>
        <time>2021-03-01T10:00:20Z</time>
      </trkpt>
      <trkpt lat="36.8370680" lon="-2.9136880">
        <ele>405.2</ele>
        <time>2021-03-01T10:00:21Z</time>
      </trkpt>
      <trkpt lat="36.8371150" lon="-2.9136960">
        <ele>404.9</ele>
        <time>2021-03-01T10:00:22Z</time>
      </trkpt>
      <trkpt lat="36.8371530" lon="-2.9137200">
        <ele>404.6</ele>
        <time>2021-03-01T10:00:23Z</time>
      </trkpt>
      <trkpt lat="36.8371800" lon="-2.9137590">
        <ele>404.2</ele>
        <time>2021-03-01T10:00:24Z</time>
      </trkpt>
      <trkpt lat="36.8371960" lon="-2.9138100">
        <ele>403.8</ele>
        <time>2021-03-01T10:00:25Z</time>
      </trkpt>
      <trkpt lat="36.8371990" lon="-2.9138740">
        <ele>403.3</ele>
        <time>2021-03-01T10:00:26Z</time>
      </trkpt>
      <trkpt lat="36.8371860" lon="-2.9139420">
        <ele>402.7</ele>
        <time>2021-03-01T10:00:27Z</time>
      </trkpt>
      <trkpt lat="36.8371600" lon="-2.9140040">
        <ele>402.1</ele>
        <time>2021-03-01T10:00:28Z</time>
      </trkpt>
      <trkpt lat="36.8371290" lon="-2.9140540">
        <ele>401.6</ele>
        <time>2021-03-01T10:00:29Z</time>
      </trkpt>
      <trkpt lat="36.8370930" lon="-2.9140950">
        <ele>401.1</ele>
        <time>2021-03-01T10:00:30Z</time>
      </trkpt>
      <trkpt lat="36.8370540" lon="-2.9141270">
        <ele>400.8</ele>
        <time>2021-03-01T10:00:31Z</time>
      </trkpt>
      <trkpt lat="36.8370160" lon="-2.9141510">
        <ele>400.4</ele>
        <time>2021-03-01T10:00:32Z</time>
      </trkpt>
      <trkpt lat="36.8369830" lon="-2.9141690">
        <ele>400.2</ele>
        <time>2021-03-01T10:00:33Z</time>
      </trkpt>
      <trkpt lat="36.8369530" lon="-2.9141810">
        <ele>400.0</ele>
        <time>2021-03-01T10:00:34Z</time>
      </trkpt>
      <trkpt lat="36.8369270" lon="-2.9141970">
        <ele>399.8</ele>
        <time>2021-03-01T10:00:35Z</time>
      </trkpt>
      <trkpt lat="36.8369050" lon="-2.9142190">
        <ele>399.7</ele>
        <time>2021-03-01T10:00:36Z</time>
      </trkpt>
      <trkpt lat="36.8368920" lon="-2.9142420">
        <ele>399.6</ele>
        <time>2021-03-01T10:00:37Z</time>
      </trkpt>
      <trkpt lat="36.8368830" lon="-2.9142700">
        <ele>399.5</ele>
        <time>2021-03-01T10:00:38Z</time>
      </trkpt>
      <trkpt lat="36.8368750" lon="-2.9143010">
        <ele>399.4</ele>
        <time>2021-03-01T10:00:39Z</time>
      </trkpt>
      <trkpt lat="36.8368640" lon="-2.9143320">
        <ele>399.3</ele>
        <time>2021-03-01T10:00:40Z</time>
      </trkpt>
      <trkpt lat="36.8368470" lon="-2.9143620">
        <ele>399.2</ele>
        <time>2021-03-01T10:00:41Z</time>
      </trkpt>
      <trkpt lat="36.8368210" lon="-2.9143930">
        <ele>399.2</ele>
        <time>2021-03-01T10:00:42Z</time>
      </trkpt>
      <trkpt lat="36.8367880" lon="-2.9144240">
        <ele>399.2</ele>
        <time>2021-03-01T10:00:43Z</time>
      </trkpt>
      <trkpt lat="36.8367540" lon="-2.9144600">
        <ele>399.1</ele>
        <time>2021-03-01T10:00:44Z</time>
      </trkpt>
      <trkpt lat="36.8367160" lon="-2.9145010">
        <ele>399.1</ele>
        <time>2021-03-01T10:00:45Z</time>
      </trkpt>
      <trkpt lat="36.8366720" lon="-2.9145420">
        <ele>399.1</ele>
        <time>2021-03-01T10:00:46Z</time>
      </trkpt>
      <trkpt lat="36.8366250" lon="-2.9145860">
        <ele>399.1</ele>
        <time>2021-03-01T10:00:47Z</time>
      </trkpt>
      <trkpt lat="36.8365780" lon="-2.9146310">
        <ele>399.0</ele>
        <time>2021-03-01T10:00:48Z</time>
      </trkpt>
      <trkpt lat="36.8365300" lon="-2.9146770">
        <ele>399.0</ele>
        <time>2021-03-01T10:00:49Z</time>
      </trkpt>
      <trkpt lat="36.8364830" lon="-2.9147250">
        <ele>399.0</ele>
        <time>2021-03-01T10:00:50Z</time>
      </trkpt>
      <trkpt lat="36.8364350" lon="-2.9147760">
        <ele>399.0</ele>
        <time>2021-03-01T10:00:51Z</time>
      </trkpt>
      <trkpt lat="36.8363890" lon="-2.9148330">
        <ele>398.9</ele>
        <time>2021-03-01T10:00:52Z</time>
      </trkpt>
      <trkpt lat="36.8363460" lon="-2.9148960">
        <ele>398.9</ele>
        <time>2021-03-01T10:00:53Z</time>
      </trkpt>
      <trkpt lat="36.8363040" lon="-2.9149650">
        <ele>398.8</ele>
        <time>2021-03-01T10:00:54Z</time>
      </trkpt>
      <trkpt lat="36.8362620" lon="-2.9150390">
        <ele>398.8</ele>
        <time>2021-03-01T10:00:55Z</time>
      </trkpt>
      <trkpt lat="36.8362210" lon="-2.9151150">
        <ele>398.7</ele>
        <time>2021-03-01T10:00:56Z</time>
      </trkpt>
      <trkpt lat="36.8361800" lon="-2.9151890">
        <ele>398.7</ele>
        <time>2021-03-01T10:00:57Z</time>
      </trkpt>
      <trkpt lat="36.8361400" lon="-2.9152640">
        <ele>398.8</ele>
        <time>2021-03-01T10:00:58Z</time>
      </trkpt>
      <trkpt lat="36.8361020" lon="-2.9153410">
        <ele>398.8</ele>
        <time>2021-03-01T10:00:59Z</time>
      </trkpt>
      <trkpt lat="36.8360660" lon="-2.9154190">
        <ele>398.8</ele>
        <time>2021-03-01T10:01:00Z</time>
      </trkpt>
      <trkpt lat="36.8360300" lon="-2.9154980">
        <ele>398.9</ele>
        <time>2021-03-01T10:01:01Z</time>
      </trkpt>
      <trkpt lat="36.8359950" lon="-2.9155790">
        <ele>398.9</ele>
        <time>2021-03-01T10:01:02Z</time>
      </trkpt>
      <trkpt lat="36.8359660" lon="-2.9156650">
        <ele>399.1</ele>
        <time>2021-03-01T10:01:03Z</time>
      </trkpt>
      <trkpt lat="36.8359450" lon="-2.9157550">
        <ele>399.3</ele>
        <time>2021-03-01T10:01:04Z</time>
      </trkpt>
      <trkpt lat="36.8359310" lon="-2.9158470">
        <ele>399.5</ele>
        <time>2021-03-01T10:01:05Z</time>
      </trkpt>
      <trkpt lat="36.8359200" lon="-2.9159380">
        <ele>399.7</ele>
        <time>2021-03-01T10:01:06Z</time>
      </trkpt>
      <trkpt lat="36.8359090" lon="-2.9160300">
        <ele>399.8</ele>
        <time>2021-03-01T10:01:07Z</time>
      </trkpt>
      <trkpt lat="36.8358970" lon="-2.9161240">
        <ele>400.0</ele>
        <time>2021-03-01T10:01:08Z</time>
      </trkpt>
      <trkpt lat="36.8358850" lon="-2.9162190">
        <ele>400.2</ele>
        <time>2021-03-01T10:01:09Z</time>
      </trkpt>
      <trkpt lat="36.8358720" lon="-2.9163130">
        <ele>400.4</ele>
        <time>2021-03-01T10:01:10Z</time>
      </trkpt>
      <trkpt lat="36.8358590" lon="-2.9164050">
        <ele>400.6</ele>
        <time>2021-03-01T10:01:11Z</time>
      </trkpt>
      <trkpt lat="36.8358480" lon="-2.9164950">
        <ele>400.9</ele>
        <time>2021-03-01T10:01:12Z</time>
      </trkpt>
      <trkpt lat="36.8358390" lon="-2.9165800">
        <ele>401.1</ele>
        <time>2021-03-01T10:01:13Z</time>
      </trkpt>
      <trkpt lat="36.8358300" lon="-2.9166590">
        <ele>401.2</ele>
        <time>2021-03-01T10:01:14Z</time>
      </trkpt>
      <trkpt lat="36.8358220" lon="-2.9167330">
        <ele>401.3</ele>
        <time>2021-03-01T10:01:15Z</time>
      </trkpt>
      <trkpt lat="36.8358140" lon="-2.9168050">
        <ele>401.4</ele>
        <time>2021-03-01T10:01:16Z</time>
      </trkpt>
      <trkpt lat="36.8358090" lon="-2.9168810">
        <ele>401.3</ele>
        <time>2021-03-01T10:01:17Z</time>
      </trkpt>
      <trkpt lat="36.8358090" lon="-2.9169610">
        <ele>401.2</ele>
        <time>2021-03-01T10:01:18Z</time>
      </trkpt>
      <trkpt lat="36.8358100" lon="-2.9170440">
        <ele>401.0</ele>
        <time>2021-03-01T10:01:19Z</time>
      </trkpt>
      <trkpt lat="36.8358120" lon="-2.9171270">
        <ele>400.8</ele>
        <time>2021-03-01T10:01:20Z</time>
      </trkpt>
      <trkpt lat="36.8358160" lon="-2.9172140">
        <ele>400.5</ele>
        <time>2021-03-01T10:01:21Z</time>
      </trkpt>
      <trkpt lat="36.8358190" lon="-2.9173040">
        <ele>400.2</ele>
        <time>2021-03-01T10:01:22Z</time>
      </trkpt>
      <trkpt lat="36.8358180" lon="-2.9174000">
        <ele>400.0</ele>
        <time>2021-03-01T10:01:23Z</time>
      </trkpt>
      <trkpt lat="36.8358150" lon="-2.9174960">
        <ele>399.8</ele>
        <time>2021-03-01T10:01:24Z</time>
      </trkpt>
      <trkpt lat="36.8358100" lon="-2.9175940">
        <ele>399.7</ele>
        <time>2021-03-01T10:01:25Z</time>
      </trkpt>
      <trkpt lat="36.8357960" lon="-2.9176910">
        <ele>399.7</ele>
        <time>2021-03-01T10:01:26Z</time>
      </trkpt>
      <trkpt lat="36.8357710" lon="-2.9177800">
        <ele>399.7</ele>
        <time>2021-03-01T10:01:27Z</time>
      </trkpt>
      <trkpt lat="36.8357350" lon="-2.9178560">
        <ele>399.8</ele>
        <time>2021-03-01T10:01:28Z</time>
      </trkpt>
      <trkpt lat="36.8356890" lon="-2.9179200">
        <ele>400.0</ele>
        <time>2021-03-01T10:01:29Z</time>
      </trkpt>
      <trkpt lat="36.8356430" lon="-2.9179790">
        <ele>400.1</ele>
        <time>2021-03-01T10:01:30Z</time>
      </trkpt>
      <trkpt lat="36.8356030" lon="-2.9180350">
        <ele>400.3</ele>
        <time>2021-03-01T10:01:31Z</time>
      </trkpt>
      <trkpt lat="36.8355680" lon="-2.9180920">
        <ele>400.4</ele>
        <time>2021-03-01T10:01:32Z</time>
      </trkpt>
      <trkpt lat="36.8355350" lon="-2.9181510">
        <ele>400.6</ele>
        <time>2021-03-01T10:01:33Z</time>
      </trkpt>
      <trkpt lat="36.8355040" lon="-2.9182100">
        <ele>400.7</ele>
        <time>2021-03-01T10:01:34Z</time>
      </trkpt>
      <trkpt lat="36.8354750" lon="-2.9182720">
        <ele>400.8</ele>
        <time>2021-03-01T10:01:35Z</time>
      </trkpt>
      <trkpt lat="36.8354450" lon="-2.9183320">
        <ele>401.0</ele>
        <time>2021-03-01T10:01:36Z</time>
      </trkpt>
      <trkpt lat="36.8354140" lon="-2.9183900">
        <ele>401.1</ele>
        <time>2021-03-01T10:01:37Z</time>
      </trkpt>
      <trkpt lat="36.8353860" lon="-2.9184490">
        <ele>401.2</ele>
        <time>2021-03-01T10:01:38Z</time>
      </trkpt>
      <trkpt lat="36.8353590" lon="-2.9185090">
        <ele>401.3</ele>
        <time>2021-03-01T10:01:39Z</time>
      </trkpt>
      <trkpt lat="36.8353330" lon="-2.9185690">
        <ele>401.4</ele>
        <time>2021-03-01T10:01:40Z</time>
      </trkpt>
      <trkpt lat="36.8353070" lon="-2.9186280">
        <ele>401.5</ele>
        <time>2021-03-01T10:01:41Z</time>
      </trkpt>
      <trkpt lat="36.8352840" lon="-2.9186880">
        <ele>401.6</ele>
        <time>2021-03-01T10:01:42Z</time>
      </trkpt>
      <trkpt lat="36.8352670" lon="-2.9187520">
        <ele>401.7</ele>
        <time>2021-03-01T10:01:43Z</time>
      </trkpt>
      <trkpt lat="36.8352560" lon="-2.9188130">
        <ele>401.8</ele>
        <time>2021-03-01T10:01:44Z</time>
      </trkpt>
      <trkpt lat="36.8352480" lon="-2.9188720">
        <ele>401.9</ele>
        <time>2021-03-01T10:01:45Z</time>
      </trkpt>
      <trkpt lat="36.8352430" lon="-2.9189310">
        <ele>402.0</ele>
        <time>2021-03-01T10:01:46Z</time>
      </trkpt>
      <trkpt lat="36.8352380" lon="-2.9189900">
        <ele>402.0</ele>
        <time>2021-03-01T10:01:47Z</time>
      </trkpt>
      <trkpt lat="36.8352330" lon="-2.9190500">
        <ele>402.1</ele>
        <time>2021-03-01T10:01:48Z</time>
      </trkpt>
      <trkpt lat="36.8352260" lon="-2.9191120">
        <ele>402.1</ele>
        <time>2021-03-01T10:01:49Z</time>
      </trkpt>
      <trkpt lat="36.8352180" lon="-2.9191760">
        <ele>402.1</ele>
        <time>2021-03-01T10:01:50Z</time>
      </trkpt>
      <trkpt lat="36.8352090" lon="-2.9192420">
        <ele>402.0</ele>
        <time>2021-03-01T10:01:51Z</time>
      </trkpt>
      <trkpt lat="36.8352010" lon="-2.9193110">
        <ele>402.0</ele>
        <time>2021-03-01T10:01:52Z</time>
      </trkpt>
      <trkpt lat="36.8351920" lon="-2.9193830">
        <ele>401.9</ele>
        <time>2021-03-01T10:01:53Z</time>
      </trkpt>
      <trkpt lat="36.8351830" lon="-2.9194560">
        <ele>401.8</ele>
        <time>2021-03-01T10:01:54Z</time>
      </trkpt>
      <trkpt lat="36.8351720" lon="-2.9195300">
        <ele>401.7</ele>
        <time>2021-03-01T10:01:55Z</time>
      </trkpt>
      <trkpt lat="36.8351600" lon="-2.9196060">
        <ele>401.5</ele>
        <time>2021-03-01T10:01:56Z</time>
      </trkpt>
      <trkpt lat="36.8351470" lon="-2.9196830">
        <ele>401.3</ele>
        <time>2021-03-01T10:01:57Z</time>
      </trkpt>
      <trkpt lat="36.8351340" lon="-2.9197630">
        <ele>401.1</ele>
        <time>2021-03-01T10:01:58Z</time>
      </trkpt>
      <trkpt lat="36.8351200" lon="-2.9198450">
        <ele>400.8</ele>
        <time>2021-03-01T10:01:59Z</time>
      </trkpt>
      <trkpt lat="36.8351030" lon="-2.9199290">
        <ele>400.4</ele>
        <time>2021-03-01T10:02:00Z</time>
      </trkpt>
      <trkpt lat="36.8350850" lon="-2.9200160">
        <ele>400.0</ele>
        <time>2021-03-01T10:02:01Z</time>
      </trkpt>
      <trkpt lat="36.8350660" lon="-2.9201070">
        <ele>399.6</ele>
        <time>2021-03-01T10:02:02Z</time>
      </trkpt>
      <trkpt lat="36.8350490" lon="-2.9202010">
        <ele>399.1</ele>
        <time>2021-03-01T10:02:03Z</time>
      </trkpt>
      <trkpt lat="36.8350340" lon="-2.9202980">
        <ele>398.7</ele>
        <time>2021-03-01T10:02:04Z</time>
      </trkpt>
      <trkpt lat="36.8350220" lon="-2.9203980">
        <ele>398.2</ele>
        <time>2021-03-01T10:02:05Z</time>
      </trkpt>
      <trkpt lat="36.8350110" lon="-2.9205020">
        <ele>397.7</ele>
        <time>2021-03-01T10:02:06Z</time>
      </trkpt>
      <trkpt lat="36.8349990" lon="-2.9206090">
        <ele>397.2</ele>
        <time>2021-03-01T10:02:07Z</time>
      </trkpt>
      <trkpt lat="36.8349880" lon="-2.9207190">
        <ele>396.7</ele>
        <time>2021-03-01T10:02:08Z</time>
      </trkpt>
      <trkpt lat="36.8349780" lon="-2.9208330">
        <ele>396.2</ele>
        <time>2021-03-01T10:02:09Z</time>
      </trkpt>
      <trkpt lat="36.8349670" lon="-2.9209510">
        <ele>395.6</ele>
        <time>2021-03-01T10:02:10Z</time>
      </trkpt>
      <trkpt lat="36.8349550" lon="-2.9210720">
        <ele>395.0</ele>
        <time>2021-03-01T10:02:11Z</time>
      </trkpt>
      <trkpt lat="36.8349460" lon="-2.9211980">
        <ele>394.3</ele>
        <time>2021-03-01T10:02:12Z</time>
      </trkpt>
      <trkpt lat="36.8349400" lon="-2.9213300">
        <ele>393.5</ele>
        <time>2021-03-01T10:02:13Z</time>
      </trkpt>
      <trkpt lat="36.8349350" lon="-2.9214640">
        <ele>392.8</ele>
        <time>2021-03-01T10:02:14Z</time>
      </trkpt>
      <trkpt lat="36.8349320" lon="-2.9215980">
        <ele>392.1</ele>
        <time>2021-03-01T10:02:15Z</time>
      </trkpt>
      <trkpt lat="36.8349310" lon="-2.9217340">
        <ele>391.0</ele>
        <time>2021-03-01T10:02:16Z</time>
      </trkpt>
      <trkpt lat="36.8349300" lon="-2.9218750">
        <ele>389.8</ele>
        <time>2021-03-01T10:02:17Z</time>
      </trkpt>
      <trkpt lat="36.8349310" lon="-2.9220210">
        <ele>388.7</ele>
        <time>2021-03-01T10:02:18Z</time>
      </trkpt>
      <trkpt lat="36.8349380" lon="-2.9221700">
        <ele>387.7</ele>
        <time>2021-03-01T10:02:19Z</time>
      </trkpt>
      <trkpt lat="36.8349570" lon="-2.9223190">
        <ele>386.8</ele>
        <time>2021-03-01T10:02:20Z</time>
      </trkpt>
      <trkpt lat="36.8349870" lon="-2.9224680">
        <ele>385.8</ele>
        <time>2021-03-01T10:02:21Z</time>
      </trkpt>
      <trkpt lat="36.8350260" lon="-2.9226120">
        <ele>384.9</ele>
        <time>2021-03-01T10:02:22Z</time>
      </trkpt>
      <trkpt lat="36.8350590" lon="-2.9227580">
        <ele>384.1</ele>
        <time>2021-03-01T10:02:23Z</time>
      </trkpt>
      <trkpt lat="36.8350830" lon="-2.9229050">
        <ele>383.3</ele>
        <time>2021-03-01T10:02:24Z</time>
      </trkpt>
      <trkpt lat="36.8351000" lon="-2.9230490">
        <ele>382.7</ele>
        <time>2021-03-01T10:02:25Z</time>
      </trkpt>
      <trkpt lat="36.8351100" lon="-2.9231920">
        <ele>382.1</ele>
        <time>2021-03-01T10:02:26Z</time>
      </trkpt>
      <trkpt lat="36.8351160" lon="-2.9233330">
        <ele>381.4</ele>
        <time>2021-03-01T10:02:27Z</time>
      </trkpt>
      <trkpt lat="36.8351170" lon="-2.9234730">
        <ele>380.6</ele>
        <time>2021-03-01T10:02:28Z</time>
      </trkpt>
      <trkpt lat="36.8351170" lon="-2.9236130">
        <ele>379.9</ele>
        <time>2021-03-01T10:02:29Z</time>
      </trkpt>
      <trkpt lat="36.8351180" lon="-2.9237530">
        <ele>379.2</ele>
        <time>2021-03-01T10:02:30Z</time>
      </trkpt>
      <trkpt lat="36.8351210" lon="-2.9238930">
        <ele>378.5</ele>
        <time>2021-03-01T10:02:31Z</time>
      </trkpt>
      <trkpt lat="36.8351260" lon="-2.9240360">
        <ele>377.8</ele>
        <time>2021-03-01T10:02:32Z</time>
      </trkpt>
      <trkpt lat="36.8351370" lon="-2.9241780">
        <ele>377.0</ele>
        <time>2021-03-01T10:02:33Z</time>
      </trkpt>
      <trkpt lat="36.8351550" lon="-2.9243200">
        <ele>376.3</ele>
        <time>2021-03-01T10:02:34Z</time>
      </trkpt>
      <trkpt lat="36.8351800" lon="-2.9244620">
        <ele>375.5</ele>
        <time>2021-03-01T10:02:35Z</time>
      </trkpt>
      <trkpt lat="36.8352130" lon="-2.9246030">
        <ele>374.5</ele>
        <time>2021-03-01T10:02:36Z</time>
      </trkpt>
      <trkpt lat="36.8352500" lon="-2.9247450">
        <ele>373.4</ele>
        <time>2021-03-01T10:02:37Z</time>
      </trkpt>
      <trkpt lat="36.8352890" lon="-2.9248900">
        <ele>371.8</ele>
        <time>2021-03-01T10:02:38Z</time>
      </trkpt>
      <trkpt lat="36.8353360" lon="-2.9250350">
        <ele>370.1</ele>
        <time>2021-03-01T10:02:39Z</time>
      </trkpt>
      <trkpt lat="36.8353970" lon="-2.9251780">
        <ele>368.3</ele>
        <time>2021-03-01T10:02:40Z</time>
      </trkpt>
      <trkpt lat="36.8354640" lon="-2.9253200">
        <ele>366.6</ele>
        <time>2021-03-01T10:02:41Z</time>
      </trkpt>
      <trkpt lat="36.8355310" lon="-2.9254630">
        <ele>365.0</ele>
        <time>2021-03-01T10:02:42Z</time>
      </trkpt>
      <trkpt lat="36.8355910" lon="-2.9256090">
        <ele>363.6</ele>
        <time>2021-03-01T10:02:43Z</time>
      </trkpt>
      <trkpt lat="36.8356440" lon="-2.9257580">
        <ele>362.2</ele>
        <time>2021-03-01T10:02:44Z</time>
      </trkpt>
      <trkpt lat="36.8356900" lon="-2.9259080">
        <ele>360.8</ele>
        <time>2021-03-01T10:02:45Z</time>
      </trkpt>
      <trkpt lat="36.8357270" lon="-2.9260600">
        <ele>359.6</ele>
        <time>2021-03-01T10:02:46Z</time>
      </trkpt>
      <trkpt lat="36.8357550" lon="-2.9262130">
        <ele>358.5</ele>
        <time>2021-03-01T10:02:47Z</time>
      </trkpt>
      <trkpt lat="36.8357730" lon="-2.9263670">
        <ele>357.3</ele>
        <time>2021-03-01T10:02:48Z</time>
      </trkpt>
      <trkpt lat="36.8357840" lon="-2.9265190">
        <ele>356.1</ele>
        <time>2021-03-01T10:02:49Z</time>
      </trkpt>
      <trkpt lat="36.8357910" lon="-2.9266710">
        <ele>355.1</ele>
        <time>2021-03-01T10:02:50Z</time>
      </trkpt>
      <trkpt lat="36.8357950" lon="-2.9268230">
        <ele>354.1</ele>
        <time>2021-03-01T10:02:51Z</time>
      </trkpt>
      <trkpt lat="36.8358010" lon="-2.9269740">
        <ele>353.1</ele>
        <time>2021-03-01T10:02:52Z</time>
      </trkpt>
      <trkpt lat="36.8358050" lon="-2.9271250">
        <ele>352.1</ele>
        <time>2021-03-01T10:02:53Z</time>
      </trkpt>
      <trkpt lat="36.8358080" lon="-2.9272760">
        <ele>351.2</ele>
        <time>2021-03-01T10:02:54Z</time>
      </trkpt>
      <trkpt lat="36.8358100" lon="-2.9274270">
        <ele>350.3</ele>
        <time>2021-03-01T10:02:55Z</time>
      </trkpt>
      <trkpt lat="36.8358140" lon="-2.9275790">
        <ele>349.6</ele>
        <time>2021-03-01T10:02:56Z</time>
      </trkpt>
      <trkpt lat="36.8358170" lon="-2.9277300">
        <ele>348.9</ele>
        <time>2021-03-01T10:02:57Z</time>
      </trkpt>
      <trkpt lat="36.8358230" lon="-2.9278810">
        <ele>348.2</ele>
        <time>2021-03-01T10:02:58Z</time>
      </trkpt>
      <trkpt lat="36.8358300" lon="-2.9280260">
        <ele>347.5</ele>
        <time>2021-03-01T10:02:59Z</time>
      </trkpt>
      <trkpt lat="36.8358340" lon="-2.9281710">
        <ele>346.8</ele>
        <time>2021-03-01T10:03:00Z</time>
      </trkpt>
      <trkpt lat="36.8358380" lon="-2.9283130">
        <ele>346.1</ele>
        <time>2021-03-01T10:03:01Z</time>
      </trkpt>
      <trkpt lat="36.8358390" lon="-2.9284550">
        <ele>345.6</ele>
        <time>2021-03-01T10:03:02Z</time>
      </trkpt>
      <trkpt lat="36.8358380" lon="-2.9285960">
        <ele>345.1</ele>
        <time>2021-03-01T10:03:03Z</time>
      </trkpt>
      <trkpt lat="36.8358360" lon="-2.9287340">
        <ele>344.6</ele>
        <time>2021-03-01T10:03:04Z</time>
      </trkpt>
      <trkpt lat="36.8358330" lon="-2.9288720">
        <ele>343.9</ele>
        <time>2021-03-01T10:03:05Z</time>
      </trkpt>
      <trkpt lat="36.8358350" lon="-2.9290080">
        <ele>343.3</ele>
        <time>2021-03-01T10:03:06Z</time>
      </trkpt>
      <trkpt lat="36.8358400" lon="-2.9291430">
        <ele>342.6</ele>
        <time>2021-03-01T10:03:07Z</time>
      </trkpt>
      <trkpt lat="36.8358470" lon="-2.9292780">
        <ele>342.0</ele>
        <time>2021-03-01T10:03:08Z</time>
      </trkpt>
      <trkpt lat="36.8358580" lon="-2.9294110">
        <ele>341.3</ele>
        <time>2021-03-01T10:03:09Z</time>
      </trkpt>
      <trkpt lat="36.8358670" lon="-2.9295430">
        <ele>340.7</ele>
        <time>2021-03-01T10:03:10Z</time>
      </trkpt>
      <trkpt lat="36.8358720" lon="-2.9296750">
        <ele>340.0</ele>
        <time>2021-03-01T10:03:11Z</time>
      </trkpt>
      <trkpt lat="36.8358800" lon="-2.9298090">
        <ele>339.3</ele>
        <time>2021-03-01T10:03:12Z</time>
      </trkpt>
      <trkpt lat="36.8358910" lon="-2.9299400">
        <ele>338.6</ele>
        <time>2021-03-01T10:03:13Z</time>
      </trkpt>
      <trkpt lat="36.8359020" lon="-2.9300710">
        <ele>337.8</ele>
        <time>2021-03-01T10:03:14Z</time>
      </trkpt>
      <trkpt lat="36.8359110" lon="-2.9302030">
        <ele>337.1</ele>
        <time>2021-03-01T10:03:15Z</time>
      </trkpt>
      <trkpt lat="36.8359160" lon="-2.9303380">
        <ele>336.3</ele>
        <time>2021-03-01T10:03:16Z</time>
      </trkpt>
      <trkpt lat="36.8359220" lon="-2.9304670">
        <ele>335.5</ele>
        <time>2021-03-01T10:03:17Z</time>
      </trkpt>
      <trkpt lat="36.8359310" lon="-2.9305860">
        <ele>334.8</ele>
        <time>2021-03-01T10:03:18Z</time>
      </trkpt>
      <trkpt lat="36.8359390" lon="-2.9306940">
        <ele>334.2</ele>
        <time>2021-03-01T10:03:19Z</time>
      </trkpt>
      <trkpt lat="36.8359490" lon="-2.9307960">
        <ele>333.6</ele>
        <time>2021-03-01T10:03:20Z</time>
      </trkpt>
      <trkpt lat="36.8359580" lon="-2.9308960">
        <ele>333.1</ele>
        <time>2021-03-01T10:03:21Z</time>
      </trkpt>
      <trkpt lat="36.8359650" lon="-2.9309970">
        <ele>332.6</ele>
        <time>2021-03-01T10:03:22Z</time>
      </trkpt>
      <trkpt lat="36.8359700" lon="-2.9310990">
        <ele>332.1</ele>
        <time>2021-03-01T10:03:23Z</time>
      </trkpt>
      <trkpt lat="36.8359720" lon="-2.9312030">
        <ele>331.6</ele>
        <time>2021-03-01T10:03:24Z</time>
      </trkpt>
      <trkpt lat="36.8359710" lon="-2.9313070">
        <ele>331.2</ele>
        <time>2021-03-01T10:03:25Z</time>
      </trkpt>
      <trkpt lat="36.8359700" lon="-2.9314070">
        <ele>330.9</ele>
        <time>2021-03-01T10:03:26Z</time>
      </trkpt>
      <trkpt lat="36.8359670" lon="-2.9314970">
        <ele>330.6</ele>
        <time>2021-03-01T10:03:27Z</time>
      </trkpt>
      <trkpt lat="36.8359570" lon="-2.9315670">
        <ele>330.3</ele>
        <time>2021-03-01T10:03:28Z</time>
      </trkpt>
      <trkpt lat="36.8359370" lon="-2.9316250">
        <ele>330.1</ele>
        <time>2021-03-01T10:03:29Z</time>
      </trkpt>
      <trkpt lat="36.8359160" lon="-2.9316830">
        <ele>329.9</ele>
        <time>2021-03-01T10:03:30Z</time>
      </trkpt>
      <trkpt lat="36.8359010" lon="-2.9317300">
        <ele>329.7</ele>
        <time>2021-03-01T10:03:31Z</time>
      </trkpt>
      <trkpt lat="36.8358810" lon="-2.9317500">
        <ele>329.6</ele>
        <time>2021-03-01T10:03:32Z</time>
      </trkpt>
      <trkpt lat="36.8358600" lon="-2.9317400">
        <ele>329.5</ele>
        <time>2021-03-01T10:03:33Z</time>
      </trkpt>
      <trkpt lat="36.8358470" lon="-2.9317130">
        <ele>329.4</ele>
        <time>2021-03-01T10:03:34Z</time>
      </trkpt>
      <trkpt lat="36.8358420" lon="-2.9316810">
        <ele>329.2</ele>
        <time>2021-03-01T10:03:35Z</time>
      </trkpt>
      <trkpt lat="36.8358360" lon="-2.9316430">
        <ele>329.0</ele>
        <time>2021-03-01T10:03:36Z</time>
      </trkpt>
      <trkpt lat="36.8358240" lon="-2.9316030">
        <ele>328.8</ele>
        <time>2021-03-01T10:03:37Z</time>
      </trkpt>
      <trkpt lat="36.8358040" lon="-2.9315640">
        <ele>328.6</ele>
        <time>2021-03-01T10:03:38Z</time>
      </trkpt>
      <trkpt lat="36.8357760" lon="-2.9315310">
        <ele>328.3</ele>
        <time>2021-03-01T10:03:39Z</time>
      </trkpt>
      <trkpt lat="36.8357440" lon="-2.9315060">
        <ele>328.1</ele>
        <time>2021-03-01T10:03:40Z</time>
      </trkpt>
      <trkpt lat="36.8357040" lon="-2.9314840">
        <ele>327.8</ele>
        <time>2021-03-01T10:03:41Z</time>
      </trkpt>
      <trkpt lat="36.8356610" lon="-2.9314670">
        <ele>327.5</ele>
        <time>2021-03-01T10:03:42Z</time>
      </trkpt>
      <trkpt lat="36.8356150" lon="-2.9314550">
        <ele>327.3</ele>
        <time>2021-03-01T10:03:43Z</time>
      </trkpt>
      <trkpt lat="36.8355680" lon="-2.9314440">
        <ele>327.0</ele>
        <time>2021-03-01T10:03:44Z</time>
      </trkpt>
      <trkpt lat="36.8355200" lon="-2.9314350">
        <ele>326.8</ele>
        <time>2021-03-01T10:03:45Z</time>
      </trkpt>
      <trkpt lat="36.8354700" lon="-2.9314260">
        <ele>326.7</ele>
        <time>2021-03-01T10:03:46Z</time>
      </trkpt>
      <trkpt lat="36.8354180" lon="-2.9314200">
        <ele>326.5</ele>
        <time>2021-03-01T10:03:47Z</time>
      </trkpt>
      <trkpt lat="36.8353670" lon="-2.9314170">
        <ele>326.4</ele>
        <time>2021-03-01T10:03:48Z</time>
      </trkpt>
      <trkpt lat="36.8353150" lon="-2.9314140">
        <ele>326.2</ele>
        <time>2021-03-01T10:03:49Z</time>
      </trkpt>
      <trkpt lat="36.8352660" lon="-2.9314140">
        <ele>326.1</ele>
        <time>2021-03-01T10:03:50Z</time>
      </trkpt>
      <trkpt lat="36.8352190" lon="-2.9314180">
        <ele>326.0</ele>
        <time>2021-03-01T10:03:51Z</time>
      </trkpt>
      <trkpt lat="36.8351820" lon="-2.9314320">
        <ele>325.9</ele>
        <time>2021-03-01T10:03:52Z</time>
      </trkpt>
      <trkpt lat="36.8351560" lon="-2.9314500">
        <ele>325.8</ele>
        <time>2021-03-01T10:03:53Z</time>
      </trkpt>
      <trkpt lat="36.8351450" lon="-2.9314790">
        <ele>325.7</ele>
        <time>2021-03-01T10:03:54Z</time>
      </trkpt>
      <trkpt lat="36.8351470" lon="-2.9315230">
        <ele>325.3</ele>
        <time>2021-03-01T10:03:55Z</time>
      </trkpt>
      <trkpt lat="36.8351090" lon="-2.9314280">
        <ele>331.2</ele>
        <time>2021-03-02T09:10:10Z</time>
      </trkpt>
      <trkpt lat="36.8351500" lon="-2.9315070">
        <ele>331.4</ele>
        <time>2021-03-02T09:10:11Z</time>
      </trkpt>
      <trkpt lat="36.8351880" lon="-2.9315880">
        <ele>331.4</ele>
        <time>2021-03-02T09:10:12Z</time>
      </trkpt>
      <trkpt lat="36.8352250" lon="-2.9316700">
        <ele>330.8</ele>
        <time>2021-03-02T09:10:13Z</time>
      </trkpt>
      <trkpt lat="36.8352630" lon="-2.9317530">
        <ele>330.6</ele>
        <time>2021-03-02T09:10:14Z</time>
      </trkpt>
      <trkpt lat="36.8353030" lon="-2.9318380">
        <ele>330.6</ele>
        <time>2021-03-02T09:10:15Z</time>
      </trkpt>
      <trkpt lat="36.8353430" lon="-2.9319240">
        <ele>330.2</ele>
        <time>2021-03-02T09:10:16Z</time>
      </trkpt>
      <trkpt lat="36.8353840" lon="-2.9320110">
        <ele>330.0</ele>
        <time>2021-03-02T09:10:17Z</time>
      </trkpt>
      <trkpt lat="36.8354270" lon="-2.9321000">
        <ele>329.8</ele>
        <time>2021-03-02T09:10:18Z</time>
      </trkpt>
      <trkpt lat="36.8354710" lon="-2.9321900">
        <ele>329.6</ele>
        <time>2021-03-02T09:10:19Z</time>
      </trkpt>
      <trkpt lat="36.8355150" lon="-2.9322810">
        <ele>329.2</ele>
        <time>2021-03-02T09:10:20Z</time>
      </trkpt>
      <trkpt lat="36.8355600" lon="-2.9323750">
        <ele>328.8</ele>
        <time>2021-03-02T09:10:21Z</time>
      </trkpt>
      <trkpt lat="36.8356070" lon="-2.9324710">
        <ele>328.4</ele>
        <time>2021-03-02T09:10:22Z</time>
      </trkpt>
      <trkpt lat="36.8356540" lon="-2.9325670">
        <ele>328.0</ele>
        <time>2021-03-02T09:10:23Z</time>
      </trkpt>
      <trkpt lat="36.8357010" lon="-2.9326660">
        <ele>327.6</ele>
        <time>2021-03-02T09:10:24Z</time>
      </trkpt>
      <trkpt lat="36.8357480" lon="-2.9327670">
        <ele>327.0</ele>
        <time>2021-03-02T09:10:25Z</time>
      </trkpt>
      <trkpt lat="36.8357960" lon="-2.9328690">
        <ele>326.8</ele>
        <time>2021-03-02T09:10:26Z</time>
      </trkpt>
      <trkpt lat="36.8358440" lon="-2.9329720">
        <ele>326.2</ele>
        <time>2021-03-02T09:10:27Z</time>
      </trkpt>
      <trkpt lat="36.8358950" lon="-2.9330770">
        <ele>325.6</ele>
        <time>2021-03-02T09:10:28Z</time>
      </trkpt>
      <trkpt lat="36.8359450" lon="-2.9331830">
        <ele>325.2</ele>
        <time>2021-03-02T09:10:29Z</time>
      </trkpt>
      <trkpt lat="36.8359960" lon="-2.9332910">
        <ele>324.4</ele>
        <time>2021-03-02T09:10:30Z</time>
      </trkpt>
      <trkpt lat="36.8360480" lon="-2.9333990">
        <ele>324.0</ele>
        <time>2021-03-02T09:10:31Z</time>
      </trkpt>
      <trkpt lat="36.8361000" lon="-2.9335080">
        <ele>323.4</ele>
        <time>2021-03-02T09:10:32Z</time>
      </trkpt>
      <trkpt lat="36.8361520" lon="-2.9336180">
        <ele>322.6</ele>
        <time>2021-03-02T09:10:33Z</time>
      </trkpt>
      <trkpt lat="36.8362030" lon="-2.9337290">
        <ele>322.2</ele>
        <time>2021-03-02T09:10:34Z</time>
      </trkpt>
      <trkpt lat="36.8362550" lon="-2.9338410">
        <ele>321.6</ele>
        <time>2021-03-02T09:10:35Z</time>
      </trkpt>
      <trkpt lat="36.8363080" lon="-2.9339570">
        <ele>321.2</ele>
        <time>2021-03-02T09:10:36Z</time>
      </trkpt>
      <trkpt lat="36.8363600" lon="-2.9340720">
        <ele>320.8</ele>
        <time>2021-03-02T09:10:37Z</time>
      </trkpt>
      <trkpt lat="36.8364130" lon="-2.9341860">
        <ele>320.4</ele>
        <time>2021-03-02T09:10:38Z</time>
      </trkpt>
      <trkpt lat="36.8364660" lon="-2.9343010">
        <ele>319.4</ele>
        <time>2021-03-02T09:10:39Z</time>
      </trkpt>
      <trkpt lat="36.8365170" lon="-2.9344160">
        <ele>318.8</ele>
        <time>2021-03-02T09:10:40Z</time>
      </trkpt>
      <trkpt lat="36.8365660" lon="-2.9345310">
        <ele>318.6</ele>
        <time>2021-03-02T09:10:41Z</time>
      </trkpt>
      <trkpt lat="36.8366160" lon="-2.9346460">
        <ele>318.2</ele>
        <time>2021-03-02T09:10:42Z</time>
      </trkpt>
      <trkpt lat="36.8366640" lon="-2.9347600">
        <ele>318.0</ele>
        <time>2021-03-02T09:10:43Z</time>
      </trkpt>
      <trkpt lat="36.8367120" lon="-2.9348720">
        <ele>317.6</ele>
        <time>2021-03-02T09:10:44Z</time>
      </trkpt>
      <trkpt lat="36.8367600" lon="-2.9349820">
        <ele>317.4</ele>
        <time>2021-03-02T09:10:45Z</time>
      </trkpt>
      <trkpt lat="36.8368050" lon="-2.9350920">
        <ele>317.2</ele>
        <time>2021-03-02T09:10:46Z</time>
      </trkpt>
      <trkpt lat="36.8368470" lon="-2.9352000">
        <ele>317.0</ele>
        <time>2021-03-02T09:10:47Z</time>
      </trkpt>
      <trkpt lat="36.8368890" lon="-2.9353080">
        <ele>317.0</ele>
        <time>2021-03-02T09:10:48Z</time>
      </trkpt>
      <trkpt lat="36.8369280" lon="-2.9354140">
        <ele>316.8</ele>
        <time>2021-03-02T09:10:49Z</time>
      </trkpt>
      <trkpt lat="36.8369640" lon="-2.9355180">
        <ele>316.8</ele>
        <time>2021-03-02T09:10:50Z</time>
      </trkpt>
      <trkpt lat="36.8369980" lon="-2.9356180">
        <ele>316.8</ele>
        <time>2021-03-02T09:10:51Z</time>
      </trkpt>
      <trkpt lat="36.8370310" lon="-2.9357160">
        <ele>317.0</ele>
        <time>2021-03-02T09:10:52Z</time>
      </trkpt>
      <trkpt lat="36.8370650" lon="-2.9358100">
        <ele>317.0</ele>
        <time>2021-03-02T09:10:53Z</time>
      </trkpt>
      <trkpt lat="36.8370970" lon="-2.9358970">
        <ele>317.2</ele>
        <time>2021-03-02T09:10:54Z</time>
      </trkpt>
      <trkpt lat="36.8371300" lon="-2.9359810">
        <ele>317.4</ele>
        <time>2021-03-02T09:10:55Z</time>
      </trkpt>
      <trkpt lat="36.8371610" lon="-2.9360620">
        <ele>317.6</ele>
        <time>2021-03-02T09:10:56Z</time>
      </trkpt>
      <trkpt lat="36.8371910" lon="-2.9361400">
        <ele>317.8</ele>
        <time>2021-03-02T09:10:57Z</time>
      </trkpt>
      <trkpt lat="36.8372190" lon="-2.9362130">
        <ele>318.2</ele>
        <time>2021-03-02T09:10:58Z</time>
      </trkpt>
      <trkpt lat="36.8372470" lon="-2.9362820">
        <ele>318.6</ele>
        <time>2021-03-02T09:10:59Z</time>
      </trkpt>
      <trkpt lat="36.8372750" lon="-2.9363470">
        <ele>318.8</ele>
        <time>2021-03-02T09:11:00Z</time>
      </trkpt>
      <trkpt lat="36.8373020" lon="-2.9364080">
        <ele>319.2</ele>
        <time>2021-03-02T09:11:01Z</time>
      </trkpt>
      <trkpt lat="36.8373300" lon="-2.9364660">
        <ele>319.4</ele>
        <time>2021-03-02T09:11:02Z</time>
      </trkpt>
      <trkpt lat="36.8373550" lon="-2.9365220">
        <ele>319.6</ele>
        <time>2021-03-02T09:11:03Z</time>
      </trkpt>
      <trkpt lat="36.8373800" lon="-2.9365760">
        <ele>320.0</ele>
        <time>2021-03-02T09:11:04Z</time>
      </trkpt>
      <trkpt lat="36.8373990" lon="-2.9366300">
        <ele>320.2</ele>
        <time>2021-03-02T09:11:05Z</time>
      </trkpt>
      <trkpt lat="36.8374110" lon="-2.9366830">
        <ele>320.4</ele>
        <time>2021-03-02T09:11:06Z</time>
      </trkpt>
      <trkpt lat="36.8374120" lon="-2.9367350">
        <ele>320.6</ele>
        <time>2021-03-02T09:11:07Z</time>
      </trkpt>
      <trkpt lat="36.8374020" lon="-2.9367840">
        <ele>321.2</ele>
        <time>2021-03-02T09:11:08Z</time>
      </trkpt>
      <trkpt lat="36.8373780" lon="-2.9368250">
        <ele>321.2</ele>
        <time>2021-03-02T09:11:09Z</time>
      </trkpt>
      <trkpt lat="36.8373440" lon="-2.9368540">
        <ele>321.4</ele>
        <time>2021-03-02T09:11:10Z</time>
      </trkpt>
      <trkpt lat="36.8373000" lon="-2.9368760">
        <ele>321.6</ele>
        <time>2021-03-02T09:11:11Z</time>
      </trkpt>
      <trkpt lat="36.8372500" lon="-2.9369030">
        <ele>321.4</ele>
        <time>2021-03-02T09:11:12Z</time>
      </trkpt>
      <trkpt lat="36.8371960" lon="-2.9369390">
        <ele>321.0</ele>
        <time>2021-03-02T09:11:13Z</time>
      </trkpt>
      <trkpt lat="36.8371420" lon="-2.9369900">
        <ele>320.8</ele>
        <time>2021-03-02T09:11:14Z</time>
      </trkpt>
      <trkpt lat="36.8370970" lon="-2.9370540">
        <ele>319.8</ele>
        <time>2021-03-02T09:11:15Z</time>
      </trkpt>
      <trkpt lat="36.8370590" lon="-2.9371360">
        <ele>319.4</ele>
        <time>2021-03-02T09:11:16Z</time>
      </trkpt>
      <trkpt lat="36.8370390" lon="-2.9372230">
        <ele>318.8</ele>
        <time>2021-03-02T09:11:17Z</time>
      </trkpt>
      <trkpt lat="36.8370320" lon="-2.9373080">
        <ele>318.4</ele>
        <time>2021-03-02T09:11:18Z</time>
      </trkpt>
      <trkpt lat="36.8370310" lon="-2.9373930">
        <ele>318.4</ele>
        <time>2021-03-02T09:11:19Z</time>
      </trkpt>
      <trkpt lat="36.8370330" lon="-2.9374770">
        <ele>318.2</ele>
        <time>2021-03-02T09:11:20Z</time>
      </trkpt>
      <trkpt lat="36.8370340" lon="-2.9375610">
        <ele>318.2</ele>
        <time>2021-03-02T09:11:21Z</time>
      </trkpt>
      <trkpt lat="36.8370380" lon="-2.9376430">
        <ele>318.2</ele>
        <time>2021-03-02T09:11:22Z</time>
      </trkpt>
      <trkpt lat="36.8370440" lon="-2.9377250">
        <ele>318.2</ele>
        <time>2021-03-02T09:11:23Z</time>
      </trkpt>
      <trkpt lat="36.8370520" lon="-2.9378080">
        <ele>318.2</ele>
        <time>2021-03-02T09:11:24Z</time>
      </trkpt>
      <trkpt lat="36.8370580" lon="-2.9378910">
        <ele>318.0</ele>
        <time>2021-03-02T09:11:25Z</time>
      </trkpt>
      <trkpt lat="36.8370630" lon="-2.9379730">
        <ele>318.0</ele>
        <time>2021-03-02T09:11:26Z</time>
      </trkpt>
      <trkpt lat="36.8370690" lon="-2.9380550">
        <ele>317.8</ele>
        <time>2021-03-02T09:11:27Z</time>
      </trkpt>
      <trkpt lat="36.8370740" lon="-2.9381370">
        <ele>317.8</ele>
        <time>2021-03-02T09:11:28Z</time>
      </trkpt>
      <trkpt lat="36.8370810" lon="-2.9382210">
        <ele>317.8</ele>
        <time>2021-03-02T09:11:29Z</time>
      </trkpt>
      <trkpt lat="36.8370890" lon="-2.9383090">
        <ele>317.8</ele>
        <time>2021-03-02T09:11:30Z</time>
      </trkpt>
      <trkpt lat="36.8370960" lon="-2.9383960">
        <ele>317.8</ele>
        <time>2021-03-02T09:11:31Z</time>
      </trkpt>
      <trkpt lat="36.8371050" lon="-2.9384840">
        <ele>317.6</ele>
        <time>2021-03-02T09:11:32Z</time>
      </trkpt>
      <trkpt lat="36.8371170" lon="-2.9385700">
        <ele>317.6</ele>
        <time>2021-03-02T09:11:33Z</time>
      </trkpt>
      <trkpt lat="36.8371360" lon="-2.9386560">
        <ele>317.4</ele>
        <time>2021-03-02T09:11:34Z</time>
      </trkpt>
      <trkpt lat="36.8371610" lon="-2.9387410">
        <ele>317.4</ele>
        <time>2021-03-02T09:11:35Z</time>
      </trkpt>
      <trkpt lat="36.8371880" lon="-2.9388210">
        <ele>317.4</ele>
        <time>2021-03-02T09:11:36Z</time>
      </trkpt>
      <trkpt lat="36.8372210" lon="-2.9388970">
        <ele>317.4</ele>
        <time>2021-03-02T09:11:37Z</time>
      </trkpt>
      <trkpt lat="36.8372590" lon="-2.9389700">
        <ele>317.4</ele>
        <time>2021-03-02T09:11:38Z</time>
      </trkpt>
      <trkpt lat="36.8372960" lon="-2.9390390">
        <ele>317.4</ele>
        <time>2021-03-02T09:11:39Z</time>
      </trkpt>
      <trkpt lat="36.8373360" lon="-2.9391060">
        <ele>317.4</ele>
        <time>2021-03-02T09:11:40Z</time>
      </trkpt>
      <trkpt lat="36.8373730" lon="-2.9391710">
        <ele>317.6</ele>
        <time>2021-03-02T09:11:41Z</time>
      </trkpt>
      <trkpt lat="36.8374100" lon="-2.9392360">
        <ele>317.8</ele>
        <time>2021-03-02T09:11:42Z</time>
      </trkpt>
      <trkpt lat="36.8374470" lon="-2.9393000">
        <ele>318.0</ele>
        <time>2021-03-02T09:11:43Z</time>
      </trkpt>
      <trkpt lat="36.8374810" lon="-2.9393630">
        <ele>318.2</ele>
        <time>2021-03-02T09:11:44Z</time>
      </trkpt>
      <trkpt lat="36.8375160" lon="-2.9394260">
        <ele>318.4</ele>
        <time>2021-03-02T09:11:45Z</time>
      </trkpt>
      <trkpt lat="36.8375500" lon="-2.9394880">
        <ele>318.6</ele>
        <time>2021-03-02T09:11:46Z</time>
      </trkpt>
      <trkpt lat="36.8375850" lon="-2.9395490">
        <ele>318.8</ele>
        <time>2021-03-02T09:11:47Z</time>
      </trkpt>
      <trkpt lat="36.8376200" lon="-2.9396100">
        <ele>319.0</ele>
        <time>2021-03-02T09:11:48Z</time>
      </trkpt>
      <trkpt lat="36.8376540" lon="-2.9396710">
        <ele>319.2</ele>
        <time>2021-03-02T09:11:49Z</time>
      </trkpt>
      <trkpt lat="36.8376880" lon="-2.9397320">
        <ele>319.4</ele>
        <time>2021-03-02T09:11:50Z</time>
      </trkpt>
      <trkpt lat="36.8377210" lon="-2.9397920">
        <ele>319.6</ele>
        <time>2021-03-02T09:11:51Z</time>
      </trkpt>
      <trkpt lat="36.8377540" lon="-2.9398540">
        <ele>319.8</ele>
        <time>2021-03-02T09:11:52Z</time>
      </trkpt>
      <trkpt lat="36.8377860" lon="-2.9399150">
        <ele>320.0</ele>
        <time>2021-03-02T09:11:53Z</time>
      </trkpt>
      <trkpt lat="36.8378190" lon="-2.9399740">
        <ele>320.4</ele>
        <time>2021-03-02T09:11:54Z</time>
      </trkpt>
      <trkpt lat="36.8378510" lon="-2.9400330">
        <ele>320.6</ele>
        <time>2021-03-02T09:11:55Z</time>
      </trkpt>
      <trkpt lat="36.8378850" lon="-2.9400910">
        <ele>321.0</ele>
        <time>2021-03-02T09:11:56Z</time>
      </trkpt>
      <trkpt lat="36.8379170" lon="-2.9401520">
        <ele>321.0</ele>
        <time>2021-03-02T09:11:57Z</time>
      </trkpt>
      <trkpt lat="36.8379450" lon="-2.9402140">
        <ele>321.2</ele>
        <time>2021-03-02T09:11:58Z</time>
      </trkpt>
      <trkpt lat="36.8379740" lon="-2.9402770">
        <ele>321.4</ele>
        <time>2021-03-02T09:11:59Z</time>
      </trkpt>
      <trkpt lat="36.8380030" lon="-2.9403390">
        <ele>321.4</ele>
        <time>2021-03-02T09:12:00Z</time>
      </trkpt>
      <trkpt lat="36.8380330" lon="-2.9404030">
        <ele>321.6</ele>
        <time>2021-03-02T09:12:01Z</time>
      </trkpt>
      <trkpt lat="36.8380630" lon="-2.9404650">
        <ele>321.6</ele>
        <time>2021-03-02T09:12:02Z</time>
      </trkpt>
      <trkpt lat="36.8380940" lon="-2.9405260">
        <ele>321.6</ele>
        <time>2021-03-02T09:12:03Z</time>
      </trkpt>
      <trkpt lat="36.8381260" lon="-2.9405870">
        <ele>321.8</ele>
        <time>2021-03-02T09:12:04Z</time>
      </trkpt>
      <trkpt lat="36.8381610" lon="-2.9406470">
        <ele>321.8</ele>
        <time>2021-03-02T09:12:05Z</time>
      </trkpt>
      <trkpt lat="36.8381970" lon="-2.9407050">
        <ele>322.0</ele>
        <time>2021-03-02T09:12:06Z</time>
      </trkpt>
      <trkpt lat="36.8382360" lon="-2.9407610">
        <ele>322.0</ele>
        <time>2021-03-02T09:12:07Z</time>
      </trkpt>
      <trkpt lat="36.8382760" lon="-2.9408150">
        <ele>322.2</ele>
        <time>2021-03-02T09:12:08Z</time>
      </trkpt>
      <trkpt lat="36.8383180" lon="-2.9408660">
        <ele>322.4</ele>
        <time>2021-03-02T09:12:09Z</time>
      </trkpt>
      <trkpt lat="36.8383620" lon="-2.9409170">
        <ele>322.4</ele>
        <time>2021-03-02T09:12:10Z</time>
      </trkpt>
      <trkpt lat="36.8384070" lon="-2.9409680">
        <ele>322.4</ele>
        <time>2021-03-02T09:12:11Z</time>
      </trkpt>
      <trkpt lat="36.8384550" lon="-2.9410160">
        <ele>322.4</ele>
        <time>2021-03-02T09:12:12Z</time>
      </trkpt>
      <trkpt lat="36.8385030" lon="-2.9410630">
        <ele>322.4</ele>
        <time>2021-03-02T09:12:13Z</time>
      </trkpt>
      <trkpt lat="36.8385530" lon="-2.9411090">
        <ele>322.4</ele>
        <time>2021-03-02T09:12:14Z</time>
      </trkpt>
      <trkpt lat="36.8386030" lon="-2.9411530">
        <ele>322.4</ele>
        <time>2021-03-02T09:12:15Z</time>
      </trkpt>
      <trkpt lat="36.8386540" lon="-2.9412000">
        <ele>322.4</ele>
        <time>2021-03-02T09:12:16Z</time>
      </trkpt>
      <trkpt lat="36.8387080" lon="-2.9412470">
        <ele>322.2</ele>
        <time>2021-03-02T09:12:17Z</time>
      </trkpt>
      <trkpt lat="36.8387660" lon="-2.9412960">
        <ele>322.2</ele>
        <time>2021-03-02T09:12:18Z</time>
      </trkpt>
      <trkpt lat="36.8388240" lon="-2.9413470">
        <ele>321.8</ele>
        <time>2021-03-02T09:12:19Z</time>
      </trkpt>
      <trkpt lat="36.8388810" lon="-2.9413990">
        <ele>321.8</ele>
        <time>2021-03-02T09:12:20Z</time>
      </trkpt>
      <trkpt lat="36.8389340" lon="-2.9414490">
        <ele>321.8</ele>
        <time>2021-03-02T09:12:21Z</time>
      </trkpt>
      <trkpt lat="36.8389820" lon="-2.9414970">
        <ele>321.8</ele>
        <time>2021-03-02T09:12:22Z</time>
      </trkpt>
      <trkpt lat="36.8390270" lon="-2.9415450">
        <ele>321.8</ele>
        <time>2021-03-02T09:12:23Z</time>
      </trkpt>
      <trkpt lat="36.8390670" lon="-2.9415930">
        <ele>322.0</ele>
        <time>2021-03-02T09:12:24Z</time>
      </trkpt>
      <trkpt lat="36.8391050" lon="-2.9416440">
        <ele>322.4</ele>
        <time>2021-03-02T09:12:25Z</time>
      </trkpt>
      <trkpt lat="36.8391400" lon="-2.9416980">
        <ele>322.4</ele>
        <time>2021-03-02T09:12:26Z</time>
      </trkpt>
      <trkpt lat="36.8391770" lon="-2.9417560">
        <ele>322.4</ele>
        <time>2021-03-02T09:12:27Z</time>
      </trkpt>
      <trkpt lat="36.8392150" lon="-2.9418170">
        <ele>322.4</ele>
        <time>2021-03-02T09:12:28Z</time>
      </trkpt>
      <trkpt lat="36.8392540" lon="-2.9418800">
        <ele>322.2</ele>
        <time>2021-03-02T09:12:29Z</time>
      </trkpt>
      <trkpt lat="36.8392940" lon="-2.9419450">
        <ele>322.0</ele>
        <time>2021-03-02T09:12:30Z</time>
      </trkpt>
      <trkpt lat="36.8393350" lon="-2.9420090">
        <ele>321.8</ele>
        <time>2021-03-02T09:12:31Z</time>
      </trkpt>
      <trkpt lat="36.8393750" lon="-2.9420750">
        <ele>321.6</ele>
        <time>2021-03-02T09:12:32Z</time>
      </trkpt>
      <trkpt lat="36.8394150" lon="-2.9421420">
        <ele>321.4</ele>
        <time>2021-03-02T09:12:33Z</time>
      </trkpt>
      <trkpt lat="36.8394530" lon="-2.9422100">
        <ele>321.0</ele>
        <time>2021-03-02T09:12:34Z</time>
      </trkpt>
      <trkpt lat="36.8394930" lon="-2.9422810">
        <ele>320.8</ele>
        <time>2021-03-02T09:12:35Z</time>
      </trkpt>
      <trkpt lat="36.8395350" lon="-2.9423510">
        <ele>320.6</ele>
        <time>2021-03-02T09:12:36Z</time>
      </trkpt>
      <trkpt lat="36.8395790" lon="-2.9424230">
        <ele>320.4</ele>
        <time>2021-03-02T09:12:37Z</time>
      </trkpt>
      <trkpt lat="36.8396230" lon="-2.9424940">
        <ele>320.2</ele>
        <time>2021-03-02T09:12:38Z</time>
      </trkpt>
      <trkpt lat="36.8396670" lon="-2.9425650">
        <ele>320.0</ele>
        <time>2021-03-02T09:12:39Z</time>
      </trkpt>
      <trkpt lat="36.8397110" lon="-2.9426360">
        <ele>320.0</ele>
        <time>2021-03-02T09:12:40Z</time>
      </trkpt>
      <trkpt lat="36.8397550" lon="-2.9427080">
        <ele>319.8</ele>
        <time>2021-03-02T09:12:41Z</time>
      </trkpt>
      <trkpt lat="36.8397950" lon="-2.9427860">
        <ele>319.6</ele>
        <time>2021-03-02T09:12:42Z</time>
      </trkpt>
      <trkpt lat="36.8398390" lon="-2.9428590">
        <ele>319.6</ele>
        <time>2021-03-02T09:12:43Z</time>
      </trkpt>
      <trkpt lat="36.8398850" lon="-2.9429320">
        <ele>319.2</ele>
        <time>2021-03-02T09:12:44Z</time>
      </trkpt>
      <trkpt lat="36.8399320" lon="-2.9430040">
        <ele>319.2</ele>
        <time>2021-03-02T09:12:45Z</time>
      </trkpt>
      <trkpt lat="36.8399770" lon="-2.9430750">
        <ele>319.0</ele>
        <time>2021-03-02T09:12:46Z</time>
      </trkpt>
      <trkpt lat="36.8400230" lon="-2.9431460">
        <ele>318.8</ele>
        <time>2021-03-02T09:12:47Z</time>
      </trkpt>
      <trkpt lat="36.8400680" lon="-2.9432180">
        <ele>318.6</ele>
        <time>2021-03-02T09:12:48Z</time>
      </trkpt>
      <trkpt lat="36.8401110" lon="-2.9432950">
        <ele>318.6</ele>
        <time>2021-03-02T09:12:49Z</time>
      </trkpt>
      <trkpt lat="36.8401520" lon="-2.9433750">
        <ele>318.4</ele>
        <time>2021-03-02T09:12:50Z</time>
      </trkpt>
      <trkpt lat="36.8401960" lon="-2.9434470">
        <ele>318.2</ele>
        <time>2021-03-02T09:12:51Z</time>
      </trkpt>
      <trkpt lat="36.8402400" lon="-2.9435180">
        <ele>318.2</ele>
        <time>2021-03-02T09:12:52Z</time>
      </trkpt>
      <trkpt lat="36.8402830" lon="-2.9435890">
        <ele>318.2</ele>
        <time>2021-03-02T09:12:53Z</time>
      </trkpt>
      <trkpt lat="36.8403240" lon="-2.9436530">
        <ele>318.0</ele>
        <time>2021-03-02T09:12:54Z</time>
      </trkpt>
      <trkpt lat="36.8403630" lon="-2.9437100">
        <ele>317.8</ele>
        <time>2021-03-02T09:12:55Z</time>
      </trkpt>
      <trkpt lat="36.8403970" lon="-2.9437600">
        <ele>317.8</ele>
        <time>2021-03-02T09:12:56Z</time>
      </trkpt>
      <trkpt lat="36.8404210" lon="-2.9438100">
        <ele>317.8</ele>
        <time>2021-03-02T09:12:57Z</time>
      </trkpt>
      <trkpt lat="36.8404400" lon="-2.9438550">
        <ele>317.6</ele>
        <time>2021-03-02T09:12:58Z</time>
      </trkpt>
      <trkpt lat="36.8404520" lon="-2.9439080">
        <ele>317.6</ele>
        <time>2021-03-02T09:12:59Z</time>
      </trkpt>
      <trkpt lat="36.8404750" lon="-2.9439430">
        <ele>317.6</ele>
        <time>2021-03-02T09:13:00Z</time>
      </trkpt>
      <trkpt lat="36.8404970" lon="-2.9439800">
        <ele>317.6</ele>
        <time>2021-03-02T09:13:01Z</time>
      </trkpt>
      <trkpt lat="36.8405190" lon="-2.9440220">
        <ele>317.6</ele>
        <time>2021-03-02T09:13:02Z</time>
      </trkpt>
      <trkpt lat="36.8405460" lon="-2.9440630">
        <ele>317.6</ele>
        <time>2021-03-02T09:13:03Z</time>
      </trkpt>
      <trkpt lat="36.8405760" lon="-2.9441070">
        <ele>317.4</ele>
        <time>2021-03-02T09:13:04Z</time>
      </trkpt>
      <trkpt lat="36.8406070" lon="-2.9441550">
        <ele>317.4</ele>
        <time>2021-03-02T09:13:05Z</time>
      </trkpt>
      <trkpt lat="36.8406400" lon="-2.9442030">
        <ele>317.2</ele>
        <time>2021-03-02T09:13:06Z</time>
      </trkpt>
      <trkpt lat="36.8406730" lon="-2.9442530">
        <ele>317.2</ele>
        <time>2021-03-02T09:13:07Z</time>
      </trkpt>
      <trkpt lat="36.8407070" lon="-2.9443020">
        <ele>317.2</ele>
        <time>2021-03-02T09:13:08Z</time>
      </trkpt>
      <trkpt lat="36.8407380" lon="-2.9443530">
        <ele>317.2</ele>
        <time>2021-03-02T09:13:09Z</time>
      </trkpt>
      <trkpt lat="36.8407750" lon="-2.9443900">
        <ele>317.2</ele>
        <time>2021-03-02T09:13:10Z</time>
      </trkpt>
      <trkpt lat="36.8408090" lon="-2.9444200">
        <ele>317.2</ele>
        <time>2021-03-02T09:13:11Z</time>
      </trkpt>
      <trkpt lat="36.8408410" lon="-2.9444490">
        <ele>317.4</ele>
        <time>2021-03-02T09:13:12Z</time>
      </trkpt>
      <trkpt lat="36.8408720" lon="-2.9444800">
        <ele>317.4</ele>
        <time>2021-03-02T09:13:13Z</time>
      </trkpt>
      <trkpt lat="36.8409000" lon="-2.9445140">
        <ele>317.4</ele>
        <time>2021-03-02T09:13:14Z</time>
      </trkpt>
      <trkpt lat="36.8409290" lon="-2.9445510">
        <ele>317.4</ele>
        <time>2021-03-02T09:13:15Z</time>
      </trkpt>
      <trkpt lat="36.8409590" lon="-2.9445890">
        <ele>317.4</ele>
        <time>2021-03-02T09:13:16Z</time>
      </trkpt>
      <trkpt lat="36.8409900" lon="-2.9446280">
        <ele>317.4</ele>
        <time>2021-03-02T09:13:17Z</time>
      </trkpt>
      <trkpt lat="36.8410250" lon="-2.9446690">
        <ele>317.4</ele>
        <time>2021-03-02T09:13:18Z</time>
      </trkpt>
      <trkpt lat="36.8410600" lon="-2.9447120">
        <ele>317.2</ele>
        <time>2021-03-02T09:13:19Z</time>
      </trkpt>
      <trkpt lat="36.8411000" lon="-2.9447610">
        <ele>317.2</ele>
        <time>2021-03-02T09:13:20Z</time>
      </trkpt>
      <trkpt lat="36.8411410" lon="-2.9448080">
        <ele>317.2</ele>
        <time>2021-03-02T09:13:21Z</time>
      </trkpt>
      <trkpt lat="36.8411790" lon="-2.9448570">
        <ele>317.2</ele>
        <time>2021-03-02T09:13:22Z</time>
      </trkpt>
      <trkpt lat="36.8412160" lon="-2.9449110">
        <ele>317.2</ele>
        <time>2021-03-02T09:13:23Z</time>
      </trkpt>
      <trkpt lat="36.8412550" lon="-2.9449640">
        <ele>317.2</ele>
        <time>2021-03-02T09:13:24Z</time>
      </trkpt>
      <trkpt lat="36.8412970" lon="-2.9450180">
        <ele>317.2</ele>
        <time>2021-03-02T09:13:25Z</time>
      </trkpt>
      <trkpt lat="36.8413380" lon="-2.9450720">
        <ele>317.2</ele>
        <time>2021-03-02T09:13:26Z</time>
      </trkpt>
      <trkpt lat="36.8413800" lon="-2.9451220">
        <ele>317.0</ele>
        <time>2021-03-02T09:13:27Z</time>
      </trkpt>
      <trkpt lat="36.8414240" lon="-2.9451760">
        <ele>317.0</ele>
        <time>2021-03-02T09:13:28Z</time>
      </trkpt>
      <trkpt lat="36.8414670" lon="-2.9452280">
        <ele>317.0</ele>
        <time>2021-03-02T09:13:29Z</time>
      </trkpt>
      <trkpt lat="36.8415110" lon="-2.9452780">
        <ele>317.0</ele>
        <time>2021-03-02T09:13:30Z</time>
      </trkpt>
      <trkpt lat="36.8415540" lon="-2.9453250">
        <ele>317.0</ele>
        <time>2021-03-02T09:13:31Z</time>
      </trkpt>
      <trkpt lat="36.8415970" lon="-2.9453740">
        <ele>317.0</ele>
        <time>2021-03-02T09:13:32Z</time>
      </trkpt>
      <trkpt lat="36.8416390" lon="-2.9454230">
        <ele>317.0</ele>
        <time>2021-03-02T09:13:33Z</time>
      </trkpt>
      <trkpt lat="36.8416820" lon="-2.9454720">
        <ele>317.2</ele>
        <time>2021-03-02T09:13:34Z</time>
      </trkpt>
      <trkpt lat="36.8417230" lon="-2.9455200">
        <ele>317.2</ele>
        <time>2021-03-02T09:13:35Z</time>
      </trkpt>
      <trkpt lat="36.8417660" lon="-2.9455640">
        <ele>317.4</ele>
        <time>2021-03-02T09:13:36Z</time>
      </trkpt>
      <trkpt lat="36.8417980" lon="-2.9456240">
        <ele>317.4</ele>
        <time>2021-03-02T09:13:37Z</time>
      </trkpt>
      <trkpt lat="36.8418410" lon="-2.9456600">
        <ele>317.8</ele>
        <time>2021-03-02T09:13:38Z</time>
      </trkpt>
      <trkpt lat="36.8418870" lon="-2.9456900">
        <ele>318.0</ele>
        <time>2021-03-02T09:13:39Z</time>
      </trkpt>
      <trkpt lat="36.8419300" lon="-2.9457200">
        <ele>318.4</ele>
        <time>2021-03-02T09:13:40Z</time>
      </trkpt>
      <trkpt lat="36.8419700" lon="-2.9457580">
        <ele>318.8</ele>
        <time>2021-03-02T09:13:41Z</time>
      </trkpt>
      <trkpt lat="36.8420070" lon="-2.9457980">
        <ele>319.0</ele>
        <time>2021-03-02T09:13:42Z</time>
      </trkpt>
      <trkpt lat="36.8420420" lon="-2.9458370">
        <ele>319.2</ele>
        <time>2021-03-02T09:13:43Z</time>
      </trkpt>
      <trkpt lat="36.8420780" lon="-2.9458740">
        <ele>319.4</ele>
        <time>2021-03-02T09:13:44Z</time>
      </trkpt>
      <trkpt lat="36.8421130" lon="-2.9459120">
        <ele>319.6</ele>
        <time>2021-03-02T09:13:45Z</time>
      </trkpt>
      <trkpt lat="36.8421480" lon="-2.9459480">
        <ele>319.8</ele>
        <time>2021-03-02T09:13:46Z</time>
      </trkpt>
      <trkpt lat="36.8421850" lon="-2.9459880">
        <ele>320.0</ele>
        <time>2021-03-02T09:13:47Z</time>
      </trkpt>
      <trkpt lat="36.8422220" lon="-2.9460220">
        <ele>320.2</ele>
        <time>2021-03-02T09:13:48Z</time>
      </trkpt>
      <trkpt lat="36.8422600" lon="-2.9460520">
        <ele>320.4</ele>
        <time>2021-03-02T09:13:49Z</time>
      </trkpt>
      <trkpt lat="36.8422980" lon="-2.9460810">
        <ele>320.6</ele>
        <time>2021-03-02T09:13:50Z</time>
      </trkpt>
      <trkpt lat="36.8423310" lon="-2.9461070">
        <ele>320.6</ele>
        <time>2021-03-02T09:13:51Z</time>
      </trkpt>
      <trkpt lat="36.8423620" lon="-2.9461280">
        <ele>321.0</ele>
        <time>2021-03-02T09:13:52Z</time>
      </trkpt>
      <trkpt lat="36.8423910" lon="-2.9461460">
        <ele>321.6</ele>
        <time>2021-03-02T09:13:53Z</time>
      </trkpt>
      <trkpt lat="36.8424170" lon="-2.9461650">
        <ele>321.8</ele>
        <time>2021-03-02T09:13:54Z</time>
      </trkpt>
      <trkpt lat="36.8424400" lon="-2.9461840">
        <ele>322.0</ele>
        <time>2021-03-02T09:13:55Z</time>
      </trkpt>
      <trkpt lat="36.8424620" lon="-2.9462060">
        <ele>322.0</ele>
        <time>2021-03-02T09:13:56Z</time>
      </trkpt>
      <trkpt lat="36.8424850" lon="-2.9462290">
        <ele>322.2</ele>
        <time>2021-03-02T09:13:57Z</time>
      </trkpt>
      <trkpt lat="36.8425090" lon="-2.9462490">
        <ele>322.4</ele>
        <time>2021-03-02T09:13:58Z</time>
      </trkpt>
      <trkpt lat="36.8425310" lon="-2.9462720">
        <ele>322.6</ele>
        <time>2021-03-02T09:13:59Z</time>
      </trkpt>
      <trkpt lat="36.8425560" lon="-2.9462960">
        <ele>322.8</ele>
        <time>2021-03-02T09:14:00Z</time>
      </trkpt>
      <trkpt lat="36.8425840" lon="-2.9463160">
        <ele>323.0</ele>
        <time>2021-03-02T09:14:01Z</time>
      </trkpt>
      <trkpt lat="36.8426090" lon="-2.9463340">
        <ele>323.0</ele>
        <time>2021-03-02T09:14:02Z</time>
      </trkpt>
      <trkpt lat="36.8426300" lon="-2.9463530">
        <ele>323.2</ele>
        <time>2021-03-02T09:14:03Z</time>
      </trkpt>
      <trkpt lat="36.8426530" lon="-2.9463750">
        <ele>323.4</ele>
        <time>2021-03-02T09:14:04Z</time>
      </trkpt>
      <trkpt lat="36.8426780" lon="-2.9463980">
        <ele>323.4</ele>
        <time>2021-03-02T09:14:05Z</time>
      </trkpt>
      <trkpt lat="36.8427050" lon="-2.9464220">
        <ele>323.6</ele>
        <time>2021-03-02T09:14:06Z</time>
      </trkpt>
      <trkpt lat="36.8427310" lon="-2.9464460">
        <ele>323.8</ele>
        <time>2021-03-02T09:14:07Z</time>
      </trkpt>
      <trkpt lat="36.8427560" lon="-2.9464720">
        <ele>323.8</ele>
        <time>2021-03-02T09:14:08Z</time>
      </trkpt>
      <trkpt lat="36.8427850" lon="-2.9464990">
        <ele>324.0</ele>
        <time>2021-03-02T09:14:09Z</time>
      </trkpt>
      <trkpt lat="36.8428110" lon="-2.9465320">
        <ele>324.2</ele>
        <time>2021-03-02T09:14:10Z</time>
      </trkpt>
      <trkpt lat="36.8428400" lon="-2.9465590">
        <ele>324.4</ele>
        <time>2021-03-02T09:14:11Z</time>
      </trkpt>
      <trkpt lat="36.8428710" lon="-2.9465810">
        <ele>324.6</ele>
        <time>2021-03-02T09:14:12Z</time>
      </trkpt>
      <trkpt lat="36.8429010" lon="-2.9466080">
        <ele>324.6</ele>
        <time>2021-03-02T09:14:13Z</time>
      </trkpt>
      <trkpt lat="36.8429300" lon="-2.9466310">
        <ele>324.8</ele>
        <time>2021-03-02T09:14:14Z</time>
      </trkpt>
      <trkpt lat="36.8429530" lon="-2.9466540">
        <ele>325.0</ele>
        <time>2021-03-02T09:14:15Z</time>
      </trkpt>
      <trkpt lat="36.8429800" lon="-2.9466700">
        <ele>325.0</ele>
        <time>2021-03-02T09:14:16Z</time>
      </trkpt>
      <trkpt lat="36.8429950" lon="-2.9466970">
        <ele>325.2</ele>
        <time>2021-03-02T09:14:17Z</time>
      </trkpt>
      <trkpt lat="36.8430090" lon="-2.9467300">
        <ele>325.2</ele>
        <time>2021-03-02T09:14:18Z</time>
      </trkpt>
      <trkpt lat="36.8430320" lon="-2.9467560">
        <ele>325.6</ele>
        <time>2021-03-02T09:14:19Z</time>
      </trkpt>
      <trkpt lat="36.8430530" lon="-2.9467830">
        <ele>325.6</ele>
        <time>2021-03-02T09:14:20Z</time>
      </trkpt>
      <trkpt lat="36.8430800" lon="-2.9468040">
        <ele>325.8</ele>
        <time>2021-03-02T09:14:21Z</time>
      </trkpt>
      <trkpt lat="36.8431110" lon="-2.9468230">
        <ele>325.8</ele>
        <time>2021-03-02T09:14:22Z</time>
      </trkpt>
      <trkpt lat="36.8431420" lon="-2.9468440">
        <ele>326.0</ele>
        <time>2021-03-02T09:14:23Z</time>
      </trkpt>
      <trkpt lat="36.8431720" lon="-2.9468660">
        <ele>326.2</ele>
        <time>2021-03-02T09:14:24Z</time>
      </trkpt>
      <trkpt lat="36.8431920" lon="-2.9468890">
        <ele>326.4</ele>
        <time>2021-03-02T09:14:25Z</time>
      </trkpt>
      <trkpt lat="36.8432180" lon="-2.9469130">
        <ele>326.6</ele>
        <time>2021-03-02T09:14:26Z</time>
      </trkpt>
      <trkpt lat="36.8432430" lon="-2.9469310">
        <ele>326.8</ele>
        <time>2021-03-02T09:14:27Z</time>
      </trkpt>
      <trkpt lat="36.8432670" lon="-2.9469480">
        <ele>327.0</ele>
        <time>2021-03-02T09:14:28Z</time>
      </trkpt>
      <trkpt lat="36.8432920" lon="-2.9469670">
        <ele>327.0</ele>
        <time>2021-03-02T09:14:29Z</time>
      </trkpt>
      <trkpt lat="36.8433160" lon="-2.9469840">
        <ele>327.2</ele>
        <time>2021-03-02T09:14:30Z</time>
      </trkpt>
      <trkpt lat="36.8433400" lon="-2.9469940">
        <ele>327.2</ele>
        <time>2021-03-02T09:14:31Z</time>
      </trkpt>
      <trkpt lat="36.8433600" lon="-2.9470000">
        <ele>327.2</ele>
        <time>2021-03-02T09:14:32Z</time>
      </trkpt>
      <trkpt lat="36.8433800" lon="-2.9470080">
        <ele>327.4</ele>
        <time>2021-03-02T09:14:33Z</time>
      </trkpt>
      <trkpt lat="36.8434040" lon="-2.9470160">
        <ele>327.4</ele>
        <time>2021-03-02T09:14:34Z</time>
      </trkpt>
      <trkpt lat="36.8434250" lon="-2.9470260">
        <ele>327.6</ele>
        <time>2021-03-02T09:14:35Z</time>
      </trkpt>
      <trkpt lat="36.8434500" lon="-2.9470380">
        <ele>327.6</ele>
        <time>2021-03-02T09:14:36Z</time>
      </trkpt>
      <trkpt lat="36.8434770" lon="-2.9470520">
        <ele>327.8</ele>
        <time>2021-03-02T09:14:37Z</time>
      </trkpt>
      <trkpt lat="36.8435110" lon="-2.9470710">
        <ele>327.8</ele>
        <time>2021-03-02T09:14:38Z</time>
      </trkpt>
      <trkpt lat="36.8435430" lon="-2.9470940">
        <ele>328.0</ele>
        <time>2021-03-02T09:14:39Z</time>
      </trkpt>
      <trkpt lat="36.8435790" lon="-2.9471190">
        <ele>328.2</ele>
        <time>2021-03-02T09:14:40Z</time>
      </trkpt>
      <trkpt lat="36.8436150" lon="-2.9471430">
        <ele>328.4</ele>
        <time>2021-03-02T09:14:41Z</time>
      </trkpt>
      <trkpt lat="36.8436540" lon="-2.9471660">
        <ele>328.6</ele>
        <time>2021-03-02T09:14:42Z</time>
      </trkpt>
      <trkpt lat="36.8436930" lon="-2.9471880">
        <ele>329.0</ele>
        <time>2021-03-02T09:14:43Z</time>
      </trkpt>
      <trkpt lat="36.8437310" lon="-2.9472120">
        <ele>329.0</ele>
        <time>2021-03-02T09:14:44Z</time>
      </trkpt>
      <trkpt lat="36.8437680" lon="-2.9472380">
        <ele>329.2</ele>
        <time>2021-03-02T09:14:45Z</time>
      </trkpt>
      <trkpt lat="36.8437980" lon="-2.9472620">
        <ele>329.4</ele>
        <time>2021-03-02T09:14:46Z</time>
      </trkpt>
      <trkpt lat="36.8438440" lon="-2.9472850">
        <ele>329.4</ele>
        <time>2021-03-02T09:14:47Z</time>
      </trkpt>
      <trkpt lat="36.8438890" lon="-2.9473090">
        <ele>329.8</ele>
        <time>2021-03-02T09:14:48Z</time>
      </trkpt>
      <trkpt lat="36.8439340" lon="-2.9473310">
        <ele>330.0</ele>
        <time>2021-03-02T09:14:49Z</time>
      </trkpt>
      <trkpt lat="36.8439770" lon="-2.9473560">
        <ele>330.4</ele>
        <time>2021-03-02T09:14:50Z</time>
      </trkpt>
      <trkpt lat="36.8440190" lon="-2.9473830">
        <ele>330.4</ele>
        <time>2021-03-02T09:14:51Z</time>
      </trkpt>
      <trkpt lat="36.8440610" lon="-2.9474090">
        <ele>330.6</ele>
        <time>2021-03-02T09:14:52Z</time>
      </trkpt>
      <trkpt lat="36.8441030" lon="-2.9474370">
        <ele>330.6</ele>
        <time>2021-03-02T09:14:53Z</time>
      </trkpt>
      <trkpt lat="36.8441440" lon="-2.9474660">
        <ele>331.0</ele>
        <time>2021-03-02T09:14:54Z</time>
      </trkpt>
      <trkpt lat="36.8441840" lon="-2.9474930">
        <ele>331.2</ele>
        <time>2021-03-02T09:14:55Z</time>
      </trkpt>
      <trkpt lat="36.8442240" lon="-2.9475200">
        <ele>331.4</ele>
        <time>2021-03-02T09:14:56Z</time>
      </trkpt>
      <trkpt lat="36.8442660" lon="-2.9475470">
        <ele>331.8</ele>
        <time>2021-03-02T09:14:57Z</time>
      </trkpt>
      <trkpt lat="36.8443060" lon="-2.9475740">
        <ele>331.8</ele>
        <time>2021-03-02T09:14:58Z</time>
      </trkpt>
      <trkpt lat="36.8443550" lon="-2.9475910">
        <ele>332.0</ele>
        <time>2021-03-02T09:14:59Z</time>
      </trkpt>
      <trkpt lat="36.8444010" lon="-2.9476120">
        <ele>332.0</ele>
        <time>2021-03-02T09:15:00Z</time>
      </trkpt>
      <trkpt lat="36.8444460" lon="-2.9476350">
        <ele>332.2</ele>
        <time>2021-03-02T09:15:01Z</time>
      </trkpt>
      <trkpt lat="36.8444870" lon="-2.9476620">
        <ele>332.6</ele>
        <time>2021-03-02T09:15:02Z</time>
      </trkpt>
      <trkpt lat="36.8445270" lon="-2.9476940">
        <ele>332.8</ele>
        <time>2021-03-02T09:15:03Z</time>
      </trkpt>
      <trkpt lat="36.8445590" lon="-2.9477290">
        <ele>333.0</ele>
        <time>2021-03-02T09:15:04Z</time>
      </trkpt>
      <trkpt lat="36.8445890" lon="-2.9477610">
        <ele>333.0</ele>
        <time>2021-03-02T09:15:05Z</time>
      </trkpt>
      <trkpt lat="36.8446240" lon="-2.9477900">
        <ele>333.2</ele>
        <time>2021-03-02T09:15:06Z</time>
      </trkpt>
      <trkpt lat="36.8446640" lon="-2.9478150">
        <ele>333.4</ele>
        <time>2021-03-02T09:15:07Z</time>
      </trkpt>
      <trkpt lat="36.8447060" lon="-2.9478390">
        <ele>333.4</ele>
        <time>2021-03-02T09:15:08Z</time>
      </trkpt>
      <trkpt lat="36.8447460" lon="-2.9478600">
        <ele>333.6</ele>
        <time>2021-03-02T09:15:09Z</time>
      </trkpt>
      <trkpt lat="36.8447840" lon="-2.9478880">
        <ele>333.6</ele>
        <time>2021-03-02T09:15:10Z</time>
      </trkpt>
      <trkpt lat="36.8448240" lon="-2.9479170">
        <ele>334.0</ele>
        <time>2021-03-02T09:15:11Z</time>
      </trkpt>
      <trkpt lat="36.8448680" lon="-2.9479420">
        <ele>334.2</ele>
        <time>2021-03-02T09:15:12Z</time>
      </trkpt>
      <trkpt lat="36.8449110" lon="-2.9479670">
        <ele>334.4</ele>
        <time>2021-03-02T09:15:13Z</time>
      </trkpt>
      <trkpt lat="36.8449590" lon="-2.9479880">
        <ele>334.4</ele>
        <time>2021-03-02T09:15:14Z</time>
      </trkpt>
      <trkpt lat="36.8449920" lon="-2.9480100">
        <ele>334.4</ele>
        <time>2021-03-02T09:15:15Z</time>
      </trkpt>
      <trkpt lat="36.8450320" lon="-2.9480360">
        <ele>334.6</ele>
        <time>2021-03-02T09:15:16Z</time>
      </trkpt>
      <trkpt lat="36.8450650" lon="-2.9480650">
        <ele>334.6</ele>
        <time>2021-03-02T09:15:17Z</time>
      </trkpt>
      <trkpt lat="36.8451070" lon="-2.9480900">
        <ele>334.8</ele>
        <time>2021-03-02T09:15:18Z</time>
      </trkpt>
      <trkpt lat="36.8451570" lon="-2.9481080">
        <ele>335.0</ele>
        <time>2021-03-02T09:15:19Z</time>
      </trkpt>
      <trkpt lat="36.8451920" lon="-2.9481270">
        <ele>335.2</ele>
        <time>2021-03-02T09:15:20Z</time>
      </trkpt>
      <trkpt lat="36.8452280" lon="-2.9481500">
        <ele>335.2</ele>
        <time>2021-03-02T09:15:21Z</time>
      </trkpt>
      <trkpt lat="36.8452750" lon="-2.9481690">
        <ele>335.4</ele>
        <time>2021-03-02T09:15:22Z</time>
      </trkpt>
      <trkpt lat="36.8453230" lon="-2.9481990">
        <ele>335.4</ele>
        <time>2021-03-02T09:15:23Z</time>
      </trkpt>
      <trkpt lat="36.8453670" lon="-2.9482280">
        <ele>335.6</ele>
        <time>2021-03-02T09:15:24Z</time>
      </trkpt>
      <trkpt lat="36.8454120" lon="-2.9482600">
        <ele>335.6</ele>
        <time>2021-03-02T09:15:25Z</time>
      </trkpt>
      <trkpt lat="36.8454610" lon="-2.9482860">
        <ele>335.8</ele>
        <time>2021-03-02T09:15:26Z</time>
      </trkpt>
      <trkpt lat="36.8455050" lon="-2.9483110">
        <ele>336.0</ele>
        <time>2021-03-02T09:15:27Z</time>
      </trkpt>
      <trkpt lat="36.8455480" lon="-2.9483370">
        <ele>336.2</ele>
        <time>2021-03-02T09:15:28Z</time>
      </trkpt>
      <trkpt lat="36.8455930" lon="-2.9483600">
        <ele>336.4</ele>
        <time>2021-03-02T09:15:29Z</time>
      </trkpt>
      <trkpt lat="36.8456370" lon="-2.9483900">
        <ele>336.6</ele>
        <time>2021-03-02T09:15:30Z</time>
      </trkpt>
      <trkpt lat="36.8456830" lon="-2.9484120">
        <ele>336.6</ele>
        <time>2021-03-02T09:15:31Z</time>
      </trkpt>
      <trkpt lat="36.8457330" lon="-2.9484310">
        <ele>336.6</ele>
        <time>2021-03-02T09:15:32Z</time>
      </trkpt>
      <trkpt lat="36.8457770" lon="-2.9484530">
        <ele>336.8</ele>
        <time>2021-03-02T09:15:33Z</time>
      </trkpt>
      <trkpt lat="36.8458260" lon="-2.9484740">
        <ele>337.0</ele>
        <time>2021-03-02T09:15:34Z</time>
      </trkpt>
      <trkpt lat="36.8458760" lon="-2.9484940">
        <ele>337.2</ele>
        <time>2021-03-02T09:15:35Z</time>
      </trkpt>
      <trkpt lat="36.8459130" lon="-2.9485210">
        <ele>337.2</ele>
        <time>2021-03-02T09:15:36Z</time>
      </trkpt>
      <trkpt lat="36.8459430" lon="-2.9485440">
        <ele>337.2</ele>
        <time>2021-03-02T09:15:37Z</time>
      </trkpt>
      <trkpt lat="36.8459750" lon="-2.9485690">
        <ele>337.4</ele>
        <time>2021-03-02T09:15:38Z</time>
      </trkpt>
      <trkpt lat="36.8460210" lon="-2.9485710">
        <ele>337.4</ele>
        <time>2021-03-02T09:15:39Z</time>
      </trkpt>
      <trkpt lat="36.8460620" lon="-2.9485920">
        <ele>337.6</ele>
        <time>2021-03-02T09:15:40Z</time>
      </trkpt>
      <trkpt lat="36.8460920" lon="-2.9486200">
        <ele>337.6</ele>
        <time>2021-03-02T09:15:41Z</time>
      </trkpt>
      <trkpt lat="36.8461300" lon="-2.9486420">
        <ele>337.6</ele>
        <time>2021-03-02T09:15:42Z</time>
      </trkpt>
      <trkpt lat="36.8461690" lon="-2.9486670">
        <ele>337.6</ele>
        <time>2021-03-02T09:15:43Z</time>
      </trkpt>
      <trkpt lat="36.8462030" lon="-2.9486940">
        <ele>337.8</ele>
        <time>2021-03-02T09:15:44Z</time>
      </trkpt>
      <trkpt lat="36.8462230" lon="-2.9487210">
        <ele>337.8</ele>
        <time>2021-03-02T09:15:45Z</time>
      </trkpt>
      <trkpt lat="36.8462770" lon="-2.9487190">
        <ele>338.0</ele>
        <time>2021-03-02T09:15:46Z</time>
      </trkpt>
      <trkpt lat="36.8463320" lon="-2.9487290">
        <ele>338.0</ele>
        <time>2021-03-02T09:15:47Z</time>
      </trkpt>
      <trkpt lat="36.8463630" lon="-2.9487650">
        <ele>338.0</ele>
        <time>2021-03-02T09:15:48Z</time>
      </trkpt>
      <trkpt lat="36.8463800" lon="-2.9488060">
        <ele>338.0</ele>
        <time>2021-03-02T09:15:49Z</time>
      </trkpt>
      <trkpt lat="36.8463810" lon="-2.9488460">
        <ele>338.0</ele>
        <time>2021-03-02T09:15:50Z</time>
      </trkpt>
      <trkpt lat="36.8463720" lon="-2.9488870">
        <ele>338.0</ele>
        <time>2021-03-02T09:15:51Z</time>
      </trkpt>
      <trkpt lat="36.8463560" lon="-2.9489340">
        <ele>337.8</ele>
        <time>2021-03-02T09:15:52Z</time>
      </trkpt>
      <trkpt lat="36.8462880" lon="-2.9489820">
        <ele>337.8</ele>
        <time>2021-03-02T09:15:53Z</time>
      </trkpt>
      <trkpt lat="36.8462030" lon="-2.9490310">
        <ele>337.6</ele>
        <time>2021-03-02T09:15:54Z</time>
      </trkpt>
      <trkpt lat="36.8461810" lon="-2.9490720">
        <ele>337.6</ele>
        <time>2021-03-02T09:15:55Z</time>
      </trkpt>
      <trkpt lat="36.8461620" lon="-2.9491220">
        <ele>337.6</ele>
        <time>2021-03-02T09:15:56Z</time>
      </trkpt>
      <trkpt lat="36.8461540" lon="-2.9491790">
        <ele>337.4</ele>
        <time>2021-03-02T09:15:57Z</time>
      </trkpt>
      <trkpt lat="36.8461520" lon="-2.9492400">
        <ele>337.4</ele>
        <time>2021-03-02T09:15:58Z</time>
      </trkpt>
      <trkpt lat="36.8461740" lon="-2.9492950">
        <ele>337.2</ele>
        <time>2021-03-02T09:15:59Z</time>
      </trkpt>
      <trkpt lat="36.8462220" lon="-2.9493510">
        <ele>337.0</ele>
        <time>2021-03-02T09:16:00Z</time>
      </trkpt>
      <trkpt lat="36.8462830" lon="-2.9493980">
        <ele>336.6</ele>
        <time>2021-03-02T09:16:01Z</time>
      </trkpt>
      <trkpt lat="36.8463290" lon="-2.9494450">
        <ele>336.6</ele>
        <time>2021-03-02T09:16:02Z</time>
      </trkpt>
      <trkpt lat="36.8463650" lon="-2.9494910">
        <ele>336.4</ele>
        <time>2021-03-02T09:16:03Z</time>
      </trkpt>
      <trkpt lat="36.8464010" lon="-2.9495260">
        <ele>336.2</ele>
        <time>2021-03-02T09:16:04Z</time>
      </trkpt>
      <trkpt lat="36.8464300" lon="-2.9495500">
        <ele>336.2</ele>
        <time>2021-03-02T09:16:05Z</time>
      </trkpt>
      <trkpt lat="36.8464550" lon="-2.9495670">
        <ele>336.2</ele>
        <time>2021-03-02T09:16:06Z</time>
      </trkpt>
      <trkpt lat="36.8464790" lon="-2.9495800">
        <ele>336.2</ele>
        <time>2021-03-02T09:16:07Z</time>
      </trkpt>
      <trkpt lat="36.8464700" lon="-2.9496110">
        <ele>336.2</ele>
        <time>2021-03-02T09:16:08Z</time>
      </trkpt>
      <trkpt lat="36.8465010" lon="-2.9496290">
        <ele>336.4</ele>
        <time>2021-03-02T09:16:09Z</time>
      </trkpt>
      <trkpt lat="36.8465310" lon="-2.9496440">
        <ele>336.4</ele>
        <time>2021-03-02T09:16:10Z</time>
      </trkpt>
      <trkpt lat="36.8465480" lon="-2.9496610">
        <ele>336.4</ele>
        <time>2021-03-02T09:16:11Z</time>
      </trkpt>
      <trkpt lat="36.8465720" lon="-2.9496780">
        <ele>336.4</ele>
        <time>2021-03-02T09:16:12Z</time>
      </trkpt>
      <trkpt lat="36.8465900" lon="-2.9496930">
        <ele>336.4</ele>
        <time>2021-03-02T09:16:13Z</time>
      </trkpt>
      <trkpt lat="36.8466120" lon="-2.9497070">
        <ele>336.4</ele>
        <time>2021-03-02T09:16:14Z</time>
      </trkpt>
      <trkpt lat="36.8466260" lon="-2.9497180">
        <ele>336.4</ele>
        <time>2021-03-02T09:16:15Z</time>
      </trkpt>
      <trkpt lat="36.8466480" lon="-2.9497300">
        <ele>336.4</ele>
        <time>2021-03-02T09:16:16Z</time>
      </trkpt>
      <trkpt lat="36.8466670" lon="-2.9497430">
        <ele>336.4</ele>
        <time>2021-03-02T09:16:17Z</time>
      </trkpt>
      <trkpt lat="36.8466870" lon="-2.9497590">
        <ele>336.6</ele>
        <time>2021-03-02T09:16:18Z</time>
      </trkpt>
      <trkpt lat="36.8466920" lon="-2.9497990">
        <ele>336.6</ele>
        <time>2021-03-02T09:16:19Z</time>
      </trkpt>
      <trkpt lat="36.8467100" lon="-2.9498190">
        <ele>336.6</ele>
        <time>2021-03-02T09:16:20Z</time>
      </trkpt>
      <trkpt lat="36.8467280" lon="-2.9498340">
        <ele>336.6</ele>
        <time>2021-03-02T09:16:21Z</time>
      </trkpt>
      <trkpt lat="36.8467420" lon="-2.9498480">
        <ele>336.6</ele>
        <time>2021-03-02T09:16:22Z</time>
      </trkpt>
      <trkpt lat="36.8467530" lon="-2.9498670">
        <ele>336.6</ele>
        <time>2021-03-02T09:16:23Z</time>
      </trkpt>
      <trkpt lat="36.8467660" lon="-2.9498860">
        <ele>336.6</ele>
        <time>2021-03-02T09:16:24Z</time>
      </trkpt>
      <trkpt lat="36.8467810" lon="-2.9499000">
        <ele>336.6</ele>
        <time>2021-03-02T09:16:25Z</time>
      </trkpt>
      <trkpt lat="36.8467950" lon="-2.9499200">
        <ele>336.4</ele>
        <time>2021-03-02T09:16:26Z</time>
      </trkpt>
      <trkpt lat="36.8468150" lon="-2.9499460">
        <ele>336.4</ele>
        <time>2021-03-02T09:16:27Z</time>
      </trkpt>
      <trkpt lat="36.8468480" lon="-2.9499670">
        <ele>336.2</ele>
        <time>2021-03-02T09:16:28Z</time>
      </trkpt>
      <trkpt lat="36.8468810" lon="-2.9499950">
        <ele>336.2</ele>
        <time>2021-03-02T09:16:29Z</time>
      </trkpt>
      <trkpt lat="36.8469180" lon="-2.9500240">
        <ele>336.2</ele>
        <time>2021-03-02T09:16:30Z</time>
      </trkpt>
      <trkpt lat="36.8469600" lon="-2.9500550">
        <ele>336.2</ele>
        <time>2021-03-02T09:16:31Z</time>
      </trkpt>
      <trkpt lat="36.8470040" lon="-2.9500820">
        <ele>336.0</ele>
        <time>2021-03-02T09:16:32Z</time>
      </trkpt>
      <trkpt lat="36.8470470" lon="-2.9501090">
        <ele>336.0</ele>
        <time>2021-03-02T09:16:33Z</time>
      </trkpt>
      <trkpt lat="36.8470890" lon="-2.9501350">
        <ele>336.2</ele>
        <time>2021-03-02T09:16:34Z</time>
      </trkpt>
      <trkpt lat="36.8471270" lon="-2.9501710">
        <ele>336.2</ele>
        <time>2021-03-02T09:16:35Z</time>
      </trkpt>
      <trkpt lat="36.8471690" lon="-2.9502060">
        <ele>336.2</ele>
        <time>2021-03-02T09:16:36Z</time>
      </trkpt>
      <trkpt lat="36.8472120" lon="-2.9502360">
        <ele>336.4</ele>
        <time>2021-03-02T09:16:37Z</time>
      </trkpt>
      <trkpt lat="36.8472580" lon="-2.9502640">
        <ele>336.4</ele>
        <time>2021-03-02T09:16:38Z</time>
      </trkpt>
      <trkpt lat="36.8473050" lon="-2.9502910">
        <ele>336.6</ele>
        <time>2021-03-02T09:16:39Z</time>
      </trkpt>
      <trkpt lat="36.8473500" lon="-2.9503190">
        <ele>336.6</ele>
        <time>2021-03-02T09:16:40Z</time>
      </trkpt>
      <trkpt lat="36.8473920" lon="-2.9503460">
        <ele>336.8</ele>
        <time>2021-03-02T09:16:41Z</time>
      </trkpt>
      <trkpt lat="36.8474350" lon="-2.9503780">
        <ele>336.8</ele>
        <time>2021-03-02T09:16:42Z</time>
      </trkpt>
      <trkpt lat="36.8474770" lon="-2.9504060">
        <ele>336.8</ele>
        <time>2021-03-02T09:16:43Z</time>
      </trkpt>
      <trkpt lat="36.8475220" lon="-2.9504350">
        <ele>337.0</ele>
        <time>2021-03-02T09:16:44Z</time>
      </trkpt>
      <trkpt lat="36.8475640" lon="-2.9504670">
        <ele>337.0</ele>
        <time>2021-03-02T09:16:45Z</time>
      </trkpt>
      <trkpt lat="36.8476070" lon="-2.9505000">
        <ele>337.0</ele>
        <time>2021-03-02T09:16:46Z</time>
      </trkpt>
      <trkpt lat="36.8476510" lon="-2.9505320">
        <ele>337.0</ele>
        <time>2021-03-02T09:16:47Z</time>
      </trkpt>
      <trkpt lat="36.8476970" lon="-2.9505650">
        <ele>337.0</ele>
        <time>2021-03-02T09:16:48Z</time>
      </trkpt>
      <trkpt lat="36.8477400" lon="-2.9505970">
        <ele>337.2</ele>
        <time>2021-03-02T09:16:49Z</time>
      </trkpt>
      <trkpt lat="36.8477860" lon="-2.9506300">
        <ele>337.4</ele>
        <time>2021-03-02T09:16:50Z</time>
      </trkpt>
      <trkpt lat="36.8478280" lon="-2.9506660">
        <ele>337.6</ele>
        <time>2021-03-02T09:16:51Z</time>
      </trkpt>
      <trkpt lat="36.8478670" lon="-2.9507030">
        <ele>337.6</ele>
        <time>2021-03-02T09:16:52Z</time>
      </trkpt>
      <trkpt lat="36.8479080" lon="-2.9507430">
        <ele>337.8</ele>
        <time>2021-03-02T09:16:53Z</time>
      </trkpt>
      <trkpt lat="36.8479440" lon="-2.9507830">
        <ele>337.8</ele>
        <time>2021-03-02T09:16:54Z</time>
      </trkpt>
      <trkpt lat="36.8479830" lon="-2.9508180">
        <ele>337.8</ele>
        <time>2021-03-02T09:16:55Z</time>
      </trkpt>
      <trkpt lat="36.8480210" lon="-2.9508530">
        <ele>338.0</ele>
        <time>2021-03-02T09:16:56Z</time>
      </trkpt>
      <trkpt lat="36.8480560" lon="-2.9508920">
        <ele>338.0</ele>
        <time>2021-03-02T09:16:57Z</time>
      </trkpt>
      <trkpt lat="36.8480940" lon="-2.9509270">
        <ele>338.0</ele>
        <time>2021-03-02T09:16:58Z</time>
      </trkpt>
      <trkpt lat="36.8481320" lon="-2.9509610">
        <ele>338.2</ele>
        <time>2021-03-02T09:16:59Z</time>
      </trkpt>
      <trkpt lat="36.8481710" lon="-2.9509950">
        <ele>338.2</ele>
        <time>2021-03-02T09:17:00Z</time>
      </trkpt>
      <trkpt lat="36.8482090" lon="-2.9510300">
        <ele>338.4</ele>
        <time>2021-03-02T09:17:01Z</time>
      </trkpt>
      <trkpt lat="36.8482470" lon="-2.9510640">
        <ele>338.4</ele>
        <time>2021-03-02T09:17:02Z</time>
      </trkpt>
      <trkpt lat="36.8482880" lon="-2.9510990">
        <ele>338.6</ele>
        <time>2021-03-02T09:17:03Z</time>
      </trkpt>
      <trkpt lat="36.8483290" lon="-2.9511330">
        <ele>338.6</ele>
        <time>2021-03-02T09:17:04Z</time>
      </trkpt>
      <trkpt lat="36.8483690" lon="-2.9511680">
        <ele>338.8</ele>
        <time>2021-03-02T09:17:05Z</time>
      </trkpt>
      <trkpt lat="36.8484100" lon="-2.9512000">
        <ele>338.8</ele>
        <time>2021-03-02T09:17:06Z</time>
      </trkpt>
      <trkpt lat="36.8484510" lon="-2.9512340">
        <ele>339.0</ele>
        <time>2021-03-02T09:17:07Z</time>
      </trkpt>
      <trkpt lat="36.8484920" lon="-2.9512690">
        <ele>339.2</ele>
        <time>2021-03-02T09:17:08Z</time>
      </trkpt>
      <trkpt lat="36.8485310" lon="-2.9513070">
        <ele>339.2</ele>
        <time>2021-03-02T09:17:09Z</time>
      </trkpt>
      <trkpt lat="36.8485710" lon="-2.9513480">
        <ele>339.4</ele>
        <time>2021-03-02T09:17:10Z</time>
      </trkpt>
      <trkpt lat="36.8486070" lon="-2.9513880">
        <ele>339.6</ele>
        <time>2021-03-02T09:17:11Z</time>
      </trkpt>
      <trkpt lat="36.8486430" lon="-2.9514260">
        <ele>339.6</ele>
        <time>2021-03-02T09:17:12Z</time>
      </trkpt>
      <trkpt lat="36.8486790" lon="-2.9514630">
        <ele>339.8</ele>
        <time>2021-03-02T09:17:13Z</time>
      </trkpt>
      <trkpt lat="36.8487170" lon="-2.9514980">
        <ele>339.8</ele>
        <time>2021-03-02T09:17:14Z</time>
      </trkpt>
      <trkpt lat="36.8487540" lon="-2.9515340">
        <ele>340.0</ele>
        <time>2021-03-02T09:17:15Z</time>
      </trkpt>
      <trkpt lat="36.8487890" lon="-2.9515740">
        <ele>340.0</ele>
        <time>2021-03-02T09:17:16Z</time>
      </trkpt>
      <trkpt lat="36.8488270" lon="-2.9516180">
        <ele>340.2</ele>
        <time>2021-03-02T09:17:17Z</time>
      </trkpt>
      <trkpt lat="36.8488680" lon="-2.9516590">
        <ele>340.2</ele>
        <time>2021-03-02T09:17:18Z</time>
      </trkpt>
      <trkpt lat="36.8489070" lon="-2.9517000">
        <ele>340.4</ele>
        <time>2021-03-02T09:17:19Z</time>
      </trkpt>
      <trkpt lat="36.8489440" lon="-2.9517450">
        <ele>340.6</ele>
        <time>2021-03-02T09:17:20Z</time>
      </trkpt>
      <trkpt lat="36.8489850" lon="-2.9517840">
        <ele>340.6</ele>
        <time>2021-03-02T09:17:21Z</time>
      </trkpt>
      <trkpt lat="36.8490230" lon="-2.9518280">
        <ele>340.8</ele>
        <time>2021-03-02T09:17:22Z</time>
      </trkpt>
      <trkpt lat="36.8490610" lon="-2.9518730">
        <ele>340.8</ele>
        <time>2021-03-02T09:17:23Z</time>
      </trkpt>
      <trkpt lat="36.8491000" lon="-2.9519150">
        <ele>341.0</ele>
        <time>2021-03-02T09:17:24Z</time>
      </trkpt>
      <trkpt lat="36.8491390" lon="-2.9519500">
        <ele>341.2</ele>
        <time>2021-03-02T09:17:25Z</time>
      </trkpt>
      <trkpt lat="36.8491800" lon="-2.9519760">
        <ele>341.2</ele>
        <time>2021-03-02T09:17:26Z</time>
      </trkpt>
      <trkpt lat="36.8492190" lon="-2.9520040">
        <ele>341.6</ele>
        <time>2021-03-02T09:17:27Z</time>
      </trkpt>
      <trkpt lat="36.8492570" lon="-2.9520350">
        <ele>341.6</ele>
        <time>2021-03-02T09:17:28Z</time>
      </trkpt>
      <trkpt lat="36.8492950" lon="-2.9520660">
        <ele>341.8</ele>
        <time>2021-03-02T09:17:29Z</time>
      </trkpt>
      <trkpt lat="36.8493330" lon="-2.9520970">
        <ele>342.0</ele>
        <time>2021-03-02T09:17:30Z</time>
      </trkpt>
      <trkpt lat="36.8493700" lon="-2.9521250">
        <ele>342.2</ele>
        <time>2021-03-02T09:17:31Z</time>
      </trkpt>
      <trkpt lat="36.8494080" lon="-2.9521530">
        <ele>342.4</ele>
        <time>2021-03-02T09:17:32Z</time>
      </trkpt>
      <trkpt lat="36.8494500" lon="-2.9521800">
        <ele>342.6</ele>
        <time>2021-03-02T09:17:33Z</time>
      </trkpt>
      <trkpt lat="36.8494930" lon="-2.9522080">
        <ele>342.8</ele>
        <time>2021-03-02T09:17:34Z</time>
      </trkpt>
      <trkpt lat="36.8495350" lon="-2.9522330">
        <ele>343.0</ele>
        <time>2021-03-02T09:17:35Z</time>
      </trkpt>
      <trkpt lat="36.8495770" lon="-2.9522690">
        <ele>343.2</ele>
        <time>2021-03-02T09:17:36Z</time>
      </trkpt>
      <trkpt lat="36.8496210" lon="-2.9522940">
        <ele>343.6</ele>
        <time>2021-03-02T09:17:37Z</time>
      </trkpt>
      <trkpt lat="36.8496610" lon="-2.9523200">
        <ele>343.8</ele>
        <time>2021-03-02T09:17:38Z</time>
      </trkpt>
      <trkpt lat="36.8497010" lon="-2.9523540">
        <ele>344.0</ele>
        <time>2021-03-02T09:17:39Z</time>
      </trkpt>
      <trkpt lat="36.8497430" lon="-2.9523780">
        <ele>344.2</ele>
        <time>2021-03-02T09:17:40Z</time>
      </trkpt>
      <trkpt lat="36.8497840" lon="-2.9524010">
        <ele>344.4</ele>
        <time>2021-03-02T09:17:41Z</time>
      </trkpt>
      <trkpt lat="36.8498270" lon="-2.9524250">
        <ele>344.6</ele>
        <time>2021-03-02T09:17:42Z</time>
      </trkpt>
      <trkpt lat="36.8498710" lon="-2.9524450">
        <ele>345.0</ele>
        <time>2021-03-02T09:17:43Z</time>
      </trkpt>
      <trkpt lat="36.8499170" lon="-2.9524630">
        <ele>345.2</ele>
        <time>2021-03-02T09:17:44Z</time>
      </trkpt>
      <trkpt lat="36.8499640" lon="-2.9524800">
        <ele>345.4</ele>
        <time>2021-03-02T09:17:45Z</time>
      </trkpt>
      <trkpt lat="36.8500110" lon="-2.9524930">
        <ele>345.8</ele>
        <time>2021-03-02T09:17:46Z</time>
      </trkpt>
      <trkpt lat="36.8500580" lon="-2.9525040">
        <ele>345.8</ele>
        <time>2021-03-02T09:17:47Z</time>
      </trkpt>
      <trkpt lat="36.8501050" lon="-2.9525140">
        <ele>346.2</ele>
        <time>2021-03-02T09:17:48Z</time>
      </trkpt>
      <trkpt lat="36.8501470" lon="-2.9525240">
        <ele>346.4</ele>
        <time>2021-03-02T09:17:49Z</time>
      </trkpt>
      <trkpt lat="36.8501900" lon="-2.9525280">
        <ele>346.6</ele>
        <time>2021-03-02T09:17:50Z</time>
      </trkpt>
      <trkpt lat="36.8502350" lon="-2.9525240">
        <ele>347.2</ele>
        <time>2021-03-02T09:17:51Z</time>
      </trkpt>
      <trkpt lat="36.8502790" lon="-2.9525150">
        <ele>347.4</ele>
        <time>2021-03-02T09:17:52Z</time>
      </trkpt>
      <trkpt lat="36.8503200" lon="-2.9524990">
        <ele>347.8</ele>
        <time>2021-03-02T09:17:53Z</time>
      </trkpt>
      <trkpt lat="36.8503630" lon="-2.9524840">
        <ele>348.0</ele>
        <time>2021-03-02T09:17:54Z</time>
      </trkpt>
      <trkpt lat="36.8504070" lon="-2.9524780">
        <ele>348.6</ele>
        <time>2021-03-02T09:17:55Z</time>
      </trkpt>
      <trkpt lat="36.8504510" lon="-2.9524860">
        <ele>349.0</ele>
        <time>2021-03-02T09:17:56Z</time>
      </trkpt>
      <trkpt lat="36.8504910" lon="-2.9525090">
        <ele>349.2</ele>
        <time>2021-03-02T09:17:57Z</time>
      </trkpt>
      <trkpt lat="36.8505260" lon="-2.9525430">
        <ele>349.8</ele>
        <time>2021-03-02T09:17:58Z</time>
      </trkpt>
      <trkpt lat="36.8505560" lon="-2.9525840">
        <ele>350.0</ele>
        <time>2021-03-02T09:17:59Z</time>
      </trkpt>
      <trkpt lat="36.8505840" lon="-2.9526270">
        <ele>350.2</ele>
        <time>2021-03-02T09:18:00Z</time>
      </trkpt>
      <trkpt lat="36.8506180" lon="-2.9526600">
        <ele>350.4</ele>
        <time>2021-03-02T09:18:01Z</time>
      </trkpt>
      <trkpt lat="36.8506570" lon="-2.9526800">
        <ele>350.8</ele>
        <time>2021-03-02T09:18:02Z</time>
      </trkpt>
      <trkpt lat="36.8506970" lon="-2.9526910">
        <ele>351.0</ele>
        <time>2021-03-02T09:18:03Z</time>
      </trkpt>
      <trkpt lat="36.8507350" lon="-2.9527010">
        <ele>351.2</ele>
        <time>2021-03-02T09:18:04Z</time>
      </trkpt>
      <trkpt lat="36.8507720" lon="-2.9527110">
        <ele>351.6</ele>
        <time>2021-03-02T09:18:05Z</time>
      </trkpt>
      <trkpt lat="36.8508080" lon="-2.9527210">
        <ele>351.6</ele>
        <time>2021-03-02T09:18:06Z</time>
      </trkpt>
      <trkpt lat="36.8508430" lon="-2.9527300">
        <ele>352.0</ele>
        <time>2021-03-02T09:18:07Z</time>
      </trkpt>
      <trkpt lat="36.8508770" lon="-2.9527400">
        <ele>352.4</ele>
        <time>2021-03-02T09:18:08Z</time>
      </trkpt>
      <trkpt lat="36.8509090" lon="-2.9527490">
        <ele>352.6</ele>
        <time>2021-03-02T09:18:09Z</time>
      </trkpt>
      <trkpt lat="36.8509420" lon="-2.9527570">
        <ele>353.0</ele>
        <time>2021-03-02T09:18:10Z</time>
      </trkpt>
      <trkpt lat="36.8509740" lon="-2.9527660">
        <ele>353.2</ele>
        <time>2021-03-02T09:18:11Z</time>
      </trkpt>
      <trkpt lat="36.8510060" lon="-2.9527750">
        <ele>353.4</ele>
        <time>2021-03-02T09:18:12Z</time>
      </trkpt>
      <trkpt lat="36.8510370" lon="-2.9527830">
        <ele>353.6</ele>
        <time>2021-03-02T09:18:13Z</time>
      </trkpt>
      <trkpt lat="36.8510670" lon="-2.9527880">
        <ele>353.8</ele>
        <time>2021-03-02T09:18:14Z</time>
      </trkpt>
      <trkpt lat="36.8510930" lon="-2.9527930">
        <ele>354.0</ele>
        <time>2021-03-02T09:18:15Z</time>
      </trkpt>
      <trkpt lat="36.8511220" lon="-2.9527950">
        <ele>354.4</ele>
        <time>2021-03-02T09:18:16Z</time>
      </trkpt>
      <trkpt lat="36.8511520" lon="-2.9527910">
        <ele>354.8</ele>
        <time>2021-03-02T09:18:17Z</time>
      </trkpt>
      <trkpt lat="36.8511810" lon="-2.9527810">
        <ele>355.0</ele>
        <time>2021-03-02T09:18:18Z</time>
      </trkpt>
      <trkpt lat="36.8512110" lon="-2.9527700">
        <ele>355.4</ele>
        <time>2021-03-02T09:18:19Z</time>
      </trkpt>
      <trkpt lat="36.8512420" lon="-2.9527560">
        <ele>355.6</ele>
        <time>2021-03-02T09:18:20Z</time>
      </trkpt>
      <trkpt lat="36.8512770" lon="-2.9527400">
        <ele>356.0</ele>
        <time>2021-03-02T09:18:21Z</time>
      </trkpt>
      <trkpt lat="36.8513140" lon="-2.9527270">
        <ele>356.0</ele>
        <time>2021-03-02T09:18:22Z</time>
      </trkpt>
      <trkpt lat="36.8513550" lon="-2.9527180">
        <ele>356.0</ele>
        <time>2021-03-02T09:18:23Z</time>
      </trkpt>
      <trkpt lat="36.8513980" lon="-2.9527170">
        <ele>356.2</ele>
        <time>2021-03-02T09:18:24Z</time>
      </trkpt>
      <trkpt lat="36.8514400" lon="-2.9527260">
        <ele>356.2</ele>
        <time>2021-03-02T09:18:25Z</time>
      </trkpt>
      <trkpt lat="36.8514770" lon="-2.9527470">
        <ele>356.2</ele>
        <time>2021-03-02T09:18:26Z</time>
      </trkpt>
      <trkpt lat="36.8515080" lon="-2.9527770">
        <ele>356.2</ele>
        <time>2021-03-02T09:18:27Z</time>
      </trkpt>
      <trkpt lat="36.8515340" lon="-2.9528150">
        <ele>356.6</ele>
        <time>2021-03-02T09:18:28Z</time>
      </trkpt>
      <trkpt lat="36.8515550" lon="-2.9528600">
        <ele>356.6</ele>
        <time>2021-03-02T09:18:29Z</time>
      </trkpt>
      <trkpt lat="36.8515730" lon="-2.9529080">
        <ele>356.8</ele>
        <time>2021-03-02T09:18:30Z</time>
      </trkpt>
      <trkpt lat="36.8515900" lon="-2.9529580">
        <ele>356.8</ele>
        <time>2021-03-02T09:18:31Z</time>
      </trkpt>
      <trkpt lat="36.8516130" lon="-2.9530050">
        <ele>356.8</ele>
        <time>2021-03-02T09:18:32Z</time>
      </trkpt>
      <trkpt lat="36.8516440" lon="-2.9530440">
        <ele>356.8</ele>
        <time>2021-03-02T09:18:33Z</time>
      </trkpt>
      <trkpt lat="36.8516800" lon="-2.9530740">
        <ele>356.8</ele>
        <time>2021-03-02T09:18:34Z</time>
      </trkpt>
      <trkpt lat="36.8517190" lon="-2.9530980">
        <ele>356.8</ele>
        <time>2021-03-02T09:18:35Z</time>
      </trkpt>
      <trkpt lat="36.8517590" lon="-2.9531180">
        <ele>357.0</ele>
        <time>2021-03-02T09:18:36Z</time>
      </trkpt>
      <trkpt lat="36.8518010" lon="-2.9531380">
        <ele>357.0</ele>
        <time>2021-03-02T09:18:37Z</time>
      </trkpt>
      <trkpt lat="36.8518430" lon="-2.9531560">
        <ele>357.0</ele>
        <time>2021-03-02T09:18:38Z</time>
      </trkpt>
      <trkpt lat="36.8518850" lon="-2.9531740">
        <ele>357.0</ele>
        <time>2021-03-02T09:18:39Z</time>
      </trkpt>
      <trkpt lat="36.8519270" lon="-2.9531920">
        <ele>357.0</ele>
        <time>2021-03-02T09:18:40Z</time>
      </trkpt>
      <trkpt lat="36.8519690" lon="-2.9532110">
        <ele>357.0</ele>
        <time>2021-03-02T09:18:41Z</time>
      </trkpt>
      <trkpt lat="36.8520130" lon="-2.9532300">
        <ele>357.0</ele>
        <time>2021-03-02T09:18:42Z</time>
      </trkpt>
      <trkpt lat="36.8520570" lon="-2.9532500">
        <ele>357.0</ele>
        <time>2021-03-02T09:18:43Z</time>
      </trkpt>
      <trkpt lat="36.8521040" lon="-2.9532690">
        <ele>357.0</ele>
        <time>2021-03-02T09:18:44Z</time>
      </trkpt>
      <trkpt lat="36.8521510" lon="-2.9532890">
        <ele>357.0</ele>
        <time>2021-03-02T09:18:45Z</time>
      </trkpt>
      <trkpt lat="36.8521990" lon="-2.9533100">
        <ele>356.8</ele>
        <time>2021-03-02T09:18:46Z</time>
      </trkpt>
      <trkpt lat="36.8522490" lon="-2.9533310">
        <ele>356.8</ele>
        <time>2021-03-02T09:18:47Z</time>
      </trkpt>
      <trkpt lat="36.8523020" lon="-2.9533510">
        <ele>356.8</ele>
        <time>2021-03-02T09:18:48Z</time>
      </trkpt>
      <trkpt lat="36.8523560" lon="-2.9533710">
        <ele>356.8</ele>
        <time>2021-03-02T09:18:49Z</time>
      </trkpt>
      <trkpt lat="36.8524110" lon="-2.9533930">
        <ele>356.6</ele>
        <time>2021-03-02T09:18:50Z</time>
      </trkpt>
      <trkpt lat="36.8524660" lon="-2.9534150">
        <ele>356.6</ele>
        <time>2021-03-02T09:18:51Z</time>
      </trkpt>
      <trkpt lat="36.8525230" lon="-2.9534380">
        <ele>356.2</ele>
        <time>2021-03-02T09:18:52Z</time>
      </trkpt>
      <trkpt lat="36.8525810" lon="-2.9534620">
        <ele>356.0</ele>
        <time>2021-03-02T09:18:53Z</time>
      </trkpt>
      <trkpt lat="36.8526400" lon="-2.9534870">
        <ele>355.8</ele>
        <time>2021-03-02T09:18:54Z</time>
      </trkpt>
      <trkpt lat="36.8526990" lon="-2.9535130">
        <ele>355.6</ele>
        <time>2021-03-02T09:18:55Z</time>
      </trkpt>
      <trkpt lat="36.8527580" lon="-2.9535390">
        <ele>355.4</ele>
        <time>2021-03-02T09:18:56Z</time>
      </trkpt>
      <trkpt lat="36.8528210" lon="-2.9535600">
        <ele>355.2</ele>
        <time>2021-03-02T09:18:57Z</time>
      </trkpt>
      <trkpt lat="36.8528860" lon="-2.9535790">
        <ele>355.0</ele>
        <time>2021-03-02T09:18:58Z</time>
      </trkpt>
      <trkpt lat="36.8529530" lon="-2.9535960">
        <ele>354.8</ele>
        <time>2021-03-02T09:18:59Z</time>
      </trkpt>
      <trkpt lat="36.8530230" lon="-2.9536150">
        <ele>354.4</ele>
        <time>2021-03-02T09:19:00Z</time>
      </trkpt>
      <trkpt lat="36.8530950" lon="-2.9536360">
        <ele>354.2</ele>
        <time>2021-03-02T09:19:01Z</time>
      </trkpt>
      <trkpt lat="36.8531700" lon="-2.9536560">
        <ele>353.6</ele>
        <time>2021-03-02T09:19:02Z</time>
      </trkpt>
      <trkpt lat="36.8532470" lon="-2.9536760">
        <ele>353.2</ele>
        <time>2021-03-02T09:19:03Z</time>
      </trkpt>
      <trkpt lat="36.8533250" lon="-2.9536990">
        <ele>352.8</ele>
        <time>2021-03-02T09:19:04Z</time>
      </trkpt>
      <trkpt lat="36.8534040" lon="-2.9537230">
        <ele>352.6</ele>
        <time>2021-03-02T09:19:05Z</time>
      </trkpt>
      <trkpt lat="36.8534840" lon="-2.9537480">
        <ele>352.2</ele>
        <time>2021-03-02T09:19:06Z</time>
      </trkpt>
      <trkpt lat="36.8535650" lon="-2.9537750">
        <ele>351.6</ele>
        <time>2021-03-02T09:19:07Z</time>
      </trkpt>
      <trkpt lat="36.8536470" lon="-2.9538030">
        <ele>351.2</ele>
        <time>2021-03-02T09:19:08Z</time>
      </trkpt>
      <trkpt lat="36.8537310" lon="-2.9538330">
        <ele>350.8</ele>
        <time>2021-03-02T09:19:09Z</time>
      </trkpt>
      <trkpt lat="36.8538150" lon="-2.9538660">
        <ele>350.4</ele>
        <time>2021-03-02T09:19:10Z</time>
      </trkpt>
      <trkpt lat="36.8539000" lon="-2.9539020">
        <ele>349.6</ele>
        <time>2021-03-02T09:19:11Z</time>
      </trkpt>
      <trkpt lat="36.8539860" lon="-2.9539400">
        <ele>349.4</ele>
        <time>2021-03-02T09:19:12Z</time>
      </trkpt>
      <trkpt lat="36.8540730" lon="-2.9539810">
        <ele>348.8</ele>
        <time>2021-03-02T09:19:13Z</time>
      </trkpt>
      <trkpt lat="36.8541590" lon="-2.9540260">
        <ele>348.2</ele>
        <time>2021-03-02T09:19:14Z</time>
      </trkpt>
      <trkpt lat="36.8542460" lon="-2.9540730">
        <ele>347.8</ele>
        <time>2021-03-02T09:19:15Z</time>
      </trkpt>
      <trkpt lat="36.8543330" lon="-2.9541210">
        <ele>347.0</ele>
        <time>2021-03-02T09:19:16Z</time>
      </trkpt>
      <trkpt lat="36.8544220" lon="-2.9541680">
        <ele>346.8</ele>
        <time>2021-03-02T09:19:17Z</time>
      </trkpt>
      <trkpt lat="36.8545130" lon="-2.9542160">
        <ele>346.0</ele>
        <time>2021-03-02T09:19:18Z</time>
      </trkpt>
      <trkpt lat="36.8546040" lon="-2.9542670">
        <ele>345.4</ele>
        <time>2021-03-02T09:19:19Z</time>
      </trkpt>
      <trkpt lat="36.8546950" lon="-2.9543220">
        <ele>345.0</ele>
        <time>2021-03-02T09:19:20Z</time>
      </trkpt>
      <trkpt lat="36.8547850" lon="-2.9543810">
        <ele>344.2</ele>
        <time>2021-03-02T09:19:21Z</time>
      </trkpt>
      <trkpt lat="36.8548720" lon="-2.9544480">
        <ele>344.0</ele>
        <time>2021-03-02T09:19:22Z</time>
      </trkpt>
      <trkpt lat="36.8549530" lon="-2.9545240">
        <ele>343.4</ele>
        <time>2021-03-02T09:19:23Z</time>
      </trkpt>
      <trkpt lat="36.8550300" lon="-2.9546090">
        <ele>343.0</ele>
        <time>2021-03-02T09:19:24Z</time>
      </trkpt>
      <trkpt lat="36.8551000" lon="-2.9547010">
        <ele>342.4</ele>
        <time>2021-03-02T09:19:25Z</time>
      </trkpt>
      <trkpt lat="36.8551670" lon="-2.9547980">
        <ele>342.0</ele>
        <time>2021-03-02T09:19:26Z</time>
      </trkpt>
      <trkpt lat="36.8552310" lon="-2.9548990">
        <ele>341.6</ele>
        <time>2021-03-02T09:19:27Z</time>
      </trkpt>
      <trkpt lat="36.8552930" lon="-2.9550000">
        <ele>341.0</ele>
        <time>2021-03-02T09:19:28Z</time>
      </trkpt>
      <trkpt lat="36.8553520" lon="-2.9551010">
        <ele>340.8</ele>
        <time>2021-03-02T09:19:29Z</time>
      </trkpt>
      <trkpt lat="36.8554100" lon="-2.9551990">
        <ele>340.2</ele>
        <time>2021-03-02T09:19:30Z</time>
      </trkpt>
      <trkpt lat="36.8554640" lon="-2.9552980">
        <ele>340.2</ele>
        <time>2021-03-02T09:19:31Z</time>
      </trkpt>
      <trkpt lat="36.8555180" lon="-2.9553950">
        <ele>339.8</ele>
        <time>2021-03-02T09:19:32Z</time>
      </trkpt>
      <trkpt lat="36.8555710" lon="-2.9554900">
        <ele>339.8</ele>
        <time>2021-03-02T09:19:33Z</time>
      </trkpt>
      <trkpt lat="36.8556210" lon="-2.9555850">
        <ele>339.8</ele>
        <time>2021-03-02T09:19:34Z</time>
      </trkpt>
      <trkpt lat="36.8556690" lon="-2.9556790">
        <ele>339.6</ele>
        <time>2021-03-02T09:19:35Z</time>
      </trkpt>
      <trkpt lat="36.8557170" lon="-2.9557680">
        <ele>339.6</ele>
        <time>2021-03-02T09:19:36Z</time>
      </trkpt>
      <trkpt lat="36.8557650" lon="-2.9558540">
        <ele>339.4</ele>
        <time>2021-03-02T09:19:37Z</time>
      </trkpt>
      <trkpt lat="36.8558130" lon="-2.9559380">
        <ele>339.4</ele>
        <time>2021-03-02T09:19:38Z</time>
      </trkpt>
      <trkpt lat="36.8558600" lon="-2.9560210">
        <ele>339.2</ele>
        <time>2021-03-02T09:19:39Z</time>
      </trkpt>
      <trkpt lat="36.8559060" lon="-2.9561030">
        <ele>339.2</ele>
        <time>2021-03-02T09:19:40Z</time>
      </trkpt>
      <trkpt lat="36.8559520" lon="-2.9561860">
        <ele>339.4</ele>
        <time>2021-03-02T09:19:41Z</time>
      </trkpt>
      <trkpt lat="36.8559980" lon="-2.9562680">
        <ele>339.4</ele>
        <time>2021-03-02T09:19:42Z</time>
      </trkpt>
      <trkpt lat="36.8560440" lon="-2.9563500">
        <ele>339.4</ele>
        <time>2021-03-02T09:19:43Z</time>
      </trkpt>
      <trkpt lat="36.8560910" lon="-2.9564340">
        <ele>339.6</ele>
        <time>2021-03-02T09:19:44Z</time>
      </trkpt>
      <trkpt lat="36.8561370" lon="-2.9565180">
        <ele>339.6</ele>
        <time>2021-03-02T09:19:45Z</time>
      </trkpt>
      <trkpt lat="36.8561830" lon="-2.9566040">
        <ele>339.4</ele>
        <time>2021-03-02T09:19:46Z</time>
      </trkpt>
      <trkpt lat="36.8562290" lon="-2.9566880">
        <ele>339.2</ele>
        <time>2021-03-02T09:19:47Z</time>
      </trkpt>
      <trkpt lat="36.8562750" lon="-2.9567730">
        <ele>339.2</ele>
        <time>2021-03-02T09:19:48Z</time>
      </trkpt>
      <trkpt lat="36.8563220" lon="-2.9568560">
        <ele>339.0</ele>
        <time>2021-03-02T09:19:49Z</time>
      </trkpt>
      <trkpt lat="36.8563700" lon="-2.9569370">
        <ele>339.0</ele>
        <time>2021-03-02T09:19:50Z</time>
      </trkpt>
      <trkpt lat="36.8564170" lon="-2.9570190">
        <ele>339.0</ele>
        <time>2021-03-02T09:19:51Z</time>
      </trkpt>
      <trkpt lat="36.8564630" lon="-2.9571030">
        <ele>339.0</ele>
        <time>2021-03-02T09:19:52Z</time>
      </trkpt>
      <trkpt lat="36.8565100" lon="-2.9571880">
        <ele>338.8</ele>
        <time>2021-03-02T09:19:53Z</time>
      </trkpt>
      <trkpt lat="36.8565570" lon="-2.9572730">
        <ele>338.8</ele>
        <time>2021-03-02T09:19:54Z</time>
      </trkpt>
      <trkpt lat="36.8566050" lon="-2.9573570">
        <ele>338.8</ele>
        <time>2021-03-02T09:19:55Z</time>
      </trkpt>
      <trkpt lat="36.8566520" lon="-2.9574410">
        <ele>338.6</ele>
        <time>2021-03-02T09:19:56Z</time>
      </trkpt>
      <trkpt lat="36.8567010" lon="-2.9575250">
        <ele>338.6</ele>
        <time>2021-03-02T09:19:57Z</time>
      </trkpt>
      <trkpt lat="36.8567490" lon="-2.9576080">
        <ele>338.4</ele>
        <time>2021-03-02T09:19:58Z</time>
      </trkpt>
      <trkpt lat="36.8567960" lon="-2.9576930">
        <ele>338.4</ele>
        <time>2021-03-02T09:19:59Z</time>
      </trkpt>
      <trkpt lat="36.8568430" lon="-2.9577770">
        <ele>338.2</ele>
        <time>2021-03-02T09:20:00Z</time>
      </trkpt>
      <trkpt lat="36.8568910" lon="-2.9578610">
        <ele>338.0</ele>
        <time>2021-03-02T09:20:01Z</time>
      </trkpt>
      <trkpt lat="36.8569380" lon="-2.9579440">
        <ele>338.0</ele>
        <time>2021-03-02T09:20:02Z</time>
      </trkpt>
      <trkpt lat="36.8569850" lon="-2.9580250">
        <ele>337.8</ele>
        <time>2021-03-02T09:20:03Z</time>
      </trkpt>
      <trkpt lat="36.8570320" lon="-2.9581080">
        <ele>337.8</ele>
        <time>2021-03-02T09:20:04Z</time>
      </trkpt>
      <trkpt lat="36.8570790" lon="-2.9581910">
        <ele>337.8</ele>
        <time>2021-03-02T09:20:05Z</time>
      </trkpt>
      <trkpt lat="36.8571250" lon="-2.9582740">
        <ele>337.6</ele>
        <time>2021-03-02T09:20:06Z</time>
      </trkpt>
      <trkpt lat="36.8571720" lon="-2.9583560">
        <ele>337.6</ele>
        <time>2021-03-02T09:20:07Z</time>
      </trkpt>
      <trkpt lat="36.8572180" lon="-2.9584390">
        <ele>337.4</ele>
        <time>2021-03-02T09:20:08Z</time>
      </trkpt>
      <trkpt lat="36.8572650" lon="-2.9585220">
        <ele>337.4</ele>
        <time>2021-03-02T09:20:09Z</time>
      </trkpt>
      <trkpt lat="36.8573120" lon="-2.9586050">
        <ele>337.2</ele>
        <time>2021-03-02T09:20:10Z</time>
      </trkpt>
      <trkpt lat="36.8573590" lon="-2.9586880">
        <ele>337.2</ele>
        <time>2021-03-02T09:20:11Z</time>
      </trkpt>
      <trkpt lat="36.8574060" lon="-2.9587720">
        <ele>337.2</ele>
        <time>2021-03-02T09:20:12Z</time>
      </trkpt>
      <trkpt lat="36.8574530" lon="-2.9588560">
        <ele>337.2</ele>
        <time>2021-03-02T09:20:13Z</time>
      </trkpt>
      <trkpt lat="36.8574990" lon="-2.9589400">
        <ele>337.2</ele>
        <time>2021-03-02T09:20:14Z</time>
      </trkpt>
      <trkpt lat="36.8575450" lon="-2.9590230">
        <ele>337.2</ele>
        <time>2021-03-02T09:20:15Z</time>
      </trkpt>
      <trkpt lat="36.8575910" lon="-2.9591060">
        <ele>337.0</ele>
        <time>2021-03-02T09:20:16Z</time>
      </trkpt>
      <trkpt lat="36.8576370" lon="-2.9591890">
        <ele>337.0</ele>
        <time>2021-03-02T09:20:17Z</time>
      </trkpt>
      <trkpt lat="36.8576830" lon="-2.9592720">
        <ele>336.8</ele>
        <time>2021-03-02T09:20:18Z</time>
      </trkpt>
      <trkpt lat="36.8577300" lon="-2.9593560">
        <ele>336.8</ele>
        <time>2021-03-02T09:20:19Z</time>
      </trkpt>
      <trkpt lat="36.8577780" lon="-2.9594380">
        <ele>336.8</ele>
        <time>2021-03-02T09:20:20Z</time>
      </trkpt>
      <trkpt lat="36.8578270" lon="-2.9595170">
        <ele>336.6</ele>
        <time>2021-03-02T09:20:21Z</time>
      </trkpt>
      <trkpt lat="36.8578770" lon="-2.9595950">
        <ele>336.6</ele>
        <time>2021-03-02T09:20:22Z</time>
      </trkpt>
      <trkpt lat="36.8579280" lon="-2.9596710">
        <ele>336.4</ele>
        <time>2021-03-02T09:20:23Z</time>
      </trkpt>
      <trkpt lat="36.8579810" lon="-2.9597440">
        <ele>336.4</ele>
        <time>2021-03-02T09:20:24Z</time>
      </trkpt>
      <trkpt lat="36.8580360" lon="-2.9598150">
        <ele>336.2</ele>
        <time>2021-03-02T09:20:25Z</time>
      </trkpt>
      <trkpt lat="36.8580940" lon="-2.9598830">
        <ele>336.0</ele>
        <time>2021-03-02T09:20:26Z</time>
      </trkpt>
      <trkpt lat="36.8581550" lon="-2.9599450">
        <ele>336.0</ele>
        <time>2021-03-02T09:20:27Z</time>
      </trkpt>
      <trkpt lat="36.8582170" lon="-2.9600040">
        <ele>335.8</ele>
        <time>2021-03-02T09:20:28Z</time>
      </trkpt>
      <trkpt lat="36.8582780" lon="-2.9600600">
        <ele>335.8</ele>
        <time>2021-03-02T09:20:29Z</time>
      </trkpt>
      <trkpt lat="36.8583390" lon="-2.9601140">
        <ele>335.8</ele>
        <time>2021-03-02T09:20:30Z</time>
      </trkpt>
      <trkpt lat="36.8583990" lon="-2.9601670">
        <ele>335.8</ele>
        <time>2021-03-02T09:20:31Z</time>
      </trkpt>
      <trkpt lat="36.8584610" lon="-2.9602090">
        <ele>335.8</ele>
        <time>2021-03-02T09:20:32Z</time>
      </trkpt>
      <trkpt lat="36.8585240" lon="-2.9602460">
        <ele>335.8</ele>
        <time>2021-03-02T09:20:33Z</time>
      </trkpt>
      <trkpt lat="36.8585880" lon="-2.9602780">
        <ele>336.0</ele>
        <time>2021-03-02T09:20:34Z</time>
      </trkpt>
      <trkpt lat="36.8586530" lon="-2.9603060">
        <ele>336.2</ele>
        <time>2021-03-02T09:20:35Z</time>
      </trkpt>
      <trkpt lat="36.8587160" lon="-2.9603310">
        <ele>336.2</ele>
        <time>2021-03-02T09:20:36Z</time>
      </trkpt>
      <trkpt lat="36.8587790" lon="-2.9603540">
        <ele>336.4</ele>
        <time>2021-03-02T09:20:37Z</time>
      </trkpt>
      <trkpt lat="36.8588420" lon="-2.9603740">
        <ele>336.6</ele>
        <time>2021-03-02T09:20:38Z</time>
      </trkpt>
      <trkpt lat="36.8589040" lon="-2.9603900">
        <ele>336.8</ele>
        <time>2021-03-02T09:20:39Z</time>
      </trkpt>
      <trkpt lat="36.8589660" lon="-2.9604030">
        <ele>336.8</ele>
        <time>2021-03-02T09:20:40Z</time>
      </trkpt>
      <trkpt lat="36.8590280" lon="-2.9604150">
        <ele>337.0</ele>
        <time>2021-03-02T09:20:41Z</time>
      </trkpt>
      <trkpt lat="36.8590880" lon="-2.9604230">
        <ele>337.2</ele>
        <time>2021-03-02T09:20:42Z</time>
      </trkpt>
      <trkpt lat="36.8591470" lon="-2.9604290">
        <ele>337.4</ele>
        <time>2021-03-02T09:20:43Z</time>
      </trkpt>
      <trkpt lat="36.8592050" lon="-2.9604340">
        <ele>337.8</ele>
        <time>2021-03-02T09:20:44Z</time>
      </trkpt>
      <trkpt lat="36.8592620" lon="-2.9604380">
        <ele>337.8</ele>
        <time>2021-03-02T09:20:45Z</time>
      </trkpt>
      <trkpt lat="36.8593190" lon="-2.9604370">
        <ele>338.0</ele>
        <time>2021-03-02T09:20:46Z</time>
      </trkpt>
      <trkpt lat="36.8593740" lon="-2.9604330">
        <ele>338.0</ele>
        <time>2021-03-02T09:20:47Z</time>
      </trkpt>
      <trkpt lat="36.8594300" lon="-2.9604270">
        <ele>338.2</ele>
        <time>2021-03-02T09:20:48Z</time>
      </trkpt>
      <trkpt lat="36.8594850" lon="-2.9604200">
        <ele>338.4</ele>
        <time>2021-03-02T09:20:49Z</time>
      </trkpt>
      <trkpt lat="36.8595400" lon="-2.9604120">
        <ele>338.6</ele>
        <time>2021-03-02T09:20:50Z</time>
      </trkpt>
      <trkpt lat="36.8595940" lon="-2.9604020">
        <ele>338.8</ele>
        <time>2021-03-02T09:20:51Z</time>
      </trkpt>
      <trkpt lat="36.8596470" lon="-2.9603900">
        <ele>338.8</ele>
        <time>2021-03-02T09:20:52Z</time>
      </trkpt>
      <trkpt lat="36.8597000" lon="-2.9603760">
        <ele>339.0</ele>
        <time>2021-03-02T09:20:53Z</time>
      </trkpt>
      <trkpt lat="36.8597530" lon="-2.9603590">
        <ele>339.2</ele>
        <time>2021-03-02T09:20:54Z</time>
      </trkpt>
      <trkpt lat="36.8598050" lon="-2.9603420">
        <ele>339.2</ele>
        <time>2021-03-02T09:20:55Z</time>
      </trkpt>
      <trkpt lat="36.8598560" lon="-2.9603230">
        <ele>339.4</ele>
        <time>2021-03-02T09:20:56Z</time>
      </trkpt>
      <trkpt lat="36.8599070" lon="-2.9603000">
        <ele>339.4</ele>
        <time>2021-03-02T09:20:57Z</time>
      </trkpt>
      <trkpt lat="36.8599560" lon="-2.9602760">
        <ele>339.6</ele>
        <time>2021-03-02T09:20:58Z</time>
      </trkpt>
      <trkpt lat="36.8600030" lon="-2.9602520">
        <ele>339.6</ele>
        <time>2021-03-02T09:20:59Z</time>
      </trkpt>
      <trkpt lat="36.8600510" lon="-2.9602260">
        <ele>340.0</ele>
        <time>2021-03-02T09:21:00Z</time>
      </trkpt>
      <trkpt lat="36.8600980" lon="-2.9601990">
        <ele>340.0</ele>
        <time>2021-03-02T09:21:01Z</time>
      </trkpt>
      <trkpt lat="36.8601450" lon="-2.9601700">
        <ele>340.2</ele>
        <time>2021-03-02T09:21:02Z</time>
      </trkpt>
      <trkpt lat="36.8601920" lon="-2.9601400">
        <ele>340.2</ele>
        <time>2021-03-02T09:21:03Z</time>
      </trkpt>
      <trkpt lat="36.8602370" lon="-2.9601070">
        <ele>340.2</ele>
        <time>2021-03-02T09:21:04Z</time>
      </trkpt>
      <trkpt lat="36.8602820" lon="-2.9600700">
        <ele>340.4</ele>
        <time>2021-03-02T09:21:05Z</time>
      </trkpt>
      <trkpt lat="36.8603270" lon="-2.9600310">
        <ele>340.6</ele>
        <time>2021-03-02T09:21:06Z</time>
      </trkpt>
      <trkpt lat="36.8603700" lon="-2.9599910">
        <ele>340.6</ele>
        <time>2021-03-02T09:21:07Z</time>
      </trkpt>
      <trkpt lat="36.8604130" lon="-2.9599490">
        <ele>340.6</ele>
        <time>2021-03-02T09:21:08Z</time>
      </trkpt>
      <trkpt lat="36.8604550" lon="-2.9599060">
        <ele>340.8</ele>
        <time>2021-03-02T09:21:09Z</time>
      </trkpt>
      <trkpt lat="36.8604970" lon="-2.9598630">
        <ele>340.8</ele>
        <time>2021-03-02T09:21:10Z</time>
      </trkpt>
      <trkpt lat="36.8605370" lon="-2.9598170">
        <ele>340.8</ele>
        <time>2021-03-02T09:21:11Z</time>
      </trkpt>
      <trkpt lat="36.8605760" lon="-2.9597690">
        <ele>340.8</ele>
        <time>2021-03-02T09:21:12Z</time>
      </trkpt>
      <trkpt lat="36.8606140" lon="-2.9597190">
        <ele>341.0</ele>
        <time>2021-03-02T09:21:13Z</time>
      </trkpt>
      <trkpt lat="36.8606510" lon="-2.9596670">
        <ele>341.0</ele>
        <time>2021-03-02T09:21:14Z</time>
      </trkpt>
      <trkpt lat="36.8606880" lon="-2.9596150">
        <ele>341.2</ele>
        <time>2021-03-02T09:21:15Z</time>
      </trkpt>
      <trkpt lat="36.8607260" lon="-2.9595620">
        <ele>341.2</ele>
        <time>2021-03-02T09:21:16Z</time>
      </trkpt>
      <trkpt lat="36.8607640" lon="-2.9595090">
        <ele>341.2</ele>
        <time>2021-03-02T09:21:17Z</time>
      </trkpt>
      <trkpt lat="36.8608040" lon="-2.9594570">
        <ele>341.2</ele>
        <time>2021-03-02T09:21:18Z</time>
      </trkpt>
      <trkpt lat="36.8608420" lon="-2.9594040">
        <ele>341.4</ele>
        <time>2021-03-02T09:21:19Z</time>
      </trkpt>
      <trkpt lat="36.8608800" lon="-2.9593500">
        <ele>341.4</ele>
        <time>2021-03-02T09:21:20Z</time>
      </trkpt>
      <trkpt lat="36.8609180" lon="-2.9592970">
        <ele>341.4</ele>
        <time>2021-03-02T09:21:21Z</time>
      </trkpt>
      <trkpt lat="36.8609570" lon="-2.9592430">
        <ele>341.4</ele>
        <time>2021-03-02T09:21:22Z</time>
      </trkpt>
      <trkpt lat="36.8609950" lon="-2.9591900">
        <ele>341.4</ele>
        <time>2021-03-02T09:21:23Z</time>
      </trkpt>
      <trkpt lat="36.8610340" lon="-2.9591380">
        <ele>341.4</ele>
        <time>2021-03-02T09:21:24Z</time>
      </trkpt>
      <trkpt lat="36.8610740" lon="-2.9590870">
        <ele>341.4</ele>
        <time>2021-03-02T09:21:25Z</time>
      </trkpt>
      <trkpt lat="36.8611150" lon="-2.9590390">
        <ele>341.6</ele>
        <time>2021-03-02T09:21:26Z</time>
      </trkpt>
      <trkpt lat="36.8611560" lon="-2.9589900">
        <ele>341.6</ele>
        <time>2021-03-02T09:21:27Z</time>
      </trkpt>
      <trkpt lat="36.8611970" lon="-2.9589430">
        <ele>341.8</ele>
        <time>2021-03-02T09:21:28Z</time>
      </trkpt>
      <trkpt lat="36.8612390" lon="-2.9588970">
        <ele>342.0</ele>
        <time>2021-03-02T09:21:29Z</time>
      </trkpt>
      <trkpt lat="36.8612810" lon="-2.9588530">
        <ele>342.0</ele>
        <time>2021-03-02T09:21:30Z</time>
      </trkpt>
      <trkpt lat="36.8613230" lon="-2.9588080">
        <ele>342.0</ele>
        <time>2021-03-02T09:21:31Z</time>
      </trkpt>
      <trkpt lat="36.8613670" lon="-2.9587660">
        <ele>342.0</ele>
        <time>2021-03-02T09:21:32Z</time>
      </trkpt>
      <trkpt lat="36.8614130" lon="-2.9587270">
        <ele>342.0</ele>
        <time>2021-03-02T09:21:33Z</time>
      </trkpt>
      <trkpt lat="36.8614600" lon="-2.9586910">
        <ele>342.2</ele>
        <time>2021-03-02T09:21:34Z</time>
      </trkpt>
      <trkpt lat="36.8615070" lon="-2.9586550">
        <ele>342.2</ele>
        <time>2021-03-02T09:21:35Z</time>
      </trkpt>
      <trkpt lat="36.8615540" lon="-2.9586180">
        <ele>342.2</ele>
        <time>2021-03-02T09:21:36Z</time>
      </trkpt>
      <trkpt lat="36.8616000" lon="-2.9585820">
        <ele>342.2</ele>
        <time>2021-03-02T09:21:37Z</time>
      </trkpt>
      <trkpt lat="36.8616470" lon="-2.9585490">
        <ele>342.4</ele>
        <time>2021-03-02T09:21:38Z</time>
      </trkpt>
      <trkpt lat="36.8616960" lon="-2.9585250">
        <ele>342.4</ele>
        <time>2021-03-02T09:21:39Z</time>
      </trkpt>
      <trkpt lat="36.8617460" lon="-2.9585270">
        <ele>342.4</ele>
        <time>2021-03-02T09:21:40Z</time>
      </trkpt>
      <trkpt lat="36.8617880" lon="-2.9585680">
        <ele>342.4</ele>
        <time>2021-03-02T09:21:41Z</time>
      </trkpt>
      <trkpt lat="36.8618140" lon="-2.9586370">
        <ele>342.2</ele>
        <time>2021-03-02T09:21:42Z</time>
      </trkpt>
      <trkpt lat="36.8618260" lon="-2.9587230">
        <ele>341.6</ele>
        <time>2021-03-02T09:21:43Z</time>
      </trkpt>
      <trkpt lat="36.8618260" lon="-2.9588220">
        <ele>341.2</ele>
        <time>2021-03-02T09:21:44Z</time>
      </trkpt>
      <trkpt lat="36.8618200" lon="-2.9589290">
        <ele>340.4</ele>
        <time>2021-03-02T09:21:45Z</time>
      </trkpt>
      <trkpt lat="36.8618100" lon="-2.9590430">
        <ele>339.2</ele>
        <time>2021-03-02T09:21:46Z</time>
      </trkpt>
      <trkpt lat="36.8617970" lon="-2.9591630">
        <ele>338.6</ele>
        <time>2021-03-02T09:21:47Z</time>
      </trkpt>
      <trkpt lat="36.8617850" lon="-2.9592900">
        <ele>337.2</ele>
        <time>2021-03-02T09:21:48Z</time>
      </trkpt>
      <trkpt lat="36.8617700" lon="-2.9594210">
        <ele>336.4</ele>
        <time>2021-03-02T09:21:49Z</time>
      </trkpt>
      <trkpt lat="36.8617520" lon="-2.9595560">
        <ele>335.0</ele>
        <time>2021-03-02T09:21:50Z</time>
      </trkpt>
      <trkpt lat="36.8617310" lon="-2.9596940">
        <ele>334.4</ele>
        <time>2021-03-02T09:21:51Z</time>
      </trkpt>
      <trkpt lat="36.8617080" lon="-2.9598340">
        <ele>332.8</ele>
        <time>2021-03-02T09:21:52Z</time>
      </trkpt>
      <trkpt lat="36.8616840" lon="-2.9599770">
        <ele>331.2</ele>
        <time>2021-03-02T09:21:53Z</time>
      </trkpt>
      <trkpt lat="36.8616650" lon="-2.9601250">
        <ele>330.4</ele>
        <time>2021-03-02T09:21:54Z</time>
      </trkpt>
      <trkpt lat="36.8616550" lon="-2.9602700">
        <ele>329.0</ele>
        <time>2021-03-02T09:21:55Z</time>
      </trkpt>
      <trkpt lat="36.8616480" lon="-2.9604030">
        <ele>328.4</ele>
        <time>2021-03-02T09:21:56Z</time>
      </trkpt>
      <trkpt lat="36.8616380" lon="-2.9605160">
        <ele>327.0</ele>
        <time>2021-03-02T09:21:57Z</time>
      </trkpt>
      <trkpt lat="36.8616220" lon="-2.9606100">
        <ele>325.8</ele>
        <time>2021-03-02T09:21:58Z</time>
      </trkpt>
      <trkpt lat="36.8615940" lon="-2.9606930">
        <ele>325.2</ele>
        <time>2021-03-02T09:21:59Z</time>
      </trkpt>
      <trkpt lat="36.8615530" lon="-2.9607750">
        <ele>324.4</ele>
        <time>2021-03-02T09:22:00Z</time>
      </trkpt>
      <trkpt lat="36.8614990" lon="-2.9608590">
        <ele>323.8</ele>
        <time>2021-03-02T09:22:01Z</time>
      </trkpt>
      <trkpt lat="36.8614390" lon="-2.9609400">
        <ele>322.6</ele>
        <time>2021-03-02T09:22:02Z</time>
      </trkpt>
      <trkpt lat="36.8613750" lon="-2.9610200">
        <ele>322.0</ele>
        <time>2021-03-02T09:22:03Z</time>
      </trkpt>
      <trkpt lat="36.8613090" lon="-2.9611010">
        <ele>321.0</ele>
        <time>2021-03-02T09:22:04Z</time>
      </trkpt>
      <trkpt lat="36.8612410" lon="-2.9611830">
        <ele>320.0</ele>
        <time>2021-03-02T09:22:05Z</time>
      </trkpt>
      <trkpt lat="36.8611710" lon="-2.9612650">
        <ele>319.6</ele>
        <time>2021-03-02T09:22:06Z</time>
      </trkpt>
      <trkpt lat="36.8611040" lon="-2.9613510">
        <ele>318.6</ele>
        <time>2021-03-02T09:22:07Z</time>
      </trkpt>
      <trkpt lat="36.8610430" lon="-2.9614450">
        <ele>318.0</ele>
        <time>2021-03-02T09:22:08Z</time>
      </trkpt>
      <trkpt lat="36.8609910" lon="-2.9615480">
        <ele>316.8</ele>
        <time>2021-03-02T09:22:09Z</time>
      </trkpt>
      <trkpt lat="36.8609510" lon="-2.9616610">
        <ele>316.4</ele>
        <time>2021-03-02T09:22:10Z</time>
      </trkpt>
      <trkpt lat="36.8609180" lon="-2.9617780">
        <ele>315.4</ele>
        <time>2021-03-02T09:22:11Z</time>
      </trkpt>
      <trkpt lat="36.8608850" lon="-2.9618980">
        <ele>314.0</ele>
        <time>2021-03-02T09:22:12Z</time>
      </trkpt>
      <trkpt lat="36.8608500" lon="-2.9620180">
        <ele>313.4</ele>
        <time>2021-03-02T09:22:13Z</time>
      </trkpt>
      <trkpt lat="36.8608180" lon="-2.9621360">
        <ele>312.0</ele>
        <time>2021-03-02T09:22:14Z</time>
      </trkpt>
      <trkpt lat="36.8607870" lon="-2.9622510">
        <ele>311.4</ele>
        <time>2021-03-02T09:22:15Z</time>
      </trkpt>
      <trkpt lat="36.8607560" lon="-2.9623610">
        <ele>310.4</ele>
        <time>2021-03-02T09:22:16Z</time>
      </trkpt>
      <trkpt lat="36.8607260" lon="-2.9624650">
        <ele>309.8</ele>
        <time>2021-03-02T09:22:17Z</time>
      </trkpt>
      <trkpt lat="36.8606920" lon="-2.9625580">
        <ele>308.4</ele>
        <time>2021-03-02T09:22:18Z</time>
      </trkpt>
      <trkpt lat="36.8606490" lon="-2.9626360">
        <ele>307.8</ele>
        <time>2021-03-02T09:22:19Z</time>
      </trkpt>
      <trkpt lat="36.8605930" lon="-2.9626990">
        <ele>307.4</ele>
        <time>2021-03-02T09:22:20Z</time>
      </trkpt>
      <trkpt lat="36.8605280" lon="-2.9627560">
        <ele>306.8</ele>
        <time>2021-03-02T09:22:21Z</time>
      </trkpt>
      <trkpt lat="36.8604640" lon="-2.9628150">
        <ele>306.6</ele>
        <time>2021-03-02T09:22:22Z</time>
      </trkpt>
      <trkpt lat="36.8604000" lon="-2.9628790">
        <ele>306.0</ele>
        <time>2021-03-02T09:22:23Z</time>
      </trkpt>
      <trkpt lat="36.8603350" lon="-2.9629420">
        <ele>305.2</ele>
        <time>2021-03-02T09:22:24Z</time>
      </trkpt>
      <trkpt lat="36.8602650" lon="-2.9630020">
        <ele>304.8</ele>
        <time>2021-03-02T09:22:25Z</time>
      </trkpt>
      <trkpt lat="36.8601950" lon="-2.9630570">
        <ele>304.2</ele>
        <time>2021-03-02T09:22:26Z</time>
      </trkpt>
      <trkpt lat="36.8601240" lon="-2.9631140">
        <ele>304.0</ele>
        <time>2021-03-02T09:22:27Z</time>
      </trkpt>
      <trkpt lat="36.8600500" lon="-2.9631730">
        <ele>303.2</ele>
        <time>2021-03-02T09:22:28Z</time>
      </trkpt>
      <trkpt lat="36.8599800" lon="-2.9632320">
        <ele>302.8</ele>
        <time>2021-03-02T09:22:29Z</time>
      </trkpt>
      <trkpt lat="36.8599100" lon="-2.9632880">
        <ele>302.0</ele>
        <time>2021-03-02T09:22:30Z</time>
      </trkpt>
      <trkpt lat="36.8598380" lon="-2.9633380">
        <ele>301.0</ele>
        <time>2021-03-02T09:22:31Z</time>
      </trkpt>
      <trkpt lat="36.8597620" lon="-2.9633780">
        <ele>300.6</ele>
        <time>2021-03-02T09:22:32Z</time>
      </trkpt>
      <trkpt lat="36.8596890" lon="-2.9634110">
        <ele>299.4</ele>
        <time>2021-03-02T09:22:33Z</time>
      </trkpt>
      <trkpt lat="36.8596300" lon="-2.9634400">
        <ele>299.0</ele>
        <time>2021-03-02T09:22:34Z</time>
      </trkpt>
      <trkpt lat="36.8595820" lon="-2.9634690">
        <ele>298.4</ele>
        <time>2021-03-02T09:22:35Z</time>
      </trkpt>
      <trkpt lat="36.8595470" lon="-2.9635020">
        <ele>298.2</ele>
        <time>2021-03-02T09:22:36Z</time>
      </trkpt>
      <trkpt lat="36.8595280" lon="-2.9635340">
        <ele>298.0</ele>
        <time>2021-03-02T09:22:37Z</time>
      </trkpt>
      <trkpt lat="36.8595240" lon="-2.9635690">
        <ele>297.8</ele>
        <time>2021-03-02T09:22:38Z</time>
      </trkpt>
      <trkpt lat="36.8595340" lon="-2.9636030">
        <ele>297.6</ele>
        <time>2021-03-02T09:22:39Z</time>
      </trkpt>
      <trkpt lat="36.8595570" lon="-2.9636380">
        <ele>297.4</ele>
        <time>2021-03-02T09:22:40Z</time>
      </trkpt>
      <trkpt lat="36.8595880" lon="-2.9636670">
        <ele>297.2</ele>
        <time>2021-03-02T09:22:41Z</time>
      </trkpt>
      <trkpt lat="36.8596240" lon="-2.9636970">
        <ele>297.2</ele>
        <time>2021-03-02T09:22:42Z</time>
      </trkpt>
      <trkpt lat="36.8596610" lon="-2.9637310">
        <ele>297.0</ele>
        <time>2021-03-02T09:22:43Z</time>
      </trkpt>
      <trkpt lat="36.8597020" lon="-2.9637700">
        <ele>296.8</ele>
        <time>2021-03-02T09:22:44Z</time>
      </trkpt>
      <trkpt lat="36.8597430" lon="-2.9638140">
        <ele>296.6</ele>
        <time>2021-03-02T09:22:45Z</time>
      </trkpt>
      <trkpt lat="36.8597870" lon="-2.9638570">
        <ele>296.6</ele>
        <time>2021-03-02T09:22:46Z</time>
      </trkpt>
      <trkpt lat="36.8598310" lon="-2.9639020">
        <ele>296.6</ele>
        <time>2021-03-02T09:22:47Z</time>
      </trkpt>
      <trkpt lat="36.8598740" lon="-2.9639490">
        <ele>296.4</ele>
        <time>2021-03-02T09:22:48Z</time>
      </trkpt>
      <trkpt lat="36.8599190" lon="-2.9639950">
        <ele>296.4</ele>
        <time>2021-03-02T09:22:49Z</time>
      </trkpt>
      <trkpt lat="36.8599610" lon="-2.9640430">
        <ele>296.4</ele>
        <time>2021-03-02T09:22:50Z</time>
      </trkpt>
      <trkpt lat="36.8600050" lon="-2.9640900">
        <ele>296.2</ele>
        <time>2021-03-02T09:22:51Z</time>
      </trkpt>
      <trkpt lat="36.8600490" lon="-2.9641350">
        <ele>296.2</ele>
        <time>2021-03-02T09:22:52Z</time>
      </trkpt>
      <trkpt lat="36.8600950" lon="-2.9641800">
        <ele>296.2</ele>
        <time>2021-03-02T09:22:53Z</time>
      </trkpt>
      <trkpt lat="36.8601420" lon="-2.9642250">
        <ele>296.2</ele>
        <time>2021-03-02T09:22:54Z</time>
      </trkpt>
      <trkpt lat="36.8601890" lon="-2.9642710">
        <ele>296.2</ele>
        <time>2021-03-02T09:22:55Z</time>
      </trkpt>
      <trkpt lat="36.8602360" lon="-2.9643170">
        <ele>296.2</ele>
        <time>2021-03-02T09:22:56Z</time>
      </trkpt>
      <trkpt lat="36.8602820" lon="-2.9643640">
        <ele>296.0</ele>
        <time>2021-03-02T09:22:57Z</time>
      </trkpt>
      <trkpt lat="36.8603280" lon="-2.9644100">
        <ele>295.8</ele>
        <time>2021-03-02T09:22:58Z</time>
      </trkpt>
      <trkpt lat="36.8603750" lon="-2.9644550">
        <ele>295.8</ele>
        <time>2021-03-02T09:22:59Z</time>
      </trkpt>
      <trkpt lat="36.8604220" lon="-2.9644980">
        <ele>295.8</ele>
        <time>2021-03-02T09:23:00Z</time>
      </trkpt>
      <trkpt lat="36.8604700" lon="-2.9645390">
        <ele>295.8</ele>
        <time>2021-03-02T09:23:01Z</time>
      </trkpt>
      <trkpt lat="36.8605190" lon="-2.9645780">
        <ele>295.8</ele>
        <time>2021-03-02T09:23:02Z</time>
      </trkpt>
      <trkpt lat="36.8605680" lon="-2.9646170">
        <ele>295.8</ele>
        <time>2021-03-02T09:23:03Z</time>
      </trkpt>
      <trkpt lat="36.8606180" lon="-2.9646570">
        <ele>295.8</ele>
        <time>2021-03-02T09:23:04Z</time>
      </trkpt>
      <trkpt lat="36.8606660" lon="-2.9647010">
        <ele>295.8</ele>
        <time>2021-03-02T09:23:05Z</time>
      </trkpt>
      <trkpt lat="36.8607150" lon="-2.9647460">
        <ele>295.8</ele>
        <time>2021-03-02T09:23:06Z</time>
      </trkpt>
      <trkpt lat="36.8607640" lon="-2.9647930">
        <ele>295.8</ele>
        <time>2021-03-02T09:23:07Z</time>
      </trkpt>
      <trkpt lat="36.8608120" lon="-2.9648400">
        <ele>296.0</ele>
        <time>2021-03-02T09:23:08Z</time>
      </trkpt>
      <trkpt lat="36.8608590" lon="-2.9648890">
        <ele>296.0</ele>
        <time>2021-03-02T09:23:09Z</time>
      </trkpt>
      <trkpt lat="36.8609050" lon="-2.9649400">
        <ele>295.8</ele>
        <time>2021-03-02T09:23:10Z</time>
      </trkpt>
      <trkpt lat="36.8609490" lon="-2.9649920">
        <ele>295.8</ele>
        <time>2021-03-02T09:23:11Z</time>
      </trkpt>
      <trkpt lat="36.8609920" lon="-2.9650450">
        <ele>295.8</ele>
        <time>2021-03-02T09:23:12Z</time>
      </trkpt>
      <trkpt lat="36.8610340" lon="-2.9650980">
        <ele>295.8</ele>
        <time>2021-03-02T09:23:13Z</time>
      </trkpt>
      <trkpt lat="36.8610750" lon="-2.9651510">
        <ele>295.8</ele>
        <time>2021-03-02T09:23:14Z</time>
      </trkpt>
      <trkpt lat="36.8611170" lon="-2.9652060">
        <ele>295.8</ele>
        <time>2021-03-02T09:23:15Z</time>
      </trkpt>
      <trkpt lat="36.8611590" lon="-2.9652590">
        <ele>295.8</ele>
        <time>2021-03-02T09:23:16Z</time>
      </trkpt>
      <trkpt lat="36.8612010" lon="-2.9653130">
        <ele>295.8</ele>
        <time>2021-03-02T09:23:17Z</time>
      </trkpt>
      <trkpt lat="36.8612430" lon="-2.9653680">
        <ele>295.8</ele>
        <time>2021-03-02T09:23:18Z</time>
      </trkpt>
      <trkpt lat="36.8612840" lon="-2.9654240">
        <ele>295.8</ele>
        <time>2021-03-02T09:23:19Z</time>
      </trkpt>
      <trkpt lat="36.8613250" lon="-2.9654830">
        <ele>295.8</ele>
        <time>2021-03-02T09:23:20Z</time>
      </trkpt>
      <trkpt lat="36.8613640" lon="-2.9655420">
        <ele>295.8</ele>
        <time>2021-03-02T09:23:21Z</time>
      </trkpt>
      <trkpt lat="36.8614040" lon="-2.9656010">
        <ele>295.8</ele>
        <time>2021-03-02T09:23:22Z</time>
      </trkpt>
      <trkpt lat="36.8614420" lon="-2.9656610">
        <ele>295.8</ele>
        <time>2021-03-02T09:23:23Z</time>
      </trkpt>
      <trkpt lat="36.8614790" lon="-2.9657190">
        <ele>295.8</ele>
        <time>2021-03-02T09:23:24Z</time>
      </trkpt>
      <trkpt lat="36.8615160" lon="-2.9657750">
        <ele>295.8</ele>
        <time>2021-03-02T09:23:25Z</time>
      </trkpt>
      <trkpt lat="36.8615540" lon="-2.9658300">
        <ele>296.0</ele>
        <time>2021-03-02T09:23:26Z</time>
      </trkpt>
      <trkpt lat="36.8615930" lon="-2.9658850">
        <ele>296.0</ele>
        <time>2021-03-02T09:23:27Z</time>
      </trkpt>
      <trkpt lat="36.8616320" lon="-2.9659400">
        <ele>296.2</ele>
        <time>2021-03-02T09:23:28Z</time>
      </trkpt>
      <trkpt lat="36.8616710" lon="-2.9659950">
        <ele>296.2</ele>
        <time>2021-03-02T09:23:29Z</time>
      </trkpt>
      <trkpt lat="36.8617100" lon="-2.9660510">
        <ele>296.2</ele>
        <time>2021-03-02T09:23:30Z</time>
      </trkpt>
      <trkpt lat="36.8617490" lon="-2.9661080">
        <ele>296.2</ele>
        <time>2021-03-02T09:23:31Z</time>
      </trkpt>
      <trkpt lat="36.8617860" lon="-2.9661660">
        <ele>296.0</ele>
        <time>2021-03-02T09:23:32Z</time>
      </trkpt>
      <trkpt lat="36.8618230" lon="-2.9662280">
        <ele>296.0</ele>
        <time>2021-03-02T09:23:33Z</time>
      </trkpt>
      <trkpt lat="36.8618630" lon="-2.9662910">
        <ele>295.8</ele>
        <time>2021-03-02T09:23:34Z</time>
      </trkpt>
      <trkpt lat="36.8619030" lon="-2.9663520">
        <ele>295.8</ele>
        <time>2021-03-02T09:23:35Z</time>
      </trkpt>
      <trkpt lat="36.8619390" lon="-2.9664110">
        <ele>295.8</ele>
        <time>2021-03-02T09:23:36Z</time>
      </trkpt>
      <trkpt lat="36.8619750" lon="-2.9664660">
        <ele>295.8</ele>
        <time>2021-03-02T09:23:37Z</time>
      </trkpt>
      <trkpt lat="36.8620130" lon="-2.9665200">
        <ele>295.8</ele>
        <time>2021-03-02T09:23:38Z</time>
      </trkpt>
      <trkpt lat="36.8620520" lon="-2.9665700">
        <ele>296.0</ele>
        <time>2021-03-02T09:23:39Z</time>
      </trkpt>
      <trkpt lat="36.8620920" lon="-2.9666180">
        <ele>296.0</ele>
        <time>2021-03-02T09:23:40Z</time>
      </trkpt>
      <trkpt lat="36.8621330" lon="-2.9666650">
        <ele>296.0</ele>
        <time>2021-03-02T09:23:41Z</time>
      </trkpt>
      <trkpt lat="36.8621740" lon="-2.9667130">
        <ele>296.0</ele>
        <time>2021-03-02T09:23:42Z</time>
      </trkpt>
      <trkpt lat="36.8622140" lon="-2.9667620">
        <ele>296.0</ele>
        <time>2021-03-02T09:23:43Z</time>
      </trkpt>
      <trkpt lat="36.8622560" lon="-2.9668110">
        <ele>296.0</ele>
        <time>2021-03-02T09:23:44Z</time>
      </trkpt>
      <trkpt lat="36.8622990" lon="-2.9668570">
        <ele>296.0</ele>
        <time>2021-03-02T09:23:45Z</time>
      </trkpt>
      <trkpt lat="36.8623430" lon="-2.9669050">
        <ele>296.2</ele>
        <time>2021-03-02T09:23:46Z</time>
      </trkpt>
      <trkpt lat="36.8623870" lon="-2.9669530">
        <ele>296.2</ele>
        <time>2021-03-02T09:23:47Z</time>
      </trkpt>
      <trkpt lat="36.8624300" lon="-2.9670000">
        <ele>296.2</ele>
        <time>2021-03-02T09:23:48Z</time>
      </trkpt>
      <trkpt lat="36.8624750" lon="-2.9670470">
        <ele>296.2</ele>
        <time>2021-03-02T09:23:49Z</time>
      </trkpt>
      <trkpt lat="36.8625200" lon="-2.9670930">
        <ele>296.2</ele>
        <time>2021-03-02T09:23:50Z</time>
      </trkpt>
      <trkpt lat="36.8625660" lon="-2.9671400">
        <ele>296.2</ele>
        <time>2021-03-02T09:23:51Z</time>
      </trkpt>
      <trkpt lat="36.8626110" lon="-2.9671880">
        <ele>296.2</ele>
        <time>2021-03-02T09:23:52Z</time>
      </trkpt>
      <trkpt lat="36.8626560" lon="-2.9672370">
        <ele>296.2</ele>
        <time>2021-03-02T09:23:53Z</time>
      </trkpt>
      <trkpt lat="36.8626990" lon="-2.9672890">
        <ele>296.2</ele>
        <time>2021-03-02T09:23:54Z</time>
      </trkpt>
      <trkpt lat="36.8627430" lon="-2.9673390">
        <ele>296.2</ele>
        <time>2021-03-02T09:23:55Z</time>
      </trkpt>
      <trkpt lat="36.8627870" lon="-2.9673900">
        <ele>296.2</ele>
        <time>2021-03-02T09:23:56Z</time>
      </trkpt>
      <trkpt lat="36.8628320" lon="-2.9674410">
        <ele>296.2</ele>
        <time>2021-03-02T09:23:57Z</time>
      </trkpt>
      <trkpt lat="36.8628760" lon="-2.9674910">
        <ele>296.2</ele>
        <time>2021-03-02T09:23:58Z</time>
      </trkpt>
      <trkpt lat="36.8629210" lon="-2.9675420">
        <ele>296.2</ele>
        <time>2021-03-02T09:23:59Z</time>
      </trkpt>
      <trkpt lat="36.8629630" lon="-2.9675970">
        <ele>296.2</ele>
        <time>2021-03-02T09:24:00Z</time>
      </trkpt>
      <trkpt lat="36.8630040" lon="-2.9676520">
        <ele>296.2</ele>
        <time>2021-03-02T09:24:01Z</time>
      </trkpt>
      <trkpt lat="36.8630430" lon="-2.9677090">
        <ele>296.2</ele>
        <time>2021-03-02T09:24:02Z</time>
      </trkpt>
      <trkpt lat="36.8630810" lon="-2.9677670">
        <ele>296.2</ele>
        <time>2021-03-02T09:24:03Z</time>
      </trkpt>
      <trkpt lat="36.8631170" lon="-2.9678260">
        <ele>296.4</ele>
        <time>2021-03-02T09:24:04Z</time>
      </trkpt>
      <trkpt lat="36.8631520" lon="-2.9678870">
        <ele>296.4</ele>
        <time>2021-03-02T09:24:05Z</time>
      </trkpt>
      <trkpt lat="36.8631850" lon="-2.9679510">
        <ele>296.4</ele>
        <time>2021-03-02T09:24:06Z</time>
      </trkpt>
      <trkpt lat="36.8632180" lon="-2.9680130">
        <ele>296.6</ele>
        <time>2021-03-02T09:24:07Z</time>
      </trkpt>
      <trkpt lat="36.8632520" lon="-2.9680740">
        <ele>296.6</ele>
        <time>2021-03-02T09:24:08Z</time>
      </trkpt>
      <trkpt lat="36.8632830" lon="-2.9681380">
        <ele>296.6</ele>
        <time>2021-03-02T09:24:09Z</time>
      </trkpt>
      <trkpt lat="36.8633140" lon="-2.9682010">
        <ele>296.6</ele>
        <time>2021-03-02T09:24:10Z</time>
      </trkpt>
      <trkpt lat="36.8633430" lon="-2.9682640">
        <ele>296.6</ele>
        <time>2021-03-02T09:24:11Z</time>
      </trkpt>
      <trkpt lat="36.8633740" lon="-2.9683280">
        <ele>296.6</ele>
        <time>2021-03-02T09:24:12Z</time>
      </trkpt>
      <trkpt lat="36.8634030" lon="-2.9683910">
        <ele>296.6</ele>
        <time>2021-03-02T09:24:13Z</time>
      </trkpt>
      <trkpt lat="36.8634320" lon="-2.9684560">
        <ele>296.6</ele>
        <time>2021-03-02T09:24:14Z</time>
      </trkpt>
      <trkpt lat="36.8634600" lon="-2.9685220">
        <ele>296.6</ele>
        <time>2021-03-02T09:24:15Z</time>
      </trkpt>
      <trkpt lat="36.8634880" lon="-2.9685880">
        <ele>296.6</ele>
        <time>2021-03-02T09:24:16Z</time>
      </trkpt>
      <trkpt lat="36.8635150" lon="-2.9686530">
        <ele>296.8</ele>
        <time>2021-03-02T09:24:17Z</time>
      </trkpt>
      <trkpt lat="36.8635420" lon="-2.9687190">
        <ele>296.8</ele>
        <time>2021-03-02T09:24:18Z</time>
      </trkpt>
      <trkpt lat="36.8635680" lon="-2.9687830">
        <ele>297.0</ele>
        <time>2021-03-02T09:24:19Z</time>
      </trkpt>
      <trkpt lat="36.8635940" lon="-2.9688470">
        <ele>297.0</ele>
        <time>2021-03-02T09:24:20Z</time>
      </trkpt>
      <trkpt lat="36.8636200" lon="-2.9689110">
        <ele>297.0</ele>
        <time>2021-03-02T09:24:21Z</time>
      </trkpt>
      <trkpt lat="36.8636460" lon="-2.9689740">
        <ele>297.2</ele>
        <time>2021-03-02T09:24:22Z</time>
      </trkpt>
      <trkpt lat="36.8636710" lon="-2.9690350">
        <ele>297.2</ele>
        <time>2021-03-02T09:24:23Z</time>
      </trkpt>
      <trkpt lat="36.8636950" lon="-2.9690950">
        <ele>297.4</ele>
        <time>2021-03-02T09:24:24Z</time>
      </trkpt>
      <trkpt lat="36.8637210" lon="-2.9691530">
        <ele>297.4</ele>
        <time>2021-03-02T09:24:25Z</time>
      </trkpt>
      <trkpt lat="36.8637480" lon="-2.9692100">
        <ele>297.8</ele>
        <time>2021-03-02T09:24:26Z</time>
      </trkpt>
      <trkpt lat="36.8637760" lon="-2.9692650">
        <ele>298.0</ele>
        <time>2021-03-02T09:24:27Z</time>
      </trkpt>
      <trkpt lat="36.8638060" lon="-2.9693180">
        <ele>298.0</ele>
        <time>2021-03-02T09:24:28Z</time>
      </trkpt>
      <trkpt lat="36.8638370" lon="-2.9693700">
        <ele>298.2</ele>
        <time>2021-03-02T09:24:29Z</time>
      </trkpt>
      <trkpt lat="36.8638660" lon="-2.9694200">
        <ele>298.2</ele>
        <time>2021-03-02T09:24:30Z</time>
      </trkpt>
      <trkpt lat="36.8638970" lon="-2.9694700">
        <ele>298.2</ele>
        <time>2021-03-02T09:24:31Z</time>
      </trkpt>
      <trkpt lat="36.8639270" lon="-2.9695200">
        <ele>298.4</ele>
        <time>2021-03-02T09:24:32Z</time>
      </trkpt>
      <trkpt lat="36.8639570" lon="-2.9695700">
        <ele>298.4</ele>
        <time>2021-03-02T09:24:33Z</time>
      </trkpt>
      <trkpt lat="36.8639870" lon="-2.9696190">
        <ele>298.8</ele>
        <time>2021-03-02T09:24:34Z</time>
      </trkpt>
      <trkpt lat="36.8640210" lon="-2.9696630">
        <ele>299.0</ele>
        <time>2021-03-02T09:24:35Z</time>
      </trkpt>
      <trkpt lat="36.8640550" lon="-2.9697020">
        <ele>299.2</ele>
        <time>2021-03-02T09:24:36Z</time>
      </trkpt>
      <trkpt lat="36.8640880" lon="-2.9697420">
        <ele>299.2</ele>
        <time>2021-03-02T09:24:37Z</time>
      </trkpt>
      <trkpt lat="36.8641170" lon="-2.9697880">
        <ele>299.6</ele>
        <time>2021-03-02T09:24:38Z</time>
      </trkpt>
      <trkpt lat="36.8641420" lon="-2.9698350">
        <ele>299.8</ele>
        <time>2021-03-02T09:24:39Z</time>
      </trkpt>
      <trkpt lat="36.8641690" lon="-2.9698790">
        <ele>300.0</ele>
        <time>2021-03-02T09:24:40Z</time>
      </trkpt>
      <trkpt lat="36.8641960" lon="-2.9699230">
        <ele>300.0</ele>
        <time>2021-03-02T09:24:41Z</time>
      </trkpt>
      <trkpt lat="36.8642210" lon="-2.9699700">
        <ele>300.2</ele>
        <time>2021-03-02T09:24:42Z</time>
      </trkpt>
      <trkpt lat="36.8642430" lon="-2.9700180">
        <ele>300.4</ele>
        <time>2021-03-02T09:24:43Z</time>
      </trkpt>
      <trkpt lat="36.8642670" lon="-2.9700670">
        <ele>300.4</ele>
        <time>2021-03-02T09:24:44Z</time>
      </trkpt>
      <trkpt lat="36.8642930" lon="-2.9701170">
        <ele>300.6</ele>
        <time>2021-03-02T09:24:45Z</time>
      </trkpt>
      <trkpt lat="36.8643190" lon="-2.9701650">
        <ele>300.6</ele>
        <time>2021-03-02T09:24:46Z</time>
      </trkpt>
      <trkpt lat="36.8643450" lon="-2.9702120">
        <ele>300.6</ele>
        <time>2021-03-02T09:24:47Z</time>
      </trkpt>
      <trkpt lat="36.8643700" lon="-2.9702600">
        <ele>300.8</ele>
        <time>2021-03-02T09:24:48Z</time>
      </trkpt>
      <trkpt lat="36.8643950" lon="-2.9703090">
        <ele>301.2</ele>
        <time>2021-03-02T09:24:49Z</time>
      </trkpt>
      <trkpt lat="36.8644200" lon="-2.9703600">
        <ele>301.4</ele>
        <time>2021-03-02T09:24:50Z</time>
      </trkpt>
      <trkpt lat="36.8644430" lon="-2.9704080">
        <ele>301.8</ele>
        <time>2021-03-02T09:24:51Z</time>
      </trkpt>
      <trkpt lat="36.8644640" lon="-2.9704560">
        <ele>301.8</ele>
        <time>2021-03-02T09:24:52Z</time>
      </trkpt>
      <trkpt lat="36.8644870" lon="-2.9705010">
        <ele>302.2</ele>
        <time>2021-03-02T09:24:53Z</time>
      </trkpt>
      <trkpt lat="36.8645090" lon="-2.9705420">
        <ele>302.4</ele>
        <time>2021-03-02T09:24:54Z</time>
      </trkpt>
      <trkpt lat="36.8645310" lon="-2.9705800">
        <ele>302.6</ele>
        <time>2021-03-02T09:24:55Z</time>
      </trkpt>
      <trkpt lat="36.8645500" lon="-2.9706150">
        <ele>302.8</ele>
        <time>2021-03-02T09:24:56Z</time>
      </trkpt>
      <trkpt lat="36.8645670" lon="-2.9706480">
        <ele>302.8</ele>
        <time>2021-03-02T09:24:57Z</time>
      </trkpt>
      <trkpt lat="36.8645810" lon="-2.9706810">
        <ele>303.0</ele>
        <time>2021-03-02T09:24:58Z</time>
      </trkpt>
      <trkpt lat="36.8645940" lon="-2.9707170">
        <ele>303.2</ele>
        <time>2021-03-02T09:24:59Z</time>
      </trkpt>
      <trkpt lat="36.8646070" lon="-2.9707500">
        <ele>303.4</ele>
        <time>2021-03-02T09:25:00Z</time>
      </trkpt>
      <trkpt lat="36.8646170" lon="-2.9707780">
        <ele>303.4</ele>
        <time>2021-03-02T09:25:01Z</time>
      </trkpt>
      <trkpt lat="36.8646270" lon="-2.9707990">
        <ele>303.6</ele>
        <time>2021-03-02T09:25:02Z</time>
      </trkpt>
      <trkpt lat="36.8646340" lon="-2.9708150">
        <ele>303.6</ele>
        <time>2021-03-02T09:25:03Z</time>
      </trkpt>
      <trkpt lat="36.8646420" lon="-2.9708320">
        <ele>303.6</ele>
        <time>2021-03-02T09:25:04Z</time>
      </trkpt>
      <trkpt lat="36.8646480" lon="-2.9708480">
        <ele>303.6</ele>
        <time>2021-03-02T09:25:05Z</time>
      </trkpt>
      <trkpt lat="36.8646560" lon="-2.9708640">
        <ele>303.6</ele>
        <time>2021-03-02T09:25:06Z</time>
      </trkpt>
      <trkpt lat="36.8646630" lon="-2.9708790">
        <ele>303.6</ele>
        <time>2021-03-02T09:25:07Z</time>
      </trkpt>
      <trkpt lat="36.8646740" lon="-2.9708820">
        <ele>303.6</ele>
        <time>2021-03-02T09:25:08Z</time>
      </trkpt>
      <trkpt lat="36.8646870" lon="-2.9708840">
        <ele>303.6</ele>
        <time>2021-03-02T09:25:09Z</time>
      </trkpt>
      <trkpt lat="36.8647020" lon="-2.9708950">
        <ele>303.6</ele>
        <time>2021-03-02T09:25:10Z</time>
      </trkpt>
      <trkpt lat="36.8647190" lon="-2.9709150">
        <ele>303.6</ele>
        <time>2021-03-02T09:25:11Z</time>
      </trkpt>
      <trkpt lat="36.8647390" lon="-2.9709440">
        <ele>303.6</ele>
        <time>2021-03-02T09:25:12Z</time>
      </trkpt>
      <trkpt lat="36.8647480" lon="-2.9709820">
        <ele>303.6</ele>
        <time>2021-03-02T09:25:13Z</time>
      </trkpt>
      <trkpt lat="36.8647560" lon="-2.9710240">
        <ele>303.6</ele>
        <time>2021-03-02T09:25:14Z</time>
      </trkpt>
      <trkpt lat="36.8647660" lon="-2.9710640">
        <ele>303.8</ele>
        <time>2021-03-02T09:25:15Z</time>
      </trkpt>
      <trkpt lat="36.8647820" lon="-2.9710990">
        <ele>304.0</ele>
        <time>2021-03-02T09:25:16Z</time>
      </trkpt>
      <trkpt lat="36.8648030" lon="-2.9711250">
        <ele>304.2</ele>
        <time>2021-03-02T09:25:17Z</time>
      </trkpt>
      <trkpt lat="36.8648230" lon="-2.9711460">
        <ele>304.2</ele>
        <time>2021-03-02T09:25:18Z</time>
      </trkpt>
      <trkpt lat="36.8648360" lon="-2.9711640">
        <ele>304.2</ele>
        <time>2021-03-02T09:25:19Z</time>
      </trkpt>
      <trkpt lat="36.8648420" lon="-2.9711800">
        <ele>304.2</ele>
        <time>2021-03-02T09:25:20Z</time>
      </trkpt>
      <trkpt lat="36.8648410" lon="-2.9711870">
        <ele>304.2</ele>
        <time>2021-03-02T09:25:21Z</time>
      </trkpt>
      <trkpt lat="36.8648400" lon="-2.9711880">
        <ele>304.2</ele>
        <time>2021-03-02T09:25:22Z</time>
      </trkpt>
      <trkpt lat="36.8648400" lon="-2.9711880">
        <ele>304.2</ele>
        <time>2021-03-02T09:25:23Z</time>
      </trkpt>
      <trkpt lat="36.8648430" lon="-2.9711890">
        <ele>304.4</ele>
        <time>2021-03-02T09:25:24Z</time>
      </trkpt>
      <trkpt lat="36.8648490" lon="-2.9711880">
        <ele>304.4</ele>
        <time>2021-03-02T09:25:25Z</time>
      </trkpt>
      <trkpt lat="36.8648550" lon="-2.9711900">
        <ele>304.4</ele>
        <time>2021-03-02T09:25:26Z</time>
      </trkpt>
      <trkpt lat="36.8648590" lon="-2.9711910">
        <ele>304.6</ele>
        <time>2021-03-02T09:25:27Z</time>
      </trkpt>
      <trkpt lat="36.8648620" lon="-2.9711930">
        <ele>304.6</ele>
        <time>2021-03-02T09:25:28Z</time>
      </trkpt>
      <trkpt lat="36.8648680" lon="-2.9711990">
        <ele>304.4</ele>
        <time>2021-03-02T09:25:29Z</time>
      </trkpt>
      <trkpt lat="36.8648730" lon="-2.9712110">
        <ele>304.4</ele>
        <time>2021-03-02T09:25:30Z</time>
      </trkpt>
      <trkpt lat="36.8648770" lon="-2.9712230">
        <ele>304.4</ele>
        <time>2021-03-02T09:25:31Z</time>
      </trkpt>
      <trkpt lat="36.8648800" lon="-2.9712360">
        <ele>304.4</ele>
        <time>2021-03-02T09:25:32Z</time>
      </trkpt>
      <trkpt lat="36.8648830" lon="-2.9712490">
        <ele>304.4</ele>
        <time>2021-03-02T09:25:33Z</time>
      </trkpt>
      <trkpt lat="36.8648860" lon="-2.9712610">
        <ele>304.6</ele>
        <time>2021-03-02T09:25:34Z</time>
      </trkpt>
      <trkpt lat="36.8648860" lon="-2.9712740">
        <ele>304.6</ele>
        <time>2021-03-02T09:25:35Z</time>
      </trkpt>
      <trkpt lat="36.8648840" lon="-2.9712920">
        <ele>304.6</ele>
        <time>2021-03-02T09:25:36Z</time>
      </trkpt>
      <trkpt lat="36.8648830" lon="-2.9713150">
        <ele>304.6</ele>
        <time>2021-03-02T09:25:37Z</time>
      </trkpt>
      <trkpt lat="36.8648850" lon="-2.9713410">
        <ele>304.8</ele>
        <time>2021-03-02T09:25:38Z</time>
      </trkpt>
      <trkpt lat="36.8648930" lon="-2.9713730">
        <ele>304.8</ele>
        <time>2021-03-02T09:25:39Z</time>
      </trkpt>
      <trkpt lat="36.8649060" lon="-2.9714110">
        <ele>305.0</ele>
        <time>2021-03-02T09:25:40Z</time>
      </trkpt>
      <trkpt lat="36.8649230" lon="-2.9714590">
        <ele>305.0</ele>
        <time>2021-03-02T09:25:41Z</time>
      </trkpt>
      <trkpt lat="36.8649450" lon="-2.9715070">
        <ele>305.2</ele>
        <time>2021-03-02T09:25:42Z</time>
      </trkpt>
      <trkpt lat="36.8649670" lon="-2.9715540">
        <ele>305.2</ele>
        <time>2021-03-02T09:25:43Z</time>
      </trkpt>
      <trkpt lat="36.8649890" lon="-2.9716050">
        <ele>305.2</ele>
        <time>2021-03-02T09:25:44Z</time>
      </trkpt>
      <trkpt lat="36.8650120" lon="-2.9716560">
        <ele>305.6</ele>
        <time>2021-03-02T09:25:45Z</time>
      </trkpt>
      <trkpt lat="36.8650350" lon="-2.9717070">
        <ele>305.6</ele>
        <time>2021-03-02T09:25:46Z</time>
      </trkpt>
      <trkpt lat="36.8650590" lon="-2.9717580">
        <ele>305.8</ele>
        <time>2021-03-02T09:25:47Z</time>
      </trkpt>
      <trkpt lat="36.8650820" lon="-2.9718080">
        <ele>306.0</ele>
        <time>2021-03-02T09:25:48Z</time>
      </trkpt>
      <trkpt lat="36.8651060" lon="-2.9718580">
        <ele>306.0</ele>
        <time>2021-03-02T09:25:49Z</time>
      </trkpt>
      <trkpt lat="36.8651330" lon="-2.9719080">
        <ele>306.4</ele>
        <time>2021-03-02T09:25:50Z</time>
      </trkpt>
      <trkpt lat="36.8651600" lon="-2.9719590">
        <ele>306.4</ele>
        <time>2021-03-02T09:25:51Z</time>
      </trkpt>
      <trkpt lat="36.8651870" lon="-2.9720100">
        <ele>306.6</ele>
        <time>2021-03-02T09:25:52Z</time>
      </trkpt>
      <trkpt lat="36.8652150" lon="-2.9720590">
        <ele>306.6</ele>
        <time>2021-03-02T09:25:53Z</time>
      </trkpt>
      <trkpt lat="36.8652420" lon="-2.9721080">
        <ele>306.8</ele>
        <time>2021-03-02T09:25:54Z</time>
      </trkpt>
      <trkpt lat="36.8652690" lon="-2.9721560">
        <ele>307.0</ele>
        <time>2021-03-02T09:25:55Z</time>
      </trkpt>
      <trkpt lat="36.8652960" lon="-2.9722040">
        <ele>307.2</ele>
        <time>2021-03-02T09:25:56Z</time>
      </trkpt>
      <trkpt lat="36.8653240" lon="-2.9722520">
        <ele>307.4</ele>
        <time>2021-03-02T09:25:57Z</time>
      </trkpt>
      <trkpt lat="36.8653530" lon="-2.9722990">
        <ele>307.6</ele>
        <time>2021-03-02T09:25:58Z</time>
      </trkpt>
      <trkpt lat="36.8653830" lon="-2.9723460">
        <ele>307.6</ele>
        <time>2021-03-02T09:25:59Z</time>
      </trkpt>
      <trkpt lat="36.8654110" lon="-2.9723930">
        <ele>307.8</ele>
        <time>2021-03-02T09:26:00Z</time>
      </trkpt>
      <trkpt lat="36.8654390" lon="-2.9724410">
        <ele>308.0</ele>
        <time>2021-03-02T09:26:01Z</time>
      </trkpt>
      <trkpt lat="36.8654680" lon="-2.9724880">
        <ele>308.2</ele>
        <time>2021-03-02T09:26:02Z</time>
      </trkpt>
      <trkpt lat="36.8654950" lon="-2.9725350">
        <ele>308.2</ele>
        <time>2021-03-02T09:26:03Z</time>
      </trkpt>
      <trkpt lat="36.8655220" lon="-2.9725820">
        <ele>308.4</ele>
        <time>2021-03-02T09:26:04Z</time>
      </trkpt>
      <trkpt lat="36.8655490" lon="-2.9726290">
        <ele>308.4</ele>
        <time>2021-03-02T09:26:05Z</time>
      </trkpt>
      <trkpt lat="36.8655770" lon="-2.9726750">
        <ele>308.6</ele>
        <time>2021-03-02T09:26:06Z</time>
      </trkpt>
      <trkpt lat="36.8656040" lon="-2.9727230">
        <ele>308.8</ele>
        <time>2021-03-02T09:26:07Z</time>
      </trkpt>
      <trkpt lat="36.8656320" lon="-2.9727710">
        <ele>308.8</ele>
        <time>2021-03-02T09:26:08Z</time>
      </trkpt>
      <trkpt lat="36.8656600" lon="-2.9728190">
        <ele>309.0</ele>
        <time>2021-03-02T09:26:09Z</time>
      </trkpt>
      <trkpt lat="36.8656880" lon="-2.9728670">
        <ele>309.0</ele>
        <time>2021-03-02T09:26:10Z</time>
      </trkpt>
      <trkpt lat="36.8657140" lon="-2.9729160">
        <ele>309.4</ele>
        <time>2021-03-02T09:26:11Z</time>
      </trkpt>
      <trkpt lat="36.8657410" lon="-2.9729650">
        <ele>309.4</ele>
        <time>2021-03-02T09:26:12Z</time>
      </trkpt>
      <trkpt lat="36.8657680" lon="-2.9730130">
        <ele>309.6</ele>
        <time>2021-03-02T09:26:13Z</time>
      </trkpt>
      <trkpt lat="36.8657930" lon="-2.9730620">
        <ele>309.8</ele>
        <time>2021-03-02T09:26:14Z</time>
      </trkpt>
      <trkpt lat="36.8658190" lon="-2.9731100">
        <ele>309.8</ele>
        <time>2021-03-02T09:26:15Z</time>
      </trkpt>
      <trkpt lat="36.8658430" lon="-2.9731570">
        <ele>310.0</ele>
        <time>2021-03-02T09:26:16Z</time>
      </trkpt>
      <trkpt lat="36.8658670" lon="-2.9732030">
        <ele>310.0</ele>
        <time>2021-03-02T09:26:17Z</time>
      </trkpt>
      <trkpt lat="36.8658920" lon="-2.9732480">
        <ele>310.4</ele>
        <time>2021-03-02T09:26:18Z</time>
      </trkpt>
      <trkpt lat="36.8659180" lon="-2.9732930">
        <ele>310.4</ele>
        <time>2021-03-02T09:26:19Z</time>
      </trkpt>
      <trkpt lat="36.8659440" lon="-2.9733360">
        <ele>310.8</ele>
        <time>2021-03-02T09:26:20Z</time>
      </trkpt>
      <trkpt lat="36.8659700" lon="-2.9733800">
        <ele>311.0</ele>
        <time>2021-03-02T09:26:21Z</time>
      </trkpt>
      <trkpt lat="36.8659970" lon="-2.9734240">
        <ele>311.0</ele>
        <time>2021-03-02T09:26:22Z</time>
      </trkpt>
      <trkpt lat="36.8660260" lon="-2.9734650">
        <ele>311.2</ele>
        <time>2021-03-02T09:26:23Z</time>
      </trkpt>
      <trkpt lat="36.8660570" lon="-2.9735070">
        <ele>311.4</ele>
        <time>2021-03-02T09:26:24Z</time>
      </trkpt>
      <trkpt lat="36.8660900" lon="-2.9735500">
        <ele>311.6</ele>
        <time>2021-03-02T09:26:25Z</time>
      </trkpt>
      <trkpt lat="36.8661210" lon="-2.9735940">
        <ele>311.6</ele>
        <time>2021-03-02T09:26:26Z</time>
      </trkpt>
      <trkpt lat="36.8661480" lon="-2.9736410">
        <ele>311.6</ele>
        <time>2021-03-02T09:26:27Z</time>
      </trkpt>
      <trkpt lat="36.8661750" lon="-2.9736880">
        <ele>311.8</ele>
        <time>2021-03-02T09:26:28Z</time>
      </trkpt>
      <trkpt lat="36.8662010" lon="-2.9737360">
        <ele>312.0</ele>
        <time>2021-03-02T09:26:29Z</time>
      </trkpt>
      <trkpt lat="36.8662270" lon="-2.9737820">
        <ele>312.2</ele>
        <time>2021-03-02T09:26:30Z</time>
      </trkpt>
      <trkpt lat="36.8662550" lon="-2.9738270">
        <ele>312.2</ele>
        <time>2021-03-02T09:26:31Z</time>
      </trkpt>
      <trkpt lat="36.8662830" lon="-2.9738710">
        <ele>312.4</ele>
        <time>2021-03-02T09:26:32Z</time>
      </trkpt>
      <trkpt lat="36.8663110" lon="-2.9739130">
        <ele>312.6</ele>
        <time>2021-03-02T09:26:33Z</time>
      </trkpt>
      <trkpt lat="36.8663390" lon="-2.9739550">
        <ele>312.6</ele>
        <time>2021-03-02T09:26:34Z</time>
      </trkpt>
      <trkpt lat="36.8663680" lon="-2.9739980">
        <ele>312.8</ele>
        <time>2021-03-02T09:26:35Z</time>
      </trkpt>
      <trkpt lat="36.8663950" lon="-2.9740420">
        <ele>312.8</ele>
        <time>2021-03-02T09:26:36Z</time>
      </trkpt>
      <trkpt lat="36.8664220" lon="-2.9740860">
        <ele>312.8</ele>
        <time>2021-03-02T09:26:37Z</time>
      </trkpt>
      <trkpt lat="36.8664490" lon="-2.9741310">
        <ele>313.0</ele>
        <time>2021-03-02T09:26:38Z</time>
      </trkpt>
      <trkpt lat="36.8664760" lon="-2.9741770">
        <ele>313.0</ele>
        <time>2021-03-02T09:26:39Z</time>
      </trkpt>
      <trkpt lat="36.8665040" lon="-2.9742230">
        <ele>313.2</ele>
        <time>2021-03-02T09:26:40Z</time>
      </trkpt>
      <trkpt lat="36.8665320" lon="-2.9742690">
        <ele>313.2</ele>
        <time>2021-03-02T09:26:41Z</time>
      </trkpt>
      <trkpt lat="36.8665620" lon="-2.9743150">
        <ele>313.4</ele>
        <time>2021-03-02T09:26:42Z</time>
      </trkpt>
      <trkpt lat="36.8665910" lon="-2.9743600">
        <ele>313.4</ele>
        <time>2021-03-02T09:26:43Z</time>
      </trkpt>
      <trkpt lat="36.8666200" lon="-2.9744060">
        <ele>313.6</ele>
        <time>2021-03-02T09:26:44Z</time>
      </trkpt>
      <trkpt lat="36.8666470" lon="-2.9744520">
        <ele>313.6</ele>
        <time>2021-03-02T09:26:45Z</time>
      </trkpt>
      <trkpt lat="36.8666740" lon="-2.9744980">
        <ele>313.8</ele>
        <time>2021-03-02T09:26:46Z</time>
      </trkpt>
      <trkpt lat="36.8667010" lon="-2.9745440">
        <ele>314.0</ele>
        <time>2021-03-02T09:26:47Z</time>
      </trkpt>
      <trkpt lat="36.8667270" lon="-2.9745900">
        <ele>314.2</ele>
        <time>2021-03-02T09:26:48Z</time>
      </trkpt>
      <trkpt lat="36.8667510" lon="-2.9746360">
        <ele>314.2</ele>
        <time>2021-03-02T09:26:49Z</time>
      </trkpt>
      <trkpt lat="36.8667750" lon="-2.9746830">
        <ele>314.4</ele>
        <time>2021-03-02T09:26:50Z</time>
      </trkpt>
      <trkpt lat="36.8668010" lon="-2.9747260">
        <ele>314.6</ele>
        <time>2021-03-02T09:26:51Z</time>
      </trkpt>
      <trkpt lat="36.8668280" lon="-2.9747650">
        <ele>314.8</ele>
        <time>2021-03-02T09:26:52Z</time>
      </trkpt>
      <trkpt lat="36.8668570" lon="-2.9748020">
        <ele>314.8</ele>
        <time>2021-03-02T09:26:53Z</time>
      </trkpt>
      <trkpt lat="36.8668870" lon="-2.9748390">
        <ele>315.0</ele>
        <time>2021-03-02T09:26:54Z</time>
      </trkpt>
      <trkpt lat="36.8669200" lon="-2.9748730">
        <ele>315.0</ele>
        <time>2021-03-02T09:26:55Z</time>
      </trkpt>
      <trkpt lat="36.8669570" lon="-2.9749000">
        <ele>315.2</ele>
        <time>2021-03-02T09:26:56Z</time>
      </trkpt>
      <trkpt lat="36.8669970" lon="-2.9749150">
        <ele>315.4</ele>
        <time>2021-03-02T09:26:57Z</time>
      </trkpt>
      <trkpt lat="36.8670390" lon="-2.9749190">
        <ele>315.4</ele>
        <time>2021-03-02T09:26:58Z</time>
      </trkpt>
      <trkpt lat="36.8670820" lon="-2.9749130">
        <ele>315.6</ele>
        <time>2021-03-02T09:26:59Z</time>
      </trkpt>
      <trkpt lat="36.8671260" lon="-2.9749010">
        <ele>315.6</ele>
        <time>2021-03-02T09:27:00Z</time>
      </trkpt>
      <trkpt lat="36.8671700" lon="-2.9748880">
        <ele>315.8</ele>
        <time>2021-03-02T09:27:01Z</time>
      </trkpt>
      <trkpt lat="36.8672160" lon="-2.9748740">
        <ele>315.8</ele>
        <time>2021-03-02T09:27:02Z</time>
      </trkpt>
      <trkpt lat="36.8672620" lon="-2.9748590">
        <ele>315.8</ele>
        <time>2021-03-02T09:27:03Z</time>
      </trkpt>
      <trkpt lat="36.8673080" lon="-2.9748440">
        <ele>315.8</ele>
        <time>2021-03-02T09:27:04Z</time>
      </trkpt>
      <trkpt lat="36.8673540" lon="-2.9748290">
        <ele>316.0</ele>
        <time>2021-03-02T09:27:05Z</time>
      </trkpt>
      <trkpt lat="36.8674010" lon="-2.9748160">
        <ele>316.0</ele>
        <time>2021-03-02T09:27:06Z</time>
      </trkpt>
      <trkpt lat="36.8674480" lon="-2.9748030">
        <ele>316.0</ele>
        <time>2021-03-02T09:27:07Z</time>
      </trkpt>
      <trkpt lat="36.8674970" lon="-2.9747900">
        <ele>316.0</ele>
        <time>2021-03-02T09:27:08Z</time>
      </trkpt>
      <trkpt lat="36.8675470" lon="-2.9747800">
        <ele>316.0</ele>
        <time>2021-03-02T09:27:09Z</time>
      </trkpt>
      <trkpt lat="36.8675970" lon="-2.9747750">
        <ele>316.0</ele>
        <time>2021-03-02T09:27:10Z</time>
      </trkpt>
      <trkpt lat="36.8676450" lon="-2.9747800">
        <ele>316.0</ele>
        <time>2021-03-02T09:27:11Z</time>
      </trkpt>
      <trkpt lat="36.8676900" lon="-2.9747970">
        <ele>316.2</ele>
        <time>2021-03-02T09:27:12Z</time>
      </trkpt>
      <trkpt lat="36.8677300" lon="-2.9748260">
        <ele>316.2</ele>
        <time>2021-03-02T09:27:13Z</time>
      </trkpt>
      <trkpt lat="36.8677650" lon="-2.9748620">
        <ele>316.4</ele>
        <time>2021-03-02T09:27:14Z</time>
      </trkpt>
      <trkpt lat="36.8677940" lon="-2.9749030">
        <ele>316.4</ele>
        <time>2021-03-02T09:27:15Z</time>
      </trkpt>
      <trkpt lat="36.8678220" lon="-2.9749460">
        <ele>316.6</ele>
        <time>2021-03-02T09:27:16Z</time>
      </trkpt>
      <trkpt lat="36.8678470" lon="-2.9749880">
        <ele>316.8</ele>
        <time>2021-03-02T09:27:17Z</time>
      </trkpt>
      <trkpt lat="36.8678730" lon="-2.9750260">
        <ele>317.2</ele>
        <time>2021-03-02T09:27:18Z</time>
      </trkpt>
      <trkpt lat="36.8678980" lon="-2.9750630">
        <ele>317.4</ele>
        <time>2021-03-02T09:27:19Z</time>
      </trkpt>
      <trkpt lat="36.8679220" lon="-2.9750990">
        <ele>317.8</ele>
        <time>2021-03-02T09:27:20Z</time>
      </trkpt>
      <trkpt lat="36.8679450" lon="-2.9751350">
        <ele>318.0</ele>
        <time>2021-03-02T09:27:21Z</time>
      </trkpt>
      <trkpt lat="36.8679680" lon="-2.9751710">
        <ele>318.2</ele>
        <time>2021-03-02T09:27:22Z</time>
      </trkpt>
      <trkpt lat="36.8679920" lon="-2.9752060">
        <ele>318.4</ele>
        <time>2021-03-02T09:27:23Z</time>
      </trkpt>
      <trkpt lat="36.8680140" lon="-2.9752420">
        <ele>318.8</ele>
        <time>2021-03-02T09:27:24Z</time>
      </trkpt>
      <trkpt lat="36.8680360" lon="-2.9752760">
        <ele>319.0</ele>
        <time>2021-03-02T09:27:25Z</time>
      </trkpt>
      <trkpt lat="36.8680610" lon="-2.9753100">
        <ele>319.2</ele>
        <time>2021-03-02T09:27:26Z</time>
      </trkpt>
      <trkpt lat="36.8680840" lon="-2.9753440">
        <ele>319.4</ele>
        <time>2021-03-02T09:27:27Z</time>
      </trkpt>
      <trkpt lat="36.8681070" lon="-2.9753810">
        <ele>319.4</ele>
        <time>2021-03-02T09:27:28Z</time>
      </trkpt>
      <trkpt lat="36.8681290" lon="-2.9754190">
        <ele>319.4</ele>
        <time>2021-03-02T09:27:29Z</time>
      </trkpt>
      <trkpt lat="36.8681500" lon="-2.9754550">
        <ele>319.8</ele>
        <time>2021-03-02T09:27:30Z</time>
      </trkpt>
      <trkpt lat="36.8681710" lon="-2.9754910">
        <ele>319.8</ele>
        <time>2021-03-02T09:27:31Z</time>
      </trkpt>
      <trkpt lat="36.8681920" lon="-2.9755280">
        <ele>320.2</ele>
        <time>2021-03-02T09:27:32Z</time>
      </trkpt>
      <trkpt lat="36.8682130" lon="-2.9755660">
        <ele>320.2</ele>
        <time>2021-03-02T09:27:33Z</time>
      </trkpt>
      <trkpt lat="36.8682330" lon="-2.9756050">
        <ele>320.4</ele>
        <time>2021-03-02T09:27:34Z</time>
      </trkpt>
      <trkpt lat="36.8682540" lon="-2.9756450">
        <ele>320.6</ele>
        <time>2021-03-02T09:27:35Z</time>
      </trkpt>
      <trkpt lat="36.8682740" lon="-2.9756850">
        <ele>320.6</ele>
        <time>2021-03-02T09:27:36Z</time>
      </trkpt>
      <trkpt lat="36.8682950" lon="-2.9757260">
        <ele>320.8</ele>
        <time>2021-03-02T09:27:37Z</time>
      </trkpt>
      <trkpt lat="36.8683150" lon="-2.9757700">
        <ele>321.0</ele>
        <time>2021-03-02T09:27:38Z</time>
      </trkpt>
      <trkpt lat="36.8683350" lon="-2.9758130">
        <ele>321.2</ele>
        <time>2021-03-02T09:27:39Z</time>
      </trkpt>
      <trkpt lat="36.8683580" lon="-2.9758570">
        <ele>321.2</ele>
        <time>2021-03-02T09:27:40Z</time>
      </trkpt>
      <trkpt lat="36.8683800" lon="-2.9759000">
        <ele>321.4</ele>
        <time>2021-03-02T09:27:41Z</time>
      </trkpt>
      <trkpt lat="36.8684030" lon="-2.9759450">
        <ele>321.6</ele>
        <time>2021-03-02T09:27:42Z</time>
      </trkpt>
      <trkpt lat="36.8684240" lon="-2.9759890">
        <ele>321.6</ele>
        <time>2021-03-02T09:27:43Z</time>
      </trkpt>
      <trkpt lat="36.8684470" lon="-2.9760310">
        <ele>321.8</ele>
        <time>2021-03-02T09:27:44Z</time>
      </trkpt>
      <trkpt lat="36.8684690" lon="-2.9760740">
        <ele>321.8</ele>
        <time>2021-03-02T09:27:45Z</time>
      </trkpt>
      <trkpt lat="36.8684920" lon="-2.9761170">
        <ele>322.0</ele>
        <time>2021-03-02T09:27:46Z</time>
      </trkpt>
      <trkpt lat="36.8685140" lon="-2.9761610">
        <ele>322.2</ele>
        <time>2021-03-02T09:27:47Z</time>
      </trkpt>
      <trkpt lat="36.8685350" lon="-2.9762040">
        <ele>322.4</ele>
        <time>2021-03-02T09:27:48Z</time>
      </trkpt>
      <trkpt lat="36.8685560" lon="-2.9762470">
        <ele>322.6</ele>
        <time>2021-03-02T09:27:49Z</time>
      </trkpt>
      <trkpt lat="36.8685780" lon="-2.9762890">
        <ele>322.6</ele>
        <time>2021-03-02T09:27:50Z</time>
      </trkpt>
      <trkpt lat="36.8685990" lon="-2.9763300">
        <ele>322.8</ele>
        <time>2021-03-02T09:27:51Z</time>
      </trkpt>
      <trkpt lat="36.8686200" lon="-2.9763700">
        <ele>323.0</ele>
        <time>2021-03-02T09:27:52Z</time>
      </trkpt>
      <trkpt lat="36.8686390" lon="-2.9764090">
        <ele>323.2</ele>
        <time>2021-03-02T09:27:53Z</time>
      </trkpt>
      <trkpt lat="36.8686580" lon="-2.9764470">
        <ele>323.4</ele>
        <time>2021-03-02T09:27:54Z</time>
      </trkpt>
      <trkpt lat="36.8686760" lon="-2.9764830">
        <ele>323.6</ele>
        <time>2021-03-02T09:27:55Z</time>
      </trkpt>
      <trkpt lat="36.8686910" lon="-2.9765210">
        <ele>324.0</ele>
        <time>2021-03-02T09:27:56Z</time>
      </trkpt>
      <trkpt lat="36.8687050" lon="-2.9765590">
        <ele>324.2</ele>
        <time>2021-03-02T09:27:57Z</time>
      </trkpt>
      <trkpt lat="36.8687180" lon="-2.9765950">
        <ele>324.6</ele>
        <time>2021-03-02T09:27:58Z</time>
      </trkpt>
      <trkpt lat="36.8687310" lon="-2.9766300">
        <ele>324.6</ele>
        <time>2021-03-02T09:27:59Z</time>
      </trkpt>
      <trkpt lat="36.8687430" lon="-2.9766660">
        <ele>324.8</ele>
        <time>2021-03-02T09:28:00Z</time>
      </trkpt>
      <trkpt lat="36.8687570" lon="-2.9767010">
        <ele>325.0</ele>
        <time>2021-03-02T09:28:01Z</time>
      </trkpt>
      <trkpt lat="36.8687690" lon="-2.9767340">
        <ele>325.2</ele>
        <time>2021-03-02T09:28:02Z</time>
      </trkpt>
      <trkpt lat="36.8687810" lon="-2.9767680">
        <ele>325.4</ele>
        <time>2021-03-02T09:28:03Z</time>
      </trkpt>
      <trkpt lat="36.8687930" lon="-2.9768020">
        <ele>325.6</ele>
        <time>2021-03-02T09:28:04Z</time>
      </trkpt>
      <trkpt lat="36.8688040" lon="-2.9768370">
        <ele>326.0</ele>
        <time>2021-03-02T09:28:05Z</time>
      </trkpt>
      <trkpt lat="36.8688140" lon="-2.9768700">
        <ele>326.2</ele>
        <time>2021-03-02T09:28:06Z</time>
      </trkpt>
      <trkpt lat="36.8688250" lon="-2.9769040">
        <ele>326.4</ele>
        <time>2021-03-02T09:28:07Z</time>
      </trkpt>
      <trkpt lat="36.8688370" lon="-2.9769360">
        <ele>326.8</ele>
        <time>2021-03-02T09:28:08Z</time>
      </trkpt>
      <trkpt lat="36.8688490" lon="-2.9769660">
        <ele>327.0</ele>
        <time>2021-03-02T09:28:09Z</time>
      </trkpt>
      <trkpt lat="36.8688610" lon="-2.9769990">
        <ele>327.4</ele>
        <time>2021-03-02T09:28:10Z</time>
      </trkpt>
      <trkpt lat="36.8688710" lon="-2.9770310">
        <ele>327.6</ele>
        <time>2021-03-02T09:28:11Z</time>
      </trkpt>
      <trkpt lat="36.8688820" lon="-2.9770640">
        <ele>328.0</ele>
        <time>2021-03-02T09:28:12Z</time>
      </trkpt>
      <trkpt lat="36.8688920" lon="-2.9770980">
        <ele>328.0</ele>
        <time>2021-03-02T09:28:13Z</time>
      </trkpt>
      <trkpt lat="36.8689030" lon="-2.9771310">
        <ele>328.4</ele>
        <time>2021-03-02T09:28:14Z</time>
      </trkpt>
      <trkpt lat="36.8689140" lon="-2.9771640">
        <ele>328.6</ele>
        <time>2021-03-02T09:28:15Z</time>
      </trkpt>
      <trkpt lat="36.8689260" lon="-2.9771970">
        <ele>328.8</ele>
        <time>2021-03-02T09:28:16Z</time>
      </trkpt>
      <trkpt lat="36.8689350" lon="-2.9772290">
        <ele>329.0</ele>
        <time>2021-03-02T09:28:17Z</time>
      </trkpt>
      <trkpt lat="36.8689450" lon="-2.9772600">
        <ele>329.2</ele>
        <time>2021-03-02T09:28:18Z</time>
      </trkpt>
      <trkpt lat="36.8689570" lon="-2.9772890">
        <ele>329.6</ele>
        <time>2021-03-02T09:28:19Z</time>
      </trkpt>
      <trkpt lat="36.8689680" lon="-2.9773180">
        <ele>329.6</ele>
        <time>2021-03-02T09:28:20Z</time>
      </trkpt>
      <trkpt lat="36.8689790" lon="-2.9773460">
        <ele>329.8</ele>
        <time>2021-03-02T09:28:21Z</time>
      </trkpt>
      <trkpt lat="36.8689930" lon="-2.9773720">
        <ele>330.4</ele>
        <time>2021-03-02T09:28:22Z</time>
      </trkpt>
      <trkpt lat="36.8690080" lon="-2.9773970">
        <ele>330.4</ele>
        <time>2021-03-02T09:28:23Z</time>
      </trkpt>
      <trkpt lat="36.8690250" lon="-2.9774220">
        <ele>330.8</ele>
        <time>2021-03-02T09:28:24Z</time>
      </trkpt>
      <trkpt lat="36.8690410" lon="-2.9774460">
        <ele>330.8</ele>
        <time>2021-03-02T09:28:25Z</time>
      </trkpt>
      <trkpt lat="36.8690580" lon="-2.9774680">
        <ele>331.2</ele>
        <time>2021-03-02T09:28:26Z</time>
      </trkpt>
      <trkpt lat="36.8690760" lon="-2.9774900">
        <ele>331.4</ele>
        <time>2021-03-02T09:28:27Z</time>
      </trkpt>
      <trkpt lat="36.8690930" lon="-2.9775120">
        <ele>331.6</ele>
        <time>2021-03-02T09:28:28Z</time>
      </trkpt>
      <trkpt lat="36.8691110" lon="-2.9775340">
        <ele>331.8</ele>
        <time>2021-03-02T09:28:29Z</time>
      </trkpt>
      <trkpt lat="36.8691290" lon="-2.9775570">
        <ele>332.0</ele>
        <time>2021-03-02T09:28:30Z</time>
      </trkpt>
      <trkpt lat="36.8691470" lon="-2.9775780">
        <ele>332.4</ele>
        <time>2021-03-02T09:28:31Z</time>
      </trkpt>
      <trkpt lat="36.8691670" lon="-2.9775990">
        <ele>332.6</ele>
        <time>2021-03-02T09:28:32Z</time>
      </trkpt>
      <trkpt lat="36.8691870" lon="-2.9776200">
        <ele>332.8</ele>
        <time>2021-03-02T09:28:33Z</time>
      </trkpt>
      <trkpt lat="36.8692060" lon="-2.9776430">
        <ele>333.0</ele>
        <time>2021-03-02T09:28:34Z</time>
      </trkpt>
      <trkpt lat="36.8692250" lon="-2.9776660">
        <ele>333.2</ele>
        <time>2021-03-02T09:28:35Z</time>
      </trkpt>
      <trkpt lat="36.8692450" lon="-2.9776890">
        <ele>333.4</ele>
        <time>2021-03-02T09:28:36Z</time>
      </trkpt>
      <trkpt lat="36.8692670" lon="-2.9777110">
        <ele>333.6</ele>
        <time>2021-03-02T09:28:37Z</time>
      </trkpt>
      <trkpt lat="36.8692900" lon="-2.9777320">
        <ele>333.8</ele>
        <time>2021-03-02T09:28:38Z</time>
      </trkpt>
      <trkpt lat="36.8693120" lon="-2.9777540">
        <ele>333.8</ele>
        <time>2021-03-02T09:28:39Z</time>
      </trkpt>
      <trkpt lat="36.8693340" lon="-2.9777780">
        <ele>334.0</ele>
        <time>2021-03-02T09:28:40Z</time>
      </trkpt>
      <trkpt lat="36.8693560" lon="-2.9778020">
        <ele>334.0</ele>
        <time>2021-03-02T09:28:41Z</time>
      </trkpt>
      <trkpt lat="36.8693780" lon="-2.9778250">
        <ele>334.2</ele>
        <time>2021-03-02T09:28:42Z</time>
      </trkpt>
      <trkpt lat="36.8694020" lon="-2.9778500">
        <ele>334.4</ele>
        <time>2021-03-02T09:28:43Z</time>
      </trkpt>
      <trkpt lat="36.8694270" lon="-2.9778750">
        <ele>334.4</ele>
        <time>2021-03-02T09:28:44Z</time>
      </trkpt>
      <trkpt lat="36.8694520" lon="-2.9779000">
        <ele>334.6</ele>
        <time>2021-03-02T09:28:45Z</time>
      </trkpt>
      <trkpt lat="36.8694770" lon="-2.9779240">
        <ele>334.8</ele>
        <time>2021-03-02T09:28:46Z</time>
      </trkpt>
      <trkpt lat="36.8695020" lon="-2.9779480">
        <ele>334.8</ele>
        <time>2021-03-02T09:28:47Z</time>
      </trkpt>
      <trkpt lat="36.8695280" lon="-2.9779720">
        <ele>335.0</ele>
        <time>2021-03-02T09:28:48Z</time>
      </trkpt>
      <trkpt lat="36.8695530" lon="-2.9779970">
        <ele>335.0</ele>
        <time>2021-03-02T09:28:49Z</time>
      </trkpt>
      <trkpt lat="36.8695790" lon="-2.9780230">
        <ele>335.0</ele>
        <time>2021-03-02T09:28:50Z</time>
      </trkpt>
      <trkpt lat="36.8696070" lon="-2.9780480">
        <ele>335.0</ele>
        <time>2021-03-02T09:28:51Z</time>
      </trkpt>
      <trkpt lat="36.8696340" lon="-2.9780740">
        <ele>335.2</ele>
        <time>2021-03-02T09:28:52Z</time>
      </trkpt>
      <trkpt lat="36.8696600" lon="-2.9780990">
        <ele>335.2</ele>
        <time>2021-03-02T09:28:53Z</time>
      </trkpt>
      <trkpt lat="36.8696870" lon="-2.9781230">
        <ele>335.4</ele>
        <time>2021-03-02T09:28:54Z</time>
      </trkpt>
      <trkpt lat="36.8697130" lon="-2.9781490">
        <ele>335.6</ele>
        <time>2021-03-02T09:28:55Z</time>
      </trkpt>
      <trkpt lat="36.8697380" lon="-2.9781750">
        <ele>335.8</ele>
        <time>2021-03-02T09:28:56Z</time>
      </trkpt>
      <trkpt lat="36.8697640" lon="-2.9782020">
        <ele>335.8</ele>
        <time>2021-03-02T09:28:57Z</time>
      </trkpt>
      <trkpt lat="36.8697900" lon="-2.9782300">
        <ele>335.8</ele>
        <time>2021-03-02T09:28:58Z</time>
      </trkpt>
      <trkpt lat="36.8698160" lon="-2.9782620">
        <ele>336.0</ele>
        <time>2021-03-02T09:28:59Z</time>
      </trkpt>
      <trkpt lat="36.8698410" lon="-2.9782930">
        <ele>336.0</ele>
        <time>2021-03-02T09:29:00Z</time>
      </trkpt>
      <trkpt lat="36.8698660" lon="-2.9783190">
        <ele>336.2</ele>
        <time>2021-03-02T09:29:01Z</time>
      </trkpt>
      <trkpt lat="36.8698890" lon="-2.9783480">
        <ele>336.4</ele>
        <time>2021-03-02T09:29:02Z</time>
      </trkpt>
      <trkpt lat="36.8699110" lon="-2.9783760">
        <ele>336.4</ele>
        <time>2021-03-02T09:29:03Z</time>
      </trkpt>
      <trkpt lat="36.8699330" lon="-2.9784040">
        <ele>336.6</ele>
        <time>2021-03-02T09:29:04Z</time>
      </trkpt>
      <trkpt lat="36.8699560" lon="-2.9784310">
        <ele>336.6</ele>
        <time>2021-03-02T09:29:05Z</time>
      </trkpt>
      <trkpt lat="36.8699800" lon="-2.9784550">
        <ele>336.8</ele>
        <time>2021-03-02T09:29:06Z</time>
      </trkpt>
      <trkpt lat="36.8700050" lon="-2.9784780">
        <ele>337.0</ele>
        <time>2021-03-02T09:29:07Z</time>
      </trkpt>
      <trkpt lat="36.8700280" lon="-2.9785010">
        <ele>337.0</ele>
        <time>2021-03-02T09:29:08Z</time>
      </trkpt>
      <trkpt lat="36.8700520" lon="-2.9785260">
        <ele>337.2</ele>
        <time>2021-03-02T09:29:09Z</time>
      </trkpt>
      <trkpt lat="36.8700760" lon="-2.9785510">
        <ele>337.4</ele>
        <time>2021-03-02T09:29:10Z</time>
      </trkpt>
      <trkpt lat="36.8701010" lon="-2.9785760">
        <ele>337.6</ele>
        <time>2021-03-02T09:29:11Z</time>
      </trkpt>
      <trkpt lat="36.8701240" lon="-2.9786010">
        <ele>337.8</ele>
        <time>2021-03-02T09:29:12Z</time>
      </trkpt>
      <trkpt lat="36.8701480" lon="-2.9786220">
        <ele>337.8</ele>
        <time>2021-03-02T09:29:13Z</time>
      </trkpt>
      <trkpt lat="36.8701730" lon="-2.9786410">
        <ele>338.0</ele>
        <time>2021-03-02T09:29:14Z</time>
      </trkpt>
      <trkpt lat="36.8702000" lon="-2.9786600">
        <ele>338.2</ele>
        <time>2021-03-02T09:29:15Z</time>
      </trkpt>
      <trkpt lat="36.8702270" lon="-2.9786780">
        <ele>338.2</ele>
        <time>2021-03-02T09:29:16Z</time>
      </trkpt>
      <trkpt lat="36.8702540" lon="-2.9786970">
        <ele>338.4</ele>
        <time>2021-03-02T09:29:17Z</time>
      </trkpt>
      <trkpt lat="36.8702820" lon="-2.9787140">
        <ele>338.4</ele>
        <time>2021-03-02T09:29:18Z</time>
      </trkpt>
      <trkpt lat="36.8703110" lon="-2.9787280">
        <ele>338.6</ele>
        <time>2021-03-02T09:29:19Z</time>
      </trkpt>
      <trkpt lat="36.8703390" lon="-2.9787430">
        <ele>338.8</ele>
        <time>2021-03-02T09:29:20Z</time>
      </trkpt>
      <trkpt lat="36.8703650" lon="-2.9787600">
        <ele>339.0</ele>
        <time>2021-03-02T09:29:21Z</time>
      </trkpt>
      <trkpt lat="36.8703920" lon="-2.9787780">
        <ele>339.2</ele>
        <time>2021-03-02T09:29:22Z</time>
      </trkpt>
      <trkpt lat="36.8704170" lon="-2.9787990">
        <ele>339.4</ele>
        <time>2021-03-02T09:29:23Z</time>
      </trkpt>
      <trkpt lat="36.8704400" lon="-2.9788210">
        <ele>339.8</ele>
        <time>2021-03-02T09:29:24Z</time>
      </trkpt>
      <trkpt lat="36.8704620" lon="-2.9788450">
        <ele>339.8</ele>
        <time>2021-03-02T09:29:25Z</time>
      </trkpt>
      <trkpt lat="36.8704830" lon="-2.9788700">
        <ele>340.2</ele>
        <time>2021-03-02T09:29:26Z</time>
      </trkpt>
      <trkpt lat="36.8705030" lon="-2.9788950">
        <ele>340.4</ele>
        <time>2021-03-02T09:29:27Z</time>
      </trkpt>
      <trkpt lat="36.8705210" lon="-2.9789210">
        <ele>340.8</ele>
        <time>2021-03-02T09:29:28Z</time>
      </trkpt>
      <trkpt lat="36.8705390" lon="-2.9789470">
        <ele>340.8</ele>
        <time>2021-03-02T09:29:29Z</time>
      </trkpt>
      <trkpt lat="36.8705560" lon="-2.9789740">
        <ele>341.2</ele>
        <time>2021-03-02T09:29:30Z</time>
      </trkpt>
      <trkpt lat="36.8705730" lon="-2.9790030">
        <ele>341.2</ele>
        <time>2021-03-02T09:29:31Z</time>
      </trkpt>
      <trkpt lat="36.8705880" lon="-2.9790310">
        <ele>341.4</ele>
        <time>2021-03-02T09:29:32Z</time>
      </trkpt>
      <trkpt lat="36.8706030" lon="-2.9790590">
        <ele>341.6</ele>
        <time>2021-03-02T09:29:33Z</time>
      </trkpt>
      <trkpt lat="36.8706180" lon="-2.9790890">
        <ele>341.8</ele>
        <time>2021-03-02T09:29:34Z</time>
      </trkpt>
      <trkpt lat="36.8706320" lon="-2.9791210">
        <ele>342.0</ele>
        <time>2021-03-02T09:29:35Z</time>
      </trkpt>
      <trkpt lat="36.8706460" lon="-2.9791520">
        <ele>342.0</ele>
        <time>2021-03-02T09:29:36Z</time>
      </trkpt>
      <trkpt lat="36.8706610" lon="-2.9791810">
        <ele>342.2</ele>
        <time>2021-03-02T09:29:37Z</time>
      </trkpt>
      <trkpt lat="36.8706740" lon="-2.9792100">
        <ele>342.4</ele>
        <time>2021-03-02T09:29:38Z</time>
      </trkpt>
      <trkpt lat="36.8706880" lon="-2.9792380">
        <ele>342.6</ele>
        <time>2021-03-02T09:29:39Z</time>
      </trkpt>
      <trkpt lat="36.8707010" lon="-2.9792660">
        <ele>342.8</ele>
        <time>2021-03-02T09:29:40Z</time>
      </trkpt>
      <trkpt lat="36.8707170" lon="-2.9792940">
        <ele>343.0</ele>
        <time>2021-03-02T09:29:41Z</time>
      </trkpt>
      <trkpt lat="36.8707350" lon="-2.9793190">
        <ele>343.2</ele>
        <time>2021-03-02T09:29:42Z</time>
      </trkpt>
      <trkpt lat="36.8707530" lon="-2.9793440">
        <ele>343.6</ele>
        <time>2021-03-02T09:29:43Z</time>
      </trkpt>
      <trkpt lat="36.8707730" lon="-2.9793680">
        <ele>343.8</ele>
        <time>2021-03-02T09:29:44Z</time>
      </trkpt>
      <trkpt lat="36.8707930" lon="-2.9793910">
        <ele>344.0</ele>
        <time>2021-03-02T09:29:45Z</time>
      </trkpt>
      <trkpt lat="36.8708140" lon="-2.9794130">
        <ele>344.2</ele>
        <time>2021-03-02T09:29:46Z</time>
      </trkpt>
      <trkpt lat="36.8708360" lon="-2.9794340">
        <ele>344.4</ele>
        <time>2021-03-02T09:29:47Z</time>
      </trkpt>
      <trkpt lat="36.8708580" lon="-2.9794540">
        <ele>344.4</ele>
        <time>2021-03-02T09:29:48Z</time>
      </trkpt>
      <trkpt lat="36.8708790" lon="-2.9794750">
        <ele>344.8</ele>
        <time>2021-03-02T09:29:49Z</time>
      </trkpt>
      <trkpt lat="36.8708980" lon="-2.9794960">
        <ele>345.0</ele>
        <time>2021-03-02T09:29:50Z</time>
      </trkpt>
      <trkpt lat="36.8709190" lon="-2.9795170">
        <ele>345.2</ele>
        <time>2021-03-02T09:29:51Z</time>
      </trkpt>
      <trkpt lat="36.8709410" lon="-2.9795360">
        <ele>345.4</ele>
        <time>2021-03-02T09:29:52Z</time>
      </trkpt>
      <trkpt lat="36.8709610" lon="-2.9795560">
        <ele>345.6</ele>
        <time>2021-03-02T09:29:53Z</time>
      </trkpt>
      <trkpt lat="36.8709810" lon="-2.9795790">
        <ele>345.8</ele>
        <time>2021-03-02T09:29:54Z</time>
      </trkpt>
      <trkpt lat="36.8710010" lon="-2.9796010">
        <ele>346.0</ele>
        <time>2021-03-02T09:29:55Z</time>
      </trkpt>
      <trkpt lat="36.8710220" lon="-2.9796240">
        <ele>346.2</ele>
        <time>2021-03-02T09:29:56Z</time>
      </trkpt>
      <trkpt lat="36.8710420" lon="-2.9796490">
        <ele>346.4</ele>
        <time>2021-03-02T09:29:57Z</time>
      </trkpt>
      <trkpt lat="36.8710610" lon="-2.9796750">
        <ele>346.4</ele>
        <time>2021-03-02T09:29:58Z</time>
      </trkpt>
      <trkpt lat="36.8710800" lon="-2.9797020">
        <ele>346.6</ele>
        <time>2021-03-02T09:29:59Z</time>
      </trkpt>
      <trkpt lat="36.8711010" lon="-2.9797280">
        <ele>346.8</ele>
        <time>2021-03-02T09:30:00Z</time>
      </trkpt>
      <trkpt lat="36.8711200" lon="-2.9797540">
        <ele>347.0</ele>
        <time>2021-03-02T09:30:01Z</time>
      </trkpt>
      <trkpt lat="36.8711380" lon="-2.9797800">
        <ele>347.2</ele>
        <time>2021-03-02T09:30:02Z</time>
      </trkpt>
      <trkpt lat="36.8711560" lon="-2.9798060">
        <ele>347.4</ele>
        <time>2021-03-02T09:30:03Z</time>
      </trkpt>
      <trkpt lat="36.8711740" lon="-2.9798310">
        <ele>347.4</ele>
        <time>2021-03-02T09:30:04Z</time>
      </trkpt>
      <trkpt lat="36.8711910" lon="-2.9798550">
        <ele>347.6</ele>
        <time>2021-03-02T09:30:05Z</time>
      </trkpt>
      <trkpt lat="36.8712080" lon="-2.9798790">
        <ele>347.8</ele>
        <time>2021-03-02T09:30:06Z</time>
      </trkpt>
      <trkpt lat="36.8712250" lon="-2.9799010">
        <ele>347.8</ele>
        <time>2021-03-02T09:30:07Z</time>
      </trkpt>
      <trkpt lat="36.8712430" lon="-2.9799230">
        <ele>348.0</ele>
        <time>2021-03-02T09:30:08Z</time>
      </trkpt>
      <trkpt lat="36.8712620" lon="-2.9799450">
        <ele>348.2</ele>
        <time>2021-03-02T09:30:09Z</time>
      </trkpt>
      <trkpt lat="36.8712820" lon="-2.9799670">
        <ele>348.4</ele>
        <time>2021-03-02T09:30:10Z</time>
      </trkpt>
      <trkpt lat="36.8713020" lon="-2.9799890">
        <ele>348.6</ele>
        <time>2021-03-02T09:30:11Z</time>
      </trkpt>
      <trkpt lat="36.8713220" lon="-2.9800080">
        <ele>348.6</ele>
        <time>2021-03-02T09:30:12Z</time>
      </trkpt>
      <trkpt lat="36.8713440" lon="-2.9800260">
        <ele>348.8</ele>
        <time>2021-03-02T09:30:13Z</time>
      </trkpt>
      <trkpt lat="36.8713650" lon="-2.9800430">
        <ele>349.0</ele>
        <time>2021-03-02T09:30:14Z</time>
      </trkpt>
      <trkpt lat="36.8713870" lon="-2.9800600">
        <ele>349.2</ele>
        <time>2021-03-02T09:30:15Z</time>
      </trkpt>
      <trkpt lat="36.8714100" lon="-2.9800760">
        <ele>349.4</ele>
        <time>2021-03-02T09:30:16Z</time>
      </trkpt>
      <trkpt lat="36.8714320" lon="-2.9800930">
        <ele>349.4</ele>
        <time>2021-03-02T09:30:17Z</time>
      </trkpt>
      <trkpt lat="36.8714570" lon="-2.9801110">
        <ele>349.6</ele>
        <time>2021-03-02T09:30:18Z</time>
      </trkpt>
      <trkpt lat="36.8714820" lon="-2.9801300">
        <ele>349.6</ele>
        <time>2021-03-02T09:30:19Z</time>
      </trkpt>
      <trkpt lat="36.8715060" lon="-2.9801530">
        <ele>349.8</ele>
        <time>2021-03-02T09:30:20Z</time>
      </trkpt>
      <trkpt lat="36.8715300" lon="-2.9801810">
        <ele>350.0</ele>
        <time>2021-03-02T09:30:21Z</time>
      </trkpt>
      <trkpt lat="36.8715510" lon="-2.9802100">
        <ele>350.0</ele>
        <time>2021-03-02T09:30:22Z</time>
      </trkpt>
      <trkpt lat="36.8715710" lon="-2.9802410">
        <ele>350.2</ele>
        <time>2021-03-02T09:30:23Z</time>
      </trkpt>
      <trkpt lat="36.8715930" lon="-2.9802700">
        <ele>350.2</ele>
        <time>2021-03-02T09:30:24Z</time>
      </trkpt>
      <trkpt lat="36.8716130" lon="-2.9803010">
        <ele>350.2</ele>
        <time>2021-03-02T09:30:25Z</time>
      </trkpt>
      <trkpt lat="36.8716320" lon="-2.9803320">
        <ele>350.4</ele>
        <time>2021-03-02T09:30:26Z</time>
      </trkpt>
      <trkpt lat="36.8716510" lon="-2.9803600">
        <ele>350.4</ele>
        <time>2021-03-02T09:30:27Z</time>
      </trkpt>
      <trkpt lat="36.8716700" lon="-2.9803860">
        <ele>350.4</ele>
        <time>2021-03-02T09:30:28Z</time>
      </trkpt>
      <trkpt lat="36.8716880" lon="-2.9804110">
        <ele>350.4</ele>
        <time>2021-03-02T09:30:29Z</time>
      </trkpt>
      <trkpt lat="36.8717040" lon="-2.9804330">
        <ele>350.6</ele>
        <time>2021-03-02T09:30:30Z</time>
      </trkpt>
      <trkpt lat="36.8717240" lon="-2.9804520">
        <ele>350.6</ele>
        <time>2021-03-02T09:30:31Z</time>
      </trkpt>
      <trkpt lat="36.8717450" lon="-2.9804730">
        <ele>350.8</ele>
        <time>2021-03-02T09:30:32Z</time>
      </trkpt>
      <trkpt lat="36.8717670" lon="-2.9804920">
        <ele>351.0</ele>
        <time>2021-03-02T09:30:33Z</time>
      </trkpt>
      <trkpt lat="36.8717890" lon="-2.9805110">
        <ele>351.0</ele>
        <time>2021-03-02T09:30:34Z</time>
      </trkpt>
      <trkpt lat="36.8718100" lon="-2.9805300">
        <ele>351.2</ele>
        <time>2021-03-02T09:30:35Z</time>
      </trkpt>
      <trkpt lat="36.8718310" lon="-2.9805480">
        <ele>351.2</ele>
        <time>2021-03-02T09:30:36Z</time>
      </trkpt>
      <trkpt lat="36.8718510" lon="-2.9805690">
        <ele>351.4</ele>
        <time>2021-03-02T09:30:37Z</time>
      </trkpt>
      <trkpt lat="36.8718720" lon="-2.9805900">
        <ele>351.4</ele>
        <time>2021-03-02T09:30:38Z</time>
      </trkpt>
      <trkpt lat="36.8718930" lon="-2.9806100">
        <ele>351.6</ele>
        <time>2021-03-02T09:30:39Z</time>
      </trkpt>
      <trkpt lat="36.8719160" lon="-2.9806310">
        <ele>351.8</ele>
        <time>2021-03-02T09:30:40Z</time>
      </trkpt>
      <trkpt lat="36.8719380" lon="-2.9806520">
        <ele>351.8</ele>
        <time>2021-03-02T09:30:41Z</time>
      </trkpt>
      <trkpt lat="36.8719590" lon="-2.9806730">
        <ele>352.2</ele>
        <time>2021-03-02T09:30:42Z</time>
      </trkpt>
      <trkpt lat="36.8719810" lon="-2.9806950">
        <ele>352.2</ele>
        <time>2021-03-02T09:30:43Z</time>
      </trkpt>
      <trkpt lat="36.8720020" lon="-2.9807170">
        <ele>352.4</ele>
        <time>2021-03-02T09:30:44Z</time>
      </trkpt>
      <trkpt lat="36.8720230" lon="-2.9807400">
        <ele>352.6</ele>
        <time>2021-03-02T09:30:45Z</time>
      </trkpt>
      <trkpt lat="36.8720460" lon="-2.9807610">
        <ele>352.8</ele>
        <time>2021-03-02T09:30:46Z</time>
      </trkpt>
      <trkpt lat="36.8720700" lon="-2.9807800">
        <ele>352.8</ele>
        <time>2021-03-02T09:30:47Z</time>
      </trkpt>
      <trkpt lat="36.8720920" lon="-2.9807990">
        <ele>353.0</ele>
        <time>2021-03-02T09:30:48Z</time>
      </trkpt>
      <trkpt lat="36.8721150" lon="-2.9808190">
        <ele>353.2</ele>
        <time>2021-03-02T09:30:49Z</time>
      </trkpt>
      <trkpt lat="36.8721380" lon="-2.9808400">
        <ele>353.4</ele>
        <time>2021-03-02T09:30:50Z</time>
      </trkpt>
      <trkpt lat="36.8721610" lon="-2.9808610">
        <ele>353.6</ele>
        <time>2021-03-02T09:30:51Z</time>
      </trkpt>
      <trkpt lat="36.8721820" lon="-2.9808820">
        <ele>353.8</ele>
        <time>2021-03-02T09:30:52Z</time>
      </trkpt>
      <trkpt lat="36.8722060" lon="-2.9809030">
        <ele>354.0</ele>
        <time>2021-03-02T09:30:53Z</time>
      </trkpt>
      <trkpt lat="36.8722290" lon="-2.9809230">
        <ele>354.2</ele>
        <time>2021-03-02T09:30:54Z</time>
      </trkpt>
      <trkpt lat="36.8722510" lon="-2.9809430">
        <ele>354.4</ele>
        <time>2021-03-02T09:30:55Z</time>
      </trkpt>
      <trkpt lat="36.8722730" lon="-2.9809630">
        <ele>354.6</ele>
        <time>2021-03-02T09:30:56Z</time>
      </trkpt>
      <trkpt lat="36.8722950" lon="-2.9809850">
        <ele>354.8</ele>
        <time>2021-03-02T09:30:57Z</time>
      </trkpt>
      <trkpt lat="36.8723190" lon="-2.9810050">
        <ele>355.0</ele>
        <time>2021-03-02T09:30:58Z</time>
      </trkpt>
      <trkpt lat="36.8723420" lon="-2.9810260">
        <ele>355.0</ele>
        <time>2021-03-02T09:30:59Z</time>
      </trkpt>
      <trkpt lat="36.8723650" lon="-2.9810450">
        <ele>355.0</ele>
        <time>2021-03-02T09:31:00Z</time>
      </trkpt>
      <trkpt lat="36.8723870" lon="-2.9810670">
        <ele>355.2</ele>
        <time>2021-03-02T09:31:01Z</time>
      </trkpt>
      <trkpt lat="36.8724110" lon="-2.9810900">
        <ele>355.2</ele>
        <time>2021-03-02T09:31:02Z</time>
      </trkpt>
      <trkpt lat="36.8724350" lon="-2.9811140">
        <ele>355.2</ele>
        <time>2021-03-02T09:31:03Z</time>
      </trkpt>
      <trkpt lat="36.8724590" lon="-2.9811400">
        <ele>355.2</ele>
        <time>2021-03-02T09:31:04Z</time>
      </trkpt>
      <trkpt lat="36.8724830" lon="-2.9811660">
        <ele>355.2</ele>
        <time>2021-03-02T09:31:05Z</time>
      </trkpt>
      <trkpt lat="36.8725080" lon="-2.9811900">
        <ele>355.4</ele>
        <time>2021-03-02T09:31:06Z</time>
      </trkpt>
      <trkpt lat="36.8725350" lon="-2.9812130">
        <ele>355.4</ele>
        <time>2021-03-02T09:31:07Z</time>
      </trkpt>
      <trkpt lat="36.8725620" lon="-2.9812360">
        <ele>355.4</ele>
        <time>2021-03-02T09:31:08Z</time>
      </trkpt>
      <trkpt lat="36.8725870" lon="-2.9812610">
        <ele>355.4</ele>
        <time>2021-03-02T09:31:09Z</time>
      </trkpt>
      <trkpt lat="36.8726140" lon="-2.9812860">
        <ele>355.4</ele>
        <time>2021-03-02T09:31:10Z</time>
      </trkpt>
      <trkpt lat="36.8726410" lon="-2.9813120">
        <ele>355.6</ele>
        <time>2021-03-02T09:31:11Z</time>
      </trkpt>
      <trkpt lat="36.8726690" lon="-2.9813390">
        <ele>355.6</ele>
        <time>2021-03-02T09:31:12Z</time>
      </trkpt>
      <trkpt lat="36.8726960" lon="-2.9813700">
        <ele>355.6</ele>
        <time>2021-03-02T09:31:13Z</time>
      </trkpt>
      <trkpt lat="36.8727240" lon="-2.9814010">
        <ele>355.6</ele>
        <time>2021-03-02T09:31:14Z</time>
      </trkpt>
      <trkpt lat="36.8727500" lon="-2.9814340">
        <ele>355.6</ele>
        <time>2021-03-02T09:31:15Z</time>
      </trkpt>
      <trkpt lat="36.8727750" lon="-2.9814690">
        <ele>355.6</ele>
        <time>2021-03-02T09:31:16Z</time>
      </trkpt>
      <trkpt lat="36.8727990" lon="-2.9815070">
        <ele>355.6</ele>
        <time>2021-03-02T09:31:17Z</time>
      </trkpt>
      <trkpt lat="36.8728230" lon="-2.9815460">
        <ele>355.6</ele>
        <time>2021-03-02T09:31:18Z</time>
      </trkpt>
      <trkpt lat="36.8728470" lon="-2.9815870">
        <ele>355.6</ele>
        <time>2021-03-02T09:31:19Z</time>
      </trkpt>
      <trkpt lat="36.8728730" lon="-2.9816300">
        <ele>355.6</ele>
        <time>2021-03-02T09:31:20Z</time>
      </trkpt>
      <trkpt lat="36.8729010" lon="-2.9816740">
        <ele>355.6</ele>
        <time>2021-03-02T09:31:21Z</time>
      </trkpt>
      <trkpt lat="36.8729330" lon="-2.9817130">
        <ele>355.4</ele>
        <time>2021-03-02T09:31:22Z</time>
      </trkpt>
      <trkpt lat="36.8729700" lon="-2.9817470">
        <ele>355.2</ele>
        <time>2021-03-02T09:31:23Z</time>
      </trkpt>
      <trkpt lat="36.8730120" lon="-2.9817780">
        <ele>355.2</ele>
        <time>2021-03-02T09:31:24Z</time>
      </trkpt>
      <trkpt lat="36.8730560" lon="-2.9818050">
        <ele>355.0</ele>
        <time>2021-03-02T09:31:25Z</time>
      </trkpt>
      <trkpt lat="36.8731020" lon="-2.9818290">
        <ele>355.0</ele>
        <time>2021-03-02T09:31:26Z</time>
      </trkpt>
      <trkpt lat="36.8731490" lon="-2.9818500">
        <ele>355.0</ele>
        <time>2021-03-02T09:31:27Z</time>
      </trkpt>
      <trkpt lat="36.8731960" lon="-2.9818720">
        <ele>354.8</ele>
        <time>2021-03-02T09:31:28Z</time>
      </trkpt>
      <trkpt lat="36.8732420" lon="-2.9819000">
        <ele>354.8</ele>
        <time>2021-03-02T09:31:29Z</time>
      </trkpt>
      <trkpt lat="36.8732850" lon="-2.9819340">
        <ele>355.0</ele>
        <time>2021-03-02T09:31:30Z</time>
      </trkpt>
      <trkpt lat="36.8733250" lon="-2.9819740">
        <ele>355.0</ele>
        <time>2021-03-02T09:31:31Z</time>
      </trkpt>
      <trkpt lat="36.8733650" lon="-2.9820190">
        <ele>354.8</ele>
        <time>2021-03-02T09:31:32Z</time>
      </trkpt>
      <trkpt lat="36.8734040" lon="-2.9820650">
        <ele>354.8</ele>
        <time>2021-03-02T09:31:33Z</time>
      </trkpt>
      <trkpt lat="36.8734390" lon="-2.9821140">
        <ele>354.8</ele>
        <time>2021-03-02T09:31:34Z</time>
      </trkpt>
      <trkpt lat="36.8734750" lon="-2.9821630">
        <ele>354.8</ele>
        <time>2021-03-02T09:31:35Z</time>
      </trkpt>
      <trkpt lat="36.8735130" lon="-2.9822120">
        <ele>354.6</ele>
        <time>2021-03-02T09:31:36Z</time>
      </trkpt>
      <trkpt lat="36.8735550" lon="-2.9822550">
        <ele>354.6</ele>
        <time>2021-03-02T09:31:37Z</time>
      </trkpt>
      <trkpt lat="36.8735970" lon="-2.9822960">
        <ele>354.6</ele>
        <time>2021-03-02T09:31:38Z</time>
      </trkpt>
      <trkpt lat="36.8736400" lon="-2.9823330">
        <ele>354.4</ele>
        <time>2021-03-02T09:31:39Z</time>
      </trkpt>
      <trkpt lat="36.8736840" lon="-2.9823690">
        <ele>354.4</ele>
        <time>2021-03-02T09:31:40Z</time>
      </trkpt>
      <trkpt lat="36.8737270" lon="-2.9824030">
        <ele>354.4</ele>
        <time>2021-03-02T09:31:41Z</time>
      </trkpt>
      <trkpt lat="36.8737700" lon="-2.9824350">
        <ele>354.6</ele>
        <time>2021-03-02T09:31:42Z</time>
      </trkpt>
      <trkpt lat="36.8738110" lon="-2.9824680">
        <ele>354.6</ele>
        <time>2021-03-02T09:31:43Z</time>
      </trkpt>
      <trkpt lat="36.8738520" lon="-2.9825010">
        <ele>355.0</ele>
        <time>2021-03-02T09:31:44Z</time>
      </trkpt>
      <trkpt lat="36.8738920" lon="-2.9825340">
        <ele>355.0</ele>
        <time>2021-03-02T09:31:45Z</time>
      </trkpt>
      <trkpt lat="36.8739320" lon="-2.9825680">
        <ele>355.2</ele>
        <time>2021-03-02T09:31:46Z</time>
      </trkpt>
      <trkpt lat="36.8739710" lon="-2.9826000">
        <ele>355.2</ele>
        <time>2021-03-02T09:31:47Z</time>
      </trkpt>
      <trkpt lat="36.8740080" lon="-2.9826320">
        <ele>355.2</ele>
        <time>2021-03-02T09:31:48Z</time>
      </trkpt>
      <trkpt lat="36.8740420" lon="-2.9826640">
        <ele>355.4</ele>
        <time>2021-03-02T09:31:49Z</time>
      </trkpt>
      <trkpt lat="36.8740740" lon="-2.9826940">
        <ele>355.4</ele>
        <time>2021-03-02T09:31:50Z</time>
      </trkpt>
      <trkpt lat="36.8741060" lon="-2.9827220">
        <ele>355.6</ele>
        <time>2021-03-02T09:31:51Z</time>
      </trkpt>
      <trkpt lat="36.8741370" lon="-2.9827490">
        <ele>355.8</ele>
        <time>2021-03-02T09:31:52Z</time>
      </trkpt>
      <trkpt lat="36.8741650" lon="-2.9827770">
        <ele>356.0</ele>
        <time>2021-03-02T09:31:53Z</time>
      </trkpt>
      <trkpt lat="36.8741930" lon="-2.9828070">
        <ele>356.2</ele>
        <time>2021-03-02T09:31:54Z</time>
      </trkpt>
      <trkpt lat="36.8742200" lon="-2.9828340">
        <ele>356.4</ele>
        <time>2021-03-02T09:31:55Z</time>
      </trkpt>
      <trkpt lat="36.8742470" lon="-2.9828590">
        <ele>356.8</ele>
        <time>2021-03-02T09:31:56Z</time>
      </trkpt>
      <trkpt lat="36.8742750" lon="-2.9828800">
        <ele>357.0</ele>
        <time>2021-03-02T09:31:57Z</time>
      </trkpt>
      <trkpt lat="36.8743050" lon="-2.9828990">
        <ele>357.4</ele>
        <time>2021-03-02T09:31:58Z</time>
      </trkpt>
      <trkpt lat="36.8743360" lon="-2.9829130">
        <ele>357.4</ele>
        <time>2021-03-02T09:31:59Z</time>
      </trkpt>
      <trkpt lat="36.8743680" lon="-2.9829260">
        <ele>357.8</ele>
        <time>2021-03-02T09:32:00Z</time>
      </trkpt>
      <trkpt lat="36.8744020" lon="-2.9829370">
        <ele>358.0</ele>
        <time>2021-03-02T09:32:01Z</time>
      </trkpt>
      <trkpt lat="36.8744360" lon="-2.9829470">
        <ele>358.0</ele>
        <time>2021-03-02T09:32:02Z</time>
      </trkpt>
      <trkpt lat="36.8744670" lon="-2.9829590">
        <ele>358.2</ele>
        <time>2021-03-02T09:32:03Z</time>
      </trkpt>
      <trkpt lat="36.8744980" lon="-2.9829700">
        <ele>358.4</ele>
        <time>2021-03-02T09:32:04Z</time>
      </trkpt>
      <trkpt lat="36.8745290" lon="-2.9829810">
        <ele>358.6</ele>
        <time>2021-03-02T09:32:05Z</time>
      </trkpt>
      <trkpt lat="36.8745610" lon="-2.9829890">
        <ele>358.8</ele>
        <time>2021-03-02T09:32:06Z</time>
      </trkpt>
      <trkpt lat="36.8745940" lon="-2.9829990">
        <ele>359.0</ele>
        <time>2021-03-02T09:32:07Z</time>
      </trkpt>
      <trkpt lat="36.8746250" lon="-2.9830120">
        <ele>359.0</ele>
        <time>2021-03-02T09:32:08Z</time>
      </trkpt>
      <trkpt lat="36.8746560" lon="-2.9830280">
        <ele>359.2</ele>
        <time>2021-03-02T09:32:09Z</time>
      </trkpt>
      <trkpt lat="36.8746870" lon="-2.9830450">
        <ele>359.2</ele>
        <time>2021-03-02T09:32:10Z</time>
      </trkpt>
      <trkpt lat="36.8747190" lon="-2.9830620">
        <ele>359.4</ele>
        <time>2021-03-02T09:32:11Z</time>
      </trkpt>
      <trkpt lat="36.8747530" lon="-2.9830800">
        <ele>359.4</ele>
        <time>2021-03-02T09:32:12Z</time>
      </trkpt>
      <trkpt lat="36.8747900" lon="-2.9830980">
        <ele>359.4</ele>
        <time>2021-03-02T09:32:13Z</time>
      </trkpt>
      <trkpt lat="36.8748280" lon="-2.9831190">
        <ele>359.4</ele>
        <time>2021-03-02T09:32:14Z</time>
      </trkpt>
      <trkpt lat="36.8748670" lon="-2.9831400">
        <ele>359.4</ele>
        <time>2021-03-02T09:32:15Z</time>
      </trkpt>
      <trkpt lat="36.8749050" lon="-2.9831610">
        <ele>359.4</ele>
        <time>2021-03-02T09:32:16Z</time>
      </trkpt>
      <trkpt lat="36.8749460" lon="-2.9831840">
        <ele>359.4</ele>
        <time>2021-03-02T09:32:17Z</time>
      </trkpt>
      <trkpt lat="36.8749860" lon="-2.9832120">
        <ele>359.4</ele>
        <time>2021-03-02T09:32:18Z</time>
      </trkpt>
      <trkpt lat="36.8750270" lon="-2.9832420">
        <ele>359.2</ele>
        <time>2021-03-02T09:32:19Z</time>
      </trkpt>
      <trkpt lat="36.8749550" lon="-2.9832090">
        <ele>357.0</ele>
        <time>2021-03-01T16:39:00Z</time>
      </trkpt>
      <trkpt lat="36.8749930" lon="-2.9832190">
        <ele>357.1</ele>
        <time>2021-03-01T16:39:01Z</time>
      </trkpt>
      <trkpt lat="36.8750080" lon="-2.9832220">
        <ele>357.1</ele>
        <time>2021-03-01T16:39:02Z</time>
      </trkpt>
      <trkpt lat="36.8750350" lon="-2.9832400">
        <ele>357.1</ele>
        <time>2021-03-01T16:39:03Z</time>
      </trkpt>
      <trkpt lat="36.8750840" lon="-2.9832670">
        <ele>357.2</ele>
        <time>2021-03-01T16:39:04Z</time>
      </trkpt>
      <trkpt lat="36.8751100" lon="-2.9833170">
        <ele>357.2</ele>
        <time>2021-03-01T16:39:05Z</time>
      </trkpt>
      <trkpt lat="36.8751540" lon="-2.9833470">
        <ele>357.3</ele>
        <time>2021-03-01T16:39:06Z</time>
      </trkpt>
      <trkpt lat="36.8752100" lon="-2.9833950">
        <ele>357.3</ele>
        <time>2021-03-01T16:39:07Z</time>
      </trkpt>
      <trkpt lat="36.8752710" lon="-2.9834290">
        <ele>357.4</ele>
        <time>2021-03-01T16:39:08Z</time>
      </trkpt>
      <trkpt lat="36.8752960" lon="-2.9834760">
        <ele>357.5</ele>
        <time>2021-03-01T16:39:09Z</time>
      </trkpt>
      <trkpt lat="36.8753370" lon="-2.9835160">
        <ele>357.7</ele>
        <time>2021-03-01T16:39:10Z</time>
      </trkpt>
      <trkpt lat="36.8753690" lon="-2.9835710">
        <ele>357.9</ele>
        <time>2021-03-01T16:39:11Z</time>
      </trkpt>
      <trkpt lat="36.8753920" lon="-2.9836420">
        <ele>358.1</ele>
        <time>2021-03-01T16:39:12Z</time>
      </trkpt>
      <trkpt lat="36.8753800" lon="-2.9837260">
        <ele>358.5</ele>
        <time>2021-03-01T16:39:13Z</time>
      </trkpt>
      <trkpt lat="36.8753530" lon="-2.9837990">
        <ele>358.8</ele>
        <time>2021-03-01T16:39:14Z</time>
      </trkpt>
      <trkpt lat="36.8753430" lon="-2.9838750">
        <ele>359.2</ele>
        <time>2021-03-01T16:39:15Z</time>
      </trkpt>
      <trkpt lat="36.8753340" lon="-2.9839570">
        <ele>359.6</ele>
        <time>2021-03-01T16:39:16Z</time>
      </trkpt>
      <trkpt lat="36.8753310" lon="-2.9840460">
        <ele>360.1</ele>
        <time>2021-03-01T16:39:17Z</time>
      </trkpt>
      <trkpt lat="36.8753380" lon="-2.9841250">
        <ele>360.5</ele>
        <time>2021-03-01T16:39:18Z</time>
      </trkpt>
      <trkpt lat="36.8753420" lon="-2.9842030">
        <ele>361.0</ele>
        <time>2021-03-01T16:39:19Z</time>
      </trkpt>
      <trkpt lat="36.8753460" lon="-2.9842740">
        <ele>361.4</ele>
        <time>2021-03-01T16:39:20Z</time>
      </trkpt>
      <trkpt lat="36.8753630" lon="-2.9843530">
        <ele>361.9</ele>
        <time>2021-03-01T16:39:21Z</time>
      </trkpt>
      <trkpt lat="36.8753870" lon="-2.9844360">
        <ele>362.4</ele>
        <time>2021-03-01T16:39:22Z</time>
      </trkpt>
      <trkpt lat="36.8754180" lon="-2.9845030">
        <ele>362.8</ele>
        <time>2021-03-01T16:39:23Z</time>
      </trkpt>
      <trkpt lat="36.8754490" lon="-2.9845730">
        <ele>363.2</ele>
        <time>2021-03-01T16:39:24Z</time>
      </trkpt>
      <trkpt lat="36.8754780" lon="-2.9846450">
        <ele>363.7</ele>
        <time>2021-03-01T16:39:25Z</time>
      </trkpt>
      <trkpt lat="36.8755240" lon="-2.9847160">
        <ele>364.1</ele>
        <time>2021-03-01T16:39:26Z</time>
      </trkpt>
      <trkpt lat="36.8755830" lon="-2.9847810">
        <ele>364.6</ele>
        <time>2021-03-01T16:39:27Z</time>
      </trkpt>
      <trkpt lat="36.8756180" lon="-2.9848570">
        <ele>365.0</ele>
        <time>2021-03-01T16:39:28Z</time>
      </trkpt>
      <trkpt lat="36.8756620" lon="-2.9849240">
        <ele>365.5</ele>
        <time>2021-03-01T16:39:29Z</time>
      </trkpt>
      <trkpt lat="36.8757030" lon="-2.9849840">
        <ele>365.8</ele>
        <time>2021-03-01T16:39:30Z</time>
      </trkpt>
      <trkpt lat="36.8757450" lon="-2.9850420">
        <ele>366.2</ele>
        <time>2021-03-01T16:39:31Z</time>
      </trkpt>
      <trkpt lat="36.8757770" lon="-2.9851160">
        <ele>366.6</ele>
        <time>2021-03-01T16:39:32Z</time>
      </trkpt>
      <trkpt lat="36.8758170" lon="-2.9851860">
        <ele>367.0</ele>
        <time>2021-03-01T16:39:33Z</time>
      </trkpt>
      <trkpt lat="36.8758510" lon="-2.9852590">
        <ele>367.4</ele>
        <time>2021-03-01T16:39:34Z</time>
      </trkpt>
      <trkpt lat="36.8758850" lon="-2.9853340">
        <ele>367.8</ele>
        <time>2021-03-01T16:39:35Z</time>
      </trkpt>
      <trkpt lat="36.8759080" lon="-2.9854130">
        <ele>368.1</ele>
        <time>2021-03-01T16:39:36Z</time>
      </trkpt>
      <trkpt lat="36.8759340" lon="-2.9854890">
        <ele>368.5</ele>
        <time>2021-03-01T16:39:37Z</time>
      </trkpt>
      <trkpt lat="36.8759610" lon="-2.9855600">
        <ele>368.8</ele>
        <time>2021-03-01T16:39:38Z</time>
      </trkpt>
      <trkpt lat="36.8759890" lon="-2.9856310">
        <ele>369.2</ele>
        <time>2021-03-01T16:39:39Z</time>
      </trkpt>
      <trkpt lat="36.8760220" lon="-2.9856940">
        <ele>369.5</ele>
        <time>2021-03-01T16:39:40Z</time>
      </trkpt>
      <trkpt lat="36.8760480" lon="-2.9857590">
        <ele>369.9</ele>
        <time>2021-03-01T16:39:41Z</time>
      </trkpt>
      <trkpt lat="36.8760840" lon="-2.9857990">
        <ele>370.2</ele>
        <time>2021-03-01T16:39:42Z</time>
      </trkpt>
      <trkpt lat="36.8761220" lon="-2.9858330">
        <ele>370.5</ele>
        <time>2021-03-01T16:39:43Z</time>
      </trkpt>
      <trkpt lat="36.8761620" lon="-2.9858480">
        <ele>370.8</ele>
        <time>2021-03-01T16:39:44Z</time>
      </trkpt>
      <trkpt lat="36.8761960" lon="-2.9858570">
        <ele>371.0</ele>
        <time>2021-03-01T16:39:45Z</time>
      </trkpt>
      <trkpt lat="36.8762200" lon="-2.9858740">
        <ele>371.2</ele>
        <time>2021-03-01T16:39:46Z</time>
      </trkpt>
      <trkpt lat="36.8762530" lon="-2.9858930">
        <ele>371.5</ele>
        <time>2021-03-01T16:39:47Z</time>
      </trkpt>
      <trkpt lat="36.8762620" lon="-2.9859000">
        <ele>371.6</ele>
        <time>2021-03-01T16:39:48Z</time>
      </trkpt>
      <trkpt lat="36.8762860" lon="-2.9859400">
        <ele>371.9</ele>
        <time>2021-03-01T16:39:49Z</time>
      </trkpt>
      <trkpt lat="36.8762960" lon="-2.9859520">
        <ele>372.0</ele>
        <time>2021-03-01T16:39:50Z</time>
      </trkpt>
      <trkpt lat="36.8763250" lon="-2.9859800">
        <ele>372.2</ele>
        <time>2021-03-01T16:39:51Z</time>
      </trkpt>
      <trkpt lat="36.8763320" lon="-2.9859900">
        <ele>372.3</ele>
        <time>2021-03-01T16:39:52Z</time>
      </trkpt>
      <trkpt lat="36.8763450" lon="-2.9860320">
        <ele>372.6</ele>
        <time>2021-03-01T16:39:53Z</time>
      </trkpt>
      <trkpt lat="36.8763490" lon="-2.9860500">
        <ele>372.7</ele>
        <time>2021-03-01T16:39:54Z</time>
      </trkpt>
      <trkpt lat="36.8763800" lon="-2.9860860">
        <ele>373.0</ele>
        <time>2021-03-01T16:39:55Z</time>
      </trkpt>
      <trkpt lat="36.8764190" lon="-2.9861280">
        <ele>373.4</ele>
        <time>2021-03-01T16:39:56Z</time>
      </trkpt>
      <trkpt lat="36.8764620" lon="-2.9861710">
        <ele>373.8</ele>
        <time>2021-03-01T16:39:57Z</time>
      </trkpt>
      <trkpt lat="36.8765070" lon="-2.9862170">
        <ele>374.2</ele>
        <time>2021-03-01T16:39:58Z</time>
      </trkpt>
      <trkpt lat="36.8765600" lon="-2.9862700">
        <ele>374.6</ele>
        <time>2021-03-01T16:39:59Z</time>
      </trkpt>
      <trkpt lat="36.8766200" lon="-2.9863260">
        <ele>375.1</ele>
        <time>2021-03-01T16:40:00Z</time>
      </trkpt>
      <trkpt lat="36.8766800" lon="-2.9863890">
        <ele>375.6</ele>
        <time>2021-03-01T16:40:01Z</time>
      </trkpt>
      <trkpt lat="36.8767410" lon="-2.9864390">
        <ele>376.1</ele>
        <time>2021-03-01T16:40:02Z</time>
      </trkpt>
      <trkpt lat="36.8768040" lon="-2.9864770">
        <ele>376.6</ele>
        <time>2021-03-01T16:40:03Z</time>
      </trkpt>
      <trkpt lat="36.8768680" lon="-2.9865080">
        <ele>377.0</ele>
        <time>2021-03-01T16:40:04Z</time>
      </trkpt>
      <trkpt lat="36.8769310" lon="-2.9865460">
        <ele>377.5</ele>
        <time>2021-03-01T16:40:05Z</time>
      </trkpt>
      <trkpt lat="36.8769920" lon="-2.9865850">
        <ele>377.9</ele>
        <time>2021-03-01T16:40:06Z</time>
      </trkpt>
      <trkpt lat="36.8770470" lon="-2.9866330">
        <ele>378.3</ele>
        <time>2021-03-01T16:40:07Z</time>
      </trkpt>
      <trkpt lat="36.8771040" lon="-2.9866820">
        <ele>378.8</ele>
        <time>2021-03-01T16:40:08Z</time>
      </trkpt>
      <trkpt lat="36.8771560" lon="-2.9867400">
        <ele>379.3</ele>
        <time>2021-03-01T16:40:09Z</time>
      </trkpt>
      <trkpt lat="36.8772050" lon="-2.9867980">
        <ele>379.8</ele>
        <time>2021-03-01T16:40:10Z</time>
      </trkpt>
      <trkpt lat="36.8772520" lon="-2.9868550">
        <ele>380.2</ele>
        <time>2021-03-01T16:40:11Z</time>
      </trkpt>
      <trkpt lat="36.8772980" lon="-2.9869110">
        <ele>380.6</ele>
        <time>2021-03-01T16:40:12Z</time>
      </trkpt>
      <trkpt lat="36.8773530" lon="-2.9869570">
        <ele>381.1</ele>
        <time>2021-03-01T16:40:13Z</time>
      </trkpt>
      <trkpt lat="36.8774140" lon="-2.9869880">
        <ele>381.5</ele>
        <time>2021-03-01T16:40:14Z</time>
      </trkpt>
      <trkpt lat="36.8774800" lon="-2.9870190">
        <ele>382.0</ele>
        <time>2021-03-01T16:40:15Z</time>
      </trkpt>
      <trkpt lat="36.8775480" lon="-2.9870540">
        <ele>382.5</ele>
        <time>2021-03-01T16:40:16Z</time>
      </trkpt>
      <trkpt lat="36.8776150" lon="-2.9870900">
        <ele>383.1</ele>
        <time>2021-03-01T16:40:17Z</time>
      </trkpt>
      <trkpt lat="36.8776820" lon="-2.9871250">
        <ele>383.6</ele>
        <time>2021-03-01T16:40:18Z</time>
      </trkpt>
      <trkpt lat="36.8777390" lon="-2.9871770">
        <ele>384.1</ele>
        <time>2021-03-01T16:40:19Z</time>
      </trkpt>
      <trkpt lat="36.8777860" lon="-2.9872410">
        <ele>384.7</ele>
        <time>2021-03-01T16:40:20Z</time>
      </trkpt>
      <trkpt lat="36.8778290" lon="-2.9873100">
        <ele>385.2</ele>
        <time>2021-03-01T16:40:21Z</time>
      </trkpt>
      <trkpt lat="36.8778650" lon="-2.9873800">
        <ele>385.8</ele>
        <time>2021-03-01T16:40:22Z</time>
      </trkpt>
      <trkpt lat="36.8779030" lon="-2.9874470">
        <ele>386.3</ele>
        <time>2021-03-01T16:40:23Z</time>
      </trkpt>
      <trkpt lat="36.8779430" lon="-2.9875070">
        <ele>386.9</ele>
        <time>2021-03-01T16:40:24Z</time>
      </trkpt>
      <trkpt lat="36.8779880" lon="-2.9875670">
        <ele>387.4</ele>
        <time>2021-03-01T16:40:25Z</time>
      </trkpt>
      <trkpt lat="36.8780440" lon="-2.9876220">
        <ele>388.1</ele>
        <time>2021-03-01T16:40:26Z</time>
      </trkpt>
      <trkpt lat="36.8781070" lon="-2.9876690">
        <ele>388.7</ele>
        <time>2021-03-01T16:40:27Z</time>
      </trkpt>
      <trkpt lat="36.8781710" lon="-2.9877080">
        <ele>389.3</ele>
        <time>2021-03-01T16:40:28Z</time>
      </trkpt>
      <trkpt lat="36.8782350" lon="-2.9877490">
        <ele>390.0</ele>
        <time>2021-03-01T16:40:29Z</time>
      </trkpt>
      <trkpt lat="36.8782960" lon="-2.9877950">
        <ele>390.6</ele>
        <time>2021-03-01T16:40:30Z</time>
      </trkpt>
      <trkpt lat="36.8783540" lon="-2.9878430">
        <ele>391.2</ele>
        <time>2021-03-01T16:40:31Z</time>
      </trkpt>
      <trkpt lat="36.8784090" lon="-2.9878920">
        <ele>391.7</ele>
        <time>2021-03-01T16:40:32Z</time>
      </trkpt>
      <trkpt lat="36.8784650" lon="-2.9879420">
        <ele>392.3</ele>
        <time>2021-03-01T16:40:33Z</time>
      </trkpt>
      <trkpt lat="36.8785190" lon="-2.9879880">
        <ele>392.8</ele>
        <time>2021-03-01T16:40:34Z</time>
      </trkpt>
      <trkpt lat="36.8785660" lon="-2.9880280">
        <ele>393.3</ele>
        <time>2021-03-01T16:40:35Z</time>
      </trkpt>
      <trkpt lat="36.8786100" lon="-2.9880710">
        <ele>393.7</ele>
        <time>2021-03-01T16:40:36Z</time>
      </trkpt>
      <trkpt lat="36.8786590" lon="-2.9881120">
        <ele>394.2</ele>
        <time>2021-03-01T16:40:37Z</time>
      </trkpt>
      <trkpt lat="36.8787090" lon="-2.9881480">
        <ele>394.7</ele>
        <time>2021-03-01T16:40:38Z</time>
      </trkpt>
      <trkpt lat="36.8787560" lon="-2.9881930">
        <ele>395.2</ele>
        <time>2021-03-01T16:40:39Z</time>
      </trkpt>
      <trkpt lat="36.8788110" lon="-2.9882240">
        <ele>395.7</ele>
        <time>2021-03-01T16:40:40Z</time>
      </trkpt>
      <trkpt lat="36.8788650" lon="-2.9882540">
        <ele>396.2</ele>
        <time>2021-03-01T16:40:41Z</time>
      </trkpt>
      <trkpt lat="36.8789200" lon="-2.9882830">
        <ele>396.6</ele>
        <time>2021-03-01T16:40:42Z</time>
      </trkpt>
      <trkpt lat="36.8789800" lon="-2.9883100">
        <ele>397.1</ele>
        <time>2021-03-01T16:40:43Z</time>
      </trkpt>
      <trkpt lat="36.8790420" lon="-2.9883430">
        <ele>397.6</ele>
        <time>2021-03-01T16:40:44Z</time>
      </trkpt>
      <trkpt lat="36.8791130" lon="-2.9883750">
        <ele>398.3</ele>
        <time>2021-03-01T16:40:45Z</time>
      </trkpt>
      <trkpt lat="36.8791770" lon="-2.9884330">
        <ele>398.9</ele>
        <time>2021-03-01T16:40:46Z</time>
      </trkpt>
      <trkpt lat="36.8792300" lon="-2.9884790">
        <ele>399.4</ele>
        <time>2021-03-01T16:40:47Z</time>
      </trkpt>
      <trkpt lat="36.8792700" lon="-2.9885240">
        <ele>399.9</ele>
        <time>2021-03-01T16:40:48Z</time>
      </trkpt>
      <trkpt lat="36.8793040" lon="-2.9885690">
        <ele>400.3</ele>
        <time>2021-03-01T16:40:49Z</time>
      </trkpt>
      <trkpt lat="36.8793490" lon="-2.9885920">
        <ele>400.7</ele>
        <time>2021-03-01T16:40:50Z</time>
      </trkpt>
      <trkpt lat="36.8793920" lon="-2.9886230">
        <ele>401.1</ele>
        <time>2021-03-01T16:40:51Z</time>
      </trkpt>
      <trkpt lat="36.8794380" lon="-2.9886470">
        <ele>401.6</ele>
        <time>2021-03-01T16:40:52Z</time>
      </trkpt>
      <trkpt lat="36.8794820" lon="-2.9886730">
        <ele>402.0</ele>
        <time>2021-03-01T16:40:53Z</time>
      </trkpt>
      <trkpt lat="36.8795230" lon="-2.9887080">
        <ele>402.4</ele>
        <time>2021-03-01T16:40:54Z</time>
      </trkpt>
      <trkpt lat="36.8795650" lon="-2.9887450">
        <ele>402.8</ele>
        <time>2021-03-01T16:40:55Z</time>
      </trkpt>
      <trkpt lat="36.8796070" lon="-2.9887790">
        <ele>403.3</ele>
        <time>2021-03-01T16:40:56Z</time>
      </trkpt>
      <trkpt lat="36.8796490" lon="-2.9888100">
        <ele>403.7</ele>
        <time>2021-03-01T16:40:57Z</time>
      </trkpt>
      <trkpt lat="36.8796900" lon="-2.9888410">
        <ele>404.1</ele>
        <time>2021-03-01T16:40:58Z</time>
      </trkpt>
      <trkpt lat="36.8797300" lon="-2.9888840">
        <ele>404.6</ele>
        <time>2021-03-01T16:40:59Z</time>
      </trkpt>
      <trkpt lat="36.8797740" lon="-2.9889280">
        <ele>405.0</ele>
        <time>2021-03-01T16:41:00Z</time>
      </trkpt>
      <trkpt lat="36.8798150" lon="-2.9889680">
        <ele>405.4</ele>
        <time>2021-03-01T16:41:01Z</time>
      </trkpt>
      <trkpt lat="36.8798540" lon="-2.9890150">
        <ele>405.9</ele>
        <time>2021-03-01T16:41:02Z</time>
      </trkpt>
      <trkpt lat="36.8798960" lon="-2.9890660">
        <ele>406.3</ele>
        <time>2021-03-01T16:41:03Z</time>
      </trkpt>
      <trkpt lat="36.8799410" lon="-2.9891190">
        <ele>406.8</ele>
        <time>2021-03-01T16:41:04Z</time>
      </trkpt>
      <trkpt lat="36.8799860" lon="-2.9891680">
        <ele>407.3</ele>
        <time>2021-03-01T16:41:05Z</time>
      </trkpt>
      <trkpt lat="36.8800290" lon="-2.9892140">
        <ele>407.8</ele>
        <time>2021-03-01T16:41:06Z</time>
      </trkpt>
      <trkpt lat="36.8800690" lon="-2.9892540">
        <ele>408.2</ele>
        <time>2021-03-01T16:41:07Z</time>
      </trkpt>
      <trkpt lat="36.8801110" lon="-2.9892940">
        <ele>408.6</ele>
        <time>2021-03-01T16:41:08Z</time>
      </trkpt>
      <trkpt lat="36.8801560" lon="-2.9893350">
        <ele>409.1</ele>
        <time>2021-03-01T16:41:09Z</time>
      </trkpt>
      <trkpt lat="36.8802060" lon="-2.9893760">
        <ele>409.6</ele>
        <time>2021-03-01T16:41:10Z</time>
      </trkpt>
      <trkpt lat="36.8802570" lon="-2.9894160">
        <ele>410.2</ele>
        <time>2021-03-01T16:41:11Z</time>
      </trkpt>
      <trkpt lat="36.8803050" lon="-2.9894500">
        <ele>410.6</ele>
        <time>2021-03-01T16:41:12Z</time>
      </trkpt>
      <trkpt lat="36.8803510" lon="-2.9894870">
        <ele>411.1</ele>
        <time>2021-03-01T16:41:13Z</time>
      </trkpt>
      <trkpt lat="36.8804010" lon="-2.9895200">
        <ele>411.6</ele>
        <time>2021-03-01T16:41:14Z</time>
      </trkpt>
      <trkpt lat="36.8804530" lon="-2.9895540">
        <ele>412.1</ele>
        <time>2021-03-01T16:41:15Z</time>
      </trkpt>
      <trkpt lat="36.8805030" lon="-2.9895890">
        <ele>412.6</ele>
        <time>2021-03-01T16:41:16Z</time>
      </trkpt>
      <trkpt lat="36.8805500" lon="-2.9896280">
        <ele>413.1</ele>
        <time>2021-03-01T16:41:17Z</time>
      </trkpt>
      <trkpt lat="36.8805920" lon="-2.9896750">
        <ele>413.6</ele>
        <time>2021-03-01T16:41:18Z</time>
      </trkpt>
      <trkpt lat="36.8806340" lon="-2.9897230">
        <ele>414.1</ele>
        <time>2021-03-01T16:41:19Z</time>
      </trkpt>
      <trkpt lat="36.8806630" lon="-2.9897800">
        <ele>414.6</ele>
        <time>2021-03-01T16:41:20Z</time>
      </trkpt>
      <trkpt lat="36.8806780" lon="-2.9898340">
        <ele>415.0</ele>
        <time>2021-03-01T16:41:21Z</time>
      </trkpt>
      <trkpt lat="36.8806950" lon="-2.9898800">
        <ele>415.3</ele>
        <time>2021-03-01T16:41:22Z</time>
      </trkpt>
      <trkpt lat="36.8807150" lon="-2.9899350">
        <ele>415.8</ele>
        <time>2021-03-01T16:41:23Z</time>
      </trkpt>
      <trkpt lat="36.8807300" lon="-2.9899980">
        <ele>416.2</ele>
        <time>2021-03-01T16:41:24Z</time>
      </trkpt>
      <trkpt lat="36.8807330" lon="-2.9900580">
        <ele>416.7</ele>
        <time>2021-03-01T16:41:25Z</time>
      </trkpt>
      <trkpt lat="36.8807230" lon="-2.9901150">
        <ele>417.1</ele>
        <time>2021-03-01T16:41:26Z</time>
      </trkpt>
      <trkpt lat="36.8806890" lon="-2.9901800">
        <ele>417.7</ele>
        <time>2021-03-01T16:41:27Z</time>
      </trkpt>
      <trkpt lat="36.8806890" lon="-2.9902440">
        <ele>418.1</ele>
        <time>2021-03-01T16:41:28Z</time>
      </trkpt>
      <trkpt lat="36.8806950" lon="-2.9903070">
        <ele>418.6</ele>
        <time>2021-03-01T16:41:29Z</time>
      </trkpt>
      <trkpt lat="36.8807050" lon="-2.9903710">
        <ele>419.1</ele>
        <time>2021-03-01T16:41:30Z</time>
      </trkpt>
      <trkpt lat="36.8807200" lon="-2.9904340">
        <ele>419.6</ele>
        <time>2021-03-01T16:41:31Z</time>
      </trkpt>
      <trkpt lat="36.8807340" lon="-2.9904970">
        <ele>420.0</ele>
        <time>2021-03-01T16:41:32Z</time>
      </trkpt>
      <trkpt lat="36.8807490" lon="-2.9905570">
        <ele>420.5</ele>
        <time>2021-03-01T16:41:33Z</time>
      </trkpt>
      <trkpt lat="36.8807680" lon="-2.9906180">
        <ele>421.0</ele>
        <time>2021-03-01T16:41:34Z</time>
      </trkpt>
      <trkpt lat="36.8807920" lon="-2.9906880">
        <ele>421.5</ele>
        <time>2021-03-01T16:41:35Z</time>
      </trkpt>
      <trkpt lat="36.8808210" lon="-2.9907590">
        <ele>422.1</ele>
        <time>2021-03-01T16:41:36Z</time>
      </trkpt>
      <trkpt lat="36.8808480" lon="-2.9908280">
        <ele>422.6</ele>
        <time>2021-03-01T16:41:37Z</time>
      </trkpt>
      <trkpt lat="36.8808690" lon="-2.9908920">
        <ele>423.0</ele>
        <time>2021-03-01T16:41:38Z</time>
      </trkpt>
      <trkpt lat="36.8808930" lon="-2.9909590">
        <ele>423.5</ele>
        <time>2021-03-01T16:41:39Z</time>
      </trkpt>
      <trkpt lat="36.8809090" lon="-2.9910270">
        <ele>424.0</ele>
        <time>2021-03-01T16:41:40Z</time>
      </trkpt>
      <trkpt lat="36.8809240" lon="-2.9910950">
        <ele>424.5</ele>
        <time>2021-03-01T16:41:41Z</time>
      </trkpt>
      <trkpt lat="36.8809350" lon="-2.9911670">
        <ele>425.0</ele>
        <time>2021-03-01T16:41:42Z</time>
      </trkpt>
      <trkpt lat="36.8809370" lon="-2.9912390">
        <ele>425.5</ele>
        <time>2021-03-01T16:41:43Z</time>
      </trkpt>
      <trkpt lat="36.8809250" lon="-2.9913030">
        <ele>426.0</ele>
        <time>2021-03-01T16:41:44Z</time>
      </trkpt>
      <trkpt lat="36.8809020" lon="-2.9913560">
        <ele>426.4</ele>
        <time>2021-03-01T16:41:45Z</time>
      </trkpt>
      <trkpt lat="36.8808750" lon="-2.9914050">
        <ele>426.9</ele>
        <time>2021-03-01T16:41:46Z</time>
      </trkpt>
      <trkpt lat="36.8808520" lon="-2.9914570">
        <ele>427.3</ele>
        <time>2021-03-01T16:41:47Z</time>
      </trkpt>
      <trkpt lat="36.8808320" lon="-2.9915130">
        <ele>427.7</ele>
        <time>2021-03-01T16:41:48Z</time>
      </trkpt>
      <trkpt lat="36.8808070" lon="-2.9915650">
        <ele>428.2</ele>
        <time>2021-03-01T16:41:49Z</time>
      </trkpt>
      <trkpt lat="36.8807750" lon="-2.9916170">
        <ele>428.6</ele>
        <time>2021-03-01T16:41:50Z</time>
      </trkpt>
      <trkpt lat="36.8807440" lon="-2.9916730">
        <ele>429.1</ele>
        <time>2021-03-01T16:41:51Z</time>
      </trkpt>
      <trkpt lat="36.8807180" lon="-2.9917220">
        <ele>429.5</ele>
        <time>2021-03-01T16:41:52Z</time>
      </trkpt>
      <trkpt lat="36.8806950" lon="-2.9917700">
        <ele>429.9</ele>
        <time>2021-03-01T16:41:53Z</time>
      </trkpt>
      <trkpt lat="36.8806820" lon="-2.9918240">
        <ele>430.2</ele>
        <time>2021-03-01T16:41:54Z</time>
      </trkpt>
      <trkpt lat="36.8806710" lon="-2.9918880">
        <ele>430.6</ele>
        <time>2021-03-01T16:41:55Z</time>
      </trkpt>
      <trkpt lat="36.8806830" lon="-2.9919590">
        <ele>431.0</ele>
        <time>2021-03-01T16:41:56Z</time>
      </trkpt>
      <trkpt lat="36.8807150" lon="-2.9920200">
        <ele>431.4</ele>
        <time>2021-03-01T16:41:57Z</time>
      </trkpt>
      <trkpt lat="36.8807560" lon="-2.9920770">
        <ele>431.9</ele>
        <time>2021-03-01T16:41:58Z</time>
      </trkpt>
      <trkpt lat="36.8808150" lon="-2.9921280">
        <ele>432.4</ele>
        <time>2021-03-01T16:41:59Z</time>
      </trkpt>
      <trkpt lat="36.8808790" lon="-2.9921760">
        <ele>432.9</ele>
        <time>2021-03-01T16:42:00Z</time>
      </trkpt>
      <trkpt lat="36.8809400" lon="-2.9922250">
        <ele>433.3</ele>
        <time>2021-03-01T16:42:01Z</time>
      </trkpt>
      <trkpt lat="36.8809980" lon="-2.9922730">
        <ele>433.7</ele>
        <time>2021-03-01T16:42:02Z</time>
      </trkpt>
      <trkpt lat="36.8810530" lon="-2.9923220">
        <ele>433.9</ele>
        <time>2021-03-01T16:42:03Z</time>
      </trkpt>
      <trkpt lat="36.8811060" lon="-2.9923670">
        <ele>434.1</ele>
        <time>2021-03-01T16:42:04Z</time>
      </trkpt>
      <trkpt lat="36.8811570" lon="-2.9924130">
        <ele>434.1</ele>
        <time>2021-03-01T16:42:05Z</time>
      </trkpt>
      <trkpt lat="36.8812090" lon="-2.9924690">
        <ele>434.0</ele>
        <time>2021-03-01T16:42:06Z</time>
      </trkpt>
      <trkpt lat="36.8812510" lon="-2.9925350">
        <ele>433.8</ele>
        <time>2021-03-01T16:42:07Z</time>
      </trkpt>
      <trkpt lat="36.8812880" lon="-2.9926150">
        <ele>433.5</ele>
        <time>2021-03-01T16:42:08Z</time>
      </trkpt>
      <trkpt lat="36.8812990" lon="-2.9927180">
        <ele>433.1</ele>
        <time>2021-03-01T16:42:09Z</time>
      </trkpt>
      <trkpt lat="36.8812800" lon="-2.9928220">
        <ele>432.9</ele>
        <time>2021-03-01T16:42:10Z</time>
      </trkpt>
      <trkpt lat="36.8812360" lon="-2.9929100">
        <ele>432.9</ele>
        <time>2021-03-01T16:42:11Z</time>
      </trkpt>
      <trkpt lat="36.8811840" lon="-2.9929850">
        <ele>432.9</ele>
        <time>2021-03-01T16:42:12Z</time>
      </trkpt>
      <trkpt lat="36.8811410" lon="-2.9930600">
        <ele>433.1</ele>
        <time>2021-03-01T16:42:13Z</time>
      </trkpt>
      <trkpt lat="36.8811090" lon="-2.9931330">
        <ele>433.3</ele>
        <time>2021-03-01T16:42:14Z</time>
      </trkpt>
      <trkpt lat="36.8810770" lon="-2.9931990">
        <ele>433.6</ele>
        <time>2021-03-01T16:42:15Z</time>
      </trkpt>
      <trkpt lat="36.8810340" lon="-2.9932490">
        <ele>434.0</ele>
        <time>2021-03-01T16:42:16Z</time>
      </trkpt>
      <trkpt lat="36.8809800" lon="-2.9932830">
        <ele>434.4</ele>
        <time>2021-03-01T16:42:17Z</time>
      </trkpt>
      <trkpt lat="36.8809230" lon="-2.9933110">
        <ele>434.9</ele>
        <time>2021-03-01T16:42:18Z</time>
      </trkpt>
      <trkpt lat="36.8808630" lon="-2.9933240">
        <ele>435.4</ele>
        <time>2021-03-01T16:42:19Z</time>
      </trkpt>
      <trkpt lat="36.8808090" lon="-2.9933120">
        <ele>435.9</ele>
        <time>2021-03-01T16:42:20Z</time>
      </trkpt>
      <trkpt lat="36.8807630" lon="-2.9932860">
        <ele>436.4</ele>
        <time>2021-03-01T16:42:21Z</time>
      </trkpt>
      <trkpt lat="36.8807190" lon="-2.9932670">
        <ele>436.8</ele>
        <time>2021-03-01T16:42:22Z</time>
      </trkpt>
      <trkpt lat="36.8806760" lon="-2.9932520">
        <ele>437.2</ele>
        <time>2021-03-01T16:42:23Z</time>
      </trkpt>
      <trkpt lat="36.8806320" lon="-2.9932520">
        <ele>437.6</ele>
        <time>2021-03-01T16:42:24Z</time>
      </trkpt>
      <trkpt lat="36.8805870" lon="-2.9932650">
        <ele>437.9</ele>
        <time>2021-03-01T16:42:25Z</time>
      </trkpt>
      <trkpt lat="36.8805410" lon="-2.9932930">
        <ele>438.4</ele>
        <time>2021-03-01T16:42:26Z</time>
      </trkpt>
      <trkpt lat="36.8804980" lon="-2.9933290">
        <ele>438.8</ele>
        <time>2021-03-01T16:42:27Z</time>
      </trkpt>
      <trkpt lat="36.8804610" lon="-2.9933640">
        <ele>439.2</ele>
        <time>2021-03-01T16:42:28Z</time>
      </trkpt>
      <trkpt lat="36.8804350" lon="-2.9934130">
        <ele>439.6</ele>
        <time>2021-03-01T16:42:29Z</time>
      </trkpt>
      <trkpt lat="36.8804140" lon="-2.9934690">
        <ele>440.1</ele>
        <time>2021-03-01T16:42:30Z</time>
      </trkpt>
      <trkpt lat="36.8804150" lon="-2.9935380">
        <ele>440.5</ele>
        <time>2021-03-01T16:42:31Z</time>
      </trkpt>
      <trkpt lat="36.8804190" lon="-2.9936090">
        <ele>441.0</ele>
        <time>2021-03-01T16:42:32Z</time>
      </trkpt>
      <trkpt lat="36.8804190" lon="-2.9936800">
        <ele>441.5</ele>
        <time>2021-03-01T16:42:33Z</time>
      </trkpt>
      <trkpt lat="36.8803920" lon="-2.9937460">
        <ele>442.0</ele>
        <time>2021-03-01T16:42:34Z</time>
      </trkpt>
      <trkpt lat="36.8803790" lon="-2.9938190">
        <ele>442.5</ele>
        <time>2021-03-01T16:42:35Z</time>
      </trkpt>
      <trkpt lat="36.8803650" lon="-2.9938900">
        <ele>443.0</ele>
        <time>2021-03-01T16:42:36Z</time>
      </trkpt>
      <trkpt lat="36.8803530" lon="-2.9939530">
        <ele>443.4</ele>
        <time>2021-03-01T16:42:37Z</time>
      </trkpt>
      <trkpt lat="36.8803380" lon="-2.9940090">
        <ele>443.8</ele>
        <time>2021-03-01T16:42:38Z</time>
      </trkpt>
      <trkpt lat="36.8803290" lon="-2.9940630">
        <ele>444.2</ele>
        <time>2021-03-01T16:42:39Z</time>
      </trkpt>
      <trkpt lat="36.8803190" lon="-2.9941130">
        <ele>444.6</ele>
        <time>2021-03-01T16:42:40Z</time>
      </trkpt>
      <trkpt lat="36.8803180" lon="-2.9941580">
        <ele>444.9</ele>
        <time>2021-03-01T16:42:41Z</time>
      </trkpt>
      <trkpt lat="36.8803140" lon="-2.9942130">
        <ele>445.2</ele>
        <time>2021-03-01T16:42:42Z</time>
      </trkpt>
      <trkpt lat="36.8803300" lon="-2.9942800">
        <ele>445.7</ele>
        <time>2021-03-01T16:42:43Z</time>
      </trkpt>
      <trkpt lat="36.8804060" lon="-2.9943140">
        <ele>446.2</ele>
        <time>2021-03-01T16:42:44Z</time>
      </trkpt>
      <trkpt lat="36.8804400" lon="-2.9943750">
        <ele>446.6</ele>
        <time>2021-03-01T16:42:45Z</time>
      </trkpt>
      <trkpt lat="36.8804550" lon="-2.9944440">
        <ele>447.0</ele>
        <time>2021-03-01T16:42:46Z</time>
      </trkpt>
      <trkpt lat="36.8804610" lon="-2.9945130">
        <ele>447.3</ele>
        <time>2021-03-01T16:42:47Z</time>
      </trkpt>
      <trkpt lat="36.8804690" lon="-2.9945880">
        <ele>447.7</ele>
        <time>2021-03-01T16:42:48Z</time>
      </trkpt>
      <trkpt lat="36.8804720" lon="-2.9946630">
        <ele>448.1</ele>
        <time>2021-03-01T16:42:49Z</time>
      </trkpt>
      <trkpt lat="36.8804820" lon="-2.9947350">
        <ele>448.4</ele>
        <time>2021-03-01T16:42:50Z</time>
      </trkpt>
      <trkpt lat="36.8805080" lon="-2.9948090">
        <ele>448.9</ele>
        <time>2021-03-01T16:42:51Z</time>
      </trkpt>
      <trkpt lat="36.8805250" lon="-2.9948820">
        <ele>449.3</ele>
        <time>2021-03-01T16:42:52Z</time>
      </trkpt>
      <trkpt lat="36.8805420" lon="-2.9949480">
        <ele>449.8</ele>
        <time>2021-03-01T16:42:53Z</time>
      </trkpt>
      <trkpt lat="36.8805520" lon="-2.9950120">
        <ele>450.2</ele>
        <time>2021-03-01T16:42:54Z</time>
      </trkpt>
      <trkpt lat="36.8805660" lon="-2.9950770">
        <ele>450.7</ele>
        <time>2021-03-01T16:42:55Z</time>
      </trkpt>
      <trkpt lat="36.8805820" lon="-2.9951430">
        <ele>451.1</ele>
        <time>2021-03-01T16:42:56Z</time>
      </trkpt>
      <trkpt lat="36.8805940" lon="-2.9952090">
        <ele>451.6</ele>
        <time>2021-03-01T16:42:57Z</time>
      </trkpt>
      <trkpt lat="36.8806170" lon="-2.9952730">
        <ele>452.1</ele>
        <time>2021-03-01T16:42:58Z</time>
      </trkpt>
      <trkpt lat="36.8806370" lon="-2.9953380">
        <ele>452.7</ele>
        <time>2021-03-01T16:42:59Z</time>
      </trkpt>
      <trkpt lat="36.8806550" lon="-2.9954040">
        <ele>453.2</ele>
        <time>2021-03-01T16:43:00Z</time>
      </trkpt>
      <trkpt lat="36.8806720" lon="-2.9954680">
        <ele>453.6</ele>
        <time>2021-03-01T16:43:01Z</time>
      </trkpt>
      <trkpt lat="36.8806880" lon="-2.9955310">
        <ele>454.1</ele>
        <time>2021-03-01T16:43:02Z</time>
      </trkpt>
      <trkpt lat="36.8807020" lon="-2.9955920">
        <ele>454.5</ele>
        <time>2021-03-01T16:43:03Z</time>
      </trkpt>
      <trkpt lat="36.8807150" lon="-2.9956480">
        <ele>454.9</ele>
        <time>2021-03-01T16:43:04Z</time>
      </trkpt>
      <trkpt lat="36.8807280" lon="-2.9957040">
        <ele>455.3</ele>
        <time>2021-03-01T16:43:05Z</time>
      </trkpt>
      <trkpt lat="36.8807420" lon="-2.9957600">
        <ele>455.7</ele>
        <time>2021-03-01T16:43:06Z</time>
      </trkpt>
      <trkpt lat="36.8807600" lon="-2.9958200">
        <ele>456.1</ele>
        <time>2021-03-01T16:43:07Z</time>
      </trkpt>
      <trkpt lat="36.8807770" lon="-2.9958820">
        <ele>456.5</ele>
        <time>2021-03-01T16:43:08Z</time>
      </trkpt>
      <trkpt lat="36.8807930" lon="-2.9959450">
        <ele>457.0</ele>
        <time>2021-03-01T16:43:09Z</time>
      </trkpt>
      <trkpt lat="36.8808160" lon="-2.9960060">
        <ele>457.4</ele>
        <time>2021-03-01T16:43:10Z</time>
      </trkpt>
      <trkpt lat="36.8808350" lon="-2.9960660">
        <ele>457.9</ele>
        <time>2021-03-01T16:43:11Z</time>
      </trkpt>
      <trkpt lat="36.8808520" lon="-2.9961270">
        <ele>458.3</ele>
        <time>2021-03-01T16:43:12Z</time>
      </trkpt>
      <trkpt lat="36.8808710" lon="-2.9961870">
        <ele>458.7</ele>
        <time>2021-03-01T16:43:13Z</time>
      </trkpt>
      <trkpt lat="36.8808890" lon="-2.9962460">
        <ele>459.1</ele>
        <time>2021-03-01T16:43:14Z</time>
      </trkpt>
      <trkpt lat="36.8809070" lon="-2.9963050">
        <ele>459.4</ele>
        <time>2021-03-01T16:43:15Z</time>
      </trkpt>
      <trkpt lat="36.8809250" lon="-2.9963700">
        <ele>459.8</ele>
        <time>2021-03-01T16:43:16Z</time>
      </trkpt>
      <trkpt lat="36.8809320" lon="-2.9964390">
        <ele>460.1</ele>
        <time>2021-03-01T16:43:17Z</time>
      </trkpt>
      <trkpt lat="36.8809340" lon="-2.9965080">
        <ele>460.4</ele>
        <time>2021-03-01T16:43:18Z</time>
      </trkpt>
      <trkpt lat="36.8809380" lon="-2.9965790">
        <ele>460.7</ele>
        <time>2021-03-01T16:43:19Z</time>
      </trkpt>
      <trkpt lat="36.8809320" lon="-2.9966490">
        <ele>461.0</ele>
        <time>2021-03-01T16:43:20Z</time>
      </trkpt>
      <trkpt lat="36.8809180" lon="-2.9967150">
        <ele>461.3</ele>
        <time>2021-03-01T16:43:21Z</time>
      </trkpt>
      <trkpt lat="36.8809070" lon="-2.9967860">
        <ele>461.6</ele>
        <time>2021-03-01T16:43:22Z</time>
      </trkpt>
      <trkpt lat="36.8808810" lon="-2.9968520">
        <ele>461.8</ele>
        <time>2021-03-01T16:43:23Z</time>
      </trkpt>
      <trkpt lat="36.8808600" lon="-2.9969280">
        <ele>462.1</ele>
        <time>2021-03-01T16:43:24Z</time>
      </trkpt>
      <trkpt lat="36.8808350" lon="-2.9970000">
        <ele>462.4</ele>
        <time>2021-03-01T16:43:25Z</time>
      </trkpt>
      <trkpt lat="36.8808100" lon="-2.9970600">
        <ele>462.6</ele>
        <time>2021-03-01T16:43:26Z</time>
      </trkpt>
      <trkpt lat="36.8807940" lon="-2.9971150">
        <ele>462.8</ele>
        <time>2021-03-01T16:43:27Z</time>
      </trkpt>
      <trkpt lat="36.8807590" lon="-2.9971600">
        <ele>463.0</ele>
        <time>2021-03-01T16:43:28Z</time>
      </trkpt>
      <trkpt lat="36.8807150" lon="-2.9972010">
        <ele>463.2</ele>
        <time>2021-03-01T16:43:29Z</time>
      </trkpt>
      <trkpt lat="36.8806670" lon="-2.9972330">
        <ele>463.3</ele>
        <time>2021-03-01T16:43:30Z</time>
      </trkpt>
      <trkpt lat="36.8806100" lon="-2.9972540">
        <ele>463.5</ele>
        <time>2021-03-01T16:43:31Z</time>
      </trkpt>
      <trkpt lat="36.8805520" lon="-2.9972870">
        <ele>463.7</ele>
        <time>2021-03-01T16:43:32Z</time>
      </trkpt>
      <trkpt lat="36.8804970" lon="-2.9973290">
        <ele>463.9</ele>
        <time>2021-03-01T16:43:33Z</time>
      </trkpt>
      <trkpt lat="36.8804450" lon="-2.9973690">
        <ele>464.0</ele>
        <time>2021-03-01T16:43:34Z</time>
      </trkpt>
      <trkpt lat="36.8803960" lon="-2.9974050">
        <ele>464.2</ele>
        <time>2021-03-01T16:43:35Z</time>
      </trkpt>
      <trkpt lat="36.8803540" lon="-2.9974400">
        <ele>464.2</ele>
        <time>2021-03-01T16:43:36Z</time>
      </trkpt>
      <trkpt lat="36.8803180" lon="-2.9974760">
        <ele>464.3</ele>
        <time>2021-03-01T16:43:37Z</time>
      </trkpt>
      <trkpt lat="36.8802820" lon="-2.9975100">
        <ele>464.4</ele>
        <time>2021-03-01T16:43:38Z</time>
      </trkpt>
      <trkpt lat="36.8802490" lon="-2.9975570">
        <ele>464.4</ele>
        <time>2021-03-01T16:43:39Z</time>
      </trkpt>
      <trkpt lat="36.8802140" lon="-2.9976060">
        <ele>464.4</ele>
        <time>2021-03-01T16:43:40Z</time>
      </trkpt>
      <trkpt lat="36.8801780" lon="-2.9976510">
        <ele>464.4</ele>
        <time>2021-03-01T16:43:41Z</time>
      </trkpt>
      <trkpt lat="36.8801400" lon="-2.9976910">
        <ele>464.4</ele>
        <time>2021-03-01T16:43:42Z</time>
      </trkpt>
      <trkpt lat="36.8800980" lon="-2.9977290">
        <ele>464.4</ele>
        <time>2021-03-01T16:43:43Z</time>
      </trkpt>
      <trkpt lat="36.8800530" lon="-2.9977710">
        <ele>464.4</ele>
        <time>2021-03-01T16:43:44Z</time>
      </trkpt>
      <trkpt lat="36.8800090" lon="-2.9978170">
        <ele>464.5</ele>
        <time>2021-03-01T16:43:45Z</time>
      </trkpt>
      <trkpt lat="36.8799630" lon="-2.9978670">
        <ele>464.5</ele>
        <time>2021-03-01T16:43:46Z</time>
      </trkpt>
      <trkpt lat="36.8799170" lon="-2.9979140">
        <ele>464.5</ele>
        <time>2021-03-01T16:43:47Z</time>
      </trkpt>
      <trkpt lat="36.8798760" lon="-2.9979620">
        <ele>464.6</ele>
        <time>2021-03-01T16:43:48Z</time>
      </trkpt>
      <trkpt lat="36.8798370" lon="-2.9980130">
        <ele>464.7</ele>
        <time>2021-03-01T16:43:49Z</time>
      </trkpt>
      <trkpt lat="36.8798010" lon="-2.9980630">
        <ele>464.9</ele>
        <time>2021-03-01T16:43:50Z</time>
      </trkpt>
      <trkpt lat="36.8797650" lon="-2.9981110">
        <ele>465.0</ele>
        <time>2021-03-01T16:43:51Z</time>
      </trkpt>
      <trkpt lat="36.8797310" lon="-2.9981560">
        <ele>465.2</ele>
        <time>2021-03-01T16:43:52Z</time>
      </trkpt>
      <trkpt lat="36.8796990" lon="-2.9981990">
        <ele>465.4</ele>
        <time>2021-03-01T16:43:53Z</time>
      </trkpt>
      <trkpt lat="36.8796690" lon="-2.9982380">
        <ele>465.5</ele>
        <time>2021-03-01T16:43:54Z</time>
      </trkpt>
      <trkpt lat="36.8796430" lon="-2.9982750">
        <ele>465.7</ele>
        <time>2021-03-01T16:43:55Z</time>
      </trkpt>
      <trkpt lat="36.8796200" lon="-2.9983110">
        <ele>465.9</ele>
        <time>2021-03-01T16:43:56Z</time>
      </trkpt>
      <trkpt lat="36.8795980" lon="-2.9983430">
        <ele>466.2</ele>
        <time>2021-03-01T16:43:57Z</time>
      </trkpt>
      <trkpt lat="36.8795860" lon="-2.9983810">
        <ele>466.4</ele>
        <time>2021-03-01T16:43:58Z</time>
      </trkpt>
      <trkpt lat="36.8795770" lon="-2.9984310">
        <ele>466.7</ele>
        <time>2021-03-01T16:43:59Z</time>
      </trkpt>
      <trkpt lat="36.8795800" lon="-2.9984900">
        <ele>467.1</ele>
        <time>2021-03-01T16:44:00Z</time>
      </trkpt>
      <trkpt lat="36.8795970" lon="-2.9985490">
        <ele>467.5</ele>
        <time>2021-03-01T16:44:01Z</time>
      </trkpt>
      <trkpt lat="36.8796270" lon="-2.9985980">
        <ele>467.9</ele>
        <time>2021-03-01T16:44:02Z</time>
      </trkpt>
      <trkpt lat="36.8796660" lon="-2.9986380">
        <ele>468.4</ele>
        <time>2021-03-01T16:44:03Z</time>
      </trkpt>
      <trkpt lat="36.8797070" lon="-2.9986630">
        <ele>468.8</ele>
        <time>2021-03-01T16:44:04Z</time>
      </trkpt>
      <trkpt lat="36.8797520" lon="-2.9986830">
        <ele>469.2</ele>
        <time>2021-03-01T16:44:05Z</time>
      </trkpt>
      <trkpt lat="36.8797980" lon="-2.9986850">
        <ele>469.6</ele>
        <time>2021-03-01T16:44:06Z</time>
      </trkpt>
      <trkpt lat="36.8798440" lon="-2.9986830">
        <ele>469.9</ele>
        <time>2021-03-01T16:44:07Z</time>
      </trkpt>
      <trkpt lat="36.8798870" lon="-2.9986730">
        <ele>470.3</ele>
        <time>2021-03-01T16:44:08Z</time>
      </trkpt>
      <trkpt lat="36.8799270" lon="-2.9986560">
        <ele>470.6</ele>
        <time>2021-03-01T16:44:09Z</time>
      </trkpt>
      <trkpt lat="36.8799600" lon="-2.9986220">
        <ele>470.9</ele>
        <time>2021-03-01T16:44:10Z</time>
      </trkpt>
      <trkpt lat="36.8799860" lon="-2.9985750">
        <ele>471.2</ele>
        <time>2021-03-01T16:44:11Z</time>
      </trkpt>
      <trkpt lat="36.8800140" lon="-2.9985240">
        <ele>471.6</ele>
        <time>2021-03-01T16:44:12Z</time>
      </trkpt>
      <trkpt lat="36.8800410" lon="-2.9984690">
        <ele>471.9</ele>
        <time>2021-03-01T16:44:13Z</time>
      </trkpt>
      <trkpt lat="36.8800620" lon="-2.9984140">
        <ele>472.3</ele>
        <time>2021-03-01T16:44:14Z</time>
      </trkpt>
      <trkpt lat="36.8800840" lon="-2.9983590">
        <ele>472.6</ele>
        <time>2021-03-01T16:44:15Z</time>
      </trkpt>
      <trkpt lat="36.8801050" lon="-2.9983050">
        <ele>472.9</ele>
        <time>2021-03-01T16:44:16Z</time>
      </trkpt>
      <trkpt lat="36.8801240" lon="-2.9982490">
        <ele>473.3</ele>
        <time>2021-03-01T16:44:17Z</time>
      </trkpt>
      <trkpt lat="36.8801470" lon="-2.9981950">
        <ele>473.6</ele>
        <time>2021-03-01T16:44:18Z</time>
      </trkpt>
      <trkpt lat="36.8801840" lon="-2.9981480">
        <ele>474.0</ele>
        <time>2021-03-01T16:44:19Z</time>
      </trkpt>
      <trkpt lat="36.8802260" lon="-2.9981000">
        <ele>474.4</ele>
        <time>2021-03-01T16:44:20Z</time>
      </trkpt>
      <trkpt lat="36.8802650" lon="-2.9980530">
        <ele>474.8</ele>
        <time>2021-03-01T16:44:21Z</time>
      </trkpt>
      <trkpt lat="36.8802980" lon="-2.9980060">
        <ele>475.2</ele>
        <time>2021-03-01T16:44:22Z</time>
      </trkpt>
      <trkpt lat="36.8803330" lon="-2.9979690">
        <ele>475.6</ele>
        <time>2021-03-01T16:44:23Z</time>
      </trkpt>
      <trkpt lat="36.8803710" lon="-2.9979390">
        <ele>476.0</ele>
        <time>2021-03-01T16:44:24Z</time>
      </trkpt>
      <trkpt lat="36.8804170" lon="-2.9979220">
        <ele>476.5</ele>
        <time>2021-03-01T16:44:25Z</time>
      </trkpt>
      <trkpt lat="36.8804650" lon="-2.9979150">
        <ele>476.9</ele>
        <time>2021-03-01T16:44:26Z</time>
      </trkpt>
      <trkpt lat="36.8805100" lon="-2.9979040">
        <ele>477.3</ele>
        <time>2021-03-01T16:44:27Z</time>
      </trkpt>
      <trkpt lat="36.8805570" lon="-2.9978830">
        <ele>477.7</ele>
        <time>2021-03-01T16:44:28Z</time>
      </trkpt>
      <trkpt lat="36.8806060" lon="-2.9978640">
        <ele>478.1</ele>
        <time>2021-03-01T16:44:29Z</time>
      </trkpt>
      <trkpt lat="36.8806540" lon="-2.9978510">
        <ele>478.4</ele>
        <time>2021-03-01T16:44:30Z</time>
      </trkpt>
      <trkpt lat="36.8807000" lon="-2.9978310">
        <ele>478.8</ele>
        <time>2021-03-01T16:44:31Z</time>
      </trkpt>
      <trkpt lat="36.8807450" lon="-2.9978070">
        <ele>479.1</ele>
        <time>2021-03-01T16:44:32Z</time>
      </trkpt>
      <trkpt lat="36.8807900" lon="-2.9977820">
        <ele>479.5</ele>
        <time>2021-03-01T16:44:33Z</time>
      </trkpt>
      <trkpt lat="36.8808350" lon="-2.9977580">
        <ele>479.8</ele>
        <time>2021-03-01T16:44:34Z</time>
      </trkpt>
      <trkpt lat="36.8808860" lon="-2.9977310">
        <ele>480.2</ele>
        <time>2021-03-01T16:44:35Z</time>
      </trkpt>
      <trkpt lat="36.8809390" lon="-2.9977040">
        <ele>480.6</ele>
        <time>2021-03-01T16:44:36Z</time>
      </trkpt>
      <trkpt lat="36.8809910" lon="-2.9976810">
        <ele>481.0</ele>
        <time>2021-03-01T16:44:37Z</time>
      </trkpt>
      <trkpt lat="36.8810410" lon="-2.9976600">
        <ele>481.3</ele>
        <time>2021-03-01T16:44:38Z</time>
      </trkpt>
      <trkpt lat="36.8810930" lon="-2.9976430">
        <ele>481.7</ele>
        <time>2021-03-01T16:44:39Z</time>
      </trkpt>
      <trkpt lat="36.8811460" lon="-2.9976310">
        <ele>482.1</ele>
        <time>2021-03-01T16:44:40Z</time>
      </trkpt>
      <trkpt lat="36.8812030" lon="-2.9976290">
        <ele>482.5</ele>
        <time>2021-03-01T16:44:41Z</time>
      </trkpt>
      <trkpt lat="36.8812570" lon="-2.9976380">
        <ele>482.9</ele>
        <time>2021-03-01T16:44:42Z</time>
      </trkpt>
      <trkpt lat="36.8813070" lon="-2.9976410">
        <ele>483.3</ele>
        <time>2021-03-01T16:44:43Z</time>
      </trkpt>
      <trkpt lat="36.8813490" lon="-2.9976330">
        <ele>483.6</ele>
        <time>2021-03-01T16:44:44Z</time>
      </trkpt>
      <trkpt lat="36.8813990" lon="-2.9976340">
        <ele>484.0</ele>
        <time>2021-03-01T16:44:45Z</time>
      </trkpt>
      <trkpt lat="36.8814460" lon="-2.9976080">
        <ele>484.5</ele>
        <time>2021-03-01T16:44:46Z</time>
      </trkpt>
      <trkpt lat="36.8814870" lon="-2.9975690">
        <ele>484.9</ele>
        <time>2021-03-01T16:44:47Z</time>
      </trkpt>
      <trkpt lat="36.8815190" lon="-2.9975220">
        <ele>485.4</ele>
        <time>2021-03-01T16:44:48Z</time>
      </trkpt>
      <trkpt lat="36.8815520" lon="-2.9974760">
        <ele>485.8</ele>
        <time>2021-03-01T16:44:49Z</time>
      </trkpt>
      <trkpt lat="36.8815840" lon="-2.9974310">
        <ele>486.2</ele>
        <time>2021-03-01T16:44:50Z</time>
      </trkpt>
      <trkpt lat="36.8816220" lon="-2.9973940">
        <ele>486.7</ele>
        <time>2021-03-01T16:44:51Z</time>
      </trkpt>
      <trkpt lat="36.8816580" lon="-2.9973510">
        <ele>487.1</ele>
        <time>2021-03-01T16:44:52Z</time>
      </trkpt>
      <trkpt lat="36.8816940" lon="-2.9973170">
        <ele>487.5</ele>
        <time>2021-03-01T16:44:53Z</time>
      </trkpt>
      <trkpt lat="36.8817230" lon="-2.9972820">
        <ele>487.9</ele>
        <time>2021-03-01T16:44:54Z</time>
      </trkpt>
      <trkpt lat="36.8817530" lon="-2.9972540">
        <ele>488.2</ele>
        <time>2021-03-01T16:44:55Z</time>
      </trkpt>
      <trkpt lat="36.8817810" lon="-2.9972290">
        <ele>488.5</ele>
        <time>2021-03-01T16:44:56Z</time>
      </trkpt>
      <trkpt lat="36.8818060" lon="-2.9972070">
        <ele>488.8</ele>
        <time>2021-03-01T16:44:57Z</time>
      </trkpt>
      <trkpt lat="36.8818410" lon="-2.9972020">
        <ele>489.1</ele>
        <time>2021-03-01T16:44:58Z</time>
      </trkpt>
      <trkpt lat="36.8818530" lon="-2.9972080">
        <ele>489.1</ele>
        <time>2021-03-01T16:44:59Z</time>
      </trkpt>
      <trkpt lat="36.8818700" lon="-2.9972380">
        <ele>489.3</ele>
        <time>2021-03-01T16:45:00Z</time>
      </trkpt>
      <trkpt lat="36.8818740" lon="-2.9972840">
        <ele>489.5</ele>
        <time>2021-03-01T16:45:01Z</time>
      </trkpt>
      <trkpt lat="36.8818630" lon="-2.9973310">
        <ele>489.7</ele>
        <time>2021-03-01T16:45:02Z</time>
      </trkpt>
      <trkpt lat="36.8818530" lon="-2.9973800">
        <ele>489.9</ele>
        <time>2021-03-01T16:45:03Z</time>
      </trkpt>
      <trkpt lat="36.8818420" lon="-2.9974290">
        <ele>490.2</ele>
        <time>2021-03-01T16:45:04Z</time>
      </trkpt>
      <trkpt lat="36.8818220" lon="-2.9974730">
        <ele>490.4</ele>
        <time>2021-03-01T16:45:05Z</time>
      </trkpt>
      <trkpt lat="36.8817950" lon="-2.9975200">
        <ele>490.6</ele>
        <time>2021-03-01T16:45:06Z</time>
      </trkpt>
      <trkpt lat="36.8817550" lon="-2.9975590">
        <ele>490.9</ele>
        <time>2021-03-01T16:45:07Z</time>
      </trkpt>
      <trkpt lat="36.8817060" lon="-2.9975930">
        <ele>491.2</ele>
        <time>2021-03-01T16:45:08Z</time>
      </trkpt>
      <trkpt lat="36.8816720" lon="-2.9976440">
        <ele>491.6</ele>
        <time>2021-03-01T16:45:09Z</time>
      </trkpt>
      <trkpt lat="36.8816440" lon="-2.9976910">
        <ele>492.0</ele>
        <time>2021-03-01T16:45:10Z</time>
      </trkpt>
      <trkpt lat="36.8816190" lon="-2.9977380">
        <ele>492.3</ele>
        <time>2021-03-01T16:45:11Z</time>
      </trkpt>
      <trkpt lat="36.8815880" lon="-2.9977890">
        <ele>492.8</ele>
        <time>2021-03-01T16:45:12Z</time>
      </trkpt>
      <trkpt lat="36.8815590" lon="-2.9978360">
        <ele>493.2</ele>
        <time>2021-03-01T16:45:13Z</time>
      </trkpt>
      <trkpt lat="36.8815230" lon="-2.9978730">
        <ele>493.6</ele>
        <time>2021-03-01T16:45:14Z</time>
      </trkpt>
      <trkpt lat="36.8814820" lon="-2.9979100">
        <ele>494.1</ele>
        <time>2021-03-01T16:45:15Z</time>
      </trkpt>
      <trkpt lat="36.8814400" lon="-2.9979500">
        <ele>494.6</ele>
        <time>2021-03-01T16:45:16Z</time>
      </trkpt>
      <trkpt lat="36.8813960" lon="-2.9979800">
        <ele>495.2</ele>
        <time>2021-03-01T16:45:17Z</time>
      </trkpt>
      <trkpt lat="36.8813500" lon="-2.9979990">
        <ele>495.8</ele>
        <time>2021-03-01T16:45:18Z</time>
      </trkpt>
      <trkpt lat="36.8813100" lon="-2.9980220">
        <ele>496.4</ele>
        <time>2021-03-01T16:45:19Z</time>
      </trkpt>
      <trkpt lat="36.8812700" lon="-2.9980480">
        <ele>497.0</ele>
        <time>2021-03-01T16:45:20Z</time>
      </trkpt>
      <trkpt lat="36.8812290" lon="-2.9980770">
        <ele>497.5</ele>
        <time>2021-03-01T16:45:21Z</time>
      </trkpt>
      <trkpt lat="36.8811910" lon="-2.9981140">
        <ele>498.1</ele>
        <time>2021-03-01T16:45:22Z</time>
      </trkpt>
      <trkpt lat="36.8811560" lon="-2.9981480">
        <ele>498.6</ele>
        <time>2021-03-01T16:45:23Z</time>
      </trkpt>
      <trkpt lat="36.8811250" lon="-2.9981870">
        <ele>499.0</ele>
        <time>2021-03-01T16:45:24Z</time>
      </trkpt>
      <trkpt lat="36.8810950" lon="-2.9982360">
        <ele>499.5</ele>
        <time>2021-03-01T16:45:25Z</time>
      </trkpt>
      <trkpt lat="36.8810660" lon="-2.9982900">
        <ele>500.0</ele>
        <time>2021-03-01T16:45:26Z</time>
      </trkpt>
      <trkpt lat="36.8810380" lon="-2.9983360">
        <ele>500.5</ele>
        <time>2021-03-01T16:45:27Z</time>
      </trkpt>
      <trkpt lat="36.8810140" lon="-2.9983750">
        <ele>500.8</ele>
        <time>2021-03-01T16:45:28Z</time>
      </trkpt>
      <trkpt lat="36.8809950" lon="-2.9984120">
        <ele>501.0</ele>
        <time>2021-03-01T16:45:29Z</time>
      </trkpt>
      <trkpt lat="36.8809860" lon="-2.9984610">
        <ele>501.3</ele>
        <time>2021-03-01T16:45:30Z</time>
      </trkpt>
      <trkpt lat="36.8809800" lon="-2.9985230">
        <ele>501.5</ele>
        <time>2021-03-01T16:45:31Z</time>
      </trkpt>
      <trkpt lat="36.8809430" lon="-2.9986020">
        <ele>501.7</ele>
        <time>2021-03-01T16:45:32Z</time>
      </trkpt>
      <trkpt lat="36.8809390" lon="-2.9986730">
        <ele>501.8</ele>
        <time>2021-03-01T16:45:33Z</time>
      </trkpt>
      <trkpt lat="36.8809330" lon="-2.9987400">
        <ele>501.9</ele>
        <time>2021-03-01T16:45:34Z</time>
      </trkpt>
      <trkpt lat="36.8809300" lon="-2.9988030">
        <ele>501.9</ele>
        <time>2021-03-01T16:45:35Z</time>
      </trkpt>
      <trkpt lat="36.8809290" lon="-2.9988690">
        <ele>502.0</ele>
        <time>2021-03-01T16:45:36Z</time>
      </trkpt>
      <trkpt lat="36.8809280" lon="-2.9989400">
        <ele>502.1</ele>
        <time>2021-03-01T16:45:37Z</time>
      </trkpt>
      <trkpt lat="36.8809220" lon="-2.9990100">
        <ele>502.4</ele>
        <time>2021-03-01T16:45:38Z</time>
      </trkpt>
      <trkpt lat="36.8809150" lon="-2.9990800">
        <ele>502.8</ele>
        <time>2021-03-01T16:45:39Z</time>
      </trkpt>
      <trkpt lat="36.8809090" lon="-2.9991490">
        <ele>503.3</ele>
        <time>2021-03-01T16:45:40Z</time>
      </trkpt>
      <trkpt lat="36.8809020" lon="-2.9992070">
        <ele>503.8</ele>
        <time>2021-03-01T16:45:41Z</time>
      </trkpt>
      <trkpt lat="36.8808970" lon="-2.9992600">
        <ele>504.4</ele>
        <time>2021-03-01T16:45:42Z</time>
      </trkpt>
      <trkpt lat="36.8808970" lon="-2.9993090">
        <ele>505.0</ele>
        <time>2021-03-01T16:45:43Z</time>
      </trkpt>
      <trkpt lat="36.8809000" lon="-2.9993570">
        <ele>505.6</ele>
        <time>2021-03-01T16:45:44Z</time>
      </trkpt>
      <trkpt lat="36.8809010" lon="-2.9994030">
        <ele>506.1</ele>
        <time>2021-03-01T16:45:45Z</time>
      </trkpt>
      <trkpt lat="36.8809030" lon="-2.9994400">
        <ele>506.5</ele>
        <time>2021-03-01T16:45:46Z</time>
      </trkpt>
      <trkpt lat="36.8809070" lon="-2.9994750">
        <ele>507.0</ele>
        <time>2021-03-01T16:45:47Z</time>
      </trkpt>
      <trkpt lat="36.8809180" lon="-2.9995070">
        <ele>507.4</ele>
        <time>2021-03-01T16:45:48Z</time>
      </trkpt>
      <trkpt lat="36.8809370" lon="-2.9995440">
        <ele>507.9</ele>
        <time>2021-03-01T16:45:49Z</time>
      </trkpt>
      <trkpt lat="36.8809600" lon="-2.9995910">
        <ele>508.5</ele>
        <time>2021-03-01T16:45:50Z</time>
      </trkpt>
      <trkpt lat="36.8809840" lon="-2.9996350">
        <ele>509.2</ele>
        <time>2021-03-01T16:45:51Z</time>
      </trkpt>
      <trkpt lat="36.8810050" lon="-2.9996750">
        <ele>509.7</ele>
        <time>2021-03-01T16:45:52Z</time>
      </trkpt>
      <trkpt lat="36.8810230" lon="-2.9997220">
        <ele>510.3</ele>
        <time>2021-03-01T16:45:53Z</time>
      </trkpt>
      <trkpt lat="36.8810350" lon="-2.9997740">
        <ele>510.8</ele>
        <time>2021-03-01T16:45:54Z</time>
      </trkpt>
      <trkpt lat="36.8810520" lon="-2.9998270">
        <ele>511.4</ele>
        <time>2021-03-01T16:45:55Z</time>
      </trkpt>
      <trkpt lat="36.8810670" lon="-2.9998800">
        <ele>511.9</ele>
        <time>2021-03-01T16:45:56Z</time>
      </trkpt>
      <trkpt lat="36.8810760" lon="-2.9999320">
        <ele>512.4</ele>
        <time>2021-03-01T16:45:57Z</time>
      </trkpt>
      <trkpt lat="36.8810860" lon="-2.9999850">
        <ele>512.9</ele>
        <time>2021-03-01T16:45:58Z</time>
      </trkpt>
      <trkpt lat="36.8810970" lon="-3.0000350">
        <ele>513.4</ele>
        <time>2021-03-01T16:45:59Z</time>
      </trkpt>
      <trkpt lat="36.8810980" lon="-3.0000810">
        <ele>513.8</ele>
        <time>2021-03-01T16:46:00Z</time>
      </trkpt>
      <trkpt lat="36.8810960" lon="-3.0001290">
        <ele>514.3</ele>
        <time>2021-03-01T16:46:01Z</time>
      </trkpt>
      <trkpt lat="36.8810850" lon="-3.0001810">
        <ele>514.8</ele>
        <time>2021-03-01T16:46:02Z</time>
      </trkpt>
      <trkpt lat="36.8810720" lon="-3.0002370">
        <ele>515.4</ele>
        <time>2021-03-01T16:46:03Z</time>
      </trkpt>
      <trkpt lat="36.8810400" lon="-3.0002840">
        <ele>516.1</ele>
        <time>2021-03-01T16:46:04Z</time>
      </trkpt>
      <trkpt lat="36.8810070" lon="-3.0003370">
        <ele>516.8</ele>
        <time>2021-03-01T16:46:05Z</time>
      </trkpt>
      <trkpt lat="36.8809730" lon="-3.0003900">
        <ele>517.5</ele>
        <time>2021-03-01T16:46:06Z</time>
      </trkpt>
      <trkpt lat="36.8809430" lon="-3.0004410">
        <ele>518.2</ele>
        <time>2021-03-01T16:46:07Z</time>
      </trkpt>
      <trkpt lat="36.8809180" lon="-3.0004870">
        <ele>518.8</ele>
        <time>2021-03-01T16:46:08Z</time>
      </trkpt>
      <trkpt lat="36.8808950" lon="-3.0005330">
        <ele>519.4</ele>
        <time>2021-03-01T16:46:09Z</time>
      </trkpt>
      <trkpt lat="36.8808760" lon="-3.0005850">
        <ele>520.0</ele>
        <time>2021-03-01T16:46:10Z</time>
      </trkpt>
      <trkpt lat="36.8808640" lon="-3.0006460">
        <ele>520.6</ele>
        <time>2021-03-01T16:46:11Z</time>
      </trkpt>
      <trkpt lat="36.8808670" lon="-3.0007140">
        <ele>521.3</ele>
        <time>2021-03-01T16:46:12Z</time>
      </trkpt>
      <trkpt lat="36.8808730" lon="-3.0007780">
        <ele>521.9</ele>
        <time>2021-03-01T16:46:13Z</time>
      </trkpt>
      <trkpt lat="36.8808830" lon="-3.0008410">
        <ele>522.5</ele>
        <time>2021-03-01T16:46:14Z</time>
      </trkpt>
      <trkpt lat="36.8808940" lon="-3.0008990">
        <ele>523.2</ele>
        <time>2021-03-01T16:46:15Z</time>
      </trkpt>
      <trkpt lat="36.8809010" lon="-3.0009520">
        <ele>523.7</ele>
        <time>2021-03-01T16:46:16Z</time>
      </trkpt>
      <trkpt lat="36.8809030" lon="-3.0009990">
        <ele>524.2</ele>
        <time>2021-03-01T16:46:17Z</time>
      </trkpt>
      <trkpt lat="36.8808990" lon="-3.0010380">
        <ele>524.6</ele>
        <time>2021-03-01T16:46:18Z</time>
      </trkpt>
      <trkpt lat="36.8808840" lon="-3.0010850">
        <ele>525.2</ele>
        <time>2021-03-01T16:46:19Z</time>
      </trkpt>
      <trkpt lat="36.8808580" lon="-3.0011400">
        <ele>525.8</ele>
        <time>2021-03-01T16:46:20Z</time>
      </trkpt>
      <trkpt lat="36.8808330" lon="-3.0011950">
        <ele>526.3</ele>
        <time>2021-03-01T16:46:21Z</time>
      </trkpt>
      <trkpt lat="36.8808060" lon="-3.0012350">
        <ele>526.8</ele>
        <time>2021-03-01T16:46:22Z</time>
      </trkpt>
      <trkpt lat="36.8807880" lon="-3.0012730">
        <ele>527.2</ele>
        <time>2021-03-01T16:46:23Z</time>
      </trkpt>
      <trkpt lat="36.8807770" lon="-3.0013110">
        <ele>527.6</ele>
        <time>2021-03-01T16:46:24Z</time>
      </trkpt>
      <trkpt lat="36.8807750" lon="-3.0013580">
        <ele>528.0</ele>
        <time>2021-03-01T16:46:25Z</time>
      </trkpt>
      <trkpt lat="36.8807810" lon="-3.0014060">
        <ele>528.5</ele>
        <time>2021-03-01T16:46:26Z</time>
      </trkpt>
      <trkpt lat="36.8807800" lon="-3.0014550">
        <ele>529.1</ele>
        <time>2021-03-01T16:46:27Z</time>
      </trkpt>
      <trkpt lat="36.8807770" lon="-3.0015100">
        <ele>529.6</ele>
        <time>2021-03-01T16:46:28Z</time>
      </trkpt>
      <trkpt lat="36.8807770" lon="-3.0015630">
        <ele>530.2</ele>
        <time>2021-03-01T16:46:29Z</time>
      </trkpt>
      <trkpt lat="36.8807820" lon="-3.0016060">
        <ele>530.6</ele>
        <time>2021-03-01T16:46:30Z</time>
      </trkpt>
      <trkpt lat="36.8807920" lon="-3.0016400">
        <ele>531.0</ele>
        <time>2021-03-01T16:46:31Z</time>
      </trkpt>
      <trkpt lat="36.8808100" lon="-3.0016710">
        <ele>531.3</ele>
        <time>2021-03-01T16:46:32Z</time>
      </trkpt>
      <trkpt lat="36.8808450" lon="-3.0017020">
        <ele>531.8</ele>
        <time>2021-03-01T16:46:33Z</time>
      </trkpt>
      <trkpt lat="36.8808900" lon="-3.0017340">
        <ele>532.4</ele>
        <time>2021-03-01T16:46:34Z</time>
      </trkpt>
      <trkpt lat="36.8809440" lon="-3.0017700">
        <ele>533.1</ele>
        <time>2021-03-01T16:46:35Z</time>
      </trkpt>
      <trkpt lat="36.8809910" lon="-3.0017930">
        <ele>533.8</ele>
        <time>2021-03-01T16:46:36Z</time>
      </trkpt>
      <trkpt lat="36.8810290" lon="-3.0018110">
        <ele>534.4</ele>
        <time>2021-03-01T16:46:37Z</time>
      </trkpt>
      <trkpt lat="36.8811050" lon="-3.0018490">
        <ele>535.6</ele>
        <time>2021-03-01T16:46:38Z</time>
      </trkpt>
      <trkpt lat="36.8811390" lon="-3.0018710">
        <ele>536.2</ele>
        <time>2021-03-01T16:46:39Z</time>
      </trkpt>
      <trkpt lat="36.8811730" lon="-3.0018930">
        <ele>536.7</ele>
        <time>2021-03-01T16:46:40Z</time>
      </trkpt>
      <trkpt lat="36.8812060" lon="-3.0019140">
        <ele>537.2</ele>
        <time>2021-03-01T16:46:41Z</time>
      </trkpt>
      <trkpt lat="36.8812350" lon="-3.0019360">
        <ele>537.7</ele>
        <time>2021-03-01T16:46:42Z</time>
      </trkpt>
      <trkpt lat="36.8812590" lon="-3.0019700">
        <ele>538.1</ele>
        <time>2021-03-01T16:46:43Z</time>
      </trkpt>
      <trkpt lat="36.8812770" lon="-3.0020170">
        <ele>538.6</ele>
        <time>2021-03-01T16:46:44Z</time>
      </trkpt>
      <trkpt lat="36.8812930" lon="-3.0020630">
        <ele>539.0</ele>
        <time>2021-03-01T16:46:45Z</time>
      </trkpt>
      <trkpt lat="36.8812900" lon="-3.0021120">
        <ele>539.4</ele>
        <time>2021-03-01T16:46:46Z</time>
      </trkpt>
      <trkpt lat="36.8812610" lon="-3.0021700">
        <ele>539.9</ele>
        <time>2021-03-01T16:46:47Z</time>
      </trkpt>
      <trkpt lat="36.8812120" lon="-3.0022060">
        <ele>540.4</ele>
        <time>2021-03-01T16:46:48Z</time>
      </trkpt>
      <trkpt lat="36.8811700" lon="-3.0022480">
        <ele>541.0</ele>
        <time>2021-03-01T16:46:49Z</time>
      </trkpt>
      <trkpt lat="36.8811340" lon="-3.0022970">
        <ele>541.6</ele>
        <time>2021-03-01T16:46:50Z</time>
      </trkpt>
      <trkpt lat="36.8810970" lon="-3.0023430">
        <ele>542.2</ele>
        <time>2021-03-01T16:46:51Z</time>
      </trkpt>
      <trkpt lat="36.8810570" lon="-3.0023810">
        <ele>542.9</ele>
        <time>2021-03-01T16:46:52Z</time>
      </trkpt>
      <trkpt lat="36.8810240" lon="-3.0024310">
        <ele>543.6</ele>
        <time>2021-03-01T16:46:53Z</time>
      </trkpt>
      <trkpt lat="36.8809910" lon="-3.0024800">
        <ele>544.4</ele>
        <time>2021-03-01T16:46:54Z</time>
      </trkpt>
      <trkpt lat="36.8809600" lon="-3.0025310">
        <ele>545.1</ele>
        <time>2021-03-01T16:46:55Z</time>
      </trkpt>
      <trkpt lat="36.8809340" lon="-3.0025780">
        <ele>545.7</ele>
        <time>2021-03-01T16:46:56Z</time>
      </trkpt>
      <trkpt lat="36.8809110" lon="-3.0026270">
        <ele>546.2</ele>
        <time>2021-03-01T16:46:57Z</time>
      </trkpt>
      <trkpt lat="36.8808860" lon="-3.0026770">
        <ele>546.6</ele>
        <time>2021-03-01T16:46:58Z</time>
      </trkpt>
      <trkpt lat="36.8808660" lon="-3.0027230">
        <ele>547.0</ele>
        <time>2021-03-01T16:46:59Z</time>
      </trkpt>
      <trkpt lat="36.8808510" lon="-3.0027730">
        <ele>547.3</ele>
        <time>2021-03-01T16:47:00Z</time>
      </trkpt>
      <trkpt lat="36.8808440" lon="-3.0028260">
        <ele>547.6</ele>
        <time>2021-03-01T16:47:01Z</time>
      </trkpt>
      <trkpt lat="36.8808370" lon="-3.0028830">
        <ele>547.8</ele>
        <time>2021-03-01T16:47:02Z</time>
      </trkpt>
      <trkpt lat="36.8808320" lon="-3.0029490">
        <ele>548.2</ele>
        <time>2021-03-01T16:47:03Z</time>
      </trkpt>
      <trkpt lat="36.8808240" lon="-3.0030170">
        <ele>548.6</ele>
        <time>2021-03-01T16:47:04Z</time>
      </trkpt>
      <trkpt lat="36.8808150" lon="-3.0030900">
        <ele>549.0</ele>
        <time>2021-03-01T16:47:05Z</time>
      </trkpt>
      <trkpt lat="36.8807930" lon="-3.0031630">
        <ele>549.5</ele>
        <time>2021-03-01T16:47:06Z</time>
      </trkpt>
      <trkpt lat="36.8807700" lon="-3.0032260">
        <ele>549.9</ele>
        <time>2021-03-01T16:47:07Z</time>
      </trkpt>
      <trkpt lat="36.8807120" lon="-3.0032680">
        <ele>550.4</ele>
        <time>2021-03-01T16:47:08Z</time>
      </trkpt>
      <trkpt lat="36.8807040" lon="-3.0033170">
        <ele>550.7</ele>
        <time>2021-03-01T16:47:09Z</time>
      </trkpt>
      <trkpt lat="36.8806920" lon="-3.0033670">
        <ele>551.1</ele>
        <time>2021-03-01T16:47:10Z</time>
      </trkpt>
      <trkpt lat="36.8806870" lon="-3.0034150">
        <ele>551.4</ele>
        <time>2021-03-01T16:47:11Z</time>
      </trkpt>
      <trkpt lat="36.8806750" lon="-3.0034650">
        <ele>551.9</ele>
        <time>2021-03-01T16:47:12Z</time>
      </trkpt>
      <trkpt lat="36.8806570" lon="-3.0035180">
        <ele>552.5</ele>
        <time>2021-03-01T16:47:13Z</time>
      </trkpt>
      <trkpt lat="36.8806300" lon="-3.0035630">
        <ele>553.1</ele>
        <time>2021-03-01T16:47:14Z</time>
      </trkpt>
      <trkpt lat="36.8806090" lon="-3.0036010">
        <ele>553.7</ele>
        <time>2021-03-01T16:47:15Z</time>
      </trkpt>
      <trkpt lat="36.8805910" lon="-3.0036340">
        <ele>554.1</ele>
        <time>2021-03-01T16:47:16Z</time>
      </trkpt>
      <trkpt lat="36.8805760" lon="-3.0036660">
        <ele>554.5</ele>
        <time>2021-03-01T16:47:17Z</time>
      </trkpt>
      <trkpt lat="36.8805620" lon="-3.0036950">
        <ele>554.9</ele>
        <time>2021-03-01T16:47:18Z</time>
      </trkpt>
      <trkpt lat="36.8805500" lon="-3.0037340">
        <ele>555.3</ele>
        <time>2021-03-01T16:47:19Z</time>
      </trkpt>
      <trkpt lat="36.8805380" lon="-3.0037770">
        <ele>555.8</ele>
        <time>2021-03-01T16:47:20Z</time>
      </trkpt>
      <trkpt lat="36.8805270" lon="-3.0038250">
        <ele>556.3</ele>
        <time>2021-03-01T16:47:21Z</time>
      </trkpt>
      <trkpt lat="36.8805330" lon="-3.0038750">
        <ele>556.8</ele>
        <time>2021-03-01T16:47:22Z</time>
      </trkpt>
      <trkpt lat="36.8805300" lon="-3.0039220">
        <ele>557.1</ele>
        <time>2021-03-01T16:47:23Z</time>
      </trkpt>
      <trkpt lat="36.8805320" lon="-3.0039700">
        <ele>557.4</ele>
        <time>2021-03-01T16:47:24Z</time>
      </trkpt>
      <trkpt lat="36.8805230" lon="-3.0040160">
        <ele>557.5</ele>
        <time>2021-03-01T16:47:25Z</time>
      </trkpt>
      <trkpt lat="36.8805110" lon="-3.0040580">
        <ele>557.5</ele>
        <time>2021-03-01T16:47:26Z</time>
      </trkpt>
      <trkpt lat="36.8805010" lon="-3.0041000">
        <ele>557.5</ele>
        <time>2021-03-01T16:47:27Z</time>
      </trkpt>
      <trkpt lat="36.8804580" lon="-3.0041180">
        <ele>557.3</ele>
        <time>2021-03-01T16:47:28Z</time>
      </trkpt>
      <trkpt lat="36.8804220" lon="-3.0041510">
        <ele>557.0</ele>
        <time>2021-03-01T16:47:29Z</time>
      </trkpt>
      <trkpt lat="36.8803890" lon="-3.0041920">
        <ele>556.6</ele>
        <time>2021-03-01T16:47:30Z</time>
      </trkpt>
      <trkpt lat="36.8803550" lon="-3.0042360">
        <ele>556.2</ele>
        <time>2021-03-01T16:47:31Z</time>
      </trkpt>
    </trkseg>
  </trk>
</gpx>
